<?xml version="1.0" encoding="UTF-8" standalone="no" ?>
<gpx xmlns="http://www.topografix.com/GPX/1/1" xmlns:xsi="http://www.w3.org/2001/XMLSchema-instance" xsi:schemaLocation="http://www.topografix.com/GPX/1/1 http://www.topografix.com/GPX/1/1/gpx.xsd" version="1.1" creator="VisuGPX - https://www.visugpx.com">
  <metadata>
    <name>BTTAlt800-ActivitéTerminée-PostCheck_J3#1</name>
  </metadata>
  <trk>
    <name><![CDATA[BTTAlt800-ActivitéTerminée-PostCheck_J3#1_1]]></name>
    <trkseg>
      <trkpt lat="46.18373" lon="4.60391">
        <ele>833.6</ele>
        <time>2025-09-20T07:55:11Z</time>
      </trkpt>
      <trkpt lat="46.18372" lon="4.60392">
        <ele>833.6</ele>
        <time>2025-09-20T07:55:12Z</time>
      </trkpt>
      <trkpt lat="46.18372" lon="4.60393">
        <ele>833.6</ele>
        <time>2025-09-20T07:55:13Z</time>
      </trkpt>
      <trkpt lat="46.18371" lon="4.60395">
        <ele>833.6</ele>
        <time>2025-09-20T07:55:14Z</time>
      </trkpt>
      <trkpt lat="46.1837" lon="4.60396">
        <ele>833.6</ele>
        <time>2025-09-20T07:55:15Z</time>
      </trkpt>
      <trkpt lat="46.1837" lon="4.60398">
        <ele>833.6</ele>
        <time>2025-09-20T07:55:16Z</time>
      </trkpt>
      <trkpt lat="46.18368" lon="4.60399">
        <ele>833.6</ele>
        <time>2025-09-20T07:55:17Z</time>
      </trkpt>
      <trkpt lat="46.18368" lon="4.604">
        <ele>833.8</ele>
        <time>2025-09-20T07:55:18Z</time>
      </trkpt>
      <trkpt lat="46.18367" lon="4.604">
        <ele>833.8</ele>
        <time>2025-09-20T07:55:19Z</time>
      </trkpt>
      <trkpt lat="46.18368" lon="4.60398">
        <ele>833.8</ele>
        <time>2025-09-20T07:55:20Z</time>
      </trkpt>
      <trkpt lat="46.18367" lon="4.60397">
        <ele>833.8</ele>
        <time>2025-09-20T07:55:24Z</time>
      </trkpt>
      <trkpt lat="46.18366" lon="4.60398">
        <ele>833.8</ele>
        <time>2025-09-20T07:55:25Z</time>
      </trkpt>
      <trkpt lat="46.18365" lon="4.60398">
        <ele>833.8</ele>
        <time>2025-09-20T07:55:26Z</time>
      </trkpt>
      <trkpt lat="46.18364" lon="4.60399">
        <ele>833.8</ele>
        <time>2025-09-20T07:55:27Z</time>
      </trkpt>
      <trkpt lat="46.18363" lon="4.604">
        <ele>833.8</ele>
        <time>2025-09-20T07:55:28Z</time>
      </trkpt>
      <trkpt lat="46.18363" lon="4.60403">
        <ele>833.8</ele>
        <time>2025-09-20T07:55:29Z</time>
      </trkpt>
      <trkpt lat="46.18362" lon="4.60406">
        <ele>833.8</ele>
        <time>2025-09-20T07:55:30Z</time>
      </trkpt>
      <trkpt lat="46.18361" lon="4.60408">
        <ele>833.8</ele>
        <time>2025-09-20T07:55:31Z</time>
      </trkpt>
      <trkpt lat="46.18361" lon="4.60411">
        <ele>834</ele>
        <time>2025-09-20T07:55:32Z</time>
      </trkpt>
      <trkpt lat="46.1836" lon="4.60413">
        <ele>834</ele>
        <time>2025-09-20T07:55:33Z</time>
      </trkpt>
      <trkpt lat="46.1836" lon="4.60415">
        <ele>834</ele>
        <time>2025-09-20T07:55:34Z</time>
      </trkpt>
      <trkpt lat="46.1836" lon="4.60416">
        <ele>834</ele>
        <time>2025-09-20T07:55:35Z</time>
      </trkpt>
      <trkpt lat="46.1836" lon="4.60417">
        <ele>834</ele>
        <time>2025-09-20T07:55:36Z</time>
      </trkpt>
      <trkpt lat="46.18359" lon="4.60415">
        <ele>834.6</ele>
        <time>2025-09-20T07:56:24Z</time>
      </trkpt>
      <trkpt lat="46.1836" lon="4.60418">
        <ele>834.6</ele>
        <time>2025-09-20T07:56:25Z</time>
      </trkpt>
      <trkpt lat="46.1836" lon="4.60422">
        <ele>834.6</ele>
        <time>2025-09-20T07:56:26Z</time>
      </trkpt>
      <trkpt lat="46.1836" lon="4.60426">
        <ele>834.2</ele>
        <time>2025-09-20T07:56:27Z</time>
      </trkpt>
      <trkpt lat="46.18361" lon="4.6043">
        <ele>833.8</ele>
        <time>2025-09-20T07:56:28Z</time>
      </trkpt>
      <trkpt lat="46.18361" lon="4.60435">
        <ele>833.6</ele>
        <time>2025-09-20T07:56:29Z</time>
      </trkpt>
      <trkpt lat="46.18361" lon="4.6044">
        <ele>833.6</ele>
        <time>2025-09-20T07:56:30Z</time>
      </trkpt>
      <trkpt lat="46.18363" lon="4.60449">
        <ele>833.6</ele>
        <time>2025-09-20T07:56:31Z</time>
      </trkpt>
      <trkpt lat="46.18364" lon="4.60455">
        <ele>833.2</ele>
        <time>2025-09-20T07:56:32Z</time>
      </trkpt>
      <trkpt lat="46.18367" lon="4.60462">
        <ele>832.8</ele>
        <time>2025-09-20T07:56:33Z</time>
      </trkpt>
      <trkpt lat="46.18369" lon="4.60468">
        <ele>832.8</ele>
        <time>2025-09-20T07:56:34Z</time>
      </trkpt>
      <trkpt lat="46.18371" lon="4.60476">
        <ele>832.2</ele>
        <time>2025-09-20T07:56:35Z</time>
      </trkpt>
      <trkpt lat="46.1837" lon="4.60484">
        <ele>832.2</ele>
        <time>2025-09-20T07:56:36Z</time>
      </trkpt>
      <trkpt lat="46.18372" lon="4.60493">
        <ele>832.2</ele>
        <time>2025-09-20T07:56:37Z</time>
      </trkpt>
      <trkpt lat="46.18374" lon="4.60502">
        <ele>831.8</ele>
        <time>2025-09-20T07:56:38Z</time>
      </trkpt>
      <trkpt lat="46.18377" lon="4.60509">
        <ele>831.8</ele>
        <time>2025-09-20T07:56:39Z</time>
      </trkpt>
      <trkpt lat="46.18378" lon="4.60516">
        <ele>831.8</ele>
        <time>2025-09-20T07:56:40Z</time>
      </trkpt>
      <trkpt lat="46.18378" lon="4.60523">
        <ele>831.8</ele>
        <time>2025-09-20T07:56:41Z</time>
      </trkpt>
      <trkpt lat="46.18379" lon="4.60529">
        <ele>831.4</ele>
        <time>2025-09-20T07:56:42Z</time>
      </trkpt>
      <trkpt lat="46.1838" lon="4.60535">
        <ele>831.4</ele>
        <time>2025-09-20T07:56:43Z</time>
      </trkpt>
      <trkpt lat="46.1838" lon="4.60544">
        <ele>831.4</ele>
        <time>2025-09-20T07:56:44Z</time>
      </trkpt>
      <trkpt lat="46.18381" lon="4.60549">
        <ele>831.2</ele>
        <time>2025-09-20T07:56:45Z</time>
      </trkpt>
      <trkpt lat="46.18384" lon="4.60554">
        <ele>831.2</ele>
        <time>2025-09-20T07:56:46Z</time>
      </trkpt>
      <trkpt lat="46.18385" lon="4.60562">
        <ele>831</ele>
        <time>2025-09-20T07:56:47Z</time>
      </trkpt>
      <trkpt lat="46.18386" lon="4.60567">
        <ele>831.2</ele>
        <time>2025-09-20T07:56:48Z</time>
      </trkpt>
      <trkpt lat="46.18387" lon="4.60572">
        <ele>831.2</ele>
        <time>2025-09-20T07:56:49Z</time>
      </trkpt>
      <trkpt lat="46.18388" lon="4.60577">
        <ele>831.2</ele>
        <time>2025-09-20T07:56:50Z</time>
      </trkpt>
      <trkpt lat="46.18388" lon="4.60585">
        <ele>831.2</ele>
        <time>2025-09-20T07:56:51Z</time>
      </trkpt>
      <trkpt lat="46.18389" lon="4.60589">
        <ele>831.2</ele>
        <time>2025-09-20T07:56:52Z</time>
      </trkpt>
      <trkpt lat="46.18388" lon="4.60594">
        <ele>830.8</ele>
        <time>2025-09-20T07:56:53Z</time>
      </trkpt>
      <trkpt lat="46.18388" lon="4.606">
        <ele>830.8</ele>
        <time>2025-09-20T07:56:54Z</time>
      </trkpt>
      <trkpt lat="46.18389" lon="4.60609">
        <ele>830.8</ele>
        <time>2025-09-20T07:56:55Z</time>
      </trkpt>
      <trkpt lat="46.1839" lon="4.60614">
        <ele>830.8</ele>
        <time>2025-09-20T07:56:56Z</time>
      </trkpt>
      <trkpt lat="46.18391" lon="4.60622">
        <ele>830.6</ele>
        <time>2025-09-20T07:56:57Z</time>
      </trkpt>
      <trkpt lat="46.18393" lon="4.60628">
        <ele>830.6</ele>
        <time>2025-09-20T07:56:58Z</time>
      </trkpt>
      <trkpt lat="46.18396" lon="4.60636">
        <ele>830.4</ele>
        <time>2025-09-20T07:56:59Z</time>
      </trkpt>
      <trkpt lat="46.18397" lon="4.6064">
        <ele>830.4</ele>
        <time>2025-09-20T07:57:00Z</time>
      </trkpt>
      <trkpt lat="46.18398" lon="4.60644">
        <ele>830.4</ele>
        <time>2025-09-20T07:57:01Z</time>
      </trkpt>
      <trkpt lat="46.18399" lon="4.6065">
        <ele>830.4</ele>
        <time>2025-09-20T07:57:02Z</time>
      </trkpt>
      <trkpt lat="46.18401" lon="4.60656">
        <ele>830</ele>
        <time>2025-09-20T07:57:03Z</time>
      </trkpt>
      <trkpt lat="46.18405" lon="4.60663">
        <ele>829.6</ele>
        <time>2025-09-20T07:57:04Z</time>
      </trkpt>
      <trkpt lat="46.18409" lon="4.60669">
        <ele>829.6</ele>
        <time>2025-09-20T07:57:05Z</time>
      </trkpt>
      <trkpt lat="46.18411" lon="4.60673">
        <ele>829.2</ele>
        <time>2025-09-20T07:57:06Z</time>
      </trkpt>
      <trkpt lat="46.18414" lon="4.6068">
        <ele>829.2</ele>
        <time>2025-09-20T07:57:07Z</time>
      </trkpt>
      <trkpt lat="46.18415" lon="4.60688">
        <ele>829.2</ele>
        <time>2025-09-20T07:57:08Z</time>
      </trkpt>
      <trkpt lat="46.1842" lon="4.60693">
        <ele>829.2</ele>
        <time>2025-09-20T07:57:09Z</time>
      </trkpt>
      <trkpt lat="46.18423" lon="4.60701">
        <ele>829.2</ele>
        <time>2025-09-20T07:57:10Z</time>
      </trkpt>
      <trkpt lat="46.18424" lon="4.60708">
        <ele>829</ele>
        <time>2025-09-20T07:57:11Z</time>
      </trkpt>
      <trkpt lat="46.18427" lon="4.60717">
        <ele>829</ele>
        <time>2025-09-20T07:57:12Z</time>
      </trkpt>
      <trkpt lat="46.18428" lon="4.60725">
        <ele>828.6</ele>
        <time>2025-09-20T07:57:13Z</time>
      </trkpt>
      <trkpt lat="46.18427" lon="4.60741">
        <ele>828.2</ele>
        <time>2025-09-20T07:57:14Z</time>
      </trkpt>
      <trkpt lat="46.18426" lon="4.60749">
        <ele>828.2</ele>
        <time>2025-09-20T07:57:15Z</time>
      </trkpt>
      <trkpt lat="46.18425" lon="4.60757">
        <ele>827.8</ele>
        <time>2025-09-20T07:57:16Z</time>
      </trkpt>
      <trkpt lat="46.18424" lon="4.60766">
        <ele>827.8</ele>
        <time>2025-09-20T07:57:17Z</time>
      </trkpt>
      <trkpt lat="46.18423" lon="4.60775">
        <ele>827.4</ele>
        <time>2025-09-20T07:57:18Z</time>
      </trkpt>
      <trkpt lat="46.18422" lon="4.60783">
        <ele>827.4</ele>
        <time>2025-09-20T07:57:19Z</time>
      </trkpt>
      <trkpt lat="46.18421" lon="4.60792">
        <ele>827.4</ele>
        <time>2025-09-20T07:57:20Z</time>
      </trkpt>
      <trkpt lat="46.1842" lon="4.608">
        <ele>827.4</ele>
        <time>2025-09-20T07:57:21Z</time>
      </trkpt>
      <trkpt lat="46.1842" lon="4.60808">
        <ele>827.4</ele>
        <time>2025-09-20T07:57:22Z</time>
      </trkpt>
      <trkpt lat="46.18419" lon="4.60815">
        <ele>827.4</ele>
        <time>2025-09-20T07:57:23Z</time>
      </trkpt>
      <trkpt lat="46.18418" lon="4.60823">
        <ele>827.4</ele>
        <time>2025-09-20T07:57:24Z</time>
      </trkpt>
      <trkpt lat="46.18416" lon="4.60831">
        <ele>827.4</ele>
        <time>2025-09-20T07:57:25Z</time>
      </trkpt>
      <trkpt lat="46.18416" lon="4.60839">
        <ele>827.4</ele>
        <time>2025-09-20T07:57:26Z</time>
      </trkpt>
      <trkpt lat="46.18415" lon="4.60847">
        <ele>827.6</ele>
        <time>2025-09-20T07:57:27Z</time>
      </trkpt>
      <trkpt lat="46.18417" lon="4.60856">
        <ele>827.4</ele>
        <time>2025-09-20T07:57:28Z</time>
      </trkpt>
      <trkpt lat="46.18417" lon="4.60862">
        <ele>827.4</ele>
        <time>2025-09-20T07:57:29Z</time>
      </trkpt>
      <trkpt lat="46.1842" lon="4.6087">
        <ele>827</ele>
        <time>2025-09-20T07:57:30Z</time>
      </trkpt>
      <trkpt lat="46.18422" lon="4.60876">
        <ele>827</ele>
        <time>2025-09-20T07:57:31Z</time>
      </trkpt>
      <trkpt lat="46.18426" lon="4.60882">
        <ele>827</ele>
        <time>2025-09-20T07:57:32Z</time>
      </trkpt>
      <trkpt lat="46.18428" lon="4.60889">
        <ele>827.6</ele>
        <time>2025-09-20T07:57:33Z</time>
      </trkpt>
      <trkpt lat="46.18431" lon="4.60896">
        <ele>826.6</ele>
        <time>2025-09-20T07:57:34Z</time>
      </trkpt>
      <trkpt lat="46.18434" lon="4.60902">
        <ele>826.6</ele>
        <time>2025-09-20T07:57:35Z</time>
      </trkpt>
      <trkpt lat="46.18437" lon="4.60906">
        <ele>826.8</ele>
        <time>2025-09-20T07:57:36Z</time>
      </trkpt>
      <trkpt lat="46.1844" lon="4.60912">
        <ele>827.2</ele>
        <time>2025-09-20T07:57:37Z</time>
      </trkpt>
      <trkpt lat="46.18443" lon="4.60916">
        <ele>827.2</ele>
        <time>2025-09-20T07:57:38Z</time>
      </trkpt>
      <trkpt lat="46.18447" lon="4.60922">
        <ele>827.2</ele>
        <time>2025-09-20T07:57:39Z</time>
      </trkpt>
      <trkpt lat="46.1845" lon="4.60925">
        <ele>826.6</ele>
        <time>2025-09-20T07:57:40Z</time>
      </trkpt>
      <trkpt lat="46.18454" lon="4.60928">
        <ele>826.6</ele>
        <time>2025-09-20T07:57:41Z</time>
      </trkpt>
      <trkpt lat="46.18457" lon="4.60932">
        <ele>826.6</ele>
        <time>2025-09-20T07:57:42Z</time>
      </trkpt>
      <trkpt lat="46.18461" lon="4.60935">
        <ele>826.6</ele>
        <time>2025-09-20T07:57:43Z</time>
      </trkpt>
      <trkpt lat="46.18465" lon="4.60938">
        <ele>826.6</ele>
        <time>2025-09-20T07:57:44Z</time>
      </trkpt>
      <trkpt lat="46.18469" lon="4.60941">
        <ele>826.6</ele>
        <time>2025-09-20T07:57:45Z</time>
      </trkpt>
      <trkpt lat="46.18474" lon="4.60943">
        <ele>827.2</ele>
        <time>2025-09-20T07:57:46Z</time>
      </trkpt>
      <trkpt lat="46.18478" lon="4.60946">
        <ele>826.8</ele>
        <time>2025-09-20T07:57:47Z</time>
      </trkpt>
      <trkpt lat="46.18482" lon="4.60948">
        <ele>826.4</ele>
        <time>2025-09-20T07:57:48Z</time>
      </trkpt>
      <trkpt lat="46.18486" lon="4.6095">
        <ele>826.8</ele>
        <time>2025-09-20T07:57:49Z</time>
      </trkpt>
      <trkpt lat="46.18489" lon="4.60953">
        <ele>826.4</ele>
        <time>2025-09-20T07:57:50Z</time>
      </trkpt>
      <trkpt lat="46.18494" lon="4.60957">
        <ele>826.4</ele>
        <time>2025-09-20T07:57:51Z</time>
      </trkpt>
      <trkpt lat="46.18498" lon="4.60961">
        <ele>827</ele>
        <time>2025-09-20T07:57:52Z</time>
      </trkpt>
      <trkpt lat="46.18501" lon="4.60969">
        <ele>827</ele>
        <time>2025-09-20T07:57:53Z</time>
      </trkpt>
      <trkpt lat="46.18503" lon="4.60975">
        <ele>827</ele>
        <time>2025-09-20T07:57:54Z</time>
      </trkpt>
      <trkpt lat="46.18507" lon="4.6098">
        <ele>826.6</ele>
        <time>2025-09-20T07:57:55Z</time>
      </trkpt>
      <trkpt lat="46.1851" lon="4.60985">
        <ele>826.2</ele>
        <time>2025-09-20T07:57:56Z</time>
      </trkpt>
      <trkpt lat="46.18514" lon="4.6099">
        <ele>826.6</ele>
        <time>2025-09-20T07:57:57Z</time>
      </trkpt>
      <trkpt lat="46.18516" lon="4.60996">
        <ele>826.6</ele>
        <time>2025-09-20T07:57:58Z</time>
      </trkpt>
      <trkpt lat="46.18519" lon="4.61001">
        <ele>826.2</ele>
        <time>2025-09-20T07:57:59Z</time>
      </trkpt>
      <trkpt lat="46.18521" lon="4.61004">
        <ele>826.2</ele>
        <time>2025-09-20T07:58:00Z</time>
      </trkpt>
      <trkpt lat="46.18524" lon="4.61009">
        <ele>825.8</ele>
        <time>2025-09-20T07:58:01Z</time>
      </trkpt>
      <trkpt lat="46.18525" lon="4.61016">
        <ele>825.8</ele>
        <time>2025-09-20T07:58:02Z</time>
      </trkpt>
      <trkpt lat="46.18527" lon="4.61023">
        <ele>825.6</ele>
        <time>2025-09-20T07:58:03Z</time>
      </trkpt>
      <trkpt lat="46.18527" lon="4.61023">
        <ele>825.6</ele>
        <time>2025-09-20T07:58:04Z</time>
      </trkpt>
      <trkpt lat="46.1853" lon="4.61025">
        <ele>825.6</ele>
        <time>2025-09-20T07:58:05Z</time>
      </trkpt>
      <trkpt lat="46.18533" lon="4.6103">
        <ele>825</ele>
        <time>2025-09-20T07:58:06Z</time>
      </trkpt>
      <trkpt lat="46.18535" lon="4.61035">
        <ele>825</ele>
        <time>2025-09-20T07:58:07Z</time>
      </trkpt>
      <trkpt lat="46.18538" lon="4.61037">
        <ele>824.4</ele>
        <time>2025-09-20T07:58:08Z</time>
      </trkpt>
      <trkpt lat="46.18541" lon="4.61043">
        <ele>824.2</ele>
        <time>2025-09-20T07:58:09Z</time>
      </trkpt>
      <trkpt lat="46.18543" lon="4.61047">
        <ele>824.2</ele>
        <time>2025-09-20T07:58:10Z</time>
      </trkpt>
      <trkpt lat="46.18546" lon="4.61051">
        <ele>823.8</ele>
        <time>2025-09-20T07:58:11Z</time>
      </trkpt>
      <trkpt lat="46.18548" lon="4.61056">
        <ele>823.8</ele>
        <time>2025-09-20T07:58:12Z</time>
      </trkpt>
      <trkpt lat="46.1855" lon="4.61063">
        <ele>824</ele>
        <time>2025-09-20T07:58:13Z</time>
      </trkpt>
      <trkpt lat="46.18553" lon="4.61069">
        <ele>824</ele>
        <time>2025-09-20T07:58:14Z</time>
      </trkpt>
      <trkpt lat="46.18555" lon="4.61074">
        <ele>823.4</ele>
        <time>2025-09-20T07:58:15Z</time>
      </trkpt>
      <trkpt lat="46.18557" lon="4.61082">
        <ele>822.6</ele>
        <time>2025-09-20T07:58:16Z</time>
      </trkpt>
      <trkpt lat="46.18559" lon="4.61092">
        <ele>822.4</ele>
        <time>2025-09-20T07:58:17Z</time>
      </trkpt>
      <trkpt lat="46.18561" lon="4.611">
        <ele>821.8</ele>
        <time>2025-09-20T07:58:18Z</time>
      </trkpt>
      <trkpt lat="46.18563" lon="4.61106">
        <ele>822</ele>
        <time>2025-09-20T07:58:19Z</time>
      </trkpt>
      <trkpt lat="46.18565" lon="4.61111">
        <ele>821.8</ele>
        <time>2025-09-20T07:58:20Z</time>
      </trkpt>
      <trkpt lat="46.18566" lon="4.61115">
        <ele>821.4</ele>
        <time>2025-09-20T07:58:21Z</time>
      </trkpt>
      <trkpt lat="46.18566" lon="4.61119">
        <ele>821.4</ele>
        <time>2025-09-20T07:58:22Z</time>
      </trkpt>
      <trkpt lat="46.18567" lon="4.6112">
        <ele>821.2</ele>
        <time>2025-09-20T07:58:23Z</time>
      </trkpt>
      <trkpt lat="46.18567" lon="4.61121">
        <ele>821.2</ele>
        <time>2025-09-20T07:58:24Z</time>
      </trkpt>
      <trkpt lat="46.18567" lon="4.61122">
        <ele>821.2</ele>
        <time>2025-09-20T07:58:25Z</time>
      </trkpt>
      <trkpt lat="46.18571" lon="4.61122">
        <ele>821</ele>
        <time>2025-09-20T07:58:31Z</time>
      </trkpt>
      <trkpt lat="46.18571" lon="4.61125">
        <ele>820.6</ele>
        <time>2025-09-20T07:58:32Z</time>
      </trkpt>
      <trkpt lat="46.18572" lon="4.61128">
        <ele>820.2</ele>
        <time>2025-09-20T07:58:33Z</time>
      </trkpt>
      <trkpt lat="46.18573" lon="4.61131">
        <ele>820.2</ele>
        <time>2025-09-20T07:58:34Z</time>
      </trkpt>
      <trkpt lat="46.18574" lon="4.61135">
        <ele>819.8</ele>
        <time>2025-09-20T07:58:35Z</time>
      </trkpt>
      <trkpt lat="46.18575" lon="4.6114">
        <ele>819.8</ele>
        <time>2025-09-20T07:58:36Z</time>
      </trkpt>
      <trkpt lat="46.18577" lon="4.61144">
        <ele>819.8</ele>
        <time>2025-09-20T07:58:37Z</time>
      </trkpt>
      <trkpt lat="46.18578" lon="4.61148">
        <ele>819.8</ele>
        <time>2025-09-20T07:58:38Z</time>
      </trkpt>
      <trkpt lat="46.1858" lon="4.61152">
        <ele>820</ele>
        <time>2025-09-20T07:58:39Z</time>
      </trkpt>
      <trkpt lat="46.18581" lon="4.61157">
        <ele>820</ele>
        <time>2025-09-20T07:58:40Z</time>
      </trkpt>
      <trkpt lat="46.18582" lon="4.61161">
        <ele>819.4</ele>
        <time>2025-09-20T07:58:41Z</time>
      </trkpt>
      <trkpt lat="46.18584" lon="4.61165">
        <ele>818.6</ele>
        <time>2025-09-20T07:58:42Z</time>
      </trkpt>
      <trkpt lat="46.18586" lon="4.6117">
        <ele>818.6</ele>
        <time>2025-09-20T07:58:43Z</time>
      </trkpt>
      <trkpt lat="46.18588" lon="4.61176">
        <ele>818.8</ele>
        <time>2025-09-20T07:58:44Z</time>
      </trkpt>
      <trkpt lat="46.18589" lon="4.61181">
        <ele>818.6</ele>
        <time>2025-09-20T07:58:45Z</time>
      </trkpt>
      <trkpt lat="46.18591" lon="4.61186">
        <ele>818.2</ele>
        <time>2025-09-20T07:58:46Z</time>
      </trkpt>
      <trkpt lat="46.18593" lon="4.61191">
        <ele>818</ele>
        <time>2025-09-20T07:58:47Z</time>
      </trkpt>
      <trkpt lat="46.18594" lon="4.61196">
        <ele>817.2</ele>
        <time>2025-09-20T07:58:48Z</time>
      </trkpt>
      <trkpt lat="46.18595" lon="4.61201">
        <ele>817.2</ele>
        <time>2025-09-20T07:58:49Z</time>
      </trkpt>
      <trkpt lat="46.18596" lon="4.61206">
        <ele>816.8</ele>
        <time>2025-09-20T07:58:50Z</time>
      </trkpt>
      <trkpt lat="46.18598" lon="4.6121">
        <ele>817.4</ele>
        <time>2025-09-20T07:58:51Z</time>
      </trkpt>
      <trkpt lat="46.186" lon="4.61214">
        <ele>816.8</ele>
        <time>2025-09-20T07:58:52Z</time>
      </trkpt>
      <trkpt lat="46.18602" lon="4.61218">
        <ele>816.2</ele>
        <time>2025-09-20T07:58:53Z</time>
      </trkpt>
      <trkpt lat="46.18607" lon="4.61223">
        <ele>815.6</ele>
        <time>2025-09-20T07:58:54Z</time>
      </trkpt>
      <trkpt lat="46.18609" lon="4.61227">
        <ele>815.2</ele>
        <time>2025-09-20T07:58:55Z</time>
      </trkpt>
      <trkpt lat="46.18611" lon="4.61229">
        <ele>814.6</ele>
        <time>2025-09-20T07:58:56Z</time>
      </trkpt>
      <trkpt lat="46.18614" lon="4.61232">
        <ele>814</ele>
        <time>2025-09-20T07:58:57Z</time>
      </trkpt>
      <trkpt lat="46.18616" lon="4.61235">
        <ele>813.6</ele>
        <time>2025-09-20T07:58:58Z</time>
      </trkpt>
      <trkpt lat="46.18616" lon="4.61236">
        <ele>813.4</ele>
        <time>2025-09-20T07:58:59Z</time>
      </trkpt>
      <trkpt lat="46.18617" lon="4.61237">
        <ele>813</ele>
        <time>2025-09-20T07:59:00Z</time>
      </trkpt>
      <trkpt lat="46.18617" lon="4.61237">
        <ele>813</ele>
        <time>2025-09-20T07:59:01Z</time>
      </trkpt>
      <trkpt lat="46.18617" lon="4.61237">
        <ele>812.8</ele>
        <time>2025-09-20T07:59:02Z</time>
      </trkpt>
      <trkpt lat="46.18619" lon="4.61237">
        <ele>812.8</ele>
        <time>2025-09-20T07:59:03Z</time>
      </trkpt>
      <trkpt lat="46.18618" lon="4.61237">
        <ele>812.4</ele>
        <time>2025-09-20T07:59:04Z</time>
      </trkpt>
      <trkpt lat="46.18617" lon="4.61238">
        <ele>812.2</ele>
        <time>2025-09-20T07:59:43Z</time>
      </trkpt>
      <trkpt lat="46.18618" lon="4.61241">
        <ele>812</ele>
        <time>2025-09-20T07:59:44Z</time>
      </trkpt>
      <trkpt lat="46.18619" lon="4.61244">
        <ele>812.2</ele>
        <time>2025-09-20T07:59:45Z</time>
      </trkpt>
      <trkpt lat="46.18621" lon="4.61246">
        <ele>811.8</ele>
        <time>2025-09-20T07:59:46Z</time>
      </trkpt>
      <trkpt lat="46.18623" lon="4.6125">
        <ele>811.8</ele>
        <time>2025-09-20T07:59:47Z</time>
      </trkpt>
      <trkpt lat="46.18626" lon="4.61254">
        <ele>811.4</ele>
        <time>2025-09-20T07:59:48Z</time>
      </trkpt>
      <trkpt lat="46.18632" lon="4.61257">
        <ele>811</ele>
        <time>2025-09-20T07:59:49Z</time>
      </trkpt>
      <trkpt lat="46.18635" lon="4.61261">
        <ele>810.8</ele>
        <time>2025-09-20T07:59:50Z</time>
      </trkpt>
      <trkpt lat="46.18638" lon="4.61264">
        <ele>809.8</ele>
        <time>2025-09-20T07:59:51Z</time>
      </trkpt>
      <trkpt lat="46.1864" lon="4.61267">
        <ele>809.6</ele>
        <time>2025-09-20T07:59:52Z</time>
      </trkpt>
      <trkpt lat="46.18643" lon="4.6127">
        <ele>809.2</ele>
        <time>2025-09-20T07:59:53Z</time>
      </trkpt>
      <trkpt lat="46.18646" lon="4.61275">
        <ele>808.6</ele>
        <time>2025-09-20T07:59:54Z</time>
      </trkpt>
      <trkpt lat="46.1865" lon="4.61278">
        <ele>807.6</ele>
        <time>2025-09-20T07:59:55Z</time>
      </trkpt>
      <trkpt lat="46.18653" lon="4.6128">
        <ele>807.6</ele>
        <time>2025-09-20T07:59:56Z</time>
      </trkpt>
      <trkpt lat="46.18656" lon="4.61285">
        <ele>807.2</ele>
        <time>2025-09-20T07:59:57Z</time>
      </trkpt>
      <trkpt lat="46.18657" lon="4.61291">
        <ele>806.8</ele>
        <time>2025-09-20T07:59:58Z</time>
      </trkpt>
      <trkpt lat="46.18661" lon="4.61293">
        <ele>806.8</ele>
        <time>2025-09-20T07:59:59Z</time>
      </trkpt>
      <trkpt lat="46.18664" lon="4.61298">
        <ele>806.6</ele>
        <time>2025-09-20T08:00:00Z</time>
      </trkpt>
      <trkpt lat="46.18668" lon="4.61302">
        <ele>806.4</ele>
        <time>2025-09-20T08:00:01Z</time>
      </trkpt>
      <trkpt lat="46.18671" lon="4.613">
        <ele>806</ele>
        <time>2025-09-20T08:00:02Z</time>
      </trkpt>
      <trkpt lat="46.18675" lon="4.61302">
        <ele>805.8</ele>
        <time>2025-09-20T08:00:03Z</time>
      </trkpt>
      <trkpt lat="46.18677" lon="4.61305">
        <ele>805.6</ele>
        <time>2025-09-20T08:00:04Z</time>
      </trkpt>
      <trkpt lat="46.1868" lon="4.61309">
        <ele>805.2</ele>
        <time>2025-09-20T08:00:05Z</time>
      </trkpt>
      <trkpt lat="46.18684" lon="4.61313">
        <ele>804.8</ele>
        <time>2025-09-20T08:00:06Z</time>
      </trkpt>
      <trkpt lat="46.18686" lon="4.61317">
        <ele>804.4</ele>
        <time>2025-09-20T08:00:07Z</time>
      </trkpt>
      <trkpt lat="46.18687" lon="4.61323">
        <ele>804.4</ele>
        <time>2025-09-20T08:00:08Z</time>
      </trkpt>
      <trkpt lat="46.1869" lon="4.61328">
        <ele>803.8</ele>
        <time>2025-09-20T08:00:09Z</time>
      </trkpt>
      <trkpt lat="46.18695" lon="4.61329">
        <ele>802.8</ele>
        <time>2025-09-20T08:00:10Z</time>
      </trkpt>
      <trkpt lat="46.18698" lon="4.61331">
        <ele>802.6</ele>
        <time>2025-09-20T08:00:11Z</time>
      </trkpt>
      <trkpt lat="46.18701" lon="4.61335">
        <ele>802.2</ele>
        <time>2025-09-20T08:00:12Z</time>
      </trkpt>
      <trkpt lat="46.18705" lon="4.61339">
        <ele>800</ele>
        <time>2025-09-20T08:00:13Z</time>
      </trkpt>
      <trkpt lat="46.18709" lon="4.61342">
        <ele>799</ele>
        <time>2025-09-20T08:00:14Z</time>
      </trkpt>
      <trkpt lat="46.18713" lon="4.61345">
        <ele>799</ele>
        <time>2025-09-20T08:00:15Z</time>
      </trkpt>
      <trkpt lat="46.18716" lon="4.61348">
        <ele>799.4</ele>
        <time>2025-09-20T08:00:16Z</time>
      </trkpt>
      <trkpt lat="46.18718" lon="4.6135">
        <ele>799.4</ele>
        <time>2025-09-20T08:00:17Z</time>
      </trkpt>
      <trkpt lat="46.18721" lon="4.61352">
        <ele>799.2</ele>
        <time>2025-09-20T08:00:18Z</time>
      </trkpt>
      <trkpt lat="46.18724" lon="4.61355">
        <ele>799.4</ele>
        <time>2025-09-20T08:00:19Z</time>
      </trkpt>
      <trkpt lat="46.18728" lon="4.61358">
        <ele>799.2</ele>
        <time>2025-09-20T08:00:20Z</time>
      </trkpt>
      <trkpt lat="46.18732" lon="4.61361">
        <ele>799.6</ele>
        <time>2025-09-20T08:00:21Z</time>
      </trkpt>
      <trkpt lat="46.18735" lon="4.61363">
        <ele>798.6</ele>
        <time>2025-09-20T08:00:22Z</time>
      </trkpt>
      <trkpt lat="46.18738" lon="4.61365">
        <ele>797.6</ele>
        <time>2025-09-20T08:00:23Z</time>
      </trkpt>
      <trkpt lat="46.18741" lon="4.61366">
        <ele>797.2</ele>
        <time>2025-09-20T08:00:24Z</time>
      </trkpt>
      <trkpt lat="46.18745" lon="4.61367">
        <ele>796.8</ele>
        <time>2025-09-20T08:00:25Z</time>
      </trkpt>
      <trkpt lat="46.18749" lon="4.61368">
        <ele>796.4</ele>
        <time>2025-09-20T08:00:26Z</time>
      </trkpt>
      <trkpt lat="46.18752" lon="4.61368">
        <ele>796.6</ele>
        <time>2025-09-20T08:00:27Z</time>
      </trkpt>
      <trkpt lat="46.18755" lon="4.61369">
        <ele>796.2</ele>
        <time>2025-09-20T08:00:28Z</time>
      </trkpt>
      <trkpt lat="46.18759" lon="4.6137">
        <ele>796.2</ele>
        <time>2025-09-20T08:00:29Z</time>
      </trkpt>
      <trkpt lat="46.18763" lon="4.61372">
        <ele>795.8</ele>
        <time>2025-09-20T08:00:30Z</time>
      </trkpt>
      <trkpt lat="46.18771" lon="4.61374">
        <ele>795.4</ele>
        <time>2025-09-20T08:00:31Z</time>
      </trkpt>
      <trkpt lat="46.18775" lon="4.61376">
        <ele>795.4</ele>
        <time>2025-09-20T08:00:32Z</time>
      </trkpt>
      <trkpt lat="46.18775" lon="4.61376">
        <ele>795</ele>
        <time>2025-09-20T08:00:33Z</time>
      </trkpt>
      <trkpt lat="46.18778" lon="4.61378">
        <ele>795</ele>
        <time>2025-09-20T08:00:34Z</time>
      </trkpt>
      <trkpt lat="46.18782" lon="4.6138">
        <ele>794.6</ele>
        <time>2025-09-20T08:00:35Z</time>
      </trkpt>
      <trkpt lat="46.18785" lon="4.61382">
        <ele>794.6</ele>
        <time>2025-09-20T08:00:36Z</time>
      </trkpt>
      <trkpt lat="46.18787" lon="4.61383">
        <ele>794</ele>
        <time>2025-09-20T08:00:37Z</time>
      </trkpt>
      <trkpt lat="46.18788" lon="4.61384">
        <ele>792.6</ele>
        <time>2025-09-20T08:00:38Z</time>
      </trkpt>
      <trkpt lat="46.1879" lon="4.61387">
        <ele>792.2</ele>
        <time>2025-09-20T08:00:39Z</time>
      </trkpt>
      <trkpt lat="46.18793" lon="4.61389">
        <ele>791.8</ele>
        <time>2025-09-20T08:00:40Z</time>
      </trkpt>
      <trkpt lat="46.18796" lon="4.61392">
        <ele>791.6</ele>
        <time>2025-09-20T08:00:41Z</time>
      </trkpt>
      <trkpt lat="46.18799" lon="4.61393">
        <ele>791.6</ele>
        <time>2025-09-20T08:00:42Z</time>
      </trkpt>
      <trkpt lat="46.18801" lon="4.61393">
        <ele>791</ele>
        <time>2025-09-20T08:00:43Z</time>
      </trkpt>
      <trkpt lat="46.18804" lon="4.61394">
        <ele>790.8</ele>
        <time>2025-09-20T08:00:44Z</time>
      </trkpt>
      <trkpt lat="46.18806" lon="4.61394">
        <ele>790.2</ele>
        <time>2025-09-20T08:00:45Z</time>
      </trkpt>
      <trkpt lat="46.18807" lon="4.61394">
        <ele>789.6</ele>
        <time>2025-09-20T08:00:46Z</time>
      </trkpt>
      <trkpt lat="46.1881" lon="4.61395">
        <ele>789.4</ele>
        <time>2025-09-20T08:00:47Z</time>
      </trkpt>
      <trkpt lat="46.18812" lon="4.61395">
        <ele>789</ele>
        <time>2025-09-20T08:00:48Z</time>
      </trkpt>
      <trkpt lat="46.18814" lon="4.61396">
        <ele>789.4</ele>
        <time>2025-09-20T08:00:49Z</time>
      </trkpt>
      <trkpt lat="46.18815" lon="4.61398">
        <ele>788.8</ele>
        <time>2025-09-20T08:00:50Z</time>
      </trkpt>
      <trkpt lat="46.18818" lon="4.61401">
        <ele>788.2</ele>
        <time>2025-09-20T08:00:51Z</time>
      </trkpt>
      <trkpt lat="46.1882" lon="4.61403">
        <ele>787.8</ele>
        <time>2025-09-20T08:00:52Z</time>
      </trkpt>
      <trkpt lat="46.18822" lon="4.61405">
        <ele>787.8</ele>
        <time>2025-09-20T08:00:53Z</time>
      </trkpt>
      <trkpt lat="46.18824" lon="4.61408">
        <ele>787.8</ele>
        <time>2025-09-20T08:00:54Z</time>
      </trkpt>
      <trkpt lat="46.18827" lon="4.6141">
        <ele>787.4</ele>
        <time>2025-09-20T08:00:55Z</time>
      </trkpt>
      <trkpt lat="46.18828" lon="4.61412">
        <ele>787.2</ele>
        <time>2025-09-20T08:00:56Z</time>
      </trkpt>
      <trkpt lat="46.18829" lon="4.61412">
        <ele>786.8</ele>
        <time>2025-09-20T08:00:57Z</time>
      </trkpt>
      <trkpt lat="46.18831" lon="4.61411">
        <ele>786.8</ele>
        <time>2025-09-20T08:00:58Z</time>
      </trkpt>
      <trkpt lat="46.18832" lon="4.6141">
        <ele>786.4</ele>
        <time>2025-09-20T08:00:59Z</time>
      </trkpt>
      <trkpt lat="46.18834" lon="4.61409">
        <ele>786</ele>
        <time>2025-09-20T08:01:00Z</time>
      </trkpt>
      <trkpt lat="46.18836" lon="4.61408">
        <ele>785.8</ele>
        <time>2025-09-20T08:01:01Z</time>
      </trkpt>
      <trkpt lat="46.18838" lon="4.61408">
        <ele>785.2</ele>
        <time>2025-09-20T08:01:02Z</time>
      </trkpt>
      <trkpt lat="46.1884" lon="4.61409">
        <ele>785.2</ele>
        <time>2025-09-20T08:01:03Z</time>
      </trkpt>
      <trkpt lat="46.18842" lon="4.6141">
        <ele>784.8</ele>
        <time>2025-09-20T08:01:04Z</time>
      </trkpt>
      <trkpt lat="46.18843" lon="4.61412">
        <ele>784.8</ele>
        <time>2025-09-20T08:01:05Z</time>
      </trkpt>
      <trkpt lat="46.18845" lon="4.61415">
        <ele>784</ele>
        <time>2025-09-20T08:01:06Z</time>
      </trkpt>
      <trkpt lat="46.18846" lon="4.61417">
        <ele>784</ele>
        <time>2025-09-20T08:01:07Z</time>
      </trkpt>
      <trkpt lat="46.18848" lon="4.6142">
        <ele>783</ele>
        <time>2025-09-20T08:01:08Z</time>
      </trkpt>
      <trkpt lat="46.1885" lon="4.61422">
        <ele>782.8</ele>
        <time>2025-09-20T08:01:09Z</time>
      </trkpt>
      <trkpt lat="46.18852" lon="4.61424">
        <ele>782.2</ele>
        <time>2025-09-20T08:01:10Z</time>
      </trkpt>
      <trkpt lat="46.18854" lon="4.61426">
        <ele>782.2</ele>
        <time>2025-09-20T08:01:11Z</time>
      </trkpt>
      <trkpt lat="46.18857" lon="4.61428">
        <ele>781.8</ele>
        <time>2025-09-20T08:01:12Z</time>
      </trkpt>
      <trkpt lat="46.18859" lon="4.6143">
        <ele>781.4</ele>
        <time>2025-09-20T08:01:13Z</time>
      </trkpt>
      <trkpt lat="46.18861" lon="4.61431">
        <ele>781.4</ele>
        <time>2025-09-20T08:01:14Z</time>
      </trkpt>
      <trkpt lat="46.18864" lon="4.61433">
        <ele>780.6</ele>
        <time>2025-09-20T08:01:15Z</time>
      </trkpt>
      <trkpt lat="46.18867" lon="4.61434">
        <ele>779.8</ele>
        <time>2025-09-20T08:01:16Z</time>
      </trkpt>
      <trkpt lat="46.18869" lon="4.61435">
        <ele>778.8</ele>
        <time>2025-09-20T08:01:17Z</time>
      </trkpt>
      <trkpt lat="46.18871" lon="4.61437">
        <ele>778.8</ele>
        <time>2025-09-20T08:01:18Z</time>
      </trkpt>
      <trkpt lat="46.18873" lon="4.61438">
        <ele>778.8</ele>
        <time>2025-09-20T08:01:19Z</time>
      </trkpt>
      <trkpt lat="46.18875" lon="4.61441">
        <ele>778.6</ele>
        <time>2025-09-20T08:01:20Z</time>
      </trkpt>
      <trkpt lat="46.18877" lon="4.61443">
        <ele>778.4</ele>
        <time>2025-09-20T08:01:21Z</time>
      </trkpt>
      <trkpt lat="46.18878" lon="4.61445">
        <ele>778.2</ele>
        <time>2025-09-20T08:01:22Z</time>
      </trkpt>
      <trkpt lat="46.1888" lon="4.61447">
        <ele>777.8</ele>
        <time>2025-09-20T08:01:23Z</time>
      </trkpt>
      <trkpt lat="46.18882" lon="4.61449">
        <ele>777.4</ele>
        <time>2025-09-20T08:01:24Z</time>
      </trkpt>
      <trkpt lat="46.18884" lon="4.6145">
        <ele>777.4</ele>
        <time>2025-09-20T08:01:25Z</time>
      </trkpt>
      <trkpt lat="46.18885" lon="4.61452">
        <ele>776.8</ele>
        <time>2025-09-20T08:01:26Z</time>
      </trkpt>
      <trkpt lat="46.18887" lon="4.61453">
        <ele>776.4</ele>
        <time>2025-09-20T08:01:27Z</time>
      </trkpt>
      <trkpt lat="46.18888" lon="4.61455">
        <ele>776.4</ele>
        <time>2025-09-20T08:01:28Z</time>
      </trkpt>
      <trkpt lat="46.1889" lon="4.61457">
        <ele>775.8</ele>
        <time>2025-09-20T08:01:29Z</time>
      </trkpt>
      <trkpt lat="46.18892" lon="4.61458">
        <ele>775.4</ele>
        <time>2025-09-20T08:01:30Z</time>
      </trkpt>
      <trkpt lat="46.18893" lon="4.61458">
        <ele>775</ele>
        <time>2025-09-20T08:01:31Z</time>
      </trkpt>
      <trkpt lat="46.18895" lon="4.61459">
        <ele>774.6</ele>
        <time>2025-09-20T08:01:32Z</time>
      </trkpt>
      <trkpt lat="46.18896" lon="4.61459">
        <ele>773.8</ele>
        <time>2025-09-20T08:01:33Z</time>
      </trkpt>
      <trkpt lat="46.18897" lon="4.6146">
        <ele>773.8</ele>
        <time>2025-09-20T08:01:34Z</time>
      </trkpt>
      <trkpt lat="46.18899" lon="4.61461">
        <ele>773.4</ele>
        <time>2025-09-20T08:01:35Z</time>
      </trkpt>
      <trkpt lat="46.189" lon="4.61462">
        <ele>773.2</ele>
        <time>2025-09-20T08:01:36Z</time>
      </trkpt>
      <trkpt lat="46.18901" lon="4.61464">
        <ele>772.8</ele>
        <time>2025-09-20T08:01:37Z</time>
      </trkpt>
      <trkpt lat="46.18901" lon="4.61465">
        <ele>772.4</ele>
        <time>2025-09-20T08:01:38Z</time>
      </trkpt>
      <trkpt lat="46.18901" lon="4.61465">
        <ele>772.4</ele>
        <time>2025-09-20T08:01:39Z</time>
      </trkpt>
      <trkpt lat="46.18902" lon="4.61466">
        <ele>772.4</ele>
        <time>2025-09-20T08:01:40Z</time>
      </trkpt>
      <trkpt lat="46.18903" lon="4.61468">
        <ele>771.8</ele>
        <time>2025-09-20T08:01:41Z</time>
      </trkpt>
      <trkpt lat="46.18905" lon="4.6147">
        <ele>771.4</ele>
        <time>2025-09-20T08:01:42Z</time>
      </trkpt>
      <trkpt lat="46.18907" lon="4.61473">
        <ele>770.8</ele>
        <time>2025-09-20T08:01:43Z</time>
      </trkpt>
      <trkpt lat="46.18909" lon="4.61475">
        <ele>769.8</ele>
        <time>2025-09-20T08:01:44Z</time>
      </trkpt>
      <trkpt lat="46.18911" lon="4.61477">
        <ele>769.4</ele>
        <time>2025-09-20T08:01:45Z</time>
      </trkpt>
      <trkpt lat="46.18915" lon="4.61479">
        <ele>769</ele>
        <time>2025-09-20T08:01:46Z</time>
      </trkpt>
      <trkpt lat="46.18918" lon="4.61481">
        <ele>768.6</ele>
        <time>2025-09-20T08:01:47Z</time>
      </trkpt>
      <trkpt lat="46.18922" lon="4.61483">
        <ele>768.4</ele>
        <time>2025-09-20T08:01:48Z</time>
      </trkpt>
      <trkpt lat="46.18925" lon="4.61485">
        <ele>767.6</ele>
        <time>2025-09-20T08:01:49Z</time>
      </trkpt>
      <trkpt lat="46.18927" lon="4.61487">
        <ele>767</ele>
        <time>2025-09-20T08:01:50Z</time>
      </trkpt>
      <trkpt lat="46.18929" lon="4.61489">
        <ele>767.2</ele>
        <time>2025-09-20T08:01:51Z</time>
      </trkpt>
      <trkpt lat="46.18932" lon="4.61492">
        <ele>766.8</ele>
        <time>2025-09-20T08:01:52Z</time>
      </trkpt>
      <trkpt lat="46.18934" lon="4.61495">
        <ele>766.8</ele>
        <time>2025-09-20T08:01:53Z</time>
      </trkpt>
      <trkpt lat="46.18937" lon="4.61497">
        <ele>766.6</ele>
        <time>2025-09-20T08:01:54Z</time>
      </trkpt>
      <trkpt lat="46.18939" lon="4.61499">
        <ele>765.6</ele>
        <time>2025-09-20T08:01:55Z</time>
      </trkpt>
      <trkpt lat="46.18941" lon="4.615">
        <ele>765</ele>
        <time>2025-09-20T08:01:56Z</time>
      </trkpt>
      <trkpt lat="46.18942" lon="4.61503">
        <ele>764.4</ele>
        <time>2025-09-20T08:01:57Z</time>
      </trkpt>
      <trkpt lat="46.18945" lon="4.61507">
        <ele>764.6</ele>
        <time>2025-09-20T08:01:58Z</time>
      </trkpt>
      <trkpt lat="46.18946" lon="4.6151">
        <ele>764.4</ele>
        <time>2025-09-20T08:01:59Z</time>
      </trkpt>
      <trkpt lat="46.18948" lon="4.61513">
        <ele>763.8</ele>
        <time>2025-09-20T08:02:00Z</time>
      </trkpt>
      <trkpt lat="46.18949" lon="4.61516">
        <ele>763.6</ele>
        <time>2025-09-20T08:02:01Z</time>
      </trkpt>
      <trkpt lat="46.18951" lon="4.61519">
        <ele>763.6</ele>
        <time>2025-09-20T08:02:02Z</time>
      </trkpt>
      <trkpt lat="46.18953" lon="4.61522">
        <ele>762.8</ele>
        <time>2025-09-20T08:02:03Z</time>
      </trkpt>
      <trkpt lat="46.18956" lon="4.61525">
        <ele>762</ele>
        <time>2025-09-20T08:02:04Z</time>
      </trkpt>
      <trkpt lat="46.18959" lon="4.61527">
        <ele>762</ele>
        <time>2025-09-20T08:02:05Z</time>
      </trkpt>
      <trkpt lat="46.18962" lon="4.61528">
        <ele>761</ele>
        <time>2025-09-20T08:02:06Z</time>
      </trkpt>
      <trkpt lat="46.18965" lon="4.6153">
        <ele>760.4</ele>
        <time>2025-09-20T08:02:07Z</time>
      </trkpt>
      <trkpt lat="46.18968" lon="4.61533">
        <ele>759.6</ele>
        <time>2025-09-20T08:02:08Z</time>
      </trkpt>
      <trkpt lat="46.18972" lon="4.61535">
        <ele>759.6</ele>
        <time>2025-09-20T08:02:09Z</time>
      </trkpt>
      <trkpt lat="46.18976" lon="4.61537">
        <ele>759.6</ele>
        <time>2025-09-20T08:02:10Z</time>
      </trkpt>
      <trkpt lat="46.18981" lon="4.61539">
        <ele>759.2</ele>
        <time>2025-09-20T08:02:11Z</time>
      </trkpt>
      <trkpt lat="46.18984" lon="4.6154">
        <ele>758.8</ele>
        <time>2025-09-20T08:02:12Z</time>
      </trkpt>
      <trkpt lat="46.18988" lon="4.61542">
        <ele>758.6</ele>
        <time>2025-09-20T08:02:13Z</time>
      </trkpt>
      <trkpt lat="46.18991" lon="4.61543">
        <ele>758.6</ele>
        <time>2025-09-20T08:02:14Z</time>
      </trkpt>
      <trkpt lat="46.18995" lon="4.61544">
        <ele>758.4</ele>
        <time>2025-09-20T08:02:15Z</time>
      </trkpt>
      <trkpt lat="46.18997" lon="4.61546">
        <ele>758.4</ele>
        <time>2025-09-20T08:02:16Z</time>
      </trkpt>
      <trkpt lat="46.19" lon="4.61548">
        <ele>757.6</ele>
        <time>2025-09-20T08:02:17Z</time>
      </trkpt>
      <trkpt lat="46.19003" lon="4.61549">
        <ele>757.6</ele>
        <time>2025-09-20T08:02:18Z</time>
      </trkpt>
      <trkpt lat="46.19006" lon="4.6155">
        <ele>757.6</ele>
        <time>2025-09-20T08:02:19Z</time>
      </trkpt>
      <trkpt lat="46.19009" lon="4.61551">
        <ele>757</ele>
        <time>2025-09-20T08:02:20Z</time>
      </trkpt>
      <trkpt lat="46.19012" lon="4.61553">
        <ele>756.6</ele>
        <time>2025-09-20T08:02:21Z</time>
      </trkpt>
      <trkpt lat="46.19015" lon="4.61554">
        <ele>756.2</ele>
        <time>2025-09-20T08:02:22Z</time>
      </trkpt>
      <trkpt lat="46.19018" lon="4.61555">
        <ele>755.4</ele>
        <time>2025-09-20T08:02:23Z</time>
      </trkpt>
      <trkpt lat="46.19021" lon="4.61556">
        <ele>755</ele>
        <time>2025-09-20T08:02:24Z</time>
      </trkpt>
      <trkpt lat="46.19024" lon="4.61558">
        <ele>754.4</ele>
        <time>2025-09-20T08:02:25Z</time>
      </trkpt>
      <trkpt lat="46.19027" lon="4.61559">
        <ele>753.8</ele>
        <time>2025-09-20T08:02:26Z</time>
      </trkpt>
      <trkpt lat="46.1903" lon="4.61561">
        <ele>753.4</ele>
        <time>2025-09-20T08:02:27Z</time>
      </trkpt>
      <trkpt lat="46.19032" lon="4.61563">
        <ele>753.4</ele>
        <time>2025-09-20T08:02:28Z</time>
      </trkpt>
      <trkpt lat="46.19035" lon="4.61565">
        <ele>753</ele>
        <time>2025-09-20T08:02:29Z</time>
      </trkpt>
      <trkpt lat="46.19038" lon="4.61567">
        <ele>752.8</ele>
        <time>2025-09-20T08:02:30Z</time>
      </trkpt>
      <trkpt lat="46.19041" lon="4.61569">
        <ele>752.4</ele>
        <time>2025-09-20T08:02:31Z</time>
      </trkpt>
      <trkpt lat="46.19044" lon="4.61571">
        <ele>752</ele>
        <time>2025-09-20T08:02:32Z</time>
      </trkpt>
      <trkpt lat="46.19044" lon="4.61571">
        <ele>751.8</ele>
        <time>2025-09-20T08:02:33Z</time>
      </trkpt>
      <trkpt lat="46.19044" lon="4.61571">
        <ele>751.2</ele>
        <time>2025-09-20T08:02:34Z</time>
      </trkpt>
      <trkpt lat="46.19056" lon="4.6158">
        <ele>750.6</ele>
        <time>2025-09-20T08:02:35Z</time>
      </trkpt>
      <trkpt lat="46.19059" lon="4.61583">
        <ele>750</ele>
        <time>2025-09-20T08:02:36Z</time>
      </trkpt>
      <trkpt lat="46.19062" lon="4.61587">
        <ele>750</ele>
        <time>2025-09-20T08:02:37Z</time>
      </trkpt>
      <trkpt lat="46.19065" lon="4.61594">
        <ele>749.6</ele>
        <time>2025-09-20T08:02:38Z</time>
      </trkpt>
      <trkpt lat="46.19069" lon="4.61598">
        <ele>749.6</ele>
        <time>2025-09-20T08:02:39Z</time>
      </trkpt>
      <trkpt lat="46.19073" lon="4.61601">
        <ele>749.2</ele>
        <time>2025-09-20T08:02:40Z</time>
      </trkpt>
      <trkpt lat="46.19077" lon="4.61604">
        <ele>749.2</ele>
        <time>2025-09-20T08:02:41Z</time>
      </trkpt>
      <trkpt lat="46.19081" lon="4.61609">
        <ele>748.8</ele>
        <time>2025-09-20T08:02:42Z</time>
      </trkpt>
      <trkpt lat="46.19086" lon="4.61612">
        <ele>747.2</ele>
        <time>2025-09-20T08:02:43Z</time>
      </trkpt>
      <trkpt lat="46.1909" lon="4.61616">
        <ele>746.8</ele>
        <time>2025-09-20T08:02:44Z</time>
      </trkpt>
      <trkpt lat="46.19096" lon="4.6162">
        <ele>746.8</ele>
        <time>2025-09-20T08:02:45Z</time>
      </trkpt>
      <trkpt lat="46.19101" lon="4.61625">
        <ele>746.4</ele>
        <time>2025-09-20T08:02:46Z</time>
      </trkpt>
      <trkpt lat="46.19105" lon="4.61629">
        <ele>746</ele>
        <time>2025-09-20T08:02:47Z</time>
      </trkpt>
      <trkpt lat="46.1911" lon="4.61631">
        <ele>746</ele>
        <time>2025-09-20T08:02:48Z</time>
      </trkpt>
      <trkpt lat="46.19114" lon="4.61637">
        <ele>745.4</ele>
        <time>2025-09-20T08:02:49Z</time>
      </trkpt>
      <trkpt lat="46.1912" lon="4.61639">
        <ele>745.2</ele>
        <time>2025-09-20T08:02:50Z</time>
      </trkpt>
      <trkpt lat="46.19125" lon="4.61643">
        <ele>745.6</ele>
        <time>2025-09-20T08:02:51Z</time>
      </trkpt>
      <trkpt lat="46.1913" lon="4.61646">
        <ele>745</ele>
        <time>2025-09-20T08:02:52Z</time>
      </trkpt>
      <trkpt lat="46.19131" lon="4.6165">
        <ele>744.8</ele>
        <time>2025-09-20T08:02:53Z</time>
      </trkpt>
      <trkpt lat="46.19134" lon="4.61653">
        <ele>744.8</ele>
        <time>2025-09-20T08:02:54Z</time>
      </trkpt>
      <trkpt lat="46.19135" lon="4.61654">
        <ele>744.6</ele>
        <time>2025-09-20T08:02:55Z</time>
      </trkpt>
      <trkpt lat="46.19138" lon="4.61658">
        <ele>744.6</ele>
        <time>2025-09-20T08:02:56Z</time>
      </trkpt>
      <trkpt lat="46.19139" lon="4.61661">
        <ele>744.6</ele>
        <time>2025-09-20T08:02:57Z</time>
      </trkpt>
      <trkpt lat="46.19144" lon="4.6166">
        <ele>744.2</ele>
        <time>2025-09-20T08:02:58Z</time>
      </trkpt>
      <trkpt lat="46.19144" lon="4.6166">
        <ele>744.2</ele>
        <time>2025-09-20T08:02:59Z</time>
      </trkpt>
      <trkpt lat="46.19146" lon="4.6166">
        <ele>744.2</ele>
        <time>2025-09-20T08:03:00Z</time>
      </trkpt>
      <trkpt lat="46.19148" lon="4.61662">
        <ele>743.8</ele>
        <time>2025-09-20T08:03:01Z</time>
      </trkpt>
      <trkpt lat="46.19151" lon="4.61663">
        <ele>743.8</ele>
        <time>2025-09-20T08:03:02Z</time>
      </trkpt>
      <trkpt lat="46.19154" lon="4.61664">
        <ele>743.6</ele>
        <time>2025-09-20T08:03:03Z</time>
      </trkpt>
      <trkpt lat="46.19157" lon="4.61667">
        <ele>743.6</ele>
        <time>2025-09-20T08:03:04Z</time>
      </trkpt>
      <trkpt lat="46.19159" lon="4.6167">
        <ele>743.6</ele>
        <time>2025-09-20T08:03:05Z</time>
      </trkpt>
      <trkpt lat="46.19161" lon="4.61674">
        <ele>743.6</ele>
        <time>2025-09-20T08:03:06Z</time>
      </trkpt>
      <trkpt lat="46.19163" lon="4.61678">
        <ele>743.6</ele>
        <time>2025-09-20T08:03:07Z</time>
      </trkpt>
      <trkpt lat="46.19165" lon="4.61682">
        <ele>743.2</ele>
        <time>2025-09-20T08:03:08Z</time>
      </trkpt>
      <trkpt lat="46.19167" lon="4.61686">
        <ele>743.2</ele>
        <time>2025-09-20T08:03:09Z</time>
      </trkpt>
      <trkpt lat="46.19169" lon="4.6169">
        <ele>743.2</ele>
        <time>2025-09-20T08:03:10Z</time>
      </trkpt>
      <trkpt lat="46.19171" lon="4.61694">
        <ele>743.2</ele>
        <time>2025-09-20T08:03:11Z</time>
      </trkpt>
      <trkpt lat="46.19173" lon="4.61698">
        <ele>743.2</ele>
        <time>2025-09-20T08:03:12Z</time>
      </trkpt>
      <trkpt lat="46.19175" lon="4.61702">
        <ele>743.6</ele>
        <time>2025-09-20T08:03:13Z</time>
      </trkpt>
      <trkpt lat="46.19177" lon="4.61706">
        <ele>743.6</ele>
        <time>2025-09-20T08:03:14Z</time>
      </trkpt>
      <trkpt lat="46.19179" lon="4.61711">
        <ele>743.6</ele>
        <time>2025-09-20T08:03:15Z</time>
      </trkpt>
      <trkpt lat="46.19181" lon="4.61714">
        <ele>743.6</ele>
        <time>2025-09-20T08:03:16Z</time>
      </trkpt>
      <trkpt lat="46.19184" lon="4.61719">
        <ele>743.6</ele>
        <time>2025-09-20T08:03:17Z</time>
      </trkpt>
      <trkpt lat="46.19187" lon="4.61723">
        <ele>743.2</ele>
        <time>2025-09-20T08:03:18Z</time>
      </trkpt>
      <trkpt lat="46.1919" lon="4.61728">
        <ele>743.2</ele>
        <time>2025-09-20T08:03:19Z</time>
      </trkpt>
      <trkpt lat="46.19192" lon="4.61733">
        <ele>743.2</ele>
        <time>2025-09-20T08:03:20Z</time>
      </trkpt>
      <trkpt lat="46.19194" lon="4.61738">
        <ele>743.2</ele>
        <time>2025-09-20T08:03:21Z</time>
      </trkpt>
      <trkpt lat="46.19197" lon="4.61744">
        <ele>743.2</ele>
        <time>2025-09-20T08:03:22Z</time>
      </trkpt>
      <trkpt lat="46.19199" lon="4.6175">
        <ele>743.2</ele>
        <time>2025-09-20T08:03:23Z</time>
      </trkpt>
      <trkpt lat="46.19202" lon="4.61756">
        <ele>743</ele>
        <time>2025-09-20T08:03:24Z</time>
      </trkpt>
      <trkpt lat="46.19204" lon="4.61763">
        <ele>742.8</ele>
        <time>2025-09-20T08:03:25Z</time>
      </trkpt>
      <trkpt lat="46.19206" lon="4.61769">
        <ele>742.8</ele>
        <time>2025-09-20T08:03:26Z</time>
      </trkpt>
      <trkpt lat="46.19207" lon="4.61776">
        <ele>742.8</ele>
        <time>2025-09-20T08:03:27Z</time>
      </trkpt>
      <trkpt lat="46.19208" lon="4.61783">
        <ele>743</ele>
        <time>2025-09-20T08:03:28Z</time>
      </trkpt>
      <trkpt lat="46.19207" lon="4.61789">
        <ele>743</ele>
        <time>2025-09-20T08:03:29Z</time>
      </trkpt>
      <trkpt lat="46.19206" lon="4.61795">
        <ele>743</ele>
        <time>2025-09-20T08:03:30Z</time>
      </trkpt>
      <trkpt lat="46.19201" lon="4.61806">
        <ele>743</ele>
        <time>2025-09-20T08:03:31Z</time>
      </trkpt>
      <trkpt lat="46.19201" lon="4.61806">
        <ele>743.2</ele>
        <time>2025-09-20T08:03:32Z</time>
      </trkpt>
      <trkpt lat="46.192" lon="4.61812">
        <ele>743.2</ele>
        <time>2025-09-20T08:03:33Z</time>
      </trkpt>
      <trkpt lat="46.19199" lon="4.61818">
        <ele>743.2</ele>
        <time>2025-09-20T08:03:34Z</time>
      </trkpt>
      <trkpt lat="46.19198" lon="4.61823">
        <ele>743.2</ele>
        <time>2025-09-20T08:03:35Z</time>
      </trkpt>
      <trkpt lat="46.19197" lon="4.61828">
        <ele>743.6</ele>
        <time>2025-09-20T08:03:36Z</time>
      </trkpt>
      <trkpt lat="46.19196" lon="4.61832">
        <ele>743.6</ele>
        <time>2025-09-20T08:03:37Z</time>
      </trkpt>
      <trkpt lat="46.19196" lon="4.61837">
        <ele>744</ele>
        <time>2025-09-20T08:03:38Z</time>
      </trkpt>
      <trkpt lat="46.19196" lon="4.61842">
        <ele>744</ele>
        <time>2025-09-20T08:03:39Z</time>
      </trkpt>
      <trkpt lat="46.19197" lon="4.61846">
        <ele>744.4</ele>
        <time>2025-09-20T08:03:40Z</time>
      </trkpt>
      <trkpt lat="46.19199" lon="4.61849">
        <ele>744.4</ele>
        <time>2025-09-20T08:03:41Z</time>
      </trkpt>
      <trkpt lat="46.19201" lon="4.61851">
        <ele>743.6</ele>
        <time>2025-09-20T08:03:42Z</time>
      </trkpt>
      <trkpt lat="46.19204" lon="4.61853">
        <ele>744.6</ele>
        <time>2025-09-20T08:03:43Z</time>
      </trkpt>
      <trkpt lat="46.19208" lon="4.61854">
        <ele>744.8</ele>
        <time>2025-09-20T08:03:44Z</time>
      </trkpt>
      <trkpt lat="46.19211" lon="4.61854">
        <ele>744.8</ele>
        <time>2025-09-20T08:03:45Z</time>
      </trkpt>
      <trkpt lat="46.19214" lon="4.61854">
        <ele>744.8</ele>
        <time>2025-09-20T08:03:46Z</time>
      </trkpt>
      <trkpt lat="46.19218" lon="4.61853">
        <ele>744.8</ele>
        <time>2025-09-20T08:03:47Z</time>
      </trkpt>
      <trkpt lat="46.19221" lon="4.61851">
        <ele>744.8</ele>
        <time>2025-09-20T08:03:48Z</time>
      </trkpt>
      <trkpt lat="46.19224" lon="4.61851">
        <ele>744.6</ele>
        <time>2025-09-20T08:03:49Z</time>
      </trkpt>
      <trkpt lat="46.19226" lon="4.6185">
        <ele>744.6</ele>
        <time>2025-09-20T08:03:50Z</time>
      </trkpt>
      <trkpt lat="46.19228" lon="4.6185">
        <ele>744.6</ele>
        <time>2025-09-20T08:03:51Z</time>
      </trkpt>
      <trkpt lat="46.19229" lon="4.61849">
        <ele>744.6</ele>
        <time>2025-09-20T08:03:52Z</time>
      </trkpt>
      <trkpt lat="46.19229" lon="4.61849">
        <ele>744.6</ele>
        <time>2025-09-20T08:03:53Z</time>
      </trkpt>
      <trkpt lat="46.1923" lon="4.61849">
        <ele>745.2</ele>
        <time>2025-09-20T08:04:24Z</time>
      </trkpt>
      <trkpt lat="46.19232" lon="4.61847">
        <ele>745.2</ele>
        <time>2025-09-20T08:04:25Z</time>
      </trkpt>
      <trkpt lat="46.19235" lon="4.61846">
        <ele>745.2</ele>
        <time>2025-09-20T08:04:26Z</time>
      </trkpt>
      <trkpt lat="46.19238" lon="4.61846">
        <ele>745.2</ele>
        <time>2025-09-20T08:04:27Z</time>
      </trkpt>
      <trkpt lat="46.19241" lon="4.61848">
        <ele>745.2</ele>
        <time>2025-09-20T08:04:28Z</time>
      </trkpt>
      <trkpt lat="46.19243" lon="4.61852">
        <ele>745.2</ele>
        <time>2025-09-20T08:04:29Z</time>
      </trkpt>
      <trkpt lat="46.19244" lon="4.61857">
        <ele>744.8</ele>
        <time>2025-09-20T08:04:30Z</time>
      </trkpt>
      <trkpt lat="46.19243" lon="4.61863">
        <ele>744.8</ele>
        <time>2025-09-20T08:04:31Z</time>
      </trkpt>
      <trkpt lat="46.19243" lon="4.61868">
        <ele>745</ele>
        <time>2025-09-20T08:04:32Z</time>
      </trkpt>
      <trkpt lat="46.19243" lon="4.61874">
        <ele>745</ele>
        <time>2025-09-20T08:04:33Z</time>
      </trkpt>
      <trkpt lat="46.19243" lon="4.6188">
        <ele>745</ele>
        <time>2025-09-20T08:04:34Z</time>
      </trkpt>
      <trkpt lat="46.19243" lon="4.61886">
        <ele>745.4</ele>
        <time>2025-09-20T08:04:35Z</time>
      </trkpt>
      <trkpt lat="46.19243" lon="4.61892">
        <ele>745.4</ele>
        <time>2025-09-20T08:04:36Z</time>
      </trkpt>
      <trkpt lat="46.19243" lon="4.61897">
        <ele>745.4</ele>
        <time>2025-09-20T08:04:37Z</time>
      </trkpt>
      <trkpt lat="46.19243" lon="4.61903">
        <ele>745.8</ele>
        <time>2025-09-20T08:04:38Z</time>
      </trkpt>
      <trkpt lat="46.19243" lon="4.61909">
        <ele>745.8</ele>
        <time>2025-09-20T08:04:39Z</time>
      </trkpt>
      <trkpt lat="46.19244" lon="4.61915">
        <ele>745.8</ele>
        <time>2025-09-20T08:04:40Z</time>
      </trkpt>
      <trkpt lat="46.19244" lon="4.61921">
        <ele>746.2</ele>
        <time>2025-09-20T08:04:41Z</time>
      </trkpt>
      <trkpt lat="46.19244" lon="4.61926">
        <ele>746.2</ele>
        <time>2025-09-20T08:04:42Z</time>
      </trkpt>
      <trkpt lat="46.19244" lon="4.61932">
        <ele>746.2</ele>
        <time>2025-09-20T08:04:43Z</time>
      </trkpt>
      <trkpt lat="46.19245" lon="4.61936">
        <ele>746.4</ele>
        <time>2025-09-20T08:04:44Z</time>
      </trkpt>
      <trkpt lat="46.19245" lon="4.61941">
        <ele>746.4</ele>
        <time>2025-09-20T08:04:45Z</time>
      </trkpt>
      <trkpt lat="46.19245" lon="4.61945">
        <ele>746.4</ele>
        <time>2025-09-20T08:04:46Z</time>
      </trkpt>
      <trkpt lat="46.19245" lon="4.61949">
        <ele>746.4</ele>
        <time>2025-09-20T08:04:47Z</time>
      </trkpt>
      <trkpt lat="46.19246" lon="4.61953">
        <ele>746.4</ele>
        <time>2025-09-20T08:04:48Z</time>
      </trkpt>
      <trkpt lat="46.19248" lon="4.61958">
        <ele>746.4</ele>
        <time>2025-09-20T08:04:49Z</time>
      </trkpt>
      <trkpt lat="46.19251" lon="4.61962">
        <ele>746.4</ele>
        <time>2025-09-20T08:04:50Z</time>
      </trkpt>
      <trkpt lat="46.19254" lon="4.61965">
        <ele>746.4</ele>
        <time>2025-09-20T08:04:51Z</time>
      </trkpt>
      <trkpt lat="46.19257" lon="4.6197">
        <ele>746.2</ele>
        <time>2025-09-20T08:04:52Z</time>
      </trkpt>
      <trkpt lat="46.19258" lon="4.61975">
        <ele>746.4</ele>
        <time>2025-09-20T08:04:53Z</time>
      </trkpt>
      <trkpt lat="46.1926" lon="4.6198">
        <ele>746.8</ele>
        <time>2025-09-20T08:04:54Z</time>
      </trkpt>
      <trkpt lat="46.19261" lon="4.61986">
        <ele>746.8</ele>
        <time>2025-09-20T08:04:55Z</time>
      </trkpt>
      <trkpt lat="46.19263" lon="4.61992">
        <ele>746.8</ele>
        <time>2025-09-20T08:04:56Z</time>
      </trkpt>
      <trkpt lat="46.19264" lon="4.61998">
        <ele>746.8</ele>
        <time>2025-09-20T08:04:57Z</time>
      </trkpt>
      <trkpt lat="46.19266" lon="4.62003">
        <ele>746.8</ele>
        <time>2025-09-20T08:04:58Z</time>
      </trkpt>
      <trkpt lat="46.19268" lon="4.62008">
        <ele>747</ele>
        <time>2025-09-20T08:04:59Z</time>
      </trkpt>
      <trkpt lat="46.19269" lon="4.62014">
        <ele>747</ele>
        <time>2025-09-20T08:05:00Z</time>
      </trkpt>
      <trkpt lat="46.19271" lon="4.62021">
        <ele>747</ele>
        <time>2025-09-20T08:05:01Z</time>
      </trkpt>
      <trkpt lat="46.19273" lon="4.62027">
        <ele>747.2</ele>
        <time>2025-09-20T08:05:02Z</time>
      </trkpt>
      <trkpt lat="46.19275" lon="4.62033">
        <ele>747.2</ele>
        <time>2025-09-20T08:05:03Z</time>
      </trkpt>
      <trkpt lat="46.19277" lon="4.62039">
        <ele>747.2</ele>
        <time>2025-09-20T08:05:04Z</time>
      </trkpt>
      <trkpt lat="46.19279" lon="4.62045">
        <ele>747.2</ele>
        <time>2025-09-20T08:05:05Z</time>
      </trkpt>
      <trkpt lat="46.19281" lon="4.6205">
        <ele>747.2</ele>
        <time>2025-09-20T08:05:06Z</time>
      </trkpt>
      <trkpt lat="46.19283" lon="4.62057">
        <ele>747.6</ele>
        <time>2025-09-20T08:05:07Z</time>
      </trkpt>
      <trkpt lat="46.19285" lon="4.62062">
        <ele>747.6</ele>
        <time>2025-09-20T08:05:08Z</time>
      </trkpt>
      <trkpt lat="46.19287" lon="4.62068">
        <ele>748</ele>
        <time>2025-09-20T08:05:09Z</time>
      </trkpt>
      <trkpt lat="46.19289" lon="4.62072">
        <ele>748</ele>
        <time>2025-09-20T08:05:10Z</time>
      </trkpt>
      <trkpt lat="46.19291" lon="4.62077">
        <ele>748.2</ele>
        <time>2025-09-20T08:05:11Z</time>
      </trkpt>
      <trkpt lat="46.19293" lon="4.62082">
        <ele>748.2</ele>
        <time>2025-09-20T08:05:12Z</time>
      </trkpt>
      <trkpt lat="46.19295" lon="4.62086">
        <ele>748.6</ele>
        <time>2025-09-20T08:05:13Z</time>
      </trkpt>
      <trkpt lat="46.19298" lon="4.62092">
        <ele>748.8</ele>
        <time>2025-09-20T08:05:14Z</time>
      </trkpt>
      <trkpt lat="46.19299" lon="4.62096">
        <ele>749</ele>
        <time>2025-09-20T08:05:15Z</time>
      </trkpt>
      <trkpt lat="46.19301" lon="4.62101">
        <ele>749.2</ele>
        <time>2025-09-20T08:05:16Z</time>
      </trkpt>
      <trkpt lat="46.19303" lon="4.62105">
        <ele>749.2</ele>
        <time>2025-09-20T08:05:17Z</time>
      </trkpt>
      <trkpt lat="46.19304" lon="4.62111">
        <ele>749.4</ele>
        <time>2025-09-20T08:05:18Z</time>
      </trkpt>
      <trkpt lat="46.19306" lon="4.62116">
        <ele>749.4</ele>
        <time>2025-09-20T08:05:19Z</time>
      </trkpt>
      <trkpt lat="46.19308" lon="4.62122">
        <ele>749.8</ele>
        <time>2025-09-20T08:05:20Z</time>
      </trkpt>
      <trkpt lat="46.19309" lon="4.62128">
        <ele>750.2</ele>
        <time>2025-09-20T08:05:21Z</time>
      </trkpt>
      <trkpt lat="46.1931" lon="4.62133">
        <ele>750</ele>
        <time>2025-09-20T08:05:22Z</time>
      </trkpt>
      <trkpt lat="46.19312" lon="4.62139">
        <ele>750</ele>
        <time>2025-09-20T08:05:23Z</time>
      </trkpt>
      <trkpt lat="46.19314" lon="4.62144">
        <ele>749.6</ele>
        <time>2025-09-20T08:05:24Z</time>
      </trkpt>
      <trkpt lat="46.19315" lon="4.6215">
        <ele>749.6</ele>
        <time>2025-09-20T08:05:25Z</time>
      </trkpt>
      <trkpt lat="46.19318" lon="4.62155">
        <ele>749.6</ele>
        <time>2025-09-20T08:05:26Z</time>
      </trkpt>
      <trkpt lat="46.19321" lon="4.6216">
        <ele>749.2</ele>
        <time>2025-09-20T08:05:27Z</time>
      </trkpt>
      <trkpt lat="46.19322" lon="4.62166">
        <ele>748.6</ele>
        <time>2025-09-20T08:05:28Z</time>
      </trkpt>
      <trkpt lat="46.19326" lon="4.6217">
        <ele>748.6</ele>
        <time>2025-09-20T08:05:29Z</time>
      </trkpt>
      <trkpt lat="46.19329" lon="4.62176">
        <ele>749</ele>
        <time>2025-09-20T08:05:30Z</time>
      </trkpt>
      <trkpt lat="46.19331" lon="4.6218">
        <ele>748</ele>
        <time>2025-09-20T08:05:31Z</time>
      </trkpt>
      <trkpt lat="46.19334" lon="4.62185">
        <ele>748.4</ele>
        <time>2025-09-20T08:05:32Z</time>
      </trkpt>
      <trkpt lat="46.19337" lon="4.62189">
        <ele>748.4</ele>
        <time>2025-09-20T08:05:33Z</time>
      </trkpt>
      <trkpt lat="46.19341" lon="4.62194">
        <ele>748.6</ele>
        <time>2025-09-20T08:05:34Z</time>
      </trkpt>
      <trkpt lat="46.19345" lon="4.62197">
        <ele>748.6</ele>
        <time>2025-09-20T08:05:35Z</time>
      </trkpt>
      <trkpt lat="46.1935" lon="4.62202">
        <ele>748.6</ele>
        <time>2025-09-20T08:05:36Z</time>
      </trkpt>
      <trkpt lat="46.19354" lon="4.62205">
        <ele>748.6</ele>
        <time>2025-09-20T08:05:37Z</time>
      </trkpt>
      <trkpt lat="46.19356" lon="4.62211">
        <ele>748.6</ele>
        <time>2025-09-20T08:05:38Z</time>
      </trkpt>
      <trkpt lat="46.1936" lon="4.62215">
        <ele>748.6</ele>
        <time>2025-09-20T08:05:39Z</time>
      </trkpt>
      <trkpt lat="46.19364" lon="4.62219">
        <ele>748.6</ele>
        <time>2025-09-20T08:05:40Z</time>
      </trkpt>
      <trkpt lat="46.19368" lon="4.62223">
        <ele>748.6</ele>
        <time>2025-09-20T08:05:41Z</time>
      </trkpt>
      <trkpt lat="46.19372" lon="4.62229">
        <ele>749</ele>
        <time>2025-09-20T08:05:42Z</time>
      </trkpt>
      <trkpt lat="46.19376" lon="4.62233">
        <ele>749.2</ele>
        <time>2025-09-20T08:05:43Z</time>
      </trkpt>
      <trkpt lat="46.19378" lon="4.62239">
        <ele>749.2</ele>
        <time>2025-09-20T08:05:44Z</time>
      </trkpt>
      <trkpt lat="46.19383" lon="4.62241">
        <ele>749.2</ele>
        <time>2025-09-20T08:05:45Z</time>
      </trkpt>
      <trkpt lat="46.19385" lon="4.62247">
        <ele>749.2</ele>
        <time>2025-09-20T08:05:46Z</time>
      </trkpt>
      <trkpt lat="46.19387" lon="4.62252">
        <ele>749.6</ele>
        <time>2025-09-20T08:05:47Z</time>
      </trkpt>
      <trkpt lat="46.19389" lon="4.6226">
        <ele>749</ele>
        <time>2025-09-20T08:05:48Z</time>
      </trkpt>
      <trkpt lat="46.19391" lon="4.62265">
        <ele>748</ele>
        <time>2025-09-20T08:05:49Z</time>
      </trkpt>
      <trkpt lat="46.19392" lon="4.62273">
        <ele>748</ele>
        <time>2025-09-20T08:05:50Z</time>
      </trkpt>
      <trkpt lat="46.19395" lon="4.62279">
        <ele>748</ele>
        <time>2025-09-20T08:05:51Z</time>
      </trkpt>
      <trkpt lat="46.19395" lon="4.62284">
        <ele>748</ele>
        <time>2025-09-20T08:05:52Z</time>
      </trkpt>
      <trkpt lat="46.19397" lon="4.6229">
        <ele>748</ele>
        <time>2025-09-20T08:05:53Z</time>
      </trkpt>
      <trkpt lat="46.19398" lon="4.62298">
        <ele>748.4</ele>
        <time>2025-09-20T08:05:54Z</time>
      </trkpt>
      <trkpt lat="46.19398" lon="4.62304">
        <ele>748</ele>
        <time>2025-09-20T08:05:55Z</time>
      </trkpt>
      <trkpt lat="46.19398" lon="4.62314">
        <ele>748</ele>
        <time>2025-09-20T08:05:56Z</time>
      </trkpt>
      <trkpt lat="46.19399" lon="4.62321">
        <ele>748</ele>
        <time>2025-09-20T08:05:57Z</time>
      </trkpt>
      <trkpt lat="46.194" lon="4.62328">
        <ele>748</ele>
        <time>2025-09-20T08:05:58Z</time>
      </trkpt>
      <trkpt lat="46.19401" lon="4.62334">
        <ele>748</ele>
        <time>2025-09-20T08:05:59Z</time>
      </trkpt>
      <trkpt lat="46.19402" lon="4.62341">
        <ele>748</ele>
        <time>2025-09-20T08:06:00Z</time>
      </trkpt>
      <trkpt lat="46.19403" lon="4.6235">
        <ele>748.4</ele>
        <time>2025-09-20T08:06:01Z</time>
      </trkpt>
      <trkpt lat="46.19404" lon="4.62357">
        <ele>748.4</ele>
        <time>2025-09-20T08:06:02Z</time>
      </trkpt>
      <trkpt lat="46.19405" lon="4.62364">
        <ele>749</ele>
        <time>2025-09-20T08:06:03Z</time>
      </trkpt>
      <trkpt lat="46.19403" lon="4.62371">
        <ele>749</ele>
        <time>2025-09-20T08:06:04Z</time>
      </trkpt>
      <trkpt lat="46.19402" lon="4.62379">
        <ele>749.6</ele>
        <time>2025-09-20T08:06:05Z</time>
      </trkpt>
      <trkpt lat="46.19402" lon="4.62386">
        <ele>749.6</ele>
        <time>2025-09-20T08:06:06Z</time>
      </trkpt>
      <trkpt lat="46.19402" lon="4.62393">
        <ele>749.4</ele>
        <time>2025-09-20T08:06:07Z</time>
      </trkpt>
      <trkpt lat="46.19402" lon="4.62401">
        <ele>749.4</ele>
        <time>2025-09-20T08:06:08Z</time>
      </trkpt>
      <trkpt lat="46.19402" lon="4.62407">
        <ele>749.4</ele>
        <time>2025-09-20T08:06:09Z</time>
      </trkpt>
      <trkpt lat="46.19403" lon="4.62414">
        <ele>749</ele>
        <time>2025-09-20T08:06:10Z</time>
      </trkpt>
      <trkpt lat="46.19402" lon="4.62421">
        <ele>748.6</ele>
        <time>2025-09-20T08:06:11Z</time>
      </trkpt>
      <trkpt lat="46.19402" lon="4.62427">
        <ele>749.4</ele>
        <time>2025-09-20T08:06:12Z</time>
      </trkpt>
      <trkpt lat="46.19403" lon="4.62432">
        <ele>750</ele>
        <time>2025-09-20T08:06:13Z</time>
      </trkpt>
      <trkpt lat="46.19403" lon="4.62438">
        <ele>750</ele>
        <time>2025-09-20T08:06:14Z</time>
      </trkpt>
      <trkpt lat="46.19403" lon="4.62443">
        <ele>750.6</ele>
        <time>2025-09-20T08:06:15Z</time>
      </trkpt>
      <trkpt lat="46.19403" lon="4.62448">
        <ele>750.6</ele>
        <time>2025-09-20T08:06:16Z</time>
      </trkpt>
      <trkpt lat="46.19404" lon="4.62451">
        <ele>750.8</ele>
        <time>2025-09-20T08:06:17Z</time>
      </trkpt>
      <trkpt lat="46.19405" lon="4.62455">
        <ele>751.2</ele>
        <time>2025-09-20T08:06:18Z</time>
      </trkpt>
      <trkpt lat="46.19405" lon="4.62458">
        <ele>751.6</ele>
        <time>2025-09-20T08:06:19Z</time>
      </trkpt>
      <trkpt lat="46.19404" lon="4.62459">
        <ele>752</ele>
        <time>2025-09-20T08:06:20Z</time>
      </trkpt>
      <trkpt lat="46.19403" lon="4.62459">
        <ele>752.2</ele>
        <time>2025-09-20T08:06:21Z</time>
      </trkpt>
      <trkpt lat="46.19404" lon="4.62459">
        <ele>752.2</ele>
        <time>2025-09-20T08:06:22Z</time>
      </trkpt>
      <trkpt lat="46.19404" lon="4.62464">
        <ele>752.6</ele>
        <time>2025-09-20T08:07:06Z</time>
      </trkpt>
      <trkpt lat="46.19404" lon="4.62467">
        <ele>753</ele>
        <time>2025-09-20T08:07:07Z</time>
      </trkpt>
      <trkpt lat="46.19404" lon="4.6247">
        <ele>753</ele>
        <time>2025-09-20T08:07:08Z</time>
      </trkpt>
      <trkpt lat="46.19404" lon="4.62475">
        <ele>753</ele>
        <time>2025-09-20T08:07:09Z</time>
      </trkpt>
      <trkpt lat="46.19405" lon="4.62479">
        <ele>753</ele>
        <time>2025-09-20T08:07:10Z</time>
      </trkpt>
      <trkpt lat="46.19405" lon="4.62484">
        <ele>753.4</ele>
        <time>2025-09-20T08:07:11Z</time>
      </trkpt>
      <trkpt lat="46.19405" lon="4.62489">
        <ele>753.4</ele>
        <time>2025-09-20T08:07:12Z</time>
      </trkpt>
      <trkpt lat="46.19405" lon="4.62494">
        <ele>753.6</ele>
        <time>2025-09-20T08:07:13Z</time>
      </trkpt>
      <trkpt lat="46.19405" lon="4.62499">
        <ele>753.6</ele>
        <time>2025-09-20T08:07:14Z</time>
      </trkpt>
      <trkpt lat="46.19406" lon="4.62503">
        <ele>753.6</ele>
        <time>2025-09-20T08:07:15Z</time>
      </trkpt>
      <trkpt lat="46.19406" lon="4.62509">
        <ele>753.8</ele>
        <time>2025-09-20T08:07:16Z</time>
      </trkpt>
      <trkpt lat="46.19406" lon="4.62514">
        <ele>754.4</ele>
        <time>2025-09-20T08:07:17Z</time>
      </trkpt>
      <trkpt lat="46.19406" lon="4.6252">
        <ele>754.6</ele>
        <time>2025-09-20T08:07:18Z</time>
      </trkpt>
      <trkpt lat="46.19406" lon="4.62525">
        <ele>754.6</ele>
        <time>2025-09-20T08:07:19Z</time>
      </trkpt>
      <trkpt lat="46.19405" lon="4.62531">
        <ele>755</ele>
        <time>2025-09-20T08:07:20Z</time>
      </trkpt>
      <trkpt lat="46.19405" lon="4.62536">
        <ele>755.2</ele>
        <time>2025-09-20T08:07:21Z</time>
      </trkpt>
      <trkpt lat="46.19406" lon="4.62541">
        <ele>755.2</ele>
        <time>2025-09-20T08:07:22Z</time>
      </trkpt>
      <trkpt lat="46.19406" lon="4.62547">
        <ele>755.6</ele>
        <time>2025-09-20T08:07:23Z</time>
      </trkpt>
      <trkpt lat="46.19407" lon="4.62552">
        <ele>755.8</ele>
        <time>2025-09-20T08:07:24Z</time>
      </trkpt>
      <trkpt lat="46.19407" lon="4.62558">
        <ele>755.8</ele>
        <time>2025-09-20T08:07:25Z</time>
      </trkpt>
      <trkpt lat="46.19408" lon="4.62564">
        <ele>755.8</ele>
        <time>2025-09-20T08:07:26Z</time>
      </trkpt>
      <trkpt lat="46.19409" lon="4.6257">
        <ele>756.2</ele>
        <time>2025-09-20T08:07:27Z</time>
      </trkpt>
      <trkpt lat="46.19409" lon="4.62576">
        <ele>756.2</ele>
        <time>2025-09-20T08:07:28Z</time>
      </trkpt>
      <trkpt lat="46.1941" lon="4.62582">
        <ele>756.2</ele>
        <time>2025-09-20T08:07:29Z</time>
      </trkpt>
      <trkpt lat="46.19411" lon="4.62588">
        <ele>756.4</ele>
        <time>2025-09-20T08:07:30Z</time>
      </trkpt>
      <trkpt lat="46.19412" lon="4.62594">
        <ele>756.4</ele>
        <time>2025-09-20T08:07:31Z</time>
      </trkpt>
      <trkpt lat="46.19412" lon="4.626">
        <ele>756.4</ele>
        <time>2025-09-20T08:07:32Z</time>
      </trkpt>
      <trkpt lat="46.19413" lon="4.62606">
        <ele>756.4</ele>
        <time>2025-09-20T08:07:33Z</time>
      </trkpt>
      <trkpt lat="46.19414" lon="4.62612">
        <ele>756.8</ele>
        <time>2025-09-20T08:07:34Z</time>
      </trkpt>
      <trkpt lat="46.19414" lon="4.62618">
        <ele>756.8</ele>
        <time>2025-09-20T08:07:35Z</time>
      </trkpt>
      <trkpt lat="46.19415" lon="4.62624">
        <ele>756.4</ele>
        <time>2025-09-20T08:07:36Z</time>
      </trkpt>
      <trkpt lat="46.19415" lon="4.62629">
        <ele>756.8</ele>
        <time>2025-09-20T08:07:37Z</time>
      </trkpt>
      <trkpt lat="46.19416" lon="4.62635">
        <ele>756.8</ele>
        <time>2025-09-20T08:07:38Z</time>
      </trkpt>
      <trkpt lat="46.19418" lon="4.6264">
        <ele>756.8</ele>
        <time>2025-09-20T08:07:39Z</time>
      </trkpt>
      <trkpt lat="46.19419" lon="4.62646">
        <ele>756.8</ele>
        <time>2025-09-20T08:07:40Z</time>
      </trkpt>
      <trkpt lat="46.19419" lon="4.62655">
        <ele>756.4</ele>
        <time>2025-09-20T08:07:41Z</time>
      </trkpt>
      <trkpt lat="46.19421" lon="4.6266">
        <ele>756.4</ele>
        <time>2025-09-20T08:07:42Z</time>
      </trkpt>
      <trkpt lat="46.19423" lon="4.62663">
        <ele>756.4</ele>
        <time>2025-09-20T08:07:43Z</time>
      </trkpt>
      <trkpt lat="46.19425" lon="4.62666">
        <ele>756</ele>
        <time>2025-09-20T08:07:44Z</time>
      </trkpt>
      <trkpt lat="46.19426" lon="4.62668">
        <ele>756</ele>
        <time>2025-09-20T08:07:45Z</time>
      </trkpt>
      <trkpt lat="46.19428" lon="4.6267">
        <ele>755.8</ele>
        <time>2025-09-20T08:07:46Z</time>
      </trkpt>
      <trkpt lat="46.1943" lon="4.62671">
        <ele>755.4</ele>
        <time>2025-09-20T08:07:47Z</time>
      </trkpt>
      <trkpt lat="46.19432" lon="4.6267">
        <ele>755.4</ele>
        <time>2025-09-20T08:07:48Z</time>
      </trkpt>
      <trkpt lat="46.19434" lon="4.62669">
        <ele>755.2</ele>
        <time>2025-09-20T08:07:49Z</time>
      </trkpt>
      <trkpt lat="46.19437" lon="4.62666">
        <ele>755.2</ele>
        <time>2025-09-20T08:07:50Z</time>
      </trkpt>
      <trkpt lat="46.19438" lon="4.62663">
        <ele>755.2</ele>
        <time>2025-09-20T08:07:51Z</time>
      </trkpt>
      <trkpt lat="46.1944" lon="4.62659">
        <ele>754.8</ele>
        <time>2025-09-20T08:07:52Z</time>
      </trkpt>
      <trkpt lat="46.19441" lon="4.62656">
        <ele>754.8</ele>
        <time>2025-09-20T08:07:53Z</time>
      </trkpt>
      <trkpt lat="46.19442" lon="4.62653">
        <ele>754.8</ele>
        <time>2025-09-20T08:07:54Z</time>
      </trkpt>
      <trkpt lat="46.19443" lon="4.6265">
        <ele>755</ele>
        <time>2025-09-20T08:07:55Z</time>
      </trkpt>
      <trkpt lat="46.19444" lon="4.62647">
        <ele>755</ele>
        <time>2025-09-20T08:07:56Z</time>
      </trkpt>
      <trkpt lat="46.19444" lon="4.62645">
        <ele>755.4</ele>
        <time>2025-09-20T08:07:57Z</time>
      </trkpt>
      <trkpt lat="46.19445" lon="4.62642">
        <ele>755.4</ele>
        <time>2025-09-20T08:07:58Z</time>
      </trkpt>
      <trkpt lat="46.19446" lon="4.62639">
        <ele>755.8</ele>
        <time>2025-09-20T08:07:59Z</time>
      </trkpt>
      <trkpt lat="46.19447" lon="4.62636">
        <ele>755.8</ele>
        <time>2025-09-20T08:08:00Z</time>
      </trkpt>
      <trkpt lat="46.19448" lon="4.62633">
        <ele>756.4</ele>
        <time>2025-09-20T08:08:01Z</time>
      </trkpt>
      <trkpt lat="46.19449" lon="4.6263">
        <ele>756.6</ele>
        <time>2025-09-20T08:08:02Z</time>
      </trkpt>
      <trkpt lat="46.19449" lon="4.62627">
        <ele>756.6</ele>
        <time>2025-09-20T08:08:03Z</time>
      </trkpt>
      <trkpt lat="46.1945" lon="4.62624">
        <ele>757</ele>
        <time>2025-09-20T08:08:04Z</time>
      </trkpt>
      <trkpt lat="46.19451" lon="4.62621">
        <ele>757.4</ele>
        <time>2025-09-20T08:08:05Z</time>
      </trkpt>
      <trkpt lat="46.19452" lon="4.62618">
        <ele>758</ele>
        <time>2025-09-20T08:08:06Z</time>
      </trkpt>
      <trkpt lat="46.19453" lon="4.62615">
        <ele>758.2</ele>
        <time>2025-09-20T08:08:07Z</time>
      </trkpt>
      <trkpt lat="46.19453" lon="4.62612">
        <ele>757.8</ele>
        <time>2025-09-20T08:08:08Z</time>
      </trkpt>
      <trkpt lat="46.19454" lon="4.6261">
        <ele>758.6</ele>
        <time>2025-09-20T08:08:09Z</time>
      </trkpt>
      <trkpt lat="46.19455" lon="4.62607">
        <ele>758.6</ele>
        <time>2025-09-20T08:08:10Z</time>
      </trkpt>
      <trkpt lat="46.19456" lon="4.62604">
        <ele>759</ele>
        <time>2025-09-20T08:08:11Z</time>
      </trkpt>
      <trkpt lat="46.19457" lon="4.62602">
        <ele>759.2</ele>
        <time>2025-09-20T08:08:12Z</time>
      </trkpt>
      <trkpt lat="46.19459" lon="4.626">
        <ele>759.2</ele>
        <time>2025-09-20T08:08:13Z</time>
      </trkpt>
      <trkpt lat="46.1946" lon="4.62597">
        <ele>759.2</ele>
        <time>2025-09-20T08:08:14Z</time>
      </trkpt>
      <trkpt lat="46.19461" lon="4.62596">
        <ele>759.6</ele>
        <time>2025-09-20T08:08:15Z</time>
      </trkpt>
      <trkpt lat="46.19462" lon="4.62594">
        <ele>759.6</ele>
        <time>2025-09-20T08:08:16Z</time>
      </trkpt>
      <trkpt lat="46.19464" lon="4.62592">
        <ele>759.6</ele>
        <time>2025-09-20T08:08:17Z</time>
      </trkpt>
      <trkpt lat="46.19465" lon="4.6259">
        <ele>760</ele>
        <time>2025-09-20T08:08:18Z</time>
      </trkpt>
      <trkpt lat="46.19466" lon="4.62588">
        <ele>760.2</ele>
        <time>2025-09-20T08:08:19Z</time>
      </trkpt>
      <trkpt lat="46.19467" lon="4.62586">
        <ele>760.8</ele>
        <time>2025-09-20T08:08:20Z</time>
      </trkpt>
      <trkpt lat="46.19468" lon="4.62585">
        <ele>761.2</ele>
        <time>2025-09-20T08:08:21Z</time>
      </trkpt>
      <trkpt lat="46.19469" lon="4.62583">
        <ele>761.4</ele>
        <time>2025-09-20T08:08:22Z</time>
      </trkpt>
      <trkpt lat="46.19471" lon="4.62582">
        <ele>761.4</ele>
        <time>2025-09-20T08:08:23Z</time>
      </trkpt>
      <trkpt lat="46.19472" lon="4.6258">
        <ele>762.2</ele>
        <time>2025-09-20T08:08:24Z</time>
      </trkpt>
      <trkpt lat="46.19473" lon="4.62578">
        <ele>762.4</ele>
        <time>2025-09-20T08:08:25Z</time>
      </trkpt>
      <trkpt lat="46.19475" lon="4.62577">
        <ele>762.4</ele>
        <time>2025-09-20T08:08:26Z</time>
      </trkpt>
      <trkpt lat="46.19476" lon="4.62575">
        <ele>762.4</ele>
        <time>2025-09-20T08:08:27Z</time>
      </trkpt>
      <trkpt lat="46.19477" lon="4.62573">
        <ele>762.4</ele>
        <time>2025-09-20T08:08:28Z</time>
      </trkpt>
      <trkpt lat="46.19479" lon="4.62572">
        <ele>762.4</ele>
        <time>2025-09-20T08:08:29Z</time>
      </trkpt>
      <trkpt lat="46.1948" lon="4.6257">
        <ele>762.8</ele>
        <time>2025-09-20T08:08:30Z</time>
      </trkpt>
      <trkpt lat="46.19482" lon="4.62568">
        <ele>763.2</ele>
        <time>2025-09-20T08:08:31Z</time>
      </trkpt>
      <trkpt lat="46.19483" lon="4.62567">
        <ele>763.6</ele>
        <time>2025-09-20T08:08:32Z</time>
      </trkpt>
      <trkpt lat="46.19484" lon="4.62566">
        <ele>763.6</ele>
        <time>2025-09-20T08:08:33Z</time>
      </trkpt>
      <trkpt lat="46.19485" lon="4.62565">
        <ele>764</ele>
        <time>2025-09-20T08:08:34Z</time>
      </trkpt>
      <trkpt lat="46.19486" lon="4.62564">
        <ele>764.2</ele>
        <time>2025-09-20T08:08:35Z</time>
      </trkpt>
      <trkpt lat="46.19488" lon="4.62563">
        <ele>764.8</ele>
        <time>2025-09-20T08:08:36Z</time>
      </trkpt>
      <trkpt lat="46.19488" lon="4.62561">
        <ele>765.2</ele>
        <time>2025-09-20T08:08:37Z</time>
      </trkpt>
      <trkpt lat="46.1949" lon="4.62561">
        <ele>765.6</ele>
        <time>2025-09-20T08:08:38Z</time>
      </trkpt>
      <trkpt lat="46.19491" lon="4.6256">
        <ele>766</ele>
        <time>2025-09-20T08:08:39Z</time>
      </trkpt>
      <trkpt lat="46.19491" lon="4.6256">
        <ele>766</ele>
        <time>2025-09-20T08:08:40Z</time>
      </trkpt>
      <trkpt lat="46.19492" lon="4.62559">
        <ele>766.4</ele>
        <time>2025-09-20T08:08:41Z</time>
      </trkpt>
      <trkpt lat="46.19493" lon="4.62559">
        <ele>766.4</ele>
        <time>2025-09-20T08:08:42Z</time>
      </trkpt>
      <trkpt lat="46.19494" lon="4.62558">
        <ele>766.8</ele>
        <time>2025-09-20T08:08:43Z</time>
      </trkpt>
      <trkpt lat="46.19495" lon="4.62558">
        <ele>767</ele>
        <time>2025-09-20T08:08:44Z</time>
      </trkpt>
      <trkpt lat="46.19496" lon="4.62557">
        <ele>767.2</ele>
        <time>2025-09-20T08:08:45Z</time>
      </trkpt>
      <trkpt lat="46.19498" lon="4.62557">
        <ele>767.6</ele>
        <time>2025-09-20T08:08:46Z</time>
      </trkpt>
      <trkpt lat="46.19499" lon="4.62556">
        <ele>768</ele>
        <time>2025-09-20T08:08:47Z</time>
      </trkpt>
      <trkpt lat="46.19501" lon="4.62555">
        <ele>768.4</ele>
        <time>2025-09-20T08:08:48Z</time>
      </trkpt>
      <trkpt lat="46.19502" lon="4.62554">
        <ele>768.4</ele>
        <time>2025-09-20T08:08:49Z</time>
      </trkpt>
      <trkpt lat="46.19504" lon="4.62552">
        <ele>768.8</ele>
        <time>2025-09-20T08:08:50Z</time>
      </trkpt>
      <trkpt lat="46.19504" lon="4.62551">
        <ele>769.2</ele>
        <time>2025-09-20T08:08:51Z</time>
      </trkpt>
      <trkpt lat="46.19505" lon="4.62551">
        <ele>769.4</ele>
        <time>2025-09-20T08:08:52Z</time>
      </trkpt>
      <trkpt lat="46.19506" lon="4.62549">
        <ele>769.6</ele>
        <time>2025-09-20T08:08:53Z</time>
      </trkpt>
      <trkpt lat="46.19507" lon="4.62548">
        <ele>769.6</ele>
        <time>2025-09-20T08:08:54Z</time>
      </trkpt>
      <trkpt lat="46.19509" lon="4.62548">
        <ele>770</ele>
        <time>2025-09-20T08:08:55Z</time>
      </trkpt>
      <trkpt lat="46.1951" lon="4.62548">
        <ele>770</ele>
        <time>2025-09-20T08:08:56Z</time>
      </trkpt>
      <trkpt lat="46.1951" lon="4.62548">
        <ele>770.4</ele>
        <time>2025-09-20T08:08:57Z</time>
      </trkpt>
      <trkpt lat="46.19511" lon="4.62549">
        <ele>771</ele>
        <time>2025-09-20T08:08:58Z</time>
      </trkpt>
      <trkpt lat="46.19512" lon="4.62549">
        <ele>771.2</ele>
        <time>2025-09-20T08:08:59Z</time>
      </trkpt>
      <trkpt lat="46.19513" lon="4.62549">
        <ele>771.4</ele>
        <time>2025-09-20T08:09:00Z</time>
      </trkpt>
      <trkpt lat="46.19514" lon="4.6255">
        <ele>771.6</ele>
        <time>2025-09-20T08:09:01Z</time>
      </trkpt>
      <trkpt lat="46.19516" lon="4.62549">
        <ele>771.8</ele>
        <time>2025-09-20T08:09:02Z</time>
      </trkpt>
      <trkpt lat="46.19517" lon="4.62549">
        <ele>772.2</ele>
        <time>2025-09-20T08:09:03Z</time>
      </trkpt>
      <trkpt lat="46.19518" lon="4.62549">
        <ele>772.2</ele>
        <time>2025-09-20T08:09:04Z</time>
      </trkpt>
      <trkpt lat="46.1952" lon="4.62549">
        <ele>772.4</ele>
        <time>2025-09-20T08:09:05Z</time>
      </trkpt>
      <trkpt lat="46.19521" lon="4.6255">
        <ele>772.4</ele>
        <time>2025-09-20T08:09:06Z</time>
      </trkpt>
      <trkpt lat="46.19523" lon="4.62551">
        <ele>772.4</ele>
        <time>2025-09-20T08:09:07Z</time>
      </trkpt>
      <trkpt lat="46.19525" lon="4.62551">
        <ele>772.8</ele>
        <time>2025-09-20T08:09:08Z</time>
      </trkpt>
      <trkpt lat="46.19525" lon="4.62551">
        <ele>773</ele>
        <time>2025-09-20T08:09:09Z</time>
      </trkpt>
      <trkpt lat="46.19526" lon="4.62551">
        <ele>773.4</ele>
        <time>2025-09-20T08:09:10Z</time>
      </trkpt>
      <trkpt lat="46.19527" lon="4.62551">
        <ele>773.8</ele>
        <time>2025-09-20T08:09:11Z</time>
      </trkpt>
      <trkpt lat="46.19528" lon="4.62551">
        <ele>774</ele>
        <time>2025-09-20T08:09:12Z</time>
      </trkpt>
      <trkpt lat="46.19528" lon="4.62552">
        <ele>774</ele>
        <time>2025-09-20T08:09:13Z</time>
      </trkpt>
      <trkpt lat="46.19529" lon="4.62553">
        <ele>774.4</ele>
        <time>2025-09-20T08:09:14Z</time>
      </trkpt>
      <trkpt lat="46.1953" lon="4.62553">
        <ele>774.4</ele>
        <time>2025-09-20T08:09:15Z</time>
      </trkpt>
      <trkpt lat="46.19532" lon="4.62554">
        <ele>774.8</ele>
        <time>2025-09-20T08:09:16Z</time>
      </trkpt>
      <trkpt lat="46.19533" lon="4.62555">
        <ele>774.8</ele>
        <time>2025-09-20T08:09:17Z</time>
      </trkpt>
      <trkpt lat="46.19535" lon="4.62555">
        <ele>775</ele>
        <time>2025-09-20T08:09:18Z</time>
      </trkpt>
      <trkpt lat="46.19537" lon="4.62556">
        <ele>774.2</ele>
        <time>2025-09-20T08:09:19Z</time>
      </trkpt>
      <trkpt lat="46.19539" lon="4.62557">
        <ele>774.6</ele>
        <time>2025-09-20T08:09:20Z</time>
      </trkpt>
      <trkpt lat="46.19541" lon="4.62558">
        <ele>775.4</ele>
        <time>2025-09-20T08:09:21Z</time>
      </trkpt>
      <trkpt lat="46.19542" lon="4.62559">
        <ele>775.8</ele>
        <time>2025-09-20T08:09:22Z</time>
      </trkpt>
      <trkpt lat="46.19544" lon="4.6256">
        <ele>775.8</ele>
        <time>2025-09-20T08:09:23Z</time>
      </trkpt>
      <trkpt lat="46.19545" lon="4.62561">
        <ele>776.2</ele>
        <time>2025-09-20T08:09:24Z</time>
      </trkpt>
      <trkpt lat="46.19547" lon="4.62561">
        <ele>776.6</ele>
        <time>2025-09-20T08:09:25Z</time>
      </trkpt>
      <trkpt lat="46.19549" lon="4.62562">
        <ele>776.8</ele>
        <time>2025-09-20T08:09:26Z</time>
      </trkpt>
      <trkpt lat="46.1955" lon="4.62563">
        <ele>776.8</ele>
        <time>2025-09-20T08:09:27Z</time>
      </trkpt>
      <trkpt lat="46.19552" lon="4.62564">
        <ele>777.2</ele>
        <time>2025-09-20T08:09:28Z</time>
      </trkpt>
      <trkpt lat="46.19553" lon="4.62565">
        <ele>777.2</ele>
        <time>2025-09-20T08:09:29Z</time>
      </trkpt>
      <trkpt lat="46.19555" lon="4.62565">
        <ele>777.6</ele>
        <time>2025-09-20T08:09:30Z</time>
      </trkpt>
      <trkpt lat="46.19557" lon="4.62566">
        <ele>777.6</ele>
        <time>2025-09-20T08:09:31Z</time>
      </trkpt>
      <trkpt lat="46.19558" lon="4.62566">
        <ele>778</ele>
        <time>2025-09-20T08:09:32Z</time>
      </trkpt>
      <trkpt lat="46.1956" lon="4.62566">
        <ele>778</ele>
        <time>2025-09-20T08:09:33Z</time>
      </trkpt>
      <trkpt lat="46.19562" lon="4.62566">
        <ele>778.6</ele>
        <time>2025-09-20T08:09:34Z</time>
      </trkpt>
      <trkpt lat="46.19563" lon="4.62565">
        <ele>779</ele>
        <time>2025-09-20T08:09:35Z</time>
      </trkpt>
      <trkpt lat="46.19565" lon="4.62565">
        <ele>779.2</ele>
        <time>2025-09-20T08:09:36Z</time>
      </trkpt>
      <trkpt lat="46.19566" lon="4.62565">
        <ele>779.4</ele>
        <time>2025-09-20T08:09:37Z</time>
      </trkpt>
      <trkpt lat="46.19568" lon="4.62565">
        <ele>779.4</ele>
        <time>2025-09-20T08:09:38Z</time>
      </trkpt>
      <trkpt lat="46.1957" lon="4.62565">
        <ele>779.8</ele>
        <time>2025-09-20T08:09:39Z</time>
      </trkpt>
      <trkpt lat="46.19571" lon="4.62565">
        <ele>780</ele>
        <time>2025-09-20T08:09:40Z</time>
      </trkpt>
      <trkpt lat="46.19572" lon="4.62565">
        <ele>780.4</ele>
        <time>2025-09-20T08:09:41Z</time>
      </trkpt>
      <trkpt lat="46.19573" lon="4.62565">
        <ele>780.4</ele>
        <time>2025-09-20T08:09:42Z</time>
      </trkpt>
      <trkpt lat="46.19574" lon="4.62566">
        <ele>780.8</ele>
        <time>2025-09-20T08:09:43Z</time>
      </trkpt>
      <trkpt lat="46.19576" lon="4.62566">
        <ele>781</ele>
        <time>2025-09-20T08:09:44Z</time>
      </trkpt>
      <trkpt lat="46.19577" lon="4.62567">
        <ele>781.4</ele>
        <time>2025-09-20T08:09:45Z</time>
      </trkpt>
      <trkpt lat="46.19578" lon="4.62567">
        <ele>781.6</ele>
        <time>2025-09-20T08:09:46Z</time>
      </trkpt>
      <trkpt lat="46.19578" lon="4.62567">
        <ele>781.6</ele>
        <time>2025-09-20T08:09:47Z</time>
      </trkpt>
      <trkpt lat="46.1958" lon="4.62562">
        <ele>781.4</ele>
        <time>2025-09-20T08:10:44Z</time>
      </trkpt>
      <trkpt lat="46.19582" lon="4.62561">
        <ele>782</ele>
        <time>2025-09-20T08:10:45Z</time>
      </trkpt>
      <trkpt lat="46.19583" lon="4.62561">
        <ele>782</ele>
        <time>2025-09-20T08:10:46Z</time>
      </trkpt>
      <trkpt lat="46.19585" lon="4.6256">
        <ele>782.4</ele>
        <time>2025-09-20T08:10:47Z</time>
      </trkpt>
      <trkpt lat="46.19586" lon="4.62559">
        <ele>782.8</ele>
        <time>2025-09-20T08:10:48Z</time>
      </trkpt>
      <trkpt lat="46.19588" lon="4.62558">
        <ele>782.8</ele>
        <time>2025-09-20T08:10:49Z</time>
      </trkpt>
      <trkpt lat="46.1959" lon="4.62558">
        <ele>783</ele>
        <time>2025-09-20T08:10:50Z</time>
      </trkpt>
      <trkpt lat="46.19592" lon="4.62558">
        <ele>783.6</ele>
        <time>2025-09-20T08:10:51Z</time>
      </trkpt>
      <trkpt lat="46.19594" lon="4.62557">
        <ele>783.6</ele>
        <time>2025-09-20T08:10:52Z</time>
      </trkpt>
      <trkpt lat="46.19596" lon="4.62556">
        <ele>783.8</ele>
        <time>2025-09-20T08:10:53Z</time>
      </trkpt>
      <trkpt lat="46.19598" lon="4.62555">
        <ele>784.2</ele>
        <time>2025-09-20T08:10:54Z</time>
      </trkpt>
      <trkpt lat="46.196" lon="4.62555">
        <ele>784.6</ele>
        <time>2025-09-20T08:10:55Z</time>
      </trkpt>
      <trkpt lat="46.19602" lon="4.62556">
        <ele>784.6</ele>
        <time>2025-09-20T08:10:56Z</time>
      </trkpt>
      <trkpt lat="46.19605" lon="4.62557">
        <ele>784.8</ele>
        <time>2025-09-20T08:10:57Z</time>
      </trkpt>
      <trkpt lat="46.19607" lon="4.62557">
        <ele>785.2</ele>
        <time>2025-09-20T08:10:58Z</time>
      </trkpt>
      <trkpt lat="46.19608" lon="4.62557">
        <ele>785.6</ele>
        <time>2025-09-20T08:10:59Z</time>
      </trkpt>
      <trkpt lat="46.19609" lon="4.62555">
        <ele>786</ele>
        <time>2025-09-20T08:11:00Z</time>
      </trkpt>
      <trkpt lat="46.19611" lon="4.62554">
        <ele>786.2</ele>
        <time>2025-09-20T08:11:01Z</time>
      </trkpt>
      <trkpt lat="46.19611" lon="4.62553">
        <ele>786.2</ele>
        <time>2025-09-20T08:11:02Z</time>
      </trkpt>
      <trkpt lat="46.19611" lon="4.62552">
        <ele>786.6</ele>
        <time>2025-09-20T08:11:03Z</time>
      </trkpt>
      <trkpt lat="46.19613" lon="4.62551">
        <ele>786.8</ele>
        <time>2025-09-20T08:11:04Z</time>
      </trkpt>
      <trkpt lat="46.19615" lon="4.62549">
        <ele>786.8</ele>
        <time>2025-09-20T08:11:05Z</time>
      </trkpt>
      <trkpt lat="46.19616" lon="4.62548">
        <ele>787.2</ele>
        <time>2025-09-20T08:11:06Z</time>
      </trkpt>
      <trkpt lat="46.19616" lon="4.62547">
        <ele>787.2</ele>
        <time>2025-09-20T08:11:07Z</time>
      </trkpt>
      <trkpt lat="46.19617" lon="4.62545">
        <ele>787.6</ele>
        <time>2025-09-20T08:11:08Z</time>
      </trkpt>
      <trkpt lat="46.19618" lon="4.62542">
        <ele>787.8</ele>
        <time>2025-09-20T08:11:09Z</time>
      </trkpt>
      <trkpt lat="46.19619" lon="4.6254">
        <ele>788.2</ele>
        <time>2025-09-20T08:11:10Z</time>
      </trkpt>
      <trkpt lat="46.1962" lon="4.62539">
        <ele>788.2</ele>
        <time>2025-09-20T08:11:11Z</time>
      </trkpt>
      <trkpt lat="46.19622" lon="4.62537">
        <ele>788.4</ele>
        <time>2025-09-20T08:11:12Z</time>
      </trkpt>
      <trkpt lat="46.19623" lon="4.62536">
        <ele>788.6</ele>
        <time>2025-09-20T08:11:13Z</time>
      </trkpt>
      <trkpt lat="46.19625" lon="4.62535">
        <ele>788.6</ele>
        <time>2025-09-20T08:11:14Z</time>
      </trkpt>
      <trkpt lat="46.19626" lon="4.62534">
        <ele>789</ele>
        <time>2025-09-20T08:11:15Z</time>
      </trkpt>
      <trkpt lat="46.19627" lon="4.62534">
        <ele>789</ele>
        <time>2025-09-20T08:11:16Z</time>
      </trkpt>
      <trkpt lat="46.19628" lon="4.62532">
        <ele>789.4</ele>
        <time>2025-09-20T08:11:17Z</time>
      </trkpt>
      <trkpt lat="46.1963" lon="4.62531">
        <ele>789.8</ele>
        <time>2025-09-20T08:11:18Z</time>
      </trkpt>
      <trkpt lat="46.19631" lon="4.6253">
        <ele>790</ele>
        <time>2025-09-20T08:11:19Z</time>
      </trkpt>
      <trkpt lat="46.19632" lon="4.62529">
        <ele>790.2</ele>
        <time>2025-09-20T08:11:20Z</time>
      </trkpt>
      <trkpt lat="46.19633" lon="4.62528">
        <ele>790.6</ele>
        <time>2025-09-20T08:11:21Z</time>
      </trkpt>
      <trkpt lat="46.19634" lon="4.62528">
        <ele>791</ele>
        <time>2025-09-20T08:11:22Z</time>
      </trkpt>
      <trkpt lat="46.19634" lon="4.62527">
        <ele>791.4</ele>
        <time>2025-09-20T08:11:23Z</time>
      </trkpt>
      <trkpt lat="46.19635" lon="4.62527">
        <ele>791.4</ele>
        <time>2025-09-20T08:11:24Z</time>
      </trkpt>
      <trkpt lat="46.19636" lon="4.62526">
        <ele>791.4</ele>
        <time>2025-09-20T08:11:25Z</time>
      </trkpt>
      <trkpt lat="46.19637" lon="4.62526">
        <ele>791.6</ele>
        <time>2025-09-20T08:11:26Z</time>
      </trkpt>
      <trkpt lat="46.19639" lon="4.62525">
        <ele>791.6</ele>
        <time>2025-09-20T08:11:27Z</time>
      </trkpt>
      <trkpt lat="46.1964" lon="4.62524">
        <ele>792</ele>
        <time>2025-09-20T08:11:28Z</time>
      </trkpt>
      <trkpt lat="46.19642" lon="4.62523">
        <ele>792.2</ele>
        <time>2025-09-20T08:11:29Z</time>
      </trkpt>
      <trkpt lat="46.19644" lon="4.62522">
        <ele>792.2</ele>
        <time>2025-09-20T08:11:30Z</time>
      </trkpt>
      <trkpt lat="46.19647" lon="4.62521">
        <ele>792.2</ele>
        <time>2025-09-20T08:11:31Z</time>
      </trkpt>
      <trkpt lat="46.19649" lon="4.6252">
        <ele>792.6</ele>
        <time>2025-09-20T08:11:32Z</time>
      </trkpt>
      <trkpt lat="46.19651" lon="4.62519">
        <ele>792.6</ele>
        <time>2025-09-20T08:11:33Z</time>
      </trkpt>
      <trkpt lat="46.19652" lon="4.62517">
        <ele>792.6</ele>
        <time>2025-09-20T08:11:34Z</time>
      </trkpt>
      <trkpt lat="46.19654" lon="4.62515">
        <ele>792.6</ele>
        <time>2025-09-20T08:11:35Z</time>
      </trkpt>
      <trkpt lat="46.19657" lon="4.62513">
        <ele>792.8</ele>
        <time>2025-09-20T08:11:36Z</time>
      </trkpt>
      <trkpt lat="46.1966" lon="4.62512">
        <ele>793</ele>
        <time>2025-09-20T08:11:37Z</time>
      </trkpt>
      <trkpt lat="46.19661" lon="4.62511">
        <ele>792.6</ele>
        <time>2025-09-20T08:11:38Z</time>
      </trkpt>
      <trkpt lat="46.19664" lon="4.62509">
        <ele>792.6</ele>
        <time>2025-09-20T08:11:39Z</time>
      </trkpt>
      <trkpt lat="46.1967" lon="4.62506">
        <ele>792.6</ele>
        <time>2025-09-20T08:11:40Z</time>
      </trkpt>
      <trkpt lat="46.19674" lon="4.62502">
        <ele>792.6</ele>
        <time>2025-09-20T08:11:41Z</time>
      </trkpt>
      <trkpt lat="46.19677" lon="4.62501">
        <ele>792.6</ele>
        <time>2025-09-20T08:11:42Z</time>
      </trkpt>
      <trkpt lat="46.19681" lon="4.625">
        <ele>792.6</ele>
        <time>2025-09-20T08:11:43Z</time>
      </trkpt>
      <trkpt lat="46.19683" lon="4.62498">
        <ele>792.6</ele>
        <time>2025-09-20T08:11:44Z</time>
      </trkpt>
      <trkpt lat="46.19686" lon="4.62497">
        <ele>792.2</ele>
        <time>2025-09-20T08:11:45Z</time>
      </trkpt>
      <trkpt lat="46.19689" lon="4.62495">
        <ele>792.2</ele>
        <time>2025-09-20T08:11:46Z</time>
      </trkpt>
      <trkpt lat="46.19693" lon="4.62493">
        <ele>792.2</ele>
        <time>2025-09-20T08:11:47Z</time>
      </trkpt>
      <trkpt lat="46.19696" lon="4.62491">
        <ele>792.4</ele>
        <time>2025-09-20T08:11:48Z</time>
      </trkpt>
      <trkpt lat="46.19697" lon="4.6249">
        <ele>792.4</ele>
        <time>2025-09-20T08:11:49Z</time>
      </trkpt>
      <trkpt lat="46.19701" lon="4.62488">
        <ele>791.2</ele>
        <time>2025-09-20T08:11:50Z</time>
      </trkpt>
      <trkpt lat="46.19705" lon="4.62484">
        <ele>791.4</ele>
        <time>2025-09-20T08:11:51Z</time>
      </trkpt>
      <trkpt lat="46.19707" lon="4.62481">
        <ele>791.4</ele>
        <time>2025-09-20T08:11:52Z</time>
      </trkpt>
      <trkpt lat="46.1971" lon="4.62478">
        <ele>790.8</ele>
        <time>2025-09-20T08:11:53Z</time>
      </trkpt>
      <trkpt lat="46.19713" lon="4.62475">
        <ele>791</ele>
        <time>2025-09-20T08:11:54Z</time>
      </trkpt>
      <trkpt lat="46.19721" lon="4.62475">
        <ele>791.4</ele>
        <time>2025-09-20T08:11:55Z</time>
      </trkpt>
      <trkpt lat="46.19725" lon="4.62473">
        <ele>791.6</ele>
        <time>2025-09-20T08:11:56Z</time>
      </trkpt>
      <trkpt lat="46.1973" lon="4.62472">
        <ele>791.6</ele>
        <time>2025-09-20T08:11:57Z</time>
      </trkpt>
      <trkpt lat="46.19732" lon="4.62471">
        <ele>791.4</ele>
        <time>2025-09-20T08:11:58Z</time>
      </trkpt>
      <trkpt lat="46.19736" lon="4.6247">
        <ele>791.4</ele>
        <time>2025-09-20T08:11:59Z</time>
      </trkpt>
      <trkpt lat="46.1974" lon="4.62467">
        <ele>791.4</ele>
        <time>2025-09-20T08:12:00Z</time>
      </trkpt>
      <trkpt lat="46.19744" lon="4.62465">
        <ele>791.4</ele>
        <time>2025-09-20T08:12:01Z</time>
      </trkpt>
      <trkpt lat="46.1975" lon="4.62466">
        <ele>791.4</ele>
        <time>2025-09-20T08:12:02Z</time>
      </trkpt>
      <trkpt lat="46.19755" lon="4.62463">
        <ele>791</ele>
        <time>2025-09-20T08:12:03Z</time>
      </trkpt>
      <trkpt lat="46.19759" lon="4.62463">
        <ele>790.8</ele>
        <time>2025-09-20T08:12:04Z</time>
      </trkpt>
      <trkpt lat="46.19763" lon="4.62462">
        <ele>791.6</ele>
        <time>2025-09-20T08:12:05Z</time>
      </trkpt>
      <trkpt lat="46.19767" lon="4.62462">
        <ele>791.6</ele>
        <time>2025-09-20T08:12:06Z</time>
      </trkpt>
      <trkpt lat="46.19771" lon="4.62461">
        <ele>791.2</ele>
        <time>2025-09-20T08:12:07Z</time>
      </trkpt>
      <trkpt lat="46.19774" lon="4.6246">
        <ele>791.2</ele>
        <time>2025-09-20T08:12:08Z</time>
      </trkpt>
      <trkpt lat="46.19778" lon="4.6246">
        <ele>791.2</ele>
        <time>2025-09-20T08:12:09Z</time>
      </trkpt>
      <trkpt lat="46.19781" lon="4.6246">
        <ele>791.2</ele>
        <time>2025-09-20T08:12:10Z</time>
      </trkpt>
      <trkpt lat="46.19785" lon="4.6246">
        <ele>791.2</ele>
        <time>2025-09-20T08:12:11Z</time>
      </trkpt>
      <trkpt lat="46.19788" lon="4.62459">
        <ele>791.6</ele>
        <time>2025-09-20T08:12:12Z</time>
      </trkpt>
      <trkpt lat="46.19792" lon="4.62458">
        <ele>791.6</ele>
        <time>2025-09-20T08:12:13Z</time>
      </trkpt>
      <trkpt lat="46.19796" lon="4.62456">
        <ele>792.2</ele>
        <time>2025-09-20T08:12:14Z</time>
      </trkpt>
      <trkpt lat="46.19799" lon="4.62455">
        <ele>792.8</ele>
        <time>2025-09-20T08:12:15Z</time>
      </trkpt>
      <trkpt lat="46.19803" lon="4.62453">
        <ele>793.2</ele>
        <time>2025-09-20T08:12:16Z</time>
      </trkpt>
      <trkpt lat="46.19806" lon="4.62452">
        <ele>793</ele>
        <time>2025-09-20T08:12:17Z</time>
      </trkpt>
      <trkpt lat="46.19809" lon="4.62452">
        <ele>793.2</ele>
        <time>2025-09-20T08:12:18Z</time>
      </trkpt>
      <trkpt lat="46.19812" lon="4.62452">
        <ele>793.4</ele>
        <time>2025-09-20T08:12:19Z</time>
      </trkpt>
      <trkpt lat="46.19816" lon="4.62453">
        <ele>793.8</ele>
        <time>2025-09-20T08:12:20Z</time>
      </trkpt>
      <trkpt lat="46.19819" lon="4.62454">
        <ele>793.8</ele>
        <time>2025-09-20T08:12:21Z</time>
      </trkpt>
      <trkpt lat="46.19822" lon="4.62454">
        <ele>793.8</ele>
        <time>2025-09-20T08:12:22Z</time>
      </trkpt>
      <trkpt lat="46.19826" lon="4.62454">
        <ele>793.8</ele>
        <time>2025-09-20T08:12:23Z</time>
      </trkpt>
      <trkpt lat="46.19829" lon="4.62454">
        <ele>793.8</ele>
        <time>2025-09-20T08:12:24Z</time>
      </trkpt>
      <trkpt lat="46.19833" lon="4.62454">
        <ele>791.4</ele>
        <time>2025-09-20T08:12:25Z</time>
      </trkpt>
      <trkpt lat="46.19836" lon="4.62454">
        <ele>792</ele>
        <time>2025-09-20T08:12:26Z</time>
      </trkpt>
      <trkpt lat="46.19839" lon="4.62454">
        <ele>792</ele>
        <time>2025-09-20T08:12:27Z</time>
      </trkpt>
      <trkpt lat="46.19842" lon="4.62454">
        <ele>792.4</ele>
        <time>2025-09-20T08:12:28Z</time>
      </trkpt>
      <trkpt lat="46.19846" lon="4.62455">
        <ele>793</ele>
        <time>2025-09-20T08:12:29Z</time>
      </trkpt>
      <trkpt lat="46.19849" lon="4.62454">
        <ele>793</ele>
        <time>2025-09-20T08:12:30Z</time>
      </trkpt>
      <trkpt lat="46.19853" lon="4.62454">
        <ele>793</ele>
        <time>2025-09-20T08:12:31Z</time>
      </trkpt>
      <trkpt lat="46.19855" lon="4.62454">
        <ele>793.6</ele>
        <time>2025-09-20T08:12:32Z</time>
      </trkpt>
      <trkpt lat="46.19859" lon="4.62454">
        <ele>794.4</ele>
        <time>2025-09-20T08:12:33Z</time>
      </trkpt>
      <trkpt lat="46.19862" lon="4.62454">
        <ele>794.4</ele>
        <time>2025-09-20T08:12:34Z</time>
      </trkpt>
      <trkpt lat="46.19865" lon="4.62453">
        <ele>795.2</ele>
        <time>2025-09-20T08:12:35Z</time>
      </trkpt>
      <trkpt lat="46.19867" lon="4.62452">
        <ele>795.6</ele>
        <time>2025-09-20T08:12:36Z</time>
      </trkpt>
      <trkpt lat="46.1987" lon="4.62451">
        <ele>795.6</ele>
        <time>2025-09-20T08:12:37Z</time>
      </trkpt>
      <trkpt lat="46.19873" lon="4.62449">
        <ele>796</ele>
        <time>2025-09-20T08:12:38Z</time>
      </trkpt>
      <trkpt lat="46.19876" lon="4.62448">
        <ele>796.4</ele>
        <time>2025-09-20T08:12:39Z</time>
      </trkpt>
      <trkpt lat="46.19879" lon="4.62447">
        <ele>795.4</ele>
        <time>2025-09-20T08:12:40Z</time>
      </trkpt>
      <trkpt lat="46.19881" lon="4.62445">
        <ele>795.8</ele>
        <time>2025-09-20T08:12:41Z</time>
      </trkpt>
      <trkpt lat="46.19884" lon="4.62445">
        <ele>796.2</ele>
        <time>2025-09-20T08:12:42Z</time>
      </trkpt>
      <trkpt lat="46.19888" lon="4.62445">
        <ele>796.2</ele>
        <time>2025-09-20T08:12:43Z</time>
      </trkpt>
      <trkpt lat="46.19891" lon="4.62446">
        <ele>796.2</ele>
        <time>2025-09-20T08:12:44Z</time>
      </trkpt>
      <trkpt lat="46.19895" lon="4.62447">
        <ele>796.8</ele>
        <time>2025-09-20T08:12:45Z</time>
      </trkpt>
      <trkpt lat="46.19898" lon="4.62448">
        <ele>796.8</ele>
        <time>2025-09-20T08:12:46Z</time>
      </trkpt>
      <trkpt lat="46.19901" lon="4.62449">
        <ele>796.8</ele>
        <time>2025-09-20T08:12:47Z</time>
      </trkpt>
      <trkpt lat="46.19904" lon="4.62451">
        <ele>796.8</ele>
        <time>2025-09-20T08:12:48Z</time>
      </trkpt>
      <trkpt lat="46.19907" lon="4.62452">
        <ele>796</ele>
        <time>2025-09-20T08:12:49Z</time>
      </trkpt>
      <trkpt lat="46.1991" lon="4.62454">
        <ele>796</ele>
        <time>2025-09-20T08:12:50Z</time>
      </trkpt>
      <trkpt lat="46.19913" lon="4.62456">
        <ele>796</ele>
        <time>2025-09-20T08:12:51Z</time>
      </trkpt>
      <trkpt lat="46.19916" lon="4.62458">
        <ele>796</ele>
        <time>2025-09-20T08:12:52Z</time>
      </trkpt>
      <trkpt lat="46.19922" lon="4.62465">
        <ele>796</ele>
        <time>2025-09-20T08:12:53Z</time>
      </trkpt>
      <trkpt lat="46.19926" lon="4.62469">
        <ele>796.4</ele>
        <time>2025-09-20T08:12:54Z</time>
      </trkpt>
      <trkpt lat="46.1993" lon="4.62473">
        <ele>796.4</ele>
        <time>2025-09-20T08:12:55Z</time>
      </trkpt>
      <trkpt lat="46.19934" lon="4.62476">
        <ele>795.4</ele>
        <time>2025-09-20T08:12:56Z</time>
      </trkpt>
      <trkpt lat="46.19937" lon="4.62478">
        <ele>795.4</ele>
        <time>2025-09-20T08:12:57Z</time>
      </trkpt>
      <trkpt lat="46.1994" lon="4.62481">
        <ele>796</ele>
        <time>2025-09-20T08:12:58Z</time>
      </trkpt>
      <trkpt lat="46.19944" lon="4.62482">
        <ele>795.8</ele>
        <time>2025-09-20T08:12:59Z</time>
      </trkpt>
      <trkpt lat="46.19948" lon="4.62484">
        <ele>796.2</ele>
        <time>2025-09-20T08:13:00Z</time>
      </trkpt>
      <trkpt lat="46.19951" lon="4.62485">
        <ele>796.2</ele>
        <time>2025-09-20T08:13:01Z</time>
      </trkpt>
      <trkpt lat="46.19955" lon="4.62487">
        <ele>796.2</ele>
        <time>2025-09-20T08:13:02Z</time>
      </trkpt>
      <trkpt lat="46.19959" lon="4.62488">
        <ele>796.8</ele>
        <time>2025-09-20T08:13:03Z</time>
      </trkpt>
      <trkpt lat="46.19961" lon="4.62489">
        <ele>797</ele>
        <time>2025-09-20T08:13:04Z</time>
      </trkpt>
      <trkpt lat="46.19964" lon="4.62491">
        <ele>796.6</ele>
        <time>2025-09-20T08:13:05Z</time>
      </trkpt>
      <trkpt lat="46.19967" lon="4.62492">
        <ele>796.6</ele>
        <time>2025-09-20T08:13:06Z</time>
      </trkpt>
      <trkpt lat="46.19971" lon="4.62493">
        <ele>796</ele>
        <time>2025-09-20T08:13:07Z</time>
      </trkpt>
      <trkpt lat="46.19974" lon="4.62495">
        <ele>796</ele>
        <time>2025-09-20T08:13:08Z</time>
      </trkpt>
      <trkpt lat="46.19978" lon="4.62498">
        <ele>796</ele>
        <time>2025-09-20T08:13:09Z</time>
      </trkpt>
      <trkpt lat="46.19983" lon="4.625">
        <ele>796</ele>
        <time>2025-09-20T08:13:10Z</time>
      </trkpt>
      <trkpt lat="46.19988" lon="4.62504">
        <ele>796.2</ele>
        <time>2025-09-20T08:13:11Z</time>
      </trkpt>
      <trkpt lat="46.19993" lon="4.62507">
        <ele>795.6</ele>
        <time>2025-09-20T08:13:12Z</time>
      </trkpt>
      <trkpt lat="46.19998" lon="4.62511">
        <ele>796.4</ele>
        <time>2025-09-20T08:13:13Z</time>
      </trkpt>
      <trkpt lat="46.20001" lon="4.62515">
        <ele>795.8</ele>
        <time>2025-09-20T08:13:14Z</time>
      </trkpt>
      <trkpt lat="46.20004" lon="4.62518">
        <ele>795.2</ele>
        <time>2025-09-20T08:13:15Z</time>
      </trkpt>
      <trkpt lat="46.20008" lon="4.6252">
        <ele>794.8</ele>
        <time>2025-09-20T08:13:16Z</time>
      </trkpt>
      <trkpt lat="46.20011" lon="4.62521">
        <ele>792</ele>
        <time>2025-09-20T08:13:17Z</time>
      </trkpt>
      <trkpt lat="46.20015" lon="4.62524">
        <ele>792</ele>
        <time>2025-09-20T08:13:18Z</time>
      </trkpt>
      <trkpt lat="46.20018" lon="4.62523">
        <ele>792.4</ele>
        <time>2025-09-20T08:13:19Z</time>
      </trkpt>
      <trkpt lat="46.20021" lon="4.62524">
        <ele>792</ele>
        <time>2025-09-20T08:13:20Z</time>
      </trkpt>
      <trkpt lat="46.20025" lon="4.62524">
        <ele>791.6</ele>
        <time>2025-09-20T08:13:21Z</time>
      </trkpt>
      <trkpt lat="46.20029" lon="4.62524">
        <ele>791.2</ele>
        <time>2025-09-20T08:13:22Z</time>
      </trkpt>
      <trkpt lat="46.20033" lon="4.62523">
        <ele>791.2</ele>
        <time>2025-09-20T08:13:23Z</time>
      </trkpt>
      <trkpt lat="46.20038" lon="4.62523">
        <ele>791.6</ele>
        <time>2025-09-20T08:13:24Z</time>
      </trkpt>
      <trkpt lat="46.20042" lon="4.62524">
        <ele>791</ele>
        <time>2025-09-20T08:13:25Z</time>
      </trkpt>
      <trkpt lat="46.20047" lon="4.62525">
        <ele>791</ele>
        <time>2025-09-20T08:13:26Z</time>
      </trkpt>
      <trkpt lat="46.20052" lon="4.62524">
        <ele>791.4</ele>
        <time>2025-09-20T08:13:27Z</time>
      </trkpt>
      <trkpt lat="46.20057" lon="4.62524">
        <ele>791.2</ele>
        <time>2025-09-20T08:13:28Z</time>
      </trkpt>
      <trkpt lat="46.20063" lon="4.62526">
        <ele>791.2</ele>
        <time>2025-09-20T08:13:29Z</time>
      </trkpt>
      <trkpt lat="46.20069" lon="4.62531">
        <ele>789.6</ele>
        <time>2025-09-20T08:13:30Z</time>
      </trkpt>
      <trkpt lat="46.20075" lon="4.62535">
        <ele>789.2</ele>
        <time>2025-09-20T08:13:31Z</time>
      </trkpt>
      <trkpt lat="46.2008" lon="4.62538">
        <ele>788.6</ele>
        <time>2025-09-20T08:13:32Z</time>
      </trkpt>
      <trkpt lat="46.20086" lon="4.6254">
        <ele>787.6</ele>
        <time>2025-09-20T08:13:33Z</time>
      </trkpt>
      <trkpt lat="46.20092" lon="4.62543">
        <ele>786.8</ele>
        <time>2025-09-20T08:13:34Z</time>
      </trkpt>
      <trkpt lat="46.20097" lon="4.62544">
        <ele>786.8</ele>
        <time>2025-09-20T08:13:35Z</time>
      </trkpt>
      <trkpt lat="46.20101" lon="4.62548">
        <ele>786.8</ele>
        <time>2025-09-20T08:13:36Z</time>
      </trkpt>
      <trkpt lat="46.20107" lon="4.6255">
        <ele>787.2</ele>
        <time>2025-09-20T08:13:37Z</time>
      </trkpt>
      <trkpt lat="46.20111" lon="4.62552">
        <ele>787.2</ele>
        <time>2025-09-20T08:13:38Z</time>
      </trkpt>
      <trkpt lat="46.20112" lon="4.62555">
        <ele>787.2</ele>
        <time>2025-09-20T08:13:39Z</time>
      </trkpt>
      <trkpt lat="46.20114" lon="4.62556">
        <ele>787.2</ele>
        <time>2025-09-20T08:13:40Z</time>
      </trkpt>
      <trkpt lat="46.20117" lon="4.62557">
        <ele>787.6</ele>
        <time>2025-09-20T08:13:41Z</time>
      </trkpt>
      <trkpt lat="46.20121" lon="4.62558">
        <ele>787.6</ele>
        <time>2025-09-20T08:13:42Z</time>
      </trkpt>
      <trkpt lat="46.20124" lon="4.62559">
        <ele>787.8</ele>
        <time>2025-09-20T08:13:43Z</time>
      </trkpt>
      <trkpt lat="46.20128" lon="4.62562">
        <ele>787.8</ele>
        <time>2025-09-20T08:13:44Z</time>
      </trkpt>
      <trkpt lat="46.2013" lon="4.62565">
        <ele>787.2</ele>
        <time>2025-09-20T08:13:45Z</time>
      </trkpt>
      <trkpt lat="46.20133" lon="4.62568">
        <ele>787.4</ele>
        <time>2025-09-20T08:13:46Z</time>
      </trkpt>
      <trkpt lat="46.20135" lon="4.62571">
        <ele>787.8</ele>
        <time>2025-09-20T08:13:47Z</time>
      </trkpt>
      <trkpt lat="46.20137" lon="4.62572">
        <ele>788.4</ele>
        <time>2025-09-20T08:13:48Z</time>
      </trkpt>
      <trkpt lat="46.20139" lon="4.62573">
        <ele>788.4</ele>
        <time>2025-09-20T08:13:49Z</time>
      </trkpt>
      <trkpt lat="46.20141" lon="4.62575">
        <ele>788.6</ele>
        <time>2025-09-20T08:13:50Z</time>
      </trkpt>
      <trkpt lat="46.20141" lon="4.62576">
        <ele>789</ele>
        <time>2025-09-20T08:13:51Z</time>
      </trkpt>
      <trkpt lat="46.20141" lon="4.62576">
        <ele>789.2</ele>
        <time>2025-09-20T08:13:52Z</time>
      </trkpt>
      <trkpt lat="46.20141" lon="4.62576">
        <ele>789.2</ele>
        <time>2025-09-20T08:13:53Z</time>
      </trkpt>
      <trkpt lat="46.20144" lon="4.6258">
        <ele>789</ele>
        <time>2025-09-20T08:14:00Z</time>
      </trkpt>
      <trkpt lat="46.20146" lon="4.62582">
        <ele>788.8</ele>
        <time>2025-09-20T08:14:01Z</time>
      </trkpt>
      <trkpt lat="46.20148" lon="4.62584">
        <ele>788.8</ele>
        <time>2025-09-20T08:14:02Z</time>
      </trkpt>
      <trkpt lat="46.20151" lon="4.62586">
        <ele>788.8</ele>
        <time>2025-09-20T08:14:03Z</time>
      </trkpt>
      <trkpt lat="46.20153" lon="4.6259">
        <ele>788.4</ele>
        <time>2025-09-20T08:14:04Z</time>
      </trkpt>
      <trkpt lat="46.20156" lon="4.62595">
        <ele>788.4</ele>
        <time>2025-09-20T08:14:05Z</time>
      </trkpt>
      <trkpt lat="46.2016" lon="4.62607">
        <ele>788.4</ele>
        <time>2025-09-20T08:14:06Z</time>
      </trkpt>
      <trkpt lat="46.20165" lon="4.62611">
        <ele>788</ele>
        <time>2025-09-20T08:14:07Z</time>
      </trkpt>
      <trkpt lat="46.20166" lon="4.62618">
        <ele>787.4</ele>
        <time>2025-09-20T08:14:08Z</time>
      </trkpt>
      <trkpt lat="46.2017" lon="4.62624">
        <ele>787</ele>
        <time>2025-09-20T08:14:09Z</time>
      </trkpt>
      <trkpt lat="46.20173" lon="4.62632">
        <ele>787</ele>
        <time>2025-09-20T08:14:10Z</time>
      </trkpt>
      <trkpt lat="46.20176" lon="4.6264">
        <ele>787</ele>
        <time>2025-09-20T08:14:11Z</time>
      </trkpt>
      <trkpt lat="46.20178" lon="4.62644">
        <ele>786.8</ele>
        <time>2025-09-20T08:14:12Z</time>
      </trkpt>
      <trkpt lat="46.20181" lon="4.6265">
        <ele>786.8</ele>
        <time>2025-09-20T08:14:13Z</time>
      </trkpt>
      <trkpt lat="46.20182" lon="4.62656">
        <ele>786.8</ele>
        <time>2025-09-20T08:14:14Z</time>
      </trkpt>
      <trkpt lat="46.20183" lon="4.62661">
        <ele>786.8</ele>
        <time>2025-09-20T08:14:15Z</time>
      </trkpt>
      <trkpt lat="46.20186" lon="4.62665">
        <ele>786.8</ele>
        <time>2025-09-20T08:14:16Z</time>
      </trkpt>
      <trkpt lat="46.20187" lon="4.62669">
        <ele>786.4</ele>
        <time>2025-09-20T08:14:17Z</time>
      </trkpt>
      <trkpt lat="46.20191" lon="4.62677">
        <ele>786.4</ele>
        <time>2025-09-20T08:14:18Z</time>
      </trkpt>
      <trkpt lat="46.20194" lon="4.6268">
        <ele>786.4</ele>
        <time>2025-09-20T08:14:19Z</time>
      </trkpt>
      <trkpt lat="46.20196" lon="4.62681">
        <ele>786.4</ele>
        <time>2025-09-20T08:14:20Z</time>
      </trkpt>
      <trkpt lat="46.20199" lon="4.62686">
        <ele>786.4</ele>
        <time>2025-09-20T08:14:21Z</time>
      </trkpt>
      <trkpt lat="46.20201" lon="4.62689">
        <ele>786.8</ele>
        <time>2025-09-20T08:14:22Z</time>
      </trkpt>
      <trkpt lat="46.20205" lon="4.62693">
        <ele>786.8</ele>
        <time>2025-09-20T08:14:23Z</time>
      </trkpt>
      <trkpt lat="46.20208" lon="4.62695">
        <ele>786.8</ele>
        <time>2025-09-20T08:14:24Z</time>
      </trkpt>
      <trkpt lat="46.2021" lon="4.62697">
        <ele>786.8</ele>
        <time>2025-09-20T08:14:25Z</time>
      </trkpt>
      <trkpt lat="46.20214" lon="4.62699">
        <ele>786.8</ele>
        <time>2025-09-20T08:14:26Z</time>
      </trkpt>
      <trkpt lat="46.20217" lon="4.62702">
        <ele>786.8</ele>
        <time>2025-09-20T08:14:27Z</time>
      </trkpt>
      <trkpt lat="46.20219" lon="4.62705">
        <ele>786.2</ele>
        <time>2025-09-20T08:14:28Z</time>
      </trkpt>
      <trkpt lat="46.2022" lon="4.62709">
        <ele>786.2</ele>
        <time>2025-09-20T08:14:29Z</time>
      </trkpt>
      <trkpt lat="46.20221" lon="4.62713">
        <ele>786.2</ele>
        <time>2025-09-20T08:14:30Z</time>
      </trkpt>
      <trkpt lat="46.20223" lon="4.62717">
        <ele>786.2</ele>
        <time>2025-09-20T08:14:31Z</time>
      </trkpt>
      <trkpt lat="46.20225" lon="4.62722">
        <ele>786.6</ele>
        <time>2025-09-20T08:14:32Z</time>
      </trkpt>
      <trkpt lat="46.20227" lon="4.62726">
        <ele>787</ele>
        <time>2025-09-20T08:14:33Z</time>
      </trkpt>
      <trkpt lat="46.2023" lon="4.6273">
        <ele>786.4</ele>
        <time>2025-09-20T08:14:34Z</time>
      </trkpt>
      <trkpt lat="46.20233" lon="4.62734">
        <ele>786.2</ele>
        <time>2025-09-20T08:14:35Z</time>
      </trkpt>
      <trkpt lat="46.20236" lon="4.62737">
        <ele>787</ele>
        <time>2025-09-20T08:14:36Z</time>
      </trkpt>
      <trkpt lat="46.20239" lon="4.6274">
        <ele>787</ele>
        <time>2025-09-20T08:14:37Z</time>
      </trkpt>
      <trkpt lat="46.20242" lon="4.62743">
        <ele>786.2</ele>
        <time>2025-09-20T08:14:38Z</time>
      </trkpt>
      <trkpt lat="46.20242" lon="4.62743">
        <ele>785.8</ele>
        <time>2025-09-20T08:14:39Z</time>
      </trkpt>
      <trkpt lat="46.20242" lon="4.62743">
        <ele>785.6</ele>
        <time>2025-09-20T08:14:40Z</time>
      </trkpt>
      <trkpt lat="46.20253" lon="4.62753">
        <ele>785.8</ele>
        <time>2025-09-20T08:14:41Z</time>
      </trkpt>
      <trkpt lat="46.20257" lon="4.62754">
        <ele>785.8</ele>
        <time>2025-09-20T08:14:42Z</time>
      </trkpt>
      <trkpt lat="46.2026" lon="4.62757">
        <ele>785</ele>
        <time>2025-09-20T08:14:43Z</time>
      </trkpt>
      <trkpt lat="46.20264" lon="4.62759">
        <ele>784.6</ele>
        <time>2025-09-20T08:14:44Z</time>
      </trkpt>
      <trkpt lat="46.20268" lon="4.62761">
        <ele>784.6</ele>
        <time>2025-09-20T08:14:45Z</time>
      </trkpt>
      <trkpt lat="46.20271" lon="4.62764">
        <ele>784.4</ele>
        <time>2025-09-20T08:14:46Z</time>
      </trkpt>
      <trkpt lat="46.20274" lon="4.62766">
        <ele>784.4</ele>
        <time>2025-09-20T08:14:47Z</time>
      </trkpt>
      <trkpt lat="46.20276" lon="4.6277">
        <ele>784</ele>
        <time>2025-09-20T08:14:48Z</time>
      </trkpt>
      <trkpt lat="46.20278" lon="4.62773">
        <ele>784</ele>
        <time>2025-09-20T08:14:49Z</time>
      </trkpt>
      <trkpt lat="46.20282" lon="4.62777">
        <ele>784.4</ele>
        <time>2025-09-20T08:14:50Z</time>
      </trkpt>
      <trkpt lat="46.20284" lon="4.62781">
        <ele>784.2</ele>
        <time>2025-09-20T08:14:51Z</time>
      </trkpt>
      <trkpt lat="46.20284" lon="4.62781">
        <ele>783.8</ele>
        <time>2025-09-20T08:14:52Z</time>
      </trkpt>
      <trkpt lat="46.20287" lon="4.62785">
        <ele>784.2</ele>
        <time>2025-09-20T08:14:53Z</time>
      </trkpt>
      <trkpt lat="46.2029" lon="4.62787">
        <ele>784.2</ele>
        <time>2025-09-20T08:14:54Z</time>
      </trkpt>
      <trkpt lat="46.20294" lon="4.62789">
        <ele>783.8</ele>
        <time>2025-09-20T08:14:55Z</time>
      </trkpt>
      <trkpt lat="46.20297" lon="4.62791">
        <ele>783.8</ele>
        <time>2025-09-20T08:14:56Z</time>
      </trkpt>
      <trkpt lat="46.20299" lon="4.62792">
        <ele>783.8</ele>
        <time>2025-09-20T08:14:57Z</time>
      </trkpt>
      <trkpt lat="46.20303" lon="4.62794">
        <ele>783.8</ele>
        <time>2025-09-20T08:14:58Z</time>
      </trkpt>
      <trkpt lat="46.20306" lon="4.62796">
        <ele>783.8</ele>
        <time>2025-09-20T08:14:59Z</time>
      </trkpt>
      <trkpt lat="46.20309" lon="4.62798">
        <ele>783.8</ele>
        <time>2025-09-20T08:15:00Z</time>
      </trkpt>
      <trkpt lat="46.20311" lon="4.62801">
        <ele>783.8</ele>
        <time>2025-09-20T08:15:01Z</time>
      </trkpt>
      <trkpt lat="46.20314" lon="4.62803">
        <ele>783.4</ele>
        <time>2025-09-20T08:15:02Z</time>
      </trkpt>
      <trkpt lat="46.20317" lon="4.62806">
        <ele>783.8</ele>
        <time>2025-09-20T08:15:03Z</time>
      </trkpt>
      <trkpt lat="46.20319" lon="4.62809">
        <ele>783.8</ele>
        <time>2025-09-20T08:15:04Z</time>
      </trkpt>
      <trkpt lat="46.20321" lon="4.62813">
        <ele>783</ele>
        <time>2025-09-20T08:15:05Z</time>
      </trkpt>
      <trkpt lat="46.20323" lon="4.62817">
        <ele>783.4</ele>
        <time>2025-09-20T08:15:06Z</time>
      </trkpt>
      <trkpt lat="46.20326" lon="4.62823">
        <ele>783.4</ele>
        <time>2025-09-20T08:15:07Z</time>
      </trkpt>
      <trkpt lat="46.20329" lon="4.62825">
        <ele>783.4</ele>
        <time>2025-09-20T08:15:08Z</time>
      </trkpt>
      <trkpt lat="46.20333" lon="4.62828">
        <ele>783.6</ele>
        <time>2025-09-20T08:15:09Z</time>
      </trkpt>
      <trkpt lat="46.20335" lon="4.62832">
        <ele>783</ele>
        <time>2025-09-20T08:15:10Z</time>
      </trkpt>
      <trkpt lat="46.20338" lon="4.62836">
        <ele>783.8</ele>
        <time>2025-09-20T08:15:11Z</time>
      </trkpt>
      <trkpt lat="46.20341" lon="4.6284">
        <ele>784.2</ele>
        <time>2025-09-20T08:15:12Z</time>
      </trkpt>
      <trkpt lat="46.20341" lon="4.62843">
        <ele>783.8</ele>
        <time>2025-09-20T08:15:13Z</time>
      </trkpt>
      <trkpt lat="46.20342" lon="4.62848">
        <ele>784.4</ele>
        <time>2025-09-20T08:15:14Z</time>
      </trkpt>
      <trkpt lat="46.20343" lon="4.62852">
        <ele>785.6</ele>
        <time>2025-09-20T08:15:15Z</time>
      </trkpt>
      <trkpt lat="46.20342" lon="4.62854">
        <ele>785.2</ele>
        <time>2025-09-20T08:15:16Z</time>
      </trkpt>
      <trkpt lat="46.20343" lon="4.62858">
        <ele>785.2</ele>
        <time>2025-09-20T08:15:17Z</time>
      </trkpt>
      <trkpt lat="46.20342" lon="4.62861">
        <ele>785.2</ele>
        <time>2025-09-20T08:15:18Z</time>
      </trkpt>
      <trkpt lat="46.20342" lon="4.62865">
        <ele>785.6</ele>
        <time>2025-09-20T08:15:19Z</time>
      </trkpt>
      <trkpt lat="46.20341" lon="4.62869">
        <ele>785.6</ele>
        <time>2025-09-20T08:15:20Z</time>
      </trkpt>
      <trkpt lat="46.20341" lon="4.62873">
        <ele>785.8</ele>
        <time>2025-09-20T08:15:21Z</time>
      </trkpt>
      <trkpt lat="46.20342" lon="4.62877">
        <ele>785.8</ele>
        <time>2025-09-20T08:15:22Z</time>
      </trkpt>
      <trkpt lat="46.20344" lon="4.62881">
        <ele>785.8</ele>
        <time>2025-09-20T08:15:23Z</time>
      </trkpt>
      <trkpt lat="46.20346" lon="4.62883">
        <ele>785.8</ele>
        <time>2025-09-20T08:15:24Z</time>
      </trkpt>
      <trkpt lat="46.20348" lon="4.62884">
        <ele>786</ele>
        <time>2025-09-20T08:15:25Z</time>
      </trkpt>
      <trkpt lat="46.20349" lon="4.62885">
        <ele>786</ele>
        <time>2025-09-20T08:15:26Z</time>
      </trkpt>
      <trkpt lat="46.20349" lon="4.62885">
        <ele>786</ele>
        <time>2025-09-20T08:15:27Z</time>
      </trkpt>
      <trkpt lat="46.20349" lon="4.62885">
        <ele>786</ele>
        <time>2025-09-20T08:15:28Z</time>
      </trkpt>
      <trkpt lat="46.2035" lon="4.62886">
        <ele>785.2</ele>
        <time>2025-09-20T08:15:55Z</time>
      </trkpt>
      <trkpt lat="46.20352" lon="4.62886">
        <ele>785.2</ele>
        <time>2025-09-20T08:15:56Z</time>
      </trkpt>
      <trkpt lat="46.20353" lon="4.62887">
        <ele>785.2</ele>
        <time>2025-09-20T08:15:57Z</time>
      </trkpt>
      <trkpt lat="46.20354" lon="4.62888">
        <ele>784.8</ele>
        <time>2025-09-20T08:15:58Z</time>
      </trkpt>
      <trkpt lat="46.20357" lon="4.6289">
        <ele>784.8</ele>
        <time>2025-09-20T08:15:59Z</time>
      </trkpt>
      <trkpt lat="46.20361" lon="4.62891">
        <ele>784.8</ele>
        <time>2025-09-20T08:16:00Z</time>
      </trkpt>
      <trkpt lat="46.20364" lon="4.62892">
        <ele>784.8</ele>
        <time>2025-09-20T08:16:01Z</time>
      </trkpt>
      <trkpt lat="46.20368" lon="4.62892">
        <ele>784.8</ele>
        <time>2025-09-20T08:16:02Z</time>
      </trkpt>
      <trkpt lat="46.20372" lon="4.62892">
        <ele>784.8</ele>
        <time>2025-09-20T08:16:03Z</time>
      </trkpt>
      <trkpt lat="46.20376" lon="4.62894">
        <ele>784.8</ele>
        <time>2025-09-20T08:16:04Z</time>
      </trkpt>
      <trkpt lat="46.20379" lon="4.62895">
        <ele>785.4</ele>
        <time>2025-09-20T08:16:05Z</time>
      </trkpt>
      <trkpt lat="46.20382" lon="4.62896">
        <ele>785.6</ele>
        <time>2025-09-20T08:16:06Z</time>
      </trkpt>
      <trkpt lat="46.20386" lon="4.62899">
        <ele>785.6</ele>
        <time>2025-09-20T08:16:07Z</time>
      </trkpt>
      <trkpt lat="46.20388" lon="4.62901">
        <ele>785.6</ele>
        <time>2025-09-20T08:16:08Z</time>
      </trkpt>
      <trkpt lat="46.20391" lon="4.62903">
        <ele>786</ele>
        <time>2025-09-20T08:16:09Z</time>
      </trkpt>
      <trkpt lat="46.20394" lon="4.62905">
        <ele>786</ele>
        <time>2025-09-20T08:16:10Z</time>
      </trkpt>
      <trkpt lat="46.20397" lon="4.62907">
        <ele>786</ele>
        <time>2025-09-20T08:16:11Z</time>
      </trkpt>
      <trkpt lat="46.20401" lon="4.6291">
        <ele>786</ele>
        <time>2025-09-20T08:16:12Z</time>
      </trkpt>
      <trkpt lat="46.20404" lon="4.62912">
        <ele>786</ele>
        <time>2025-09-20T08:16:13Z</time>
      </trkpt>
      <trkpt lat="46.20408" lon="4.62913">
        <ele>786</ele>
        <time>2025-09-20T08:16:14Z</time>
      </trkpt>
      <trkpt lat="46.20411" lon="4.62915">
        <ele>786</ele>
        <time>2025-09-20T08:16:15Z</time>
      </trkpt>
      <trkpt lat="46.20414" lon="4.62916">
        <ele>785.4</ele>
        <time>2025-09-20T08:16:16Z</time>
      </trkpt>
      <trkpt lat="46.20418" lon="4.62918">
        <ele>786</ele>
        <time>2025-09-20T08:16:17Z</time>
      </trkpt>
      <trkpt lat="46.20422" lon="4.62921">
        <ele>786.2</ele>
        <time>2025-09-20T08:16:18Z</time>
      </trkpt>
      <trkpt lat="46.20425" lon="4.62923">
        <ele>786.2</ele>
        <time>2025-09-20T08:16:19Z</time>
      </trkpt>
      <trkpt lat="46.20428" lon="4.62925">
        <ele>786.6</ele>
        <time>2025-09-20T08:16:20Z</time>
      </trkpt>
      <trkpt lat="46.20431" lon="4.62927">
        <ele>786.8</ele>
        <time>2025-09-20T08:16:21Z</time>
      </trkpt>
      <trkpt lat="46.20434" lon="4.62929">
        <ele>786.8</ele>
        <time>2025-09-20T08:16:22Z</time>
      </trkpt>
      <trkpt lat="46.20437" lon="4.62931">
        <ele>787.2</ele>
        <time>2025-09-20T08:16:23Z</time>
      </trkpt>
      <trkpt lat="46.2044" lon="4.62933">
        <ele>787.6</ele>
        <time>2025-09-20T08:16:24Z</time>
      </trkpt>
      <trkpt lat="46.20443" lon="4.62935">
        <ele>788</ele>
        <time>2025-09-20T08:16:25Z</time>
      </trkpt>
      <trkpt lat="46.20446" lon="4.62936">
        <ele>788.2</ele>
        <time>2025-09-20T08:16:26Z</time>
      </trkpt>
      <trkpt lat="46.20448" lon="4.62938">
        <ele>788.2</ele>
        <time>2025-09-20T08:16:27Z</time>
      </trkpt>
      <trkpt lat="46.20451" lon="4.62939">
        <ele>788.4</ele>
        <time>2025-09-20T08:16:28Z</time>
      </trkpt>
      <trkpt lat="46.20453" lon="4.62941">
        <ele>788.8</ele>
        <time>2025-09-20T08:16:29Z</time>
      </trkpt>
      <trkpt lat="46.20456" lon="4.62942">
        <ele>789.2</ele>
        <time>2025-09-20T08:16:30Z</time>
      </trkpt>
      <trkpt lat="46.20458" lon="4.62943">
        <ele>789.4</ele>
        <time>2025-09-20T08:16:31Z</time>
      </trkpt>
      <trkpt lat="46.2046" lon="4.62944">
        <ele>789.8</ele>
        <time>2025-09-20T08:16:32Z</time>
      </trkpt>
      <trkpt lat="46.20462" lon="4.62945">
        <ele>789.6</ele>
        <time>2025-09-20T08:16:33Z</time>
      </trkpt>
      <trkpt lat="46.20464" lon="4.62946">
        <ele>790.2</ele>
        <time>2025-09-20T08:16:34Z</time>
      </trkpt>
      <trkpt lat="46.20466" lon="4.62947">
        <ele>790.6</ele>
        <time>2025-09-20T08:16:35Z</time>
      </trkpt>
      <trkpt lat="46.20468" lon="4.62948">
        <ele>791</ele>
        <time>2025-09-20T08:16:36Z</time>
      </trkpt>
      <trkpt lat="46.2047" lon="4.62949">
        <ele>791.2</ele>
        <time>2025-09-20T08:16:37Z</time>
      </trkpt>
      <trkpt lat="46.20472" lon="4.6295">
        <ele>791.6</ele>
        <time>2025-09-20T08:16:38Z</time>
      </trkpt>
      <trkpt lat="46.20474" lon="4.6295">
        <ele>791.8</ele>
        <time>2025-09-20T08:16:39Z</time>
      </trkpt>
      <trkpt lat="46.20476" lon="4.62951">
        <ele>792.2</ele>
        <time>2025-09-20T08:16:40Z</time>
      </trkpt>
      <trkpt lat="46.20478" lon="4.62952">
        <ele>792.4</ele>
        <time>2025-09-20T08:16:41Z</time>
      </trkpt>
      <trkpt lat="46.2048" lon="4.62953">
        <ele>792.6</ele>
        <time>2025-09-20T08:16:42Z</time>
      </trkpt>
      <trkpt lat="46.20483" lon="4.62955">
        <ele>792.8</ele>
        <time>2025-09-20T08:16:43Z</time>
      </trkpt>
      <trkpt lat="46.20484" lon="4.62956">
        <ele>792.8</ele>
        <time>2025-09-20T08:16:44Z</time>
      </trkpt>
      <trkpt lat="46.20487" lon="4.62957">
        <ele>792.8</ele>
        <time>2025-09-20T08:16:45Z</time>
      </trkpt>
      <trkpt lat="46.20489" lon="4.62958">
        <ele>793.4</ele>
        <time>2025-09-20T08:16:46Z</time>
      </trkpt>
      <trkpt lat="46.20491" lon="4.62959">
        <ele>793.4</ele>
        <time>2025-09-20T08:16:47Z</time>
      </trkpt>
      <trkpt lat="46.20493" lon="4.6296">
        <ele>793.8</ele>
        <time>2025-09-20T08:16:48Z</time>
      </trkpt>
      <trkpt lat="46.20495" lon="4.62961">
        <ele>794</ele>
        <time>2025-09-20T08:16:49Z</time>
      </trkpt>
      <trkpt lat="46.20497" lon="4.62962">
        <ele>794</ele>
        <time>2025-09-20T08:16:50Z</time>
      </trkpt>
      <trkpt lat="46.20499" lon="4.62963">
        <ele>794.8</ele>
        <time>2025-09-20T08:16:51Z</time>
      </trkpt>
      <trkpt lat="46.205" lon="4.62964">
        <ele>794.4</ele>
        <time>2025-09-20T08:16:52Z</time>
      </trkpt>
      <trkpt lat="46.20502" lon="4.62965">
        <ele>794.8</ele>
        <time>2025-09-20T08:16:53Z</time>
      </trkpt>
      <trkpt lat="46.20504" lon="4.62967">
        <ele>794.8</ele>
        <time>2025-09-20T08:16:54Z</time>
      </trkpt>
      <trkpt lat="46.20506" lon="4.62968">
        <ele>794.8</ele>
        <time>2025-09-20T08:16:55Z</time>
      </trkpt>
      <trkpt lat="46.20508" lon="4.6297">
        <ele>795</ele>
        <time>2025-09-20T08:16:56Z</time>
      </trkpt>
      <trkpt lat="46.2051" lon="4.62971">
        <ele>795.4</ele>
        <time>2025-09-20T08:16:57Z</time>
      </trkpt>
      <trkpt lat="46.20511" lon="4.62972">
        <ele>795.6</ele>
        <time>2025-09-20T08:16:58Z</time>
      </trkpt>
      <trkpt lat="46.20512" lon="4.62972">
        <ele>795.6</ele>
        <time>2025-09-20T08:16:59Z</time>
      </trkpt>
      <trkpt lat="46.20514" lon="4.62973">
        <ele>796</ele>
        <time>2025-09-20T08:17:00Z</time>
      </trkpt>
      <trkpt lat="46.20516" lon="4.62974">
        <ele>796</ele>
        <time>2025-09-20T08:17:01Z</time>
      </trkpt>
      <trkpt lat="46.20518" lon="4.62975">
        <ele>796</ele>
        <time>2025-09-20T08:17:02Z</time>
      </trkpt>
      <trkpt lat="46.2052" lon="4.62976">
        <ele>796.2</ele>
        <time>2025-09-20T08:17:03Z</time>
      </trkpt>
      <trkpt lat="46.20522" lon="4.62977">
        <ele>796.8</ele>
        <time>2025-09-20T08:17:04Z</time>
      </trkpt>
      <trkpt lat="46.20524" lon="4.62978">
        <ele>797</ele>
        <time>2025-09-20T08:17:05Z</time>
      </trkpt>
      <trkpt lat="46.20526" lon="4.62979">
        <ele>797.2</ele>
        <time>2025-09-20T08:17:06Z</time>
      </trkpt>
      <trkpt lat="46.20528" lon="4.6298">
        <ele>797.2</ele>
        <time>2025-09-20T08:17:07Z</time>
      </trkpt>
      <trkpt lat="46.20529" lon="4.6298">
        <ele>797.6</ele>
        <time>2025-09-20T08:17:08Z</time>
      </trkpt>
      <trkpt lat="46.20531" lon="4.62982">
        <ele>797.6</ele>
        <time>2025-09-20T08:17:09Z</time>
      </trkpt>
      <trkpt lat="46.20533" lon="4.62983">
        <ele>797.8</ele>
        <time>2025-09-20T08:17:10Z</time>
      </trkpt>
      <trkpt lat="46.20535" lon="4.62985">
        <ele>797.8</ele>
        <time>2025-09-20T08:17:11Z</time>
      </trkpt>
      <trkpt lat="46.20536" lon="4.62985">
        <ele>798</ele>
        <time>2025-09-20T08:17:12Z</time>
      </trkpt>
      <trkpt lat="46.20537" lon="4.62986">
        <ele>797.6</ele>
        <time>2025-09-20T08:17:13Z</time>
      </trkpt>
      <trkpt lat="46.20539" lon="4.62987">
        <ele>798.4</ele>
        <time>2025-09-20T08:17:14Z</time>
      </trkpt>
      <trkpt lat="46.20541" lon="4.62987">
        <ele>798.8</ele>
        <time>2025-09-20T08:17:15Z</time>
      </trkpt>
      <trkpt lat="46.20544" lon="4.62987">
        <ele>798.8</ele>
        <time>2025-09-20T08:17:16Z</time>
      </trkpt>
      <trkpt lat="46.20546" lon="4.62987">
        <ele>798.8</ele>
        <time>2025-09-20T08:17:17Z</time>
      </trkpt>
      <trkpt lat="46.20547" lon="4.62987">
        <ele>798.8</ele>
        <time>2025-09-20T08:17:18Z</time>
      </trkpt>
      <trkpt lat="46.20548" lon="4.62987">
        <ele>798.8</ele>
        <time>2025-09-20T08:17:19Z</time>
      </trkpt>
      <trkpt lat="46.2055" lon="4.62987">
        <ele>799.4</ele>
        <time>2025-09-20T08:17:20Z</time>
      </trkpt>
      <trkpt lat="46.20552" lon="4.62987">
        <ele>799.4</ele>
        <time>2025-09-20T08:17:21Z</time>
      </trkpt>
      <trkpt lat="46.20554" lon="4.62987">
        <ele>799.6</ele>
        <time>2025-09-20T08:17:22Z</time>
      </trkpt>
      <trkpt lat="46.20556" lon="4.62986">
        <ele>799.6</ele>
        <time>2025-09-20T08:17:23Z</time>
      </trkpt>
      <trkpt lat="46.20559" lon="4.62986">
        <ele>800</ele>
        <time>2025-09-20T08:17:24Z</time>
      </trkpt>
      <trkpt lat="46.20561" lon="4.62986">
        <ele>800</ele>
        <time>2025-09-20T08:17:25Z</time>
      </trkpt>
      <trkpt lat="46.20563" lon="4.62986">
        <ele>800</ele>
        <time>2025-09-20T08:17:26Z</time>
      </trkpt>
      <trkpt lat="46.20566" lon="4.62986">
        <ele>800</ele>
        <time>2025-09-20T08:17:27Z</time>
      </trkpt>
      <trkpt lat="46.20568" lon="4.62986">
        <ele>800</ele>
        <time>2025-09-20T08:17:28Z</time>
      </trkpt>
      <trkpt lat="46.2057" lon="4.62985">
        <ele>800.4</ele>
        <time>2025-09-20T08:17:29Z</time>
      </trkpt>
      <trkpt lat="46.20572" lon="4.62983">
        <ele>800.4</ele>
        <time>2025-09-20T08:17:30Z</time>
      </trkpt>
      <trkpt lat="46.20574" lon="4.62981">
        <ele>800.4</ele>
        <time>2025-09-20T08:17:31Z</time>
      </trkpt>
      <trkpt lat="46.20577" lon="4.62979">
        <ele>800.4</ele>
        <time>2025-09-20T08:17:32Z</time>
      </trkpt>
      <trkpt lat="46.20579" lon="4.62977">
        <ele>800.4</ele>
        <time>2025-09-20T08:17:33Z</time>
      </trkpt>
      <trkpt lat="46.20581" lon="4.62976">
        <ele>800.6</ele>
        <time>2025-09-20T08:17:34Z</time>
      </trkpt>
      <trkpt lat="46.20583" lon="4.62975">
        <ele>800.6</ele>
        <time>2025-09-20T08:17:35Z</time>
      </trkpt>
      <trkpt lat="46.20585" lon="4.62975">
        <ele>800.6</ele>
        <time>2025-09-20T08:17:36Z</time>
      </trkpt>
      <trkpt lat="46.20585" lon="4.62975">
        <ele>800.6</ele>
        <time>2025-09-20T08:17:37Z</time>
      </trkpt>
      <trkpt lat="46.20585" lon="4.62975">
        <ele>800.6</ele>
        <time>2025-09-20T08:17:38Z</time>
      </trkpt>
      <trkpt lat="46.20587" lon="4.62976">
        <ele>800.8</ele>
        <time>2025-09-20T08:19:46Z</time>
      </trkpt>
      <trkpt lat="46.2059" lon="4.62976">
        <ele>800.8</ele>
        <time>2025-09-20T08:19:47Z</time>
      </trkpt>
      <trkpt lat="46.20592" lon="4.62976">
        <ele>800.8</ele>
        <time>2025-09-20T08:19:48Z</time>
      </trkpt>
      <trkpt lat="46.20595" lon="4.62976">
        <ele>800.8</ele>
        <time>2025-09-20T08:19:49Z</time>
      </trkpt>
      <trkpt lat="46.20597" lon="4.62977">
        <ele>800.8</ele>
        <time>2025-09-20T08:19:50Z</time>
      </trkpt>
      <trkpt lat="46.20599" lon="4.62978">
        <ele>801.2</ele>
        <time>2025-09-20T08:19:51Z</time>
      </trkpt>
      <trkpt lat="46.20602" lon="4.62979">
        <ele>801.2</ele>
        <time>2025-09-20T08:19:52Z</time>
      </trkpt>
      <trkpt lat="46.20604" lon="4.62981">
        <ele>801.2</ele>
        <time>2025-09-20T08:19:53Z</time>
      </trkpt>
      <trkpt lat="46.20607" lon="4.62983">
        <ele>801.2</ele>
        <time>2025-09-20T08:19:54Z</time>
      </trkpt>
      <trkpt lat="46.2061" lon="4.62986">
        <ele>800.8</ele>
        <time>2025-09-20T08:19:55Z</time>
      </trkpt>
      <trkpt lat="46.20614" lon="4.62989">
        <ele>800.8</ele>
        <time>2025-09-20T08:19:56Z</time>
      </trkpt>
      <trkpt lat="46.20617" lon="4.62991">
        <ele>800.8</ele>
        <time>2025-09-20T08:19:57Z</time>
      </trkpt>
      <trkpt lat="46.20621" lon="4.62993">
        <ele>800.8</ele>
        <time>2025-09-20T08:19:58Z</time>
      </trkpt>
      <trkpt lat="46.20625" lon="4.62994">
        <ele>800.8</ele>
        <time>2025-09-20T08:19:59Z</time>
      </trkpt>
      <trkpt lat="46.20632" lon="4.62994">
        <ele>800.6</ele>
        <time>2025-09-20T08:20:00Z</time>
      </trkpt>
      <trkpt lat="46.20637" lon="4.62995">
        <ele>800.4</ele>
        <time>2025-09-20T08:20:01Z</time>
      </trkpt>
      <trkpt lat="46.20641" lon="4.62996">
        <ele>800.2</ele>
        <time>2025-09-20T08:20:02Z</time>
      </trkpt>
      <trkpt lat="46.20645" lon="4.62998">
        <ele>800.2</ele>
        <time>2025-09-20T08:20:03Z</time>
      </trkpt>
      <trkpt lat="46.2065" lon="4.62999">
        <ele>799.8</ele>
        <time>2025-09-20T08:20:04Z</time>
      </trkpt>
      <trkpt lat="46.20654" lon="4.63001">
        <ele>799.6</ele>
        <time>2025-09-20T08:20:05Z</time>
      </trkpt>
      <trkpt lat="46.20659" lon="4.63002">
        <ele>799.6</ele>
        <time>2025-09-20T08:20:06Z</time>
      </trkpt>
      <trkpt lat="46.20664" lon="4.63002">
        <ele>799.2</ele>
        <time>2025-09-20T08:20:07Z</time>
      </trkpt>
      <trkpt lat="46.20668" lon="4.63001">
        <ele>799</ele>
        <time>2025-09-20T08:20:08Z</time>
      </trkpt>
      <trkpt lat="46.20672" lon="4.63">
        <ele>798.4</ele>
        <time>2025-09-20T08:20:09Z</time>
      </trkpt>
      <trkpt lat="46.20675" lon="4.63">
        <ele>799</ele>
        <time>2025-09-20T08:20:10Z</time>
      </trkpt>
      <trkpt lat="46.20679" lon="4.62998">
        <ele>799</ele>
        <time>2025-09-20T08:20:11Z</time>
      </trkpt>
      <trkpt lat="46.20682" lon="4.62998">
        <ele>799.2</ele>
        <time>2025-09-20T08:20:12Z</time>
      </trkpt>
      <trkpt lat="46.20687" lon="4.62997">
        <ele>799.2</ele>
        <time>2025-09-20T08:20:13Z</time>
      </trkpt>
      <trkpt lat="46.20691" lon="4.62996">
        <ele>799.6</ele>
        <time>2025-09-20T08:20:14Z</time>
      </trkpt>
      <trkpt lat="46.20694" lon="4.62995">
        <ele>799.6</ele>
        <time>2025-09-20T08:20:15Z</time>
      </trkpt>
      <trkpt lat="46.20698" lon="4.62995">
        <ele>799.6</ele>
        <time>2025-09-20T08:20:16Z</time>
      </trkpt>
      <trkpt lat="46.20702" lon="4.62995">
        <ele>800</ele>
        <time>2025-09-20T08:20:17Z</time>
      </trkpt>
      <trkpt lat="46.20706" lon="4.62996">
        <ele>800</ele>
        <time>2025-09-20T08:20:18Z</time>
      </trkpt>
      <trkpt lat="46.2071" lon="4.62996">
        <ele>800.4</ele>
        <time>2025-09-20T08:20:19Z</time>
      </trkpt>
      <trkpt lat="46.20714" lon="4.62997">
        <ele>800.4</ele>
        <time>2025-09-20T08:20:20Z</time>
      </trkpt>
      <trkpt lat="46.20718" lon="4.62997">
        <ele>800.6</ele>
        <time>2025-09-20T08:20:21Z</time>
      </trkpt>
      <trkpt lat="46.20722" lon="4.62998">
        <ele>800.6</ele>
        <time>2025-09-20T08:20:22Z</time>
      </trkpt>
      <trkpt lat="46.20727" lon="4.62999">
        <ele>800.8</ele>
        <time>2025-09-20T08:20:23Z</time>
      </trkpt>
      <trkpt lat="46.20733" lon="4.63001">
        <ele>800.8</ele>
        <time>2025-09-20T08:20:24Z</time>
      </trkpt>
      <trkpt lat="46.20737" lon="4.63">
        <ele>800.8</ele>
        <time>2025-09-20T08:20:25Z</time>
      </trkpt>
      <trkpt lat="46.20742" lon="4.63">
        <ele>800.8</ele>
        <time>2025-09-20T08:20:26Z</time>
      </trkpt>
      <trkpt lat="46.20746" lon="4.62999">
        <ele>800.2</ele>
        <time>2025-09-20T08:20:27Z</time>
      </trkpt>
      <trkpt lat="46.20751" lon="4.63">
        <ele>800.2</ele>
        <time>2025-09-20T08:20:28Z</time>
      </trkpt>
      <trkpt lat="46.20754" lon="4.63001">
        <ele>800.8</ele>
        <time>2025-09-20T08:20:29Z</time>
      </trkpt>
      <trkpt lat="46.20758" lon="4.63">
        <ele>800.8</ele>
        <time>2025-09-20T08:20:30Z</time>
      </trkpt>
      <trkpt lat="46.20763" lon="4.63002">
        <ele>800.8</ele>
        <time>2025-09-20T08:20:31Z</time>
      </trkpt>
      <trkpt lat="46.20767" lon="4.63004">
        <ele>800.2</ele>
        <time>2025-09-20T08:20:32Z</time>
      </trkpt>
      <trkpt lat="46.20772" lon="4.63004">
        <ele>800.2</ele>
        <time>2025-09-20T08:20:33Z</time>
      </trkpt>
      <trkpt lat="46.20775" lon="4.63003">
        <ele>800.2</ele>
        <time>2025-09-20T08:20:34Z</time>
      </trkpt>
      <trkpt lat="46.20777" lon="4.63001">
        <ele>800.2</ele>
        <time>2025-09-20T08:20:35Z</time>
      </trkpt>
      <trkpt lat="46.2078" lon="4.62999">
        <ele>800.2</ele>
        <time>2025-09-20T08:20:36Z</time>
      </trkpt>
      <trkpt lat="46.20784" lon="4.62998">
        <ele>800.2</ele>
        <time>2025-09-20T08:20:37Z</time>
      </trkpt>
      <trkpt lat="46.20788" lon="4.62999">
        <ele>799.6</ele>
        <time>2025-09-20T08:20:38Z</time>
      </trkpt>
      <trkpt lat="46.20791" lon="4.62997">
        <ele>799.6</ele>
        <time>2025-09-20T08:20:39Z</time>
      </trkpt>
      <trkpt lat="46.20794" lon="4.62995">
        <ele>799.6</ele>
        <time>2025-09-20T08:20:40Z</time>
      </trkpt>
      <trkpt lat="46.20794" lon="4.62994">
        <ele>799.6</ele>
        <time>2025-09-20T08:20:41Z</time>
      </trkpt>
      <trkpt lat="46.20796" lon="4.62993">
        <ele>799.4</ele>
        <time>2025-09-20T08:20:42Z</time>
      </trkpt>
      <trkpt lat="46.20797" lon="4.62992">
        <ele>799.4</ele>
        <time>2025-09-20T08:20:43Z</time>
      </trkpt>
      <trkpt lat="46.20799" lon="4.62993">
        <ele>799.2</ele>
        <time>2025-09-20T08:20:44Z</time>
      </trkpt>
      <trkpt lat="46.20799" lon="4.62993">
        <ele>799.2</ele>
        <time>2025-09-20T08:20:45Z</time>
      </trkpt>
      <trkpt lat="46.20799" lon="4.62993">
        <ele>799.2</ele>
        <time>2025-09-20T08:20:46Z</time>
      </trkpt>
      <trkpt lat="46.20799" lon="4.62993">
        <ele>799.2</ele>
        <time>2025-09-20T08:20:47Z</time>
      </trkpt>
      <trkpt lat="46.20802" lon="4.62989">
        <ele>798.6</ele>
        <time>2025-09-20T08:20:52Z</time>
      </trkpt>
      <trkpt lat="46.20805" lon="4.62988">
        <ele>798.6</ele>
        <time>2025-09-20T08:20:53Z</time>
      </trkpt>
      <trkpt lat="46.20809" lon="4.62987">
        <ele>798.2</ele>
        <time>2025-09-20T08:20:54Z</time>
      </trkpt>
      <trkpt lat="46.20814" lon="4.62988">
        <ele>797.8</ele>
        <time>2025-09-20T08:20:55Z</time>
      </trkpt>
      <trkpt lat="46.2082" lon="4.62989">
        <ele>797.2</ele>
        <time>2025-09-20T08:20:56Z</time>
      </trkpt>
      <trkpt lat="46.20825" lon="4.62989">
        <ele>796.6</ele>
        <time>2025-09-20T08:20:57Z</time>
      </trkpt>
      <trkpt lat="46.2083" lon="4.62988">
        <ele>796.6</ele>
        <time>2025-09-20T08:20:58Z</time>
      </trkpt>
      <trkpt lat="46.20835" lon="4.62988">
        <ele>796.2</ele>
        <time>2025-09-20T08:20:59Z</time>
      </trkpt>
      <trkpt lat="46.20841" lon="4.62988">
        <ele>796.2</ele>
        <time>2025-09-20T08:21:00Z</time>
      </trkpt>
      <trkpt lat="46.20847" lon="4.62987">
        <ele>796</ele>
        <time>2025-09-20T08:21:01Z</time>
      </trkpt>
      <trkpt lat="46.20853" lon="4.62987">
        <ele>795.6</ele>
        <time>2025-09-20T08:21:02Z</time>
      </trkpt>
      <trkpt lat="46.20859" lon="4.62987">
        <ele>796.8</ele>
        <time>2025-09-20T08:21:03Z</time>
      </trkpt>
      <trkpt lat="46.20865" lon="4.62987">
        <ele>795.8</ele>
        <time>2025-09-20T08:21:04Z</time>
      </trkpt>
      <trkpt lat="46.20871" lon="4.62989">
        <ele>794.8</ele>
        <time>2025-09-20T08:21:05Z</time>
      </trkpt>
      <trkpt lat="46.20877" lon="4.6299">
        <ele>793.2</ele>
        <time>2025-09-20T08:21:06Z</time>
      </trkpt>
      <trkpt lat="46.20884" lon="4.62991">
        <ele>792.4</ele>
        <time>2025-09-20T08:21:07Z</time>
      </trkpt>
      <trkpt lat="46.20888" lon="4.62993">
        <ele>791.8</ele>
        <time>2025-09-20T08:21:08Z</time>
      </trkpt>
      <trkpt lat="46.20893" lon="4.62992">
        <ele>791.4</ele>
        <time>2025-09-20T08:21:09Z</time>
      </trkpt>
      <trkpt lat="46.20899" lon="4.62993">
        <ele>790.8</ele>
        <time>2025-09-20T08:21:10Z</time>
      </trkpt>
      <trkpt lat="46.20904" lon="4.62992">
        <ele>790.8</ele>
        <time>2025-09-20T08:21:11Z</time>
      </trkpt>
      <trkpt lat="46.2091" lon="4.62992">
        <ele>791</ele>
        <time>2025-09-20T08:21:12Z</time>
      </trkpt>
      <trkpt lat="46.20915" lon="4.62994">
        <ele>791</ele>
        <time>2025-09-20T08:21:13Z</time>
      </trkpt>
      <trkpt lat="46.20918" lon="4.62992">
        <ele>791</ele>
        <time>2025-09-20T08:21:14Z</time>
      </trkpt>
      <trkpt lat="46.20922" lon="4.62991">
        <ele>791.4</ele>
        <time>2025-09-20T08:21:15Z</time>
      </trkpt>
      <trkpt lat="46.20927" lon="4.62991">
        <ele>791.2</ele>
        <time>2025-09-20T08:21:16Z</time>
      </trkpt>
      <trkpt lat="46.20931" lon="4.62992">
        <ele>790.4</ele>
        <time>2025-09-20T08:21:17Z</time>
      </trkpt>
      <trkpt lat="46.20934" lon="4.62991">
        <ele>790</ele>
        <time>2025-09-20T08:21:18Z</time>
      </trkpt>
      <trkpt lat="46.20937" lon="4.6299">
        <ele>790</ele>
        <time>2025-09-20T08:21:19Z</time>
      </trkpt>
      <trkpt lat="46.20941" lon="4.62989">
        <ele>789.6</ele>
        <time>2025-09-20T08:21:20Z</time>
      </trkpt>
      <trkpt lat="46.20944" lon="4.62988">
        <ele>789.2</ele>
        <time>2025-09-20T08:21:21Z</time>
      </trkpt>
      <trkpt lat="46.20947" lon="4.62988">
        <ele>789.2</ele>
        <time>2025-09-20T08:21:22Z</time>
      </trkpt>
      <trkpt lat="46.2095" lon="4.62988">
        <ele>788.6</ele>
        <time>2025-09-20T08:21:23Z</time>
      </trkpt>
      <trkpt lat="46.20953" lon="4.62988">
        <ele>788.6</ele>
        <time>2025-09-20T08:21:24Z</time>
      </trkpt>
      <trkpt lat="46.20956" lon="4.62986">
        <ele>788.2</ele>
        <time>2025-09-20T08:21:25Z</time>
      </trkpt>
      <trkpt lat="46.2096" lon="4.62986">
        <ele>788.2</ele>
        <time>2025-09-20T08:21:26Z</time>
      </trkpt>
      <trkpt lat="46.20963" lon="4.62987">
        <ele>787.4</ele>
        <time>2025-09-20T08:21:27Z</time>
      </trkpt>
      <trkpt lat="46.20966" lon="4.62988">
        <ele>786.8</ele>
        <time>2025-09-20T08:21:28Z</time>
      </trkpt>
      <trkpt lat="46.20969" lon="4.62989">
        <ele>786.2</ele>
        <time>2025-09-20T08:21:29Z</time>
      </trkpt>
      <trkpt lat="46.20972" lon="4.6299">
        <ele>785.8</ele>
        <time>2025-09-20T08:21:30Z</time>
      </trkpt>
      <trkpt lat="46.20972" lon="4.6299">
        <ele>785.8</ele>
        <time>2025-09-20T08:21:31Z</time>
      </trkpt>
      <trkpt lat="46.20974" lon="4.62991">
        <ele>785.2</ele>
        <time>2025-09-20T08:21:32Z</time>
      </trkpt>
      <trkpt lat="46.20977" lon="4.62991">
        <ele>784.6</ele>
        <time>2025-09-20T08:21:33Z</time>
      </trkpt>
      <trkpt lat="46.20978" lon="4.62992">
        <ele>784.6</ele>
        <time>2025-09-20T08:21:34Z</time>
      </trkpt>
      <trkpt lat="46.20981" lon="4.62992">
        <ele>784.6</ele>
        <time>2025-09-20T08:21:35Z</time>
      </trkpt>
      <trkpt lat="46.20984" lon="4.62992">
        <ele>783</ele>
        <time>2025-09-20T08:21:36Z</time>
      </trkpt>
      <trkpt lat="46.20987" lon="4.62993">
        <ele>782</ele>
        <time>2025-09-20T08:21:37Z</time>
      </trkpt>
      <trkpt lat="46.20989" lon="4.62994">
        <ele>782</ele>
        <time>2025-09-20T08:21:38Z</time>
      </trkpt>
      <trkpt lat="46.20993" lon="4.62997">
        <ele>781.6</ele>
        <time>2025-09-20T08:21:39Z</time>
      </trkpt>
      <trkpt lat="46.20996" lon="4.62999">
        <ele>781.6</ele>
        <time>2025-09-20T08:21:40Z</time>
      </trkpt>
      <trkpt lat="46.20999" lon="4.63002">
        <ele>781.6</ele>
        <time>2025-09-20T08:21:41Z</time>
      </trkpt>
      <trkpt lat="46.21003" lon="4.63005">
        <ele>781</ele>
        <time>2025-09-20T08:21:42Z</time>
      </trkpt>
      <trkpt lat="46.21006" lon="4.63008">
        <ele>780.4</ele>
        <time>2025-09-20T08:21:43Z</time>
      </trkpt>
      <trkpt lat="46.2101" lon="4.6301">
        <ele>779</ele>
        <time>2025-09-20T08:21:44Z</time>
      </trkpt>
      <trkpt lat="46.21014" lon="4.63009">
        <ele>779</ele>
        <time>2025-09-20T08:21:45Z</time>
      </trkpt>
      <trkpt lat="46.21018" lon="4.6301">
        <ele>779.2</ele>
        <time>2025-09-20T08:21:46Z</time>
      </trkpt>
      <trkpt lat="46.21022" lon="4.63008">
        <ele>779.2</ele>
        <time>2025-09-20T08:21:47Z</time>
      </trkpt>
      <trkpt lat="46.21023" lon="4.63006">
        <ele>779.2</ele>
        <time>2025-09-20T08:21:48Z</time>
      </trkpt>
      <trkpt lat="46.21027" lon="4.63003">
        <ele>779.2</ele>
        <time>2025-09-20T08:21:49Z</time>
      </trkpt>
      <trkpt lat="46.2103" lon="4.63">
        <ele>779.4</ele>
        <time>2025-09-20T08:21:50Z</time>
      </trkpt>
      <trkpt lat="46.21033" lon="4.62996">
        <ele>779.4</ele>
        <time>2025-09-20T08:21:51Z</time>
      </trkpt>
      <trkpt lat="46.21038" lon="4.62994">
        <ele>779.2</ele>
        <time>2025-09-20T08:21:52Z</time>
      </trkpt>
      <trkpt lat="46.21041" lon="4.6299">
        <ele>779.2</ele>
        <time>2025-09-20T08:21:53Z</time>
      </trkpt>
      <trkpt lat="46.21042" lon="4.62986">
        <ele>779.2</ele>
        <time>2025-09-20T08:21:54Z</time>
      </trkpt>
      <trkpt lat="46.21045" lon="4.62982">
        <ele>779.2</ele>
        <time>2025-09-20T08:21:55Z</time>
      </trkpt>
      <trkpt lat="46.21047" lon="4.62978">
        <ele>778.4</ele>
        <time>2025-09-20T08:21:56Z</time>
      </trkpt>
      <trkpt lat="46.21049" lon="4.62975">
        <ele>778.2</ele>
        <time>2025-09-20T08:21:57Z</time>
      </trkpt>
      <trkpt lat="46.21051" lon="4.62972">
        <ele>778</ele>
        <time>2025-09-20T08:21:58Z</time>
      </trkpt>
      <trkpt lat="46.21054" lon="4.62968">
        <ele>778</ele>
        <time>2025-09-20T08:21:59Z</time>
      </trkpt>
      <trkpt lat="46.21057" lon="4.62965">
        <ele>777.6</ele>
        <time>2025-09-20T08:22:00Z</time>
      </trkpt>
      <trkpt lat="46.2106" lon="4.62962">
        <ele>777.2</ele>
        <time>2025-09-20T08:22:01Z</time>
      </trkpt>
      <trkpt lat="46.21063" lon="4.62958">
        <ele>777.6</ele>
        <time>2025-09-20T08:22:02Z</time>
      </trkpt>
      <trkpt lat="46.21066" lon="4.62954">
        <ele>777</ele>
        <time>2025-09-20T08:22:03Z</time>
      </trkpt>
      <trkpt lat="46.21069" lon="4.62951">
        <ele>777</ele>
        <time>2025-09-20T08:22:04Z</time>
      </trkpt>
      <trkpt lat="46.21072" lon="4.62947">
        <ele>776.4</ele>
        <time>2025-09-20T08:22:05Z</time>
      </trkpt>
      <trkpt lat="46.21075" lon="4.62943">
        <ele>776</ele>
        <time>2025-09-20T08:22:06Z</time>
      </trkpt>
      <trkpt lat="46.21078" lon="4.62938">
        <ele>775.8</ele>
        <time>2025-09-20T08:22:07Z</time>
      </trkpt>
      <trkpt lat="46.2108" lon="4.62934">
        <ele>775.2</ele>
        <time>2025-09-20T08:22:08Z</time>
      </trkpt>
      <trkpt lat="46.21084" lon="4.62929">
        <ele>774.6</ele>
        <time>2025-09-20T08:22:09Z</time>
      </trkpt>
      <trkpt lat="46.21087" lon="4.62925">
        <ele>774.4</ele>
        <time>2025-09-20T08:22:10Z</time>
      </trkpt>
      <trkpt lat="46.21089" lon="4.62921">
        <ele>773.8</ele>
        <time>2025-09-20T08:22:11Z</time>
      </trkpt>
      <trkpt lat="46.21092" lon="4.62919">
        <ele>773</ele>
        <time>2025-09-20T08:22:12Z</time>
      </trkpt>
      <trkpt lat="46.21096" lon="4.62914">
        <ele>773</ele>
        <time>2025-09-20T08:22:13Z</time>
      </trkpt>
      <trkpt lat="46.21099" lon="4.62911">
        <ele>771.8</ele>
        <time>2025-09-20T08:22:14Z</time>
      </trkpt>
      <trkpt lat="46.21102" lon="4.62907">
        <ele>771.2</ele>
        <time>2025-09-20T08:22:15Z</time>
      </trkpt>
      <trkpt lat="46.21105" lon="4.62902">
        <ele>771.2</ele>
        <time>2025-09-20T08:22:16Z</time>
      </trkpt>
      <trkpt lat="46.21108" lon="4.62898">
        <ele>770.8</ele>
        <time>2025-09-20T08:22:17Z</time>
      </trkpt>
      <trkpt lat="46.21112" lon="4.62893">
        <ele>770.4</ele>
        <time>2025-09-20T08:22:18Z</time>
      </trkpt>
      <trkpt lat="46.21116" lon="4.62889">
        <ele>769.8</ele>
        <time>2025-09-20T08:22:19Z</time>
      </trkpt>
      <trkpt lat="46.21119" lon="4.62885">
        <ele>769.8</ele>
        <time>2025-09-20T08:22:20Z</time>
      </trkpt>
      <trkpt lat="46.21124" lon="4.62883">
        <ele>769.8</ele>
        <time>2025-09-20T08:22:21Z</time>
      </trkpt>
      <trkpt lat="46.21126" lon="4.62882">
        <ele>769.8</ele>
        <time>2025-09-20T08:22:22Z</time>
      </trkpt>
      <trkpt lat="46.21129" lon="4.62881">
        <ele>769.4</ele>
        <time>2025-09-20T08:22:23Z</time>
      </trkpt>
      <trkpt lat="46.2113" lon="4.62879">
        <ele>769.4</ele>
        <time>2025-09-20T08:22:24Z</time>
      </trkpt>
      <trkpt lat="46.21132" lon="4.62876">
        <ele>769.4</ele>
        <time>2025-09-20T08:22:25Z</time>
      </trkpt>
      <trkpt lat="46.21133" lon="4.62875">
        <ele>769.4</ele>
        <time>2025-09-20T08:22:26Z</time>
      </trkpt>
      <trkpt lat="46.21132" lon="4.62871">
        <ele>769.4</ele>
        <time>2025-09-20T08:22:27Z</time>
      </trkpt>
      <trkpt lat="46.2113" lon="4.62867">
        <ele>769.4</ele>
        <time>2025-09-20T08:22:28Z</time>
      </trkpt>
      <trkpt lat="46.21129" lon="4.62864">
        <ele>769.4</ele>
        <time>2025-09-20T08:22:29Z</time>
      </trkpt>
      <trkpt lat="46.21127" lon="4.62864">
        <ele>769.6</ele>
        <time>2025-09-20T08:22:30Z</time>
      </trkpt>
      <trkpt lat="46.21126" lon="4.62867">
        <ele>769.6</ele>
        <time>2025-09-20T08:22:31Z</time>
      </trkpt>
      <trkpt lat="46.21126" lon="4.62871">
        <ele>769.6</ele>
        <time>2025-09-20T08:22:32Z</time>
      </trkpt>
      <trkpt lat="46.21127" lon="4.62873">
        <ele>769.6</ele>
        <time>2025-09-20T08:22:33Z</time>
      </trkpt>
      <trkpt lat="46.21128" lon="4.62876">
        <ele>769.6</ele>
        <time>2025-09-20T08:22:34Z</time>
      </trkpt>
      <trkpt lat="46.21129" lon="4.62879">
        <ele>770</ele>
        <time>2025-09-20T08:22:35Z</time>
      </trkpt>
      <trkpt lat="46.21131" lon="4.62881">
        <ele>770</ele>
        <time>2025-09-20T08:22:36Z</time>
      </trkpt>
      <trkpt lat="46.21132" lon="4.62883">
        <ele>770</ele>
        <time>2025-09-20T08:22:37Z</time>
      </trkpt>
      <trkpt lat="46.21134" lon="4.62884">
        <ele>770</ele>
        <time>2025-09-20T08:22:38Z</time>
      </trkpt>
      <trkpt lat="46.21135" lon="4.62883">
        <ele>769.6</ele>
        <time>2025-09-20T08:22:39Z</time>
      </trkpt>
      <trkpt lat="46.21137" lon="4.62881">
        <ele>769.6</ele>
        <time>2025-09-20T08:22:40Z</time>
      </trkpt>
      <trkpt lat="46.21138" lon="4.62877">
        <ele>769.6</ele>
        <time>2025-09-20T08:22:41Z</time>
      </trkpt>
      <trkpt lat="46.21139" lon="4.62874">
        <ele>769.6</ele>
        <time>2025-09-20T08:22:42Z</time>
      </trkpt>
      <trkpt lat="46.21139" lon="4.62871">
        <ele>769.6</ele>
        <time>2025-09-20T08:22:43Z</time>
      </trkpt>
      <trkpt lat="46.21139" lon="4.62868">
        <ele>769.8</ele>
        <time>2025-09-20T08:22:44Z</time>
      </trkpt>
      <trkpt lat="46.21139" lon="4.62865">
        <ele>769.4</ele>
        <time>2025-09-20T08:22:45Z</time>
      </trkpt>
      <trkpt lat="46.21138" lon="4.62862">
        <ele>769.4</ele>
        <time>2025-09-20T08:22:46Z</time>
      </trkpt>
      <trkpt lat="46.21138" lon="4.6286">
        <ele>769.4</ele>
        <time>2025-09-20T08:22:47Z</time>
      </trkpt>
      <trkpt lat="46.21137" lon="4.62858">
        <ele>769.2</ele>
        <time>2025-09-20T08:22:48Z</time>
      </trkpt>
      <trkpt lat="46.21137" lon="4.62855">
        <ele>769.2</ele>
        <time>2025-09-20T08:22:49Z</time>
      </trkpt>
      <trkpt lat="46.21137" lon="4.62854">
        <ele>769.2</ele>
        <time>2025-09-20T08:22:50Z</time>
      </trkpt>
      <trkpt lat="46.21138" lon="4.62854">
        <ele>769.2</ele>
        <time>2025-09-20T08:22:51Z</time>
      </trkpt>
      <trkpt lat="46.21137" lon="4.62851">
        <ele>769.4</ele>
        <time>2025-09-20T08:23:30Z</time>
      </trkpt>
      <trkpt lat="46.21138" lon="4.62847">
        <ele>769.2</ele>
        <time>2025-09-20T08:23:31Z</time>
      </trkpt>
      <trkpt lat="46.21139" lon="4.62843">
        <ele>769.2</ele>
        <time>2025-09-20T08:23:32Z</time>
      </trkpt>
      <trkpt lat="46.21139" lon="4.62839">
        <ele>769.2</ele>
        <time>2025-09-20T08:23:33Z</time>
      </trkpt>
      <trkpt lat="46.21139" lon="4.62834">
        <ele>769</ele>
        <time>2025-09-20T08:23:34Z</time>
      </trkpt>
      <trkpt lat="46.2114" lon="4.62828">
        <ele>769</ele>
        <time>2025-09-20T08:23:35Z</time>
      </trkpt>
      <trkpt lat="46.21141" lon="4.62823">
        <ele>769</ele>
        <time>2025-09-20T08:23:36Z</time>
      </trkpt>
      <trkpt lat="46.21142" lon="4.62818">
        <ele>768.6</ele>
        <time>2025-09-20T08:23:37Z</time>
      </trkpt>
      <trkpt lat="46.21142" lon="4.62813">
        <ele>768.6</ele>
        <time>2025-09-20T08:23:38Z</time>
      </trkpt>
      <trkpt lat="46.21143" lon="4.62808">
        <ele>768.2</ele>
        <time>2025-09-20T08:23:39Z</time>
      </trkpt>
      <trkpt lat="46.21143" lon="4.62803">
        <ele>768.2</ele>
        <time>2025-09-20T08:23:40Z</time>
      </trkpt>
      <trkpt lat="46.21143" lon="4.62799">
        <ele>768.2</ele>
        <time>2025-09-20T08:23:41Z</time>
      </trkpt>
      <trkpt lat="46.21144" lon="4.62795">
        <ele>769</ele>
        <time>2025-09-20T08:23:42Z</time>
      </trkpt>
      <trkpt lat="46.21146" lon="4.6279">
        <ele>769</ele>
        <time>2025-09-20T08:23:43Z</time>
      </trkpt>
      <trkpt lat="46.21148" lon="4.62787">
        <ele>769.4</ele>
        <time>2025-09-20T08:23:44Z</time>
      </trkpt>
      <trkpt lat="46.21151" lon="4.62785">
        <ele>769.4</ele>
        <time>2025-09-20T08:23:45Z</time>
      </trkpt>
      <trkpt lat="46.21154" lon="4.62783">
        <ele>768.8</ele>
        <time>2025-09-20T08:23:46Z</time>
      </trkpt>
      <trkpt lat="46.21157" lon="4.62783">
        <ele>768.8</ele>
        <time>2025-09-20T08:23:47Z</time>
      </trkpt>
      <trkpt lat="46.21159" lon="4.62781">
        <ele>768.8</ele>
        <time>2025-09-20T08:23:48Z</time>
      </trkpt>
      <trkpt lat="46.21162" lon="4.6278">
        <ele>768.8</ele>
        <time>2025-09-20T08:23:49Z</time>
      </trkpt>
      <trkpt lat="46.21164" lon="4.62779">
        <ele>769</ele>
        <time>2025-09-20T08:23:50Z</time>
      </trkpt>
      <trkpt lat="46.21167" lon="4.62778">
        <ele>769.2</ele>
        <time>2025-09-20T08:23:51Z</time>
      </trkpt>
      <trkpt lat="46.2117" lon="4.62777">
        <ele>769.8</ele>
        <time>2025-09-20T08:23:52Z</time>
      </trkpt>
      <trkpt lat="46.21173" lon="4.62776">
        <ele>769.8</ele>
        <time>2025-09-20T08:23:53Z</time>
      </trkpt>
      <trkpt lat="46.21176" lon="4.62775">
        <ele>769.8</ele>
        <time>2025-09-20T08:23:54Z</time>
      </trkpt>
      <trkpt lat="46.21179" lon="4.62775">
        <ele>769.8</ele>
        <time>2025-09-20T08:23:55Z</time>
      </trkpt>
      <trkpt lat="46.21182" lon="4.62774">
        <ele>770.4</ele>
        <time>2025-09-20T08:23:56Z</time>
      </trkpt>
      <trkpt lat="46.21185" lon="4.62773">
        <ele>770.4</ele>
        <time>2025-09-20T08:23:57Z</time>
      </trkpt>
      <trkpt lat="46.21188" lon="4.62772">
        <ele>770.6</ele>
        <time>2025-09-20T08:23:58Z</time>
      </trkpt>
      <trkpt lat="46.21191" lon="4.62771">
        <ele>771</ele>
        <time>2025-09-20T08:23:59Z</time>
      </trkpt>
      <trkpt lat="46.21194" lon="4.62771">
        <ele>771</ele>
        <time>2025-09-20T08:24:00Z</time>
      </trkpt>
      <trkpt lat="46.21197" lon="4.62771">
        <ele>771.4</ele>
        <time>2025-09-20T08:24:01Z</time>
      </trkpt>
      <trkpt lat="46.212" lon="4.6277">
        <ele>771.4</ele>
        <time>2025-09-20T08:24:02Z</time>
      </trkpt>
      <trkpt lat="46.21204" lon="4.6277">
        <ele>771.4</ele>
        <time>2025-09-20T08:24:03Z</time>
      </trkpt>
      <trkpt lat="46.21207" lon="4.62769">
        <ele>771.4</ele>
        <time>2025-09-20T08:24:04Z</time>
      </trkpt>
      <trkpt lat="46.21211" lon="4.62767">
        <ele>771.6</ele>
        <time>2025-09-20T08:24:05Z</time>
      </trkpt>
      <trkpt lat="46.21214" lon="4.62766">
        <ele>772.6</ele>
        <time>2025-09-20T08:24:06Z</time>
      </trkpt>
      <trkpt lat="46.21217" lon="4.62764">
        <ele>772.2</ele>
        <time>2025-09-20T08:24:07Z</time>
      </trkpt>
      <trkpt lat="46.21221" lon="4.62763">
        <ele>772.4</ele>
        <time>2025-09-20T08:24:08Z</time>
      </trkpt>
      <trkpt lat="46.21224" lon="4.62761">
        <ele>772.6</ele>
        <time>2025-09-20T08:24:09Z</time>
      </trkpt>
      <trkpt lat="46.21227" lon="4.62758">
        <ele>772.6</ele>
        <time>2025-09-20T08:24:10Z</time>
      </trkpt>
      <trkpt lat="46.2123" lon="4.62756">
        <ele>772.6</ele>
        <time>2025-09-20T08:24:11Z</time>
      </trkpt>
      <trkpt lat="46.2123" lon="4.62756">
        <ele>772.6</ele>
        <time>2025-09-20T08:24:12Z</time>
      </trkpt>
      <trkpt lat="46.2123" lon="4.62756">
        <ele>773</ele>
        <time>2025-09-20T08:24:13Z</time>
      </trkpt>
      <trkpt lat="46.21246" lon="4.62744">
        <ele>773.6</ele>
        <time>2025-09-20T08:24:15Z</time>
      </trkpt>
      <trkpt lat="46.21249" lon="4.62742">
        <ele>773.8</ele>
        <time>2025-09-20T08:24:16Z</time>
      </trkpt>
      <trkpt lat="46.21251" lon="4.62741">
        <ele>774</ele>
        <time>2025-09-20T08:24:17Z</time>
      </trkpt>
      <trkpt lat="46.21254" lon="4.62739">
        <ele>774</ele>
        <time>2025-09-20T08:24:18Z</time>
      </trkpt>
      <trkpt lat="46.21256" lon="4.62737">
        <ele>774.2</ele>
        <time>2025-09-20T08:24:19Z</time>
      </trkpt>
      <trkpt lat="46.21257" lon="4.62736">
        <ele>774.2</ele>
        <time>2025-09-20T08:24:20Z</time>
      </trkpt>
      <trkpt lat="46.21259" lon="4.62734">
        <ele>774.8</ele>
        <time>2025-09-20T08:24:21Z</time>
      </trkpt>
      <trkpt lat="46.21262" lon="4.62733">
        <ele>775.2</ele>
        <time>2025-09-20T08:24:22Z</time>
      </trkpt>
      <trkpt lat="46.21263" lon="4.62732">
        <ele>775.2</ele>
        <time>2025-09-20T08:24:23Z</time>
      </trkpt>
      <trkpt lat="46.21265" lon="4.6273">
        <ele>775.8</ele>
        <time>2025-09-20T08:24:24Z</time>
      </trkpt>
      <trkpt lat="46.21267" lon="4.62728">
        <ele>775.8</ele>
        <time>2025-09-20T08:24:25Z</time>
      </trkpt>
      <trkpt lat="46.21269" lon="4.62726">
        <ele>776</ele>
        <time>2025-09-20T08:24:26Z</time>
      </trkpt>
      <trkpt lat="46.21272" lon="4.62726">
        <ele>776</ele>
        <time>2025-09-20T08:24:27Z</time>
      </trkpt>
      <trkpt lat="46.21274" lon="4.62725">
        <ele>776.2</ele>
        <time>2025-09-20T08:24:28Z</time>
      </trkpt>
      <trkpt lat="46.21277" lon="4.62725">
        <ele>776.8</ele>
        <time>2025-09-20T08:24:29Z</time>
      </trkpt>
      <trkpt lat="46.21279" lon="4.62725">
        <ele>776.8</ele>
        <time>2025-09-20T08:24:30Z</time>
      </trkpt>
      <trkpt lat="46.21281" lon="4.62725">
        <ele>777</ele>
        <time>2025-09-20T08:24:31Z</time>
      </trkpt>
      <trkpt lat="46.21283" lon="4.62724">
        <ele>777.4</ele>
        <time>2025-09-20T08:24:32Z</time>
      </trkpt>
      <trkpt lat="46.21285" lon="4.62723">
        <ele>777.6</ele>
        <time>2025-09-20T08:24:33Z</time>
      </trkpt>
      <trkpt lat="46.21287" lon="4.62721">
        <ele>778</ele>
        <time>2025-09-20T08:24:34Z</time>
      </trkpt>
      <trkpt lat="46.21288" lon="4.62719">
        <ele>778</ele>
        <time>2025-09-20T08:24:35Z</time>
      </trkpt>
      <trkpt lat="46.2129" lon="4.62716">
        <ele>778.2</ele>
        <time>2025-09-20T08:24:36Z</time>
      </trkpt>
      <trkpt lat="46.21292" lon="4.62714">
        <ele>778.4</ele>
        <time>2025-09-20T08:24:37Z</time>
      </trkpt>
      <trkpt lat="46.21294" lon="4.62713">
        <ele>778.4</ele>
        <time>2025-09-20T08:24:38Z</time>
      </trkpt>
      <trkpt lat="46.21297" lon="4.62713">
        <ele>778.8</ele>
        <time>2025-09-20T08:24:39Z</time>
      </trkpt>
      <trkpt lat="46.21301" lon="4.62713">
        <ele>778.8</ele>
        <time>2025-09-20T08:24:40Z</time>
      </trkpt>
      <trkpt lat="46.21303" lon="4.62713">
        <ele>779.4</ele>
        <time>2025-09-20T08:24:41Z</time>
      </trkpt>
      <trkpt lat="46.21306" lon="4.62713">
        <ele>779.4</ele>
        <time>2025-09-20T08:24:42Z</time>
      </trkpt>
      <trkpt lat="46.21309" lon="4.62712">
        <ele>779.4</ele>
        <time>2025-09-20T08:24:43Z</time>
      </trkpt>
      <trkpt lat="46.21312" lon="4.62712">
        <ele>779.4</ele>
        <time>2025-09-20T08:24:44Z</time>
      </trkpt>
      <trkpt lat="46.21315" lon="4.62711">
        <ele>779.6</ele>
        <time>2025-09-20T08:24:45Z</time>
      </trkpt>
      <trkpt lat="46.21318" lon="4.62711">
        <ele>779.6</ele>
        <time>2025-09-20T08:24:46Z</time>
      </trkpt>
      <trkpt lat="46.21322" lon="4.6271">
        <ele>779.8</ele>
        <time>2025-09-20T08:24:47Z</time>
      </trkpt>
      <trkpt lat="46.21325" lon="4.62709">
        <ele>779.8</ele>
        <time>2025-09-20T08:24:48Z</time>
      </trkpt>
      <trkpt lat="46.21328" lon="4.62708">
        <ele>780</ele>
        <time>2025-09-20T08:24:49Z</time>
      </trkpt>
      <trkpt lat="46.21331" lon="4.62707">
        <ele>780.4</ele>
        <time>2025-09-20T08:24:50Z</time>
      </trkpt>
      <trkpt lat="46.21334" lon="4.62706">
        <ele>780.4</ele>
        <time>2025-09-20T08:24:51Z</time>
      </trkpt>
      <trkpt lat="46.21337" lon="4.62705">
        <ele>780.4</ele>
        <time>2025-09-20T08:24:52Z</time>
      </trkpt>
      <trkpt lat="46.21339" lon="4.62703">
        <ele>780.4</ele>
        <time>2025-09-20T08:24:53Z</time>
      </trkpt>
      <trkpt lat="46.21341" lon="4.62701">
        <ele>780.2</ele>
        <time>2025-09-20T08:24:54Z</time>
      </trkpt>
      <trkpt lat="46.21344" lon="4.62699">
        <ele>780.2</ele>
        <time>2025-09-20T08:24:55Z</time>
      </trkpt>
      <trkpt lat="46.21346" lon="4.62697">
        <ele>780.2</ele>
        <time>2025-09-20T08:24:56Z</time>
      </trkpt>
      <trkpt lat="46.21348" lon="4.62695">
        <ele>780.2</ele>
        <time>2025-09-20T08:24:57Z</time>
      </trkpt>
      <trkpt lat="46.21351" lon="4.62693">
        <ele>780.2</ele>
        <time>2025-09-20T08:24:58Z</time>
      </trkpt>
      <trkpt lat="46.21353" lon="4.62691">
        <ele>780.2</ele>
        <time>2025-09-20T08:24:59Z</time>
      </trkpt>
      <trkpt lat="46.21355" lon="4.62689">
        <ele>780.2</ele>
        <time>2025-09-20T08:25:00Z</time>
      </trkpt>
      <trkpt lat="46.21357" lon="4.62687">
        <ele>780.2</ele>
        <time>2025-09-20T08:25:01Z</time>
      </trkpt>
      <trkpt lat="46.21357" lon="4.62687">
        <ele>780.2</ele>
        <time>2025-09-20T08:25:02Z</time>
      </trkpt>
      <trkpt lat="46.21359" lon="4.62685">
        <ele>780.2</ele>
        <time>2025-09-20T08:25:03Z</time>
      </trkpt>
      <trkpt lat="46.21362" lon="4.62683">
        <ele>780.2</ele>
        <time>2025-09-20T08:25:04Z</time>
      </trkpt>
      <trkpt lat="46.21364" lon="4.62682">
        <ele>780.2</ele>
        <time>2025-09-20T08:25:05Z</time>
      </trkpt>
      <trkpt lat="46.21366" lon="4.62682">
        <ele>780</ele>
        <time>2025-09-20T08:25:06Z</time>
      </trkpt>
      <trkpt lat="46.21368" lon="4.62681">
        <ele>780</ele>
        <time>2025-09-20T08:25:07Z</time>
      </trkpt>
      <trkpt lat="46.21371" lon="4.62681">
        <ele>779.8</ele>
        <time>2025-09-20T08:25:08Z</time>
      </trkpt>
      <trkpt lat="46.21373" lon="4.62682">
        <ele>779.8</ele>
        <time>2025-09-20T08:25:09Z</time>
      </trkpt>
      <trkpt lat="46.21375" lon="4.62682">
        <ele>779.8</ele>
        <time>2025-09-20T08:25:10Z</time>
      </trkpt>
      <trkpt lat="46.21377" lon="4.62681">
        <ele>779.8</ele>
        <time>2025-09-20T08:25:11Z</time>
      </trkpt>
      <trkpt lat="46.2138" lon="4.62681">
        <ele>780</ele>
        <time>2025-09-20T08:25:12Z</time>
      </trkpt>
      <trkpt lat="46.21383" lon="4.6268">
        <ele>779.6</ele>
        <time>2025-09-20T08:25:13Z</time>
      </trkpt>
      <trkpt lat="46.21386" lon="4.6268">
        <ele>779.2</ele>
        <time>2025-09-20T08:25:14Z</time>
      </trkpt>
      <trkpt lat="46.21389" lon="4.62679">
        <ele>779.6</ele>
        <time>2025-09-20T08:25:15Z</time>
      </trkpt>
      <trkpt lat="46.21392" lon="4.62678">
        <ele>779.6</ele>
        <time>2025-09-20T08:25:16Z</time>
      </trkpt>
      <trkpt lat="46.21395" lon="4.62677">
        <ele>779.4</ele>
        <time>2025-09-20T08:25:17Z</time>
      </trkpt>
      <trkpt lat="46.21398" lon="4.62676">
        <ele>779</ele>
        <time>2025-09-20T08:25:18Z</time>
      </trkpt>
      <trkpt lat="46.21401" lon="4.62675">
        <ele>778.8</ele>
        <time>2025-09-20T08:25:19Z</time>
      </trkpt>
      <trkpt lat="46.21404" lon="4.62673">
        <ele>778.8</ele>
        <time>2025-09-20T08:25:20Z</time>
      </trkpt>
      <trkpt lat="46.21408" lon="4.62672">
        <ele>778.4</ele>
        <time>2025-09-20T08:25:21Z</time>
      </trkpt>
      <trkpt lat="46.21411" lon="4.62672">
        <ele>778.4</ele>
        <time>2025-09-20T08:25:22Z</time>
      </trkpt>
      <trkpt lat="46.21414" lon="4.62672">
        <ele>778.4</ele>
        <time>2025-09-20T08:25:23Z</time>
      </trkpt>
      <trkpt lat="46.21417" lon="4.62671">
        <ele>778.4</ele>
        <time>2025-09-20T08:25:24Z</time>
      </trkpt>
      <trkpt lat="46.2142" lon="4.6267">
        <ele>778.4</ele>
        <time>2025-09-20T08:25:25Z</time>
      </trkpt>
      <trkpt lat="46.21423" lon="4.62669">
        <ele>778.4</ele>
        <time>2025-09-20T08:25:26Z</time>
      </trkpt>
      <trkpt lat="46.21426" lon="4.62667">
        <ele>778.2</ele>
        <time>2025-09-20T08:25:27Z</time>
      </trkpt>
      <trkpt lat="46.21429" lon="4.62665">
        <ele>778.2</ele>
        <time>2025-09-20T08:25:28Z</time>
      </trkpt>
      <trkpt lat="46.21432" lon="4.62663">
        <ele>777.8</ele>
        <time>2025-09-20T08:25:29Z</time>
      </trkpt>
      <trkpt lat="46.21435" lon="4.62661">
        <ele>777.4</ele>
        <time>2025-09-20T08:25:30Z</time>
      </trkpt>
      <trkpt lat="46.21439" lon="4.62659">
        <ele>777.6</ele>
        <time>2025-09-20T08:25:31Z</time>
      </trkpt>
      <trkpt lat="46.21443" lon="4.62658">
        <ele>777.6</ele>
        <time>2025-09-20T08:25:32Z</time>
      </trkpt>
      <trkpt lat="46.21446" lon="4.62656">
        <ele>777.6</ele>
        <time>2025-09-20T08:25:33Z</time>
      </trkpt>
      <trkpt lat="46.21448" lon="4.62655">
        <ele>777.6</ele>
        <time>2025-09-20T08:25:34Z</time>
      </trkpt>
      <trkpt lat="46.2145" lon="4.62655">
        <ele>777.6</ele>
        <time>2025-09-20T08:25:35Z</time>
      </trkpt>
      <trkpt lat="46.2145" lon="4.62654">
        <ele>777.6</ele>
        <time>2025-09-20T08:25:36Z</time>
      </trkpt>
      <trkpt lat="46.2145" lon="4.62654">
        <ele>777.4</ele>
        <time>2025-09-20T08:25:37Z</time>
      </trkpt>
      <trkpt lat="46.2145" lon="4.62653">
        <ele>777.2</ele>
        <time>2025-09-20T08:25:43Z</time>
      </trkpt>
      <trkpt lat="46.21452" lon="4.62652">
        <ele>777.2</ele>
        <time>2025-09-20T08:25:44Z</time>
      </trkpt>
      <trkpt lat="46.21454" lon="4.6265">
        <ele>776.8</ele>
        <time>2025-09-20T08:25:45Z</time>
      </trkpt>
      <trkpt lat="46.21455" lon="4.62649">
        <ele>776.8</ele>
        <time>2025-09-20T08:25:46Z</time>
      </trkpt>
      <trkpt lat="46.21458" lon="4.62648">
        <ele>776.8</ele>
        <time>2025-09-20T08:25:47Z</time>
      </trkpt>
      <trkpt lat="46.2146" lon="4.62647">
        <ele>776.8</ele>
        <time>2025-09-20T08:25:48Z</time>
      </trkpt>
      <trkpt lat="46.21463" lon="4.62645">
        <ele>776.8</ele>
        <time>2025-09-20T08:25:49Z</time>
      </trkpt>
      <trkpt lat="46.21466" lon="4.62643">
        <ele>776.8</ele>
        <time>2025-09-20T08:25:50Z</time>
      </trkpt>
      <trkpt lat="46.21468" lon="4.6264">
        <ele>777.2</ele>
        <time>2025-09-20T08:25:51Z</time>
      </trkpt>
      <trkpt lat="46.21471" lon="4.62639">
        <ele>776.8</ele>
        <time>2025-09-20T08:25:52Z</time>
      </trkpt>
      <trkpt lat="46.21474" lon="4.62637">
        <ele>776.6</ele>
        <time>2025-09-20T08:25:53Z</time>
      </trkpt>
      <trkpt lat="46.21477" lon="4.62635">
        <ele>776.6</ele>
        <time>2025-09-20T08:25:54Z</time>
      </trkpt>
      <trkpt lat="46.21479" lon="4.62633">
        <ele>776.4</ele>
        <time>2025-09-20T08:25:55Z</time>
      </trkpt>
      <trkpt lat="46.21482" lon="4.62632">
        <ele>776.4</ele>
        <time>2025-09-20T08:25:56Z</time>
      </trkpt>
      <trkpt lat="46.21485" lon="4.62632">
        <ele>776.6</ele>
        <time>2025-09-20T08:25:57Z</time>
      </trkpt>
      <trkpt lat="46.21488" lon="4.62631">
        <ele>776.4</ele>
        <time>2025-09-20T08:25:58Z</time>
      </trkpt>
      <trkpt lat="46.2149" lon="4.6263">
        <ele>776.4</ele>
        <time>2025-09-20T08:25:59Z</time>
      </trkpt>
      <trkpt lat="46.21493" lon="4.62629">
        <ele>776.4</ele>
        <time>2025-09-20T08:26:00Z</time>
      </trkpt>
      <trkpt lat="46.21497" lon="4.62627">
        <ele>776.4</ele>
        <time>2025-09-20T08:26:01Z</time>
      </trkpt>
      <trkpt lat="46.21499" lon="4.62625">
        <ele>776.4</ele>
        <time>2025-09-20T08:26:02Z</time>
      </trkpt>
      <trkpt lat="46.21501" lon="4.62624">
        <ele>776.6</ele>
        <time>2025-09-20T08:26:03Z</time>
      </trkpt>
      <trkpt lat="46.21502" lon="4.62623">
        <ele>776.6</ele>
        <time>2025-09-20T08:26:04Z</time>
      </trkpt>
      <trkpt lat="46.21504" lon="4.62621">
        <ele>776.6</ele>
        <time>2025-09-20T08:26:05Z</time>
      </trkpt>
      <trkpt lat="46.21507" lon="4.62619">
        <ele>776.2</ele>
        <time>2025-09-20T08:26:06Z</time>
      </trkpt>
      <trkpt lat="46.21509" lon="4.62616">
        <ele>776.2</ele>
        <time>2025-09-20T08:26:07Z</time>
      </trkpt>
      <trkpt lat="46.21511" lon="4.62614">
        <ele>776.2</ele>
        <time>2025-09-20T08:26:08Z</time>
      </trkpt>
      <trkpt lat="46.21514" lon="4.62612">
        <ele>776.4</ele>
        <time>2025-09-20T08:26:09Z</time>
      </trkpt>
      <trkpt lat="46.21517" lon="4.62611">
        <ele>776.6</ele>
        <time>2025-09-20T08:26:10Z</time>
      </trkpt>
      <trkpt lat="46.21522" lon="4.62608">
        <ele>776.6</ele>
        <time>2025-09-20T08:26:11Z</time>
      </trkpt>
      <trkpt lat="46.21524" lon="4.62606">
        <ele>776.6</ele>
        <time>2025-09-20T08:26:12Z</time>
      </trkpt>
      <trkpt lat="46.21527" lon="4.62605">
        <ele>776.2</ele>
        <time>2025-09-20T08:26:13Z</time>
      </trkpt>
      <trkpt lat="46.21529" lon="4.62606">
        <ele>776</ele>
        <time>2025-09-20T08:26:14Z</time>
      </trkpt>
      <trkpt lat="46.21532" lon="4.62606">
        <ele>776</ele>
        <time>2025-09-20T08:26:15Z</time>
      </trkpt>
      <trkpt lat="46.21533" lon="4.62607">
        <ele>776</ele>
        <time>2025-09-20T08:26:16Z</time>
      </trkpt>
      <trkpt lat="46.21536" lon="4.62607">
        <ele>776</ele>
        <time>2025-09-20T08:26:17Z</time>
      </trkpt>
      <trkpt lat="46.21539" lon="4.62608">
        <ele>776</ele>
        <time>2025-09-20T08:26:18Z</time>
      </trkpt>
      <trkpt lat="46.21542" lon="4.62609">
        <ele>776</ele>
        <time>2025-09-20T08:26:19Z</time>
      </trkpt>
      <trkpt lat="46.21546" lon="4.62609">
        <ele>775.6</ele>
        <time>2025-09-20T08:26:20Z</time>
      </trkpt>
      <trkpt lat="46.21548" lon="4.6261">
        <ele>775.6</ele>
        <time>2025-09-20T08:26:21Z</time>
      </trkpt>
      <trkpt lat="46.21551" lon="4.62611">
        <ele>775.4</ele>
        <time>2025-09-20T08:26:22Z</time>
      </trkpt>
      <trkpt lat="46.21554" lon="4.62611">
        <ele>775.4</ele>
        <time>2025-09-20T08:26:23Z</time>
      </trkpt>
      <trkpt lat="46.21557" lon="4.62612">
        <ele>775.4</ele>
        <time>2025-09-20T08:26:24Z</time>
      </trkpt>
      <trkpt lat="46.2156" lon="4.62612">
        <ele>775.4</ele>
        <time>2025-09-20T08:26:25Z</time>
      </trkpt>
      <trkpt lat="46.21563" lon="4.62611">
        <ele>775</ele>
        <time>2025-09-20T08:26:26Z</time>
      </trkpt>
      <trkpt lat="46.21564" lon="4.62611">
        <ele>775</ele>
        <time>2025-09-20T08:26:27Z</time>
      </trkpt>
      <trkpt lat="46.21565" lon="4.62611">
        <ele>775</ele>
        <time>2025-09-20T08:26:28Z</time>
      </trkpt>
      <trkpt lat="46.21566" lon="4.62611">
        <ele>775.2</ele>
        <time>2025-09-20T08:26:29Z</time>
      </trkpt>
      <trkpt lat="46.21566" lon="4.62611">
        <ele>775.2</ele>
        <time>2025-09-20T08:26:30Z</time>
      </trkpt>
      <trkpt lat="46.21569" lon="4.6261">
        <ele>775.4</ele>
        <time>2025-09-20T08:27:27Z</time>
      </trkpt>
      <trkpt lat="46.21571" lon="4.62609">
        <ele>775.4</ele>
        <time>2025-09-20T08:27:28Z</time>
      </trkpt>
      <trkpt lat="46.21572" lon="4.62609">
        <ele>775</ele>
        <time>2025-09-20T08:27:29Z</time>
      </trkpt>
      <trkpt lat="46.21574" lon="4.62609">
        <ele>775</ele>
        <time>2025-09-20T08:27:30Z</time>
      </trkpt>
      <trkpt lat="46.21576" lon="4.62609">
        <ele>775</ele>
        <time>2025-09-20T08:27:31Z</time>
      </trkpt>
      <trkpt lat="46.2158" lon="4.62609">
        <ele>774.8</ele>
        <time>2025-09-20T08:27:32Z</time>
      </trkpt>
      <trkpt lat="46.21582" lon="4.62609">
        <ele>774.8</ele>
        <time>2025-09-20T08:27:33Z</time>
      </trkpt>
      <trkpt lat="46.21585" lon="4.6261">
        <ele>774.8</ele>
        <time>2025-09-20T08:27:34Z</time>
      </trkpt>
      <trkpt lat="46.21587" lon="4.6261">
        <ele>774.8</ele>
        <time>2025-09-20T08:27:35Z</time>
      </trkpt>
      <trkpt lat="46.2159" lon="4.6261">
        <ele>774.6</ele>
        <time>2025-09-20T08:27:36Z</time>
      </trkpt>
      <trkpt lat="46.21593" lon="4.6261">
        <ele>774.6</ele>
        <time>2025-09-20T08:27:37Z</time>
      </trkpt>
      <trkpt lat="46.21596" lon="4.6261">
        <ele>774.2</ele>
        <time>2025-09-20T08:27:38Z</time>
      </trkpt>
      <trkpt lat="46.21599" lon="4.62611">
        <ele>774.4</ele>
        <time>2025-09-20T08:27:39Z</time>
      </trkpt>
      <trkpt lat="46.21601" lon="4.62611">
        <ele>774.4</ele>
        <time>2025-09-20T08:27:40Z</time>
      </trkpt>
      <trkpt lat="46.21602" lon="4.62612">
        <ele>774.2</ele>
        <time>2025-09-20T08:27:41Z</time>
      </trkpt>
      <trkpt lat="46.21604" lon="4.62612">
        <ele>774.2</ele>
        <time>2025-09-20T08:27:42Z</time>
      </trkpt>
      <trkpt lat="46.21606" lon="4.62613">
        <ele>774.2</ele>
        <time>2025-09-20T08:27:43Z</time>
      </trkpt>
      <trkpt lat="46.21608" lon="4.62613">
        <ele>774</ele>
        <time>2025-09-20T08:27:44Z</time>
      </trkpt>
      <trkpt lat="46.2161" lon="4.62613">
        <ele>774</ele>
        <time>2025-09-20T08:27:45Z</time>
      </trkpt>
      <trkpt lat="46.21611" lon="4.62614">
        <ele>774</ele>
        <time>2025-09-20T08:27:46Z</time>
      </trkpt>
      <trkpt lat="46.21613" lon="4.62614">
        <ele>773.6</ele>
        <time>2025-09-20T08:27:47Z</time>
      </trkpt>
      <trkpt lat="46.21614" lon="4.62614">
        <ele>773.6</ele>
        <time>2025-09-20T08:27:48Z</time>
      </trkpt>
      <trkpt lat="46.21616" lon="4.62614">
        <ele>773.2</ele>
        <time>2025-09-20T08:27:49Z</time>
      </trkpt>
      <trkpt lat="46.21618" lon="4.62615">
        <ele>773.2</ele>
        <time>2025-09-20T08:27:50Z</time>
      </trkpt>
      <trkpt lat="46.21619" lon="4.62615">
        <ele>773.2</ele>
        <time>2025-09-20T08:27:51Z</time>
      </trkpt>
      <trkpt lat="46.2162" lon="4.62615">
        <ele>773.2</ele>
        <time>2025-09-20T08:27:52Z</time>
      </trkpt>
      <trkpt lat="46.21621" lon="4.62615">
        <ele>773.2</ele>
        <time>2025-09-20T08:27:53Z</time>
      </trkpt>
      <trkpt lat="46.21622" lon="4.62615">
        <ele>773.2</ele>
        <time>2025-09-20T08:27:54Z</time>
      </trkpt>
      <trkpt lat="46.21622" lon="4.62615">
        <ele>773</ele>
        <time>2025-09-20T08:27:55Z</time>
      </trkpt>
      <trkpt lat="46.21623" lon="4.62616">
        <ele>773</ele>
        <time>2025-09-20T08:27:56Z</time>
      </trkpt>
      <trkpt lat="46.21623" lon="4.62616">
        <ele>772.8</ele>
        <time>2025-09-20T08:27:57Z</time>
      </trkpt>
      <trkpt lat="46.21624" lon="4.62618">
        <ele>773.2</ele>
        <time>2025-09-20T08:28:13Z</time>
      </trkpt>
      <trkpt lat="46.21626" lon="4.62618">
        <ele>773.2</ele>
        <time>2025-09-20T08:28:14Z</time>
      </trkpt>
      <trkpt lat="46.21627" lon="4.62618">
        <ele>773.2</ele>
        <time>2025-09-20T08:28:15Z</time>
      </trkpt>
      <trkpt lat="46.21629" lon="4.62617">
        <ele>773.2</ele>
        <time>2025-09-20T08:28:16Z</time>
      </trkpt>
      <trkpt lat="46.21629" lon="4.62617">
        <ele>773.2</ele>
        <time>2025-09-20T08:28:17Z</time>
      </trkpt>
      <trkpt lat="46.2163" lon="4.62616">
        <ele>773.2</ele>
        <time>2025-09-20T08:28:18Z</time>
      </trkpt>
      <trkpt lat="46.21631" lon="4.62615">
        <ele>773.6</ele>
        <time>2025-09-20T08:28:19Z</time>
      </trkpt>
      <trkpt lat="46.21632" lon="4.62613">
        <ele>773.6</ele>
        <time>2025-09-20T08:28:20Z</time>
      </trkpt>
      <trkpt lat="46.21633" lon="4.62613">
        <ele>773.6</ele>
        <time>2025-09-20T08:28:21Z</time>
      </trkpt>
      <trkpt lat="46.21633" lon="4.62612">
        <ele>773.8</ele>
        <time>2025-09-20T08:28:22Z</time>
      </trkpt>
      <trkpt lat="46.21634" lon="4.62611">
        <ele>773.8</ele>
        <time>2025-09-20T08:28:23Z</time>
      </trkpt>
      <trkpt lat="46.21634" lon="4.6261">
        <ele>773.8</ele>
        <time>2025-09-20T08:28:24Z</time>
      </trkpt>
      <trkpt lat="46.21634" lon="4.6261">
        <ele>774</ele>
        <time>2025-09-20T08:28:25Z</time>
      </trkpt>
      <trkpt lat="46.21634" lon="4.62609">
        <ele>774</ele>
        <time>2025-09-20T08:28:26Z</time>
      </trkpt>
      <trkpt lat="46.21635" lon="4.62606">
        <ele>774.6</ele>
        <time>2025-09-20T08:31:19Z</time>
      </trkpt>
      <trkpt lat="46.21634" lon="4.62605">
        <ele>774.6</ele>
        <time>2025-09-20T08:31:20Z</time>
      </trkpt>
      <trkpt lat="46.21634" lon="4.62604">
        <ele>774.6</ele>
        <time>2025-09-20T08:31:21Z</time>
      </trkpt>
      <trkpt lat="46.21634" lon="4.62604">
        <ele>774.6</ele>
        <time>2025-09-20T08:31:22Z</time>
      </trkpt>
      <trkpt lat="46.21633" lon="4.62605">
        <ele>774.2</ele>
        <time>2025-09-20T08:31:23Z</time>
      </trkpt>
      <trkpt lat="46.21634" lon="4.62603">
        <ele>774.2</ele>
        <time>2025-09-20T08:31:24Z</time>
      </trkpt>
      <trkpt lat="46.21634" lon="4.62601">
        <ele>774.2</ele>
        <time>2025-09-20T08:31:25Z</time>
      </trkpt>
      <trkpt lat="46.21635" lon="4.62601">
        <ele>774.2</ele>
        <time>2025-09-20T08:31:26Z</time>
      </trkpt>
      <trkpt lat="46.21634" lon="4.62602">
        <ele>774.2</ele>
        <time>2025-09-20T08:31:27Z</time>
      </trkpt>
      <trkpt lat="46.21634" lon="4.62602">
        <ele>774.2</ele>
        <time>2025-09-20T08:31:28Z</time>
      </trkpt>
      <trkpt lat="46.21635" lon="4.62601">
        <ele>774.2</ele>
        <time>2025-09-20T08:31:29Z</time>
      </trkpt>
      <trkpt lat="46.21636" lon="4.62598">
        <ele>774.6</ele>
        <time>2025-09-20T08:31:30Z</time>
      </trkpt>
      <trkpt lat="46.21637" lon="4.62596">
        <ele>774.8</ele>
        <time>2025-09-20T08:31:31Z</time>
      </trkpt>
      <trkpt lat="46.21638" lon="4.62594">
        <ele>774.8</ele>
        <time>2025-09-20T08:31:32Z</time>
      </trkpt>
      <trkpt lat="46.21639" lon="4.62592">
        <ele>775.2</ele>
        <time>2025-09-20T08:31:33Z</time>
      </trkpt>
      <trkpt lat="46.21639" lon="4.6259">
        <ele>775.2</ele>
        <time>2025-09-20T08:31:34Z</time>
      </trkpt>
      <trkpt lat="46.2164" lon="4.62588">
        <ele>775.2</ele>
        <time>2025-09-20T08:31:35Z</time>
      </trkpt>
      <trkpt lat="46.21641" lon="4.62586">
        <ele>775.2</ele>
        <time>2025-09-20T08:31:36Z</time>
      </trkpt>
      <trkpt lat="46.21642" lon="4.62583">
        <ele>775.4</ele>
        <time>2025-09-20T08:31:37Z</time>
      </trkpt>
      <trkpt lat="46.21644" lon="4.62581">
        <ele>775.8</ele>
        <time>2025-09-20T08:31:38Z</time>
      </trkpt>
      <trkpt lat="46.21646" lon="4.62578">
        <ele>776</ele>
        <time>2025-09-20T08:31:39Z</time>
      </trkpt>
      <trkpt lat="46.21647" lon="4.62576">
        <ele>776</ele>
        <time>2025-09-20T08:31:40Z</time>
      </trkpt>
      <trkpt lat="46.21648" lon="4.62574">
        <ele>776</ele>
        <time>2025-09-20T08:31:41Z</time>
      </trkpt>
      <trkpt lat="46.21649" lon="4.62572">
        <ele>775.8</ele>
        <time>2025-09-20T08:31:42Z</time>
      </trkpt>
      <trkpt lat="46.2165" lon="4.62569">
        <ele>776.4</ele>
        <time>2025-09-20T08:31:43Z</time>
      </trkpt>
      <trkpt lat="46.2165" lon="4.62567">
        <ele>776.6</ele>
        <time>2025-09-20T08:31:44Z</time>
      </trkpt>
      <trkpt lat="46.21651" lon="4.62566">
        <ele>777</ele>
        <time>2025-09-20T08:31:45Z</time>
      </trkpt>
      <trkpt lat="46.21651" lon="4.62564">
        <ele>777.4</ele>
        <time>2025-09-20T08:31:46Z</time>
      </trkpt>
      <trkpt lat="46.21653" lon="4.62562">
        <ele>777.2</ele>
        <time>2025-09-20T08:31:47Z</time>
      </trkpt>
      <trkpt lat="46.21654" lon="4.6256">
        <ele>777.6</ele>
        <time>2025-09-20T08:31:48Z</time>
      </trkpt>
      <trkpt lat="46.21655" lon="4.62557">
        <ele>778</ele>
        <time>2025-09-20T08:31:49Z</time>
      </trkpt>
      <trkpt lat="46.21655" lon="4.62555">
        <ele>778.2</ele>
        <time>2025-09-20T08:31:50Z</time>
      </trkpt>
      <trkpt lat="46.21656" lon="4.62553">
        <ele>778.4</ele>
        <time>2025-09-20T08:31:51Z</time>
      </trkpt>
      <trkpt lat="46.21657" lon="4.62551">
        <ele>778.8</ele>
        <time>2025-09-20T08:31:52Z</time>
      </trkpt>
      <trkpt lat="46.21659" lon="4.62549">
        <ele>778.8</ele>
        <time>2025-09-20T08:31:53Z</time>
      </trkpt>
      <trkpt lat="46.21659" lon="4.62547">
        <ele>779</ele>
        <time>2025-09-20T08:31:54Z</time>
      </trkpt>
      <trkpt lat="46.2166" lon="4.62546">
        <ele>779</ele>
        <time>2025-09-20T08:31:55Z</time>
      </trkpt>
      <trkpt lat="46.2166" lon="4.62543">
        <ele>779</ele>
        <time>2025-09-20T08:31:56Z</time>
      </trkpt>
      <trkpt lat="46.21661" lon="4.62541">
        <ele>779.4</ele>
        <time>2025-09-20T08:31:57Z</time>
      </trkpt>
      <trkpt lat="46.21662" lon="4.62538">
        <ele>779.8</ele>
        <time>2025-09-20T08:31:58Z</time>
      </trkpt>
      <trkpt lat="46.21664" lon="4.62535">
        <ele>779.8</ele>
        <time>2025-09-20T08:31:59Z</time>
      </trkpt>
      <trkpt lat="46.21665" lon="4.62533">
        <ele>780.6</ele>
        <time>2025-09-20T08:32:00Z</time>
      </trkpt>
      <trkpt lat="46.21666" lon="4.62531">
        <ele>780.8</ele>
        <time>2025-09-20T08:32:01Z</time>
      </trkpt>
      <trkpt lat="46.21666" lon="4.6253">
        <ele>780.8</ele>
        <time>2025-09-20T08:32:02Z</time>
      </trkpt>
      <trkpt lat="46.21666" lon="4.62528">
        <ele>780.8</ele>
        <time>2025-09-20T08:32:03Z</time>
      </trkpt>
      <trkpt lat="46.21666" lon="4.62527">
        <ele>781.2</ele>
        <time>2025-09-20T08:32:04Z</time>
      </trkpt>
      <trkpt lat="46.21667" lon="4.62525">
        <ele>781.6</ele>
        <time>2025-09-20T08:32:05Z</time>
      </trkpt>
      <trkpt lat="46.21668" lon="4.62523">
        <ele>781.6</ele>
        <time>2025-09-20T08:32:06Z</time>
      </trkpt>
      <trkpt lat="46.21668" lon="4.62521">
        <ele>782</ele>
        <time>2025-09-20T08:32:07Z</time>
      </trkpt>
      <trkpt lat="46.21668" lon="4.62518">
        <ele>782</ele>
        <time>2025-09-20T08:32:08Z</time>
      </trkpt>
      <trkpt lat="46.21667" lon="4.62517">
        <ele>782.4</ele>
        <time>2025-09-20T08:32:09Z</time>
      </trkpt>
      <trkpt lat="46.21667" lon="4.62516">
        <ele>782.6</ele>
        <time>2025-09-20T08:32:10Z</time>
      </trkpt>
      <trkpt lat="46.21667" lon="4.62514">
        <ele>782.6</ele>
        <time>2025-09-20T08:32:11Z</time>
      </trkpt>
      <trkpt lat="46.21668" lon="4.62512">
        <ele>783.4</ele>
        <time>2025-09-20T08:32:12Z</time>
      </trkpt>
      <trkpt lat="46.21669" lon="4.62509">
        <ele>783.6</ele>
        <time>2025-09-20T08:32:13Z</time>
      </trkpt>
      <trkpt lat="46.2167" lon="4.62508">
        <ele>783.6</ele>
        <time>2025-09-20T08:32:14Z</time>
      </trkpt>
      <trkpt lat="46.21671" lon="4.62506">
        <ele>784</ele>
        <time>2025-09-20T08:32:15Z</time>
      </trkpt>
      <trkpt lat="46.21672" lon="4.62504">
        <ele>784</ele>
        <time>2025-09-20T08:32:16Z</time>
      </trkpt>
      <trkpt lat="46.21673" lon="4.62502">
        <ele>784.4</ele>
        <time>2025-09-20T08:32:17Z</time>
      </trkpt>
      <trkpt lat="46.21674" lon="4.625">
        <ele>784.8</ele>
        <time>2025-09-20T08:32:18Z</time>
      </trkpt>
      <trkpt lat="46.21674" lon="4.62498">
        <ele>785.2</ele>
        <time>2025-09-20T08:32:19Z</time>
      </trkpt>
      <trkpt lat="46.21675" lon="4.62497">
        <ele>785.2</ele>
        <time>2025-09-20T08:32:20Z</time>
      </trkpt>
      <trkpt lat="46.21676" lon="4.62495">
        <ele>785.2</ele>
        <time>2025-09-20T08:32:21Z</time>
      </trkpt>
      <trkpt lat="46.21676" lon="4.62493">
        <ele>785.2</ele>
        <time>2025-09-20T08:32:22Z</time>
      </trkpt>
      <trkpt lat="46.21677" lon="4.62491">
        <ele>785.4</ele>
        <time>2025-09-20T08:32:23Z</time>
      </trkpt>
      <trkpt lat="46.21677" lon="4.62488">
        <ele>785.4</ele>
        <time>2025-09-20T08:32:24Z</time>
      </trkpt>
      <trkpt lat="46.21678" lon="4.62486">
        <ele>785.8</ele>
        <time>2025-09-20T08:32:25Z</time>
      </trkpt>
      <trkpt lat="46.21678" lon="4.62483">
        <ele>785.8</ele>
        <time>2025-09-20T08:32:26Z</time>
      </trkpt>
      <trkpt lat="46.21679" lon="4.62481">
        <ele>786</ele>
        <time>2025-09-20T08:32:27Z</time>
      </trkpt>
      <trkpt lat="46.21681" lon="4.62479">
        <ele>786.2</ele>
        <time>2025-09-20T08:32:28Z</time>
      </trkpt>
      <trkpt lat="46.21682" lon="4.62477">
        <ele>786.2</ele>
        <time>2025-09-20T08:32:29Z</time>
      </trkpt>
      <trkpt lat="46.21683" lon="4.62474">
        <ele>786.2</ele>
        <time>2025-09-20T08:32:30Z</time>
      </trkpt>
      <trkpt lat="46.21684" lon="4.62473">
        <ele>786.2</ele>
        <time>2025-09-20T08:32:31Z</time>
      </trkpt>
      <trkpt lat="46.21685" lon="4.62471">
        <ele>786</ele>
        <time>2025-09-20T08:32:32Z</time>
      </trkpt>
      <trkpt lat="46.21686" lon="4.62468">
        <ele>786.2</ele>
        <time>2025-09-20T08:32:33Z</time>
      </trkpt>
      <trkpt lat="46.21688" lon="4.62464">
        <ele>786.2</ele>
        <time>2025-09-20T08:32:34Z</time>
      </trkpt>
      <trkpt lat="46.21689" lon="4.62461">
        <ele>786.2</ele>
        <time>2025-09-20T08:32:35Z</time>
      </trkpt>
      <trkpt lat="46.21689" lon="4.62458">
        <ele>786.2</ele>
        <time>2025-09-20T08:32:36Z</time>
      </trkpt>
      <trkpt lat="46.2169" lon="4.62456">
        <ele>786.2</ele>
        <time>2025-09-20T08:32:37Z</time>
      </trkpt>
      <trkpt lat="46.2169" lon="4.62453">
        <ele>786.6</ele>
        <time>2025-09-20T08:32:38Z</time>
      </trkpt>
      <trkpt lat="46.2169" lon="4.6245">
        <ele>786.6</ele>
        <time>2025-09-20T08:32:39Z</time>
      </trkpt>
      <trkpt lat="46.21691" lon="4.62448">
        <ele>786.6</ele>
        <time>2025-09-20T08:32:40Z</time>
      </trkpt>
      <trkpt lat="46.21691" lon="4.62446">
        <ele>787.2</ele>
        <time>2025-09-20T08:32:41Z</time>
      </trkpt>
      <trkpt lat="46.21692" lon="4.62444">
        <ele>787.2</ele>
        <time>2025-09-20T08:32:42Z</time>
      </trkpt>
      <trkpt lat="46.21693" lon="4.62442">
        <ele>787.2</ele>
        <time>2025-09-20T08:32:43Z</time>
      </trkpt>
      <trkpt lat="46.21693" lon="4.6244">
        <ele>787.2</ele>
        <time>2025-09-20T08:32:44Z</time>
      </trkpt>
      <trkpt lat="46.21694" lon="4.62438">
        <ele>787.2</ele>
        <time>2025-09-20T08:32:45Z</time>
      </trkpt>
      <trkpt lat="46.21695" lon="4.62436">
        <ele>787.2</ele>
        <time>2025-09-20T08:32:46Z</time>
      </trkpt>
      <trkpt lat="46.21696" lon="4.62434">
        <ele>787.2</ele>
        <time>2025-09-20T08:32:47Z</time>
      </trkpt>
      <trkpt lat="46.21696" lon="4.62432">
        <ele>787.2</ele>
        <time>2025-09-20T08:32:48Z</time>
      </trkpt>
      <trkpt lat="46.21697" lon="4.6243">
        <ele>787.2</ele>
        <time>2025-09-20T08:32:49Z</time>
      </trkpt>
      <trkpt lat="46.21698" lon="4.62428">
        <ele>787.2</ele>
        <time>2025-09-20T08:32:50Z</time>
      </trkpt>
      <trkpt lat="46.217" lon="4.62427">
        <ele>787.4</ele>
        <time>2025-09-20T08:32:51Z</time>
      </trkpt>
      <trkpt lat="46.21702" lon="4.62425">
        <ele>787.4</ele>
        <time>2025-09-20T08:32:52Z</time>
      </trkpt>
      <trkpt lat="46.21703" lon="4.62425">
        <ele>787.6</ele>
        <time>2025-09-20T08:32:53Z</time>
      </trkpt>
      <trkpt lat="46.21704" lon="4.62425">
        <ele>787.6</ele>
        <time>2025-09-20T08:32:54Z</time>
      </trkpt>
      <trkpt lat="46.21705" lon="4.62425">
        <ele>787.6</ele>
        <time>2025-09-20T08:32:55Z</time>
      </trkpt>
      <trkpt lat="46.21707" lon="4.62424">
        <ele>787.6</ele>
        <time>2025-09-20T08:32:56Z</time>
      </trkpt>
      <trkpt lat="46.21709" lon="4.62423">
        <ele>787.8</ele>
        <time>2025-09-20T08:32:57Z</time>
      </trkpt>
      <trkpt lat="46.21711" lon="4.62422">
        <ele>787.8</ele>
        <time>2025-09-20T08:32:58Z</time>
      </trkpt>
      <trkpt lat="46.21712" lon="4.62422">
        <ele>787.8</ele>
        <time>2025-09-20T08:32:59Z</time>
      </trkpt>
      <trkpt lat="46.21714" lon="4.62422">
        <ele>788</ele>
        <time>2025-09-20T08:33:00Z</time>
      </trkpt>
      <trkpt lat="46.21716" lon="4.62421">
        <ele>788</ele>
        <time>2025-09-20T08:33:01Z</time>
      </trkpt>
      <trkpt lat="46.21717" lon="4.62421">
        <ele>788.2</ele>
        <time>2025-09-20T08:33:02Z</time>
      </trkpt>
      <trkpt lat="46.21719" lon="4.6242">
        <ele>788.2</ele>
        <time>2025-09-20T08:33:03Z</time>
      </trkpt>
      <trkpt lat="46.2172" lon="4.62419">
        <ele>788.2</ele>
        <time>2025-09-20T08:33:04Z</time>
      </trkpt>
      <trkpt lat="46.21722" lon="4.62418">
        <ele>788.6</ele>
        <time>2025-09-20T08:33:05Z</time>
      </trkpt>
      <trkpt lat="46.21723" lon="4.62417">
        <ele>788.6</ele>
        <time>2025-09-20T08:33:06Z</time>
      </trkpt>
      <trkpt lat="46.21724" lon="4.62416">
        <ele>788.8</ele>
        <time>2025-09-20T08:33:07Z</time>
      </trkpt>
      <trkpt lat="46.21726" lon="4.62415">
        <ele>788.8</ele>
        <time>2025-09-20T08:33:08Z</time>
      </trkpt>
      <trkpt lat="46.21726" lon="4.62414">
        <ele>788.8</ele>
        <time>2025-09-20T08:33:09Z</time>
      </trkpt>
      <trkpt lat="46.21726" lon="4.62413">
        <ele>789.2</ele>
        <time>2025-09-20T08:33:10Z</time>
      </trkpt>
      <trkpt lat="46.21729" lon="4.62411">
        <ele>790</ele>
        <time>2025-09-20T08:33:14Z</time>
      </trkpt>
      <trkpt lat="46.2173" lon="4.62409">
        <ele>790.2</ele>
        <time>2025-09-20T08:33:15Z</time>
      </trkpt>
      <trkpt lat="46.21731" lon="4.62408">
        <ele>790.6</ele>
        <time>2025-09-20T08:33:16Z</time>
      </trkpt>
      <trkpt lat="46.21733" lon="4.62406">
        <ele>790.6</ele>
        <time>2025-09-20T08:33:17Z</time>
      </trkpt>
      <trkpt lat="46.21734" lon="4.62404">
        <ele>791</ele>
        <time>2025-09-20T08:33:18Z</time>
      </trkpt>
      <trkpt lat="46.21735" lon="4.62403">
        <ele>791</ele>
        <time>2025-09-20T08:33:19Z</time>
      </trkpt>
      <trkpt lat="46.21736" lon="4.62403">
        <ele>791</ele>
        <time>2025-09-20T08:33:20Z</time>
      </trkpt>
      <trkpt lat="46.21738" lon="4.62402">
        <ele>791</ele>
        <time>2025-09-20T08:33:21Z</time>
      </trkpt>
      <trkpt lat="46.2174" lon="4.62401">
        <ele>791</ele>
        <time>2025-09-20T08:33:22Z</time>
      </trkpt>
      <trkpt lat="46.21741" lon="4.624">
        <ele>791</ele>
        <time>2025-09-20T08:33:23Z</time>
      </trkpt>
      <trkpt lat="46.21742" lon="4.624">
        <ele>791</ele>
        <time>2025-09-20T08:33:24Z</time>
      </trkpt>
      <trkpt lat="46.21742" lon="4.624">
        <ele>791</ele>
        <time>2025-09-20T08:33:25Z</time>
      </trkpt>
      <trkpt lat="46.21744" lon="4.624">
        <ele>791</ele>
        <time>2025-09-20T08:33:29Z</time>
      </trkpt>
      <trkpt lat="46.21745" lon="4.624">
        <ele>790.6</ele>
        <time>2025-09-20T08:33:30Z</time>
      </trkpt>
      <trkpt lat="46.21744" lon="4.62401">
        <ele>790.6</ele>
        <time>2025-09-20T08:33:31Z</time>
      </trkpt>
      <trkpt lat="46.21743" lon="4.62403">
        <ele>790.2</ele>
        <time>2025-09-20T08:33:32Z</time>
      </trkpt>
      <trkpt lat="46.21743" lon="4.62404">
        <ele>790</ele>
        <time>2025-09-20T08:33:33Z</time>
      </trkpt>
      <trkpt lat="46.21742" lon="4.62405">
        <ele>790</ele>
        <time>2025-09-20T08:33:34Z</time>
      </trkpt>
      <trkpt lat="46.21741" lon="4.62406">
        <ele>790</ele>
        <time>2025-09-20T08:33:35Z</time>
      </trkpt>
      <trkpt lat="46.21741" lon="4.62407">
        <ele>789.8</ele>
        <time>2025-09-20T08:33:36Z</time>
      </trkpt>
      <trkpt lat="46.21741" lon="4.62409">
        <ele>789.8</ele>
        <time>2025-09-20T08:33:37Z</time>
      </trkpt>
      <trkpt lat="46.21741" lon="4.62409">
        <ele>790</ele>
        <time>2025-09-20T08:33:38Z</time>
      </trkpt>
      <trkpt lat="46.21743" lon="4.6241">
        <ele>790</ele>
        <time>2025-09-20T08:33:39Z</time>
      </trkpt>
      <trkpt lat="46.21745" lon="4.62409">
        <ele>790</ele>
        <time>2025-09-20T08:33:40Z</time>
      </trkpt>
      <trkpt lat="46.21746" lon="4.62408">
        <ele>790.4</ele>
        <time>2025-09-20T08:33:41Z</time>
      </trkpt>
      <trkpt lat="46.21747" lon="4.62408">
        <ele>790.4</ele>
        <time>2025-09-20T08:33:42Z</time>
      </trkpt>
      <trkpt lat="46.2175" lon="4.62408">
        <ele>790.4</ele>
        <time>2025-09-20T08:33:43Z</time>
      </trkpt>
      <trkpt lat="46.21752" lon="4.62408">
        <ele>790.6</ele>
        <time>2025-09-20T08:33:44Z</time>
      </trkpt>
      <trkpt lat="46.21754" lon="4.62408">
        <ele>790.6</ele>
        <time>2025-09-20T08:33:45Z</time>
      </trkpt>
      <trkpt lat="46.21756" lon="4.62408">
        <ele>791</ele>
        <time>2025-09-20T08:33:46Z</time>
      </trkpt>
      <trkpt lat="46.21758" lon="4.62408">
        <ele>791</ele>
        <time>2025-09-20T08:33:47Z</time>
      </trkpt>
      <trkpt lat="46.2176" lon="4.62408">
        <ele>791.2</ele>
        <time>2025-09-20T08:33:48Z</time>
      </trkpt>
      <trkpt lat="46.21761" lon="4.62407">
        <ele>791.4</ele>
        <time>2025-09-20T08:33:49Z</time>
      </trkpt>
      <trkpt lat="46.21761" lon="4.62406">
        <ele>791.4</ele>
        <time>2025-09-20T08:33:50Z</time>
      </trkpt>
      <trkpt lat="46.21762" lon="4.62405">
        <ele>791.4</ele>
        <time>2025-09-20T08:33:51Z</time>
      </trkpt>
      <trkpt lat="46.21763" lon="4.62406">
        <ele>791.4</ele>
        <time>2025-09-20T08:33:52Z</time>
      </trkpt>
      <trkpt lat="46.21765" lon="4.62408">
        <ele>791.8</ele>
        <time>2025-09-20T08:33:53Z</time>
      </trkpt>
      <trkpt lat="46.21766" lon="4.6241">
        <ele>791.8</ele>
        <time>2025-09-20T08:33:54Z</time>
      </trkpt>
      <trkpt lat="46.21767" lon="4.62412">
        <ele>791.8</ele>
        <time>2025-09-20T08:33:55Z</time>
      </trkpt>
      <trkpt lat="46.21769" lon="4.62414">
        <ele>791.8</ele>
        <time>2025-09-20T08:33:56Z</time>
      </trkpt>
      <trkpt lat="46.2177" lon="4.62417">
        <ele>791.8</ele>
        <time>2025-09-20T08:33:57Z</time>
      </trkpt>
      <trkpt lat="46.21771" lon="4.62419">
        <ele>791.4</ele>
        <time>2025-09-20T08:33:58Z</time>
      </trkpt>
      <trkpt lat="46.21772" lon="4.62422">
        <ele>791.4</ele>
        <time>2025-09-20T08:33:59Z</time>
      </trkpt>
      <trkpt lat="46.21772" lon="4.62425">
        <ele>791.4</ele>
        <time>2025-09-20T08:34:00Z</time>
      </trkpt>
      <trkpt lat="46.21772" lon="4.62426">
        <ele>791.2</ele>
        <time>2025-09-20T08:34:01Z</time>
      </trkpt>
      <trkpt lat="46.21773" lon="4.62428">
        <ele>790.8</ele>
        <time>2025-09-20T08:34:02Z</time>
      </trkpt>
      <trkpt lat="46.21774" lon="4.6243">
        <ele>790.8</ele>
        <time>2025-09-20T08:34:03Z</time>
      </trkpt>
      <trkpt lat="46.21775" lon="4.62432">
        <ele>790.8</ele>
        <time>2025-09-20T08:34:04Z</time>
      </trkpt>
      <trkpt lat="46.21776" lon="4.62434">
        <ele>790.8</ele>
        <time>2025-09-20T08:34:05Z</time>
      </trkpt>
      <trkpt lat="46.21777" lon="4.62436">
        <ele>790.8</ele>
        <time>2025-09-20T08:34:06Z</time>
      </trkpt>
      <trkpt lat="46.21777" lon="4.62438">
        <ele>790.8</ele>
        <time>2025-09-20T08:34:07Z</time>
      </trkpt>
      <trkpt lat="46.21779" lon="4.6244">
        <ele>790.8</ele>
        <time>2025-09-20T08:34:08Z</time>
      </trkpt>
      <trkpt lat="46.2178" lon="4.6244">
        <ele>791</ele>
        <time>2025-09-20T08:34:09Z</time>
      </trkpt>
      <trkpt lat="46.2178" lon="4.6244">
        <ele>791</ele>
        <time>2025-09-20T08:34:10Z</time>
      </trkpt>
      <trkpt lat="46.21787" lon="4.6244">
        <ele>791.2</ele>
        <time>2025-09-20T08:35:44Z</time>
      </trkpt>
      <trkpt lat="46.21786" lon="4.6244">
        <ele>791.2</ele>
        <time>2025-09-20T08:35:45Z</time>
      </trkpt>
      <trkpt lat="46.21786" lon="4.6244">
        <ele>791.2</ele>
        <time>2025-09-20T08:35:46Z</time>
      </trkpt>
      <trkpt lat="46.21784" lon="4.62437">
        <ele>791.2</ele>
        <time>2025-09-20T08:35:47Z</time>
      </trkpt>
      <trkpt lat="46.21783" lon="4.62436">
        <ele>791.2</ele>
        <time>2025-09-20T08:35:48Z</time>
      </trkpt>
      <trkpt lat="46.21783" lon="4.62435">
        <ele>791.2</ele>
        <time>2025-09-20T08:35:49Z</time>
      </trkpt>
      <trkpt lat="46.21782" lon="4.62435">
        <ele>791.2</ele>
        <time>2025-09-20T08:35:50Z</time>
      </trkpt>
      <trkpt lat="46.21782" lon="4.62435">
        <ele>791</ele>
        <time>2025-09-20T08:35:51Z</time>
      </trkpt>
      <trkpt lat="46.2178" lon="4.62435">
        <ele>791</ele>
        <time>2025-09-20T08:35:52Z</time>
      </trkpt>
      <trkpt lat="46.21779" lon="4.62434">
        <ele>791</ele>
        <time>2025-09-20T08:35:53Z</time>
      </trkpt>
      <trkpt lat="46.21778" lon="4.62432">
        <ele>791</ele>
        <time>2025-09-20T08:35:54Z</time>
      </trkpt>
      <trkpt lat="46.21778" lon="4.62431">
        <ele>791</ele>
        <time>2025-09-20T08:35:55Z</time>
      </trkpt>
      <trkpt lat="46.21776" lon="4.62429">
        <ele>791</ele>
        <time>2025-09-20T08:35:56Z</time>
      </trkpt>
      <trkpt lat="46.21774" lon="4.62428">
        <ele>791</ele>
        <time>2025-09-20T08:35:57Z</time>
      </trkpt>
      <trkpt lat="46.21773" lon="4.62426">
        <ele>791</ele>
        <time>2025-09-20T08:35:58Z</time>
      </trkpt>
      <trkpt lat="46.21771" lon="4.62424">
        <ele>791</ele>
        <time>2025-09-20T08:35:59Z</time>
      </trkpt>
      <trkpt lat="46.2177" lon="4.62423">
        <ele>791</ele>
        <time>2025-09-20T08:36:00Z</time>
      </trkpt>
      <trkpt lat="46.21769" lon="4.62421">
        <ele>791</ele>
        <time>2025-09-20T08:36:01Z</time>
      </trkpt>
      <trkpt lat="46.21769" lon="4.6242">
        <ele>791</ele>
        <time>2025-09-20T08:36:02Z</time>
      </trkpt>
      <trkpt lat="46.21769" lon="4.62419">
        <ele>791</ele>
        <time>2025-09-20T08:36:03Z</time>
      </trkpt>
      <trkpt lat="46.21767" lon="4.62419">
        <ele>791</ele>
        <time>2025-09-20T08:36:04Z</time>
      </trkpt>
      <trkpt lat="46.21765" lon="4.62418">
        <ele>791</ele>
        <time>2025-09-20T08:36:05Z</time>
      </trkpt>
      <trkpt lat="46.21763" lon="4.62417">
        <ele>791</ele>
        <time>2025-09-20T08:36:06Z</time>
      </trkpt>
      <trkpt lat="46.2176" lon="4.62416">
        <ele>791</ele>
        <time>2025-09-20T08:36:07Z</time>
      </trkpt>
      <trkpt lat="46.21758" lon="4.62415">
        <ele>790.8</ele>
        <time>2025-09-20T08:36:08Z</time>
      </trkpt>
      <trkpt lat="46.21756" lon="4.62415">
        <ele>790.8</ele>
        <time>2025-09-20T08:36:09Z</time>
      </trkpt>
      <trkpt lat="46.21753" lon="4.62414">
        <ele>790.8</ele>
        <time>2025-09-20T08:36:10Z</time>
      </trkpt>
      <trkpt lat="46.21751" lon="4.62414">
        <ele>790.8</ele>
        <time>2025-09-20T08:36:11Z</time>
      </trkpt>
      <trkpt lat="46.2175" lon="4.62414">
        <ele>790.8</ele>
        <time>2025-09-20T08:36:12Z</time>
      </trkpt>
      <trkpt lat="46.21748" lon="4.62413">
        <ele>790.6</ele>
        <time>2025-09-20T08:36:13Z</time>
      </trkpt>
      <trkpt lat="46.21747" lon="4.62411">
        <ele>790.6</ele>
        <time>2025-09-20T08:36:14Z</time>
      </trkpt>
      <trkpt lat="46.21746" lon="4.62409">
        <ele>790.6</ele>
        <time>2025-09-20T08:36:15Z</time>
      </trkpt>
      <trkpt lat="46.21746" lon="4.62407">
        <ele>790.6</ele>
        <time>2025-09-20T08:36:16Z</time>
      </trkpt>
      <trkpt lat="46.21746" lon="4.62406">
        <ele>790.6</ele>
        <time>2025-09-20T08:36:17Z</time>
      </trkpt>
      <trkpt lat="46.21748" lon="4.62404">
        <ele>790.6</ele>
        <time>2025-09-20T08:36:18Z</time>
      </trkpt>
      <trkpt lat="46.2175" lon="4.62402">
        <ele>790.8</ele>
        <time>2025-09-20T08:36:19Z</time>
      </trkpt>
      <trkpt lat="46.21751" lon="4.624">
        <ele>790.8</ele>
        <time>2025-09-20T08:36:20Z</time>
      </trkpt>
      <trkpt lat="46.21752" lon="4.62399">
        <ele>790.4</ele>
        <time>2025-09-20T08:36:21Z</time>
      </trkpt>
      <trkpt lat="46.21753" lon="4.62398">
        <ele>790.8</ele>
        <time>2025-09-20T08:36:22Z</time>
      </trkpt>
      <trkpt lat="46.21754" lon="4.62397">
        <ele>791</ele>
        <time>2025-09-20T08:36:23Z</time>
      </trkpt>
      <trkpt lat="46.21754" lon="4.62395">
        <ele>791.2</ele>
        <time>2025-09-20T08:36:24Z</time>
      </trkpt>
      <trkpt lat="46.21757" lon="4.62393">
        <ele>791.2</ele>
        <time>2025-09-20T08:36:25Z</time>
      </trkpt>
      <trkpt lat="46.21759" lon="4.62392">
        <ele>791.4</ele>
        <time>2025-09-20T08:36:26Z</time>
      </trkpt>
      <trkpt lat="46.2176" lon="4.62391">
        <ele>791.4</ele>
        <time>2025-09-20T08:36:27Z</time>
      </trkpt>
      <trkpt lat="46.21761" lon="4.6239">
        <ele>791.8</ele>
        <time>2025-09-20T08:36:28Z</time>
      </trkpt>
      <trkpt lat="46.21762" lon="4.62389">
        <ele>791.8</ele>
        <time>2025-09-20T08:36:29Z</time>
      </trkpt>
      <trkpt lat="46.21764" lon="4.62387">
        <ele>792.2</ele>
        <time>2025-09-20T08:36:30Z</time>
      </trkpt>
      <trkpt lat="46.21765" lon="4.62385">
        <ele>792.2</ele>
        <time>2025-09-20T08:36:31Z</time>
      </trkpt>
      <trkpt lat="46.21766" lon="4.62383">
        <ele>792.6</ele>
        <time>2025-09-20T08:36:32Z</time>
      </trkpt>
      <trkpt lat="46.21768" lon="4.6238">
        <ele>792.6</ele>
        <time>2025-09-20T08:36:33Z</time>
      </trkpt>
      <trkpt lat="46.21769" lon="4.62378">
        <ele>792.6</ele>
        <time>2025-09-20T08:36:34Z</time>
      </trkpt>
      <trkpt lat="46.21771" lon="4.62376">
        <ele>793</ele>
        <time>2025-09-20T08:36:35Z</time>
      </trkpt>
      <trkpt lat="46.21773" lon="4.62373">
        <ele>793</ele>
        <time>2025-09-20T08:36:36Z</time>
      </trkpt>
      <trkpt lat="46.21774" lon="4.62371">
        <ele>793.4</ele>
        <time>2025-09-20T08:36:37Z</time>
      </trkpt>
      <trkpt lat="46.21774" lon="4.62369">
        <ele>793.4</ele>
        <time>2025-09-20T08:36:38Z</time>
      </trkpt>
      <trkpt lat="46.21775" lon="4.62367">
        <ele>793.8</ele>
        <time>2025-09-20T08:36:39Z</time>
      </trkpt>
      <trkpt lat="46.21777" lon="4.62365">
        <ele>794.2</ele>
        <time>2025-09-20T08:36:40Z</time>
      </trkpt>
      <trkpt lat="46.21779" lon="4.62362">
        <ele>794.4</ele>
        <time>2025-09-20T08:36:41Z</time>
      </trkpt>
      <trkpt lat="46.21781" lon="4.6236">
        <ele>794.4</ele>
        <time>2025-09-20T08:36:42Z</time>
      </trkpt>
      <trkpt lat="46.21783" lon="4.62359">
        <ele>794.6</ele>
        <time>2025-09-20T08:36:43Z</time>
      </trkpt>
      <trkpt lat="46.21784" lon="4.62357">
        <ele>795.2</ele>
        <time>2025-09-20T08:36:44Z</time>
      </trkpt>
      <trkpt lat="46.21784" lon="4.62357">
        <ele>795.2</ele>
        <time>2025-09-20T08:36:45Z</time>
      </trkpt>
      <trkpt lat="46.21785" lon="4.62355">
        <ele>795.4</ele>
        <time>2025-09-20T08:36:46Z</time>
      </trkpt>
      <trkpt lat="46.21786" lon="4.62353">
        <ele>795.6</ele>
        <time>2025-09-20T08:36:47Z</time>
      </trkpt>
      <trkpt lat="46.21787" lon="4.62352">
        <ele>795.6</ele>
        <time>2025-09-20T08:36:48Z</time>
      </trkpt>
      <trkpt lat="46.21788" lon="4.62351">
        <ele>795.8</ele>
        <time>2025-09-20T08:36:49Z</time>
      </trkpt>
      <trkpt lat="46.21789" lon="4.62349">
        <ele>795.8</ele>
        <time>2025-09-20T08:36:50Z</time>
      </trkpt>
      <trkpt lat="46.2179" lon="4.62346">
        <ele>796.2</ele>
        <time>2025-09-20T08:36:51Z</time>
      </trkpt>
      <trkpt lat="46.21791" lon="4.62344">
        <ele>796.2</ele>
        <time>2025-09-20T08:36:52Z</time>
      </trkpt>
      <trkpt lat="46.21793" lon="4.62342">
        <ele>796.2</ele>
        <time>2025-09-20T08:36:53Z</time>
      </trkpt>
      <trkpt lat="46.21794" lon="4.62342">
        <ele>796.6</ele>
        <time>2025-09-20T08:36:54Z</time>
      </trkpt>
      <trkpt lat="46.21795" lon="4.62341">
        <ele>796.8</ele>
        <time>2025-09-20T08:36:55Z</time>
      </trkpt>
      <trkpt lat="46.21797" lon="4.6234">
        <ele>797.2</ele>
        <time>2025-09-20T08:36:56Z</time>
      </trkpt>
      <trkpt lat="46.21798" lon="4.62339">
        <ele>797.4</ele>
        <time>2025-09-20T08:36:57Z</time>
      </trkpt>
      <trkpt lat="46.218" lon="4.62338">
        <ele>797.4</ele>
        <time>2025-09-20T08:36:58Z</time>
      </trkpt>
      <trkpt lat="46.21802" lon="4.62337">
        <ele>797.8</ele>
        <time>2025-09-20T08:36:59Z</time>
      </trkpt>
      <trkpt lat="46.21803" lon="4.62336">
        <ele>798</ele>
        <time>2025-09-20T08:37:00Z</time>
      </trkpt>
      <trkpt lat="46.21805" lon="4.62335">
        <ele>798.2</ele>
        <time>2025-09-20T08:37:01Z</time>
      </trkpt>
      <trkpt lat="46.21806" lon="4.62334">
        <ele>798.6</ele>
        <time>2025-09-20T08:37:02Z</time>
      </trkpt>
      <trkpt lat="46.21807" lon="4.62333">
        <ele>798.8</ele>
        <time>2025-09-20T08:37:03Z</time>
      </trkpt>
      <trkpt lat="46.21809" lon="4.62331">
        <ele>799</ele>
        <time>2025-09-20T08:37:04Z</time>
      </trkpt>
      <trkpt lat="46.2181" lon="4.6233">
        <ele>799.2</ele>
        <time>2025-09-20T08:37:05Z</time>
      </trkpt>
      <trkpt lat="46.21812" lon="4.62328">
        <ele>799.2</ele>
        <time>2025-09-20T08:37:06Z</time>
      </trkpt>
      <trkpt lat="46.21812" lon="4.62327">
        <ele>799.6</ele>
        <time>2025-09-20T08:37:07Z</time>
      </trkpt>
      <trkpt lat="46.21813" lon="4.62327">
        <ele>799.6</ele>
        <time>2025-09-20T08:37:08Z</time>
      </trkpt>
      <trkpt lat="46.21813" lon="4.62327">
        <ele>800</ele>
        <time>2025-09-20T08:37:25Z</time>
      </trkpt>
      <trkpt lat="46.21814" lon="4.62327">
        <ele>800</ele>
        <time>2025-09-20T08:37:26Z</time>
      </trkpt>
      <trkpt lat="46.21814" lon="4.62327">
        <ele>800</ele>
        <time>2025-09-20T08:37:27Z</time>
      </trkpt>
      <trkpt lat="46.21815" lon="4.62326">
        <ele>800</ele>
        <time>2025-09-20T08:37:28Z</time>
      </trkpt>
      <trkpt lat="46.21816" lon="4.62325">
        <ele>800.4</ele>
        <time>2025-09-20T08:37:29Z</time>
      </trkpt>
      <trkpt lat="46.21818" lon="4.62323">
        <ele>800.4</ele>
        <time>2025-09-20T08:37:30Z</time>
      </trkpt>
      <trkpt lat="46.21819" lon="4.62322">
        <ele>800.6</ele>
        <time>2025-09-20T08:37:31Z</time>
      </trkpt>
      <trkpt lat="46.21819" lon="4.62321">
        <ele>800.6</ele>
        <time>2025-09-20T08:37:32Z</time>
      </trkpt>
      <trkpt lat="46.21819" lon="4.6232">
        <ele>801</ele>
        <time>2025-09-20T08:37:33Z</time>
      </trkpt>
      <trkpt lat="46.21819" lon="4.62319">
        <ele>801</ele>
        <time>2025-09-20T08:37:34Z</time>
      </trkpt>
      <trkpt lat="46.21819" lon="4.62318">
        <ele>801.2</ele>
        <time>2025-09-20T08:37:35Z</time>
      </trkpt>
      <trkpt lat="46.21819" lon="4.62317">
        <ele>801.2</ele>
        <time>2025-09-20T08:37:36Z</time>
      </trkpt>
      <trkpt lat="46.2182" lon="4.62316">
        <ele>801.6</ele>
        <time>2025-09-20T08:37:37Z</time>
      </trkpt>
      <trkpt lat="46.21821" lon="4.62314">
        <ele>802</ele>
        <time>2025-09-20T08:37:38Z</time>
      </trkpt>
      <trkpt lat="46.21822" lon="4.62313">
        <ele>802</ele>
        <time>2025-09-20T08:37:39Z</time>
      </trkpt>
      <trkpt lat="46.21823" lon="4.62311">
        <ele>802</ele>
        <time>2025-09-20T08:37:40Z</time>
      </trkpt>
      <trkpt lat="46.21824" lon="4.6231">
        <ele>802.2</ele>
        <time>2025-09-20T08:37:41Z</time>
      </trkpt>
      <trkpt lat="46.21824" lon="4.62309">
        <ele>802.4</ele>
        <time>2025-09-20T08:37:42Z</time>
      </trkpt>
      <trkpt lat="46.21823" lon="4.62308">
        <ele>802.4</ele>
        <time>2025-09-20T08:37:43Z</time>
      </trkpt>
      <trkpt lat="46.21824" lon="4.62307">
        <ele>802.8</ele>
        <time>2025-09-20T08:37:44Z</time>
      </trkpt>
      <trkpt lat="46.21825" lon="4.62305">
        <ele>802.8</ele>
        <time>2025-09-20T08:37:45Z</time>
      </trkpt>
      <trkpt lat="46.21826" lon="4.62304">
        <ele>803</ele>
        <time>2025-09-20T08:37:46Z</time>
      </trkpt>
      <trkpt lat="46.21826" lon="4.62303">
        <ele>803</ele>
        <time>2025-09-20T08:37:47Z</time>
      </trkpt>
      <trkpt lat="46.21828" lon="4.62302">
        <ele>803</ele>
        <time>2025-09-20T08:37:48Z</time>
      </trkpt>
      <trkpt lat="46.21828" lon="4.623">
        <ele>803.4</ele>
        <time>2025-09-20T08:37:49Z</time>
      </trkpt>
      <trkpt lat="46.21829" lon="4.62299">
        <ele>803.4</ele>
        <time>2025-09-20T08:37:50Z</time>
      </trkpt>
      <trkpt lat="46.2183" lon="4.62298">
        <ele>803.8</ele>
        <time>2025-09-20T08:37:51Z</time>
      </trkpt>
      <trkpt lat="46.2183" lon="4.62296">
        <ele>803.8</ele>
        <time>2025-09-20T08:37:52Z</time>
      </trkpt>
      <trkpt lat="46.21831" lon="4.62295">
        <ele>804.2</ele>
        <time>2025-09-20T08:37:53Z</time>
      </trkpt>
      <trkpt lat="46.21832" lon="4.62294">
        <ele>804.2</ele>
        <time>2025-09-20T08:37:54Z</time>
      </trkpt>
      <trkpt lat="46.21834" lon="4.62292">
        <ele>804.6</ele>
        <time>2025-09-20T08:37:55Z</time>
      </trkpt>
      <trkpt lat="46.21835" lon="4.62291">
        <ele>804.6</ele>
        <time>2025-09-20T08:37:56Z</time>
      </trkpt>
      <trkpt lat="46.21836" lon="4.6229">
        <ele>805</ele>
        <time>2025-09-20T08:37:57Z</time>
      </trkpt>
      <trkpt lat="46.21837" lon="4.62289">
        <ele>805</ele>
        <time>2025-09-20T08:37:58Z</time>
      </trkpt>
      <trkpt lat="46.21838" lon="4.62287">
        <ele>805.4</ele>
        <time>2025-09-20T08:37:59Z</time>
      </trkpt>
      <trkpt lat="46.21839" lon="4.62285">
        <ele>805.8</ele>
        <time>2025-09-20T08:38:00Z</time>
      </trkpt>
      <trkpt lat="46.21839" lon="4.62285">
        <ele>805.8</ele>
        <time>2025-09-20T08:38:01Z</time>
      </trkpt>
      <trkpt lat="46.21839" lon="4.62284">
        <ele>806.2</ele>
        <time>2025-09-20T08:38:02Z</time>
      </trkpt>
      <trkpt lat="46.2184" lon="4.62283">
        <ele>806.4</ele>
        <time>2025-09-20T08:38:03Z</time>
      </trkpt>
      <trkpt lat="46.2184" lon="4.62282">
        <ele>806.6</ele>
        <time>2025-09-20T08:38:04Z</time>
      </trkpt>
      <trkpt lat="46.21841" lon="4.62282">
        <ele>806.8</ele>
        <time>2025-09-20T08:38:05Z</time>
      </trkpt>
      <trkpt lat="46.21841" lon="4.62282">
        <ele>806.8</ele>
        <time>2025-09-20T08:38:06Z</time>
      </trkpt>
      <trkpt lat="46.21842" lon="4.62283">
        <ele>807.2</ele>
        <time>2025-09-20T08:38:07Z</time>
      </trkpt>
      <trkpt lat="46.21843" lon="4.62284">
        <ele>807.4</ele>
        <time>2025-09-20T08:38:08Z</time>
      </trkpt>
      <trkpt lat="46.21843" lon="4.62284">
        <ele>807.8</ele>
        <time>2025-09-20T08:38:09Z</time>
      </trkpt>
      <trkpt lat="46.21844" lon="4.62283">
        <ele>807.8</ele>
        <time>2025-09-20T08:38:10Z</time>
      </trkpt>
      <trkpt lat="46.21845" lon="4.62282">
        <ele>808</ele>
        <time>2025-09-20T08:38:11Z</time>
      </trkpt>
      <trkpt lat="46.21845" lon="4.62281">
        <ele>808.4</ele>
        <time>2025-09-20T08:38:12Z</time>
      </trkpt>
      <trkpt lat="46.21845" lon="4.62281">
        <ele>808.6</ele>
        <time>2025-09-20T08:38:13Z</time>
      </trkpt>
      <trkpt lat="46.21845" lon="4.6228">
        <ele>808.8</ele>
        <time>2025-09-20T08:38:14Z</time>
      </trkpt>
      <trkpt lat="46.21846" lon="4.62279">
        <ele>809.2</ele>
        <time>2025-09-20T08:38:15Z</time>
      </trkpt>
      <trkpt lat="46.21846" lon="4.62278">
        <ele>809.4</ele>
        <time>2025-09-20T08:38:16Z</time>
      </trkpt>
      <trkpt lat="46.21847" lon="4.62277">
        <ele>809.4</ele>
        <time>2025-09-20T08:38:17Z</time>
      </trkpt>
      <trkpt lat="46.21847" lon="4.62277">
        <ele>809.8</ele>
        <time>2025-09-20T08:38:18Z</time>
      </trkpt>
      <trkpt lat="46.21847" lon="4.62277">
        <ele>809.8</ele>
        <time>2025-09-20T08:38:19Z</time>
      </trkpt>
      <trkpt lat="46.21849" lon="4.62277">
        <ele>810.2</ele>
        <time>2025-09-20T08:38:20Z</time>
      </trkpt>
      <trkpt lat="46.21849" lon="4.62277">
        <ele>810.2</ele>
        <time>2025-09-20T08:38:21Z</time>
      </trkpt>
      <trkpt lat="46.21849" lon="4.62277">
        <ele>810.4</ele>
        <time>2025-09-20T08:38:22Z</time>
      </trkpt>
      <trkpt lat="46.2185" lon="4.62276">
        <ele>810.4</ele>
        <time>2025-09-20T08:38:23Z</time>
      </trkpt>
      <trkpt lat="46.2185" lon="4.62276">
        <ele>810.8</ele>
        <time>2025-09-20T08:38:24Z</time>
      </trkpt>
      <trkpt lat="46.2185" lon="4.62275">
        <ele>810.8</ele>
        <time>2025-09-20T08:38:25Z</time>
      </trkpt>
      <trkpt lat="46.21854" lon="4.62272">
        <ele>813</ele>
        <time>2025-09-20T08:38:32Z</time>
      </trkpt>
      <trkpt lat="46.21855" lon="4.62271">
        <ele>813.2</ele>
        <time>2025-09-20T08:38:33Z</time>
      </trkpt>
      <trkpt lat="46.21857" lon="4.6227">
        <ele>813.2</ele>
        <time>2025-09-20T08:38:34Z</time>
      </trkpt>
      <trkpt lat="46.21859" lon="4.6227">
        <ele>813.4</ele>
        <time>2025-09-20T08:38:35Z</time>
      </trkpt>
      <trkpt lat="46.2186" lon="4.6227">
        <ele>813.6</ele>
        <time>2025-09-20T08:38:36Z</time>
      </trkpt>
      <trkpt lat="46.21861" lon="4.6227">
        <ele>813.8</ele>
        <time>2025-09-20T08:38:37Z</time>
      </trkpt>
      <trkpt lat="46.21862" lon="4.6227">
        <ele>814</ele>
        <time>2025-09-20T08:38:38Z</time>
      </trkpt>
      <trkpt lat="46.21863" lon="4.6227">
        <ele>814</ele>
        <time>2025-09-20T08:38:39Z</time>
      </trkpt>
      <trkpt lat="46.21863" lon="4.62269">
        <ele>814.4</ele>
        <time>2025-09-20T08:38:40Z</time>
      </trkpt>
      <trkpt lat="46.21864" lon="4.62269">
        <ele>814.6</ele>
        <time>2025-09-20T08:38:41Z</time>
      </trkpt>
      <trkpt lat="46.21865" lon="4.62268">
        <ele>814.6</ele>
        <time>2025-09-20T08:38:42Z</time>
      </trkpt>
      <trkpt lat="46.21867" lon="4.62268">
        <ele>814.6</ele>
        <time>2025-09-20T08:38:43Z</time>
      </trkpt>
      <trkpt lat="46.21867" lon="4.62268">
        <ele>814.8</ele>
        <time>2025-09-20T08:38:44Z</time>
      </trkpt>
      <trkpt lat="46.21868" lon="4.62268">
        <ele>814.8</ele>
        <time>2025-09-20T08:38:45Z</time>
      </trkpt>
      <trkpt lat="46.21869" lon="4.62269">
        <ele>815</ele>
        <time>2025-09-20T08:38:46Z</time>
      </trkpt>
      <trkpt lat="46.2187" lon="4.6227">
        <ele>815</ele>
        <time>2025-09-20T08:38:47Z</time>
      </trkpt>
      <trkpt lat="46.2187" lon="4.6227">
        <ele>815.4</ele>
        <time>2025-09-20T08:38:48Z</time>
      </trkpt>
      <trkpt lat="46.21871" lon="4.6227">
        <ele>815.4</ele>
        <time>2025-09-20T08:38:49Z</time>
      </trkpt>
      <trkpt lat="46.21873" lon="4.6227">
        <ele>815.6</ele>
        <time>2025-09-20T08:38:50Z</time>
      </trkpt>
      <trkpt lat="46.21874" lon="4.6227">
        <ele>815.6</ele>
        <time>2025-09-20T08:38:51Z</time>
      </trkpt>
      <trkpt lat="46.21875" lon="4.62271">
        <ele>815.6</ele>
        <time>2025-09-20T08:38:52Z</time>
      </trkpt>
      <trkpt lat="46.21875" lon="4.62271">
        <ele>815.6</ele>
        <time>2025-09-20T08:38:53Z</time>
      </trkpt>
      <trkpt lat="46.21875" lon="4.62271">
        <ele>815.6</ele>
        <time>2025-09-20T08:38:54Z</time>
      </trkpt>
      <trkpt lat="46.2188" lon="4.62273">
        <ele>816.2</ele>
        <time>2025-09-20T08:40:20Z</time>
      </trkpt>
      <trkpt lat="46.21881" lon="4.62273">
        <ele>816.2</ele>
        <time>2025-09-20T08:40:21Z</time>
      </trkpt>
      <trkpt lat="46.21882" lon="4.62273">
        <ele>816.6</ele>
        <time>2025-09-20T08:40:22Z</time>
      </trkpt>
      <trkpt lat="46.21882" lon="4.62273">
        <ele>817.2</ele>
        <time>2025-09-20T08:40:23Z</time>
      </trkpt>
      <trkpt lat="46.21884" lon="4.62272">
        <ele>817.2</ele>
        <time>2025-09-20T08:40:24Z</time>
      </trkpt>
      <trkpt lat="46.21885" lon="4.62272">
        <ele>817.2</ele>
        <time>2025-09-20T08:40:25Z</time>
      </trkpt>
      <trkpt lat="46.21886" lon="4.62271">
        <ele>817.2</ele>
        <time>2025-09-20T08:40:26Z</time>
      </trkpt>
      <trkpt lat="46.21887" lon="4.62271">
        <ele>817.2</ele>
        <time>2025-09-20T08:40:27Z</time>
      </trkpt>
      <trkpt lat="46.21888" lon="4.62272">
        <ele>817.4</ele>
        <time>2025-09-20T08:40:28Z</time>
      </trkpt>
      <trkpt lat="46.21889" lon="4.62272">
        <ele>817.6</ele>
        <time>2025-09-20T08:40:29Z</time>
      </trkpt>
      <trkpt lat="46.2189" lon="4.62272">
        <ele>818</ele>
        <time>2025-09-20T08:40:30Z</time>
      </trkpt>
      <trkpt lat="46.21891" lon="4.62272">
        <ele>818</ele>
        <time>2025-09-20T08:40:31Z</time>
      </trkpt>
      <trkpt lat="46.21893" lon="4.62271">
        <ele>818.4</ele>
        <time>2025-09-20T08:40:32Z</time>
      </trkpt>
      <trkpt lat="46.21894" lon="4.6227">
        <ele>818.4</ele>
        <time>2025-09-20T08:40:33Z</time>
      </trkpt>
      <trkpt lat="46.21895" lon="4.62269">
        <ele>818.6</ele>
        <time>2025-09-20T08:40:34Z</time>
      </trkpt>
      <trkpt lat="46.21896" lon="4.62269">
        <ele>818.6</ele>
        <time>2025-09-20T08:40:35Z</time>
      </trkpt>
      <trkpt lat="46.21897" lon="4.62268">
        <ele>818.8</ele>
        <time>2025-09-20T08:40:36Z</time>
      </trkpt>
      <trkpt lat="46.21898" lon="4.62267">
        <ele>819.2</ele>
        <time>2025-09-20T08:40:37Z</time>
      </trkpt>
      <trkpt lat="46.21899" lon="4.62267">
        <ele>819.2</ele>
        <time>2025-09-20T08:40:38Z</time>
      </trkpt>
      <trkpt lat="46.21899" lon="4.62266">
        <ele>819.8</ele>
        <time>2025-09-20T08:40:39Z</time>
      </trkpt>
      <trkpt lat="46.21901" lon="4.62266">
        <ele>820</ele>
        <time>2025-09-20T08:40:40Z</time>
      </trkpt>
      <trkpt lat="46.21902" lon="4.62266">
        <ele>820.2</ele>
        <time>2025-09-20T08:40:41Z</time>
      </trkpt>
      <trkpt lat="46.21903" lon="4.62266">
        <ele>820.4</ele>
        <time>2025-09-20T08:40:42Z</time>
      </trkpt>
      <trkpt lat="46.21904" lon="4.62266">
        <ele>820.6</ele>
        <time>2025-09-20T08:40:43Z</time>
      </trkpt>
      <trkpt lat="46.21905" lon="4.62266">
        <ele>820.8</ele>
        <time>2025-09-20T08:40:44Z</time>
      </trkpt>
      <trkpt lat="46.21906" lon="4.62266">
        <ele>821.2</ele>
        <time>2025-09-20T08:40:45Z</time>
      </trkpt>
      <trkpt lat="46.21908" lon="4.62266">
        <ele>821.2</ele>
        <time>2025-09-20T08:40:46Z</time>
      </trkpt>
      <trkpt lat="46.21909" lon="4.62267">
        <ele>821.6</ele>
        <time>2025-09-20T08:40:47Z</time>
      </trkpt>
      <trkpt lat="46.21909" lon="4.62268">
        <ele>821.8</ele>
        <time>2025-09-20T08:40:48Z</time>
      </trkpt>
      <trkpt lat="46.2191" lon="4.62268">
        <ele>821.8</ele>
        <time>2025-09-20T08:40:49Z</time>
      </trkpt>
      <trkpt lat="46.21912" lon="4.62269">
        <ele>822.2</ele>
        <time>2025-09-20T08:40:50Z</time>
      </trkpt>
      <trkpt lat="46.21913" lon="4.6227">
        <ele>822.4</ele>
        <time>2025-09-20T08:40:51Z</time>
      </trkpt>
      <trkpt lat="46.21913" lon="4.6227">
        <ele>822.4</ele>
        <time>2025-09-20T08:40:52Z</time>
      </trkpt>
      <trkpt lat="46.21914" lon="4.62271">
        <ele>822.4</ele>
        <time>2025-09-20T08:40:53Z</time>
      </trkpt>
      <trkpt lat="46.21915" lon="4.62272">
        <ele>822.6</ele>
        <time>2025-09-20T08:40:54Z</time>
      </trkpt>
      <trkpt lat="46.21916" lon="4.62273">
        <ele>822.6</ele>
        <time>2025-09-20T08:40:55Z</time>
      </trkpt>
      <trkpt lat="46.21917" lon="4.62274">
        <ele>823</ele>
        <time>2025-09-20T08:40:56Z</time>
      </trkpt>
      <trkpt lat="46.21918" lon="4.62274">
        <ele>823.2</ele>
        <time>2025-09-20T08:40:57Z</time>
      </trkpt>
      <trkpt lat="46.21918" lon="4.62274">
        <ele>823.2</ele>
        <time>2025-09-20T08:40:58Z</time>
      </trkpt>
      <trkpt lat="46.21919" lon="4.62274">
        <ele>823.2</ele>
        <time>2025-09-20T08:40:59Z</time>
      </trkpt>
      <trkpt lat="46.21919" lon="4.62275">
        <ele>823.6</ele>
        <time>2025-09-20T08:41:00Z</time>
      </trkpt>
      <trkpt lat="46.2192" lon="4.62276">
        <ele>823.4</ele>
        <time>2025-09-20T08:41:16Z</time>
      </trkpt>
      <trkpt lat="46.21922" lon="4.62276">
        <ele>823.6</ele>
        <time>2025-09-20T08:41:17Z</time>
      </trkpt>
      <trkpt lat="46.21924" lon="4.62275">
        <ele>823.6</ele>
        <time>2025-09-20T08:41:18Z</time>
      </trkpt>
      <trkpt lat="46.21926" lon="4.62276">
        <ele>824</ele>
        <time>2025-09-20T08:41:19Z</time>
      </trkpt>
      <trkpt lat="46.21927" lon="4.62276">
        <ele>824</ele>
        <time>2025-09-20T08:41:20Z</time>
      </trkpt>
      <trkpt lat="46.21927" lon="4.62277">
        <ele>824.2</ele>
        <time>2025-09-20T08:41:21Z</time>
      </trkpt>
      <trkpt lat="46.21928" lon="4.62277">
        <ele>824.2</ele>
        <time>2025-09-20T08:41:22Z</time>
      </trkpt>
      <trkpt lat="46.21929" lon="4.62279">
        <ele>824.6</ele>
        <time>2025-09-20T08:41:23Z</time>
      </trkpt>
      <trkpt lat="46.21929" lon="4.62281">
        <ele>824.8</ele>
        <time>2025-09-20T08:41:24Z</time>
      </trkpt>
      <trkpt lat="46.2193" lon="4.62282">
        <ele>825.2</ele>
        <time>2025-09-20T08:41:25Z</time>
      </trkpt>
      <trkpt lat="46.21931" lon="4.62284">
        <ele>825.2</ele>
        <time>2025-09-20T08:41:26Z</time>
      </trkpt>
      <trkpt lat="46.21932" lon="4.62285">
        <ele>825.4</ele>
        <time>2025-09-20T08:41:27Z</time>
      </trkpt>
      <trkpt lat="46.21933" lon="4.62286">
        <ele>825.6</ele>
        <time>2025-09-20T08:41:28Z</time>
      </trkpt>
      <trkpt lat="46.21934" lon="4.62286">
        <ele>825.8</ele>
        <time>2025-09-20T08:41:29Z</time>
      </trkpt>
      <trkpt lat="46.21936" lon="4.62287">
        <ele>825.8</ele>
        <time>2025-09-20T08:41:30Z</time>
      </trkpt>
      <trkpt lat="46.21937" lon="4.62287">
        <ele>825.8</ele>
        <time>2025-09-20T08:41:31Z</time>
      </trkpt>
      <trkpt lat="46.21938" lon="4.62287">
        <ele>825.8</ele>
        <time>2025-09-20T08:41:32Z</time>
      </trkpt>
      <trkpt lat="46.21938" lon="4.62286">
        <ele>826.4</ele>
        <time>2025-09-20T08:41:33Z</time>
      </trkpt>
      <trkpt lat="46.2194" lon="4.62286">
        <ele>826.4</ele>
        <time>2025-09-20T08:41:34Z</time>
      </trkpt>
      <trkpt lat="46.21941" lon="4.62286">
        <ele>826.6</ele>
        <time>2025-09-20T08:41:35Z</time>
      </trkpt>
      <trkpt lat="46.21941" lon="4.62286">
        <ele>826.6</ele>
        <time>2025-09-20T08:41:36Z</time>
      </trkpt>
      <trkpt lat="46.21942" lon="4.62286">
        <ele>827</ele>
        <time>2025-09-20T08:41:37Z</time>
      </trkpt>
      <trkpt lat="46.21943" lon="4.62287">
        <ele>827</ele>
        <time>2025-09-20T08:41:38Z</time>
      </trkpt>
      <trkpt lat="46.21945" lon="4.62287">
        <ele>827</ele>
        <time>2025-09-20T08:41:39Z</time>
      </trkpt>
      <trkpt lat="46.21946" lon="4.62287">
        <ele>827</ele>
        <time>2025-09-20T08:41:40Z</time>
      </trkpt>
      <trkpt lat="46.21947" lon="4.62288">
        <ele>827.4</ele>
        <time>2025-09-20T08:41:41Z</time>
      </trkpt>
      <trkpt lat="46.21948" lon="4.62288">
        <ele>827.4</ele>
        <time>2025-09-20T08:41:42Z</time>
      </trkpt>
      <trkpt lat="46.21948" lon="4.62288">
        <ele>827.6</ele>
        <time>2025-09-20T08:41:43Z</time>
      </trkpt>
      <trkpt lat="46.21949" lon="4.62288">
        <ele>827.6</ele>
        <time>2025-09-20T08:41:44Z</time>
      </trkpt>
      <trkpt lat="46.2195" lon="4.62288">
        <ele>827.8</ele>
        <time>2025-09-20T08:41:45Z</time>
      </trkpt>
      <trkpt lat="46.2195" lon="4.62288">
        <ele>827.8</ele>
        <time>2025-09-20T08:41:46Z</time>
      </trkpt>
      <trkpt lat="46.2195" lon="4.62288">
        <ele>828</ele>
        <time>2025-09-20T08:41:47Z</time>
      </trkpt>
      <trkpt lat="46.21952" lon="4.62288">
        <ele>828.2</ele>
        <time>2025-09-20T08:41:52Z</time>
      </trkpt>
      <trkpt lat="46.21954" lon="4.62289">
        <ele>828.2</ele>
        <time>2025-09-20T08:41:53Z</time>
      </trkpt>
      <trkpt lat="46.21955" lon="4.62289">
        <ele>828.6</ele>
        <time>2025-09-20T08:41:54Z</time>
      </trkpt>
      <trkpt lat="46.21958" lon="4.62289">
        <ele>828.6</ele>
        <time>2025-09-20T08:41:55Z</time>
      </trkpt>
      <trkpt lat="46.2196" lon="4.62288">
        <ele>828.8</ele>
        <time>2025-09-20T08:41:56Z</time>
      </trkpt>
      <trkpt lat="46.21961" lon="4.62288">
        <ele>828.8</ele>
        <time>2025-09-20T08:41:57Z</time>
      </trkpt>
      <trkpt lat="46.21962" lon="4.62289">
        <ele>828.8</ele>
        <time>2025-09-20T08:41:58Z</time>
      </trkpt>
      <trkpt lat="46.21964" lon="4.6229">
        <ele>828.8</ele>
        <time>2025-09-20T08:41:59Z</time>
      </trkpt>
      <trkpt lat="46.21965" lon="4.6229">
        <ele>828.8</ele>
        <time>2025-09-20T08:42:00Z</time>
      </trkpt>
      <trkpt lat="46.21967" lon="4.62291">
        <ele>829.2</ele>
        <time>2025-09-20T08:42:01Z</time>
      </trkpt>
      <trkpt lat="46.21968" lon="4.62291">
        <ele>829.2</ele>
        <time>2025-09-20T08:42:02Z</time>
      </trkpt>
      <trkpt lat="46.2197" lon="4.62292">
        <ele>829.2</ele>
        <time>2025-09-20T08:42:03Z</time>
      </trkpt>
      <trkpt lat="46.21972" lon="4.62293">
        <ele>829.2</ele>
        <time>2025-09-20T08:42:04Z</time>
      </trkpt>
      <trkpt lat="46.21973" lon="4.62293">
        <ele>829.2</ele>
        <time>2025-09-20T08:42:05Z</time>
      </trkpt>
      <trkpt lat="46.21975" lon="4.62292">
        <ele>829.6</ele>
        <time>2025-09-20T08:42:06Z</time>
      </trkpt>
      <trkpt lat="46.21976" lon="4.62292">
        <ele>829.6</ele>
        <time>2025-09-20T08:42:07Z</time>
      </trkpt>
      <trkpt lat="46.21978" lon="4.62292">
        <ele>829.6</ele>
        <time>2025-09-20T08:42:08Z</time>
      </trkpt>
      <trkpt lat="46.21979" lon="4.62293">
        <ele>829.6</ele>
        <time>2025-09-20T08:42:09Z</time>
      </trkpt>
      <trkpt lat="46.21981" lon="4.62294">
        <ele>829.8</ele>
        <time>2025-09-20T08:42:10Z</time>
      </trkpt>
      <trkpt lat="46.21982" lon="4.62295">
        <ele>830.2</ele>
        <time>2025-09-20T08:42:11Z</time>
      </trkpt>
      <trkpt lat="46.21983" lon="4.62295">
        <ele>830.2</ele>
        <time>2025-09-20T08:42:12Z</time>
      </trkpt>
      <trkpt lat="46.21985" lon="4.62296">
        <ele>830.2</ele>
        <time>2025-09-20T08:42:13Z</time>
      </trkpt>
      <trkpt lat="46.21986" lon="4.62297">
        <ele>830.2</ele>
        <time>2025-09-20T08:42:14Z</time>
      </trkpt>
      <trkpt lat="46.21988" lon="4.62297">
        <ele>830.2</ele>
        <time>2025-09-20T08:42:15Z</time>
      </trkpt>
      <trkpt lat="46.2199" lon="4.62299">
        <ele>830.4</ele>
        <time>2025-09-20T08:42:16Z</time>
      </trkpt>
      <trkpt lat="46.21993" lon="4.623">
        <ele>830.4</ele>
        <time>2025-09-20T08:42:17Z</time>
      </trkpt>
      <trkpt lat="46.21995" lon="4.623">
        <ele>831</ele>
        <time>2025-09-20T08:42:18Z</time>
      </trkpt>
      <trkpt lat="46.21996" lon="4.623">
        <ele>831</ele>
        <time>2025-09-20T08:42:19Z</time>
      </trkpt>
      <trkpt lat="46.21998" lon="4.62301">
        <ele>831</ele>
        <time>2025-09-20T08:42:20Z</time>
      </trkpt>
      <trkpt lat="46.22" lon="4.62301">
        <ele>831.2</ele>
        <time>2025-09-20T08:42:21Z</time>
      </trkpt>
      <trkpt lat="46.22001" lon="4.62302">
        <ele>831.4</ele>
        <time>2025-09-20T08:42:22Z</time>
      </trkpt>
      <trkpt lat="46.22002" lon="4.62302">
        <ele>831.8</ele>
        <time>2025-09-20T08:42:23Z</time>
      </trkpt>
      <trkpt lat="46.22004" lon="4.62302">
        <ele>832</ele>
        <time>2025-09-20T08:42:24Z</time>
      </trkpt>
      <trkpt lat="46.22005" lon="4.62303">
        <ele>832</ele>
        <time>2025-09-20T08:42:25Z</time>
      </trkpt>
      <trkpt lat="46.22007" lon="4.62303">
        <ele>831.8</ele>
        <time>2025-09-20T08:42:26Z</time>
      </trkpt>
      <trkpt lat="46.22008" lon="4.62303">
        <ele>832</ele>
        <time>2025-09-20T08:42:27Z</time>
      </trkpt>
      <trkpt lat="46.22009" lon="4.62302">
        <ele>832.4</ele>
        <time>2025-09-20T08:42:28Z</time>
      </trkpt>
      <trkpt lat="46.22011" lon="4.62302">
        <ele>832.4</ele>
        <time>2025-09-20T08:42:29Z</time>
      </trkpt>
      <trkpt lat="46.22011" lon="4.62301">
        <ele>832.6</ele>
        <time>2025-09-20T08:42:30Z</time>
      </trkpt>
      <trkpt lat="46.22012" lon="4.62301">
        <ele>832.6</ele>
        <time>2025-09-20T08:42:31Z</time>
      </trkpt>
      <trkpt lat="46.22013" lon="4.62302">
        <ele>833</ele>
        <time>2025-09-20T08:42:32Z</time>
      </trkpt>
      <trkpt lat="46.22015" lon="4.62303">
        <ele>833.2</ele>
        <time>2025-09-20T08:42:33Z</time>
      </trkpt>
      <trkpt lat="46.22017" lon="4.62303">
        <ele>833.2</ele>
        <time>2025-09-20T08:42:34Z</time>
      </trkpt>
      <trkpt lat="46.22018" lon="4.62303">
        <ele>833.4</ele>
        <time>2025-09-20T08:42:35Z</time>
      </trkpt>
      <trkpt lat="46.22019" lon="4.62303">
        <ele>833.8</ele>
        <time>2025-09-20T08:42:36Z</time>
      </trkpt>
      <trkpt lat="46.22021" lon="4.62301">
        <ele>833.8</ele>
        <time>2025-09-20T08:42:37Z</time>
      </trkpt>
      <trkpt lat="46.22022" lon="4.623">
        <ele>834</ele>
        <time>2025-09-20T08:42:38Z</time>
      </trkpt>
      <trkpt lat="46.22024" lon="4.623">
        <ele>834.4</ele>
        <time>2025-09-20T08:42:39Z</time>
      </trkpt>
      <trkpt lat="46.22026" lon="4.623">
        <ele>834.6</ele>
        <time>2025-09-20T08:42:40Z</time>
      </trkpt>
      <trkpt lat="46.22028" lon="4.623">
        <ele>834.6</ele>
        <time>2025-09-20T08:42:41Z</time>
      </trkpt>
      <trkpt lat="46.22029" lon="4.623">
        <ele>834.6</ele>
        <time>2025-09-20T08:42:42Z</time>
      </trkpt>
      <trkpt lat="46.22031" lon="4.623">
        <ele>834.6</ele>
        <time>2025-09-20T08:42:43Z</time>
      </trkpt>
      <trkpt lat="46.22034" lon="4.623">
        <ele>835</ele>
        <time>2025-09-20T08:42:44Z</time>
      </trkpt>
      <trkpt lat="46.22036" lon="4.62299">
        <ele>835</ele>
        <time>2025-09-20T08:42:45Z</time>
      </trkpt>
      <trkpt lat="46.22037" lon="4.62299">
        <ele>835.2</ele>
        <time>2025-09-20T08:42:46Z</time>
      </trkpt>
      <trkpt lat="46.22041" lon="4.62299">
        <ele>835.2</ele>
        <time>2025-09-20T08:42:47Z</time>
      </trkpt>
      <trkpt lat="46.22042" lon="4.62299">
        <ele>835.2</ele>
        <time>2025-09-20T08:42:48Z</time>
      </trkpt>
      <trkpt lat="46.22043" lon="4.62298">
        <ele>835.4</ele>
        <time>2025-09-20T08:42:49Z</time>
      </trkpt>
      <trkpt lat="46.22043" lon="4.62296">
        <ele>836</ele>
        <time>2025-09-20T08:42:50Z</time>
      </trkpt>
      <trkpt lat="46.22045" lon="4.62294">
        <ele>836</ele>
        <time>2025-09-20T08:42:51Z</time>
      </trkpt>
      <trkpt lat="46.22047" lon="4.62293">
        <ele>836.4</ele>
        <time>2025-09-20T08:42:52Z</time>
      </trkpt>
      <trkpt lat="46.22049" lon="4.62293">
        <ele>836.4</ele>
        <time>2025-09-20T08:42:53Z</time>
      </trkpt>
      <trkpt lat="46.22051" lon="4.62293">
        <ele>836.4</ele>
        <time>2025-09-20T08:42:54Z</time>
      </trkpt>
      <trkpt lat="46.22053" lon="4.62293">
        <ele>836.6</ele>
        <time>2025-09-20T08:42:55Z</time>
      </trkpt>
      <trkpt lat="46.22055" lon="4.62293">
        <ele>836.8</ele>
        <time>2025-09-20T08:42:56Z</time>
      </trkpt>
      <trkpt lat="46.22056" lon="4.62293">
        <ele>837</ele>
        <time>2025-09-20T08:42:57Z</time>
      </trkpt>
      <trkpt lat="46.22058" lon="4.62292">
        <ele>837</ele>
        <time>2025-09-20T08:42:58Z</time>
      </trkpt>
      <trkpt lat="46.22059" lon="4.62291">
        <ele>837.4</ele>
        <time>2025-09-20T08:42:59Z</time>
      </trkpt>
      <trkpt lat="46.22061" lon="4.62291">
        <ele>837.4</ele>
        <time>2025-09-20T08:43:00Z</time>
      </trkpt>
      <trkpt lat="46.22063" lon="4.6229">
        <ele>837.6</ele>
        <time>2025-09-20T08:43:01Z</time>
      </trkpt>
      <trkpt lat="46.22065" lon="4.62289">
        <ele>837.6</ele>
        <time>2025-09-20T08:43:02Z</time>
      </trkpt>
      <trkpt lat="46.22066" lon="4.62289">
        <ele>837.6</ele>
        <time>2025-09-20T08:43:03Z</time>
      </trkpt>
      <trkpt lat="46.22068" lon="4.62288">
        <ele>837.8</ele>
        <time>2025-09-20T08:43:04Z</time>
      </trkpt>
      <trkpt lat="46.2207" lon="4.62288">
        <ele>837.8</ele>
        <time>2025-09-20T08:43:05Z</time>
      </trkpt>
      <trkpt lat="46.22072" lon="4.62287">
        <ele>837.8</ele>
        <time>2025-09-20T08:43:06Z</time>
      </trkpt>
      <trkpt lat="46.22075" lon="4.62285">
        <ele>838.2</ele>
        <time>2025-09-20T08:43:07Z</time>
      </trkpt>
      <trkpt lat="46.22077" lon="4.62284">
        <ele>838.2</ele>
        <time>2025-09-20T08:43:08Z</time>
      </trkpt>
      <trkpt lat="46.22078" lon="4.62283">
        <ele>838.2</ele>
        <time>2025-09-20T08:43:09Z</time>
      </trkpt>
      <trkpt lat="46.22079" lon="4.62283">
        <ele>838.2</ele>
        <time>2025-09-20T08:43:10Z</time>
      </trkpt>
      <trkpt lat="46.2208" lon="4.62282">
        <ele>838.4</ele>
        <time>2025-09-20T08:43:11Z</time>
      </trkpt>
      <trkpt lat="46.22082" lon="4.6228">
        <ele>838.4</ele>
        <time>2025-09-20T08:43:12Z</time>
      </trkpt>
      <trkpt lat="46.22084" lon="4.62279">
        <ele>838.2</ele>
        <time>2025-09-20T08:43:13Z</time>
      </trkpt>
      <trkpt lat="46.22086" lon="4.62278">
        <ele>838.2</ele>
        <time>2025-09-20T08:43:14Z</time>
      </trkpt>
      <trkpt lat="46.22087" lon="4.62277">
        <ele>838.2</ele>
        <time>2025-09-20T08:43:15Z</time>
      </trkpt>
      <trkpt lat="46.22089" lon="4.62276">
        <ele>838.2</ele>
        <time>2025-09-20T08:43:16Z</time>
      </trkpt>
      <trkpt lat="46.2209" lon="4.62276">
        <ele>838.2</ele>
        <time>2025-09-20T08:43:17Z</time>
      </trkpt>
      <trkpt lat="46.22091" lon="4.62276">
        <ele>838.2</ele>
        <time>2025-09-20T08:43:18Z</time>
      </trkpt>
      <trkpt lat="46.22092" lon="4.62276">
        <ele>838.2</ele>
        <time>2025-09-20T08:43:19Z</time>
      </trkpt>
      <trkpt lat="46.22093" lon="4.62276">
        <ele>838.6</ele>
        <time>2025-09-20T08:43:20Z</time>
      </trkpt>
      <trkpt lat="46.22094" lon="4.62275">
        <ele>838.6</ele>
        <time>2025-09-20T08:43:21Z</time>
      </trkpt>
      <trkpt lat="46.22094" lon="4.62274">
        <ele>838.6</ele>
        <time>2025-09-20T08:43:22Z</time>
      </trkpt>
      <trkpt lat="46.22094" lon="4.62274">
        <ele>838.6</ele>
        <time>2025-09-20T08:43:23Z</time>
      </trkpt>
      <trkpt lat="46.22094" lon="4.62274">
        <ele>838.6</ele>
        <time>2025-09-20T08:43:24Z</time>
      </trkpt>
      <trkpt lat="46.22094" lon="4.62275">
        <ele>838.6</ele>
        <time>2025-09-20T08:43:25Z</time>
      </trkpt>
      <trkpt lat="46.22103" lon="4.62271">
        <ele>839</ele>
        <time>2025-09-20T08:44:08Z</time>
      </trkpt>
      <trkpt lat="46.22105" lon="4.62271">
        <ele>838.6</ele>
        <time>2025-09-20T08:44:09Z</time>
      </trkpt>
      <trkpt lat="46.22106" lon="4.6227">
        <ele>838.2</ele>
        <time>2025-09-20T08:44:10Z</time>
      </trkpt>
      <trkpt lat="46.22108" lon="4.62269">
        <ele>838.6</ele>
        <time>2025-09-20T08:44:11Z</time>
      </trkpt>
      <trkpt lat="46.22111" lon="4.62268">
        <ele>838.4</ele>
        <time>2025-09-20T08:44:12Z</time>
      </trkpt>
      <trkpt lat="46.22113" lon="4.62267">
        <ele>838.4</ele>
        <time>2025-09-20T08:44:13Z</time>
      </trkpt>
      <trkpt lat="46.22113" lon="4.62267">
        <ele>838</ele>
        <time>2025-09-20T08:44:14Z</time>
      </trkpt>
      <trkpt lat="46.22116" lon="4.62266">
        <ele>838</ele>
        <time>2025-09-20T08:44:15Z</time>
      </trkpt>
      <trkpt lat="46.22118" lon="4.62266">
        <ele>838.8</ele>
        <time>2025-09-20T08:44:16Z</time>
      </trkpt>
      <trkpt lat="46.22121" lon="4.62263">
        <ele>838.8</ele>
        <time>2025-09-20T08:44:17Z</time>
      </trkpt>
      <trkpt lat="46.22124" lon="4.62261">
        <ele>838.4</ele>
        <time>2025-09-20T08:44:18Z</time>
      </trkpt>
      <trkpt lat="46.22124" lon="4.6226">
        <ele>838.4</ele>
        <time>2025-09-20T08:44:19Z</time>
      </trkpt>
      <trkpt lat="46.22125" lon="4.62259">
        <ele>838.4</ele>
        <time>2025-09-20T08:44:20Z</time>
      </trkpt>
      <trkpt lat="46.22127" lon="4.62258">
        <ele>838.4</ele>
        <time>2025-09-20T08:44:21Z</time>
      </trkpt>
      <trkpt lat="46.22129" lon="4.62255">
        <ele>838.6</ele>
        <time>2025-09-20T08:44:22Z</time>
      </trkpt>
      <trkpt lat="46.22131" lon="4.62254">
        <ele>838.6</ele>
        <time>2025-09-20T08:44:23Z</time>
      </trkpt>
      <trkpt lat="46.22133" lon="4.62253">
        <ele>838.6</ele>
        <time>2025-09-20T08:44:24Z</time>
      </trkpt>
      <trkpt lat="46.22136" lon="4.62252">
        <ele>838.4</ele>
        <time>2025-09-20T08:44:25Z</time>
      </trkpt>
      <trkpt lat="46.22138" lon="4.62251">
        <ele>838.4</ele>
        <time>2025-09-20T08:44:26Z</time>
      </trkpt>
      <trkpt lat="46.2214" lon="4.6225">
        <ele>838</ele>
        <time>2025-09-20T08:44:27Z</time>
      </trkpt>
      <trkpt lat="46.22142" lon="4.62249">
        <ele>838</ele>
        <time>2025-09-20T08:44:28Z</time>
      </trkpt>
      <trkpt lat="46.22145" lon="4.62248">
        <ele>837.6</ele>
        <time>2025-09-20T08:44:29Z</time>
      </trkpt>
      <trkpt lat="46.22147" lon="4.62247">
        <ele>837.6</ele>
        <time>2025-09-20T08:44:30Z</time>
      </trkpt>
      <trkpt lat="46.22149" lon="4.62246">
        <ele>837.6</ele>
        <time>2025-09-20T08:44:31Z</time>
      </trkpt>
      <trkpt lat="46.22151" lon="4.62247">
        <ele>837.6</ele>
        <time>2025-09-20T08:44:32Z</time>
      </trkpt>
      <trkpt lat="46.22154" lon="4.62248">
        <ele>837</ele>
        <time>2025-09-20T08:44:33Z</time>
      </trkpt>
      <trkpt lat="46.22156" lon="4.62249">
        <ele>837</ele>
        <time>2025-09-20T08:44:34Z</time>
      </trkpt>
      <trkpt lat="46.22158" lon="4.6225">
        <ele>836.8</ele>
        <time>2025-09-20T08:44:35Z</time>
      </trkpt>
      <trkpt lat="46.2216" lon="4.62251">
        <ele>836.4</ele>
        <time>2025-09-20T08:44:36Z</time>
      </trkpt>
      <trkpt lat="46.22163" lon="4.62252">
        <ele>836</ele>
        <time>2025-09-20T08:44:37Z</time>
      </trkpt>
      <trkpt lat="46.22165" lon="4.62254">
        <ele>836</ele>
        <time>2025-09-20T08:44:38Z</time>
      </trkpt>
      <trkpt lat="46.22167" lon="4.62256">
        <ele>835.6</ele>
        <time>2025-09-20T08:44:39Z</time>
      </trkpt>
      <trkpt lat="46.22169" lon="4.62257">
        <ele>835.6</ele>
        <time>2025-09-20T08:44:40Z</time>
      </trkpt>
      <trkpt lat="46.22171" lon="4.62257">
        <ele>835.6</ele>
        <time>2025-09-20T08:44:41Z</time>
      </trkpt>
      <trkpt lat="46.22173" lon="4.62256">
        <ele>835.6</ele>
        <time>2025-09-20T08:44:42Z</time>
      </trkpt>
      <trkpt lat="46.22174" lon="4.62256">
        <ele>835.6</ele>
        <time>2025-09-20T08:44:43Z</time>
      </trkpt>
      <trkpt lat="46.22175" lon="4.62256">
        <ele>835.6</ele>
        <time>2025-09-20T08:44:44Z</time>
      </trkpt>
      <trkpt lat="46.22175" lon="4.62256">
        <ele>835.6</ele>
        <time>2025-09-20T08:44:45Z</time>
      </trkpt>
      <trkpt lat="46.22175" lon="4.62256">
        <ele>835.6</ele>
        <time>2025-09-20T08:44:46Z</time>
      </trkpt>
      <trkpt lat="46.22176" lon="4.62256">
        <ele>835.4</ele>
        <time>2025-09-20T08:44:53Z</time>
      </trkpt>
      <trkpt lat="46.22178" lon="4.62256">
        <ele>835.4</ele>
        <time>2025-09-20T08:44:54Z</time>
      </trkpt>
      <trkpt lat="46.22179" lon="4.62256">
        <ele>835.4</ele>
        <time>2025-09-20T08:44:55Z</time>
      </trkpt>
      <trkpt lat="46.2218" lon="4.62257">
        <ele>835.4</ele>
        <time>2025-09-20T08:44:56Z</time>
      </trkpt>
      <trkpt lat="46.22181" lon="4.62257">
        <ele>835.4</ele>
        <time>2025-09-20T08:44:57Z</time>
      </trkpt>
      <trkpt lat="46.2218" lon="4.62258">
        <ele>835.4</ele>
        <time>2025-09-20T08:44:58Z</time>
      </trkpt>
      <trkpt lat="46.2218" lon="4.62258">
        <ele>835.4</ele>
        <time>2025-09-20T08:45:03Z</time>
      </trkpt>
      <trkpt lat="46.22181" lon="4.62257">
        <ele>835.4</ele>
        <time>2025-09-20T08:45:04Z</time>
      </trkpt>
      <trkpt lat="46.22181" lon="4.62254">
        <ele>835.4</ele>
        <time>2025-09-20T08:45:05Z</time>
      </trkpt>
      <trkpt lat="46.22181" lon="4.62253">
        <ele>834.6</ele>
        <time>2025-09-20T08:45:06Z</time>
      </trkpt>
      <trkpt lat="46.22181" lon="4.6225">
        <ele>834</ele>
        <time>2025-09-20T08:45:07Z</time>
      </trkpt>
      <trkpt lat="46.22181" lon="4.62247">
        <ele>834.2</ele>
        <time>2025-09-20T08:45:08Z</time>
      </trkpt>
      <trkpt lat="46.22181" lon="4.62244">
        <ele>834.2</ele>
        <time>2025-09-20T08:45:09Z</time>
      </trkpt>
      <trkpt lat="46.22181" lon="4.62242">
        <ele>834.6</ele>
        <time>2025-09-20T08:45:10Z</time>
      </trkpt>
      <trkpt lat="46.22181" lon="4.62239">
        <ele>834.8</ele>
        <time>2025-09-20T08:45:11Z</time>
      </trkpt>
      <trkpt lat="46.22182" lon="4.62234">
        <ele>834.8</ele>
        <time>2025-09-20T08:45:12Z</time>
      </trkpt>
      <trkpt lat="46.22181" lon="4.6223">
        <ele>834.8</ele>
        <time>2025-09-20T08:45:13Z</time>
      </trkpt>
      <trkpt lat="46.2218" lon="4.62226">
        <ele>834.8</ele>
        <time>2025-09-20T08:45:14Z</time>
      </trkpt>
      <trkpt lat="46.22179" lon="4.62224">
        <ele>835.2</ele>
        <time>2025-09-20T08:45:15Z</time>
      </trkpt>
      <trkpt lat="46.22179" lon="4.62223">
        <ele>835.2</ele>
        <time>2025-09-20T08:45:16Z</time>
      </trkpt>
      <trkpt lat="46.22179" lon="4.62223">
        <ele>835.2</ele>
        <time>2025-09-20T08:45:17Z</time>
      </trkpt>
      <trkpt lat="46.22179" lon="4.62214">
        <ele>834.8</ele>
        <time>2025-09-20T08:46:09Z</time>
      </trkpt>
      <trkpt lat="46.22179" lon="4.62212">
        <ele>834.8</ele>
        <time>2025-09-20T08:46:10Z</time>
      </trkpt>
      <trkpt lat="46.22179" lon="4.62211">
        <ele>834.8</ele>
        <time>2025-09-20T08:46:11Z</time>
      </trkpt>
      <trkpt lat="46.22179" lon="4.62207">
        <ele>834.8</ele>
        <time>2025-09-20T08:46:12Z</time>
      </trkpt>
      <trkpt lat="46.22178" lon="4.62203">
        <ele>834.8</ele>
        <time>2025-09-20T08:46:13Z</time>
      </trkpt>
      <trkpt lat="46.22178" lon="4.622">
        <ele>834.8</ele>
        <time>2025-09-20T08:46:14Z</time>
      </trkpt>
      <trkpt lat="46.22178" lon="4.62197">
        <ele>834.8</ele>
        <time>2025-09-20T08:46:15Z</time>
      </trkpt>
      <trkpt lat="46.22179" lon="4.62194">
        <ele>834.8</ele>
        <time>2025-09-20T08:46:16Z</time>
      </trkpt>
      <trkpt lat="46.2218" lon="4.62191">
        <ele>834.8</ele>
        <time>2025-09-20T08:46:17Z</time>
      </trkpt>
      <trkpt lat="46.22181" lon="4.62188">
        <ele>835</ele>
        <time>2025-09-20T08:46:18Z</time>
      </trkpt>
      <trkpt lat="46.22181" lon="4.62184">
        <ele>835</ele>
        <time>2025-09-20T08:46:19Z</time>
      </trkpt>
      <trkpt lat="46.22182" lon="4.62181">
        <ele>834.8</ele>
        <time>2025-09-20T08:46:20Z</time>
      </trkpt>
      <trkpt lat="46.22181" lon="4.62178">
        <ele>834.8</ele>
        <time>2025-09-20T08:46:21Z</time>
      </trkpt>
      <trkpt lat="46.22181" lon="4.62175">
        <ele>834.8</ele>
        <time>2025-09-20T08:46:22Z</time>
      </trkpt>
      <trkpt lat="46.22181" lon="4.62173">
        <ele>835</ele>
        <time>2025-09-20T08:46:23Z</time>
      </trkpt>
      <trkpt lat="46.2218" lon="4.62172">
        <ele>835</ele>
        <time>2025-09-20T08:46:24Z</time>
      </trkpt>
      <trkpt lat="46.2218" lon="4.6217">
        <ele>835</ele>
        <time>2025-09-20T08:46:25Z</time>
      </trkpt>
      <trkpt lat="46.2218" lon="4.62169">
        <ele>835</ele>
        <time>2025-09-20T08:46:26Z</time>
      </trkpt>
      <trkpt lat="46.22181" lon="4.62168">
        <ele>835</ele>
        <time>2025-09-20T08:46:27Z</time>
      </trkpt>
      <trkpt lat="46.22182" lon="4.62168">
        <ele>835.4</ele>
        <time>2025-09-20T08:47:08Z</time>
      </trkpt>
      <trkpt lat="46.22183" lon="4.62166">
        <ele>835.4</ele>
        <time>2025-09-20T08:47:09Z</time>
      </trkpt>
      <trkpt lat="46.22182" lon="4.62163">
        <ele>835.4</ele>
        <time>2025-09-20T08:47:10Z</time>
      </trkpt>
      <trkpt lat="46.22182" lon="4.6216">
        <ele>835</ele>
        <time>2025-09-20T08:47:11Z</time>
      </trkpt>
      <trkpt lat="46.22182" lon="4.62158">
        <ele>835.6</ele>
        <time>2025-09-20T08:47:12Z</time>
      </trkpt>
      <trkpt lat="46.22181" lon="4.62155">
        <ele>835.6</ele>
        <time>2025-09-20T08:47:13Z</time>
      </trkpt>
      <trkpt lat="46.22182" lon="4.62151">
        <ele>835.6</ele>
        <time>2025-09-20T08:47:14Z</time>
      </trkpt>
      <trkpt lat="46.22181" lon="4.62147">
        <ele>835.6</ele>
        <time>2025-09-20T08:47:15Z</time>
      </trkpt>
      <trkpt lat="46.22181" lon="4.62142">
        <ele>835</ele>
        <time>2025-09-20T08:47:16Z</time>
      </trkpt>
      <trkpt lat="46.22181" lon="4.62138">
        <ele>835.4</ele>
        <time>2025-09-20T08:47:17Z</time>
      </trkpt>
      <trkpt lat="46.22181" lon="4.62135">
        <ele>834.8</ele>
        <time>2025-09-20T08:47:18Z</time>
      </trkpt>
      <trkpt lat="46.22182" lon="4.62133">
        <ele>835</ele>
        <time>2025-09-20T08:47:19Z</time>
      </trkpt>
      <trkpt lat="46.22182" lon="4.6213">
        <ele>834.8</ele>
        <time>2025-09-20T08:47:20Z</time>
      </trkpt>
      <trkpt lat="46.22183" lon="4.62125">
        <ele>835</ele>
        <time>2025-09-20T08:47:21Z</time>
      </trkpt>
      <trkpt lat="46.22182" lon="4.6212">
        <ele>835.2</ele>
        <time>2025-09-20T08:47:22Z</time>
      </trkpt>
      <trkpt lat="46.22181" lon="4.62115">
        <ele>835.2</ele>
        <time>2025-09-20T08:47:23Z</time>
      </trkpt>
      <trkpt lat="46.2218" lon="4.62111">
        <ele>835.6</ele>
        <time>2025-09-20T08:47:24Z</time>
      </trkpt>
      <trkpt lat="46.22181" lon="4.62106">
        <ele>835.6</ele>
        <time>2025-09-20T08:47:25Z</time>
      </trkpt>
      <trkpt lat="46.2218" lon="4.62102">
        <ele>835.6</ele>
        <time>2025-09-20T08:47:26Z</time>
      </trkpt>
      <trkpt lat="46.2218" lon="4.62098">
        <ele>835.6</ele>
        <time>2025-09-20T08:47:27Z</time>
      </trkpt>
      <trkpt lat="46.22179" lon="4.62094">
        <ele>835.8</ele>
        <time>2025-09-20T08:47:28Z</time>
      </trkpt>
      <trkpt lat="46.22179" lon="4.62089">
        <ele>835.8</ele>
        <time>2025-09-20T08:47:29Z</time>
      </trkpt>
      <trkpt lat="46.22179" lon="4.62085">
        <ele>836.6</ele>
        <time>2025-09-20T08:47:30Z</time>
      </trkpt>
      <trkpt lat="46.2218" lon="4.6208">
        <ele>836.6</ele>
        <time>2025-09-20T08:47:31Z</time>
      </trkpt>
      <trkpt lat="46.22181" lon="4.62076">
        <ele>836.6</ele>
        <time>2025-09-20T08:47:32Z</time>
      </trkpt>
      <trkpt lat="46.22181" lon="4.62073">
        <ele>836.6</ele>
        <time>2025-09-20T08:47:33Z</time>
      </trkpt>
      <trkpt lat="46.22181" lon="4.6207">
        <ele>836.8</ele>
        <time>2025-09-20T08:47:34Z</time>
      </trkpt>
      <trkpt lat="46.22181" lon="4.62068">
        <ele>836.8</ele>
        <time>2025-09-20T08:47:35Z</time>
      </trkpt>
      <trkpt lat="46.2218" lon="4.62065">
        <ele>837.4</ele>
        <time>2025-09-20T08:47:36Z</time>
      </trkpt>
      <trkpt lat="46.22179" lon="4.62061">
        <ele>837.4</ele>
        <time>2025-09-20T08:47:37Z</time>
      </trkpt>
      <trkpt lat="46.22178" lon="4.62057">
        <ele>837.2</ele>
        <time>2025-09-20T08:47:38Z</time>
      </trkpt>
      <trkpt lat="46.22178" lon="4.62053">
        <ele>837.2</ele>
        <time>2025-09-20T08:47:39Z</time>
      </trkpt>
      <trkpt lat="46.22178" lon="4.6205">
        <ele>837.4</ele>
        <time>2025-09-20T08:47:40Z</time>
      </trkpt>
      <trkpt lat="46.22178" lon="4.62046">
        <ele>837.2</ele>
        <time>2025-09-20T08:47:41Z</time>
      </trkpt>
      <trkpt lat="46.22178" lon="4.62043">
        <ele>837.2</ele>
        <time>2025-09-20T08:47:42Z</time>
      </trkpt>
      <trkpt lat="46.22178" lon="4.62041">
        <ele>837.2</ele>
        <time>2025-09-20T08:47:43Z</time>
      </trkpt>
      <trkpt lat="46.22178" lon="4.62038">
        <ele>837.6</ele>
        <time>2025-09-20T08:47:44Z</time>
      </trkpt>
      <trkpt lat="46.22179" lon="4.62035">
        <ele>837.6</ele>
        <time>2025-09-20T08:47:45Z</time>
      </trkpt>
      <trkpt lat="46.22178" lon="4.62031">
        <ele>837.6</ele>
        <time>2025-09-20T08:47:46Z</time>
      </trkpt>
      <trkpt lat="46.22179" lon="4.62027">
        <ele>837.8</ele>
        <time>2025-09-20T08:47:47Z</time>
      </trkpt>
      <trkpt lat="46.22178" lon="4.62022">
        <ele>837.6</ele>
        <time>2025-09-20T08:47:48Z</time>
      </trkpt>
      <trkpt lat="46.22178" lon="4.62018">
        <ele>837.6</ele>
        <time>2025-09-20T08:47:49Z</time>
      </trkpt>
      <trkpt lat="46.22177" lon="4.62015">
        <ele>837</ele>
        <time>2025-09-20T08:47:50Z</time>
      </trkpt>
      <trkpt lat="46.22176" lon="4.62011">
        <ele>837</ele>
        <time>2025-09-20T08:47:51Z</time>
      </trkpt>
      <trkpt lat="46.22174" lon="4.62007">
        <ele>837.2</ele>
        <time>2025-09-20T08:47:52Z</time>
      </trkpt>
      <trkpt lat="46.22172" lon="4.62002">
        <ele>837.2</ele>
        <time>2025-09-20T08:47:53Z</time>
      </trkpt>
      <trkpt lat="46.22171" lon="4.61999">
        <ele>837.2</ele>
        <time>2025-09-20T08:47:54Z</time>
      </trkpt>
      <trkpt lat="46.22171" lon="4.61995">
        <ele>836.8</ele>
        <time>2025-09-20T08:47:55Z</time>
      </trkpt>
      <trkpt lat="46.2217" lon="4.61991">
        <ele>836.6</ele>
        <time>2025-09-20T08:47:56Z</time>
      </trkpt>
      <trkpt lat="46.22169" lon="4.61987">
        <ele>836.6</ele>
        <time>2025-09-20T08:47:57Z</time>
      </trkpt>
      <trkpt lat="46.22167" lon="4.61984">
        <ele>837</ele>
        <time>2025-09-20T08:47:58Z</time>
      </trkpt>
      <trkpt lat="46.22164" lon="4.61981">
        <ele>837</ele>
        <time>2025-09-20T08:47:59Z</time>
      </trkpt>
      <trkpt lat="46.22162" lon="4.61978">
        <ele>837</ele>
        <time>2025-09-20T08:48:00Z</time>
      </trkpt>
      <trkpt lat="46.22161" lon="4.61977">
        <ele>837</ele>
        <time>2025-09-20T08:48:01Z</time>
      </trkpt>
      <trkpt lat="46.22161" lon="4.61975">
        <ele>836.6</ele>
        <time>2025-09-20T08:48:02Z</time>
      </trkpt>
      <trkpt lat="46.22159" lon="4.61972">
        <ele>836.6</ele>
        <time>2025-09-20T08:48:03Z</time>
      </trkpt>
      <trkpt lat="46.22156" lon="4.61968">
        <ele>836.6</ele>
        <time>2025-09-20T08:48:04Z</time>
      </trkpt>
      <trkpt lat="46.22155" lon="4.61966">
        <ele>836.6</ele>
        <time>2025-09-20T08:48:05Z</time>
      </trkpt>
      <trkpt lat="46.22153" lon="4.61963">
        <ele>836.6</ele>
        <time>2025-09-20T08:48:06Z</time>
      </trkpt>
      <trkpt lat="46.22151" lon="4.61961">
        <ele>837</ele>
        <time>2025-09-20T08:48:07Z</time>
      </trkpt>
      <trkpt lat="46.22148" lon="4.61959">
        <ele>837.6</ele>
        <time>2025-09-20T08:48:08Z</time>
      </trkpt>
      <trkpt lat="46.22146" lon="4.61957">
        <ele>837</ele>
        <time>2025-09-20T08:48:09Z</time>
      </trkpt>
      <trkpt lat="46.22143" lon="4.61955">
        <ele>836.4</ele>
        <time>2025-09-20T08:48:10Z</time>
      </trkpt>
      <trkpt lat="46.22141" lon="4.61954">
        <ele>836.4</ele>
        <time>2025-09-20T08:48:11Z</time>
      </trkpt>
      <trkpt lat="46.22139" lon="4.61952">
        <ele>836.2</ele>
        <time>2025-09-20T08:48:12Z</time>
      </trkpt>
      <trkpt lat="46.22136" lon="4.6195">
        <ele>836.2</ele>
        <time>2025-09-20T08:48:13Z</time>
      </trkpt>
      <trkpt lat="46.22133" lon="4.61948">
        <ele>835.6</ele>
        <time>2025-09-20T08:48:14Z</time>
      </trkpt>
      <trkpt lat="46.2213" lon="4.61947">
        <ele>836</ele>
        <time>2025-09-20T08:48:15Z</time>
      </trkpt>
      <trkpt lat="46.22127" lon="4.61946">
        <ele>836</ele>
        <time>2025-09-20T08:48:16Z</time>
      </trkpt>
      <trkpt lat="46.22125" lon="4.61945">
        <ele>835.6</ele>
        <time>2025-09-20T08:48:17Z</time>
      </trkpt>
      <trkpt lat="46.22123" lon="4.61944">
        <ele>835.6</ele>
        <time>2025-09-20T08:48:18Z</time>
      </trkpt>
      <trkpt lat="46.2212" lon="4.61943">
        <ele>835.6</ele>
        <time>2025-09-20T08:48:19Z</time>
      </trkpt>
      <trkpt lat="46.22118" lon="4.61942">
        <ele>835.6</ele>
        <time>2025-09-20T08:48:20Z</time>
      </trkpt>
      <trkpt lat="46.22117" lon="4.61941">
        <ele>835.6</ele>
        <time>2025-09-20T08:48:21Z</time>
      </trkpt>
      <trkpt lat="46.22115" lon="4.6194">
        <ele>835</ele>
        <time>2025-09-20T08:48:22Z</time>
      </trkpt>
      <trkpt lat="46.22113" lon="4.61939">
        <ele>835.4</ele>
        <time>2025-09-20T08:48:23Z</time>
      </trkpt>
      <trkpt lat="46.22111" lon="4.61938">
        <ele>835.4</ele>
        <time>2025-09-20T08:48:24Z</time>
      </trkpt>
      <trkpt lat="46.22109" lon="4.61937">
        <ele>835.4</ele>
        <time>2025-09-20T08:48:25Z</time>
      </trkpt>
      <trkpt lat="46.22107" lon="4.61935">
        <ele>835.4</ele>
        <time>2025-09-20T08:48:26Z</time>
      </trkpt>
      <trkpt lat="46.22105" lon="4.61933">
        <ele>835.4</ele>
        <time>2025-09-20T08:48:27Z</time>
      </trkpt>
      <trkpt lat="46.22102" lon="4.61931">
        <ele>835.4</ele>
        <time>2025-09-20T08:48:28Z</time>
      </trkpt>
      <trkpt lat="46.221" lon="4.61929">
        <ele>835.6</ele>
        <time>2025-09-20T08:48:29Z</time>
      </trkpt>
      <trkpt lat="46.22098" lon="4.61929">
        <ele>835.6</ele>
        <time>2025-09-20T08:48:30Z</time>
      </trkpt>
      <trkpt lat="46.22096" lon="4.61929">
        <ele>835.2</ele>
        <time>2025-09-20T08:48:31Z</time>
      </trkpt>
      <trkpt lat="46.22093" lon="4.61929">
        <ele>835.2</ele>
        <time>2025-09-20T08:48:32Z</time>
      </trkpt>
      <trkpt lat="46.22091" lon="4.61929">
        <ele>835.2</ele>
        <time>2025-09-20T08:48:33Z</time>
      </trkpt>
      <trkpt lat="46.22089" lon="4.61929">
        <ele>835.2</ele>
        <time>2025-09-20T08:48:34Z</time>
      </trkpt>
      <trkpt lat="46.22088" lon="4.61929">
        <ele>835.2</ele>
        <time>2025-09-20T08:48:35Z</time>
      </trkpt>
      <trkpt lat="46.22086" lon="4.6193">
        <ele>835</ele>
        <time>2025-09-20T08:48:36Z</time>
      </trkpt>
      <trkpt lat="46.22084" lon="4.61931">
        <ele>835</ele>
        <time>2025-09-20T08:48:37Z</time>
      </trkpt>
      <trkpt lat="46.22081" lon="4.61931">
        <ele>835</ele>
        <time>2025-09-20T08:48:38Z</time>
      </trkpt>
      <trkpt lat="46.22078" lon="4.61932">
        <ele>835</ele>
        <time>2025-09-20T08:48:39Z</time>
      </trkpt>
      <trkpt lat="46.22077" lon="4.61932">
        <ele>835</ele>
        <time>2025-09-20T08:48:40Z</time>
      </trkpt>
      <trkpt lat="46.22074" lon="4.61932">
        <ele>835</ele>
        <time>2025-09-20T08:48:41Z</time>
      </trkpt>
      <trkpt lat="46.22072" lon="4.61932">
        <ele>835.2</ele>
        <time>2025-09-20T08:48:42Z</time>
      </trkpt>
      <trkpt lat="46.2207" lon="4.61932">
        <ele>835.2</ele>
        <time>2025-09-20T08:48:43Z</time>
      </trkpt>
      <trkpt lat="46.22069" lon="4.61932">
        <ele>835.2</ele>
        <time>2025-09-20T08:48:44Z</time>
      </trkpt>
      <trkpt lat="46.22067" lon="4.6193">
        <ele>835.2</ele>
        <time>2025-09-20T08:48:45Z</time>
      </trkpt>
      <trkpt lat="46.22065" lon="4.61929">
        <ele>835</ele>
        <time>2025-09-20T08:48:46Z</time>
      </trkpt>
      <trkpt lat="46.22062" lon="4.61928">
        <ele>835</ele>
        <time>2025-09-20T08:48:47Z</time>
      </trkpt>
      <trkpt lat="46.2206" lon="4.61928">
        <ele>834.4</ele>
        <time>2025-09-20T08:48:48Z</time>
      </trkpt>
      <trkpt lat="46.22058" lon="4.61929">
        <ele>834.4</ele>
        <time>2025-09-20T08:48:49Z</time>
      </trkpt>
      <trkpt lat="46.22056" lon="4.61929">
        <ele>834.2</ele>
        <time>2025-09-20T08:48:50Z</time>
      </trkpt>
      <trkpt lat="46.22054" lon="4.61928">
        <ele>834.2</ele>
        <time>2025-09-20T08:48:51Z</time>
      </trkpt>
      <trkpt lat="46.22052" lon="4.61928">
        <ele>833.6</ele>
        <time>2025-09-20T08:48:52Z</time>
      </trkpt>
      <trkpt lat="46.2205" lon="4.61928">
        <ele>833.2</ele>
        <time>2025-09-20T08:48:53Z</time>
      </trkpt>
      <trkpt lat="46.22047" lon="4.61929">
        <ele>833.2</ele>
        <time>2025-09-20T08:48:54Z</time>
      </trkpt>
      <trkpt lat="46.22044" lon="4.61929">
        <ele>832.8</ele>
        <time>2025-09-20T08:48:55Z</time>
      </trkpt>
      <trkpt lat="46.22042" lon="4.61929">
        <ele>832.6</ele>
        <time>2025-09-20T08:48:56Z</time>
      </trkpt>
      <trkpt lat="46.22041" lon="4.61929">
        <ele>832.6</ele>
        <time>2025-09-20T08:48:57Z</time>
      </trkpt>
      <trkpt lat="46.22039" lon="4.61929">
        <ele>833.4</ele>
        <time>2025-09-20T08:48:58Z</time>
      </trkpt>
      <trkpt lat="46.22036" lon="4.61928">
        <ele>832.8</ele>
        <time>2025-09-20T08:48:59Z</time>
      </trkpt>
      <trkpt lat="46.22033" lon="4.61927">
        <ele>832.8</ele>
        <time>2025-09-20T08:49:00Z</time>
      </trkpt>
      <trkpt lat="46.2203" lon="4.61927">
        <ele>832.8</ele>
        <time>2025-09-20T08:49:01Z</time>
      </trkpt>
      <trkpt lat="46.22028" lon="4.61926">
        <ele>832.8</ele>
        <time>2025-09-20T08:49:02Z</time>
      </trkpt>
      <trkpt lat="46.22025" lon="4.61925">
        <ele>832.8</ele>
        <time>2025-09-20T08:49:03Z</time>
      </trkpt>
      <trkpt lat="46.22023" lon="4.61925">
        <ele>832.2</ele>
        <time>2025-09-20T08:49:04Z</time>
      </trkpt>
      <trkpt lat="46.22021" lon="4.61924">
        <ele>832</ele>
        <time>2025-09-20T08:49:05Z</time>
      </trkpt>
      <trkpt lat="46.2202" lon="4.61922">
        <ele>831.6</ele>
        <time>2025-09-20T08:49:06Z</time>
      </trkpt>
      <trkpt lat="46.22018" lon="4.61919">
        <ele>831.4</ele>
        <time>2025-09-20T08:49:07Z</time>
      </trkpt>
      <trkpt lat="46.22016" lon="4.61916">
        <ele>831.4</ele>
        <time>2025-09-20T08:49:08Z</time>
      </trkpt>
      <trkpt lat="46.22014" lon="4.61914">
        <ele>830.6</ele>
        <time>2025-09-20T08:49:09Z</time>
      </trkpt>
      <trkpt lat="46.22011" lon="4.61913">
        <ele>830.2</ele>
        <time>2025-09-20T08:49:10Z</time>
      </trkpt>
      <trkpt lat="46.22008" lon="4.61913">
        <ele>830.2</ele>
        <time>2025-09-20T08:49:11Z</time>
      </trkpt>
      <trkpt lat="46.22005" lon="4.61913">
        <ele>829.8</ele>
        <time>2025-09-20T08:49:12Z</time>
      </trkpt>
      <trkpt lat="46.22002" lon="4.61912">
        <ele>829.6</ele>
        <time>2025-09-20T08:49:13Z</time>
      </trkpt>
      <trkpt lat="46.21999" lon="4.61911">
        <ele>829.6</ele>
        <time>2025-09-20T08:49:14Z</time>
      </trkpt>
      <trkpt lat="46.21996" lon="4.6191">
        <ele>829.6</ele>
        <time>2025-09-20T08:49:15Z</time>
      </trkpt>
      <trkpt lat="46.21992" lon="4.61909">
        <ele>829</ele>
        <time>2025-09-20T08:49:16Z</time>
      </trkpt>
      <trkpt lat="46.21989" lon="4.61909">
        <ele>829</ele>
        <time>2025-09-20T08:49:17Z</time>
      </trkpt>
      <trkpt lat="46.21985" lon="4.61909">
        <ele>829</ele>
        <time>2025-09-20T08:49:18Z</time>
      </trkpt>
      <trkpt lat="46.21981" lon="4.61909">
        <ele>828.4</ele>
        <time>2025-09-20T08:49:19Z</time>
      </trkpt>
      <trkpt lat="46.21979" lon="4.61909">
        <ele>827.6</ele>
        <time>2025-09-20T08:49:20Z</time>
      </trkpt>
      <trkpt lat="46.21976" lon="4.61909">
        <ele>827</ele>
        <time>2025-09-20T08:49:21Z</time>
      </trkpt>
      <trkpt lat="46.21975" lon="4.61909">
        <ele>826.6</ele>
        <time>2025-09-20T08:49:22Z</time>
      </trkpt>
      <trkpt lat="46.21973" lon="4.61908">
        <ele>826.2</ele>
        <time>2025-09-20T08:49:23Z</time>
      </trkpt>
      <trkpt lat="46.21971" lon="4.61908">
        <ele>825.8</ele>
        <time>2025-09-20T08:49:24Z</time>
      </trkpt>
      <trkpt lat="46.21969" lon="4.61908">
        <ele>825.8</ele>
        <time>2025-09-20T08:49:25Z</time>
      </trkpt>
      <trkpt lat="46.21968" lon="4.61908">
        <ele>825</ele>
        <time>2025-09-20T08:49:26Z</time>
      </trkpt>
      <trkpt lat="46.21964" lon="4.6191">
        <ele>825</ele>
        <time>2025-09-20T08:49:27Z</time>
      </trkpt>
      <trkpt lat="46.21963" lon="4.61911">
        <ele>824.6</ele>
        <time>2025-09-20T08:49:28Z</time>
      </trkpt>
      <trkpt lat="46.2196" lon="4.61912">
        <ele>824.4</ele>
        <time>2025-09-20T08:49:29Z</time>
      </trkpt>
      <trkpt lat="46.21958" lon="4.61914">
        <ele>824</ele>
        <time>2025-09-20T08:49:30Z</time>
      </trkpt>
      <trkpt lat="46.21956" lon="4.61915">
        <ele>824</ele>
        <time>2025-09-20T08:49:31Z</time>
      </trkpt>
      <trkpt lat="46.21954" lon="4.61916">
        <ele>823.6</ele>
        <time>2025-09-20T08:49:32Z</time>
      </trkpt>
      <trkpt lat="46.21952" lon="4.61917">
        <ele>823.6</ele>
        <time>2025-09-20T08:49:33Z</time>
      </trkpt>
      <trkpt lat="46.2195" lon="4.61917">
        <ele>823</ele>
        <time>2025-09-20T08:49:34Z</time>
      </trkpt>
      <trkpt lat="46.21948" lon="4.61918">
        <ele>822.2</ele>
        <time>2025-09-20T08:49:35Z</time>
      </trkpt>
      <trkpt lat="46.21946" lon="4.61918">
        <ele>822.2</ele>
        <time>2025-09-20T08:49:36Z</time>
      </trkpt>
      <trkpt lat="46.21944" lon="4.61918">
        <ele>821.8</ele>
        <time>2025-09-20T08:49:37Z</time>
      </trkpt>
      <trkpt lat="46.21942" lon="4.61918">
        <ele>821.8</ele>
        <time>2025-09-20T08:49:38Z</time>
      </trkpt>
      <trkpt lat="46.2194" lon="4.61919">
        <ele>821.4</ele>
        <time>2025-09-20T08:49:39Z</time>
      </trkpt>
      <trkpt lat="46.21937" lon="4.6192">
        <ele>820.8</ele>
        <time>2025-09-20T08:49:40Z</time>
      </trkpt>
      <trkpt lat="46.21935" lon="4.6192">
        <ele>820</ele>
        <time>2025-09-20T08:49:41Z</time>
      </trkpt>
      <trkpt lat="46.21933" lon="4.61921">
        <ele>819.6</ele>
        <time>2025-09-20T08:49:42Z</time>
      </trkpt>
      <trkpt lat="46.21931" lon="4.61921">
        <ele>818.8</ele>
        <time>2025-09-20T08:49:43Z</time>
      </trkpt>
      <trkpt lat="46.21928" lon="4.61922">
        <ele>818.2</ele>
        <time>2025-09-20T08:49:44Z</time>
      </trkpt>
      <trkpt lat="46.21925" lon="4.61922">
        <ele>818</ele>
        <time>2025-09-20T08:49:45Z</time>
      </trkpt>
      <trkpt lat="46.21923" lon="4.61923">
        <ele>817.6</ele>
        <time>2025-09-20T08:49:46Z</time>
      </trkpt>
      <trkpt lat="46.2192" lon="4.61923">
        <ele>817.4</ele>
        <time>2025-09-20T08:49:47Z</time>
      </trkpt>
      <trkpt lat="46.21918" lon="4.61924">
        <ele>817</ele>
        <time>2025-09-20T08:49:48Z</time>
      </trkpt>
      <trkpt lat="46.21917" lon="4.61924">
        <ele>816.6</ele>
        <time>2025-09-20T08:49:49Z</time>
      </trkpt>
      <trkpt lat="46.21915" lon="4.61925">
        <ele>816.2</ele>
        <time>2025-09-20T08:49:50Z</time>
      </trkpt>
      <trkpt lat="46.21913" lon="4.61925">
        <ele>816</ele>
        <time>2025-09-20T08:49:51Z</time>
      </trkpt>
      <trkpt lat="46.21911" lon="4.61926">
        <ele>815.4</ele>
        <time>2025-09-20T08:49:52Z</time>
      </trkpt>
      <trkpt lat="46.2191" lon="4.61927">
        <ele>815.4</ele>
        <time>2025-09-20T08:49:53Z</time>
      </trkpt>
      <trkpt lat="46.21908" lon="4.61927">
        <ele>815.2</ele>
        <time>2025-09-20T08:49:54Z</time>
      </trkpt>
      <trkpt lat="46.21907" lon="4.61928">
        <ele>815.2</ele>
        <time>2025-09-20T08:49:55Z</time>
      </trkpt>
      <trkpt lat="46.21905" lon="4.61929">
        <ele>814.6</ele>
        <time>2025-09-20T08:49:56Z</time>
      </trkpt>
      <trkpt lat="46.21903" lon="4.6193">
        <ele>814.4</ele>
        <time>2025-09-20T08:49:57Z</time>
      </trkpt>
      <trkpt lat="46.21901" lon="4.6193">
        <ele>814.2</ele>
        <time>2025-09-20T08:49:58Z</time>
      </trkpt>
      <trkpt lat="46.21899" lon="4.61931">
        <ele>813.8</ele>
        <time>2025-09-20T08:49:59Z</time>
      </trkpt>
      <trkpt lat="46.21897" lon="4.61931">
        <ele>813.4</ele>
        <time>2025-09-20T08:50:00Z</time>
      </trkpt>
      <trkpt lat="46.21896" lon="4.61931">
        <ele>813.2</ele>
        <time>2025-09-20T08:50:01Z</time>
      </trkpt>
      <trkpt lat="46.21893" lon="4.61932">
        <ele>813.2</ele>
        <time>2025-09-20T08:50:02Z</time>
      </trkpt>
      <trkpt lat="46.21891" lon="4.61932">
        <ele>812.6</ele>
        <time>2025-09-20T08:50:03Z</time>
      </trkpt>
      <trkpt lat="46.21889" lon="4.61932">
        <ele>812</ele>
        <time>2025-09-20T08:50:04Z</time>
      </trkpt>
      <trkpt lat="46.21887" lon="4.61932">
        <ele>811.4</ele>
        <time>2025-09-20T08:50:05Z</time>
      </trkpt>
      <trkpt lat="46.21885" lon="4.61933">
        <ele>811.4</ele>
        <time>2025-09-20T08:50:06Z</time>
      </trkpt>
      <trkpt lat="46.21882" lon="4.61933">
        <ele>811</ele>
        <time>2025-09-20T08:50:07Z</time>
      </trkpt>
      <trkpt lat="46.2188" lon="4.61934">
        <ele>810.8</ele>
        <time>2025-09-20T08:50:08Z</time>
      </trkpt>
      <trkpt lat="46.21878" lon="4.61934">
        <ele>810.4</ele>
        <time>2025-09-20T08:50:09Z</time>
      </trkpt>
      <trkpt lat="46.21877" lon="4.61934">
        <ele>810.2</ele>
        <time>2025-09-20T08:50:10Z</time>
      </trkpt>
      <trkpt lat="46.21877" lon="4.61934">
        <ele>810.2</ele>
        <time>2025-09-20T08:50:11Z</time>
      </trkpt>
      <trkpt lat="46.21876" lon="4.61934">
        <ele>809.8</ele>
        <time>2025-09-20T08:50:12Z</time>
      </trkpt>
      <trkpt lat="46.21876" lon="4.61934">
        <ele>809.8</ele>
        <time>2025-09-20T08:50:13Z</time>
      </trkpt>
      <trkpt lat="46.21876" lon="4.61934">
        <ele>809.8</ele>
        <time>2025-09-20T08:50:14Z</time>
      </trkpt>
      <trkpt lat="46.21876" lon="4.61934">
        <ele>809.4</ele>
        <time>2025-09-20T08:50:15Z</time>
      </trkpt>
      <trkpt lat="46.21876" lon="4.61935">
        <ele>809.2</ele>
        <time>2025-09-20T08:50:16Z</time>
      </trkpt>
      <trkpt lat="46.21872" lon="4.61936">
        <ele>808</ele>
        <time>2025-09-20T08:50:30Z</time>
      </trkpt>
      <trkpt lat="46.2187" lon="4.61937">
        <ele>808</ele>
        <time>2025-09-20T08:50:31Z</time>
      </trkpt>
      <trkpt lat="46.21867" lon="4.61937">
        <ele>808</ele>
        <time>2025-09-20T08:50:32Z</time>
      </trkpt>
      <trkpt lat="46.21865" lon="4.61938">
        <ele>808</ele>
        <time>2025-09-20T08:50:33Z</time>
      </trkpt>
      <trkpt lat="46.21863" lon="4.61939">
        <ele>807.6</ele>
        <time>2025-09-20T08:50:34Z</time>
      </trkpt>
      <trkpt lat="46.21861" lon="4.6194">
        <ele>807</ele>
        <time>2025-09-20T08:50:35Z</time>
      </trkpt>
      <trkpt lat="46.21859" lon="4.61941">
        <ele>806.8</ele>
        <time>2025-09-20T08:50:36Z</time>
      </trkpt>
      <trkpt lat="46.21857" lon="4.61941">
        <ele>806.8</ele>
        <time>2025-09-20T08:50:37Z</time>
      </trkpt>
      <trkpt lat="46.21855" lon="4.61942">
        <ele>806.2</ele>
        <time>2025-09-20T08:50:38Z</time>
      </trkpt>
      <trkpt lat="46.21853" lon="4.61941">
        <ele>806.2</ele>
        <time>2025-09-20T08:50:39Z</time>
      </trkpt>
      <trkpt lat="46.21851" lon="4.61941">
        <ele>805.2</ele>
        <time>2025-09-20T08:50:40Z</time>
      </trkpt>
      <trkpt lat="46.21849" lon="4.61941">
        <ele>805.2</ele>
        <time>2025-09-20T08:50:41Z</time>
      </trkpt>
      <trkpt lat="46.21846" lon="4.61942">
        <ele>804.8</ele>
        <time>2025-09-20T08:50:42Z</time>
      </trkpt>
      <trkpt lat="46.21843" lon="4.61943">
        <ele>804.6</ele>
        <time>2025-09-20T08:50:43Z</time>
      </trkpt>
      <trkpt lat="46.21842" lon="4.61943">
        <ele>804.2</ele>
        <time>2025-09-20T08:50:44Z</time>
      </trkpt>
      <trkpt lat="46.2184" lon="4.61943">
        <ele>803.8</ele>
        <time>2025-09-20T08:50:45Z</time>
      </trkpt>
      <trkpt lat="46.21839" lon="4.61942">
        <ele>803</ele>
        <time>2025-09-20T08:50:46Z</time>
      </trkpt>
      <trkpt lat="46.21837" lon="4.61941">
        <ele>802.6</ele>
        <time>2025-09-20T08:50:47Z</time>
      </trkpt>
      <trkpt lat="46.21834" lon="4.6194">
        <ele>802.6</ele>
        <time>2025-09-20T08:50:48Z</time>
      </trkpt>
      <trkpt lat="46.21832" lon="4.6194">
        <ele>802.2</ele>
        <time>2025-09-20T08:50:49Z</time>
      </trkpt>
      <trkpt lat="46.21829" lon="4.6194">
        <ele>801.6</ele>
        <time>2025-09-20T08:50:50Z</time>
      </trkpt>
      <trkpt lat="46.21826" lon="4.61942">
        <ele>801.4</ele>
        <time>2025-09-20T08:50:51Z</time>
      </trkpt>
      <trkpt lat="46.21822" lon="4.61944">
        <ele>801.2</ele>
        <time>2025-09-20T08:50:52Z</time>
      </trkpt>
      <trkpt lat="46.21819" lon="4.61947">
        <ele>800.6</ele>
        <time>2025-09-20T08:50:53Z</time>
      </trkpt>
      <trkpt lat="46.21817" lon="4.6195">
        <ele>800.6</ele>
        <time>2025-09-20T08:50:54Z</time>
      </trkpt>
      <trkpt lat="46.21816" lon="4.61953">
        <ele>800.2</ele>
        <time>2025-09-20T08:50:55Z</time>
      </trkpt>
      <trkpt lat="46.21814" lon="4.61958">
        <ele>800.2</ele>
        <time>2025-09-20T08:50:56Z</time>
      </trkpt>
      <trkpt lat="46.21813" lon="4.61964">
        <ele>800.2</ele>
        <time>2025-09-20T08:50:57Z</time>
      </trkpt>
      <trkpt lat="46.2181" lon="4.61969">
        <ele>800</ele>
        <time>2025-09-20T08:50:58Z</time>
      </trkpt>
      <trkpt lat="46.21809" lon="4.61974">
        <ele>799.6</ele>
        <time>2025-09-20T08:50:59Z</time>
      </trkpt>
      <trkpt lat="46.21807" lon="4.61978">
        <ele>799.6</ele>
        <time>2025-09-20T08:51:00Z</time>
      </trkpt>
      <trkpt lat="46.21804" lon="4.61983">
        <ele>799.6</ele>
        <time>2025-09-20T08:51:01Z</time>
      </trkpt>
      <trkpt lat="46.21802" lon="4.61988">
        <ele>799.4</ele>
        <time>2025-09-20T08:51:02Z</time>
      </trkpt>
      <trkpt lat="46.21799" lon="4.61992">
        <ele>799.4</ele>
        <time>2025-09-20T08:51:03Z</time>
      </trkpt>
      <trkpt lat="46.21797" lon="4.61996">
        <ele>799.4</ele>
        <time>2025-09-20T08:51:04Z</time>
      </trkpt>
      <trkpt lat="46.21795" lon="4.62001">
        <ele>798.8</ele>
        <time>2025-09-20T08:51:05Z</time>
      </trkpt>
      <trkpt lat="46.21792" lon="4.62008">
        <ele>799.2</ele>
        <time>2025-09-20T08:51:06Z</time>
      </trkpt>
      <trkpt lat="46.2179" lon="4.62012">
        <ele>799.2</ele>
        <time>2025-09-20T08:51:07Z</time>
      </trkpt>
      <trkpt lat="46.21786" lon="4.62016">
        <ele>799.2</ele>
        <time>2025-09-20T08:51:08Z</time>
      </trkpt>
      <trkpt lat="46.21783" lon="4.62021">
        <ele>799.2</ele>
        <time>2025-09-20T08:51:09Z</time>
      </trkpt>
      <trkpt lat="46.2178" lon="4.62024">
        <ele>799.2</ele>
        <time>2025-09-20T08:51:10Z</time>
      </trkpt>
      <trkpt lat="46.21777" lon="4.62029">
        <ele>799.2</ele>
        <time>2025-09-20T08:51:11Z</time>
      </trkpt>
      <trkpt lat="46.21774" lon="4.62033">
        <ele>798.8</ele>
        <time>2025-09-20T08:51:12Z</time>
      </trkpt>
      <trkpt lat="46.21771" lon="4.62035">
        <ele>798.6</ele>
        <time>2025-09-20T08:51:13Z</time>
      </trkpt>
      <trkpt lat="46.21769" lon="4.62037">
        <ele>798.6</ele>
        <time>2025-09-20T08:51:14Z</time>
      </trkpt>
      <trkpt lat="46.21767" lon="4.62039">
        <ele>798.6</ele>
        <time>2025-09-20T08:51:15Z</time>
      </trkpt>
      <trkpt lat="46.21764" lon="4.6204">
        <ele>798.6</ele>
        <time>2025-09-20T08:51:16Z</time>
      </trkpt>
      <trkpt lat="46.21762" lon="4.62038">
        <ele>798.4</ele>
        <time>2025-09-20T08:51:17Z</time>
      </trkpt>
      <trkpt lat="46.21762" lon="4.62038">
        <ele>798.4</ele>
        <time>2025-09-20T08:51:18Z</time>
      </trkpt>
      <trkpt lat="46.2176" lon="4.62035">
        <ele>797.6</ele>
        <time>2025-09-20T08:51:19Z</time>
      </trkpt>
      <trkpt lat="46.21759" lon="4.62032">
        <ele>797</ele>
        <time>2025-09-20T08:51:20Z</time>
      </trkpt>
      <trkpt lat="46.21759" lon="4.62029">
        <ele>796.6</ele>
        <time>2025-09-20T08:51:21Z</time>
      </trkpt>
      <trkpt lat="46.21759" lon="4.62026">
        <ele>797</ele>
        <time>2025-09-20T08:51:22Z</time>
      </trkpt>
      <trkpt lat="46.21759" lon="4.62022">
        <ele>797</ele>
        <time>2025-09-20T08:51:23Z</time>
      </trkpt>
      <trkpt lat="46.21763" lon="4.62015">
        <ele>796.6</ele>
        <time>2025-09-20T08:51:24Z</time>
      </trkpt>
      <trkpt lat="46.21764" lon="4.62009">
        <ele>796.6</ele>
        <time>2025-09-20T08:51:25Z</time>
      </trkpt>
      <trkpt lat="46.21765" lon="4.62004">
        <ele>796.2</ele>
        <time>2025-09-20T08:51:26Z</time>
      </trkpt>
      <trkpt lat="46.21765" lon="4.62">
        <ele>796</ele>
        <time>2025-09-20T08:51:27Z</time>
      </trkpt>
      <trkpt lat="46.21765" lon="4.61999">
        <ele>796.2</ele>
        <time>2025-09-20T08:51:28Z</time>
      </trkpt>
      <trkpt lat="46.21764" lon="4.61992">
        <ele>796.2</ele>
        <time>2025-09-20T08:51:29Z</time>
      </trkpt>
      <trkpt lat="46.21763" lon="4.61989">
        <ele>795.6</ele>
        <time>2025-09-20T08:51:30Z</time>
      </trkpt>
      <trkpt lat="46.21762" lon="4.61984">
        <ele>795.4</ele>
        <time>2025-09-20T08:51:31Z</time>
      </trkpt>
      <trkpt lat="46.21764" lon="4.61981">
        <ele>795.4</ele>
        <time>2025-09-20T08:51:32Z</time>
      </trkpt>
      <trkpt lat="46.21766" lon="4.61975">
        <ele>794.8</ele>
        <time>2025-09-20T08:51:33Z</time>
      </trkpt>
      <trkpt lat="46.21767" lon="4.61969">
        <ele>794.4</ele>
        <time>2025-09-20T08:51:34Z</time>
      </trkpt>
      <trkpt lat="46.21768" lon="4.61967">
        <ele>794.4</ele>
        <time>2025-09-20T08:51:35Z</time>
      </trkpt>
      <trkpt lat="46.2177" lon="4.61964">
        <ele>794.4</ele>
        <time>2025-09-20T08:51:36Z</time>
      </trkpt>
      <trkpt lat="46.21772" lon="4.61961">
        <ele>794</ele>
        <time>2025-09-20T08:51:37Z</time>
      </trkpt>
      <trkpt lat="46.21773" lon="4.61958">
        <ele>793.4</ele>
        <time>2025-09-20T08:51:38Z</time>
      </trkpt>
      <trkpt lat="46.21774" lon="4.61955">
        <ele>792.8</ele>
        <time>2025-09-20T08:51:39Z</time>
      </trkpt>
      <trkpt lat="46.21775" lon="4.61951">
        <ele>792.4</ele>
        <time>2025-09-20T08:51:40Z</time>
      </trkpt>
      <trkpt lat="46.21775" lon="4.61947">
        <ele>792.2</ele>
        <time>2025-09-20T08:51:41Z</time>
      </trkpt>
      <trkpt lat="46.21776" lon="4.61943">
        <ele>791</ele>
        <time>2025-09-20T08:51:42Z</time>
      </trkpt>
      <trkpt lat="46.21777" lon="4.61937">
        <ele>791</ele>
        <time>2025-09-20T08:51:43Z</time>
      </trkpt>
      <trkpt lat="46.21778" lon="4.6193">
        <ele>791</ele>
        <time>2025-09-20T08:51:44Z</time>
      </trkpt>
      <trkpt lat="46.21779" lon="4.61925">
        <ele>790.6</ele>
        <time>2025-09-20T08:51:45Z</time>
      </trkpt>
      <trkpt lat="46.2178" lon="4.61923">
        <ele>790.2</ele>
        <time>2025-09-20T08:51:46Z</time>
      </trkpt>
      <trkpt lat="46.21781" lon="4.61919">
        <ele>790</ele>
        <time>2025-09-20T08:51:47Z</time>
      </trkpt>
      <trkpt lat="46.21782" lon="4.61914">
        <ele>790</ele>
        <time>2025-09-20T08:51:48Z</time>
      </trkpt>
      <trkpt lat="46.21784" lon="4.61907">
        <ele>789.6</ele>
        <time>2025-09-20T08:51:49Z</time>
      </trkpt>
      <trkpt lat="46.21785" lon="4.61902">
        <ele>789.6</ele>
        <time>2025-09-20T08:51:50Z</time>
      </trkpt>
      <trkpt lat="46.21786" lon="4.61897">
        <ele>789.6</ele>
        <time>2025-09-20T08:51:51Z</time>
      </trkpt>
      <trkpt lat="46.21786" lon="4.61892">
        <ele>789.2</ele>
        <time>2025-09-20T08:51:52Z</time>
      </trkpt>
      <trkpt lat="46.21786" lon="4.61888">
        <ele>788.8</ele>
        <time>2025-09-20T08:51:53Z</time>
      </trkpt>
      <trkpt lat="46.21787" lon="4.61883">
        <ele>788.6</ele>
        <time>2025-09-20T08:51:54Z</time>
      </trkpt>
      <trkpt lat="46.21787" lon="4.6188">
        <ele>788.2</ele>
        <time>2025-09-20T08:51:55Z</time>
      </trkpt>
      <trkpt lat="46.21788" lon="4.61879">
        <ele>788.2</ele>
        <time>2025-09-20T08:51:56Z</time>
      </trkpt>
      <trkpt lat="46.21788" lon="4.61879">
        <ele>787</ele>
        <time>2025-09-20T08:52:08Z</time>
      </trkpt>
      <trkpt lat="46.21788" lon="4.61876">
        <ele>787</ele>
        <time>2025-09-20T08:52:09Z</time>
      </trkpt>
      <trkpt lat="46.21788" lon="4.61874">
        <ele>786.6</ele>
        <time>2025-09-20T08:52:10Z</time>
      </trkpt>
      <trkpt lat="46.21788" lon="4.61872">
        <ele>786.6</ele>
        <time>2025-09-20T08:52:11Z</time>
      </trkpt>
      <trkpt lat="46.21789" lon="4.61867">
        <ele>786.2</ele>
        <time>2025-09-20T08:52:12Z</time>
      </trkpt>
      <trkpt lat="46.21791" lon="4.61862">
        <ele>785.4</ele>
        <time>2025-09-20T08:52:13Z</time>
      </trkpt>
      <trkpt lat="46.21791" lon="4.61859">
        <ele>784.6</ele>
        <time>2025-09-20T08:52:14Z</time>
      </trkpt>
      <trkpt lat="46.21791" lon="4.61856">
        <ele>784.6</ele>
        <time>2025-09-20T08:52:15Z</time>
      </trkpt>
      <trkpt lat="46.21791" lon="4.61852">
        <ele>783.8</ele>
        <time>2025-09-20T08:52:16Z</time>
      </trkpt>
      <trkpt lat="46.21791" lon="4.61847">
        <ele>783.6</ele>
        <time>2025-09-20T08:52:17Z</time>
      </trkpt>
      <trkpt lat="46.2179" lon="4.61842">
        <ele>783.8</ele>
        <time>2025-09-20T08:52:18Z</time>
      </trkpt>
      <trkpt lat="46.2179" lon="4.61837">
        <ele>783.4</ele>
        <time>2025-09-20T08:52:19Z</time>
      </trkpt>
      <trkpt lat="46.2179" lon="4.61833">
        <ele>782.8</ele>
        <time>2025-09-20T08:52:20Z</time>
      </trkpt>
      <trkpt lat="46.21789" lon="4.61827">
        <ele>782</ele>
        <time>2025-09-20T08:52:21Z</time>
      </trkpt>
      <trkpt lat="46.21788" lon="4.61821">
        <ele>781.2</ele>
        <time>2025-09-20T08:52:22Z</time>
      </trkpt>
      <trkpt lat="46.21788" lon="4.61817">
        <ele>780.4</ele>
        <time>2025-09-20T08:52:23Z</time>
      </trkpt>
      <trkpt lat="46.21788" lon="4.61813">
        <ele>779.8</ele>
        <time>2025-09-20T08:52:24Z</time>
      </trkpt>
      <trkpt lat="46.21788" lon="4.61808">
        <ele>779.2</ele>
        <time>2025-09-20T08:52:25Z</time>
      </trkpt>
      <trkpt lat="46.21788" lon="4.61803">
        <ele>779</ele>
        <time>2025-09-20T08:52:26Z</time>
      </trkpt>
      <trkpt lat="46.21788" lon="4.618">
        <ele>778.6</ele>
        <time>2025-09-20T08:52:27Z</time>
      </trkpt>
      <trkpt lat="46.21788" lon="4.61797">
        <ele>778.2</ele>
        <time>2025-09-20T08:52:28Z</time>
      </trkpt>
      <trkpt lat="46.21788" lon="4.61794">
        <ele>777.8</ele>
        <time>2025-09-20T08:52:29Z</time>
      </trkpt>
      <trkpt lat="46.21788" lon="4.61791">
        <ele>777.2</ele>
        <time>2025-09-20T08:52:30Z</time>
      </trkpt>
      <trkpt lat="46.21787" lon="4.61787">
        <ele>776.8</ele>
        <time>2025-09-20T08:52:31Z</time>
      </trkpt>
      <trkpt lat="46.21788" lon="4.61784">
        <ele>776.4</ele>
        <time>2025-09-20T08:52:32Z</time>
      </trkpt>
      <trkpt lat="46.21787" lon="4.61781">
        <ele>776.4</ele>
        <time>2025-09-20T08:52:33Z</time>
      </trkpt>
      <trkpt lat="46.21787" lon="4.61778">
        <ele>775.4</ele>
        <time>2025-09-20T08:52:34Z</time>
      </trkpt>
      <trkpt lat="46.21787" lon="4.61773">
        <ele>775.2</ele>
        <time>2025-09-20T08:52:35Z</time>
      </trkpt>
      <trkpt lat="46.21787" lon="4.6177">
        <ele>774.6</ele>
        <time>2025-09-20T08:52:36Z</time>
      </trkpt>
      <trkpt lat="46.21788" lon="4.61766">
        <ele>773.8</ele>
        <time>2025-09-20T08:52:37Z</time>
      </trkpt>
      <trkpt lat="46.21791" lon="4.61756">
        <ele>773.2</ele>
        <time>2025-09-20T08:52:38Z</time>
      </trkpt>
      <trkpt lat="46.2179" lon="4.61754">
        <ele>772.6</ele>
        <time>2025-09-20T08:52:39Z</time>
      </trkpt>
      <trkpt lat="46.21791" lon="4.6175">
        <ele>771.8</ele>
        <time>2025-09-20T08:52:40Z</time>
      </trkpt>
      <trkpt lat="46.21794" lon="4.61747">
        <ele>771.4</ele>
        <time>2025-09-20T08:52:41Z</time>
      </trkpt>
      <trkpt lat="46.21794" lon="4.61748">
        <ele>770.8</ele>
        <time>2025-09-20T08:52:42Z</time>
      </trkpt>
      <trkpt lat="46.21793" lon="4.61744">
        <ele>770.2</ele>
        <time>2025-09-20T08:52:43Z</time>
      </trkpt>
      <trkpt lat="46.21793" lon="4.61739">
        <ele>769.8</ele>
        <time>2025-09-20T08:52:44Z</time>
      </trkpt>
      <trkpt lat="46.21795" lon="4.61734">
        <ele>769</ele>
        <time>2025-09-20T08:52:45Z</time>
      </trkpt>
      <trkpt lat="46.21796" lon="4.61732">
        <ele>768.6</ele>
        <time>2025-09-20T08:52:46Z</time>
      </trkpt>
      <trkpt lat="46.21798" lon="4.61723">
        <ele>768.2</ele>
        <time>2025-09-20T08:52:47Z</time>
      </trkpt>
      <trkpt lat="46.218" lon="4.61717">
        <ele>767.6</ele>
        <time>2025-09-20T08:52:48Z</time>
      </trkpt>
      <trkpt lat="46.218" lon="4.61711">
        <ele>767.2</ele>
        <time>2025-09-20T08:52:49Z</time>
      </trkpt>
      <trkpt lat="46.21804" lon="4.61705">
        <ele>766.8</ele>
        <time>2025-09-20T08:52:50Z</time>
      </trkpt>
      <trkpt lat="46.21805" lon="4.61701">
        <ele>766.2</ele>
        <time>2025-09-20T08:52:51Z</time>
      </trkpt>
      <trkpt lat="46.21807" lon="4.61697">
        <ele>765.4</ele>
        <time>2025-09-20T08:52:52Z</time>
      </trkpt>
      <trkpt lat="46.21809" lon="4.61691">
        <ele>765</ele>
        <time>2025-09-20T08:52:53Z</time>
      </trkpt>
      <trkpt lat="46.21812" lon="4.61691">
        <ele>764.8</ele>
        <time>2025-09-20T08:52:54Z</time>
      </trkpt>
      <trkpt lat="46.21814" lon="4.61689">
        <ele>764.2</ele>
        <time>2025-09-20T08:52:55Z</time>
      </trkpt>
      <trkpt lat="46.21815" lon="4.61688">
        <ele>763.8</ele>
        <time>2025-09-20T08:52:56Z</time>
      </trkpt>
      <trkpt lat="46.21815" lon="4.61685">
        <ele>763.4</ele>
        <time>2025-09-20T08:52:57Z</time>
      </trkpt>
      <trkpt lat="46.21813" lon="4.61683">
        <ele>763</ele>
        <time>2025-09-20T08:52:58Z</time>
      </trkpt>
      <trkpt lat="46.21812" lon="4.61679">
        <ele>762.4</ele>
        <time>2025-09-20T08:52:59Z</time>
      </trkpt>
      <trkpt lat="46.2181" lon="4.61677">
        <ele>762.2</ele>
        <time>2025-09-20T08:53:00Z</time>
      </trkpt>
      <trkpt lat="46.21809" lon="4.61673">
        <ele>761.8</ele>
        <time>2025-09-20T08:53:01Z</time>
      </trkpt>
      <trkpt lat="46.21809" lon="4.6167">
        <ele>761.8</ele>
        <time>2025-09-20T08:53:02Z</time>
      </trkpt>
      <trkpt lat="46.21807" lon="4.61668">
        <ele>761.4</ele>
        <time>2025-09-20T08:53:03Z</time>
      </trkpt>
      <trkpt lat="46.21806" lon="4.61666">
        <ele>761</ele>
        <time>2025-09-20T08:53:04Z</time>
      </trkpt>
      <trkpt lat="46.21806" lon="4.61663">
        <ele>760.6</ele>
        <time>2025-09-20T08:53:05Z</time>
      </trkpt>
      <trkpt lat="46.21806" lon="4.61659">
        <ele>760.6</ele>
        <time>2025-09-20T08:53:06Z</time>
      </trkpt>
      <trkpt lat="46.21807" lon="4.61656">
        <ele>760.2</ele>
        <time>2025-09-20T08:53:07Z</time>
      </trkpt>
      <trkpt lat="46.21809" lon="4.61652">
        <ele>759.8</ele>
        <time>2025-09-20T08:53:08Z</time>
      </trkpt>
      <trkpt lat="46.21811" lon="4.61649">
        <ele>759.8</ele>
        <time>2025-09-20T08:53:09Z</time>
      </trkpt>
      <trkpt lat="46.21818" lon="4.61641">
        <ele>759.4</ele>
        <time>2025-09-20T08:53:10Z</time>
      </trkpt>
      <trkpt lat="46.2182" lon="4.61639">
        <ele>759.4</ele>
        <time>2025-09-20T08:53:11Z</time>
      </trkpt>
      <trkpt lat="46.21822" lon="4.61636">
        <ele>759.4</ele>
        <time>2025-09-20T08:53:12Z</time>
      </trkpt>
      <trkpt lat="46.21826" lon="4.61631">
        <ele>759</ele>
        <time>2025-09-20T08:53:13Z</time>
      </trkpt>
      <trkpt lat="46.21829" lon="4.61627">
        <ele>758.6</ele>
        <time>2025-09-20T08:53:14Z</time>
      </trkpt>
      <trkpt lat="46.21831" lon="4.61625">
        <ele>758.6</ele>
        <time>2025-09-20T08:53:15Z</time>
      </trkpt>
      <trkpt lat="46.21833" lon="4.61623">
        <ele>758.4</ele>
        <time>2025-09-20T08:53:16Z</time>
      </trkpt>
      <trkpt lat="46.21833" lon="4.61624">
        <ele>758.4</ele>
        <time>2025-09-20T08:53:17Z</time>
      </trkpt>
      <trkpt lat="46.21833" lon="4.61623">
        <ele>758</ele>
        <time>2025-09-20T08:53:18Z</time>
      </trkpt>
      <trkpt lat="46.21832" lon="4.61618">
        <ele>757.2</ele>
        <time>2025-09-20T08:54:50Z</time>
      </trkpt>
      <trkpt lat="46.21833" lon="4.61615">
        <ele>757.2</ele>
        <time>2025-09-20T08:54:51Z</time>
      </trkpt>
      <trkpt lat="46.21834" lon="4.61613">
        <ele>756.8</ele>
        <time>2025-09-20T08:54:52Z</time>
      </trkpt>
      <trkpt lat="46.21835" lon="4.6161">
        <ele>756.8</ele>
        <time>2025-09-20T08:54:53Z</time>
      </trkpt>
      <trkpt lat="46.21837" lon="4.61608">
        <ele>756.6</ele>
        <time>2025-09-20T08:54:54Z</time>
      </trkpt>
      <trkpt lat="46.21839" lon="4.61605">
        <ele>756.2</ele>
        <time>2025-09-20T08:54:55Z</time>
      </trkpt>
      <trkpt lat="46.2184" lon="4.61602">
        <ele>756.2</ele>
        <time>2025-09-20T08:54:56Z</time>
      </trkpt>
      <trkpt lat="46.21841" lon="4.61599">
        <ele>756.2</ele>
        <time>2025-09-20T08:54:57Z</time>
      </trkpt>
      <trkpt lat="46.21842" lon="4.61596">
        <ele>755.8</ele>
        <time>2025-09-20T08:54:58Z</time>
      </trkpt>
      <trkpt lat="46.21843" lon="4.61592">
        <ele>755.8</ele>
        <time>2025-09-20T08:54:59Z</time>
      </trkpt>
      <trkpt lat="46.21844" lon="4.61589">
        <ele>755.2</ele>
        <time>2025-09-20T08:55:00Z</time>
      </trkpt>
      <trkpt lat="46.21844" lon="4.61587">
        <ele>755</ele>
        <time>2025-09-20T08:55:01Z</time>
      </trkpt>
      <trkpt lat="46.21844" lon="4.61584">
        <ele>754.4</ele>
        <time>2025-09-20T08:55:02Z</time>
      </trkpt>
      <trkpt lat="46.21845" lon="4.61579">
        <ele>754</ele>
        <time>2025-09-20T08:55:03Z</time>
      </trkpt>
      <trkpt lat="46.21846" lon="4.61574">
        <ele>753.2</ele>
        <time>2025-09-20T08:55:04Z</time>
      </trkpt>
      <trkpt lat="46.21847" lon="4.61569">
        <ele>752.4</ele>
        <time>2025-09-20T08:55:05Z</time>
      </trkpt>
      <trkpt lat="46.21849" lon="4.61563">
        <ele>752.2</ele>
        <time>2025-09-20T08:55:06Z</time>
      </trkpt>
      <trkpt lat="46.2185" lon="4.61559">
        <ele>752</ele>
        <time>2025-09-20T08:55:07Z</time>
      </trkpt>
      <trkpt lat="46.21852" lon="4.61556">
        <ele>751.8</ele>
        <time>2025-09-20T08:55:08Z</time>
      </trkpt>
      <trkpt lat="46.21854" lon="4.61554">
        <ele>751.4</ele>
        <time>2025-09-20T08:55:09Z</time>
      </trkpt>
      <trkpt lat="46.21856" lon="4.61552">
        <ele>751</ele>
        <time>2025-09-20T08:55:10Z</time>
      </trkpt>
      <trkpt lat="46.21857" lon="4.61549">
        <ele>750.8</ele>
        <time>2025-09-20T08:55:11Z</time>
      </trkpt>
      <trkpt lat="46.21858" lon="4.61546">
        <ele>750.8</ele>
        <time>2025-09-20T08:55:12Z</time>
      </trkpt>
      <trkpt lat="46.21858" lon="4.61544">
        <ele>750.8</ele>
        <time>2025-09-20T08:55:13Z</time>
      </trkpt>
      <trkpt lat="46.21858" lon="4.61544">
        <ele>750.8</ele>
        <time>2025-09-20T08:55:14Z</time>
      </trkpt>
      <trkpt lat="46.2186" lon="4.61544">
        <ele>750.6</ele>
        <time>2025-09-20T08:55:48Z</time>
      </trkpt>
      <trkpt lat="46.21861" lon="4.61545">
        <ele>750.6</ele>
        <time>2025-09-20T08:55:49Z</time>
      </trkpt>
      <trkpt lat="46.21862" lon="4.61544">
        <ele>751</ele>
        <time>2025-09-20T08:55:50Z</time>
      </trkpt>
      <trkpt lat="46.21862" lon="4.61544">
        <ele>751</ele>
        <time>2025-09-20T08:55:51Z</time>
      </trkpt>
      <trkpt lat="46.21863" lon="4.61543">
        <ele>751</ele>
        <time>2025-09-20T08:55:52Z</time>
      </trkpt>
      <trkpt lat="46.21864" lon="4.61541">
        <ele>751.2</ele>
        <time>2025-09-20T08:55:53Z</time>
      </trkpt>
      <trkpt lat="46.21865" lon="4.6154">
        <ele>751.2</ele>
        <time>2025-09-20T08:55:54Z</time>
      </trkpt>
      <trkpt lat="46.21865" lon="4.61539">
        <ele>751.6</ele>
        <time>2025-09-20T08:55:55Z</time>
      </trkpt>
      <trkpt lat="46.21865" lon="4.61539">
        <ele>751.6</ele>
        <time>2025-09-20T08:55:56Z</time>
      </trkpt>
      <trkpt lat="46.21865" lon="4.61539">
        <ele>751.6</ele>
        <time>2025-09-20T08:55:57Z</time>
      </trkpt>
      <trkpt lat="46.21865" lon="4.61538">
        <ele>751.6</ele>
        <time>2025-09-20T08:55:58Z</time>
      </trkpt>
      <trkpt lat="46.21864" lon="4.61539">
        <ele>751.6</ele>
        <time>2025-09-20T08:56:03Z</time>
      </trkpt>
      <trkpt lat="46.21864" lon="4.61539">
        <ele>751.6</ele>
        <time>2025-09-20T08:56:04Z</time>
      </trkpt>
      <trkpt lat="46.21867" lon="4.61536">
        <ele>751.4</ele>
        <time>2025-09-20T08:56:08Z</time>
      </trkpt>
      <trkpt lat="46.21869" lon="4.61534">
        <ele>751</ele>
        <time>2025-09-20T08:56:09Z</time>
      </trkpt>
      <trkpt lat="46.21871" lon="4.61532">
        <ele>750.6</ele>
        <time>2025-09-20T08:56:10Z</time>
      </trkpt>
      <trkpt lat="46.21874" lon="4.61529">
        <ele>750.6</ele>
        <time>2025-09-20T08:56:11Z</time>
      </trkpt>
      <trkpt lat="46.21876" lon="4.61526">
        <ele>750.6</ele>
        <time>2025-09-20T08:56:12Z</time>
      </trkpt>
      <trkpt lat="46.21879" lon="4.61524">
        <ele>750.6</ele>
        <time>2025-09-20T08:56:13Z</time>
      </trkpt>
      <trkpt lat="46.21881" lon="4.61522">
        <ele>749.8</ele>
        <time>2025-09-20T08:56:14Z</time>
      </trkpt>
      <trkpt lat="46.21884" lon="4.6152">
        <ele>749.8</ele>
        <time>2025-09-20T08:56:15Z</time>
      </trkpt>
      <trkpt lat="46.21886" lon="4.61519">
        <ele>749</ele>
        <time>2025-09-20T08:56:16Z</time>
      </trkpt>
      <trkpt lat="46.21889" lon="4.61518">
        <ele>749.8</ele>
        <time>2025-09-20T08:56:17Z</time>
      </trkpt>
      <trkpt lat="46.21892" lon="4.61517">
        <ele>749.8</ele>
        <time>2025-09-20T08:56:18Z</time>
      </trkpt>
      <trkpt lat="46.21895" lon="4.61516">
        <ele>749.8</ele>
        <time>2025-09-20T08:56:19Z</time>
      </trkpt>
      <trkpt lat="46.21898" lon="4.61515">
        <ele>749.8</ele>
        <time>2025-09-20T08:56:20Z</time>
      </trkpt>
      <trkpt lat="46.21901" lon="4.61514">
        <ele>750.4</ele>
        <time>2025-09-20T08:56:21Z</time>
      </trkpt>
      <trkpt lat="46.21903" lon="4.61512">
        <ele>750.4</ele>
        <time>2025-09-20T08:56:22Z</time>
      </trkpt>
      <trkpt lat="46.21906" lon="4.61511">
        <ele>750.4</ele>
        <time>2025-09-20T08:56:23Z</time>
      </trkpt>
      <trkpt lat="46.21908" lon="4.61509">
        <ele>750.8</ele>
        <time>2025-09-20T08:56:24Z</time>
      </trkpt>
      <trkpt lat="46.21911" lon="4.61508">
        <ele>750.8</ele>
        <time>2025-09-20T08:56:25Z</time>
      </trkpt>
      <trkpt lat="46.21913" lon="4.61506">
        <ele>750.8</ele>
        <time>2025-09-20T08:56:26Z</time>
      </trkpt>
      <trkpt lat="46.21916" lon="4.61504">
        <ele>750.4</ele>
        <time>2025-09-20T08:56:27Z</time>
      </trkpt>
      <trkpt lat="46.21918" lon="4.61503">
        <ele>750.4</ele>
        <time>2025-09-20T08:56:28Z</time>
      </trkpt>
      <trkpt lat="46.2192" lon="4.61502">
        <ele>750.2</ele>
        <time>2025-09-20T08:56:29Z</time>
      </trkpt>
      <trkpt lat="46.21922" lon="4.61501">
        <ele>749.8</ele>
        <time>2025-09-20T08:56:30Z</time>
      </trkpt>
      <trkpt lat="46.21923" lon="4.615">
        <ele>749.8</ele>
        <time>2025-09-20T08:56:31Z</time>
      </trkpt>
      <trkpt lat="46.21925" lon="4.61499">
        <ele>749.2</ele>
        <time>2025-09-20T08:56:32Z</time>
      </trkpt>
      <trkpt lat="46.21927" lon="4.61498">
        <ele>749.2</ele>
        <time>2025-09-20T08:56:33Z</time>
      </trkpt>
      <trkpt lat="46.2193" lon="4.61497">
        <ele>748.6</ele>
        <time>2025-09-20T08:56:34Z</time>
      </trkpt>
      <trkpt lat="46.21932" lon="4.61495">
        <ele>748.2</ele>
        <time>2025-09-20T08:56:35Z</time>
      </trkpt>
      <trkpt lat="46.21935" lon="4.61493">
        <ele>748.2</ele>
        <time>2025-09-20T08:56:36Z</time>
      </trkpt>
      <trkpt lat="46.21937" lon="4.61491">
        <ele>748.2</ele>
        <time>2025-09-20T08:56:37Z</time>
      </trkpt>
      <trkpt lat="46.21939" lon="4.6149">
        <ele>748.2</ele>
        <time>2025-09-20T08:56:38Z</time>
      </trkpt>
      <trkpt lat="46.21941" lon="4.61488">
        <ele>748.2</ele>
        <time>2025-09-20T08:56:39Z</time>
      </trkpt>
      <trkpt lat="46.21944" lon="4.61486">
        <ele>748</ele>
        <time>2025-09-20T08:56:40Z</time>
      </trkpt>
      <trkpt lat="46.21947" lon="4.61485">
        <ele>748</ele>
        <time>2025-09-20T08:56:41Z</time>
      </trkpt>
      <trkpt lat="46.2195" lon="4.61484">
        <ele>748.4</ele>
        <time>2025-09-20T08:56:42Z</time>
      </trkpt>
      <trkpt lat="46.21952" lon="4.61482">
        <ele>748.2</ele>
        <time>2025-09-20T08:56:43Z</time>
      </trkpt>
      <trkpt lat="46.21952" lon="4.61482">
        <ele>748</ele>
        <time>2025-09-20T08:56:44Z</time>
      </trkpt>
      <trkpt lat="46.21952" lon="4.61482">
        <ele>747.8</ele>
        <time>2025-09-20T08:56:45Z</time>
      </trkpt>
      <trkpt lat="46.21952" lon="4.61482">
        <ele>747.8</ele>
        <time>2025-09-20T08:56:46Z</time>
      </trkpt>
      <trkpt lat="46.21962" lon="4.61475">
        <ele>746.8</ele>
        <time>2025-09-20T08:56:48Z</time>
      </trkpt>
      <trkpt lat="46.21964" lon="4.61473">
        <ele>746.6</ele>
        <time>2025-09-20T08:56:49Z</time>
      </trkpt>
      <trkpt lat="46.21967" lon="4.61471">
        <ele>746.6</ele>
        <time>2025-09-20T08:56:50Z</time>
      </trkpt>
      <trkpt lat="46.21969" lon="4.61469">
        <ele>746.2</ele>
        <time>2025-09-20T08:56:51Z</time>
      </trkpt>
      <trkpt lat="46.21971" lon="4.61468">
        <ele>746.2</ele>
        <time>2025-09-20T08:56:52Z</time>
      </trkpt>
      <trkpt lat="46.21972" lon="4.61467">
        <ele>745.8</ele>
        <time>2025-09-20T08:56:53Z</time>
      </trkpt>
      <trkpt lat="46.21974" lon="4.61466">
        <ele>745.8</ele>
        <time>2025-09-20T08:56:54Z</time>
      </trkpt>
      <trkpt lat="46.21975" lon="4.61464">
        <ele>745.6</ele>
        <time>2025-09-20T08:56:55Z</time>
      </trkpt>
      <trkpt lat="46.21976" lon="4.61462">
        <ele>745.4</ele>
        <time>2025-09-20T08:56:56Z</time>
      </trkpt>
      <trkpt lat="46.21977" lon="4.61459">
        <ele>744.8</ele>
        <time>2025-09-20T08:56:57Z</time>
      </trkpt>
      <trkpt lat="46.21976" lon="4.61456">
        <ele>744.8</ele>
        <time>2025-09-20T08:56:58Z</time>
      </trkpt>
      <trkpt lat="46.21976" lon="4.61453">
        <ele>744</ele>
        <time>2025-09-20T08:56:59Z</time>
      </trkpt>
      <trkpt lat="46.21976" lon="4.61449">
        <ele>744</ele>
        <time>2025-09-20T08:57:00Z</time>
      </trkpt>
      <trkpt lat="46.21975" lon="4.61446">
        <ele>743.4</ele>
        <time>2025-09-20T08:57:01Z</time>
      </trkpt>
      <trkpt lat="46.21975" lon="4.61441">
        <ele>743</ele>
        <time>2025-09-20T08:57:02Z</time>
      </trkpt>
      <trkpt lat="46.21975" lon="4.61437">
        <ele>742.8</ele>
        <time>2025-09-20T08:57:03Z</time>
      </trkpt>
      <trkpt lat="46.21975" lon="4.61432">
        <ele>742.8</ele>
        <time>2025-09-20T08:57:04Z</time>
      </trkpt>
      <trkpt lat="46.21975" lon="4.61428">
        <ele>742.2</ele>
        <time>2025-09-20T08:57:05Z</time>
      </trkpt>
      <trkpt lat="46.21975" lon="4.61423">
        <ele>742.2</ele>
        <time>2025-09-20T08:57:06Z</time>
      </trkpt>
      <trkpt lat="46.21976" lon="4.61418">
        <ele>741.4</ele>
        <time>2025-09-20T08:57:07Z</time>
      </trkpt>
      <trkpt lat="46.21977" lon="4.61414">
        <ele>741</ele>
        <time>2025-09-20T08:57:08Z</time>
      </trkpt>
      <trkpt lat="46.21978" lon="4.61409">
        <ele>740.6</ele>
        <time>2025-09-20T08:57:09Z</time>
      </trkpt>
      <trkpt lat="46.2198" lon="4.61404">
        <ele>740.2</ele>
        <time>2025-09-20T08:57:10Z</time>
      </trkpt>
      <trkpt lat="46.21982" lon="4.61399">
        <ele>739.6</ele>
        <time>2025-09-20T08:57:11Z</time>
      </trkpt>
      <trkpt lat="46.21983" lon="4.61395">
        <ele>739.2</ele>
        <time>2025-09-20T08:57:12Z</time>
      </trkpt>
      <trkpt lat="46.21985" lon="4.61391">
        <ele>737.8</ele>
        <time>2025-09-20T08:57:13Z</time>
      </trkpt>
      <trkpt lat="46.21987" lon="4.61387">
        <ele>737</ele>
        <time>2025-09-20T08:57:14Z</time>
      </trkpt>
      <trkpt lat="46.21989" lon="4.61383">
        <ele>736.4</ele>
        <time>2025-09-20T08:57:15Z</time>
      </trkpt>
      <trkpt lat="46.21989" lon="4.61383">
        <ele>736.8</ele>
        <time>2025-09-20T08:57:16Z</time>
      </trkpt>
      <trkpt lat="46.21992" lon="4.61375">
        <ele>736.6</ele>
        <time>2025-09-20T08:57:17Z</time>
      </trkpt>
      <trkpt lat="46.21993" lon="4.61371">
        <ele>736.6</ele>
        <time>2025-09-20T08:57:18Z</time>
      </trkpt>
      <trkpt lat="46.21995" lon="4.61367">
        <ele>735.8</ele>
        <time>2025-09-20T08:57:19Z</time>
      </trkpt>
      <trkpt lat="46.21997" lon="4.61364">
        <ele>735</ele>
        <time>2025-09-20T08:57:20Z</time>
      </trkpt>
      <trkpt lat="46.21999" lon="4.6136">
        <ele>734.4</ele>
        <time>2025-09-20T08:57:21Z</time>
      </trkpt>
      <trkpt lat="46.22001" lon="4.61356">
        <ele>734</ele>
        <time>2025-09-20T08:57:22Z</time>
      </trkpt>
      <trkpt lat="46.22002" lon="4.61352">
        <ele>733.8</ele>
        <time>2025-09-20T08:57:23Z</time>
      </trkpt>
      <trkpt lat="46.22003" lon="4.61349">
        <ele>733.6</ele>
        <time>2025-09-20T08:57:24Z</time>
      </trkpt>
      <trkpt lat="46.22004" lon="4.61346">
        <ele>733.2</ele>
        <time>2025-09-20T08:57:25Z</time>
      </trkpt>
      <trkpt lat="46.22005" lon="4.61344">
        <ele>733.2</ele>
        <time>2025-09-20T08:57:26Z</time>
      </trkpt>
      <trkpt lat="46.22005" lon="4.61342">
        <ele>732.8</ele>
        <time>2025-09-20T08:57:27Z</time>
      </trkpt>
      <trkpt lat="46.22006" lon="4.6134">
        <ele>732.6</ele>
        <time>2025-09-20T08:57:28Z</time>
      </trkpt>
      <trkpt lat="46.22007" lon="4.61338">
        <ele>732.6</ele>
        <time>2025-09-20T08:57:29Z</time>
      </trkpt>
      <trkpt lat="46.22007" lon="4.61337">
        <ele>732.4</ele>
        <time>2025-09-20T08:57:30Z</time>
      </trkpt>
      <trkpt lat="46.22007" lon="4.61336">
        <ele>732.4</ele>
        <time>2025-09-20T08:57:31Z</time>
      </trkpt>
      <trkpt lat="46.22003" lon="4.61333">
        <ele>731.8</ele>
        <time>2025-09-20T08:58:46Z</time>
      </trkpt>
      <trkpt lat="46.22002" lon="4.61332">
        <ele>731.8</ele>
        <time>2025-09-20T08:58:47Z</time>
      </trkpt>
      <trkpt lat="46.22001" lon="4.61331">
        <ele>731.8</ele>
        <time>2025-09-20T08:58:48Z</time>
      </trkpt>
      <trkpt lat="46.22" lon="4.6133">
        <ele>731.4</ele>
        <time>2025-09-20T08:58:49Z</time>
      </trkpt>
      <trkpt lat="46.22" lon="4.6133">
        <ele>731.4</ele>
        <time>2025-09-20T08:58:50Z</time>
      </trkpt>
      <trkpt lat="46.22003" lon="4.6133">
        <ele>731.2</ele>
        <time>2025-09-20T08:59:49Z</time>
      </trkpt>
      <trkpt lat="46.22003" lon="4.61327">
        <ele>731.2</ele>
        <time>2025-09-20T08:59:50Z</time>
      </trkpt>
      <trkpt lat="46.22004" lon="4.61324">
        <ele>731.2</ele>
        <time>2025-09-20T08:59:51Z</time>
      </trkpt>
      <trkpt lat="46.22005" lon="4.61321">
        <ele>731.2</ele>
        <time>2025-09-20T08:59:52Z</time>
      </trkpt>
      <trkpt lat="46.22006" lon="4.61318">
        <ele>730.2</ele>
        <time>2025-09-20T08:59:53Z</time>
      </trkpt>
      <trkpt lat="46.22007" lon="4.61313">
        <ele>730</ele>
        <time>2025-09-20T08:59:54Z</time>
      </trkpt>
      <trkpt lat="46.22008" lon="4.61309">
        <ele>730</ele>
        <time>2025-09-20T08:59:55Z</time>
      </trkpt>
      <trkpt lat="46.2201" lon="4.61304">
        <ele>729.4</ele>
        <time>2025-09-20T08:59:56Z</time>
      </trkpt>
      <trkpt lat="46.22011" lon="4.61299">
        <ele>729</ele>
        <time>2025-09-20T08:59:57Z</time>
      </trkpt>
      <trkpt lat="46.22013" lon="4.61295">
        <ele>728</ele>
        <time>2025-09-20T08:59:58Z</time>
      </trkpt>
      <trkpt lat="46.22014" lon="4.61291">
        <ele>727.6</ele>
        <time>2025-09-20T08:59:59Z</time>
      </trkpt>
      <trkpt lat="46.22015" lon="4.61287">
        <ele>727.4</ele>
        <time>2025-09-20T09:00:00Z</time>
      </trkpt>
      <trkpt lat="46.22016" lon="4.61284">
        <ele>726.6</ele>
        <time>2025-09-20T09:00:01Z</time>
      </trkpt>
      <trkpt lat="46.22018" lon="4.6128">
        <ele>725.6</ele>
        <time>2025-09-20T09:00:02Z</time>
      </trkpt>
      <trkpt lat="46.2202" lon="4.61277">
        <ele>725</ele>
        <time>2025-09-20T09:00:03Z</time>
      </trkpt>
      <trkpt lat="46.22021" lon="4.61274">
        <ele>724.6</ele>
        <time>2025-09-20T09:00:04Z</time>
      </trkpt>
      <trkpt lat="46.22022" lon="4.61272">
        <ele>724</ele>
        <time>2025-09-20T09:00:05Z</time>
      </trkpt>
      <trkpt lat="46.22023" lon="4.6127">
        <ele>723.6</ele>
        <time>2025-09-20T09:00:06Z</time>
      </trkpt>
      <trkpt lat="46.22024" lon="4.61268">
        <ele>723.4</ele>
        <time>2025-09-20T09:00:07Z</time>
      </trkpt>
      <trkpt lat="46.22024" lon="4.61266">
        <ele>722.4</ele>
        <time>2025-09-20T09:00:08Z</time>
      </trkpt>
      <trkpt lat="46.22023" lon="4.61266">
        <ele>722.4</ele>
        <time>2025-09-20T09:00:09Z</time>
      </trkpt>
      <trkpt lat="46.22022" lon="4.61267">
        <ele>722.4</ele>
        <time>2025-09-20T09:00:10Z</time>
      </trkpt>
      <trkpt lat="46.22022" lon="4.61258">
        <ele>721</ele>
        <time>2025-09-20T09:00:22Z</time>
      </trkpt>
      <trkpt lat="46.22023" lon="4.61254">
        <ele>721</ele>
        <time>2025-09-20T09:00:23Z</time>
      </trkpt>
      <trkpt lat="46.22024" lon="4.6125">
        <ele>720.4</ele>
        <time>2025-09-20T09:00:24Z</time>
      </trkpt>
      <trkpt lat="46.22025" lon="4.61247">
        <ele>719.4</ele>
        <time>2025-09-20T09:00:25Z</time>
      </trkpt>
      <trkpt lat="46.22027" lon="4.61243">
        <ele>719</ele>
        <time>2025-09-20T09:00:26Z</time>
      </trkpt>
      <trkpt lat="46.22029" lon="4.61238">
        <ele>718.2</ele>
        <time>2025-09-20T09:00:27Z</time>
      </trkpt>
      <trkpt lat="46.2203" lon="4.61233">
        <ele>717.6</ele>
        <time>2025-09-20T09:00:28Z</time>
      </trkpt>
      <trkpt lat="46.22032" lon="4.61228">
        <ele>717</ele>
        <time>2025-09-20T09:00:29Z</time>
      </trkpt>
      <trkpt lat="46.22033" lon="4.61223">
        <ele>716</ele>
        <time>2025-09-20T09:00:30Z</time>
      </trkpt>
      <trkpt lat="46.22034" lon="4.61218">
        <ele>715.4</ele>
        <time>2025-09-20T09:00:31Z</time>
      </trkpt>
      <trkpt lat="46.22035" lon="4.61211">
        <ele>715.4</ele>
        <time>2025-09-20T09:00:32Z</time>
      </trkpt>
      <trkpt lat="46.22035" lon="4.61204">
        <ele>714.6</ele>
        <time>2025-09-20T09:00:33Z</time>
      </trkpt>
      <trkpt lat="46.22034" lon="4.61197">
        <ele>714.4</ele>
        <time>2025-09-20T09:00:34Z</time>
      </trkpt>
      <trkpt lat="46.22033" lon="4.61191">
        <ele>714.2</ele>
        <time>2025-09-20T09:00:35Z</time>
      </trkpt>
      <trkpt lat="46.22032" lon="4.61185">
        <ele>713.8</ele>
        <time>2025-09-20T09:00:36Z</time>
      </trkpt>
      <trkpt lat="46.22031" lon="4.61179">
        <ele>713.4</ele>
        <time>2025-09-20T09:00:37Z</time>
      </trkpt>
      <trkpt lat="46.22029" lon="4.61173">
        <ele>712.8</ele>
        <time>2025-09-20T09:00:38Z</time>
      </trkpt>
      <trkpt lat="46.22027" lon="4.61168">
        <ele>712.2</ele>
        <time>2025-09-20T09:00:39Z</time>
      </trkpt>
      <trkpt lat="46.22025" lon="4.61162">
        <ele>711.6</ele>
        <time>2025-09-20T09:00:40Z</time>
      </trkpt>
      <trkpt lat="46.22023" lon="4.61157">
        <ele>711.2</ele>
        <time>2025-09-20T09:00:41Z</time>
      </trkpt>
      <trkpt lat="46.22022" lon="4.61154">
        <ele>710.4</ele>
        <time>2025-09-20T09:00:42Z</time>
      </trkpt>
      <trkpt lat="46.22022" lon="4.61152">
        <ele>710</ele>
        <time>2025-09-20T09:00:43Z</time>
      </trkpt>
      <trkpt lat="46.22021" lon="4.61149">
        <ele>709.6</ele>
        <time>2025-09-20T09:00:44Z</time>
      </trkpt>
      <trkpt lat="46.22021" lon="4.61146">
        <ele>709.2</ele>
        <time>2025-09-20T09:00:45Z</time>
      </trkpt>
      <trkpt lat="46.2202" lon="4.61142">
        <ele>708.8</ele>
        <time>2025-09-20T09:00:46Z</time>
      </trkpt>
      <trkpt lat="46.2202" lon="4.61139">
        <ele>708.2</ele>
        <time>2025-09-20T09:00:47Z</time>
      </trkpt>
      <trkpt lat="46.22019" lon="4.61134">
        <ele>707.6</ele>
        <time>2025-09-20T09:00:48Z</time>
      </trkpt>
      <trkpt lat="46.22018" lon="4.61129">
        <ele>706.6</ele>
        <time>2025-09-20T09:00:49Z</time>
      </trkpt>
      <trkpt lat="46.22018" lon="4.61124">
        <ele>705.8</ele>
        <time>2025-09-20T09:00:50Z</time>
      </trkpt>
      <trkpt lat="46.22017" lon="4.6112">
        <ele>705.2</ele>
        <time>2025-09-20T09:00:51Z</time>
      </trkpt>
      <trkpt lat="46.22017" lon="4.61117">
        <ele>704.4</ele>
        <time>2025-09-20T09:00:52Z</time>
      </trkpt>
      <trkpt lat="46.22016" lon="4.61115">
        <ele>703.8</ele>
        <time>2025-09-20T09:00:53Z</time>
      </trkpt>
      <trkpt lat="46.22016" lon="4.61113">
        <ele>703.4</ele>
        <time>2025-09-20T09:00:54Z</time>
      </trkpt>
      <trkpt lat="46.22017" lon="4.61103">
        <ele>702.8</ele>
        <time>2025-09-20T09:00:55Z</time>
      </trkpt>
      <trkpt lat="46.22017" lon="4.61096">
        <ele>702.2</ele>
        <time>2025-09-20T09:00:56Z</time>
      </trkpt>
      <trkpt lat="46.22018" lon="4.6109">
        <ele>701.6</ele>
        <time>2025-09-20T09:00:57Z</time>
      </trkpt>
      <trkpt lat="46.22018" lon="4.61084">
        <ele>700.8</ele>
        <time>2025-09-20T09:00:58Z</time>
      </trkpt>
      <trkpt lat="46.22017" lon="4.61078">
        <ele>700.2</ele>
        <time>2025-09-20T09:00:59Z</time>
      </trkpt>
      <trkpt lat="46.22016" lon="4.61074">
        <ele>699.8</ele>
        <time>2025-09-20T09:01:00Z</time>
      </trkpt>
      <trkpt lat="46.22013" lon="4.6107">
        <ele>699.8</ele>
        <time>2025-09-20T09:01:01Z</time>
      </trkpt>
      <trkpt lat="46.2201" lon="4.61069">
        <ele>699.2</ele>
        <time>2025-09-20T09:01:02Z</time>
      </trkpt>
      <trkpt lat="46.22006" lon="4.61066">
        <ele>698.4</ele>
        <time>2025-09-20T09:01:03Z</time>
      </trkpt>
      <trkpt lat="46.22004" lon="4.61064">
        <ele>698.4</ele>
        <time>2025-09-20T09:01:04Z</time>
      </trkpt>
      <trkpt lat="46.22002" lon="4.61062">
        <ele>698.4</ele>
        <time>2025-09-20T09:01:05Z</time>
      </trkpt>
      <trkpt lat="46.21998" lon="4.61061">
        <ele>698.4</ele>
        <time>2025-09-20T09:01:06Z</time>
      </trkpt>
      <trkpt lat="46.21998" lon="4.61061">
        <ele>698.4</ele>
        <time>2025-09-20T09:01:07Z</time>
      </trkpt>
      <trkpt lat="46.21995" lon="4.6106">
        <ele>697.8</ele>
        <time>2025-09-20T09:01:08Z</time>
      </trkpt>
      <trkpt lat="46.21993" lon="4.61058">
        <ele>698.4</ele>
        <time>2025-09-20T09:01:09Z</time>
      </trkpt>
      <trkpt lat="46.21991" lon="4.61057">
        <ele>698.6</ele>
        <time>2025-09-20T09:01:10Z</time>
      </trkpt>
      <trkpt lat="46.21989" lon="4.61056">
        <ele>697.8</ele>
        <time>2025-09-20T09:01:11Z</time>
      </trkpt>
      <trkpt lat="46.21987" lon="4.61054">
        <ele>697.8</ele>
        <time>2025-09-20T09:01:12Z</time>
      </trkpt>
      <trkpt lat="46.21986" lon="4.61053">
        <ele>698.4</ele>
        <time>2025-09-20T09:01:13Z</time>
      </trkpt>
      <trkpt lat="46.21986" lon="4.61052">
        <ele>698.4</ele>
        <time>2025-09-20T09:01:14Z</time>
      </trkpt>
      <trkpt lat="46.21985" lon="4.6105">
        <ele>698.4</ele>
        <time>2025-09-20T09:01:15Z</time>
      </trkpt>
      <trkpt lat="46.21984" lon="4.61048">
        <ele>698.4</ele>
        <time>2025-09-20T09:01:16Z</time>
      </trkpt>
      <trkpt lat="46.21983" lon="4.61044">
        <ele>698.4</ele>
        <time>2025-09-20T09:01:17Z</time>
      </trkpt>
      <trkpt lat="46.21983" lon="4.6104">
        <ele>698.4</ele>
        <time>2025-09-20T09:01:18Z</time>
      </trkpt>
      <trkpt lat="46.21984" lon="4.61035">
        <ele>697.8</ele>
        <time>2025-09-20T09:01:19Z</time>
      </trkpt>
      <trkpt lat="46.21985" lon="4.61031">
        <ele>698.8</ele>
        <time>2025-09-20T09:01:20Z</time>
      </trkpt>
      <trkpt lat="46.21987" lon="4.61024">
        <ele>698.2</ele>
        <time>2025-09-20T09:01:21Z</time>
      </trkpt>
      <trkpt lat="46.21989" lon="4.61018">
        <ele>698.2</ele>
        <time>2025-09-20T09:01:22Z</time>
      </trkpt>
      <trkpt lat="46.21991" lon="4.61012">
        <ele>696.8</ele>
        <time>2025-09-20T09:01:23Z</time>
      </trkpt>
      <trkpt lat="46.21992" lon="4.61005">
        <ele>695.8</ele>
        <time>2025-09-20T09:01:24Z</time>
      </trkpt>
      <trkpt lat="46.21994" lon="4.60998">
        <ele>694.6</ele>
        <time>2025-09-20T09:01:25Z</time>
      </trkpt>
      <trkpt lat="46.21996" lon="4.60992">
        <ele>693.6</ele>
        <time>2025-09-20T09:01:26Z</time>
      </trkpt>
      <trkpt lat="46.21999" lon="4.60985">
        <ele>693.6</ele>
        <time>2025-09-20T09:01:27Z</time>
      </trkpt>
      <trkpt lat="46.22003" lon="4.6098">
        <ele>693</ele>
        <time>2025-09-20T09:01:28Z</time>
      </trkpt>
      <trkpt lat="46.22008" lon="4.60973">
        <ele>692.4</ele>
        <time>2025-09-20T09:01:29Z</time>
      </trkpt>
      <trkpt lat="46.22011" lon="4.60966">
        <ele>693.2</ele>
        <time>2025-09-20T09:01:30Z</time>
      </trkpt>
      <trkpt lat="46.22016" lon="4.60958">
        <ele>691.6</ele>
        <time>2025-09-20T09:01:31Z</time>
      </trkpt>
      <trkpt lat="46.22021" lon="4.60949">
        <ele>691</ele>
        <time>2025-09-20T09:01:32Z</time>
      </trkpt>
      <trkpt lat="46.22024" lon="4.60941">
        <ele>690.2</ele>
        <time>2025-09-20T09:01:33Z</time>
      </trkpt>
      <trkpt lat="46.22029" lon="4.60932">
        <ele>690.6</ele>
        <time>2025-09-20T09:01:34Z</time>
      </trkpt>
      <trkpt lat="46.22032" lon="4.60924">
        <ele>690.6</ele>
        <time>2025-09-20T09:01:35Z</time>
      </trkpt>
      <trkpt lat="46.22036" lon="4.60916">
        <ele>689.4</ele>
        <time>2025-09-20T09:01:36Z</time>
      </trkpt>
      <trkpt lat="46.22038" lon="4.60909">
        <ele>689.4</ele>
        <time>2025-09-20T09:01:37Z</time>
      </trkpt>
      <trkpt lat="46.22041" lon="4.60902">
        <ele>688.6</ele>
        <time>2025-09-20T09:01:38Z</time>
      </trkpt>
      <trkpt lat="46.22044" lon="4.60897">
        <ele>687.6</ele>
        <time>2025-09-20T09:01:39Z</time>
      </trkpt>
      <trkpt lat="46.22045" lon="4.6089">
        <ele>687.6</ele>
        <time>2025-09-20T09:01:40Z</time>
      </trkpt>
      <trkpt lat="46.22047" lon="4.60884">
        <ele>687.6</ele>
        <time>2025-09-20T09:01:41Z</time>
      </trkpt>
      <trkpt lat="46.22049" lon="4.60877">
        <ele>687.2</ele>
        <time>2025-09-20T09:01:42Z</time>
      </trkpt>
      <trkpt lat="46.22051" lon="4.60869">
        <ele>686.4</ele>
        <time>2025-09-20T09:01:43Z</time>
      </trkpt>
      <trkpt lat="46.22053" lon="4.60861">
        <ele>686</ele>
        <time>2025-09-20T09:01:44Z</time>
      </trkpt>
      <trkpt lat="46.22055" lon="4.60853">
        <ele>686</ele>
        <time>2025-09-20T09:01:45Z</time>
      </trkpt>
      <trkpt lat="46.22056" lon="4.60848">
        <ele>685.8</ele>
        <time>2025-09-20T09:01:46Z</time>
      </trkpt>
      <trkpt lat="46.22057" lon="4.60845">
        <ele>685.8</ele>
        <time>2025-09-20T09:01:47Z</time>
      </trkpt>
      <trkpt lat="46.22057" lon="4.6084">
        <ele>685.8</ele>
        <time>2025-09-20T09:01:48Z</time>
      </trkpt>
      <trkpt lat="46.22058" lon="4.60835">
        <ele>685.4</ele>
        <time>2025-09-20T09:01:49Z</time>
      </trkpt>
      <trkpt lat="46.22057" lon="4.60829">
        <ele>685</ele>
        <time>2025-09-20T09:01:50Z</time>
      </trkpt>
      <trkpt lat="46.22056" lon="4.60823">
        <ele>684.6</ele>
        <time>2025-09-20T09:01:51Z</time>
      </trkpt>
      <trkpt lat="46.22055" lon="4.60816">
        <ele>684.6</ele>
        <time>2025-09-20T09:01:52Z</time>
      </trkpt>
      <trkpt lat="46.22055" lon="4.6081">
        <ele>683.6</ele>
        <time>2025-09-20T09:01:53Z</time>
      </trkpt>
      <trkpt lat="46.22053" lon="4.60805">
        <ele>683.2</ele>
        <time>2025-09-20T09:01:54Z</time>
      </trkpt>
      <trkpt lat="46.22053" lon="4.608">
        <ele>682.8</ele>
        <time>2025-09-20T09:01:55Z</time>
      </trkpt>
      <trkpt lat="46.22054" lon="4.60793">
        <ele>682</ele>
        <time>2025-09-20T09:01:56Z</time>
      </trkpt>
      <trkpt lat="46.22056" lon="4.60788">
        <ele>681.8</ele>
        <time>2025-09-20T09:01:57Z</time>
      </trkpt>
      <trkpt lat="46.2206" lon="4.60785">
        <ele>681.2</ele>
        <time>2025-09-20T09:01:58Z</time>
      </trkpt>
      <trkpt lat="46.22063" lon="4.60782">
        <ele>680.6</ele>
        <time>2025-09-20T09:01:59Z</time>
      </trkpt>
      <trkpt lat="46.22064" lon="4.60777">
        <ele>680.2</ele>
        <time>2025-09-20T09:02:00Z</time>
      </trkpt>
      <trkpt lat="46.22065" lon="4.60772">
        <ele>679.2</ele>
        <time>2025-09-20T09:02:01Z</time>
      </trkpt>
      <trkpt lat="46.22066" lon="4.60767">
        <ele>679</ele>
        <time>2025-09-20T09:02:02Z</time>
      </trkpt>
      <trkpt lat="46.22063" lon="4.6076">
        <ele>678.4</ele>
        <time>2025-09-20T09:02:03Z</time>
      </trkpt>
      <trkpt lat="46.22061" lon="4.60754">
        <ele>678.4</ele>
        <time>2025-09-20T09:02:04Z</time>
      </trkpt>
      <trkpt lat="46.22057" lon="4.60748">
        <ele>677.6</ele>
        <time>2025-09-20T09:02:05Z</time>
      </trkpt>
      <trkpt lat="46.22053" lon="4.60741">
        <ele>677</ele>
        <time>2025-09-20T09:02:06Z</time>
      </trkpt>
      <trkpt lat="46.22049" lon="4.60735">
        <ele>676</ele>
        <time>2025-09-20T09:02:07Z</time>
      </trkpt>
      <trkpt lat="46.22044" lon="4.60727">
        <ele>676.4</ele>
        <time>2025-09-20T09:02:08Z</time>
      </trkpt>
      <trkpt lat="46.22041" lon="4.60719">
        <ele>675.8</ele>
        <time>2025-09-20T09:02:09Z</time>
      </trkpt>
      <trkpt lat="46.22036" lon="4.60712">
        <ele>675.8</ele>
        <time>2025-09-20T09:02:10Z</time>
      </trkpt>
      <trkpt lat="46.22032" lon="4.60704">
        <ele>674.6</ele>
        <time>2025-09-20T09:02:11Z</time>
      </trkpt>
      <trkpt lat="46.22029" lon="4.60694">
        <ele>674.6</ele>
        <time>2025-09-20T09:02:12Z</time>
      </trkpt>
      <trkpt lat="46.22024" lon="4.6069">
        <ele>674.8</ele>
        <time>2025-09-20T09:02:13Z</time>
      </trkpt>
      <trkpt lat="46.22021" lon="4.60682">
        <ele>674.8</ele>
        <time>2025-09-20T09:02:14Z</time>
      </trkpt>
      <trkpt lat="46.22018" lon="4.60678">
        <ele>674.2</ele>
        <time>2025-09-20T09:02:15Z</time>
      </trkpt>
      <trkpt lat="46.22013" lon="4.60675">
        <ele>673.8</ele>
        <time>2025-09-20T09:02:16Z</time>
      </trkpt>
      <trkpt lat="46.22007" lon="4.60673">
        <ele>673.6</ele>
        <time>2025-09-20T09:02:17Z</time>
      </trkpt>
      <trkpt lat="46.22002" lon="4.60675">
        <ele>673.6</ele>
        <time>2025-09-20T09:02:18Z</time>
      </trkpt>
      <trkpt lat="46.21996" lon="4.60671">
        <ele>673.6</ele>
        <time>2025-09-20T09:02:19Z</time>
      </trkpt>
      <trkpt lat="46.21995" lon="4.6067">
        <ele>673.6</ele>
        <time>2025-09-20T09:02:20Z</time>
      </trkpt>
      <trkpt lat="46.21994" lon="4.60668">
        <ele>673.6</ele>
        <time>2025-09-20T09:02:21Z</time>
      </trkpt>
      <trkpt lat="46.21995" lon="4.60667">
        <ele>673.6</ele>
        <time>2025-09-20T09:02:22Z</time>
      </trkpt>
      <trkpt lat="46.21994" lon="4.60666">
        <ele>673.6</ele>
        <time>2025-09-20T09:02:23Z</time>
      </trkpt>
      <trkpt lat="46.21993" lon="4.60666">
        <ele>673.6</ele>
        <time>2025-09-20T09:02:37Z</time>
      </trkpt>
      <trkpt lat="46.21992" lon="4.60664">
        <ele>673.8</ele>
        <time>2025-09-20T09:02:38Z</time>
      </trkpt>
      <trkpt lat="46.2199" lon="4.60662">
        <ele>673.6</ele>
        <time>2025-09-20T09:02:39Z</time>
      </trkpt>
      <trkpt lat="46.21989" lon="4.60661">
        <ele>673.4</ele>
        <time>2025-09-20T09:02:40Z</time>
      </trkpt>
      <trkpt lat="46.21987" lon="4.60658">
        <ele>673.4</ele>
        <time>2025-09-20T09:02:41Z</time>
      </trkpt>
      <trkpt lat="46.21985" lon="4.60653">
        <ele>673.4</ele>
        <time>2025-09-20T09:02:42Z</time>
      </trkpt>
      <trkpt lat="46.21983" lon="4.60647">
        <ele>673.4</ele>
        <time>2025-09-20T09:02:43Z</time>
      </trkpt>
      <trkpt lat="46.21981" lon="4.60643">
        <ele>673</ele>
        <time>2025-09-20T09:02:44Z</time>
      </trkpt>
      <trkpt lat="46.21979" lon="4.60638">
        <ele>673</ele>
        <time>2025-09-20T09:02:45Z</time>
      </trkpt>
      <trkpt lat="46.21977" lon="4.60633">
        <ele>672.8</ele>
        <time>2025-09-20T09:02:46Z</time>
      </trkpt>
      <trkpt lat="46.21974" lon="4.60629">
        <ele>672</ele>
        <time>2025-09-20T09:02:47Z</time>
      </trkpt>
      <trkpt lat="46.21973" lon="4.60625">
        <ele>672.6</ele>
        <time>2025-09-20T09:02:48Z</time>
      </trkpt>
      <trkpt lat="46.21971" lon="4.60621">
        <ele>672.6</ele>
        <time>2025-09-20T09:02:49Z</time>
      </trkpt>
      <trkpt lat="46.2197" lon="4.60618">
        <ele>672.8</ele>
        <time>2025-09-20T09:02:50Z</time>
      </trkpt>
      <trkpt lat="46.2197" lon="4.60615">
        <ele>672.8</ele>
        <time>2025-09-20T09:02:51Z</time>
      </trkpt>
      <trkpt lat="46.21969" lon="4.60612">
        <ele>673.2</ele>
        <time>2025-09-20T09:02:52Z</time>
      </trkpt>
      <trkpt lat="46.21969" lon="4.60611">
        <ele>673.8</ele>
        <time>2025-09-20T09:02:53Z</time>
      </trkpt>
      <trkpt lat="46.21969" lon="4.60609">
        <ele>673.8</ele>
        <time>2025-09-20T09:02:54Z</time>
      </trkpt>
      <trkpt lat="46.21968" lon="4.60607">
        <ele>673.8</ele>
        <time>2025-09-20T09:02:55Z</time>
      </trkpt>
      <trkpt lat="46.21968" lon="4.60605">
        <ele>673.8</ele>
        <time>2025-09-20T09:02:56Z</time>
      </trkpt>
      <trkpt lat="46.21967" lon="4.60604">
        <ele>674</ele>
        <time>2025-09-20T09:02:57Z</time>
      </trkpt>
      <trkpt lat="46.21968" lon="4.60604">
        <ele>674</ele>
        <time>2025-09-20T09:02:58Z</time>
      </trkpt>
      <trkpt lat="46.21969" lon="4.60603">
        <ele>675</ele>
        <time>2025-09-20T09:03:10Z</time>
      </trkpt>
      <trkpt lat="46.21969" lon="4.60602">
        <ele>674.6</ele>
        <time>2025-09-20T09:03:11Z</time>
      </trkpt>
      <trkpt lat="46.21968" lon="4.60601">
        <ele>674.6</ele>
        <time>2025-09-20T09:03:12Z</time>
      </trkpt>
      <trkpt lat="46.21967" lon="4.60601">
        <ele>674.6</ele>
        <time>2025-09-20T09:03:13Z</time>
      </trkpt>
      <trkpt lat="46.21966" lon="4.60602">
        <ele>674.6</ele>
        <time>2025-09-20T09:03:14Z</time>
      </trkpt>
      <trkpt lat="46.21966" lon="4.60605">
        <ele>674.6</ele>
        <time>2025-09-20T09:03:15Z</time>
      </trkpt>
      <trkpt lat="46.21967" lon="4.60608">
        <ele>674.4</ele>
        <time>2025-09-20T09:03:16Z</time>
      </trkpt>
      <trkpt lat="46.21969" lon="4.60612">
        <ele>674.4</ele>
        <time>2025-09-20T09:03:17Z</time>
      </trkpt>
      <trkpt lat="46.21971" lon="4.60616">
        <ele>674.2</ele>
        <time>2025-09-20T09:03:18Z</time>
      </trkpt>
      <trkpt lat="46.21973" lon="4.60621">
        <ele>674.2</ele>
        <time>2025-09-20T09:03:19Z</time>
      </trkpt>
      <trkpt lat="46.21976" lon="4.60628">
        <ele>674.2</ele>
        <time>2025-09-20T09:03:20Z</time>
      </trkpt>
      <trkpt lat="46.21978" lon="4.60633">
        <ele>674</ele>
        <time>2025-09-20T09:03:21Z</time>
      </trkpt>
      <trkpt lat="46.21981" lon="4.60638">
        <ele>674</ele>
        <time>2025-09-20T09:03:22Z</time>
      </trkpt>
      <trkpt lat="46.21984" lon="4.60643">
        <ele>674</ele>
        <time>2025-09-20T09:03:23Z</time>
      </trkpt>
      <trkpt lat="46.21986" lon="4.60648">
        <ele>674</ele>
        <time>2025-09-20T09:03:24Z</time>
      </trkpt>
      <trkpt lat="46.21989" lon="4.60654">
        <ele>674</ele>
        <time>2025-09-20T09:03:25Z</time>
      </trkpt>
      <trkpt lat="46.21991" lon="4.60659">
        <ele>674</ele>
        <time>2025-09-20T09:03:26Z</time>
      </trkpt>
      <trkpt lat="46.21991" lon="4.60665">
        <ele>674</ele>
        <time>2025-09-20T09:03:27Z</time>
      </trkpt>
      <trkpt lat="46.2199" lon="4.6067">
        <ele>674</ele>
        <time>2025-09-20T09:03:28Z</time>
      </trkpt>
      <trkpt lat="46.21989" lon="4.60674">
        <ele>674</ele>
        <time>2025-09-20T09:03:29Z</time>
      </trkpt>
      <trkpt lat="46.21987" lon="4.60678">
        <ele>673.4</ele>
        <time>2025-09-20T09:03:30Z</time>
      </trkpt>
      <trkpt lat="46.21986" lon="4.60681">
        <ele>673.4</ele>
        <time>2025-09-20T09:03:31Z</time>
      </trkpt>
      <trkpt lat="46.21985" lon="4.60683">
        <ele>674</ele>
        <time>2025-09-20T09:03:32Z</time>
      </trkpt>
      <trkpt lat="46.21985" lon="4.60684">
        <ele>673.4</ele>
        <time>2025-09-20T09:03:33Z</time>
      </trkpt>
      <trkpt lat="46.21984" lon="4.60686">
        <ele>674</ele>
        <time>2025-09-20T09:03:34Z</time>
      </trkpt>
      <trkpt lat="46.21982" lon="4.60688">
        <ele>674</ele>
        <time>2025-09-20T09:03:35Z</time>
      </trkpt>
      <trkpt lat="46.21981" lon="4.60691">
        <ele>674</ele>
        <time>2025-09-20T09:03:36Z</time>
      </trkpt>
      <trkpt lat="46.21979" lon="4.60695">
        <ele>674</ele>
        <time>2025-09-20T09:03:37Z</time>
      </trkpt>
      <trkpt lat="46.21977" lon="4.60699">
        <ele>674</ele>
        <time>2025-09-20T09:03:38Z</time>
      </trkpt>
      <trkpt lat="46.21975" lon="4.60703">
        <ele>674</ele>
        <time>2025-09-20T09:03:39Z</time>
      </trkpt>
      <trkpt lat="46.21972" lon="4.60707">
        <ele>674</ele>
        <time>2025-09-20T09:03:40Z</time>
      </trkpt>
      <trkpt lat="46.2197" lon="4.60712">
        <ele>673.6</ele>
        <time>2025-09-20T09:03:41Z</time>
      </trkpt>
      <trkpt lat="46.21967" lon="4.60717">
        <ele>673.2</ele>
        <time>2025-09-20T09:03:42Z</time>
      </trkpt>
      <trkpt lat="46.21965" lon="4.60721">
        <ele>673.2</ele>
        <time>2025-09-20T09:03:43Z</time>
      </trkpt>
      <trkpt lat="46.21962" lon="4.60725">
        <ele>673.2</ele>
        <time>2025-09-20T09:03:44Z</time>
      </trkpt>
      <trkpt lat="46.2196" lon="4.60729">
        <ele>672.8</ele>
        <time>2025-09-20T09:03:45Z</time>
      </trkpt>
      <trkpt lat="46.21958" lon="4.60734">
        <ele>672.2</ele>
        <time>2025-09-20T09:03:46Z</time>
      </trkpt>
      <trkpt lat="46.21956" lon="4.60737">
        <ele>672</ele>
        <time>2025-09-20T09:03:47Z</time>
      </trkpt>
      <trkpt lat="46.21955" lon="4.60741">
        <ele>671.6</ele>
        <time>2025-09-20T09:03:48Z</time>
      </trkpt>
      <trkpt lat="46.21954" lon="4.60744">
        <ele>671.6</ele>
        <time>2025-09-20T09:03:49Z</time>
      </trkpt>
      <trkpt lat="46.21953" lon="4.60747">
        <ele>671.6</ele>
        <time>2025-09-20T09:03:50Z</time>
      </trkpt>
      <trkpt lat="46.21952" lon="4.60751">
        <ele>671.6</ele>
        <time>2025-09-20T09:03:51Z</time>
      </trkpt>
      <trkpt lat="46.21951" lon="4.60756">
        <ele>670.4</ele>
        <time>2025-09-20T09:03:52Z</time>
      </trkpt>
      <trkpt lat="46.21951" lon="4.60761">
        <ele>670.4</ele>
        <time>2025-09-20T09:03:53Z</time>
      </trkpt>
      <trkpt lat="46.21951" lon="4.60767">
        <ele>670.4</ele>
        <time>2025-09-20T09:03:54Z</time>
      </trkpt>
      <trkpt lat="46.2195" lon="4.60774">
        <ele>669.6</ele>
        <time>2025-09-20T09:03:55Z</time>
      </trkpt>
      <trkpt lat="46.2195" lon="4.6078">
        <ele>668.8</ele>
        <time>2025-09-20T09:03:56Z</time>
      </trkpt>
      <trkpt lat="46.21948" lon="4.60785">
        <ele>668.2</ele>
        <time>2025-09-20T09:03:57Z</time>
      </trkpt>
      <trkpt lat="46.21947" lon="4.6079">
        <ele>667.8</ele>
        <time>2025-09-20T09:03:58Z</time>
      </trkpt>
      <trkpt lat="46.21947" lon="4.60794">
        <ele>667.6</ele>
        <time>2025-09-20T09:03:59Z</time>
      </trkpt>
      <trkpt lat="46.21946" lon="4.60798">
        <ele>667.6</ele>
        <time>2025-09-20T09:04:00Z</time>
      </trkpt>
      <trkpt lat="46.21946" lon="4.608">
        <ele>666.8</ele>
        <time>2025-09-20T09:04:01Z</time>
      </trkpt>
      <trkpt lat="46.21945" lon="4.60802">
        <ele>666.8</ele>
        <time>2025-09-20T09:04:02Z</time>
      </trkpt>
      <trkpt lat="46.21944" lon="4.60803">
        <ele>666.6</ele>
        <time>2025-09-20T09:04:03Z</time>
      </trkpt>
      <trkpt lat="46.21942" lon="4.60805">
        <ele>666</ele>
        <time>2025-09-20T09:04:04Z</time>
      </trkpt>
      <trkpt lat="46.2194" lon="4.60806">
        <ele>666</ele>
        <time>2025-09-20T09:04:05Z</time>
      </trkpt>
      <trkpt lat="46.21937" lon="4.60807">
        <ele>666</ele>
        <time>2025-09-20T09:04:06Z</time>
      </trkpt>
      <trkpt lat="46.21935" lon="4.60808">
        <ele>665.2</ele>
        <time>2025-09-20T09:04:07Z</time>
      </trkpt>
      <trkpt lat="46.21934" lon="4.60808">
        <ele>664.8</ele>
        <time>2025-09-20T09:04:08Z</time>
      </trkpt>
      <trkpt lat="46.21932" lon="4.60808">
        <ele>664.2</ele>
        <time>2025-09-20T09:04:09Z</time>
      </trkpt>
      <trkpt lat="46.2193" lon="4.60808">
        <ele>663.8</ele>
        <time>2025-09-20T09:04:10Z</time>
      </trkpt>
      <trkpt lat="46.21929" lon="4.60809">
        <ele>663.4</ele>
        <time>2025-09-20T09:04:11Z</time>
      </trkpt>
      <trkpt lat="46.21927" lon="4.6081">
        <ele>663</ele>
        <time>2025-09-20T09:04:12Z</time>
      </trkpt>
      <trkpt lat="46.21926" lon="4.60811">
        <ele>662.6</ele>
        <time>2025-09-20T09:04:13Z</time>
      </trkpt>
      <trkpt lat="46.21926" lon="4.6081">
        <ele>662.2</ele>
        <time>2025-09-20T09:04:14Z</time>
      </trkpt>
      <trkpt lat="46.21926" lon="4.6081">
        <ele>662.2</ele>
        <time>2025-09-20T09:04:15Z</time>
      </trkpt>
      <trkpt lat="46.21922" lon="4.60813">
        <ele>661.8</ele>
        <time>2025-09-20T09:04:38Z</time>
      </trkpt>
      <trkpt lat="46.2192" lon="4.60816">
        <ele>661.6</ele>
        <time>2025-09-20T09:04:39Z</time>
      </trkpt>
      <trkpt lat="46.21917" lon="4.60819">
        <ele>661.2</ele>
        <time>2025-09-20T09:04:40Z</time>
      </trkpt>
      <trkpt lat="46.21914" lon="4.60823">
        <ele>661.2</ele>
        <time>2025-09-20T09:04:41Z</time>
      </trkpt>
      <trkpt lat="46.21912" lon="4.60827">
        <ele>661.6</ele>
        <time>2025-09-20T09:04:42Z</time>
      </trkpt>
      <trkpt lat="46.21909" lon="4.60831">
        <ele>661.6</ele>
        <time>2025-09-20T09:04:43Z</time>
      </trkpt>
      <trkpt lat="46.21907" lon="4.60834">
        <ele>661.2</ele>
        <time>2025-09-20T09:04:44Z</time>
      </trkpt>
      <trkpt lat="46.21905" lon="4.60837">
        <ele>661.8</ele>
        <time>2025-09-20T09:04:45Z</time>
      </trkpt>
      <trkpt lat="46.21902" lon="4.60841">
        <ele>662.2</ele>
        <time>2025-09-20T09:04:46Z</time>
      </trkpt>
      <trkpt lat="46.21899" lon="4.60844">
        <ele>662</ele>
        <time>2025-09-20T09:04:47Z</time>
      </trkpt>
      <trkpt lat="46.21897" lon="4.60847">
        <ele>662</ele>
        <time>2025-09-20T09:04:48Z</time>
      </trkpt>
      <trkpt lat="46.21895" lon="4.60849">
        <ele>662</ele>
        <time>2025-09-20T09:04:49Z</time>
      </trkpt>
      <trkpt lat="46.21893" lon="4.60853">
        <ele>660.8</ele>
        <time>2025-09-20T09:04:50Z</time>
      </trkpt>
      <trkpt lat="46.2189" lon="4.60856">
        <ele>660.8</ele>
        <time>2025-09-20T09:04:51Z</time>
      </trkpt>
      <trkpt lat="46.21888" lon="4.60858">
        <ele>661</ele>
        <time>2025-09-20T09:04:52Z</time>
      </trkpt>
      <trkpt lat="46.21886" lon="4.60861">
        <ele>661</ele>
        <time>2025-09-20T09:04:53Z</time>
      </trkpt>
      <trkpt lat="46.21883" lon="4.60864">
        <ele>661</ele>
        <time>2025-09-20T09:04:54Z</time>
      </trkpt>
      <trkpt lat="46.21881" lon="4.60867">
        <ele>661</ele>
        <time>2025-09-20T09:04:55Z</time>
      </trkpt>
      <trkpt lat="46.21878" lon="4.6087">
        <ele>661</ele>
        <time>2025-09-20T09:04:56Z</time>
      </trkpt>
      <trkpt lat="46.21875" lon="4.60873">
        <ele>661</ele>
        <time>2025-09-20T09:04:57Z</time>
      </trkpt>
      <trkpt lat="46.21872" lon="4.60875">
        <ele>660</ele>
        <time>2025-09-20T09:04:58Z</time>
      </trkpt>
      <trkpt lat="46.21868" lon="4.60878">
        <ele>660.4</ele>
        <time>2025-09-20T09:04:59Z</time>
      </trkpt>
      <trkpt lat="46.21864" lon="4.6088">
        <ele>659.8</ele>
        <time>2025-09-20T09:05:00Z</time>
      </trkpt>
      <trkpt lat="46.21861" lon="4.60881">
        <ele>660.6</ele>
        <time>2025-09-20T09:05:01Z</time>
      </trkpt>
      <trkpt lat="46.21857" lon="4.60882">
        <ele>660.2</ele>
        <time>2025-09-20T09:05:02Z</time>
      </trkpt>
      <trkpt lat="46.21853" lon="4.60884">
        <ele>659.6</ele>
        <time>2025-09-20T09:05:03Z</time>
      </trkpt>
      <trkpt lat="46.21849" lon="4.60885">
        <ele>659.6</ele>
        <time>2025-09-20T09:05:04Z</time>
      </trkpt>
      <trkpt lat="46.21845" lon="4.60886">
        <ele>659.8</ele>
        <time>2025-09-20T09:05:05Z</time>
      </trkpt>
      <trkpt lat="46.21841" lon="4.60887">
        <ele>659.8</ele>
        <time>2025-09-20T09:05:06Z</time>
      </trkpt>
      <trkpt lat="46.21838" lon="4.60888">
        <ele>659.4</ele>
        <time>2025-09-20T09:05:07Z</time>
      </trkpt>
      <trkpt lat="46.21835" lon="4.60889">
        <ele>659.4</ele>
        <time>2025-09-20T09:05:08Z</time>
      </trkpt>
      <trkpt lat="46.21831" lon="4.6089">
        <ele>659.4</ele>
        <time>2025-09-20T09:05:09Z</time>
      </trkpt>
      <trkpt lat="46.21829" lon="4.6089">
        <ele>659.2</ele>
        <time>2025-09-20T09:05:10Z</time>
      </trkpt>
      <trkpt lat="46.21826" lon="4.6089">
        <ele>658.6</ele>
        <time>2025-09-20T09:05:11Z</time>
      </trkpt>
      <trkpt lat="46.21823" lon="4.6089">
        <ele>658.4</ele>
        <time>2025-09-20T09:05:12Z</time>
      </trkpt>
      <trkpt lat="46.21821" lon="4.60889">
        <ele>658</ele>
        <time>2025-09-20T09:05:13Z</time>
      </trkpt>
      <trkpt lat="46.21819" lon="4.60889">
        <ele>657.8</ele>
        <time>2025-09-20T09:05:14Z</time>
      </trkpt>
      <trkpt lat="46.21817" lon="4.60889">
        <ele>657.8</ele>
        <time>2025-09-20T09:05:15Z</time>
      </trkpt>
      <trkpt lat="46.21815" lon="4.6089">
        <ele>657.4</ele>
        <time>2025-09-20T09:05:16Z</time>
      </trkpt>
      <trkpt lat="46.21813" lon="4.6089">
        <ele>657.2</ele>
        <time>2025-09-20T09:05:17Z</time>
      </trkpt>
      <trkpt lat="46.21812" lon="4.6089">
        <ele>657.2</ele>
        <time>2025-09-20T09:05:18Z</time>
      </trkpt>
      <trkpt lat="46.21812" lon="4.6089">
        <ele>657.2</ele>
        <time>2025-09-20T09:05:19Z</time>
      </trkpt>
      <trkpt lat="46.21812" lon="4.6089">
        <ele>657</ele>
        <time>2025-09-20T09:05:20Z</time>
      </trkpt>
      <trkpt lat="46.21812" lon="4.6089">
        <ele>657</ele>
        <time>2025-09-20T09:05:21Z</time>
      </trkpt>
      <trkpt lat="46.2181" lon="4.6089">
        <ele>656.4</ele>
        <time>2025-09-20T09:05:27Z</time>
      </trkpt>
      <trkpt lat="46.21809" lon="4.60889">
        <ele>656.2</ele>
        <time>2025-09-20T09:05:28Z</time>
      </trkpt>
      <trkpt lat="46.2181" lon="4.60889">
        <ele>656.2</ele>
        <time>2025-09-20T09:05:29Z</time>
      </trkpt>
      <trkpt lat="46.21808" lon="4.6089">
        <ele>655.8</ele>
        <time>2025-09-20T09:05:38Z</time>
      </trkpt>
      <trkpt lat="46.21807" lon="4.6089">
        <ele>655.8</ele>
        <time>2025-09-20T09:05:39Z</time>
      </trkpt>
      <trkpt lat="46.21807" lon="4.6089">
        <ele>655.8</ele>
        <time>2025-09-20T09:05:40Z</time>
      </trkpt>
      <trkpt lat="46.21807" lon="4.6089">
        <ele>655.8</ele>
        <time>2025-09-20T09:05:41Z</time>
      </trkpt>
      <trkpt lat="46.21806" lon="4.6089">
        <ele>655.4</ele>
        <time>2025-09-20T09:05:42Z</time>
      </trkpt>
      <trkpt lat="46.21804" lon="4.6089">
        <ele>655.4</ele>
        <time>2025-09-20T09:05:43Z</time>
      </trkpt>
      <trkpt lat="46.21801" lon="4.60889">
        <ele>654.8</ele>
        <time>2025-09-20T09:05:44Z</time>
      </trkpt>
      <trkpt lat="46.21797" lon="4.60888">
        <ele>654.2</ele>
        <time>2025-09-20T09:05:45Z</time>
      </trkpt>
      <trkpt lat="46.21794" lon="4.60887">
        <ele>653.6</ele>
        <time>2025-09-20T09:05:46Z</time>
      </trkpt>
      <trkpt lat="46.21791" lon="4.60886">
        <ele>653.2</ele>
        <time>2025-09-20T09:05:47Z</time>
      </trkpt>
      <trkpt lat="46.21789" lon="4.60883">
        <ele>653.2</ele>
        <time>2025-09-20T09:05:48Z</time>
      </trkpt>
      <trkpt lat="46.21787" lon="4.6088">
        <ele>652.8</ele>
        <time>2025-09-20T09:05:49Z</time>
      </trkpt>
      <trkpt lat="46.21786" lon="4.60877">
        <ele>652</ele>
        <time>2025-09-20T09:05:50Z</time>
      </trkpt>
      <trkpt lat="46.21786" lon="4.60872">
        <ele>651.4</ele>
        <time>2025-09-20T09:05:51Z</time>
      </trkpt>
      <trkpt lat="46.21785" lon="4.60868">
        <ele>651.4</ele>
        <time>2025-09-20T09:05:52Z</time>
      </trkpt>
      <trkpt lat="46.21785" lon="4.60863">
        <ele>650.2</ele>
        <time>2025-09-20T09:05:53Z</time>
      </trkpt>
      <trkpt lat="46.21784" lon="4.60858">
        <ele>650.8</ele>
        <time>2025-09-20T09:05:54Z</time>
      </trkpt>
      <trkpt lat="46.21784" lon="4.60854">
        <ele>650.4</ele>
        <time>2025-09-20T09:05:55Z</time>
      </trkpt>
      <trkpt lat="46.21783" lon="4.6085">
        <ele>650.2</ele>
        <time>2025-09-20T09:05:56Z</time>
      </trkpt>
      <trkpt lat="46.21783" lon="4.60846">
        <ele>649.4</ele>
        <time>2025-09-20T09:05:57Z</time>
      </trkpt>
      <trkpt lat="46.21782" lon="4.60842">
        <ele>648.8</ele>
        <time>2025-09-20T09:05:58Z</time>
      </trkpt>
      <trkpt lat="46.21781" lon="4.60837">
        <ele>648.4</ele>
        <time>2025-09-20T09:05:59Z</time>
      </trkpt>
      <trkpt lat="46.2178" lon="4.60833">
        <ele>647.8</ele>
        <time>2025-09-20T09:06:00Z</time>
      </trkpt>
      <trkpt lat="46.21779" lon="4.60829">
        <ele>647.4</ele>
        <time>2025-09-20T09:06:01Z</time>
      </trkpt>
      <trkpt lat="46.21778" lon="4.60825">
        <ele>646.6</ele>
        <time>2025-09-20T09:06:02Z</time>
      </trkpt>
      <trkpt lat="46.21776" lon="4.60821">
        <ele>646</ele>
        <time>2025-09-20T09:06:03Z</time>
      </trkpt>
      <trkpt lat="46.21775" lon="4.60818">
        <ele>645.2</ele>
        <time>2025-09-20T09:06:04Z</time>
      </trkpt>
      <trkpt lat="46.21774" lon="4.60817">
        <ele>645</ele>
        <time>2025-09-20T09:06:05Z</time>
      </trkpt>
      <trkpt lat="46.21772" lon="4.60814">
        <ele>644</ele>
        <time>2025-09-20T09:06:06Z</time>
      </trkpt>
      <trkpt lat="46.21769" lon="4.60811">
        <ele>643.2</ele>
        <time>2025-09-20T09:06:07Z</time>
      </trkpt>
      <trkpt lat="46.21767" lon="4.60808">
        <ele>642.8</ele>
        <time>2025-09-20T09:06:08Z</time>
      </trkpt>
      <trkpt lat="46.21765" lon="4.60806">
        <ele>642.4</ele>
        <time>2025-09-20T09:06:09Z</time>
      </trkpt>
      <trkpt lat="46.21763" lon="4.60803">
        <ele>642</ele>
        <time>2025-09-20T09:06:10Z</time>
      </trkpt>
      <trkpt lat="46.21761" lon="4.60801">
        <ele>641.6</ele>
        <time>2025-09-20T09:06:11Z</time>
      </trkpt>
      <trkpt lat="46.21759" lon="4.60797">
        <ele>641</ele>
        <time>2025-09-20T09:06:12Z</time>
      </trkpt>
      <trkpt lat="46.21758" lon="4.60795">
        <ele>640</ele>
        <time>2025-09-20T09:06:13Z</time>
      </trkpt>
      <trkpt lat="46.21757" lon="4.60792">
        <ele>639.2</ele>
        <time>2025-09-20T09:06:14Z</time>
      </trkpt>
      <trkpt lat="46.21755" lon="4.60789">
        <ele>638.6</ele>
        <time>2025-09-20T09:06:15Z</time>
      </trkpt>
      <trkpt lat="46.21754" lon="4.60786">
        <ele>637.6</ele>
        <time>2025-09-20T09:06:16Z</time>
      </trkpt>
      <trkpt lat="46.21752" lon="4.60783">
        <ele>637.2</ele>
        <time>2025-09-20T09:06:17Z</time>
      </trkpt>
      <trkpt lat="46.21751" lon="4.6078">
        <ele>636.8</ele>
        <time>2025-09-20T09:06:18Z</time>
      </trkpt>
      <trkpt lat="46.2175" lon="4.60776">
        <ele>636.8</ele>
        <time>2025-09-20T09:06:19Z</time>
      </trkpt>
      <trkpt lat="46.21748" lon="4.60773">
        <ele>636.6</ele>
        <time>2025-09-20T09:06:20Z</time>
      </trkpt>
      <trkpt lat="46.21747" lon="4.6077">
        <ele>636</ele>
        <time>2025-09-20T09:06:21Z</time>
      </trkpt>
      <trkpt lat="46.21745" lon="4.60767">
        <ele>635.4</ele>
        <time>2025-09-20T09:06:22Z</time>
      </trkpt>
      <trkpt lat="46.21743" lon="4.60764">
        <ele>634.8</ele>
        <time>2025-09-20T09:06:23Z</time>
      </trkpt>
      <trkpt lat="46.21742" lon="4.60761">
        <ele>634.2</ele>
        <time>2025-09-20T09:06:24Z</time>
      </trkpt>
      <trkpt lat="46.2174" lon="4.60757">
        <ele>633.8</ele>
        <time>2025-09-20T09:06:25Z</time>
      </trkpt>
      <trkpt lat="46.21739" lon="4.60754">
        <ele>633.2</ele>
        <time>2025-09-20T09:06:26Z</time>
      </trkpt>
      <trkpt lat="46.21738" lon="4.6075">
        <ele>632.8</ele>
        <time>2025-09-20T09:06:27Z</time>
      </trkpt>
      <trkpt lat="46.21737" lon="4.60747">
        <ele>631.8</ele>
        <time>2025-09-20T09:06:28Z</time>
      </trkpt>
      <trkpt lat="46.21735" lon="4.60744">
        <ele>631.6</ele>
        <time>2025-09-20T09:06:29Z</time>
      </trkpt>
      <trkpt lat="46.21734" lon="4.60742">
        <ele>631.2</ele>
        <time>2025-09-20T09:06:30Z</time>
      </trkpt>
      <trkpt lat="46.21733" lon="4.60739">
        <ele>630.6</ele>
        <time>2025-09-20T09:06:31Z</time>
      </trkpt>
      <trkpt lat="46.21732" lon="4.60736">
        <ele>630</ele>
        <time>2025-09-20T09:06:32Z</time>
      </trkpt>
      <trkpt lat="46.2173" lon="4.60732">
        <ele>629.6</ele>
        <time>2025-09-20T09:06:33Z</time>
      </trkpt>
      <trkpt lat="46.21729" lon="4.60728">
        <ele>629.2</ele>
        <time>2025-09-20T09:06:34Z</time>
      </trkpt>
      <trkpt lat="46.21727" lon="4.60724">
        <ele>628.2</ele>
        <time>2025-09-20T09:06:35Z</time>
      </trkpt>
      <trkpt lat="46.21725" lon="4.6072">
        <ele>628</ele>
        <time>2025-09-20T09:06:36Z</time>
      </trkpt>
      <trkpt lat="46.21724" lon="4.60716">
        <ele>627.4</ele>
        <time>2025-09-20T09:06:37Z</time>
      </trkpt>
      <trkpt lat="46.21722" lon="4.60712">
        <ele>627.2</ele>
        <time>2025-09-20T09:06:38Z</time>
      </trkpt>
      <trkpt lat="46.2172" lon="4.60709">
        <ele>626.6</ele>
        <time>2025-09-20T09:06:39Z</time>
      </trkpt>
      <trkpt lat="46.21718" lon="4.60705">
        <ele>626.2</ele>
        <time>2025-09-20T09:06:40Z</time>
      </trkpt>
      <trkpt lat="46.21717" lon="4.60701">
        <ele>625.6</ele>
        <time>2025-09-20T09:06:41Z</time>
      </trkpt>
      <trkpt lat="46.21715" lon="4.60698">
        <ele>625.6</ele>
        <time>2025-09-20T09:06:42Z</time>
      </trkpt>
      <trkpt lat="46.21713" lon="4.60694">
        <ele>625.6</ele>
        <time>2025-09-20T09:06:43Z</time>
      </trkpt>
      <trkpt lat="46.21711" lon="4.60691">
        <ele>625</ele>
        <time>2025-09-20T09:06:44Z</time>
      </trkpt>
      <trkpt lat="46.21709" lon="4.60689">
        <ele>624.4</ele>
        <time>2025-09-20T09:06:45Z</time>
      </trkpt>
      <trkpt lat="46.21707" lon="4.60687">
        <ele>623.8</ele>
        <time>2025-09-20T09:06:46Z</time>
      </trkpt>
      <trkpt lat="46.21705" lon="4.60685">
        <ele>623.2</ele>
        <time>2025-09-20T09:06:47Z</time>
      </trkpt>
      <trkpt lat="46.21703" lon="4.60682">
        <ele>622.8</ele>
        <time>2025-09-20T09:06:48Z</time>
      </trkpt>
      <trkpt lat="46.21701" lon="4.6068">
        <ele>622</ele>
        <time>2025-09-20T09:06:49Z</time>
      </trkpt>
      <trkpt lat="46.217" lon="4.60678">
        <ele>621.2</ele>
        <time>2025-09-20T09:06:50Z</time>
      </trkpt>
      <trkpt lat="46.21699" lon="4.60675">
        <ele>620.6</ele>
        <time>2025-09-20T09:06:51Z</time>
      </trkpt>
      <trkpt lat="46.21697" lon="4.60673">
        <ele>620.2</ele>
        <time>2025-09-20T09:06:52Z</time>
      </trkpt>
      <trkpt lat="46.21696" lon="4.60671">
        <ele>619.8</ele>
        <time>2025-09-20T09:06:53Z</time>
      </trkpt>
      <trkpt lat="46.21696" lon="4.60669">
        <ele>619.6</ele>
        <time>2025-09-20T09:06:54Z</time>
      </trkpt>
      <trkpt lat="46.21696" lon="4.60669">
        <ele>619.6</ele>
        <time>2025-09-20T09:06:55Z</time>
      </trkpt>
      <trkpt lat="46.21696" lon="4.60668">
        <ele>619.2</ele>
        <time>2025-09-20T09:06:56Z</time>
      </trkpt>
      <trkpt lat="46.21697" lon="4.60668">
        <ele>618.2</ele>
        <time>2025-09-20T09:07:12Z</time>
      </trkpt>
      <trkpt lat="46.21696" lon="4.60666">
        <ele>618.2</ele>
        <time>2025-09-20T09:07:13Z</time>
      </trkpt>
      <trkpt lat="46.21693" lon="4.60663">
        <ele>617.8</ele>
        <time>2025-09-20T09:07:14Z</time>
      </trkpt>
      <trkpt lat="46.21691" lon="4.60661">
        <ele>617.2</ele>
        <time>2025-09-20T09:07:15Z</time>
      </trkpt>
      <trkpt lat="46.21689" lon="4.60658">
        <ele>617.2</ele>
        <time>2025-09-20T09:07:16Z</time>
      </trkpt>
      <trkpt lat="46.21686" lon="4.60656">
        <ele>616.4</ele>
        <time>2025-09-20T09:07:17Z</time>
      </trkpt>
      <trkpt lat="46.21683" lon="4.60653">
        <ele>616.2</ele>
        <time>2025-09-20T09:07:18Z</time>
      </trkpt>
      <trkpt lat="46.21681" lon="4.60651">
        <ele>616.2</ele>
        <time>2025-09-20T09:07:19Z</time>
      </trkpt>
      <trkpt lat="46.21678" lon="4.60648">
        <ele>615.4</ele>
        <time>2025-09-20T09:07:20Z</time>
      </trkpt>
      <trkpt lat="46.21676" lon="4.60646">
        <ele>614.8</ele>
        <time>2025-09-20T09:07:21Z</time>
      </trkpt>
      <trkpt lat="46.21674" lon="4.60644">
        <ele>614.2</ele>
        <time>2025-09-20T09:07:22Z</time>
      </trkpt>
      <trkpt lat="46.21672" lon="4.60641">
        <ele>613.6</ele>
        <time>2025-09-20T09:07:23Z</time>
      </trkpt>
      <trkpt lat="46.2167" lon="4.60638">
        <ele>612.2</ele>
        <time>2025-09-20T09:07:24Z</time>
      </trkpt>
      <trkpt lat="46.21668" lon="4.60635">
        <ele>611.6</ele>
        <time>2025-09-20T09:07:25Z</time>
      </trkpt>
      <trkpt lat="46.21665" lon="4.60634">
        <ele>610.6</ele>
        <time>2025-09-20T09:07:26Z</time>
      </trkpt>
      <trkpt lat="46.21663" lon="4.60631">
        <ele>610.4</ele>
        <time>2025-09-20T09:07:27Z</time>
      </trkpt>
      <trkpt lat="46.2166" lon="4.60629">
        <ele>609.6</ele>
        <time>2025-09-20T09:07:28Z</time>
      </trkpt>
      <trkpt lat="46.21657" lon="4.60628">
        <ele>609.6</ele>
        <time>2025-09-20T09:07:29Z</time>
      </trkpt>
      <trkpt lat="46.21655" lon="4.60626">
        <ele>609</ele>
        <time>2025-09-20T09:07:30Z</time>
      </trkpt>
      <trkpt lat="46.21652" lon="4.60624">
        <ele>608.6</ele>
        <time>2025-09-20T09:07:31Z</time>
      </trkpt>
      <trkpt lat="46.21649" lon="4.60622">
        <ele>608.4</ele>
        <time>2025-09-20T09:07:32Z</time>
      </trkpt>
      <trkpt lat="46.21647" lon="4.6062">
        <ele>607.8</ele>
        <time>2025-09-20T09:07:33Z</time>
      </trkpt>
      <trkpt lat="46.21644" lon="4.60618">
        <ele>607.4</ele>
        <time>2025-09-20T09:07:34Z</time>
      </trkpt>
      <trkpt lat="46.21641" lon="4.60616">
        <ele>606.8</ele>
        <time>2025-09-20T09:07:35Z</time>
      </trkpt>
      <trkpt lat="46.21639" lon="4.60614">
        <ele>606.4</ele>
        <time>2025-09-20T09:07:36Z</time>
      </trkpt>
      <trkpt lat="46.21636" lon="4.60613">
        <ele>606.2</ele>
        <time>2025-09-20T09:07:37Z</time>
      </trkpt>
      <trkpt lat="46.21633" lon="4.60612">
        <ele>605.6</ele>
        <time>2025-09-20T09:07:38Z</time>
      </trkpt>
      <trkpt lat="46.21633" lon="4.60612">
        <ele>605</ele>
        <time>2025-09-20T09:07:39Z</time>
      </trkpt>
      <trkpt lat="46.21627" lon="4.60611">
        <ele>604.4</ele>
        <time>2025-09-20T09:07:40Z</time>
      </trkpt>
      <trkpt lat="46.21625" lon="4.60612">
        <ele>604</ele>
        <time>2025-09-20T09:07:41Z</time>
      </trkpt>
      <trkpt lat="46.21623" lon="4.60612">
        <ele>604</ele>
        <time>2025-09-20T09:07:42Z</time>
      </trkpt>
      <trkpt lat="46.2162" lon="4.60613">
        <ele>603.6</ele>
        <time>2025-09-20T09:07:43Z</time>
      </trkpt>
      <trkpt lat="46.21617" lon="4.60614">
        <ele>603</ele>
        <time>2025-09-20T09:07:44Z</time>
      </trkpt>
      <trkpt lat="46.21614" lon="4.60615">
        <ele>602.2</ele>
        <time>2025-09-20T09:07:45Z</time>
      </trkpt>
      <trkpt lat="46.2161" lon="4.60617">
        <ele>601.8</ele>
        <time>2025-09-20T09:07:46Z</time>
      </trkpt>
      <trkpt lat="46.21607" lon="4.6062">
        <ele>601.8</ele>
        <time>2025-09-20T09:07:47Z</time>
      </trkpt>
      <trkpt lat="46.21603" lon="4.60624">
        <ele>601.4</ele>
        <time>2025-09-20T09:07:48Z</time>
      </trkpt>
      <trkpt lat="46.216" lon="4.6063">
        <ele>601.4</ele>
        <time>2025-09-20T09:07:49Z</time>
      </trkpt>
      <trkpt lat="46.21597" lon="4.60635">
        <ele>601.4</ele>
        <time>2025-09-20T09:07:50Z</time>
      </trkpt>
      <trkpt lat="46.21594" lon="4.60638">
        <ele>600.6</ele>
        <time>2025-09-20T09:07:51Z</time>
      </trkpt>
      <trkpt lat="46.21592" lon="4.60641">
        <ele>600</ele>
        <time>2025-09-20T09:07:52Z</time>
      </trkpt>
      <trkpt lat="46.2159" lon="4.60643">
        <ele>600</ele>
        <time>2025-09-20T09:07:53Z</time>
      </trkpt>
      <trkpt lat="46.21588" lon="4.60645">
        <ele>599.8</ele>
        <time>2025-09-20T09:07:54Z</time>
      </trkpt>
      <trkpt lat="46.21586" lon="4.60646">
        <ele>600.2</ele>
        <time>2025-09-20T09:07:55Z</time>
      </trkpt>
      <trkpt lat="46.21586" lon="4.60646">
        <ele>599.6</ele>
        <time>2025-09-20T09:07:56Z</time>
      </trkpt>
      <trkpt lat="46.21586" lon="4.60647">
        <ele>599.4</ele>
        <time>2025-09-20T09:07:57Z</time>
      </trkpt>
      <trkpt lat="46.21586" lon="4.60647">
        <ele>599.4</ele>
        <time>2025-09-20T09:07:58Z</time>
      </trkpt>
      <trkpt lat="46.21582" lon="4.60648">
        <ele>598.6</ele>
        <time>2025-09-20T09:08:06Z</time>
      </trkpt>
      <trkpt lat="46.2158" lon="4.60647">
        <ele>598.6</ele>
        <time>2025-09-20T09:08:07Z</time>
      </trkpt>
      <trkpt lat="46.21577" lon="4.60646">
        <ele>598.6</ele>
        <time>2025-09-20T09:08:08Z</time>
      </trkpt>
      <trkpt lat="46.21575" lon="4.60645">
        <ele>598.4</ele>
        <time>2025-09-20T09:08:09Z</time>
      </trkpt>
      <trkpt lat="46.21572" lon="4.60645">
        <ele>597.8</ele>
        <time>2025-09-20T09:08:10Z</time>
      </trkpt>
      <trkpt lat="46.21569" lon="4.60645">
        <ele>597.6</ele>
        <time>2025-09-20T09:08:11Z</time>
      </trkpt>
      <trkpt lat="46.21567" lon="4.60644">
        <ele>597.6</ele>
        <time>2025-09-20T09:08:12Z</time>
      </trkpt>
      <trkpt lat="46.21566" lon="4.60645">
        <ele>597.2</ele>
        <time>2025-09-20T09:08:13Z</time>
      </trkpt>
      <trkpt lat="46.21565" lon="4.60645">
        <ele>597.2</ele>
        <time>2025-09-20T09:08:14Z</time>
      </trkpt>
      <trkpt lat="46.21565" lon="4.60645">
        <ele>597.2</ele>
        <time>2025-09-20T09:08:15Z</time>
      </trkpt>
      <trkpt lat="46.21565" lon="4.60645">
        <ele>597.2</ele>
        <time>2025-09-20T09:08:16Z</time>
      </trkpt>
      <trkpt lat="46.2156" lon="4.60641">
        <ele>597.2</ele>
        <time>2025-09-20T09:08:52Z</time>
      </trkpt>
      <trkpt lat="46.21558" lon="4.6064">
        <ele>597</ele>
        <time>2025-09-20T09:08:53Z</time>
      </trkpt>
      <trkpt lat="46.21556" lon="4.60639">
        <ele>597</ele>
        <time>2025-09-20T09:08:54Z</time>
      </trkpt>
      <trkpt lat="46.21552" lon="4.60637">
        <ele>597</ele>
        <time>2025-09-20T09:08:55Z</time>
      </trkpt>
      <trkpt lat="46.21549" lon="4.60634">
        <ele>596</ele>
        <time>2025-09-20T09:08:56Z</time>
      </trkpt>
      <trkpt lat="46.21549" lon="4.60634">
        <ele>596</ele>
        <time>2025-09-20T09:08:57Z</time>
      </trkpt>
      <trkpt lat="46.21545" lon="4.60631">
        <ele>595.4</ele>
        <time>2025-09-20T09:08:58Z</time>
      </trkpt>
      <trkpt lat="46.21542" lon="4.60628">
        <ele>594.8</ele>
        <time>2025-09-20T09:08:59Z</time>
      </trkpt>
      <trkpt lat="46.21538" lon="4.60625">
        <ele>593.8</ele>
        <time>2025-09-20T09:09:00Z</time>
      </trkpt>
      <trkpt lat="46.21533" lon="4.60621">
        <ele>593.2</ele>
        <time>2025-09-20T09:09:01Z</time>
      </trkpt>
      <trkpt lat="46.21528" lon="4.60618">
        <ele>592.8</ele>
        <time>2025-09-20T09:09:02Z</time>
      </trkpt>
      <trkpt lat="46.21524" lon="4.60615">
        <ele>592.6</ele>
        <time>2025-09-20T09:09:03Z</time>
      </trkpt>
      <trkpt lat="46.21519" lon="4.60612">
        <ele>592.4</ele>
        <time>2025-09-20T09:09:04Z</time>
      </trkpt>
      <trkpt lat="46.21514" lon="4.60608">
        <ele>591.6</ele>
        <time>2025-09-20T09:09:05Z</time>
      </trkpt>
      <trkpt lat="46.21509" lon="4.60605">
        <ele>590.6</ele>
        <time>2025-09-20T09:09:06Z</time>
      </trkpt>
      <trkpt lat="46.21505" lon="4.606">
        <ele>589.8</ele>
        <time>2025-09-20T09:09:07Z</time>
      </trkpt>
      <trkpt lat="46.215" lon="4.60597">
        <ele>588.6</ele>
        <time>2025-09-20T09:09:08Z</time>
      </trkpt>
      <trkpt lat="46.21496" lon="4.60593">
        <ele>587.8</ele>
        <time>2025-09-20T09:09:09Z</time>
      </trkpt>
      <trkpt lat="46.21491" lon="4.6059">
        <ele>587.4</ele>
        <time>2025-09-20T09:09:10Z</time>
      </trkpt>
      <trkpt lat="46.21488" lon="4.60587">
        <ele>586.6</ele>
        <time>2025-09-20T09:09:11Z</time>
      </trkpt>
      <trkpt lat="46.21485" lon="4.60585">
        <ele>586</ele>
        <time>2025-09-20T09:09:12Z</time>
      </trkpt>
      <trkpt lat="46.21482" lon="4.60583">
        <ele>585.2</ele>
        <time>2025-09-20T09:09:13Z</time>
      </trkpt>
      <trkpt lat="46.21479" lon="4.6058">
        <ele>584</ele>
        <time>2025-09-20T09:09:14Z</time>
      </trkpt>
      <trkpt lat="46.21475" lon="4.60577">
        <ele>583.8</ele>
        <time>2025-09-20T09:09:15Z</time>
      </trkpt>
      <trkpt lat="46.21472" lon="4.60574">
        <ele>583.2</ele>
        <time>2025-09-20T09:09:16Z</time>
      </trkpt>
      <trkpt lat="46.21469" lon="4.60571">
        <ele>582.6</ele>
        <time>2025-09-20T09:09:17Z</time>
      </trkpt>
      <trkpt lat="46.21466" lon="4.60569">
        <ele>582.6</ele>
        <time>2025-09-20T09:09:18Z</time>
      </trkpt>
      <trkpt lat="46.21463" lon="4.60565">
        <ele>582.2</ele>
        <time>2025-09-20T09:09:19Z</time>
      </trkpt>
      <trkpt lat="46.2146" lon="4.60562">
        <ele>580.8</ele>
        <time>2025-09-20T09:09:20Z</time>
      </trkpt>
      <trkpt lat="46.21457" lon="4.60557">
        <ele>579.8</ele>
        <time>2025-09-20T09:09:21Z</time>
      </trkpt>
      <trkpt lat="46.21454" lon="4.60553">
        <ele>578.8</ele>
        <time>2025-09-20T09:09:22Z</time>
      </trkpt>
      <trkpt lat="46.21452" lon="4.60548">
        <ele>578</ele>
        <time>2025-09-20T09:09:23Z</time>
      </trkpt>
      <trkpt lat="46.21451" lon="4.60545">
        <ele>578</ele>
        <time>2025-09-20T09:09:24Z</time>
      </trkpt>
      <trkpt lat="46.21451" lon="4.6054">
        <ele>576.8</ele>
        <time>2025-09-20T09:09:25Z</time>
      </trkpt>
      <trkpt lat="46.2145" lon="4.60536">
        <ele>576</ele>
        <time>2025-09-20T09:09:26Z</time>
      </trkpt>
      <trkpt lat="46.21451" lon="4.6053">
        <ele>575.4</ele>
        <time>2025-09-20T09:09:27Z</time>
      </trkpt>
      <trkpt lat="46.21452" lon="4.60524">
        <ele>574.4</ele>
        <time>2025-09-20T09:09:28Z</time>
      </trkpt>
      <trkpt lat="46.21451" lon="4.60518">
        <ele>573.4</ele>
        <time>2025-09-20T09:09:29Z</time>
      </trkpt>
      <trkpt lat="46.21451" lon="4.60513">
        <ele>572.8</ele>
        <time>2025-09-20T09:09:30Z</time>
      </trkpt>
      <trkpt lat="46.21449" lon="4.60511">
        <ele>572.4</ele>
        <time>2025-09-20T09:09:31Z</time>
      </trkpt>
      <trkpt lat="46.21448" lon="4.60508">
        <ele>571.4</ele>
        <time>2025-09-20T09:09:32Z</time>
      </trkpt>
      <trkpt lat="46.21446" lon="4.60506">
        <ele>571</ele>
        <time>2025-09-20T09:09:33Z</time>
      </trkpt>
      <trkpt lat="46.21445" lon="4.60504">
        <ele>570.8</ele>
        <time>2025-09-20T09:09:34Z</time>
      </trkpt>
      <trkpt lat="46.21445" lon="4.60502">
        <ele>570.4</ele>
        <time>2025-09-20T09:09:35Z</time>
      </trkpt>
      <trkpt lat="46.21443" lon="4.605">
        <ele>570</ele>
        <time>2025-09-20T09:09:36Z</time>
      </trkpt>
      <trkpt lat="46.21441" lon="4.60499">
        <ele>569.8</ele>
        <time>2025-09-20T09:09:37Z</time>
      </trkpt>
      <trkpt lat="46.21437" lon="4.60498">
        <ele>569.4</ele>
        <time>2025-09-20T09:09:38Z</time>
      </trkpt>
      <trkpt lat="46.21432" lon="4.60496">
        <ele>569.4</ele>
        <time>2025-09-20T09:09:39Z</time>
      </trkpt>
      <trkpt lat="46.21428" lon="4.60494">
        <ele>568.8</ele>
        <time>2025-09-20T09:09:40Z</time>
      </trkpt>
      <trkpt lat="46.21423" lon="4.6049">
        <ele>568.4</ele>
        <time>2025-09-20T09:09:41Z</time>
      </trkpt>
      <trkpt lat="46.21419" lon="4.60486">
        <ele>568</ele>
        <time>2025-09-20T09:09:42Z</time>
      </trkpt>
      <trkpt lat="46.21414" lon="4.60482">
        <ele>567.8</ele>
        <time>2025-09-20T09:09:43Z</time>
      </trkpt>
      <trkpt lat="46.21408" lon="4.60479">
        <ele>567.4</ele>
        <time>2025-09-20T09:09:44Z</time>
      </trkpt>
      <trkpt lat="46.21403" lon="4.60474">
        <ele>567</ele>
        <time>2025-09-20T09:09:45Z</time>
      </trkpt>
      <trkpt lat="46.21396" lon="4.6047">
        <ele>566.6</ele>
        <time>2025-09-20T09:09:46Z</time>
      </trkpt>
      <trkpt lat="46.2139" lon="4.60466">
        <ele>566.2</ele>
        <time>2025-09-20T09:09:47Z</time>
      </trkpt>
      <trkpt lat="46.21384" lon="4.60462">
        <ele>565.8</ele>
        <time>2025-09-20T09:09:48Z</time>
      </trkpt>
      <trkpt lat="46.21378" lon="4.60457">
        <ele>565</ele>
        <time>2025-09-20T09:09:49Z</time>
      </trkpt>
      <trkpt lat="46.21371" lon="4.60452">
        <ele>564.6</ele>
        <time>2025-09-20T09:09:50Z</time>
      </trkpt>
      <trkpt lat="46.21365" lon="4.60447">
        <ele>564</ele>
        <time>2025-09-20T09:09:51Z</time>
      </trkpt>
      <trkpt lat="46.21359" lon="4.60442">
        <ele>563.2</ele>
        <time>2025-09-20T09:09:52Z</time>
      </trkpt>
      <trkpt lat="46.21352" lon="4.60438">
        <ele>562.6</ele>
        <time>2025-09-20T09:09:53Z</time>
      </trkpt>
      <trkpt lat="46.21345" lon="4.60433">
        <ele>561.8</ele>
        <time>2025-09-20T09:09:54Z</time>
      </trkpt>
      <trkpt lat="46.21338" lon="4.60428">
        <ele>561.4</ele>
        <time>2025-09-20T09:09:55Z</time>
      </trkpt>
      <trkpt lat="46.21333" lon="4.60425">
        <ele>559.8</ele>
        <time>2025-09-20T09:09:56Z</time>
      </trkpt>
      <trkpt lat="46.21327" lon="4.60423">
        <ele>559.8</ele>
        <time>2025-09-20T09:09:57Z</time>
      </trkpt>
      <trkpt lat="46.21323" lon="4.60421">
        <ele>559.8</ele>
        <time>2025-09-20T09:09:58Z</time>
      </trkpt>
      <trkpt lat="46.21319" lon="4.60419">
        <ele>559.2</ele>
        <time>2025-09-20T09:09:59Z</time>
      </trkpt>
      <trkpt lat="46.21314" lon="4.60416">
        <ele>559.2</ele>
        <time>2025-09-20T09:10:00Z</time>
      </trkpt>
      <trkpt lat="46.21309" lon="4.60413">
        <ele>558.6</ele>
        <time>2025-09-20T09:10:01Z</time>
      </trkpt>
      <trkpt lat="46.21303" lon="4.60412">
        <ele>558.2</ele>
        <time>2025-09-20T09:10:02Z</time>
      </trkpt>
      <trkpt lat="46.21297" lon="4.6041">
        <ele>557.6</ele>
        <time>2025-09-20T09:10:03Z</time>
      </trkpt>
      <trkpt lat="46.21291" lon="4.60407">
        <ele>557.4</ele>
        <time>2025-09-20T09:10:04Z</time>
      </trkpt>
      <trkpt lat="46.21285" lon="4.60404">
        <ele>557</ele>
        <time>2025-09-20T09:10:05Z</time>
      </trkpt>
      <trkpt lat="46.21278" lon="4.604">
        <ele>556.8</ele>
        <time>2025-09-20T09:10:06Z</time>
      </trkpt>
      <trkpt lat="46.21272" lon="4.60395">
        <ele>556.2</ele>
        <time>2025-09-20T09:10:07Z</time>
      </trkpt>
      <trkpt lat="46.21265" lon="4.60389">
        <ele>555.8</ele>
        <time>2025-09-20T09:10:08Z</time>
      </trkpt>
      <trkpt lat="46.21259" lon="4.60384">
        <ele>555</ele>
        <time>2025-09-20T09:10:09Z</time>
      </trkpt>
      <trkpt lat="46.21252" lon="4.60379">
        <ele>555</ele>
        <time>2025-09-20T09:10:10Z</time>
      </trkpt>
      <trkpt lat="46.21246" lon="4.60375">
        <ele>554.2</ele>
        <time>2025-09-20T09:10:11Z</time>
      </trkpt>
      <trkpt lat="46.21239" lon="4.60372">
        <ele>553.6</ele>
        <time>2025-09-20T09:10:12Z</time>
      </trkpt>
      <trkpt lat="46.21232" lon="4.60372">
        <ele>553.4</ele>
        <time>2025-09-20T09:10:13Z</time>
      </trkpt>
      <trkpt lat="46.21225" lon="4.60372">
        <ele>553</ele>
        <time>2025-09-20T09:10:14Z</time>
      </trkpt>
      <trkpt lat="46.21218" lon="4.60376">
        <ele>552.4</ele>
        <time>2025-09-20T09:10:15Z</time>
      </trkpt>
      <trkpt lat="46.21211" lon="4.6038">
        <ele>552.2</ele>
        <time>2025-09-20T09:10:16Z</time>
      </trkpt>
      <trkpt lat="46.21205" lon="4.60385">
        <ele>551.6</ele>
        <time>2025-09-20T09:10:17Z</time>
      </trkpt>
      <trkpt lat="46.21199" lon="4.60391">
        <ele>551.2</ele>
        <time>2025-09-20T09:10:18Z</time>
      </trkpt>
      <trkpt lat="46.21193" lon="4.60398">
        <ele>550.6</ele>
        <time>2025-09-20T09:10:19Z</time>
      </trkpt>
      <trkpt lat="46.21187" lon="4.60404">
        <ele>550</ele>
        <time>2025-09-20T09:10:20Z</time>
      </trkpt>
      <trkpt lat="46.21182" lon="4.60411">
        <ele>549.6</ele>
        <time>2025-09-20T09:10:21Z</time>
      </trkpt>
      <trkpt lat="46.21176" lon="4.60419">
        <ele>549.2</ele>
        <time>2025-09-20T09:10:22Z</time>
      </trkpt>
      <trkpt lat="46.21172" lon="4.60427">
        <ele>548.8</ele>
        <time>2025-09-20T09:10:23Z</time>
      </trkpt>
      <trkpt lat="46.21169" lon="4.60436">
        <ele>548.4</ele>
        <time>2025-09-20T09:10:24Z</time>
      </trkpt>
      <trkpt lat="46.21166" lon="4.60443">
        <ele>548.2</ele>
        <time>2025-09-20T09:10:25Z</time>
      </trkpt>
      <trkpt lat="46.21164" lon="4.6045">
        <ele>548.2</ele>
        <time>2025-09-20T09:10:26Z</time>
      </trkpt>
      <trkpt lat="46.21161" lon="4.60455">
        <ele>548.2</ele>
        <time>2025-09-20T09:10:27Z</time>
      </trkpt>
      <trkpt lat="46.21157" lon="4.60457">
        <ele>547.8</ele>
        <time>2025-09-20T09:10:28Z</time>
      </trkpt>
      <trkpt lat="46.21153" lon="4.60456">
        <ele>547.8</ele>
        <time>2025-09-20T09:10:29Z</time>
      </trkpt>
      <trkpt lat="46.21151" lon="4.60451">
        <ele>547.6</ele>
        <time>2025-09-20T09:10:30Z</time>
      </trkpt>
      <trkpt lat="46.2115" lon="4.60447">
        <ele>547.6</ele>
        <time>2025-09-20T09:10:31Z</time>
      </trkpt>
      <trkpt lat="46.21151" lon="4.60443">
        <ele>547.4</ele>
        <time>2025-09-20T09:10:32Z</time>
      </trkpt>
      <trkpt lat="46.21152" lon="4.60441">
        <ele>547.4</ele>
        <time>2025-09-20T09:10:33Z</time>
      </trkpt>
      <trkpt lat="46.21153" lon="4.60439">
        <ele>547</ele>
        <time>2025-09-20T09:10:34Z</time>
      </trkpt>
      <trkpt lat="46.21154" lon="4.60436">
        <ele>547</ele>
        <time>2025-09-20T09:10:35Z</time>
      </trkpt>
      <trkpt lat="46.21154" lon="4.60434">
        <ele>546.8</ele>
        <time>2025-09-20T09:10:36Z</time>
      </trkpt>
      <trkpt lat="46.21153" lon="4.60434">
        <ele>546.6</ele>
        <time>2025-09-20T09:10:37Z</time>
      </trkpt>
      <trkpt lat="46.21153" lon="4.60434">
        <ele>546.6</ele>
        <time>2025-09-20T09:10:38Z</time>
      </trkpt>
      <trkpt lat="46.21152" lon="4.60436">
        <ele>546.6</ele>
        <time>2025-09-20T09:10:39Z</time>
      </trkpt>
      <trkpt lat="46.21152" lon="4.60438">
        <ele>546.6</ele>
        <time>2025-09-20T09:10:40Z</time>
      </trkpt>
      <trkpt lat="46.21152" lon="4.6044">
        <ele>546.6</ele>
        <time>2025-09-20T09:10:41Z</time>
      </trkpt>
      <trkpt lat="46.21151" lon="4.60442">
        <ele>546.8</ele>
        <time>2025-09-20T09:10:42Z</time>
      </trkpt>
      <trkpt lat="46.21151" lon="4.60444">
        <ele>546.8</ele>
        <time>2025-09-20T09:10:43Z</time>
      </trkpt>
      <trkpt lat="46.2115" lon="4.60446">
        <ele>547.2</ele>
        <time>2025-09-20T09:10:44Z</time>
      </trkpt>
      <trkpt lat="46.21149" lon="4.60448">
        <ele>547.2</ele>
        <time>2025-09-20T09:10:45Z</time>
      </trkpt>
      <trkpt lat="46.21148" lon="4.6045">
        <ele>547.2</ele>
        <time>2025-09-20T09:10:46Z</time>
      </trkpt>
      <trkpt lat="46.21148" lon="4.60452">
        <ele>547.2</ele>
        <time>2025-09-20T09:10:47Z</time>
      </trkpt>
      <trkpt lat="46.21148" lon="4.60455">
        <ele>547.2</ele>
        <time>2025-09-20T09:10:48Z</time>
      </trkpt>
      <trkpt lat="46.21148" lon="4.60457">
        <ele>547.4</ele>
        <time>2025-09-20T09:10:49Z</time>
      </trkpt>
      <trkpt lat="46.21149" lon="4.60459">
        <ele>547.4</ele>
        <time>2025-09-20T09:10:50Z</time>
      </trkpt>
      <trkpt lat="46.2115" lon="4.6046">
        <ele>547.4</ele>
        <time>2025-09-20T09:10:51Z</time>
      </trkpt>
      <trkpt lat="46.2115" lon="4.6046">
        <ele>547.4</ele>
        <time>2025-09-20T09:10:52Z</time>
      </trkpt>
      <trkpt lat="46.21151" lon="4.6046">
        <ele>547.6</ele>
        <time>2025-09-20T09:10:53Z</time>
      </trkpt>
      <trkpt lat="46.21151" lon="4.60457">
        <ele>547.2</ele>
        <time>2025-09-20T09:11:05Z</time>
      </trkpt>
      <trkpt lat="46.2115" lon="4.60457">
        <ele>547.2</ele>
        <time>2025-09-20T09:11:06Z</time>
      </trkpt>
      <trkpt lat="46.2115" lon="4.60457">
        <ele>547.2</ele>
        <time>2025-09-20T09:11:07Z</time>
      </trkpt>
      <trkpt lat="46.2115" lon="4.60457">
        <ele>547.2</ele>
        <time>2025-09-20T09:11:08Z</time>
      </trkpt>
      <trkpt lat="46.21149" lon="4.60459">
        <ele>547.6</ele>
        <time>2025-09-20T09:12:23Z</time>
      </trkpt>
      <trkpt lat="46.21149" lon="4.6046">
        <ele>547.6</ele>
        <time>2025-09-20T09:12:24Z</time>
      </trkpt>
      <trkpt lat="46.21149" lon="4.6046">
        <ele>547.4</ele>
        <time>2025-09-20T09:12:25Z</time>
      </trkpt>
      <trkpt lat="46.21151" lon="4.60459">
        <ele>547.2</ele>
        <time>2025-09-20T09:12:32Z</time>
      </trkpt>
      <trkpt lat="46.21151" lon="4.60459">
        <ele>547.4</ele>
        <time>2025-09-20T09:12:33Z</time>
      </trkpt>
      <trkpt lat="46.21151" lon="4.60459">
        <ele>547.4</ele>
        <time>2025-09-20T09:12:34Z</time>
      </trkpt>
      <trkpt lat="46.21152" lon="4.6046">
        <ele>548</ele>
        <time>2025-09-20T09:13:01Z</time>
      </trkpt>
      <trkpt lat="46.21152" lon="4.6046">
        <ele>548</ele>
        <time>2025-09-20T09:13:02Z</time>
      </trkpt>
      <trkpt lat="46.2115" lon="4.60454">
        <ele>548.2</ele>
        <time>2025-09-20T09:13:14Z</time>
      </trkpt>
      <trkpt lat="46.21151" lon="4.6045">
        <ele>548.2</ele>
        <time>2025-09-20T09:13:15Z</time>
      </trkpt>
      <trkpt lat="46.21152" lon="4.60446">
        <ele>548</ele>
        <time>2025-09-20T09:13:16Z</time>
      </trkpt>
      <trkpt lat="46.21155" lon="4.60439">
        <ele>547.8</ele>
        <time>2025-09-20T09:13:17Z</time>
      </trkpt>
      <trkpt lat="46.21156" lon="4.60434">
        <ele>547.6</ele>
        <time>2025-09-20T09:13:18Z</time>
      </trkpt>
      <trkpt lat="46.2116" lon="4.60427">
        <ele>547.2</ele>
        <time>2025-09-20T09:13:19Z</time>
      </trkpt>
      <trkpt lat="46.21162" lon="4.6042">
        <ele>547</ele>
        <time>2025-09-20T09:13:20Z</time>
      </trkpt>
      <trkpt lat="46.21166" lon="4.60412">
        <ele>546.6</ele>
        <time>2025-09-20T09:13:21Z</time>
      </trkpt>
      <trkpt lat="46.21169" lon="4.60404">
        <ele>546.2</ele>
        <time>2025-09-20T09:13:22Z</time>
      </trkpt>
      <trkpt lat="46.21172" lon="4.60395">
        <ele>545.6</ele>
        <time>2025-09-20T09:13:23Z</time>
      </trkpt>
      <trkpt lat="46.21175" lon="4.60385">
        <ele>544.8</ele>
        <time>2025-09-20T09:13:24Z</time>
      </trkpt>
      <trkpt lat="46.21179" lon="4.60375">
        <ele>544.8</ele>
        <time>2025-09-20T09:13:25Z</time>
      </trkpt>
      <trkpt lat="46.21183" lon="4.60365">
        <ele>544</ele>
        <time>2025-09-20T09:13:26Z</time>
      </trkpt>
      <trkpt lat="46.21187" lon="4.60354">
        <ele>543.4</ele>
        <time>2025-09-20T09:13:27Z</time>
      </trkpt>
      <trkpt lat="46.21191" lon="4.60344">
        <ele>542.8</ele>
        <time>2025-09-20T09:13:28Z</time>
      </trkpt>
      <trkpt lat="46.21195" lon="4.60332">
        <ele>542.6</ele>
        <time>2025-09-20T09:13:29Z</time>
      </trkpt>
      <trkpt lat="46.21199" lon="4.60321">
        <ele>541.8</ele>
        <time>2025-09-20T09:13:30Z</time>
      </trkpt>
      <trkpt lat="46.21203" lon="4.6031">
        <ele>541.2</ele>
        <time>2025-09-20T09:13:31Z</time>
      </trkpt>
      <trkpt lat="46.21208" lon="4.60299">
        <ele>540.6</ele>
        <time>2025-09-20T09:13:32Z</time>
      </trkpt>
      <trkpt lat="46.21212" lon="4.60289">
        <ele>540.2</ele>
        <time>2025-09-20T09:13:33Z</time>
      </trkpt>
      <trkpt lat="46.21216" lon="4.60279">
        <ele>539.8</ele>
        <time>2025-09-20T09:13:34Z</time>
      </trkpt>
      <trkpt lat="46.21221" lon="4.60269">
        <ele>539.4</ele>
        <time>2025-09-20T09:13:35Z</time>
      </trkpt>
      <trkpt lat="46.21226" lon="4.6026">
        <ele>538.8</ele>
        <time>2025-09-20T09:13:36Z</time>
      </trkpt>
      <trkpt lat="46.21233" lon="4.60254">
        <ele>537.8</ele>
        <time>2025-09-20T09:13:37Z</time>
      </trkpt>
      <trkpt lat="46.21238" lon="4.60251">
        <ele>537.4</ele>
        <time>2025-09-20T09:13:38Z</time>
      </trkpt>
      <trkpt lat="46.21241" lon="4.60249">
        <ele>537.2</ele>
        <time>2025-09-20T09:13:39Z</time>
      </trkpt>
      <trkpt lat="46.21245" lon="4.60246">
        <ele>537</ele>
        <time>2025-09-20T09:13:40Z</time>
      </trkpt>
      <trkpt lat="46.21245" lon="4.60246">
        <ele>537</ele>
        <time>2025-09-20T09:13:41Z</time>
      </trkpt>
      <trkpt lat="46.2125" lon="4.60244">
        <ele>536.4</ele>
        <time>2025-09-20T09:13:42Z</time>
      </trkpt>
      <trkpt lat="46.21255" lon="4.60243">
        <ele>536</ele>
        <time>2025-09-20T09:13:43Z</time>
      </trkpt>
      <trkpt lat="46.2126" lon="4.60244">
        <ele>535.8</ele>
        <time>2025-09-20T09:13:44Z</time>
      </trkpt>
      <trkpt lat="46.21265" lon="4.60245">
        <ele>535.4</ele>
        <time>2025-09-20T09:13:45Z</time>
      </trkpt>
      <trkpt lat="46.21269" lon="4.60245">
        <ele>535.4</ele>
        <time>2025-09-20T09:13:46Z</time>
      </trkpt>
      <trkpt lat="46.21273" lon="4.60243">
        <ele>534.6</ele>
        <time>2025-09-20T09:13:47Z</time>
      </trkpt>
      <trkpt lat="46.21274" lon="4.60238">
        <ele>534.6</ele>
        <time>2025-09-20T09:13:48Z</time>
      </trkpt>
      <trkpt lat="46.21273" lon="4.60235">
        <ele>534.4</ele>
        <time>2025-09-20T09:13:49Z</time>
      </trkpt>
      <trkpt lat="46.2127" lon="4.60231">
        <ele>533.8</ele>
        <time>2025-09-20T09:13:50Z</time>
      </trkpt>
      <trkpt lat="46.21267" lon="4.60229">
        <ele>533.4</ele>
        <time>2025-09-20T09:13:51Z</time>
      </trkpt>
      <trkpt lat="46.21263" lon="4.60228">
        <ele>532.8</ele>
        <time>2025-09-20T09:13:52Z</time>
      </trkpt>
      <trkpt lat="46.2126" lon="4.60226">
        <ele>532.4</ele>
        <time>2025-09-20T09:13:53Z</time>
      </trkpt>
      <trkpt lat="46.21252" lon="4.60226">
        <ele>531.8</ele>
        <time>2025-09-20T09:13:54Z</time>
      </trkpt>
      <trkpt lat="46.21247" lon="4.60223">
        <ele>531.4</ele>
        <time>2025-09-20T09:13:55Z</time>
      </trkpt>
      <trkpt lat="46.21241" lon="4.60222">
        <ele>531</ele>
        <time>2025-09-20T09:13:56Z</time>
      </trkpt>
      <trkpt lat="46.21236" lon="4.60217">
        <ele>530.6</ele>
        <time>2025-09-20T09:13:57Z</time>
      </trkpt>
      <trkpt lat="46.21229" lon="4.60215">
        <ele>530.4</ele>
        <time>2025-09-20T09:13:58Z</time>
      </trkpt>
      <trkpt lat="46.21222" lon="4.60211">
        <ele>530.4</ele>
        <time>2025-09-20T09:13:59Z</time>
      </trkpt>
      <trkpt lat="46.21216" lon="4.60209">
        <ele>529.8</ele>
        <time>2025-09-20T09:14:00Z</time>
      </trkpt>
      <trkpt lat="46.21211" lon="4.60206">
        <ele>529.8</ele>
        <time>2025-09-20T09:14:01Z</time>
      </trkpt>
      <trkpt lat="46.21206" lon="4.60198">
        <ele>529.8</ele>
        <time>2025-09-20T09:14:02Z</time>
      </trkpt>
      <trkpt lat="46.21201" lon="4.60192">
        <ele>529.4</ele>
        <time>2025-09-20T09:14:03Z</time>
      </trkpt>
      <trkpt lat="46.21196" lon="4.60186">
        <ele>529</ele>
        <time>2025-09-20T09:14:04Z</time>
      </trkpt>
      <trkpt lat="46.21198" lon="4.60177">
        <ele>529</ele>
        <time>2025-09-20T09:14:05Z</time>
      </trkpt>
      <trkpt lat="46.21197" lon="4.60169">
        <ele>529</ele>
        <time>2025-09-20T09:14:06Z</time>
      </trkpt>
      <trkpt lat="46.21197" lon="4.60162">
        <ele>529</ele>
        <time>2025-09-20T09:14:07Z</time>
      </trkpt>
      <trkpt lat="46.21198" lon="4.60154">
        <ele>529.2</ele>
        <time>2025-09-20T09:14:08Z</time>
      </trkpt>
      <trkpt lat="46.21198" lon="4.60146">
        <ele>529.2</ele>
        <time>2025-09-20T09:14:09Z</time>
      </trkpt>
      <trkpt lat="46.21199" lon="4.60139">
        <ele>529.2</ele>
        <time>2025-09-20T09:14:10Z</time>
      </trkpt>
      <trkpt lat="46.212" lon="4.60131">
        <ele>529.2</ele>
        <time>2025-09-20T09:14:11Z</time>
      </trkpt>
      <trkpt lat="46.21201" lon="4.60123">
        <ele>529.2</ele>
        <time>2025-09-20T09:14:12Z</time>
      </trkpt>
      <trkpt lat="46.21203" lon="4.60115">
        <ele>528.8</ele>
        <time>2025-09-20T09:14:13Z</time>
      </trkpt>
      <trkpt lat="46.21204" lon="4.60106">
        <ele>528.8</ele>
        <time>2025-09-20T09:14:14Z</time>
      </trkpt>
      <trkpt lat="46.21204" lon="4.60097">
        <ele>528.8</ele>
        <time>2025-09-20T09:14:15Z</time>
      </trkpt>
      <trkpt lat="46.21202" lon="4.60089">
        <ele>528.8</ele>
        <time>2025-09-20T09:14:16Z</time>
      </trkpt>
      <trkpt lat="46.212" lon="4.60082">
        <ele>528.4</ele>
        <time>2025-09-20T09:14:17Z</time>
      </trkpt>
      <trkpt lat="46.212" lon="4.60077">
        <ele>528.2</ele>
        <time>2025-09-20T09:14:18Z</time>
      </trkpt>
      <trkpt lat="46.21199" lon="4.60072">
        <ele>527.8</ele>
        <time>2025-09-20T09:14:19Z</time>
      </trkpt>
      <trkpt lat="46.21197" lon="4.60067">
        <ele>527.2</ele>
        <time>2025-09-20T09:14:20Z</time>
      </trkpt>
      <trkpt lat="46.21196" lon="4.60062">
        <ele>527</ele>
        <time>2025-09-20T09:14:21Z</time>
      </trkpt>
      <trkpt lat="46.21195" lon="4.60061">
        <ele>527</ele>
        <time>2025-09-20T09:14:22Z</time>
      </trkpt>
      <trkpt lat="46.21195" lon="4.60057">
        <ele>526.6</ele>
        <time>2025-09-20T09:14:23Z</time>
      </trkpt>
      <trkpt lat="46.2119" lon="4.60056">
        <ele>526.2</ele>
        <time>2025-09-20T09:14:24Z</time>
      </trkpt>
      <trkpt lat="46.21188" lon="4.60054">
        <ele>526.2</ele>
        <time>2025-09-20T09:14:25Z</time>
      </trkpt>
      <trkpt lat="46.21186" lon="4.6005">
        <ele>526.2</ele>
        <time>2025-09-20T09:14:26Z</time>
      </trkpt>
      <trkpt lat="46.21182" lon="4.60052">
        <ele>526</ele>
        <time>2025-09-20T09:14:27Z</time>
      </trkpt>
      <trkpt lat="46.21178" lon="4.60052">
        <ele>526</ele>
        <time>2025-09-20T09:14:28Z</time>
      </trkpt>
      <trkpt lat="46.21175" lon="4.60052">
        <ele>526.4</ele>
        <time>2025-09-20T09:14:29Z</time>
      </trkpt>
      <trkpt lat="46.21172" lon="4.60052">
        <ele>526.4</ele>
        <time>2025-09-20T09:14:30Z</time>
      </trkpt>
      <trkpt lat="46.21169" lon="4.60051">
        <ele>526.6</ele>
        <time>2025-09-20T09:14:31Z</time>
      </trkpt>
      <trkpt lat="46.21166" lon="4.6005">
        <ele>526.6</ele>
        <time>2025-09-20T09:14:32Z</time>
      </trkpt>
      <trkpt lat="46.21163" lon="4.60048">
        <ele>526.6</ele>
        <time>2025-09-20T09:14:33Z</time>
      </trkpt>
      <trkpt lat="46.21161" lon="4.60045">
        <ele>526.8</ele>
        <time>2025-09-20T09:14:34Z</time>
      </trkpt>
      <trkpt lat="46.21158" lon="4.60043">
        <ele>526.8</ele>
        <time>2025-09-20T09:14:35Z</time>
      </trkpt>
      <trkpt lat="46.21156" lon="4.6004">
        <ele>527.2</ele>
        <time>2025-09-20T09:14:36Z</time>
      </trkpt>
      <trkpt lat="46.21153" lon="4.60037">
        <ele>527.6</ele>
        <time>2025-09-20T09:14:37Z</time>
      </trkpt>
      <trkpt lat="46.2115" lon="4.60034">
        <ele>527.6</ele>
        <time>2025-09-20T09:14:38Z</time>
      </trkpt>
      <trkpt lat="46.21148" lon="4.60032">
        <ele>527.8</ele>
        <time>2025-09-20T09:14:39Z</time>
      </trkpt>
      <trkpt lat="46.21145" lon="4.6003">
        <ele>527.8</ele>
        <time>2025-09-20T09:14:40Z</time>
      </trkpt>
      <trkpt lat="46.21143" lon="4.60028">
        <ele>528</ele>
        <time>2025-09-20T09:14:41Z</time>
      </trkpt>
      <trkpt lat="46.2114" lon="4.60026">
        <ele>528</ele>
        <time>2025-09-20T09:14:42Z</time>
      </trkpt>
      <trkpt lat="46.21138" lon="4.60023">
        <ele>528.4</ele>
        <time>2025-09-20T09:14:43Z</time>
      </trkpt>
      <trkpt lat="46.21136" lon="4.60021">
        <ele>528.6</ele>
        <time>2025-09-20T09:14:44Z</time>
      </trkpt>
      <trkpt lat="46.21134" lon="4.60019">
        <ele>528.8</ele>
        <time>2025-09-20T09:14:45Z</time>
      </trkpt>
      <trkpt lat="46.21132" lon="4.60017">
        <ele>528.8</ele>
        <time>2025-09-20T09:14:46Z</time>
      </trkpt>
      <trkpt lat="46.21129" lon="4.60015">
        <ele>529</ele>
        <time>2025-09-20T09:14:47Z</time>
      </trkpt>
      <trkpt lat="46.21127" lon="4.60013">
        <ele>529.4</ele>
        <time>2025-09-20T09:14:48Z</time>
      </trkpt>
      <trkpt lat="46.21125" lon="4.60011">
        <ele>529.4</ele>
        <time>2025-09-20T09:14:49Z</time>
      </trkpt>
      <trkpt lat="46.21123" lon="4.60009">
        <ele>529.8</ele>
        <time>2025-09-20T09:14:50Z</time>
      </trkpt>
      <trkpt lat="46.2112" lon="4.60007">
        <ele>530</ele>
        <time>2025-09-20T09:14:51Z</time>
      </trkpt>
      <trkpt lat="46.21118" lon="4.60005">
        <ele>530</ele>
        <time>2025-09-20T09:14:52Z</time>
      </trkpt>
      <trkpt lat="46.21116" lon="4.60004">
        <ele>530</ele>
        <time>2025-09-20T09:14:53Z</time>
      </trkpt>
      <trkpt lat="46.21113" lon="4.60002">
        <ele>530.4</ele>
        <time>2025-09-20T09:14:54Z</time>
      </trkpt>
      <trkpt lat="46.21111" lon="4.6">
        <ele>530.6</ele>
        <time>2025-09-20T09:14:55Z</time>
      </trkpt>
      <trkpt lat="46.21108" lon="4.59999">
        <ele>530.6</ele>
        <time>2025-09-20T09:14:56Z</time>
      </trkpt>
      <trkpt lat="46.21106" lon="4.59998">
        <ele>530.6</ele>
        <time>2025-09-20T09:14:57Z</time>
      </trkpt>
      <trkpt lat="46.21104" lon="4.59997">
        <ele>530.6</ele>
        <time>2025-09-20T09:14:58Z</time>
      </trkpt>
      <trkpt lat="46.21101" lon="4.59995">
        <ele>531</ele>
        <time>2025-09-20T09:14:59Z</time>
      </trkpt>
      <trkpt lat="46.21099" lon="4.59994">
        <ele>531</ele>
        <time>2025-09-20T09:15:00Z</time>
      </trkpt>
      <trkpt lat="46.21097" lon="4.59992">
        <ele>531</ele>
        <time>2025-09-20T09:15:01Z</time>
      </trkpt>
      <trkpt lat="46.21094" lon="4.59991">
        <ele>531.4</ele>
        <time>2025-09-20T09:15:02Z</time>
      </trkpt>
      <trkpt lat="46.21092" lon="4.5999">
        <ele>531.4</ele>
        <time>2025-09-20T09:15:03Z</time>
      </trkpt>
      <trkpt lat="46.2109" lon="4.59989">
        <ele>531.6</ele>
        <time>2025-09-20T09:15:04Z</time>
      </trkpt>
      <trkpt lat="46.21087" lon="4.59988">
        <ele>531.6</ele>
        <time>2025-09-20T09:15:05Z</time>
      </trkpt>
      <trkpt lat="46.21086" lon="4.59986">
        <ele>531.6</ele>
        <time>2025-09-20T09:15:06Z</time>
      </trkpt>
      <trkpt lat="46.21084" lon="4.59985">
        <ele>532.2</ele>
        <time>2025-09-20T09:15:07Z</time>
      </trkpt>
      <trkpt lat="46.21082" lon="4.59984">
        <ele>532.4</ele>
        <time>2025-09-20T09:15:08Z</time>
      </trkpt>
      <trkpt lat="46.2108" lon="4.59983">
        <ele>532.8</ele>
        <time>2025-09-20T09:15:09Z</time>
      </trkpt>
      <trkpt lat="46.21078" lon="4.59982">
        <ele>533</ele>
        <time>2025-09-20T09:15:10Z</time>
      </trkpt>
      <trkpt lat="46.21076" lon="4.59981">
        <ele>533.2</ele>
        <time>2025-09-20T09:15:11Z</time>
      </trkpt>
      <trkpt lat="46.21075" lon="4.5998">
        <ele>533.4</ele>
        <time>2025-09-20T09:15:12Z</time>
      </trkpt>
      <trkpt lat="46.21073" lon="4.59978">
        <ele>533.4</ele>
        <time>2025-09-20T09:15:13Z</time>
      </trkpt>
      <trkpt lat="46.21071" lon="4.59976">
        <ele>533.8</ele>
        <time>2025-09-20T09:15:14Z</time>
      </trkpt>
      <trkpt lat="46.21068" lon="4.59975">
        <ele>533.8</ele>
        <time>2025-09-20T09:15:15Z</time>
      </trkpt>
      <trkpt lat="46.21066" lon="4.59973">
        <ele>534</ele>
        <time>2025-09-20T09:15:16Z</time>
      </trkpt>
      <trkpt lat="46.21064" lon="4.59972">
        <ele>534</ele>
        <time>2025-09-20T09:15:17Z</time>
      </trkpt>
      <trkpt lat="46.21062" lon="4.59971">
        <ele>534</ele>
        <time>2025-09-20T09:15:18Z</time>
      </trkpt>
      <trkpt lat="46.2106" lon="4.5997">
        <ele>534.2</ele>
        <time>2025-09-20T09:15:19Z</time>
      </trkpt>
      <trkpt lat="46.21058" lon="4.59969">
        <ele>534.2</ele>
        <time>2025-09-20T09:15:20Z</time>
      </trkpt>
      <trkpt lat="46.21056" lon="4.59968">
        <ele>534.6</ele>
        <time>2025-09-20T09:15:21Z</time>
      </trkpt>
      <trkpt lat="46.21053" lon="4.59967">
        <ele>534.6</ele>
        <time>2025-09-20T09:15:22Z</time>
      </trkpt>
      <trkpt lat="46.21051" lon="4.59966">
        <ele>534.6</ele>
        <time>2025-09-20T09:15:23Z</time>
      </trkpt>
      <trkpt lat="46.21049" lon="4.59965">
        <ele>535</ele>
        <time>2025-09-20T09:15:24Z</time>
      </trkpt>
      <trkpt lat="46.21046" lon="4.59964">
        <ele>535</ele>
        <time>2025-09-20T09:15:25Z</time>
      </trkpt>
      <trkpt lat="46.21045" lon="4.59963">
        <ele>535.2</ele>
        <time>2025-09-20T09:15:26Z</time>
      </trkpt>
      <trkpt lat="46.21043" lon="4.59962">
        <ele>535.2</ele>
        <time>2025-09-20T09:15:27Z</time>
      </trkpt>
      <trkpt lat="46.2104" lon="4.59961">
        <ele>535.2</ele>
        <time>2025-09-20T09:15:28Z</time>
      </trkpt>
      <trkpt lat="46.21038" lon="4.5996">
        <ele>535.4</ele>
        <time>2025-09-20T09:15:29Z</time>
      </trkpt>
      <trkpt lat="46.21036" lon="4.59959">
        <ele>535.4</ele>
        <time>2025-09-20T09:15:30Z</time>
      </trkpt>
      <trkpt lat="46.21034" lon="4.59958">
        <ele>535.8</ele>
        <time>2025-09-20T09:15:31Z</time>
      </trkpt>
      <trkpt lat="46.21032" lon="4.59957">
        <ele>536.2</ele>
        <time>2025-09-20T09:15:32Z</time>
      </trkpt>
      <trkpt lat="46.21029" lon="4.59956">
        <ele>536.2</ele>
        <time>2025-09-20T09:15:33Z</time>
      </trkpt>
      <trkpt lat="46.21027" lon="4.59956">
        <ele>536.2</ele>
        <time>2025-09-20T09:15:34Z</time>
      </trkpt>
      <trkpt lat="46.21024" lon="4.59956">
        <ele>536.4</ele>
        <time>2025-09-20T09:15:35Z</time>
      </trkpt>
      <trkpt lat="46.21022" lon="4.59956">
        <ele>536.4</ele>
        <time>2025-09-20T09:15:36Z</time>
      </trkpt>
      <trkpt lat="46.21019" lon="4.59957">
        <ele>536.6</ele>
        <time>2025-09-20T09:15:37Z</time>
      </trkpt>
      <trkpt lat="46.21018" lon="4.59957">
        <ele>536.6</ele>
        <time>2025-09-20T09:15:38Z</time>
      </trkpt>
      <trkpt lat="46.21016" lon="4.59957">
        <ele>536.8</ele>
        <time>2025-09-20T09:15:39Z</time>
      </trkpt>
      <trkpt lat="46.21013" lon="4.59958">
        <ele>536.8</ele>
        <time>2025-09-20T09:15:40Z</time>
      </trkpt>
      <trkpt lat="46.21011" lon="4.59958">
        <ele>537.2</ele>
        <time>2025-09-20T09:15:41Z</time>
      </trkpt>
      <trkpt lat="46.21008" lon="4.59959">
        <ele>537.2</ele>
        <time>2025-09-20T09:15:42Z</time>
      </trkpt>
      <trkpt lat="46.21006" lon="4.59959">
        <ele>537.2</ele>
        <time>2025-09-20T09:15:43Z</time>
      </trkpt>
      <trkpt lat="46.21004" lon="4.5996">
        <ele>537.4</ele>
        <time>2025-09-20T09:15:44Z</time>
      </trkpt>
      <trkpt lat="46.21002" lon="4.5996">
        <ele>537.4</ele>
        <time>2025-09-20T09:15:45Z</time>
      </trkpt>
      <trkpt lat="46.21" lon="4.59961">
        <ele>537.8</ele>
        <time>2025-09-20T09:15:46Z</time>
      </trkpt>
      <trkpt lat="46.20998" lon="4.59961">
        <ele>538</ele>
        <time>2025-09-20T09:15:47Z</time>
      </trkpt>
      <trkpt lat="46.20996" lon="4.59962">
        <ele>538.4</ele>
        <time>2025-09-20T09:15:48Z</time>
      </trkpt>
      <trkpt lat="46.20994" lon="4.59963">
        <ele>538.6</ele>
        <time>2025-09-20T09:15:49Z</time>
      </trkpt>
      <trkpt lat="46.20992" lon="4.59964">
        <ele>538.6</ele>
        <time>2025-09-20T09:15:50Z</time>
      </trkpt>
      <trkpt lat="46.20991" lon="4.59964">
        <ele>538.6</ele>
        <time>2025-09-20T09:15:51Z</time>
      </trkpt>
      <trkpt lat="46.20991" lon="4.59965">
        <ele>538.8</ele>
        <time>2025-09-20T09:15:52Z</time>
      </trkpt>
      <trkpt lat="46.20991" lon="4.59965">
        <ele>538.8</ele>
        <time>2025-09-20T09:15:53Z</time>
      </trkpt>
      <trkpt lat="46.20991" lon="4.59964">
        <ele>538.8</ele>
        <time>2025-09-20T09:16:01Z</time>
      </trkpt>
      <trkpt lat="46.2099" lon="4.59965">
        <ele>538.8</ele>
        <time>2025-09-20T09:16:02Z</time>
      </trkpt>
      <trkpt lat="46.20989" lon="4.59965">
        <ele>538.8</ele>
        <time>2025-09-20T09:16:03Z</time>
      </trkpt>
      <trkpt lat="46.20988" lon="4.59966">
        <ele>538.6</ele>
        <time>2025-09-20T09:16:04Z</time>
      </trkpt>
      <trkpt lat="46.20986" lon="4.59968">
        <ele>538.6</ele>
        <time>2025-09-20T09:16:05Z</time>
      </trkpt>
      <trkpt lat="46.20983" lon="4.5997">
        <ele>538.6</ele>
        <time>2025-09-20T09:16:06Z</time>
      </trkpt>
      <trkpt lat="46.20981" lon="4.59971">
        <ele>538.6</ele>
        <time>2025-09-20T09:16:07Z</time>
      </trkpt>
      <trkpt lat="46.20979" lon="4.59972">
        <ele>538.6</ele>
        <time>2025-09-20T09:16:08Z</time>
      </trkpt>
      <trkpt lat="46.20976" lon="4.59975">
        <ele>538.6</ele>
        <time>2025-09-20T09:16:09Z</time>
      </trkpt>
      <trkpt lat="46.20973" lon="4.59977">
        <ele>538.4</ele>
        <time>2025-09-20T09:16:10Z</time>
      </trkpt>
      <trkpt lat="46.2097" lon="4.59979">
        <ele>538.4</ele>
        <time>2025-09-20T09:16:11Z</time>
      </trkpt>
      <trkpt lat="46.20966" lon="4.59982">
        <ele>538.4</ele>
        <time>2025-09-20T09:16:12Z</time>
      </trkpt>
      <trkpt lat="46.20963" lon="4.59985">
        <ele>538</ele>
        <time>2025-09-20T09:16:13Z</time>
      </trkpt>
      <trkpt lat="46.2096" lon="4.59987">
        <ele>538</ele>
        <time>2025-09-20T09:16:14Z</time>
      </trkpt>
      <trkpt lat="46.20957" lon="4.5999">
        <ele>538</ele>
        <time>2025-09-20T09:16:15Z</time>
      </trkpt>
      <trkpt lat="46.20954" lon="4.59993">
        <ele>537.6</ele>
        <time>2025-09-20T09:16:16Z</time>
      </trkpt>
      <trkpt lat="46.20951" lon="4.59997">
        <ele>537.4</ele>
        <time>2025-09-20T09:16:17Z</time>
      </trkpt>
      <trkpt lat="46.20948" lon="4.6">
        <ele>537.4</ele>
        <time>2025-09-20T09:16:18Z</time>
      </trkpt>
      <trkpt lat="46.20945" lon="4.60002">
        <ele>537</ele>
        <time>2025-09-20T09:16:19Z</time>
      </trkpt>
      <trkpt lat="46.20942" lon="4.60004">
        <ele>537</ele>
        <time>2025-09-20T09:16:20Z</time>
      </trkpt>
      <trkpt lat="46.2094" lon="4.60006">
        <ele>537</ele>
        <time>2025-09-20T09:16:21Z</time>
      </trkpt>
      <trkpt lat="46.20938" lon="4.60007">
        <ele>536.8</ele>
        <time>2025-09-20T09:16:22Z</time>
      </trkpt>
      <trkpt lat="46.20936" lon="4.60007">
        <ele>536.8</ele>
        <time>2025-09-20T09:16:23Z</time>
      </trkpt>
      <trkpt lat="46.20935" lon="4.60008">
        <ele>536.8</ele>
        <time>2025-09-20T09:16:24Z</time>
      </trkpt>
      <trkpt lat="46.20935" lon="4.60008">
        <ele>537</ele>
        <time>2025-09-20T09:16:25Z</time>
      </trkpt>
      <trkpt lat="46.20935" lon="4.60008">
        <ele>537</ele>
        <time>2025-09-20T09:16:26Z</time>
      </trkpt>
      <trkpt lat="46.20935" lon="4.60007">
        <ele>537.4</ele>
        <time>2025-09-20T09:16:33Z</time>
      </trkpt>
      <trkpt lat="46.20933" lon="4.60007">
        <ele>537.4</ele>
        <time>2025-09-20T09:16:34Z</time>
      </trkpt>
      <trkpt lat="46.20931" lon="4.60007">
        <ele>537.2</ele>
        <time>2025-09-20T09:16:35Z</time>
      </trkpt>
      <trkpt lat="46.20928" lon="4.60007">
        <ele>537.2</ele>
        <time>2025-09-20T09:16:36Z</time>
      </trkpt>
      <trkpt lat="46.20926" lon="4.60007">
        <ele>537.2</ele>
        <time>2025-09-20T09:16:37Z</time>
      </trkpt>
      <trkpt lat="46.20922" lon="4.60007">
        <ele>537.2</ele>
        <time>2025-09-20T09:16:38Z</time>
      </trkpt>
      <trkpt lat="46.20919" lon="4.60008">
        <ele>537.2</ele>
        <time>2025-09-20T09:16:39Z</time>
      </trkpt>
      <trkpt lat="46.20913" lon="4.60009">
        <ele>537.2</ele>
        <time>2025-09-20T09:16:40Z</time>
      </trkpt>
      <trkpt lat="46.2091" lon="4.60009">
        <ele>537</ele>
        <time>2025-09-20T09:16:41Z</time>
      </trkpt>
      <trkpt lat="46.20907" lon="4.60009">
        <ele>537</ele>
        <time>2025-09-20T09:16:42Z</time>
      </trkpt>
      <trkpt lat="46.20904" lon="4.60009">
        <ele>537</ele>
        <time>2025-09-20T09:16:43Z</time>
      </trkpt>
      <trkpt lat="46.20902" lon="4.60008">
        <ele>537</ele>
        <time>2025-09-20T09:16:44Z</time>
      </trkpt>
      <trkpt lat="46.209" lon="4.60008">
        <ele>537</ele>
        <time>2025-09-20T09:16:45Z</time>
      </trkpt>
      <trkpt lat="46.20899" lon="4.60009">
        <ele>537</ele>
        <time>2025-09-20T09:16:46Z</time>
      </trkpt>
      <trkpt lat="46.20898" lon="4.60011">
        <ele>537</ele>
        <time>2025-09-20T09:16:47Z</time>
      </trkpt>
      <trkpt lat="46.20896" lon="4.60012">
        <ele>537.2</ele>
        <time>2025-09-20T09:16:48Z</time>
      </trkpt>
      <trkpt lat="46.20894" lon="4.60013">
        <ele>537.2</ele>
        <time>2025-09-20T09:16:49Z</time>
      </trkpt>
      <trkpt lat="46.20891" lon="4.60014">
        <ele>537.2</ele>
        <time>2025-09-20T09:16:50Z</time>
      </trkpt>
      <trkpt lat="46.20888" lon="4.60014">
        <ele>537.2</ele>
        <time>2025-09-20T09:16:51Z</time>
      </trkpt>
      <trkpt lat="46.20885" lon="4.60014">
        <ele>537.2</ele>
        <time>2025-09-20T09:16:52Z</time>
      </trkpt>
      <trkpt lat="46.20883" lon="4.60015">
        <ele>537.8</ele>
        <time>2025-09-20T09:16:53Z</time>
      </trkpt>
      <trkpt lat="46.2088" lon="4.60016">
        <ele>538</ele>
        <time>2025-09-20T09:16:54Z</time>
      </trkpt>
      <trkpt lat="46.20878" lon="4.60018">
        <ele>538</ele>
        <time>2025-09-20T09:16:55Z</time>
      </trkpt>
      <trkpt lat="46.20875" lon="4.60021">
        <ele>538</ele>
        <time>2025-09-20T09:16:56Z</time>
      </trkpt>
      <trkpt lat="46.20874" lon="4.60023">
        <ele>538</ele>
        <time>2025-09-20T09:16:57Z</time>
      </trkpt>
      <trkpt lat="46.20872" lon="4.60025">
        <ele>537.8</ele>
        <time>2025-09-20T09:16:58Z</time>
      </trkpt>
      <trkpt lat="46.2087" lon="4.60027">
        <ele>538</ele>
        <time>2025-09-20T09:16:59Z</time>
      </trkpt>
      <trkpt lat="46.20868" lon="4.60029">
        <ele>538.2</ele>
        <time>2025-09-20T09:17:00Z</time>
      </trkpt>
      <trkpt lat="46.20867" lon="4.60031">
        <ele>538.4</ele>
        <time>2025-09-20T09:17:01Z</time>
      </trkpt>
      <trkpt lat="46.20865" lon="4.60032">
        <ele>538.4</ele>
        <time>2025-09-20T09:17:02Z</time>
      </trkpt>
      <trkpt lat="46.20864" lon="4.60032">
        <ele>538.8</ele>
        <time>2025-09-20T09:17:03Z</time>
      </trkpt>
      <trkpt lat="46.20862" lon="4.60033">
        <ele>538.8</ele>
        <time>2025-09-20T09:17:04Z</time>
      </trkpt>
      <trkpt lat="46.20861" lon="4.60033">
        <ele>539.2</ele>
        <time>2025-09-20T09:17:05Z</time>
      </trkpt>
      <trkpt lat="46.20859" lon="4.60034">
        <ele>539.2</ele>
        <time>2025-09-20T09:17:06Z</time>
      </trkpt>
      <trkpt lat="46.20856" lon="4.60035">
        <ele>539.2</ele>
        <time>2025-09-20T09:17:07Z</time>
      </trkpt>
      <trkpt lat="46.20854" lon="4.60035">
        <ele>539.2</ele>
        <time>2025-09-20T09:17:08Z</time>
      </trkpt>
      <trkpt lat="46.20854" lon="4.60035">
        <ele>539.6</ele>
        <time>2025-09-20T09:17:09Z</time>
      </trkpt>
      <trkpt lat="46.20854" lon="4.60035">
        <ele>539.8</ele>
        <time>2025-09-20T09:17:10Z</time>
      </trkpt>
      <trkpt lat="46.20854" lon="4.60035">
        <ele>540.2</ele>
        <time>2025-09-20T09:17:11Z</time>
      </trkpt>
      <trkpt lat="46.20844" lon="4.60035">
        <ele>540.6</ele>
        <time>2025-09-20T09:17:13Z</time>
      </trkpt>
      <trkpt lat="46.20843" lon="4.60034">
        <ele>541</ele>
        <time>2025-09-20T09:17:14Z</time>
      </trkpt>
      <trkpt lat="46.20841" lon="4.60034">
        <ele>541.2</ele>
        <time>2025-09-20T09:17:15Z</time>
      </trkpt>
      <trkpt lat="46.20838" lon="4.60034">
        <ele>541.2</ele>
        <time>2025-09-20T09:17:16Z</time>
      </trkpt>
      <trkpt lat="46.20837" lon="4.60033">
        <ele>541.6</ele>
        <time>2025-09-20T09:17:17Z</time>
      </trkpt>
      <trkpt lat="46.20835" lon="4.60032">
        <ele>541.6</ele>
        <time>2025-09-20T09:17:18Z</time>
      </trkpt>
      <trkpt lat="46.20833" lon="4.60032">
        <ele>541.6</ele>
        <time>2025-09-20T09:17:19Z</time>
      </trkpt>
      <trkpt lat="46.20831" lon="4.60032">
        <ele>542</ele>
        <time>2025-09-20T09:17:20Z</time>
      </trkpt>
      <trkpt lat="46.20829" lon="4.60032">
        <ele>542.2</ele>
        <time>2025-09-20T09:17:21Z</time>
      </trkpt>
      <trkpt lat="46.20827" lon="4.60032">
        <ele>542.2</ele>
        <time>2025-09-20T09:17:22Z</time>
      </trkpt>
      <trkpt lat="46.20825" lon="4.60032">
        <ele>542.8</ele>
        <time>2025-09-20T09:17:23Z</time>
      </trkpt>
      <trkpt lat="46.20824" lon="4.60032">
        <ele>543.4</ele>
        <time>2025-09-20T09:17:24Z</time>
      </trkpt>
      <trkpt lat="46.20822" lon="4.60033">
        <ele>543.4</ele>
        <time>2025-09-20T09:17:25Z</time>
      </trkpt>
      <trkpt lat="46.2082" lon="4.60033">
        <ele>543.4</ele>
        <time>2025-09-20T09:17:26Z</time>
      </trkpt>
      <trkpt lat="46.20819" lon="4.60034">
        <ele>544</ele>
        <time>2025-09-20T09:17:27Z</time>
      </trkpt>
      <trkpt lat="46.20817" lon="4.60035">
        <ele>544</ele>
        <time>2025-09-20T09:17:28Z</time>
      </trkpt>
      <trkpt lat="46.20816" lon="4.60035">
        <ele>544.4</ele>
        <time>2025-09-20T09:17:29Z</time>
      </trkpt>
      <trkpt lat="46.20814" lon="4.60035">
        <ele>544.4</ele>
        <time>2025-09-20T09:17:30Z</time>
      </trkpt>
      <trkpt lat="46.20813" lon="4.60035">
        <ele>544.8</ele>
        <time>2025-09-20T09:17:31Z</time>
      </trkpt>
      <trkpt lat="46.20812" lon="4.60035">
        <ele>544.8</ele>
        <time>2025-09-20T09:17:32Z</time>
      </trkpt>
      <trkpt lat="46.20811" lon="4.60035">
        <ele>545.2</ele>
        <time>2025-09-20T09:17:33Z</time>
      </trkpt>
      <trkpt lat="46.20809" lon="4.60036">
        <ele>545.4</ele>
        <time>2025-09-20T09:17:34Z</time>
      </trkpt>
      <trkpt lat="46.20808" lon="4.60036">
        <ele>545.4</ele>
        <time>2025-09-20T09:17:35Z</time>
      </trkpt>
      <trkpt lat="46.20806" lon="4.60037">
        <ele>545.4</ele>
        <time>2025-09-20T09:17:36Z</time>
      </trkpt>
      <trkpt lat="46.20804" lon="4.60038">
        <ele>545.8</ele>
        <time>2025-09-20T09:17:37Z</time>
      </trkpt>
      <trkpt lat="46.20803" lon="4.60038">
        <ele>546.2</ele>
        <time>2025-09-20T09:17:38Z</time>
      </trkpt>
      <trkpt lat="46.20801" lon="4.60038">
        <ele>546.2</ele>
        <time>2025-09-20T09:17:39Z</time>
      </trkpt>
      <trkpt lat="46.20799" lon="4.60039">
        <ele>546.6</ele>
        <time>2025-09-20T09:17:40Z</time>
      </trkpt>
      <trkpt lat="46.20797" lon="4.60039">
        <ele>546.8</ele>
        <time>2025-09-20T09:17:41Z</time>
      </trkpt>
      <trkpt lat="46.20796" lon="4.60039">
        <ele>547</ele>
        <time>2025-09-20T09:17:42Z</time>
      </trkpt>
      <trkpt lat="46.20795" lon="4.60039">
        <ele>547</ele>
        <time>2025-09-20T09:17:43Z</time>
      </trkpt>
      <trkpt lat="46.20794" lon="4.60038">
        <ele>547.4</ele>
        <time>2025-09-20T09:17:44Z</time>
      </trkpt>
      <trkpt lat="46.20793" lon="4.60038">
        <ele>547.6</ele>
        <time>2025-09-20T09:17:45Z</time>
      </trkpt>
      <trkpt lat="46.20793" lon="4.60038">
        <ele>547.6</ele>
        <time>2025-09-20T09:17:46Z</time>
      </trkpt>
      <trkpt lat="46.20792" lon="4.60037">
        <ele>547.8</ele>
        <time>2025-09-20T09:18:05Z</time>
      </trkpt>
      <trkpt lat="46.2079" lon="4.60037">
        <ele>547.8</ele>
        <time>2025-09-20T09:18:06Z</time>
      </trkpt>
      <trkpt lat="46.20789" lon="4.60037">
        <ele>547.8</ele>
        <time>2025-09-20T09:18:07Z</time>
      </trkpt>
      <trkpt lat="46.20787" lon="4.60037">
        <ele>547.8</ele>
        <time>2025-09-20T09:18:08Z</time>
      </trkpt>
      <trkpt lat="46.20785" lon="4.60037">
        <ele>548.2</ele>
        <time>2025-09-20T09:18:09Z</time>
      </trkpt>
      <trkpt lat="46.20783" lon="4.60036">
        <ele>548.2</ele>
        <time>2025-09-20T09:18:10Z</time>
      </trkpt>
      <trkpt lat="46.20781" lon="4.60036">
        <ele>548.2</ele>
        <time>2025-09-20T09:18:11Z</time>
      </trkpt>
      <trkpt lat="46.20779" lon="4.60035">
        <ele>548.2</ele>
        <time>2025-09-20T09:18:12Z</time>
      </trkpt>
      <trkpt lat="46.20777" lon="4.60035">
        <ele>548.2</ele>
        <time>2025-09-20T09:18:13Z</time>
      </trkpt>
      <trkpt lat="46.20776" lon="4.60034">
        <ele>548.4</ele>
        <time>2025-09-20T09:18:14Z</time>
      </trkpt>
      <trkpt lat="46.20774" lon="4.60034">
        <ele>548.4</ele>
        <time>2025-09-20T09:18:15Z</time>
      </trkpt>
      <trkpt lat="46.20772" lon="4.60034">
        <ele>548.8</ele>
        <time>2025-09-20T09:18:16Z</time>
      </trkpt>
      <trkpt lat="46.20771" lon="4.60033">
        <ele>548.8</ele>
        <time>2025-09-20T09:18:17Z</time>
      </trkpt>
      <trkpt lat="46.20769" lon="4.60032">
        <ele>548.8</ele>
        <time>2025-09-20T09:18:18Z</time>
      </trkpt>
      <trkpt lat="46.20767" lon="4.60032">
        <ele>549</ele>
        <time>2025-09-20T09:18:19Z</time>
      </trkpt>
      <trkpt lat="46.20765" lon="4.60031">
        <ele>549.4</ele>
        <time>2025-09-20T09:18:20Z</time>
      </trkpt>
      <trkpt lat="46.20763" lon="4.60032">
        <ele>550.2</ele>
        <time>2025-09-20T09:18:21Z</time>
      </trkpt>
      <trkpt lat="46.20762" lon="4.60032">
        <ele>550.2</ele>
        <time>2025-09-20T09:18:22Z</time>
      </trkpt>
      <trkpt lat="46.2076" lon="4.60032">
        <ele>550.6</ele>
        <time>2025-09-20T09:18:23Z</time>
      </trkpt>
      <trkpt lat="46.20758" lon="4.60031">
        <ele>551</ele>
        <time>2025-09-20T09:18:24Z</time>
      </trkpt>
      <trkpt lat="46.20756" lon="4.60031">
        <ele>551.4</ele>
        <time>2025-09-20T09:18:25Z</time>
      </trkpt>
      <trkpt lat="46.20754" lon="4.60031">
        <ele>551.4</ele>
        <time>2025-09-20T09:18:26Z</time>
      </trkpt>
      <trkpt lat="46.20752" lon="4.6003">
        <ele>552</ele>
        <time>2025-09-20T09:18:27Z</time>
      </trkpt>
      <trkpt lat="46.2075" lon="4.6003">
        <ele>552.2</ele>
        <time>2025-09-20T09:18:28Z</time>
      </trkpt>
      <trkpt lat="46.20748" lon="4.6003">
        <ele>552.6</ele>
        <time>2025-09-20T09:18:29Z</time>
      </trkpt>
      <trkpt lat="46.20748" lon="4.6003">
        <ele>552.8</ele>
        <time>2025-09-20T09:18:30Z</time>
      </trkpt>
      <trkpt lat="46.20747" lon="4.6003">
        <ele>553</ele>
        <time>2025-09-20T09:18:31Z</time>
      </trkpt>
      <trkpt lat="46.20745" lon="4.6003">
        <ele>553</ele>
        <time>2025-09-20T09:18:32Z</time>
      </trkpt>
      <trkpt lat="46.20743" lon="4.6003">
        <ele>553.4</ele>
        <time>2025-09-20T09:18:33Z</time>
      </trkpt>
      <trkpt lat="46.20742" lon="4.60029">
        <ele>553.8</ele>
        <time>2025-09-20T09:18:34Z</time>
      </trkpt>
      <trkpt lat="46.2074" lon="4.60029">
        <ele>554</ele>
        <time>2025-09-20T09:18:35Z</time>
      </trkpt>
      <trkpt lat="46.20738" lon="4.60028">
        <ele>554</ele>
        <time>2025-09-20T09:18:36Z</time>
      </trkpt>
      <trkpt lat="46.20736" lon="4.60028">
        <ele>554.4</ele>
        <time>2025-09-20T09:18:37Z</time>
      </trkpt>
      <trkpt lat="46.20734" lon="4.60027">
        <ele>554.4</ele>
        <time>2025-09-20T09:18:38Z</time>
      </trkpt>
      <trkpt lat="46.20732" lon="4.60026">
        <ele>554.6</ele>
        <time>2025-09-20T09:18:39Z</time>
      </trkpt>
      <trkpt lat="46.2073" lon="4.60025">
        <ele>554.6</ele>
        <time>2025-09-20T09:18:40Z</time>
      </trkpt>
      <trkpt lat="46.20727" lon="4.60024">
        <ele>554.6</ele>
        <time>2025-09-20T09:18:41Z</time>
      </trkpt>
      <trkpt lat="46.20725" lon="4.60023">
        <ele>554.6</ele>
        <time>2025-09-20T09:18:42Z</time>
      </trkpt>
      <trkpt lat="46.20723" lon="4.60022">
        <ele>555</ele>
        <time>2025-09-20T09:18:43Z</time>
      </trkpt>
      <trkpt lat="46.2072" lon="4.6002">
        <ele>555</ele>
        <time>2025-09-20T09:18:44Z</time>
      </trkpt>
      <trkpt lat="46.20718" lon="4.6002">
        <ele>555.6</ele>
        <time>2025-09-20T09:18:45Z</time>
      </trkpt>
      <trkpt lat="46.20715" lon="4.60019">
        <ele>555.6</ele>
        <time>2025-09-20T09:18:46Z</time>
      </trkpt>
      <trkpt lat="46.20713" lon="4.60018">
        <ele>555.6</ele>
        <time>2025-09-20T09:18:47Z</time>
      </trkpt>
      <trkpt lat="46.20711" lon="4.60017">
        <ele>556</ele>
        <time>2025-09-20T09:18:48Z</time>
      </trkpt>
      <trkpt lat="46.20708" lon="4.60017">
        <ele>556</ele>
        <time>2025-09-20T09:18:49Z</time>
      </trkpt>
      <trkpt lat="46.20706" lon="4.60016">
        <ele>556</ele>
        <time>2025-09-20T09:18:50Z</time>
      </trkpt>
      <trkpt lat="46.20704" lon="4.60015">
        <ele>556.2</ele>
        <time>2025-09-20T09:18:51Z</time>
      </trkpt>
      <trkpt lat="46.20701" lon="4.60015">
        <ele>556.6</ele>
        <time>2025-09-20T09:18:52Z</time>
      </trkpt>
      <trkpt lat="46.20699" lon="4.60014">
        <ele>556.8</ele>
        <time>2025-09-20T09:18:53Z</time>
      </trkpt>
      <trkpt lat="46.20697" lon="4.60013">
        <ele>557</ele>
        <time>2025-09-20T09:18:54Z</time>
      </trkpt>
      <trkpt lat="46.20695" lon="4.60012">
        <ele>557</ele>
        <time>2025-09-20T09:18:55Z</time>
      </trkpt>
      <trkpt lat="46.20693" lon="4.60011">
        <ele>557</ele>
        <time>2025-09-20T09:18:56Z</time>
      </trkpt>
      <trkpt lat="46.20691" lon="4.60011">
        <ele>557</ele>
        <time>2025-09-20T09:18:57Z</time>
      </trkpt>
      <trkpt lat="46.20689" lon="4.60011">
        <ele>557</ele>
        <time>2025-09-20T09:18:58Z</time>
      </trkpt>
      <trkpt lat="46.20687" lon="4.60011">
        <ele>557.6</ele>
        <time>2025-09-20T09:18:59Z</time>
      </trkpt>
      <trkpt lat="46.20685" lon="4.60009">
        <ele>557.6</ele>
        <time>2025-09-20T09:19:00Z</time>
      </trkpt>
      <trkpt lat="46.20683" lon="4.60008">
        <ele>557.8</ele>
        <time>2025-09-20T09:19:01Z</time>
      </trkpt>
      <trkpt lat="46.20682" lon="4.60007">
        <ele>558.2</ele>
        <time>2025-09-20T09:19:02Z</time>
      </trkpt>
      <trkpt lat="46.2068" lon="4.60006">
        <ele>558.2</ele>
        <time>2025-09-20T09:19:03Z</time>
      </trkpt>
      <trkpt lat="46.20678" lon="4.60006">
        <ele>558.2</ele>
        <time>2025-09-20T09:19:04Z</time>
      </trkpt>
      <trkpt lat="46.20676" lon="4.60006">
        <ele>558.6</ele>
        <time>2025-09-20T09:19:05Z</time>
      </trkpt>
      <trkpt lat="46.20675" lon="4.60005">
        <ele>559</ele>
        <time>2025-09-20T09:19:06Z</time>
      </trkpt>
      <trkpt lat="46.20674" lon="4.60005">
        <ele>559</ele>
        <time>2025-09-20T09:19:07Z</time>
      </trkpt>
      <trkpt lat="46.20673" lon="4.60004">
        <ele>559.6</ele>
        <time>2025-09-20T09:19:08Z</time>
      </trkpt>
      <trkpt lat="46.20671" lon="4.60004">
        <ele>559.6</ele>
        <time>2025-09-20T09:19:09Z</time>
      </trkpt>
      <trkpt lat="46.2067" lon="4.60003">
        <ele>559.8</ele>
        <time>2025-09-20T09:19:10Z</time>
      </trkpt>
      <trkpt lat="46.20668" lon="4.60002">
        <ele>560.2</ele>
        <time>2025-09-20T09:19:11Z</time>
      </trkpt>
      <trkpt lat="46.20667" lon="4.60002">
        <ele>560.2</ele>
        <time>2025-09-20T09:19:12Z</time>
      </trkpt>
      <trkpt lat="46.20665" lon="4.60001">
        <ele>560.8</ele>
        <time>2025-09-20T09:19:13Z</time>
      </trkpt>
      <trkpt lat="46.20664" lon="4.6">
        <ele>560.8</ele>
        <time>2025-09-20T09:19:14Z</time>
      </trkpt>
      <trkpt lat="46.20663" lon="4.59999">
        <ele>560.4</ele>
        <time>2025-09-20T09:19:15Z</time>
      </trkpt>
      <trkpt lat="46.20661" lon="4.59997">
        <ele>560.4</ele>
        <time>2025-09-20T09:19:16Z</time>
      </trkpt>
      <trkpt lat="46.20661" lon="4.59996">
        <ele>560.8</ele>
        <time>2025-09-20T09:19:17Z</time>
      </trkpt>
      <trkpt lat="46.20659" lon="4.59995">
        <ele>560.8</ele>
        <time>2025-09-20T09:19:18Z</time>
      </trkpt>
      <trkpt lat="46.20658" lon="4.59994">
        <ele>561</ele>
        <time>2025-09-20T09:19:19Z</time>
      </trkpt>
      <trkpt lat="46.20656" lon="4.59993">
        <ele>561</ele>
        <time>2025-09-20T09:19:20Z</time>
      </trkpt>
      <trkpt lat="46.20653" lon="4.59991">
        <ele>561</ele>
        <time>2025-09-20T09:19:21Z</time>
      </trkpt>
      <trkpt lat="46.20651" lon="4.5999">
        <ele>561</ele>
        <time>2025-09-20T09:19:22Z</time>
      </trkpt>
      <trkpt lat="46.20649" lon="4.59989">
        <ele>561</ele>
        <time>2025-09-20T09:19:23Z</time>
      </trkpt>
      <trkpt lat="46.20647" lon="4.59989">
        <ele>561</ele>
        <time>2025-09-20T09:19:24Z</time>
      </trkpt>
      <trkpt lat="46.20644" lon="4.59988">
        <ele>561.2</ele>
        <time>2025-09-20T09:19:25Z</time>
      </trkpt>
      <trkpt lat="46.20641" lon="4.59987">
        <ele>561.2</ele>
        <time>2025-09-20T09:19:26Z</time>
      </trkpt>
      <trkpt lat="46.20638" lon="4.59986">
        <ele>561.2</ele>
        <time>2025-09-20T09:19:27Z</time>
      </trkpt>
      <trkpt lat="46.20636" lon="4.59985">
        <ele>562</ele>
        <time>2025-09-20T09:19:28Z</time>
      </trkpt>
      <trkpt lat="46.20634" lon="4.59983">
        <ele>562</ele>
        <time>2025-09-20T09:19:29Z</time>
      </trkpt>
      <trkpt lat="46.20632" lon="4.59982">
        <ele>561.8</ele>
        <time>2025-09-20T09:19:30Z</time>
      </trkpt>
      <trkpt lat="46.20629" lon="4.5998">
        <ele>561.8</ele>
        <time>2025-09-20T09:19:31Z</time>
      </trkpt>
      <trkpt lat="46.20626" lon="4.59979">
        <ele>561.6</ele>
        <time>2025-09-20T09:19:32Z</time>
      </trkpt>
      <trkpt lat="46.20623" lon="4.59977">
        <ele>561.4</ele>
        <time>2025-09-20T09:19:33Z</time>
      </trkpt>
      <trkpt lat="46.2062" lon="4.59975">
        <ele>560.8</ele>
        <time>2025-09-20T09:19:34Z</time>
      </trkpt>
      <trkpt lat="46.20617" lon="4.59974">
        <ele>560.8</ele>
        <time>2025-09-20T09:19:35Z</time>
      </trkpt>
      <trkpt lat="46.20614" lon="4.59972">
        <ele>561</ele>
        <time>2025-09-20T09:19:36Z</time>
      </trkpt>
      <trkpt lat="46.20611" lon="4.5997">
        <ele>561</ele>
        <time>2025-09-20T09:19:37Z</time>
      </trkpt>
      <trkpt lat="46.20608" lon="4.59969">
        <ele>561</ele>
        <time>2025-09-20T09:19:38Z</time>
      </trkpt>
      <trkpt lat="46.20605" lon="4.59967">
        <ele>561.4</ele>
        <time>2025-09-20T09:19:39Z</time>
      </trkpt>
      <trkpt lat="46.20603" lon="4.59966">
        <ele>562.2</ele>
        <time>2025-09-20T09:19:40Z</time>
      </trkpt>
      <trkpt lat="46.20599" lon="4.59965">
        <ele>561.8</ele>
        <time>2025-09-20T09:19:41Z</time>
      </trkpt>
      <trkpt lat="46.20596" lon="4.59964">
        <ele>562.2</ele>
        <time>2025-09-20T09:19:42Z</time>
      </trkpt>
      <trkpt lat="46.20593" lon="4.59963">
        <ele>562.2</ele>
        <time>2025-09-20T09:19:43Z</time>
      </trkpt>
      <trkpt lat="46.2059" lon="4.59962">
        <ele>562.4</ele>
        <time>2025-09-20T09:19:44Z</time>
      </trkpt>
      <trkpt lat="46.20588" lon="4.59961">
        <ele>562.8</ele>
        <time>2025-09-20T09:19:45Z</time>
      </trkpt>
      <trkpt lat="46.20585" lon="4.5996">
        <ele>562.8</ele>
        <time>2025-09-20T09:19:46Z</time>
      </trkpt>
      <trkpt lat="46.20582" lon="4.59958">
        <ele>562.8</ele>
        <time>2025-09-20T09:19:47Z</time>
      </trkpt>
      <trkpt lat="46.20579" lon="4.59957">
        <ele>562.4</ele>
        <time>2025-09-20T09:19:48Z</time>
      </trkpt>
      <trkpt lat="46.20576" lon="4.59955">
        <ele>562.4</ele>
        <time>2025-09-20T09:19:49Z</time>
      </trkpt>
      <trkpt lat="46.20573" lon="4.59953">
        <ele>562.4</ele>
        <time>2025-09-20T09:19:50Z</time>
      </trkpt>
      <trkpt lat="46.2057" lon="4.59951">
        <ele>562.4</ele>
        <time>2025-09-20T09:19:51Z</time>
      </trkpt>
      <trkpt lat="46.20568" lon="4.5995">
        <ele>562.4</ele>
        <time>2025-09-20T09:19:52Z</time>
      </trkpt>
      <trkpt lat="46.20565" lon="4.59949">
        <ele>562.2</ele>
        <time>2025-09-20T09:19:53Z</time>
      </trkpt>
      <trkpt lat="46.20564" lon="4.59948">
        <ele>562.2</ele>
        <time>2025-09-20T09:19:54Z</time>
      </trkpt>
      <trkpt lat="46.20563" lon="4.59947">
        <ele>562.2</ele>
        <time>2025-09-20T09:19:55Z</time>
      </trkpt>
      <trkpt lat="46.20562" lon="4.59946">
        <ele>562.2</ele>
        <time>2025-09-20T09:19:56Z</time>
      </trkpt>
      <trkpt lat="46.20561" lon="4.59946">
        <ele>562.4</ele>
        <time>2025-09-20T09:19:57Z</time>
      </trkpt>
      <trkpt lat="46.2056" lon="4.59945">
        <ele>562.4</ele>
        <time>2025-09-20T09:19:58Z</time>
      </trkpt>
      <trkpt lat="46.20558" lon="4.59944">
        <ele>562.4</ele>
        <time>2025-09-20T09:19:59Z</time>
      </trkpt>
      <trkpt lat="46.20557" lon="4.59944">
        <ele>562.4</ele>
        <time>2025-09-20T09:20:00Z</time>
      </trkpt>
      <trkpt lat="46.20555" lon="4.59942">
        <ele>562.4</ele>
        <time>2025-09-20T09:20:01Z</time>
      </trkpt>
      <trkpt lat="46.20552" lon="4.5994">
        <ele>562.4</ele>
        <time>2025-09-20T09:20:02Z</time>
      </trkpt>
      <trkpt lat="46.20549" lon="4.59939">
        <ele>562.2</ele>
        <time>2025-09-20T09:20:03Z</time>
      </trkpt>
      <trkpt lat="46.20547" lon="4.59937">
        <ele>562</ele>
        <time>2025-09-20T09:20:04Z</time>
      </trkpt>
      <trkpt lat="46.20544" lon="4.59935">
        <ele>561.2</ele>
        <time>2025-09-20T09:20:05Z</time>
      </trkpt>
      <trkpt lat="46.20541" lon="4.59933">
        <ele>561.2</ele>
        <time>2025-09-20T09:20:06Z</time>
      </trkpt>
      <trkpt lat="46.20537" lon="4.59931">
        <ele>560.8</ele>
        <time>2025-09-20T09:20:07Z</time>
      </trkpt>
      <trkpt lat="46.20534" lon="4.59929">
        <ele>560.8</ele>
        <time>2025-09-20T09:20:08Z</time>
      </trkpt>
      <trkpt lat="46.2053" lon="4.59926">
        <ele>560.8</ele>
        <time>2025-09-20T09:20:09Z</time>
      </trkpt>
      <trkpt lat="46.20527" lon="4.59924">
        <ele>560.4</ele>
        <time>2025-09-20T09:20:10Z</time>
      </trkpt>
      <trkpt lat="46.20523" lon="4.59922">
        <ele>560.4</ele>
        <time>2025-09-20T09:20:11Z</time>
      </trkpt>
      <trkpt lat="46.20519" lon="4.59918">
        <ele>559.2</ele>
        <time>2025-09-20T09:20:12Z</time>
      </trkpt>
      <trkpt lat="46.20516" lon="4.59915">
        <ele>559.2</ele>
        <time>2025-09-20T09:20:13Z</time>
      </trkpt>
      <trkpt lat="46.20512" lon="4.59912">
        <ele>558.2</ele>
        <time>2025-09-20T09:20:14Z</time>
      </trkpt>
      <trkpt lat="46.20507" lon="4.59907">
        <ele>558.2</ele>
        <time>2025-09-20T09:20:15Z</time>
      </trkpt>
      <trkpt lat="46.20502" lon="4.59902">
        <ele>557.2</ele>
        <time>2025-09-20T09:20:16Z</time>
      </trkpt>
      <trkpt lat="46.20498" lon="4.59899">
        <ele>556.8</ele>
        <time>2025-09-20T09:20:17Z</time>
      </trkpt>
      <trkpt lat="46.20494" lon="4.59894">
        <ele>556.4</ele>
        <time>2025-09-20T09:20:18Z</time>
      </trkpt>
      <trkpt lat="46.20489" lon="4.59889">
        <ele>555.8</ele>
        <time>2025-09-20T09:20:19Z</time>
      </trkpt>
      <trkpt lat="46.20485" lon="4.59883">
        <ele>555.6</ele>
        <time>2025-09-20T09:20:20Z</time>
      </trkpt>
      <trkpt lat="46.2048" lon="4.59877">
        <ele>556</ele>
        <time>2025-09-20T09:20:21Z</time>
      </trkpt>
      <trkpt lat="46.20475" lon="4.59871">
        <ele>555.6</ele>
        <time>2025-09-20T09:20:22Z</time>
      </trkpt>
      <trkpt lat="46.20471" lon="4.59867">
        <ele>555.6</ele>
        <time>2025-09-20T09:20:23Z</time>
      </trkpt>
      <trkpt lat="46.20466" lon="4.59864">
        <ele>555.6</ele>
        <time>2025-09-20T09:20:24Z</time>
      </trkpt>
      <trkpt lat="46.20462" lon="4.59861">
        <ele>556.6</ele>
        <time>2025-09-20T09:20:25Z</time>
      </trkpt>
      <trkpt lat="46.20457" lon="4.59862">
        <ele>556.2</ele>
        <time>2025-09-20T09:20:26Z</time>
      </trkpt>
      <trkpt lat="46.20455" lon="4.59862">
        <ele>556.2</ele>
        <time>2025-09-20T09:20:27Z</time>
      </trkpt>
      <trkpt lat="46.20454" lon="4.59865">
        <ele>556.2</ele>
        <time>2025-09-20T09:20:28Z</time>
      </trkpt>
      <trkpt lat="46.20453" lon="4.59868">
        <ele>556.2</ele>
        <time>2025-09-20T09:20:29Z</time>
      </trkpt>
      <trkpt lat="46.20453" lon="4.5987">
        <ele>556.2</ele>
        <time>2025-09-20T09:20:30Z</time>
      </trkpt>
      <trkpt lat="46.20452" lon="4.59873">
        <ele>556.6</ele>
        <time>2025-09-20T09:20:31Z</time>
      </trkpt>
      <trkpt lat="46.20453" lon="4.59876">
        <ele>557.2</ele>
        <time>2025-09-20T09:20:32Z</time>
      </trkpt>
      <trkpt lat="46.20453" lon="4.59878">
        <ele>557.6</ele>
        <time>2025-09-20T09:20:33Z</time>
      </trkpt>
      <trkpt lat="46.20452" lon="4.5988">
        <ele>558.2</ele>
        <time>2025-09-20T09:20:34Z</time>
      </trkpt>
      <trkpt lat="46.20451" lon="4.59883">
        <ele>558.6</ele>
        <time>2025-09-20T09:20:35Z</time>
      </trkpt>
      <trkpt lat="46.20451" lon="4.59884">
        <ele>558.8</ele>
        <time>2025-09-20T09:20:36Z</time>
      </trkpt>
      <trkpt lat="46.20452" lon="4.59885">
        <ele>559</ele>
        <time>2025-09-20T09:20:37Z</time>
      </trkpt>
      <trkpt lat="46.20452" lon="4.59886">
        <ele>559</ele>
        <time>2025-09-20T09:20:38Z</time>
      </trkpt>
      <trkpt lat="46.20452" lon="4.59886">
        <ele>559.2</ele>
        <time>2025-09-20T09:20:39Z</time>
      </trkpt>
      <trkpt lat="46.2045" lon="4.59888">
        <ele>559.2</ele>
        <time>2025-09-20T09:20:55Z</time>
      </trkpt>
      <trkpt lat="46.20451" lon="4.59889">
        <ele>559.2</ele>
        <time>2025-09-20T09:20:56Z</time>
      </trkpt>
      <trkpt lat="46.20451" lon="4.59891">
        <ele>559.2</ele>
        <time>2025-09-20T09:20:57Z</time>
      </trkpt>
      <trkpt lat="46.20451" lon="4.59893">
        <ele>559.2</ele>
        <time>2025-09-20T09:20:58Z</time>
      </trkpt>
      <trkpt lat="46.20451" lon="4.59894">
        <ele>559.2</ele>
        <time>2025-09-20T09:20:59Z</time>
      </trkpt>
      <trkpt lat="46.20451" lon="4.59896">
        <ele>559.6</ele>
        <time>2025-09-20T09:21:00Z</time>
      </trkpt>
      <trkpt lat="46.2045" lon="4.59897">
        <ele>559.8</ele>
        <time>2025-09-20T09:21:01Z</time>
      </trkpt>
      <trkpt lat="46.20449" lon="4.59899">
        <ele>560</ele>
        <time>2025-09-20T09:21:02Z</time>
      </trkpt>
      <trkpt lat="46.20448" lon="4.599">
        <ele>560.4</ele>
        <time>2025-09-20T09:21:03Z</time>
      </trkpt>
      <trkpt lat="46.20448" lon="4.59901">
        <ele>560.6</ele>
        <time>2025-09-20T09:21:04Z</time>
      </trkpt>
      <trkpt lat="46.20448" lon="4.59902">
        <ele>560.6</ele>
        <time>2025-09-20T09:21:05Z</time>
      </trkpt>
      <trkpt lat="46.20447" lon="4.59904">
        <ele>561</ele>
        <time>2025-09-20T09:21:06Z</time>
      </trkpt>
      <trkpt lat="46.20448" lon="4.59905">
        <ele>561.4</ele>
        <time>2025-09-20T09:21:07Z</time>
      </trkpt>
      <trkpt lat="46.20448" lon="4.59907">
        <ele>561.8</ele>
        <time>2025-09-20T09:21:08Z</time>
      </trkpt>
      <trkpt lat="46.20448" lon="4.59908">
        <ele>561.8</ele>
        <time>2025-09-20T09:21:09Z</time>
      </trkpt>
      <trkpt lat="46.20448" lon="4.59909">
        <ele>561.8</ele>
        <time>2025-09-20T09:21:10Z</time>
      </trkpt>
      <trkpt lat="46.20448" lon="4.5991">
        <ele>562.2</ele>
        <time>2025-09-20T09:21:11Z</time>
      </trkpt>
      <trkpt lat="46.20448" lon="4.59911">
        <ele>562.2</ele>
        <time>2025-09-20T09:21:12Z</time>
      </trkpt>
      <trkpt lat="46.20447" lon="4.59912">
        <ele>562.2</ele>
        <time>2025-09-20T09:21:13Z</time>
      </trkpt>
      <trkpt lat="46.20447" lon="4.59914">
        <ele>562.4</ele>
        <time>2025-09-20T09:21:14Z</time>
      </trkpt>
      <trkpt lat="46.20446" lon="4.59915">
        <ele>562.4</ele>
        <time>2025-09-20T09:21:15Z</time>
      </trkpt>
      <trkpt lat="46.20445" lon="4.59916">
        <ele>562.4</ele>
        <time>2025-09-20T09:21:16Z</time>
      </trkpt>
      <trkpt lat="46.20445" lon="4.59917">
        <ele>562.8</ele>
        <time>2025-09-20T09:21:17Z</time>
      </trkpt>
      <trkpt lat="46.20445" lon="4.59918">
        <ele>563.2</ele>
        <time>2025-09-20T09:21:18Z</time>
      </trkpt>
      <trkpt lat="46.20445" lon="4.59919">
        <ele>563.2</ele>
        <time>2025-09-20T09:21:19Z</time>
      </trkpt>
      <trkpt lat="46.20444" lon="4.5992">
        <ele>563.2</ele>
        <time>2025-09-20T09:21:20Z</time>
      </trkpt>
      <trkpt lat="46.20444" lon="4.59921">
        <ele>563.6</ele>
        <time>2025-09-20T09:21:21Z</time>
      </trkpt>
      <trkpt lat="46.20444" lon="4.59922">
        <ele>563.8</ele>
        <time>2025-09-20T09:21:22Z</time>
      </trkpt>
      <trkpt lat="46.20443" lon="4.59924">
        <ele>563.8</ele>
        <time>2025-09-20T09:21:23Z</time>
      </trkpt>
      <trkpt lat="46.20443" lon="4.59925">
        <ele>564.2</ele>
        <time>2025-09-20T09:21:24Z</time>
      </trkpt>
      <trkpt lat="46.20443" lon="4.59927">
        <ele>564.6</ele>
        <time>2025-09-20T09:21:25Z</time>
      </trkpt>
      <trkpt lat="46.20442" lon="4.59929">
        <ele>564.6</ele>
        <time>2025-09-20T09:21:26Z</time>
      </trkpt>
      <trkpt lat="46.20441" lon="4.5993">
        <ele>564.6</ele>
        <time>2025-09-20T09:21:27Z</time>
      </trkpt>
      <trkpt lat="46.20441" lon="4.5993">
        <ele>565</ele>
        <time>2025-09-20T09:21:28Z</time>
      </trkpt>
      <trkpt lat="46.20441" lon="4.59931">
        <ele>565.2</ele>
        <time>2025-09-20T09:21:29Z</time>
      </trkpt>
      <trkpt lat="46.20441" lon="4.59932">
        <ele>565.4</ele>
        <time>2025-09-20T09:21:30Z</time>
      </trkpt>
      <trkpt lat="46.2044" lon="4.59933">
        <ele>565.4</ele>
        <time>2025-09-20T09:21:31Z</time>
      </trkpt>
      <trkpt lat="46.2044" lon="4.59935">
        <ele>565.4</ele>
        <time>2025-09-20T09:21:32Z</time>
      </trkpt>
      <trkpt lat="46.20439" lon="4.59936">
        <ele>566</ele>
        <time>2025-09-20T09:21:33Z</time>
      </trkpt>
      <trkpt lat="46.20439" lon="4.59937">
        <ele>566.2</ele>
        <time>2025-09-20T09:21:34Z</time>
      </trkpt>
      <trkpt lat="46.20437" lon="4.59938">
        <ele>566.6</ele>
        <time>2025-09-20T09:21:35Z</time>
      </trkpt>
      <trkpt lat="46.20436" lon="4.5994">
        <ele>566.8</ele>
        <time>2025-09-20T09:21:36Z</time>
      </trkpt>
      <trkpt lat="46.20436" lon="4.59941">
        <ele>567</ele>
        <time>2025-09-20T09:21:37Z</time>
      </trkpt>
      <trkpt lat="46.20435" lon="4.59942">
        <ele>567</ele>
        <time>2025-09-20T09:21:38Z</time>
      </trkpt>
      <trkpt lat="46.20435" lon="4.59943">
        <ele>567.8</ele>
        <time>2025-09-20T09:21:39Z</time>
      </trkpt>
      <trkpt lat="46.20434" lon="4.59944">
        <ele>567.4</ele>
        <time>2025-09-20T09:21:40Z</time>
      </trkpt>
      <trkpt lat="46.20434" lon="4.59945">
        <ele>568</ele>
        <time>2025-09-20T09:21:41Z</time>
      </trkpt>
      <trkpt lat="46.20433" lon="4.59947">
        <ele>568.2</ele>
        <time>2025-09-20T09:21:42Z</time>
      </trkpt>
      <trkpt lat="46.20433" lon="4.59948">
        <ele>568.2</ele>
        <time>2025-09-20T09:21:43Z</time>
      </trkpt>
      <trkpt lat="46.20432" lon="4.59948">
        <ele>568.6</ele>
        <time>2025-09-20T09:21:44Z</time>
      </trkpt>
      <trkpt lat="46.20432" lon="4.59949">
        <ele>568.6</ele>
        <time>2025-09-20T09:21:45Z</time>
      </trkpt>
      <trkpt lat="46.20432" lon="4.59949">
        <ele>568.8</ele>
        <time>2025-09-20T09:21:46Z</time>
      </trkpt>
      <trkpt lat="46.20431" lon="4.5995">
        <ele>568.8</ele>
        <time>2025-09-20T09:21:47Z</time>
      </trkpt>
      <trkpt lat="46.2043" lon="4.59952">
        <ele>569.2</ele>
        <time>2025-09-20T09:21:48Z</time>
      </trkpt>
      <trkpt lat="46.20429" lon="4.59952">
        <ele>569.2</ele>
        <time>2025-09-20T09:21:49Z</time>
      </trkpt>
      <trkpt lat="46.20429" lon="4.59954">
        <ele>569.4</ele>
        <time>2025-09-20T09:21:50Z</time>
      </trkpt>
      <trkpt lat="46.20428" lon="4.59956">
        <ele>569.4</ele>
        <time>2025-09-20T09:21:51Z</time>
      </trkpt>
      <trkpt lat="46.20428" lon="4.59957">
        <ele>569.8</ele>
        <time>2025-09-20T09:21:52Z</time>
      </trkpt>
      <trkpt lat="46.20427" lon="4.59958">
        <ele>569.8</ele>
        <time>2025-09-20T09:21:53Z</time>
      </trkpt>
      <trkpt lat="46.20427" lon="4.5996">
        <ele>570.4</ele>
        <time>2025-09-20T09:21:54Z</time>
      </trkpt>
      <trkpt lat="46.20427" lon="4.59961">
        <ele>570.4</ele>
        <time>2025-09-20T09:21:55Z</time>
      </trkpt>
      <trkpt lat="46.20427" lon="4.59962">
        <ele>570.8</ele>
        <time>2025-09-20T09:21:56Z</time>
      </trkpt>
      <trkpt lat="46.20427" lon="4.59963">
        <ele>570.8</ele>
        <time>2025-09-20T09:21:57Z</time>
      </trkpt>
      <trkpt lat="46.20427" lon="4.59964">
        <ele>570.8</ele>
        <time>2025-09-20T09:21:58Z</time>
      </trkpt>
      <trkpt lat="46.20427" lon="4.59965">
        <ele>571</ele>
        <time>2025-09-20T09:21:59Z</time>
      </trkpt>
      <trkpt lat="46.20425" lon="4.59966">
        <ele>571</ele>
        <time>2025-09-20T09:22:00Z</time>
      </trkpt>
      <trkpt lat="46.20423" lon="4.59968">
        <ele>571</ele>
        <time>2025-09-20T09:22:01Z</time>
      </trkpt>
      <trkpt lat="46.20423" lon="4.59968">
        <ele>571.2</ele>
        <time>2025-09-20T09:22:02Z</time>
      </trkpt>
      <trkpt lat="46.20423" lon="4.59968">
        <ele>571.2</ele>
        <time>2025-09-20T09:22:03Z</time>
      </trkpt>
      <trkpt lat="46.20424" lon="4.59969">
        <ele>571.2</ele>
        <time>2025-09-20T09:22:04Z</time>
      </trkpt>
      <trkpt lat="46.20424" lon="4.5997">
        <ele>571.4</ele>
        <time>2025-09-20T09:22:05Z</time>
      </trkpt>
      <trkpt lat="46.20424" lon="4.59971">
        <ele>571.4</ele>
        <time>2025-09-20T09:22:06Z</time>
      </trkpt>
      <trkpt lat="46.20424" lon="4.59973">
        <ele>571.8</ele>
        <time>2025-09-20T09:22:07Z</time>
      </trkpt>
      <trkpt lat="46.20424" lon="4.59974">
        <ele>571.8</ele>
        <time>2025-09-20T09:22:08Z</time>
      </trkpt>
      <trkpt lat="46.20424" lon="4.59975">
        <ele>572.2</ele>
        <time>2025-09-20T09:22:09Z</time>
      </trkpt>
      <trkpt lat="46.20424" lon="4.59976">
        <ele>572.6</ele>
        <time>2025-09-20T09:22:10Z</time>
      </trkpt>
      <trkpt lat="46.20424" lon="4.59977">
        <ele>572.6</ele>
        <time>2025-09-20T09:22:11Z</time>
      </trkpt>
      <trkpt lat="46.20424" lon="4.59978">
        <ele>573</ele>
        <time>2025-09-20T09:22:12Z</time>
      </trkpt>
      <trkpt lat="46.20424" lon="4.59979">
        <ele>573.2</ele>
        <time>2025-09-20T09:22:13Z</time>
      </trkpt>
      <trkpt lat="46.20423" lon="4.5998">
        <ele>573.6</ele>
        <time>2025-09-20T09:22:14Z</time>
      </trkpt>
      <trkpt lat="46.20422" lon="4.59981">
        <ele>573.6</ele>
        <time>2025-09-20T09:22:15Z</time>
      </trkpt>
      <trkpt lat="46.20421" lon="4.59982">
        <ele>573.6</ele>
        <time>2025-09-20T09:22:16Z</time>
      </trkpt>
      <trkpt lat="46.2042" lon="4.59983">
        <ele>573.6</ele>
        <time>2025-09-20T09:22:17Z</time>
      </trkpt>
      <trkpt lat="46.20419" lon="4.59984">
        <ele>574</ele>
        <time>2025-09-20T09:22:18Z</time>
      </trkpt>
      <trkpt lat="46.20419" lon="4.59984">
        <ele>574</ele>
        <time>2025-09-20T09:22:19Z</time>
      </trkpt>
      <trkpt lat="46.20417" lon="4.59986">
        <ele>574.6</ele>
        <time>2025-09-20T09:22:22Z</time>
      </trkpt>
      <trkpt lat="46.20416" lon="4.59987">
        <ele>574.6</ele>
        <time>2025-09-20T09:22:23Z</time>
      </trkpt>
      <trkpt lat="46.20416" lon="4.59989">
        <ele>574.6</ele>
        <time>2025-09-20T09:22:24Z</time>
      </trkpt>
      <trkpt lat="46.20415" lon="4.5999">
        <ele>574.8</ele>
        <time>2025-09-20T09:22:25Z</time>
      </trkpt>
      <trkpt lat="46.20416" lon="4.59992">
        <ele>574.8</ele>
        <time>2025-09-20T09:22:26Z</time>
      </trkpt>
      <trkpt lat="46.20416" lon="4.59993">
        <ele>575.2</ele>
        <time>2025-09-20T09:22:27Z</time>
      </trkpt>
      <trkpt lat="46.20417" lon="4.59994">
        <ele>575.4</ele>
        <time>2025-09-20T09:22:28Z</time>
      </trkpt>
      <trkpt lat="46.20417" lon="4.59995">
        <ele>575.8</ele>
        <time>2025-09-20T09:22:29Z</time>
      </trkpt>
      <trkpt lat="46.20416" lon="4.59997">
        <ele>576</ele>
        <time>2025-09-20T09:22:30Z</time>
      </trkpt>
      <trkpt lat="46.20416" lon="4.59997">
        <ele>576.2</ele>
        <time>2025-09-20T09:22:31Z</time>
      </trkpt>
      <trkpt lat="46.20416" lon="4.59999">
        <ele>576.2</ele>
        <time>2025-09-20T09:22:32Z</time>
      </trkpt>
      <trkpt lat="46.20416" lon="4.6">
        <ele>576.6</ele>
        <time>2025-09-20T09:22:33Z</time>
      </trkpt>
      <trkpt lat="46.20415" lon="4.60001">
        <ele>576.8</ele>
        <time>2025-09-20T09:22:34Z</time>
      </trkpt>
      <trkpt lat="46.20414" lon="4.60002">
        <ele>577.2</ele>
        <time>2025-09-20T09:22:35Z</time>
      </trkpt>
      <trkpt lat="46.20413" lon="4.60004">
        <ele>577.6</ele>
        <time>2025-09-20T09:22:36Z</time>
      </trkpt>
      <trkpt lat="46.20411" lon="4.60005">
        <ele>577.8</ele>
        <time>2025-09-20T09:22:37Z</time>
      </trkpt>
      <trkpt lat="46.2041" lon="4.60006">
        <ele>578.2</ele>
        <time>2025-09-20T09:22:38Z</time>
      </trkpt>
      <trkpt lat="46.20409" lon="4.60007">
        <ele>578.2</ele>
        <time>2025-09-20T09:22:39Z</time>
      </trkpt>
      <trkpt lat="46.20408" lon="4.60008">
        <ele>578.6</ele>
        <time>2025-09-20T09:22:40Z</time>
      </trkpt>
      <trkpt lat="46.20407" lon="4.6001">
        <ele>578.8</ele>
        <time>2025-09-20T09:22:41Z</time>
      </trkpt>
      <trkpt lat="46.20407" lon="4.60011">
        <ele>578.8</ele>
        <time>2025-09-20T09:22:42Z</time>
      </trkpt>
      <trkpt lat="46.20406" lon="4.60013">
        <ele>579.2</ele>
        <time>2025-09-20T09:22:43Z</time>
      </trkpt>
      <trkpt lat="46.20406" lon="4.60014">
        <ele>579.2</ele>
        <time>2025-09-20T09:22:44Z</time>
      </trkpt>
      <trkpt lat="46.20406" lon="4.60015">
        <ele>579.4</ele>
        <time>2025-09-20T09:22:45Z</time>
      </trkpt>
      <trkpt lat="46.20405" lon="4.60017">
        <ele>579.4</ele>
        <time>2025-09-20T09:22:46Z</time>
      </trkpt>
      <trkpt lat="46.20405" lon="4.60018">
        <ele>579.6</ele>
        <time>2025-09-20T09:22:47Z</time>
      </trkpt>
      <trkpt lat="46.20405" lon="4.60019">
        <ele>579.6</ele>
        <time>2025-09-20T09:22:48Z</time>
      </trkpt>
      <trkpt lat="46.20405" lon="4.60019">
        <ele>580</ele>
        <time>2025-09-20T09:22:49Z</time>
      </trkpt>
      <trkpt lat="46.20405" lon="4.6002">
        <ele>580</ele>
        <time>2025-09-20T09:22:50Z</time>
      </trkpt>
      <trkpt lat="46.20405" lon="4.60021">
        <ele>580.4</ele>
        <time>2025-09-20T09:22:51Z</time>
      </trkpt>
      <trkpt lat="46.20405" lon="4.60022">
        <ele>580.4</ele>
        <time>2025-09-20T09:22:52Z</time>
      </trkpt>
      <trkpt lat="46.20405" lon="4.60022">
        <ele>580.6</ele>
        <time>2025-09-20T09:22:53Z</time>
      </trkpt>
      <trkpt lat="46.20405" lon="4.60023">
        <ele>580.6</ele>
        <time>2025-09-20T09:22:54Z</time>
      </trkpt>
      <trkpt lat="46.20406" lon="4.60023">
        <ele>580.8</ele>
        <time>2025-09-20T09:22:55Z</time>
      </trkpt>
      <trkpt lat="46.20406" lon="4.60025">
        <ele>580.8</ele>
        <time>2025-09-20T09:22:56Z</time>
      </trkpt>
      <trkpt lat="46.20406" lon="4.60026">
        <ele>581</ele>
        <time>2025-09-20T09:22:57Z</time>
      </trkpt>
      <trkpt lat="46.20407" lon="4.60027">
        <ele>581</ele>
        <time>2025-09-20T09:22:58Z</time>
      </trkpt>
      <trkpt lat="46.20407" lon="4.60028">
        <ele>581.4</ele>
        <time>2025-09-20T09:22:59Z</time>
      </trkpt>
      <trkpt lat="46.20407" lon="4.60028">
        <ele>581.4</ele>
        <time>2025-09-20T09:23:00Z</time>
      </trkpt>
      <trkpt lat="46.20408" lon="4.60029">
        <ele>581.4</ele>
        <time>2025-09-20T09:23:01Z</time>
      </trkpt>
      <trkpt lat="46.20408" lon="4.60031">
        <ele>581.6</ele>
        <time>2025-09-20T09:23:02Z</time>
      </trkpt>
      <trkpt lat="46.20408" lon="4.60032">
        <ele>581.6</ele>
        <time>2025-09-20T09:23:03Z</time>
      </trkpt>
      <trkpt lat="46.20408" lon="4.60034">
        <ele>581.6</ele>
        <time>2025-09-20T09:23:04Z</time>
      </trkpt>
      <trkpt lat="46.20408" lon="4.60036">
        <ele>581.6</ele>
        <time>2025-09-20T09:23:05Z</time>
      </trkpt>
      <trkpt lat="46.20407" lon="4.60037">
        <ele>581.8</ele>
        <time>2025-09-20T09:23:06Z</time>
      </trkpt>
      <trkpt lat="46.20407" lon="4.60039">
        <ele>581.8</ele>
        <time>2025-09-20T09:23:07Z</time>
      </trkpt>
      <trkpt lat="46.20408" lon="4.60041">
        <ele>581.8</ele>
        <time>2025-09-20T09:23:08Z</time>
      </trkpt>
      <trkpt lat="46.20409" lon="4.60043">
        <ele>581.6</ele>
        <time>2025-09-20T09:23:09Z</time>
      </trkpt>
      <trkpt lat="46.20409" lon="4.60044">
        <ele>581.6</ele>
        <time>2025-09-20T09:23:10Z</time>
      </trkpt>
      <trkpt lat="46.20409" lon="4.60044">
        <ele>582</ele>
        <time>2025-09-20T09:23:11Z</time>
      </trkpt>
      <trkpt lat="46.20409" lon="4.60045">
        <ele>582.2</ele>
        <time>2025-09-20T09:23:12Z</time>
      </trkpt>
      <trkpt lat="46.2041" lon="4.60045">
        <ele>582.2</ele>
        <time>2025-09-20T09:23:13Z</time>
      </trkpt>
      <trkpt lat="46.2041" lon="4.60046">
        <ele>582.6</ele>
        <time>2025-09-20T09:23:14Z</time>
      </trkpt>
      <trkpt lat="46.2041" lon="4.60048">
        <ele>582.6</ele>
        <time>2025-09-20T09:23:15Z</time>
      </trkpt>
      <trkpt lat="46.2041" lon="4.6005">
        <ele>582.8</ele>
        <time>2025-09-20T09:23:16Z</time>
      </trkpt>
      <trkpt lat="46.2041" lon="4.60051">
        <ele>582.8</ele>
        <time>2025-09-20T09:23:17Z</time>
      </trkpt>
      <trkpt lat="46.2041" lon="4.60053">
        <ele>582.8</ele>
        <time>2025-09-20T09:23:18Z</time>
      </trkpt>
      <trkpt lat="46.2041" lon="4.60055">
        <ele>583</ele>
        <time>2025-09-20T09:23:19Z</time>
      </trkpt>
      <trkpt lat="46.2041" lon="4.60057">
        <ele>583.4</ele>
        <time>2025-09-20T09:23:20Z</time>
      </trkpt>
      <trkpt lat="46.20411" lon="4.60058">
        <ele>583.6</ele>
        <time>2025-09-20T09:23:21Z</time>
      </trkpt>
      <trkpt lat="46.20411" lon="4.60058">
        <ele>583.8</ele>
        <time>2025-09-20T09:23:22Z</time>
      </trkpt>
      <trkpt lat="46.20412" lon="4.60058">
        <ele>584.2</ele>
        <time>2025-09-20T09:23:23Z</time>
      </trkpt>
      <trkpt lat="46.20414" lon="4.60059">
        <ele>584.2</ele>
        <time>2025-09-20T09:23:24Z</time>
      </trkpt>
      <trkpt lat="46.20415" lon="4.6006">
        <ele>584.2</ele>
        <time>2025-09-20T09:23:25Z</time>
      </trkpt>
      <trkpt lat="46.20416" lon="4.60061">
        <ele>584.2</ele>
        <time>2025-09-20T09:23:26Z</time>
      </trkpt>
      <trkpt lat="46.20416" lon="4.60062">
        <ele>584.6</ele>
        <time>2025-09-20T09:23:27Z</time>
      </trkpt>
      <trkpt lat="46.20416" lon="4.60063">
        <ele>585</ele>
        <time>2025-09-20T09:23:28Z</time>
      </trkpt>
      <trkpt lat="46.20415" lon="4.60065">
        <ele>585</ele>
        <time>2025-09-20T09:23:29Z</time>
      </trkpt>
      <trkpt lat="46.20414" lon="4.60066">
        <ele>585</ele>
        <time>2025-09-20T09:23:30Z</time>
      </trkpt>
      <trkpt lat="46.20414" lon="4.60068">
        <ele>585.2</ele>
        <time>2025-09-20T09:23:31Z</time>
      </trkpt>
      <trkpt lat="46.20414" lon="4.60069">
        <ele>585.4</ele>
        <time>2025-09-20T09:23:32Z</time>
      </trkpt>
      <trkpt lat="46.20414" lon="4.60071">
        <ele>585.6</ele>
        <time>2025-09-20T09:23:33Z</time>
      </trkpt>
      <trkpt lat="46.20414" lon="4.60073">
        <ele>586</ele>
        <time>2025-09-20T09:23:34Z</time>
      </trkpt>
      <trkpt lat="46.20415" lon="4.60074">
        <ele>586</ele>
        <time>2025-09-20T09:23:35Z</time>
      </trkpt>
      <trkpt lat="46.20415" lon="4.60077">
        <ele>586.4</ele>
        <time>2025-09-20T09:23:36Z</time>
      </trkpt>
      <trkpt lat="46.20415" lon="4.60079">
        <ele>586.4</ele>
        <time>2025-09-20T09:23:37Z</time>
      </trkpt>
      <trkpt lat="46.20415" lon="4.6008">
        <ele>586.8</ele>
        <time>2025-09-20T09:23:38Z</time>
      </trkpt>
      <trkpt lat="46.20415" lon="4.60082">
        <ele>586.8</ele>
        <time>2025-09-20T09:23:39Z</time>
      </trkpt>
      <trkpt lat="46.20415" lon="4.60083">
        <ele>587.2</ele>
        <time>2025-09-20T09:23:40Z</time>
      </trkpt>
      <trkpt lat="46.20416" lon="4.60085">
        <ele>587.4</ele>
        <time>2025-09-20T09:23:41Z</time>
      </trkpt>
      <trkpt lat="46.20416" lon="4.60086">
        <ele>587.8</ele>
        <time>2025-09-20T09:23:42Z</time>
      </trkpt>
      <trkpt lat="46.20416" lon="4.60087">
        <ele>588</ele>
        <time>2025-09-20T09:23:43Z</time>
      </trkpt>
      <trkpt lat="46.20416" lon="4.60088">
        <ele>588.2</ele>
        <time>2025-09-20T09:23:44Z</time>
      </trkpt>
      <trkpt lat="46.20416" lon="4.60089">
        <ele>588.2</ele>
        <time>2025-09-20T09:23:45Z</time>
      </trkpt>
      <trkpt lat="46.20416" lon="4.6009">
        <ele>588.6</ele>
        <time>2025-09-20T09:23:46Z</time>
      </trkpt>
      <trkpt lat="46.20416" lon="4.60091">
        <ele>588.6</ele>
        <time>2025-09-20T09:23:47Z</time>
      </trkpt>
      <trkpt lat="46.20416" lon="4.6009">
        <ele>588.6</ele>
        <time>2025-09-20T09:23:48Z</time>
      </trkpt>
      <trkpt lat="46.20416" lon="4.6009">
        <ele>589</ele>
        <time>2025-09-20T09:23:49Z</time>
      </trkpt>
      <trkpt lat="46.20417" lon="4.60091">
        <ele>589.2</ele>
        <time>2025-09-20T09:23:50Z</time>
      </trkpt>
      <trkpt lat="46.20416" lon="4.6009">
        <ele>589.2</ele>
        <time>2025-09-20T09:23:51Z</time>
      </trkpt>
      <trkpt lat="46.20417" lon="4.60091">
        <ele>589.6</ele>
        <time>2025-09-20T09:23:55Z</time>
      </trkpt>
      <trkpt lat="46.20418" lon="4.60091">
        <ele>589.6</ele>
        <time>2025-09-20T09:23:56Z</time>
      </trkpt>
      <trkpt lat="46.20419" lon="4.60092">
        <ele>589.8</ele>
        <time>2025-09-20T09:23:57Z</time>
      </trkpt>
      <trkpt lat="46.2042" lon="4.60091">
        <ele>589.8</ele>
        <time>2025-09-20T09:23:58Z</time>
      </trkpt>
      <trkpt lat="46.20421" lon="4.60091">
        <ele>590</ele>
        <time>2025-09-20T09:23:59Z</time>
      </trkpt>
      <trkpt lat="46.20422" lon="4.60091">
        <ele>590</ele>
        <time>2025-09-20T09:24:00Z</time>
      </trkpt>
      <trkpt lat="46.20423" lon="4.6009">
        <ele>590.4</ele>
        <time>2025-09-20T09:24:01Z</time>
      </trkpt>
      <trkpt lat="46.20424" lon="4.6009">
        <ele>590.4</ele>
        <time>2025-09-20T09:24:02Z</time>
      </trkpt>
      <trkpt lat="46.20424" lon="4.6009">
        <ele>590.6</ele>
        <time>2025-09-20T09:24:03Z</time>
      </trkpt>
      <trkpt lat="46.20425" lon="4.60089">
        <ele>590.6</ele>
        <time>2025-09-20T09:24:04Z</time>
      </trkpt>
      <trkpt lat="46.20426" lon="4.60089">
        <ele>590.8</ele>
        <time>2025-09-20T09:24:05Z</time>
      </trkpt>
      <trkpt lat="46.20428" lon="4.60088">
        <ele>590.8</ele>
        <time>2025-09-20T09:24:06Z</time>
      </trkpt>
      <trkpt lat="46.20428" lon="4.60088">
        <ele>591</ele>
        <time>2025-09-20T09:24:07Z</time>
      </trkpt>
      <trkpt lat="46.20429" lon="4.60088">
        <ele>591</ele>
        <time>2025-09-20T09:24:08Z</time>
      </trkpt>
      <trkpt lat="46.20431" lon="4.60089">
        <ele>591.4</ele>
        <time>2025-09-20T09:24:09Z</time>
      </trkpt>
      <trkpt lat="46.20432" lon="4.60089">
        <ele>591.4</ele>
        <time>2025-09-20T09:24:10Z</time>
      </trkpt>
      <trkpt lat="46.20432" lon="4.6009">
        <ele>591.4</ele>
        <time>2025-09-20T09:24:11Z</time>
      </trkpt>
      <trkpt lat="46.20432" lon="4.60091">
        <ele>591.4</ele>
        <time>2025-09-20T09:24:12Z</time>
      </trkpt>
      <trkpt lat="46.20432" lon="4.60092">
        <ele>591.4</ele>
        <time>2025-09-20T09:24:13Z</time>
      </trkpt>
      <trkpt lat="46.20431" lon="4.60093">
        <ele>591.4</ele>
        <time>2025-09-20T09:24:14Z</time>
      </trkpt>
      <trkpt lat="46.2043" lon="4.60094">
        <ele>591.4</ele>
        <time>2025-09-20T09:24:15Z</time>
      </trkpt>
      <trkpt lat="46.20429" lon="4.60094">
        <ele>591.6</ele>
        <time>2025-09-20T09:24:16Z</time>
      </trkpt>
      <trkpt lat="46.20428" lon="4.60094">
        <ele>591.2</ele>
        <time>2025-09-20T09:24:17Z</time>
      </trkpt>
      <trkpt lat="46.20428" lon="4.60094">
        <ele>591.2</ele>
        <time>2025-09-20T09:24:18Z</time>
      </trkpt>
      <trkpt lat="46.20426" lon="4.60094">
        <ele>591.2</ele>
        <time>2025-09-20T09:24:28Z</time>
      </trkpt>
      <trkpt lat="46.20426" lon="4.60094">
        <ele>591.6</ele>
        <time>2025-09-20T09:24:29Z</time>
      </trkpt>
      <trkpt lat="46.20426" lon="4.60094">
        <ele>591.6</ele>
        <time>2025-09-20T09:24:30Z</time>
      </trkpt>
      <trkpt lat="46.20426" lon="4.60097">
        <ele>592.6</ele>
        <time>2025-09-20T09:24:49Z</time>
      </trkpt>
      <trkpt lat="46.20425" lon="4.60099">
        <ele>592.6</ele>
        <time>2025-09-20T09:24:50Z</time>
      </trkpt>
      <trkpt lat="46.20425" lon="4.60099">
        <ele>592.6</ele>
        <time>2025-09-20T09:24:51Z</time>
      </trkpt>
      <trkpt lat="46.20424" lon="4.601">
        <ele>592.6</ele>
        <time>2025-09-20T09:24:52Z</time>
      </trkpt>
      <trkpt lat="46.20423" lon="4.601">
        <ele>593.6</ele>
        <time>2025-09-20T09:24:53Z</time>
      </trkpt>
      <trkpt lat="46.20421" lon="4.60101">
        <ele>593.6</ele>
        <time>2025-09-20T09:24:54Z</time>
      </trkpt>
      <trkpt lat="46.20419" lon="4.60102">
        <ele>593.6</ele>
        <time>2025-09-20T09:24:55Z</time>
      </trkpt>
      <trkpt lat="46.20417" lon="4.60103">
        <ele>592</ele>
        <time>2025-09-20T09:24:56Z</time>
      </trkpt>
      <trkpt lat="46.20415" lon="4.60105">
        <ele>592.8</ele>
        <time>2025-09-20T09:24:57Z</time>
      </trkpt>
      <trkpt lat="46.20413" lon="4.60106">
        <ele>593</ele>
        <time>2025-09-20T09:24:58Z</time>
      </trkpt>
      <trkpt lat="46.20411" lon="4.60107">
        <ele>593.2</ele>
        <time>2025-09-20T09:24:59Z</time>
      </trkpt>
      <trkpt lat="46.20409" lon="4.60108">
        <ele>593.2</ele>
        <time>2025-09-20T09:25:00Z</time>
      </trkpt>
      <trkpt lat="46.20407" lon="4.60109">
        <ele>593.2</ele>
        <time>2025-09-20T09:25:01Z</time>
      </trkpt>
      <trkpt lat="46.20405" lon="4.60109">
        <ele>593.2</ele>
        <time>2025-09-20T09:25:02Z</time>
      </trkpt>
      <trkpt lat="46.20402" lon="4.6011">
        <ele>593.4</ele>
        <time>2025-09-20T09:25:03Z</time>
      </trkpt>
      <trkpt lat="46.204" lon="4.60111">
        <ele>593.6</ele>
        <time>2025-09-20T09:25:04Z</time>
      </trkpt>
      <trkpt lat="46.20398" lon="4.60111">
        <ele>593.6</ele>
        <time>2025-09-20T09:25:05Z</time>
      </trkpt>
      <trkpt lat="46.20396" lon="4.60111">
        <ele>593.6</ele>
        <time>2025-09-20T09:25:06Z</time>
      </trkpt>
      <trkpt lat="46.20394" lon="4.60111">
        <ele>594</ele>
        <time>2025-09-20T09:25:07Z</time>
      </trkpt>
      <trkpt lat="46.20392" lon="4.60112">
        <ele>594.4</ele>
        <time>2025-09-20T09:25:08Z</time>
      </trkpt>
      <trkpt lat="46.20389" lon="4.60113">
        <ele>594.6</ele>
        <time>2025-09-20T09:25:09Z</time>
      </trkpt>
      <trkpt lat="46.20387" lon="4.60113">
        <ele>594.6</ele>
        <time>2025-09-20T09:25:10Z</time>
      </trkpt>
      <trkpt lat="46.20386" lon="4.60114">
        <ele>595.2</ele>
        <time>2025-09-20T09:25:11Z</time>
      </trkpt>
      <trkpt lat="46.20384" lon="4.60114">
        <ele>595.2</ele>
        <time>2025-09-20T09:25:12Z</time>
      </trkpt>
      <trkpt lat="46.20382" lon="4.60114">
        <ele>595.4</ele>
        <time>2025-09-20T09:25:13Z</time>
      </trkpt>
      <trkpt lat="46.20379" lon="4.60114">
        <ele>595.4</ele>
        <time>2025-09-20T09:25:14Z</time>
      </trkpt>
      <trkpt lat="46.20378" lon="4.60113">
        <ele>595.8</ele>
        <time>2025-09-20T09:25:15Z</time>
      </trkpt>
      <trkpt lat="46.20376" lon="4.60113">
        <ele>595.8</ele>
        <time>2025-09-20T09:25:16Z</time>
      </trkpt>
      <trkpt lat="46.20374" lon="4.60112">
        <ele>596.2</ele>
        <time>2025-09-20T09:25:17Z</time>
      </trkpt>
      <trkpt lat="46.20372" lon="4.60112">
        <ele>596.2</ele>
        <time>2025-09-20T09:25:18Z</time>
      </trkpt>
      <trkpt lat="46.2037" lon="4.60112">
        <ele>596.2</ele>
        <time>2025-09-20T09:25:19Z</time>
      </trkpt>
      <trkpt lat="46.20366" lon="4.60112">
        <ele>596.4</ele>
        <time>2025-09-20T09:25:20Z</time>
      </trkpt>
      <trkpt lat="46.20364" lon="4.60112">
        <ele>596.4</ele>
        <time>2025-09-20T09:25:21Z</time>
      </trkpt>
      <trkpt lat="46.20362" lon="4.60111">
        <ele>596.8</ele>
        <time>2025-09-20T09:25:22Z</time>
      </trkpt>
      <trkpt lat="46.20361" lon="4.6011">
        <ele>596.8</ele>
        <time>2025-09-20T09:25:23Z</time>
      </trkpt>
      <trkpt lat="46.20359" lon="4.60111">
        <ele>596.8</ele>
        <time>2025-09-20T09:25:24Z</time>
      </trkpt>
      <trkpt lat="46.20357" lon="4.60111">
        <ele>597.2</ele>
        <time>2025-09-20T09:25:25Z</time>
      </trkpt>
      <trkpt lat="46.20356" lon="4.60111">
        <ele>597.4</ele>
        <time>2025-09-20T09:25:26Z</time>
      </trkpt>
      <trkpt lat="46.20354" lon="4.60111">
        <ele>597.4</ele>
        <time>2025-09-20T09:25:27Z</time>
      </trkpt>
      <trkpt lat="46.20352" lon="4.60111">
        <ele>597.8</ele>
        <time>2025-09-20T09:25:28Z</time>
      </trkpt>
      <trkpt lat="46.20351" lon="4.60111">
        <ele>598</ele>
        <time>2025-09-20T09:25:29Z</time>
      </trkpt>
      <trkpt lat="46.20349" lon="4.60111">
        <ele>598</ele>
        <time>2025-09-20T09:25:30Z</time>
      </trkpt>
      <trkpt lat="46.20347" lon="4.6011">
        <ele>598</ele>
        <time>2025-09-20T09:25:31Z</time>
      </trkpt>
      <trkpt lat="46.20345" lon="4.6011">
        <ele>598.2</ele>
        <time>2025-09-20T09:25:32Z</time>
      </trkpt>
      <trkpt lat="46.20344" lon="4.6011">
        <ele>598.2</ele>
        <time>2025-09-20T09:25:33Z</time>
      </trkpt>
      <trkpt lat="46.20342" lon="4.60111">
        <ele>598.2</ele>
        <time>2025-09-20T09:25:34Z</time>
      </trkpt>
      <trkpt lat="46.2034" lon="4.60111">
        <ele>598.4</ele>
        <time>2025-09-20T09:25:35Z</time>
      </trkpt>
      <trkpt lat="46.20338" lon="4.60111">
        <ele>598.8</ele>
        <time>2025-09-20T09:25:36Z</time>
      </trkpt>
      <trkpt lat="46.20336" lon="4.60112">
        <ele>598.8</ele>
        <time>2025-09-20T09:25:37Z</time>
      </trkpt>
      <trkpt lat="46.20334" lon="4.60112">
        <ele>599</ele>
        <time>2025-09-20T09:25:38Z</time>
      </trkpt>
      <trkpt lat="46.20333" lon="4.60113">
        <ele>599</ele>
        <time>2025-09-20T09:25:39Z</time>
      </trkpt>
      <trkpt lat="46.20331" lon="4.60114">
        <ele>599.4</ele>
        <time>2025-09-20T09:25:40Z</time>
      </trkpt>
      <trkpt lat="46.20329" lon="4.60115">
        <ele>599.6</ele>
        <time>2025-09-20T09:25:41Z</time>
      </trkpt>
      <trkpt lat="46.20328" lon="4.60116">
        <ele>599.8</ele>
        <time>2025-09-20T09:25:42Z</time>
      </trkpt>
      <trkpt lat="46.20326" lon="4.60116">
        <ele>600</ele>
        <time>2025-09-20T09:25:43Z</time>
      </trkpt>
      <trkpt lat="46.20324" lon="4.60117">
        <ele>600.4</ele>
        <time>2025-09-20T09:25:44Z</time>
      </trkpt>
      <trkpt lat="46.20322" lon="4.60118">
        <ele>600.4</ele>
        <time>2025-09-20T09:25:45Z</time>
      </trkpt>
      <trkpt lat="46.20321" lon="4.60119">
        <ele>600.6</ele>
        <time>2025-09-20T09:25:46Z</time>
      </trkpt>
      <trkpt lat="46.20319" lon="4.60121">
        <ele>601</ele>
        <time>2025-09-20T09:25:47Z</time>
      </trkpt>
      <trkpt lat="46.20318" lon="4.60122">
        <ele>601</ele>
        <time>2025-09-20T09:25:48Z</time>
      </trkpt>
      <trkpt lat="46.20316" lon="4.60124">
        <ele>601.2</ele>
        <time>2025-09-20T09:25:49Z</time>
      </trkpt>
      <trkpt lat="46.20314" lon="4.60125">
        <ele>601.2</ele>
        <time>2025-09-20T09:25:50Z</time>
      </trkpt>
      <trkpt lat="46.20313" lon="4.60126">
        <ele>601.2</ele>
        <time>2025-09-20T09:25:51Z</time>
      </trkpt>
      <trkpt lat="46.20311" lon="4.60127">
        <ele>601.2</ele>
        <time>2025-09-20T09:25:52Z</time>
      </trkpt>
      <trkpt lat="46.2031" lon="4.60129">
        <ele>601.6</ele>
        <time>2025-09-20T09:25:53Z</time>
      </trkpt>
      <trkpt lat="46.20308" lon="4.60131">
        <ele>601.6</ele>
        <time>2025-09-20T09:25:54Z</time>
      </trkpt>
      <trkpt lat="46.20306" lon="4.60133">
        <ele>601.6</ele>
        <time>2025-09-20T09:25:55Z</time>
      </trkpt>
      <trkpt lat="46.20305" lon="4.60135">
        <ele>602</ele>
        <time>2025-09-20T09:25:56Z</time>
      </trkpt>
      <trkpt lat="46.20303" lon="4.60137">
        <ele>602</ele>
        <time>2025-09-20T09:25:57Z</time>
      </trkpt>
      <trkpt lat="46.20302" lon="4.60139">
        <ele>602.4</ele>
        <time>2025-09-20T09:25:58Z</time>
      </trkpt>
      <trkpt lat="46.203" lon="4.60141">
        <ele>602.8</ele>
        <time>2025-09-20T09:25:59Z</time>
      </trkpt>
      <trkpt lat="46.20299" lon="4.60142">
        <ele>602.4</ele>
        <time>2025-09-20T09:26:00Z</time>
      </trkpt>
      <trkpt lat="46.20297" lon="4.60144">
        <ele>602.8</ele>
        <time>2025-09-20T09:26:01Z</time>
      </trkpt>
      <trkpt lat="46.20295" lon="4.60146">
        <ele>602.8</ele>
        <time>2025-09-20T09:26:02Z</time>
      </trkpt>
      <trkpt lat="46.20294" lon="4.60148">
        <ele>603</ele>
        <time>2025-09-20T09:26:03Z</time>
      </trkpt>
      <trkpt lat="46.20292" lon="4.60149">
        <ele>603.2</ele>
        <time>2025-09-20T09:26:04Z</time>
      </trkpt>
      <trkpt lat="46.20291" lon="4.60151">
        <ele>603.4</ele>
        <time>2025-09-20T09:26:05Z</time>
      </trkpt>
      <trkpt lat="46.20289" lon="4.60152">
        <ele>603.8</ele>
        <time>2025-09-20T09:26:06Z</time>
      </trkpt>
      <trkpt lat="46.20288" lon="4.60155">
        <ele>603.8</ele>
        <time>2025-09-20T09:26:07Z</time>
      </trkpt>
      <trkpt lat="46.20286" lon="4.60157">
        <ele>603.8</ele>
        <time>2025-09-20T09:26:08Z</time>
      </trkpt>
      <trkpt lat="46.20285" lon="4.60159">
        <ele>603.8</ele>
        <time>2025-09-20T09:26:09Z</time>
      </trkpt>
      <trkpt lat="46.20283" lon="4.60161">
        <ele>603.8</ele>
        <time>2025-09-20T09:26:10Z</time>
      </trkpt>
      <trkpt lat="46.20282" lon="4.60163">
        <ele>604</ele>
        <time>2025-09-20T09:26:11Z</time>
      </trkpt>
      <trkpt lat="46.2028" lon="4.60164">
        <ele>604</ele>
        <time>2025-09-20T09:26:12Z</time>
      </trkpt>
      <trkpt lat="46.2028" lon="4.60164">
        <ele>604.2</ele>
        <time>2025-09-20T09:26:13Z</time>
      </trkpt>
      <trkpt lat="46.20279" lon="4.60166">
        <ele>604.2</ele>
        <time>2025-09-20T09:26:14Z</time>
      </trkpt>
      <trkpt lat="46.20278" lon="4.60168">
        <ele>604.4</ele>
        <time>2025-09-20T09:26:15Z</time>
      </trkpt>
      <trkpt lat="46.20276" lon="4.6017">
        <ele>604.4</ele>
        <time>2025-09-20T09:26:16Z</time>
      </trkpt>
      <trkpt lat="46.20275" lon="4.60172">
        <ele>604.6</ele>
        <time>2025-09-20T09:26:17Z</time>
      </trkpt>
      <trkpt lat="46.20274" lon="4.60174">
        <ele>604.6</ele>
        <time>2025-09-20T09:26:18Z</time>
      </trkpt>
      <trkpt lat="46.20273" lon="4.60176">
        <ele>604.6</ele>
        <time>2025-09-20T09:26:19Z</time>
      </trkpt>
      <trkpt lat="46.20271" lon="4.60178">
        <ele>605</ele>
        <time>2025-09-20T09:26:20Z</time>
      </trkpt>
      <trkpt lat="46.2027" lon="4.60179">
        <ele>605</ele>
        <time>2025-09-20T09:26:21Z</time>
      </trkpt>
      <trkpt lat="46.20268" lon="4.60181">
        <ele>605.2</ele>
        <time>2025-09-20T09:26:22Z</time>
      </trkpt>
      <trkpt lat="46.20267" lon="4.60183">
        <ele>605.2</ele>
        <time>2025-09-20T09:26:23Z</time>
      </trkpt>
      <trkpt lat="46.20265" lon="4.60185">
        <ele>605.2</ele>
        <time>2025-09-20T09:26:24Z</time>
      </trkpt>
      <trkpt lat="46.20264" lon="4.60186">
        <ele>605.4</ele>
        <time>2025-09-20T09:26:25Z</time>
      </trkpt>
      <trkpt lat="46.20262" lon="4.60188">
        <ele>605.4</ele>
        <time>2025-09-20T09:26:26Z</time>
      </trkpt>
      <trkpt lat="46.20261" lon="4.6019">
        <ele>605.4</ele>
        <time>2025-09-20T09:26:27Z</time>
      </trkpt>
      <trkpt lat="46.2026" lon="4.60192">
        <ele>605.4</ele>
        <time>2025-09-20T09:26:28Z</time>
      </trkpt>
      <trkpt lat="46.20258" lon="4.60194">
        <ele>605.8</ele>
        <time>2025-09-20T09:26:29Z</time>
      </trkpt>
      <trkpt lat="46.20257" lon="4.60197">
        <ele>605.8</ele>
        <time>2025-09-20T09:26:30Z</time>
      </trkpt>
      <trkpt lat="46.20255" lon="4.60199">
        <ele>605.8</ele>
        <time>2025-09-20T09:26:31Z</time>
      </trkpt>
      <trkpt lat="46.20254" lon="4.60201">
        <ele>606</ele>
        <time>2025-09-20T09:26:32Z</time>
      </trkpt>
      <trkpt lat="46.20252" lon="4.60203">
        <ele>606</ele>
        <time>2025-09-20T09:26:33Z</time>
      </trkpt>
      <trkpt lat="46.20251" lon="4.60204">
        <ele>606.2</ele>
        <time>2025-09-20T09:26:34Z</time>
      </trkpt>
      <trkpt lat="46.20249" lon="4.60206">
        <ele>606.2</ele>
        <time>2025-09-20T09:26:35Z</time>
      </trkpt>
      <trkpt lat="46.20247" lon="4.60207">
        <ele>606.2</ele>
        <time>2025-09-20T09:26:36Z</time>
      </trkpt>
      <trkpt lat="46.20246" lon="4.60209">
        <ele>606.4</ele>
        <time>2025-09-20T09:26:37Z</time>
      </trkpt>
      <trkpt lat="46.20244" lon="4.60211">
        <ele>606.6</ele>
        <time>2025-09-20T09:26:38Z</time>
      </trkpt>
      <trkpt lat="46.20243" lon="4.60213">
        <ele>606.6</ele>
        <time>2025-09-20T09:26:39Z</time>
      </trkpt>
      <trkpt lat="46.20241" lon="4.60215">
        <ele>607</ele>
        <time>2025-09-20T09:26:40Z</time>
      </trkpt>
      <trkpt lat="46.2024" lon="4.60217">
        <ele>607</ele>
        <time>2025-09-20T09:26:41Z</time>
      </trkpt>
      <trkpt lat="46.20238" lon="4.60219">
        <ele>607</ele>
        <time>2025-09-20T09:26:42Z</time>
      </trkpt>
      <trkpt lat="46.20237" lon="4.60221">
        <ele>607</ele>
        <time>2025-09-20T09:26:43Z</time>
      </trkpt>
      <trkpt lat="46.20236" lon="4.60223">
        <ele>607</ele>
        <time>2025-09-20T09:26:44Z</time>
      </trkpt>
      <trkpt lat="46.20234" lon="4.60225">
        <ele>607.4</ele>
        <time>2025-09-20T09:26:45Z</time>
      </trkpt>
      <trkpt lat="46.20233" lon="4.60227">
        <ele>607.8</ele>
        <time>2025-09-20T09:26:46Z</time>
      </trkpt>
      <trkpt lat="46.20232" lon="4.60229">
        <ele>608</ele>
        <time>2025-09-20T09:26:47Z</time>
      </trkpt>
      <trkpt lat="46.2023" lon="4.60231">
        <ele>608.4</ele>
        <time>2025-09-20T09:26:48Z</time>
      </trkpt>
      <trkpt lat="46.20229" lon="4.60234">
        <ele>608.4</ele>
        <time>2025-09-20T09:26:49Z</time>
      </trkpt>
      <trkpt lat="46.20227" lon="4.60235">
        <ele>608.6</ele>
        <time>2025-09-20T09:26:50Z</time>
      </trkpt>
      <trkpt lat="46.20226" lon="4.60237">
        <ele>608.6</ele>
        <time>2025-09-20T09:26:51Z</time>
      </trkpt>
      <trkpt lat="46.20224" lon="4.6024">
        <ele>608.8</ele>
        <time>2025-09-20T09:26:52Z</time>
      </trkpt>
      <trkpt lat="46.20223" lon="4.60242">
        <ele>608.8</ele>
        <time>2025-09-20T09:26:53Z</time>
      </trkpt>
      <trkpt lat="46.20222" lon="4.60243">
        <ele>608.8</ele>
        <time>2025-09-20T09:26:54Z</time>
      </trkpt>
      <trkpt lat="46.2022" lon="4.60246">
        <ele>609</ele>
        <time>2025-09-20T09:26:55Z</time>
      </trkpt>
      <trkpt lat="46.20219" lon="4.60248">
        <ele>609</ele>
        <time>2025-09-20T09:26:56Z</time>
      </trkpt>
      <trkpt lat="46.20218" lon="4.6025">
        <ele>609</ele>
        <time>2025-09-20T09:26:57Z</time>
      </trkpt>
      <trkpt lat="46.20217" lon="4.60253">
        <ele>609</ele>
        <time>2025-09-20T09:26:58Z</time>
      </trkpt>
      <trkpt lat="46.20216" lon="4.60255">
        <ele>609</ele>
        <time>2025-09-20T09:26:59Z</time>
      </trkpt>
      <trkpt lat="46.20214" lon="4.60258">
        <ele>609</ele>
        <time>2025-09-20T09:27:00Z</time>
      </trkpt>
      <trkpt lat="46.20213" lon="4.6026">
        <ele>609.4</ele>
        <time>2025-09-20T09:27:01Z</time>
      </trkpt>
      <trkpt lat="46.20212" lon="4.60263">
        <ele>609.4</ele>
        <time>2025-09-20T09:27:02Z</time>
      </trkpt>
      <trkpt lat="46.2021" lon="4.60265">
        <ele>609.4</ele>
        <time>2025-09-20T09:27:03Z</time>
      </trkpt>
      <trkpt lat="46.20209" lon="4.60267">
        <ele>609.8</ele>
        <time>2025-09-20T09:27:04Z</time>
      </trkpt>
      <trkpt lat="46.20208" lon="4.6027">
        <ele>609.8</ele>
        <time>2025-09-20T09:27:05Z</time>
      </trkpt>
      <trkpt lat="46.20206" lon="4.60272">
        <ele>610.2</ele>
        <time>2025-09-20T09:27:06Z</time>
      </trkpt>
      <trkpt lat="46.20205" lon="4.60275">
        <ele>610.2</ele>
        <time>2025-09-20T09:27:07Z</time>
      </trkpt>
      <trkpt lat="46.20204" lon="4.60277">
        <ele>610.4</ele>
        <time>2025-09-20T09:27:08Z</time>
      </trkpt>
      <trkpt lat="46.20203" lon="4.60279">
        <ele>610.4</ele>
        <time>2025-09-20T09:27:09Z</time>
      </trkpt>
      <trkpt lat="46.20201" lon="4.60282">
        <ele>610.6</ele>
        <time>2025-09-20T09:27:10Z</time>
      </trkpt>
      <trkpt lat="46.202" lon="4.60284">
        <ele>610.6</ele>
        <time>2025-09-20T09:27:11Z</time>
      </trkpt>
      <trkpt lat="46.20199" lon="4.60286">
        <ele>610.6</ele>
        <time>2025-09-20T09:27:12Z</time>
      </trkpt>
      <trkpt lat="46.20197" lon="4.60289">
        <ele>611.2</ele>
        <time>2025-09-20T09:27:13Z</time>
      </trkpt>
      <trkpt lat="46.20196" lon="4.60291">
        <ele>611.2</ele>
        <time>2025-09-20T09:27:14Z</time>
      </trkpt>
      <trkpt lat="46.20195" lon="4.60294">
        <ele>611.6</ele>
        <time>2025-09-20T09:27:15Z</time>
      </trkpt>
      <trkpt lat="46.20194" lon="4.60298">
        <ele>611.8</ele>
        <time>2025-09-20T09:27:16Z</time>
      </trkpt>
      <trkpt lat="46.20192" lon="4.60301">
        <ele>611.8</ele>
        <time>2025-09-20T09:27:17Z</time>
      </trkpt>
      <trkpt lat="46.2019" lon="4.60304">
        <ele>612</ele>
        <time>2025-09-20T09:27:18Z</time>
      </trkpt>
      <trkpt lat="46.20189" lon="4.60307">
        <ele>612</ele>
        <time>2025-09-20T09:27:19Z</time>
      </trkpt>
      <trkpt lat="46.20187" lon="4.6031">
        <ele>612</ele>
        <time>2025-09-20T09:27:20Z</time>
      </trkpt>
      <trkpt lat="46.20185" lon="4.60313">
        <ele>612.4</ele>
        <time>2025-09-20T09:27:21Z</time>
      </trkpt>
      <trkpt lat="46.20184" lon="4.60316">
        <ele>612.4</ele>
        <time>2025-09-20T09:27:22Z</time>
      </trkpt>
      <trkpt lat="46.20182" lon="4.60319">
        <ele>612.8</ele>
        <time>2025-09-20T09:27:23Z</time>
      </trkpt>
      <trkpt lat="46.2018" lon="4.60323">
        <ele>612.8</ele>
        <time>2025-09-20T09:27:24Z</time>
      </trkpt>
      <trkpt lat="46.20178" lon="4.60326">
        <ele>613</ele>
        <time>2025-09-20T09:27:25Z</time>
      </trkpt>
      <trkpt lat="46.20177" lon="4.60329">
        <ele>613.4</ele>
        <time>2025-09-20T09:27:26Z</time>
      </trkpt>
      <trkpt lat="46.20175" lon="4.60332">
        <ele>613.4</ele>
        <time>2025-09-20T09:27:27Z</time>
      </trkpt>
      <trkpt lat="46.20174" lon="4.60336">
        <ele>613.6</ele>
        <time>2025-09-20T09:27:28Z</time>
      </trkpt>
      <trkpt lat="46.20172" lon="4.60339">
        <ele>613.6</ele>
        <time>2025-09-20T09:27:29Z</time>
      </trkpt>
      <trkpt lat="46.20172" lon="4.60339">
        <ele>613.6</ele>
        <time>2025-09-20T09:27:30Z</time>
      </trkpt>
      <trkpt lat="46.20172" lon="4.60339">
        <ele>613.8</ele>
        <time>2025-09-20T09:27:31Z</time>
      </trkpt>
      <trkpt lat="46.20165" lon="4.60351">
        <ele>614.4</ele>
        <time>2025-09-20T09:27:33Z</time>
      </trkpt>
      <trkpt lat="46.20164" lon="4.60354">
        <ele>614.4</ele>
        <time>2025-09-20T09:27:34Z</time>
      </trkpt>
      <trkpt lat="46.20162" lon="4.60357">
        <ele>614.6</ele>
        <time>2025-09-20T09:27:35Z</time>
      </trkpt>
      <trkpt lat="46.2016" lon="4.6036">
        <ele>614.6</ele>
        <time>2025-09-20T09:27:36Z</time>
      </trkpt>
      <trkpt lat="46.20159" lon="4.60363">
        <ele>615</ele>
        <time>2025-09-20T09:27:37Z</time>
      </trkpt>
      <trkpt lat="46.20157" lon="4.60366">
        <ele>615</ele>
        <time>2025-09-20T09:27:38Z</time>
      </trkpt>
      <trkpt lat="46.20156" lon="4.60369">
        <ele>615.4</ele>
        <time>2025-09-20T09:27:39Z</time>
      </trkpt>
      <trkpt lat="46.20154" lon="4.60372">
        <ele>615.4</ele>
        <time>2025-09-20T09:27:40Z</time>
      </trkpt>
      <trkpt lat="46.20152" lon="4.60374">
        <ele>615.4</ele>
        <time>2025-09-20T09:27:41Z</time>
      </trkpt>
      <trkpt lat="46.20151" lon="4.60377">
        <ele>615.6</ele>
        <time>2025-09-20T09:27:42Z</time>
      </trkpt>
      <trkpt lat="46.20149" lon="4.60379">
        <ele>615.6</ele>
        <time>2025-09-20T09:27:43Z</time>
      </trkpt>
      <trkpt lat="46.20148" lon="4.60383">
        <ele>615.8</ele>
        <time>2025-09-20T09:27:44Z</time>
      </trkpt>
      <trkpt lat="46.20147" lon="4.60386">
        <ele>615.8</ele>
        <time>2025-09-20T09:27:45Z</time>
      </trkpt>
      <trkpt lat="46.20146" lon="4.60388">
        <ele>616</ele>
        <time>2025-09-20T09:27:46Z</time>
      </trkpt>
      <trkpt lat="46.20144" lon="4.60391">
        <ele>616</ele>
        <time>2025-09-20T09:27:47Z</time>
      </trkpt>
      <trkpt lat="46.20143" lon="4.60394">
        <ele>616</ele>
        <time>2025-09-20T09:27:48Z</time>
      </trkpt>
      <trkpt lat="46.20141" lon="4.60397">
        <ele>616.4</ele>
        <time>2025-09-20T09:27:49Z</time>
      </trkpt>
      <trkpt lat="46.2014" lon="4.604">
        <ele>616.6</ele>
        <time>2025-09-20T09:27:50Z</time>
      </trkpt>
      <trkpt lat="46.20138" lon="4.60403">
        <ele>616.6</ele>
        <time>2025-09-20T09:27:51Z</time>
      </trkpt>
      <trkpt lat="46.20137" lon="4.60406">
        <ele>616.8</ele>
        <time>2025-09-20T09:27:52Z</time>
      </trkpt>
      <trkpt lat="46.20136" lon="4.60408">
        <ele>617</ele>
        <time>2025-09-20T09:27:53Z</time>
      </trkpt>
      <trkpt lat="46.20135" lon="4.60411">
        <ele>617</ele>
        <time>2025-09-20T09:27:54Z</time>
      </trkpt>
      <trkpt lat="46.20134" lon="4.60414">
        <ele>617.4</ele>
        <time>2025-09-20T09:27:55Z</time>
      </trkpt>
      <trkpt lat="46.20132" lon="4.60417">
        <ele>617.4</ele>
        <time>2025-09-20T09:27:56Z</time>
      </trkpt>
      <trkpt lat="46.20131" lon="4.6042">
        <ele>617.8</ele>
        <time>2025-09-20T09:27:57Z</time>
      </trkpt>
      <trkpt lat="46.2013" lon="4.60423">
        <ele>618.2</ele>
        <time>2025-09-20T09:27:58Z</time>
      </trkpt>
      <trkpt lat="46.20129" lon="4.60426">
        <ele>618.2</ele>
        <time>2025-09-20T09:27:59Z</time>
      </trkpt>
      <trkpt lat="46.20127" lon="4.6043">
        <ele>618.4</ele>
        <time>2025-09-20T09:28:00Z</time>
      </trkpt>
      <trkpt lat="46.20127" lon="4.6043">
        <ele>618.4</ele>
        <time>2025-09-20T09:28:01Z</time>
      </trkpt>
      <trkpt lat="46.20125" lon="4.60436">
        <ele>618.6</ele>
        <time>2025-09-20T09:28:02Z</time>
      </trkpt>
      <trkpt lat="46.20124" lon="4.6044">
        <ele>618.6</ele>
        <time>2025-09-20T09:28:03Z</time>
      </trkpt>
      <trkpt lat="46.20124" lon="4.60443">
        <ele>618.6</ele>
        <time>2025-09-20T09:28:04Z</time>
      </trkpt>
      <trkpt lat="46.20123" lon="4.60446">
        <ele>619</ele>
        <time>2025-09-20T09:28:05Z</time>
      </trkpt>
      <trkpt lat="46.20122" lon="4.60449">
        <ele>619</ele>
        <time>2025-09-20T09:28:06Z</time>
      </trkpt>
      <trkpt lat="46.20121" lon="4.60453">
        <ele>619</ele>
        <time>2025-09-20T09:28:07Z</time>
      </trkpt>
      <trkpt lat="46.2012" lon="4.60457">
        <ele>619</ele>
        <time>2025-09-20T09:28:08Z</time>
      </trkpt>
      <trkpt lat="46.2012" lon="4.6046">
        <ele>619</ele>
        <time>2025-09-20T09:28:09Z</time>
      </trkpt>
      <trkpt lat="46.20119" lon="4.60464">
        <ele>619</ele>
        <time>2025-09-20T09:28:10Z</time>
      </trkpt>
      <trkpt lat="46.20119" lon="4.60468">
        <ele>619.2</ele>
        <time>2025-09-20T09:28:11Z</time>
      </trkpt>
      <trkpt lat="46.20119" lon="4.60472">
        <ele>619.6</ele>
        <time>2025-09-20T09:28:12Z</time>
      </trkpt>
      <trkpt lat="46.20118" lon="4.60475">
        <ele>620</ele>
        <time>2025-09-20T09:28:13Z</time>
      </trkpt>
      <trkpt lat="46.20118" lon="4.60479">
        <ele>620.2</ele>
        <time>2025-09-20T09:28:14Z</time>
      </trkpt>
      <trkpt lat="46.20119" lon="4.60483">
        <ele>620.2</ele>
        <time>2025-09-20T09:28:15Z</time>
      </trkpt>
      <trkpt lat="46.20119" lon="4.60486">
        <ele>620.6</ele>
        <time>2025-09-20T09:28:16Z</time>
      </trkpt>
      <trkpt lat="46.20119" lon="4.6049">
        <ele>620.6</ele>
        <time>2025-09-20T09:28:17Z</time>
      </trkpt>
      <trkpt lat="46.20119" lon="4.60494">
        <ele>620.8</ele>
        <time>2025-09-20T09:28:18Z</time>
      </trkpt>
      <trkpt lat="46.20119" lon="4.60498">
        <ele>621</ele>
        <time>2025-09-20T09:28:19Z</time>
      </trkpt>
      <trkpt lat="46.2012" lon="4.60502">
        <ele>621.2</ele>
        <time>2025-09-20T09:28:20Z</time>
      </trkpt>
      <trkpt lat="46.2012" lon="4.60505">
        <ele>621.2</ele>
        <time>2025-09-20T09:28:21Z</time>
      </trkpt>
      <trkpt lat="46.20121" lon="4.60509">
        <ele>621.2</ele>
        <time>2025-09-20T09:28:22Z</time>
      </trkpt>
      <trkpt lat="46.20121" lon="4.60512">
        <ele>621.6</ele>
        <time>2025-09-20T09:28:23Z</time>
      </trkpt>
      <trkpt lat="46.20122" lon="4.60515">
        <ele>621.8</ele>
        <time>2025-09-20T09:28:24Z</time>
      </trkpt>
      <trkpt lat="46.20123" lon="4.60518">
        <ele>621.8</ele>
        <time>2025-09-20T09:28:25Z</time>
      </trkpt>
      <trkpt lat="46.20124" lon="4.60522">
        <ele>622.2</ele>
        <time>2025-09-20T09:28:26Z</time>
      </trkpt>
      <trkpt lat="46.20125" lon="4.60525">
        <ele>622.2</ele>
        <time>2025-09-20T09:28:27Z</time>
      </trkpt>
      <trkpt lat="46.20126" lon="4.60528">
        <ele>622.6</ele>
        <time>2025-09-20T09:28:28Z</time>
      </trkpt>
      <trkpt lat="46.20127" lon="4.60531">
        <ele>622.6</ele>
        <time>2025-09-20T09:28:29Z</time>
      </trkpt>
      <trkpt lat="46.20128" lon="4.60535">
        <ele>622.8</ele>
        <time>2025-09-20T09:28:30Z</time>
      </trkpt>
      <trkpt lat="46.20129" lon="4.60538">
        <ele>622.8</ele>
        <time>2025-09-20T09:28:31Z</time>
      </trkpt>
      <trkpt lat="46.20129" lon="4.60541">
        <ele>623.2</ele>
        <time>2025-09-20T09:28:32Z</time>
      </trkpt>
      <trkpt lat="46.2013" lon="4.60544">
        <ele>623.4</ele>
        <time>2025-09-20T09:28:33Z</time>
      </trkpt>
      <trkpt lat="46.20131" lon="4.60548">
        <ele>623.4</ele>
        <time>2025-09-20T09:28:34Z</time>
      </trkpt>
      <trkpt lat="46.20132" lon="4.60551">
        <ele>623.4</ele>
        <time>2025-09-20T09:28:35Z</time>
      </trkpt>
      <trkpt lat="46.20132" lon="4.60554">
        <ele>623.4</ele>
        <time>2025-09-20T09:28:36Z</time>
      </trkpt>
      <trkpt lat="46.20133" lon="4.60558">
        <ele>623.8</ele>
        <time>2025-09-20T09:28:37Z</time>
      </trkpt>
      <trkpt lat="46.20133" lon="4.60561">
        <ele>623.8</ele>
        <time>2025-09-20T09:28:38Z</time>
      </trkpt>
      <trkpt lat="46.20134" lon="4.60565">
        <ele>624.2</ele>
        <time>2025-09-20T09:28:39Z</time>
      </trkpt>
      <trkpt lat="46.20134" lon="4.60568">
        <ele>624.2</ele>
        <time>2025-09-20T09:28:40Z</time>
      </trkpt>
      <trkpt lat="46.20134" lon="4.60572">
        <ele>624.4</ele>
        <time>2025-09-20T09:28:41Z</time>
      </trkpt>
      <trkpt lat="46.20134" lon="4.60576">
        <ele>624.4</ele>
        <time>2025-09-20T09:28:42Z</time>
      </trkpt>
      <trkpt lat="46.20134" lon="4.60579">
        <ele>624.8</ele>
        <time>2025-09-20T09:28:43Z</time>
      </trkpt>
      <trkpt lat="46.20134" lon="4.60583">
        <ele>624.8</ele>
        <time>2025-09-20T09:28:44Z</time>
      </trkpt>
      <trkpt lat="46.20134" lon="4.60586">
        <ele>625</ele>
        <time>2025-09-20T09:28:45Z</time>
      </trkpt>
      <trkpt lat="46.20134" lon="4.6059">
        <ele>625</ele>
        <time>2025-09-20T09:28:46Z</time>
      </trkpt>
      <trkpt lat="46.20134" lon="4.60593">
        <ele>625.4</ele>
        <time>2025-09-20T09:28:47Z</time>
      </trkpt>
      <trkpt lat="46.20133" lon="4.60597">
        <ele>625.4</ele>
        <time>2025-09-20T09:28:48Z</time>
      </trkpt>
      <trkpt lat="46.20133" lon="4.60601">
        <ele>625.4</ele>
        <time>2025-09-20T09:28:49Z</time>
      </trkpt>
      <trkpt lat="46.20132" lon="4.60604">
        <ele>625.4</ele>
        <time>2025-09-20T09:28:50Z</time>
      </trkpt>
      <trkpt lat="46.20131" lon="4.60608">
        <ele>625.4</ele>
        <time>2025-09-20T09:28:51Z</time>
      </trkpt>
      <trkpt lat="46.20131" lon="4.60611">
        <ele>625.6</ele>
        <time>2025-09-20T09:28:52Z</time>
      </trkpt>
      <trkpt lat="46.2013" lon="4.60614">
        <ele>625.6</ele>
        <time>2025-09-20T09:28:53Z</time>
      </trkpt>
      <trkpt lat="46.20129" lon="4.60618">
        <ele>626</ele>
        <time>2025-09-20T09:28:54Z</time>
      </trkpt>
      <trkpt lat="46.20128" lon="4.60621">
        <ele>626.4</ele>
        <time>2025-09-20T09:28:55Z</time>
      </trkpt>
      <trkpt lat="46.20127" lon="4.60625">
        <ele>626.8</ele>
        <time>2025-09-20T09:28:56Z</time>
      </trkpt>
      <trkpt lat="46.20126" lon="4.60627">
        <ele>627</ele>
        <time>2025-09-20T09:28:57Z</time>
      </trkpt>
      <trkpt lat="46.20125" lon="4.6063">
        <ele>627.2</ele>
        <time>2025-09-20T09:28:58Z</time>
      </trkpt>
      <trkpt lat="46.20124" lon="4.60632">
        <ele>627.2</ele>
        <time>2025-09-20T09:28:59Z</time>
      </trkpt>
      <trkpt lat="46.20122" lon="4.60634">
        <ele>627.8</ele>
        <time>2025-09-20T09:29:00Z</time>
      </trkpt>
      <trkpt lat="46.20121" lon="4.60636">
        <ele>627.8</ele>
        <time>2025-09-20T09:29:01Z</time>
      </trkpt>
      <trkpt lat="46.2012" lon="4.60637">
        <ele>628</ele>
        <time>2025-09-20T09:29:02Z</time>
      </trkpt>
      <trkpt lat="46.2012" lon="4.60638">
        <ele>628</ele>
        <time>2025-09-20T09:29:03Z</time>
      </trkpt>
      <trkpt lat="46.2012" lon="4.60637">
        <ele>628</ele>
        <time>2025-09-20T09:29:04Z</time>
      </trkpt>
      <trkpt lat="46.20118" lon="4.6064">
        <ele>628.4</ele>
        <time>2025-09-20T09:30:48Z</time>
      </trkpt>
      <trkpt lat="46.20117" lon="4.60643">
        <ele>628.4</ele>
        <time>2025-09-20T09:30:49Z</time>
      </trkpt>
      <trkpt lat="46.20116" lon="4.60645">
        <ele>628.2</ele>
        <time>2025-09-20T09:30:50Z</time>
      </trkpt>
      <trkpt lat="46.20114" lon="4.60648">
        <ele>628.2</ele>
        <time>2025-09-20T09:30:51Z</time>
      </trkpt>
      <trkpt lat="46.20113" lon="4.6065">
        <ele>628.2</ele>
        <time>2025-09-20T09:30:52Z</time>
      </trkpt>
      <trkpt lat="46.20111" lon="4.60652">
        <ele>627.8</ele>
        <time>2025-09-20T09:30:53Z</time>
      </trkpt>
      <trkpt lat="46.20109" lon="4.60655">
        <ele>627.8</ele>
        <time>2025-09-20T09:30:54Z</time>
      </trkpt>
      <trkpt lat="46.20107" lon="4.60658">
        <ele>627.8</ele>
        <time>2025-09-20T09:30:55Z</time>
      </trkpt>
      <trkpt lat="46.20105" lon="4.60661">
        <ele>628.2</ele>
        <time>2025-09-20T09:30:56Z</time>
      </trkpt>
      <trkpt lat="46.20103" lon="4.60664">
        <ele>628.4</ele>
        <time>2025-09-20T09:30:57Z</time>
      </trkpt>
      <trkpt lat="46.20101" lon="4.60668">
        <ele>628.6</ele>
        <time>2025-09-20T09:30:58Z</time>
      </trkpt>
      <trkpt lat="46.20099" lon="4.60671">
        <ele>628.8</ele>
        <time>2025-09-20T09:30:59Z</time>
      </trkpt>
      <trkpt lat="46.20097" lon="4.60675">
        <ele>629</ele>
        <time>2025-09-20T09:31:00Z</time>
      </trkpt>
      <trkpt lat="46.20095" lon="4.60678">
        <ele>629.2</ele>
        <time>2025-09-20T09:31:01Z</time>
      </trkpt>
      <trkpt lat="46.20092" lon="4.60681">
        <ele>629.6</ele>
        <time>2025-09-20T09:31:02Z</time>
      </trkpt>
      <trkpt lat="46.2009" lon="4.60685">
        <ele>629.6</ele>
        <time>2025-09-20T09:31:03Z</time>
      </trkpt>
      <trkpt lat="46.20088" lon="4.60688">
        <ele>629.8</ele>
        <time>2025-09-20T09:31:04Z</time>
      </trkpt>
      <trkpt lat="46.20086" lon="4.60691">
        <ele>629.8</ele>
        <time>2025-09-20T09:31:05Z</time>
      </trkpt>
      <trkpt lat="46.20084" lon="4.60694">
        <ele>630.2</ele>
        <time>2025-09-20T09:31:06Z</time>
      </trkpt>
      <trkpt lat="46.20082" lon="4.60697">
        <ele>630.2</ele>
        <time>2025-09-20T09:31:07Z</time>
      </trkpt>
      <trkpt lat="46.20079" lon="4.60699">
        <ele>630.4</ele>
        <time>2025-09-20T09:31:08Z</time>
      </trkpt>
      <trkpt lat="46.20077" lon="4.60702">
        <ele>630.4</ele>
        <time>2025-09-20T09:31:09Z</time>
      </trkpt>
      <trkpt lat="46.20075" lon="4.60705">
        <ele>631</ele>
        <time>2025-09-20T09:31:10Z</time>
      </trkpt>
      <trkpt lat="46.20073" lon="4.60708">
        <ele>631</ele>
        <time>2025-09-20T09:31:11Z</time>
      </trkpt>
      <trkpt lat="46.20071" lon="4.60711">
        <ele>631.4</ele>
        <time>2025-09-20T09:31:12Z</time>
      </trkpt>
      <trkpt lat="46.20069" lon="4.60714">
        <ele>631.4</ele>
        <time>2025-09-20T09:31:13Z</time>
      </trkpt>
      <trkpt lat="46.20067" lon="4.60717">
        <ele>631.8</ele>
        <time>2025-09-20T09:31:14Z</time>
      </trkpt>
      <trkpt lat="46.20065" lon="4.6072">
        <ele>632</ele>
        <time>2025-09-20T09:31:15Z</time>
      </trkpt>
      <trkpt lat="46.20063" lon="4.60723">
        <ele>632</ele>
        <time>2025-09-20T09:31:16Z</time>
      </trkpt>
      <trkpt lat="46.20061" lon="4.60725">
        <ele>632.6</ele>
        <time>2025-09-20T09:31:17Z</time>
      </trkpt>
      <trkpt lat="46.20059" lon="4.60728">
        <ele>632.6</ele>
        <time>2025-09-20T09:31:18Z</time>
      </trkpt>
      <trkpt lat="46.20058" lon="4.6073">
        <ele>632.6</ele>
        <time>2025-09-20T09:31:19Z</time>
      </trkpt>
      <trkpt lat="46.20056" lon="4.60733">
        <ele>632.8</ele>
        <time>2025-09-20T09:31:20Z</time>
      </trkpt>
      <trkpt lat="46.20054" lon="4.60735">
        <ele>632.8</ele>
        <time>2025-09-20T09:31:21Z</time>
      </trkpt>
      <trkpt lat="46.20052" lon="4.60737">
        <ele>633</ele>
        <time>2025-09-20T09:31:22Z</time>
      </trkpt>
      <trkpt lat="46.20049" lon="4.60739">
        <ele>633</ele>
        <time>2025-09-20T09:31:23Z</time>
      </trkpt>
      <trkpt lat="46.20047" lon="4.60741">
        <ele>633.4</ele>
        <time>2025-09-20T09:31:24Z</time>
      </trkpt>
      <trkpt lat="46.20045" lon="4.60743">
        <ele>633.6</ele>
        <time>2025-09-20T09:31:25Z</time>
      </trkpt>
      <trkpt lat="46.20043" lon="4.60746">
        <ele>633.6</ele>
        <time>2025-09-20T09:31:26Z</time>
      </trkpt>
      <trkpt lat="46.2004" lon="4.60748">
        <ele>633.8</ele>
        <time>2025-09-20T09:31:27Z</time>
      </trkpt>
      <trkpt lat="46.20038" lon="4.6075">
        <ele>634</ele>
        <time>2025-09-20T09:31:28Z</time>
      </trkpt>
      <trkpt lat="46.20036" lon="4.60751">
        <ele>634</ele>
        <time>2025-09-20T09:31:29Z</time>
      </trkpt>
      <trkpt lat="46.20033" lon="4.60753">
        <ele>634.4</ele>
        <time>2025-09-20T09:31:30Z</time>
      </trkpt>
      <trkpt lat="46.20031" lon="4.60755">
        <ele>634.4</ele>
        <time>2025-09-20T09:31:31Z</time>
      </trkpt>
      <trkpt lat="46.20029" lon="4.60757">
        <ele>634.6</ele>
        <time>2025-09-20T09:31:32Z</time>
      </trkpt>
      <trkpt lat="46.20026" lon="4.60758">
        <ele>634.6</ele>
        <time>2025-09-20T09:31:33Z</time>
      </trkpt>
      <trkpt lat="46.20024" lon="4.6076">
        <ele>634.6</ele>
        <time>2025-09-20T09:31:34Z</time>
      </trkpt>
      <trkpt lat="46.20021" lon="4.60761">
        <ele>634.6</ele>
        <time>2025-09-20T09:31:35Z</time>
      </trkpt>
      <trkpt lat="46.2002" lon="4.60763">
        <ele>635</ele>
        <time>2025-09-20T09:31:36Z</time>
      </trkpt>
      <trkpt lat="46.20018" lon="4.60764">
        <ele>635</ele>
        <time>2025-09-20T09:31:37Z</time>
      </trkpt>
      <trkpt lat="46.20015" lon="4.60766">
        <ele>635.2</ele>
        <time>2025-09-20T09:31:38Z</time>
      </trkpt>
      <trkpt lat="46.20013" lon="4.60767">
        <ele>635.2</ele>
        <time>2025-09-20T09:31:39Z</time>
      </trkpt>
      <trkpt lat="46.20011" lon="4.60768">
        <ele>635.4</ele>
        <time>2025-09-20T09:31:40Z</time>
      </trkpt>
      <trkpt lat="46.20009" lon="4.6077">
        <ele>635.4</ele>
        <time>2025-09-20T09:31:41Z</time>
      </trkpt>
      <trkpt lat="46.20007" lon="4.60771">
        <ele>635.8</ele>
        <time>2025-09-20T09:31:42Z</time>
      </trkpt>
      <trkpt lat="46.20004" lon="4.60772">
        <ele>636.2</ele>
        <time>2025-09-20T09:31:43Z</time>
      </trkpt>
      <trkpt lat="46.20002" lon="4.60774">
        <ele>636.2</ele>
        <time>2025-09-20T09:31:44Z</time>
      </trkpt>
      <trkpt lat="46.2" lon="4.60775">
        <ele>636.6</ele>
        <time>2025-09-20T09:31:45Z</time>
      </trkpt>
      <trkpt lat="46.19998" lon="4.60776">
        <ele>636.8</ele>
        <time>2025-09-20T09:31:46Z</time>
      </trkpt>
      <trkpt lat="46.19996" lon="4.60776">
        <ele>637</ele>
        <time>2025-09-20T09:31:47Z</time>
      </trkpt>
      <trkpt lat="46.19994" lon="4.60777">
        <ele>637.2</ele>
        <time>2025-09-20T09:31:48Z</time>
      </trkpt>
      <trkpt lat="46.19992" lon="4.60778">
        <ele>637.6</ele>
        <time>2025-09-20T09:31:49Z</time>
      </trkpt>
      <trkpt lat="46.1999" lon="4.60779">
        <ele>637.8</ele>
        <time>2025-09-20T09:31:50Z</time>
      </trkpt>
      <trkpt lat="46.19989" lon="4.60779">
        <ele>637.8</ele>
        <time>2025-09-20T09:31:51Z</time>
      </trkpt>
      <trkpt lat="46.19986" lon="4.6078">
        <ele>638</ele>
        <time>2025-09-20T09:31:52Z</time>
      </trkpt>
      <trkpt lat="46.19984" lon="4.60781">
        <ele>638</ele>
        <time>2025-09-20T09:31:53Z</time>
      </trkpt>
      <trkpt lat="46.1998" lon="4.60782">
        <ele>638</ele>
        <time>2025-09-20T09:31:54Z</time>
      </trkpt>
      <trkpt lat="46.19978" lon="4.60783">
        <ele>638.4</ele>
        <time>2025-09-20T09:31:55Z</time>
      </trkpt>
      <trkpt lat="46.19976" lon="4.60783">
        <ele>638.4</ele>
        <time>2025-09-20T09:31:56Z</time>
      </trkpt>
      <trkpt lat="46.19974" lon="4.60784">
        <ele>638.6</ele>
        <time>2025-09-20T09:31:57Z</time>
      </trkpt>
      <trkpt lat="46.19971" lon="4.60786">
        <ele>638.6</ele>
        <time>2025-09-20T09:31:58Z</time>
      </trkpt>
      <trkpt lat="46.19969" lon="4.60787">
        <ele>639.2</ele>
        <time>2025-09-20T09:31:59Z</time>
      </trkpt>
      <trkpt lat="46.19967" lon="4.60788">
        <ele>639.4</ele>
        <time>2025-09-20T09:32:00Z</time>
      </trkpt>
      <trkpt lat="46.19965" lon="4.60789">
        <ele>639.4</ele>
        <time>2025-09-20T09:32:01Z</time>
      </trkpt>
      <trkpt lat="46.19963" lon="4.60791">
        <ele>639.6</ele>
        <time>2025-09-20T09:32:02Z</time>
      </trkpt>
      <trkpt lat="46.19961" lon="4.60793">
        <ele>639.8</ele>
        <time>2025-09-20T09:32:03Z</time>
      </trkpt>
      <trkpt lat="46.19959" lon="4.60794">
        <ele>639.8</ele>
        <time>2025-09-20T09:32:04Z</time>
      </trkpt>
      <trkpt lat="46.19957" lon="4.60796">
        <ele>639.8</ele>
        <time>2025-09-20T09:32:05Z</time>
      </trkpt>
      <trkpt lat="46.19956" lon="4.60797">
        <ele>640</ele>
        <time>2025-09-20T09:32:06Z</time>
      </trkpt>
      <trkpt lat="46.19954" lon="4.60799">
        <ele>640.4</ele>
        <time>2025-09-20T09:32:07Z</time>
      </trkpt>
      <trkpt lat="46.19952" lon="4.60801">
        <ele>640.4</ele>
        <time>2025-09-20T09:32:08Z</time>
      </trkpt>
      <trkpt lat="46.1995" lon="4.60802">
        <ele>640.4</ele>
        <time>2025-09-20T09:32:09Z</time>
      </trkpt>
      <trkpt lat="46.19949" lon="4.60804">
        <ele>640.6</ele>
        <time>2025-09-20T09:32:10Z</time>
      </trkpt>
      <trkpt lat="46.19947" lon="4.60806">
        <ele>640.6</ele>
        <time>2025-09-20T09:32:11Z</time>
      </trkpt>
      <trkpt lat="46.19945" lon="4.60808">
        <ele>640.6</ele>
        <time>2025-09-20T09:32:12Z</time>
      </trkpt>
      <trkpt lat="46.19943" lon="4.6081">
        <ele>640.6</ele>
        <time>2025-09-20T09:32:13Z</time>
      </trkpt>
      <trkpt lat="46.19941" lon="4.60812">
        <ele>641</ele>
        <time>2025-09-20T09:32:14Z</time>
      </trkpt>
      <trkpt lat="46.19939" lon="4.60814">
        <ele>641.2</ele>
        <time>2025-09-20T09:32:15Z</time>
      </trkpt>
      <trkpt lat="46.19938" lon="4.60816">
        <ele>641.2</ele>
        <time>2025-09-20T09:32:16Z</time>
      </trkpt>
      <trkpt lat="46.19936" lon="4.60818">
        <ele>641.6</ele>
        <time>2025-09-20T09:32:17Z</time>
      </trkpt>
      <trkpt lat="46.19934" lon="4.6082">
        <ele>641.6</ele>
        <time>2025-09-20T09:32:18Z</time>
      </trkpt>
      <trkpt lat="46.19932" lon="4.60822">
        <ele>641.6</ele>
        <time>2025-09-20T09:32:19Z</time>
      </trkpt>
      <trkpt lat="46.1993" lon="4.60823">
        <ele>642</ele>
        <time>2025-09-20T09:32:20Z</time>
      </trkpt>
      <trkpt lat="46.19928" lon="4.60825">
        <ele>642</ele>
        <time>2025-09-20T09:32:21Z</time>
      </trkpt>
      <trkpt lat="46.19926" lon="4.60827">
        <ele>642</ele>
        <time>2025-09-20T09:32:22Z</time>
      </trkpt>
      <trkpt lat="46.19923" lon="4.60829">
        <ele>642.2</ele>
        <time>2025-09-20T09:32:23Z</time>
      </trkpt>
      <trkpt lat="46.19921" lon="4.60831">
        <ele>642.6</ele>
        <time>2025-09-20T09:32:24Z</time>
      </trkpt>
      <trkpt lat="46.1992" lon="4.60833">
        <ele>643</ele>
        <time>2025-09-20T09:32:25Z</time>
      </trkpt>
      <trkpt lat="46.19918" lon="4.60835">
        <ele>643.2</ele>
        <time>2025-09-20T09:32:26Z</time>
      </trkpt>
      <trkpt lat="46.19916" lon="4.60837">
        <ele>643.2</ele>
        <time>2025-09-20T09:32:27Z</time>
      </trkpt>
      <trkpt lat="46.19914" lon="4.60839">
        <ele>643.6</ele>
        <time>2025-09-20T09:32:28Z</time>
      </trkpt>
      <trkpt lat="46.19912" lon="4.6084">
        <ele>643.6</ele>
        <time>2025-09-20T09:32:29Z</time>
      </trkpt>
      <trkpt lat="46.1991" lon="4.60842">
        <ele>643.6</ele>
        <time>2025-09-20T09:32:30Z</time>
      </trkpt>
      <trkpt lat="46.19908" lon="4.60843">
        <ele>643.8</ele>
        <time>2025-09-20T09:32:31Z</time>
      </trkpt>
      <trkpt lat="46.19906" lon="4.60845">
        <ele>643.8</ele>
        <time>2025-09-20T09:32:32Z</time>
      </trkpt>
      <trkpt lat="46.19904" lon="4.60846">
        <ele>643.8</ele>
        <time>2025-09-20T09:32:33Z</time>
      </trkpt>
      <trkpt lat="46.19903" lon="4.60848">
        <ele>644.2</ele>
        <time>2025-09-20T09:32:34Z</time>
      </trkpt>
      <trkpt lat="46.19901" lon="4.6085">
        <ele>644.2</ele>
        <time>2025-09-20T09:32:35Z</time>
      </trkpt>
      <trkpt lat="46.199" lon="4.60851">
        <ele>644.6</ele>
        <time>2025-09-20T09:32:36Z</time>
      </trkpt>
      <trkpt lat="46.19898" lon="4.60853">
        <ele>644.6</ele>
        <time>2025-09-20T09:32:37Z</time>
      </trkpt>
      <trkpt lat="46.19896" lon="4.60855">
        <ele>644.8</ele>
        <time>2025-09-20T09:32:38Z</time>
      </trkpt>
      <trkpt lat="46.19894" lon="4.60856">
        <ele>644.8</ele>
        <time>2025-09-20T09:32:39Z</time>
      </trkpt>
      <trkpt lat="46.19892" lon="4.60858">
        <ele>644.8</ele>
        <time>2025-09-20T09:32:40Z</time>
      </trkpt>
      <trkpt lat="46.1989" lon="4.6086">
        <ele>645</ele>
        <time>2025-09-20T09:32:41Z</time>
      </trkpt>
      <trkpt lat="46.19889" lon="4.60862">
        <ele>645</ele>
        <time>2025-09-20T09:32:42Z</time>
      </trkpt>
      <trkpt lat="46.19887" lon="4.60863">
        <ele>645</ele>
        <time>2025-09-20T09:32:43Z</time>
      </trkpt>
      <trkpt lat="46.19885" lon="4.60865">
        <ele>645.4</ele>
        <time>2025-09-20T09:32:44Z</time>
      </trkpt>
      <trkpt lat="46.19884" lon="4.60866">
        <ele>645.6</ele>
        <time>2025-09-20T09:32:45Z</time>
      </trkpt>
      <trkpt lat="46.19882" lon="4.60868">
        <ele>645.6</ele>
        <time>2025-09-20T09:32:46Z</time>
      </trkpt>
      <trkpt lat="46.1988" lon="4.60869">
        <ele>645.6</ele>
        <time>2025-09-20T09:32:47Z</time>
      </trkpt>
      <trkpt lat="46.19878" lon="4.60871">
        <ele>645.6</ele>
        <time>2025-09-20T09:32:48Z</time>
      </trkpt>
      <trkpt lat="46.19877" lon="4.60873">
        <ele>645.8</ele>
        <time>2025-09-20T09:32:49Z</time>
      </trkpt>
      <trkpt lat="46.19875" lon="4.60875">
        <ele>645.8</ele>
        <time>2025-09-20T09:32:50Z</time>
      </trkpt>
      <trkpt lat="46.19874" lon="4.60877">
        <ele>646.2</ele>
        <time>2025-09-20T09:32:51Z</time>
      </trkpt>
      <trkpt lat="46.19872" lon="4.60878">
        <ele>646.2</ele>
        <time>2025-09-20T09:32:52Z</time>
      </trkpt>
      <trkpt lat="46.1987" lon="4.6088">
        <ele>646.2</ele>
        <time>2025-09-20T09:32:53Z</time>
      </trkpt>
      <trkpt lat="46.19868" lon="4.60881">
        <ele>646.6</ele>
        <time>2025-09-20T09:32:54Z</time>
      </trkpt>
      <trkpt lat="46.19867" lon="4.60883">
        <ele>646.6</ele>
        <time>2025-09-20T09:32:55Z</time>
      </trkpt>
      <trkpt lat="46.19865" lon="4.60886">
        <ele>646.6</ele>
        <time>2025-09-20T09:32:56Z</time>
      </trkpt>
      <trkpt lat="46.19864" lon="4.60888">
        <ele>647</ele>
        <time>2025-09-20T09:32:57Z</time>
      </trkpt>
      <trkpt lat="46.19862" lon="4.60891">
        <ele>647</ele>
        <time>2025-09-20T09:32:58Z</time>
      </trkpt>
      <trkpt lat="46.1986" lon="4.60893">
        <ele>647</ele>
        <time>2025-09-20T09:32:59Z</time>
      </trkpt>
      <trkpt lat="46.19859" lon="4.60895">
        <ele>647</ele>
        <time>2025-09-20T09:33:00Z</time>
      </trkpt>
      <trkpt lat="46.19858" lon="4.60898">
        <ele>647</ele>
        <time>2025-09-20T09:33:01Z</time>
      </trkpt>
      <trkpt lat="46.19856" lon="4.609">
        <ele>647.2</ele>
        <time>2025-09-20T09:33:02Z</time>
      </trkpt>
      <trkpt lat="46.19855" lon="4.60903">
        <ele>647.2</ele>
        <time>2025-09-20T09:33:03Z</time>
      </trkpt>
      <trkpt lat="46.19853" lon="4.60905">
        <ele>647.2</ele>
        <time>2025-09-20T09:33:04Z</time>
      </trkpt>
      <trkpt lat="46.19853" lon="4.60905">
        <ele>647.2</ele>
        <time>2025-09-20T09:33:05Z</time>
      </trkpt>
      <trkpt lat="46.19852" lon="4.60908">
        <ele>647.6</ele>
        <time>2025-09-20T09:33:06Z</time>
      </trkpt>
      <trkpt lat="46.19851" lon="4.6091">
        <ele>648</ele>
        <time>2025-09-20T09:33:07Z</time>
      </trkpt>
      <trkpt lat="46.19849" lon="4.60913">
        <ele>648</ele>
        <time>2025-09-20T09:33:08Z</time>
      </trkpt>
      <trkpt lat="46.19848" lon="4.60916">
        <ele>648</ele>
        <time>2025-09-20T09:33:09Z</time>
      </trkpt>
      <trkpt lat="46.19847" lon="4.60918">
        <ele>648.2</ele>
        <time>2025-09-20T09:33:10Z</time>
      </trkpt>
      <trkpt lat="46.19845" lon="4.6092">
        <ele>648.2</ele>
        <time>2025-09-20T09:33:11Z</time>
      </trkpt>
      <trkpt lat="46.19844" lon="4.60923">
        <ele>648.8</ele>
        <time>2025-09-20T09:33:12Z</time>
      </trkpt>
      <trkpt lat="46.19843" lon="4.60926">
        <ele>648.8</ele>
        <time>2025-09-20T09:33:13Z</time>
      </trkpt>
      <trkpt lat="46.19841" lon="4.60929">
        <ele>649.2</ele>
        <time>2025-09-20T09:33:14Z</time>
      </trkpt>
      <trkpt lat="46.1984" lon="4.60931">
        <ele>649.2</ele>
        <time>2025-09-20T09:33:15Z</time>
      </trkpt>
      <trkpt lat="46.19838" lon="4.60934">
        <ele>649.4</ele>
        <time>2025-09-20T09:33:16Z</time>
      </trkpt>
      <trkpt lat="46.19837" lon="4.60937">
        <ele>649.4</ele>
        <time>2025-09-20T09:33:17Z</time>
      </trkpt>
      <trkpt lat="46.19836" lon="4.6094">
        <ele>649.6</ele>
        <time>2025-09-20T09:33:18Z</time>
      </trkpt>
      <trkpt lat="46.19834" lon="4.60942">
        <ele>649.6</ele>
        <time>2025-09-20T09:33:19Z</time>
      </trkpt>
      <trkpt lat="46.19833" lon="4.60945">
        <ele>649.6</ele>
        <time>2025-09-20T09:33:20Z</time>
      </trkpt>
      <trkpt lat="46.19832" lon="4.60948">
        <ele>649.8</ele>
        <time>2025-09-20T09:33:21Z</time>
      </trkpt>
      <trkpt lat="46.19831" lon="4.6095">
        <ele>650.2</ele>
        <time>2025-09-20T09:33:22Z</time>
      </trkpt>
      <trkpt lat="46.1983" lon="4.60953">
        <ele>650.2</ele>
        <time>2025-09-20T09:33:23Z</time>
      </trkpt>
      <trkpt lat="46.19828" lon="4.60956">
        <ele>650.4</ele>
        <time>2025-09-20T09:33:24Z</time>
      </trkpt>
      <trkpt lat="46.19827" lon="4.60958">
        <ele>650.4</ele>
        <time>2025-09-20T09:33:25Z</time>
      </trkpt>
      <trkpt lat="46.19826" lon="4.6096">
        <ele>650.4</ele>
        <time>2025-09-20T09:33:26Z</time>
      </trkpt>
      <trkpt lat="46.19824" lon="4.60962">
        <ele>650.4</ele>
        <time>2025-09-20T09:33:27Z</time>
      </trkpt>
      <trkpt lat="46.19823" lon="4.60965">
        <ele>650.4</ele>
        <time>2025-09-20T09:33:28Z</time>
      </trkpt>
      <trkpt lat="46.19822" lon="4.60968">
        <ele>650.4</ele>
        <time>2025-09-20T09:33:29Z</time>
      </trkpt>
      <trkpt lat="46.19821" lon="4.6097">
        <ele>650.8</ele>
        <time>2025-09-20T09:33:30Z</time>
      </trkpt>
      <trkpt lat="46.1982" lon="4.60973">
        <ele>651.2</ele>
        <time>2025-09-20T09:33:31Z</time>
      </trkpt>
      <trkpt lat="46.19818" lon="4.60975">
        <ele>651.4</ele>
        <time>2025-09-20T09:33:32Z</time>
      </trkpt>
      <trkpt lat="46.19817" lon="4.60978">
        <ele>651.6</ele>
        <time>2025-09-20T09:33:33Z</time>
      </trkpt>
      <trkpt lat="46.19816" lon="4.6098">
        <ele>651.6</ele>
        <time>2025-09-20T09:33:34Z</time>
      </trkpt>
      <trkpt lat="46.19814" lon="4.60982">
        <ele>651.6</ele>
        <time>2025-09-20T09:33:35Z</time>
      </trkpt>
      <trkpt lat="46.19813" lon="4.60985">
        <ele>651.6</ele>
        <time>2025-09-20T09:33:36Z</time>
      </trkpt>
      <trkpt lat="46.19812" lon="4.60987">
        <ele>651.6</ele>
        <time>2025-09-20T09:33:37Z</time>
      </trkpt>
      <trkpt lat="46.19811" lon="4.6099">
        <ele>651.6</ele>
        <time>2025-09-20T09:33:38Z</time>
      </trkpt>
      <trkpt lat="46.19809" lon="4.60992">
        <ele>651.8</ele>
        <time>2025-09-20T09:33:39Z</time>
      </trkpt>
      <trkpt lat="46.19808" lon="4.60994">
        <ele>652</ele>
        <time>2025-09-20T09:33:40Z</time>
      </trkpt>
      <trkpt lat="46.19807" lon="4.60996">
        <ele>652</ele>
        <time>2025-09-20T09:33:41Z</time>
      </trkpt>
      <trkpt lat="46.19805" lon="4.60999">
        <ele>652.2</ele>
        <time>2025-09-20T09:33:42Z</time>
      </trkpt>
      <trkpt lat="46.19804" lon="4.61001">
        <ele>652.2</ele>
        <time>2025-09-20T09:33:43Z</time>
      </trkpt>
      <trkpt lat="46.19802" lon="4.61003">
        <ele>652.4</ele>
        <time>2025-09-20T09:33:44Z</time>
      </trkpt>
      <trkpt lat="46.19801" lon="4.61005">
        <ele>652.4</ele>
        <time>2025-09-20T09:33:45Z</time>
      </trkpt>
      <trkpt lat="46.198" lon="4.61007">
        <ele>652.4</ele>
        <time>2025-09-20T09:33:46Z</time>
      </trkpt>
      <trkpt lat="46.19798" lon="4.61009">
        <ele>652.8</ele>
        <time>2025-09-20T09:33:47Z</time>
      </trkpt>
      <trkpt lat="46.19797" lon="4.61012">
        <ele>652.8</ele>
        <time>2025-09-20T09:33:48Z</time>
      </trkpt>
      <trkpt lat="46.19795" lon="4.61014">
        <ele>652.8</ele>
        <time>2025-09-20T09:33:49Z</time>
      </trkpt>
      <trkpt lat="46.19794" lon="4.61016">
        <ele>653</ele>
        <time>2025-09-20T09:33:50Z</time>
      </trkpt>
      <trkpt lat="46.19792" lon="4.61018">
        <ele>653</ele>
        <time>2025-09-20T09:33:51Z</time>
      </trkpt>
      <trkpt lat="46.19791" lon="4.6102">
        <ele>653.4</ele>
        <time>2025-09-20T09:33:52Z</time>
      </trkpt>
      <trkpt lat="46.19789" lon="4.61022">
        <ele>653.4</ele>
        <time>2025-09-20T09:33:53Z</time>
      </trkpt>
      <trkpt lat="46.19787" lon="4.61024">
        <ele>653.6</ele>
        <time>2025-09-20T09:33:54Z</time>
      </trkpt>
      <trkpt lat="46.19786" lon="4.61026">
        <ele>653.8</ele>
        <time>2025-09-20T09:33:55Z</time>
      </trkpt>
      <trkpt lat="46.19784" lon="4.61029">
        <ele>653.8</ele>
        <time>2025-09-20T09:33:56Z</time>
      </trkpt>
      <trkpt lat="46.19783" lon="4.61031">
        <ele>654.2</ele>
        <time>2025-09-20T09:33:57Z</time>
      </trkpt>
      <trkpt lat="46.19781" lon="4.61033">
        <ele>654.2</ele>
        <time>2025-09-20T09:33:58Z</time>
      </trkpt>
      <trkpt lat="46.19779" lon="4.61035">
        <ele>654.6</ele>
        <time>2025-09-20T09:33:59Z</time>
      </trkpt>
      <trkpt lat="46.19777" lon="4.61036">
        <ele>654.8</ele>
        <time>2025-09-20T09:34:00Z</time>
      </trkpt>
      <trkpt lat="46.19775" lon="4.61038">
        <ele>655</ele>
        <time>2025-09-20T09:34:01Z</time>
      </trkpt>
      <trkpt lat="46.19773" lon="4.61039">
        <ele>655.2</ele>
        <time>2025-09-20T09:34:02Z</time>
      </trkpt>
      <trkpt lat="46.19771" lon="4.61041">
        <ele>655.2</ele>
        <time>2025-09-20T09:34:03Z</time>
      </trkpt>
      <trkpt lat="46.1977" lon="4.61043">
        <ele>655.2</ele>
        <time>2025-09-20T09:34:04Z</time>
      </trkpt>
      <trkpt lat="46.19768" lon="4.61045">
        <ele>655.6</ele>
        <time>2025-09-20T09:34:05Z</time>
      </trkpt>
      <trkpt lat="46.19766" lon="4.61046">
        <ele>655.6</ele>
        <time>2025-09-20T09:34:06Z</time>
      </trkpt>
      <trkpt lat="46.19764" lon="4.61048">
        <ele>655.6</ele>
        <time>2025-09-20T09:34:07Z</time>
      </trkpt>
      <trkpt lat="46.19762" lon="4.61049">
        <ele>655.8</ele>
        <time>2025-09-20T09:34:08Z</time>
      </trkpt>
      <trkpt lat="46.1976" lon="4.61051">
        <ele>656</ele>
        <time>2025-09-20T09:34:09Z</time>
      </trkpt>
      <trkpt lat="46.19758" lon="4.61052">
        <ele>656</ele>
        <time>2025-09-20T09:34:10Z</time>
      </trkpt>
      <trkpt lat="46.19756" lon="4.61054">
        <ele>656.4</ele>
        <time>2025-09-20T09:34:11Z</time>
      </trkpt>
      <trkpt lat="46.19754" lon="4.61055">
        <ele>656.4</ele>
        <time>2025-09-20T09:34:12Z</time>
      </trkpt>
      <trkpt lat="46.19752" lon="4.61057">
        <ele>656.8</ele>
        <time>2025-09-20T09:34:13Z</time>
      </trkpt>
      <trkpt lat="46.1975" lon="4.61058">
        <ele>656.8</ele>
        <time>2025-09-20T09:34:14Z</time>
      </trkpt>
      <trkpt lat="46.19748" lon="4.61059">
        <ele>657</ele>
        <time>2025-09-20T09:34:15Z</time>
      </trkpt>
      <trkpt lat="46.19745" lon="4.61061">
        <ele>657.2</ele>
        <time>2025-09-20T09:34:16Z</time>
      </trkpt>
      <trkpt lat="46.19743" lon="4.61062">
        <ele>657.2</ele>
        <time>2025-09-20T09:34:17Z</time>
      </trkpt>
      <trkpt lat="46.19741" lon="4.61063">
        <ele>657.6</ele>
        <time>2025-09-20T09:34:18Z</time>
      </trkpt>
      <trkpt lat="46.19739" lon="4.61064">
        <ele>657.6</ele>
        <time>2025-09-20T09:34:19Z</time>
      </trkpt>
      <trkpt lat="46.19737" lon="4.61065">
        <ele>657.6</ele>
        <time>2025-09-20T09:34:20Z</time>
      </trkpt>
      <trkpt lat="46.19735" lon="4.61066">
        <ele>657.8</ele>
        <time>2025-09-20T09:34:21Z</time>
      </trkpt>
      <trkpt lat="46.19733" lon="4.61067">
        <ele>657.8</ele>
        <time>2025-09-20T09:34:22Z</time>
      </trkpt>
      <trkpt lat="46.19731" lon="4.61067">
        <ele>657.8</ele>
        <time>2025-09-20T09:34:23Z</time>
      </trkpt>
      <trkpt lat="46.19729" lon="4.61068">
        <ele>658</ele>
        <time>2025-09-20T09:34:24Z</time>
      </trkpt>
      <trkpt lat="46.19727" lon="4.6107">
        <ele>658</ele>
        <time>2025-09-20T09:34:25Z</time>
      </trkpt>
      <trkpt lat="46.19725" lon="4.6107">
        <ele>658.4</ele>
        <time>2025-09-20T09:34:26Z</time>
      </trkpt>
      <trkpt lat="46.19723" lon="4.61071">
        <ele>658.4</ele>
        <time>2025-09-20T09:34:27Z</time>
      </trkpt>
      <trkpt lat="46.19721" lon="4.61072">
        <ele>658.4</ele>
        <time>2025-09-20T09:34:28Z</time>
      </trkpt>
      <trkpt lat="46.1972" lon="4.61072">
        <ele>658.4</ele>
        <time>2025-09-20T09:34:29Z</time>
      </trkpt>
      <trkpt lat="46.19718" lon="4.61073">
        <ele>658.6</ele>
        <time>2025-09-20T09:34:30Z</time>
      </trkpt>
      <trkpt lat="46.19716" lon="4.61073">
        <ele>658.6</ele>
        <time>2025-09-20T09:34:31Z</time>
      </trkpt>
      <trkpt lat="46.19714" lon="4.61074">
        <ele>658.6</ele>
        <time>2025-09-20T09:34:32Z</time>
      </trkpt>
      <trkpt lat="46.19711" lon="4.61075">
        <ele>658.8</ele>
        <time>2025-09-20T09:34:33Z</time>
      </trkpt>
      <trkpt lat="46.19709" lon="4.61075">
        <ele>659.2</ele>
        <time>2025-09-20T09:34:34Z</time>
      </trkpt>
      <trkpt lat="46.19707" lon="4.61076">
        <ele>659.2</ele>
        <time>2025-09-20T09:34:35Z</time>
      </trkpt>
      <trkpt lat="46.19705" lon="4.61077">
        <ele>659.4</ele>
        <time>2025-09-20T09:34:36Z</time>
      </trkpt>
      <trkpt lat="46.19702" lon="4.61077">
        <ele>659.4</ele>
        <time>2025-09-20T09:34:37Z</time>
      </trkpt>
      <trkpt lat="46.197" lon="4.61078">
        <ele>659.6</ele>
        <time>2025-09-20T09:34:38Z</time>
      </trkpt>
      <trkpt lat="46.19698" lon="4.61079">
        <ele>659.6</ele>
        <time>2025-09-20T09:34:39Z</time>
      </trkpt>
      <trkpt lat="46.19696" lon="4.61079">
        <ele>659.6</ele>
        <time>2025-09-20T09:34:40Z</time>
      </trkpt>
      <trkpt lat="46.19693" lon="4.6108">
        <ele>659.8</ele>
        <time>2025-09-20T09:34:41Z</time>
      </trkpt>
      <trkpt lat="46.19691" lon="4.61081">
        <ele>659.8</ele>
        <time>2025-09-20T09:34:42Z</time>
      </trkpt>
      <trkpt lat="46.19689" lon="4.61081">
        <ele>660.2</ele>
        <time>2025-09-20T09:34:43Z</time>
      </trkpt>
      <trkpt lat="46.19687" lon="4.61082">
        <ele>660.2</ele>
        <time>2025-09-20T09:34:44Z</time>
      </trkpt>
      <trkpt lat="46.19685" lon="4.61083">
        <ele>660.2</ele>
        <time>2025-09-20T09:34:45Z</time>
      </trkpt>
      <trkpt lat="46.19682" lon="4.61083">
        <ele>660.4</ele>
        <time>2025-09-20T09:34:46Z</time>
      </trkpt>
      <trkpt lat="46.1968" lon="4.61084">
        <ele>660.6</ele>
        <time>2025-09-20T09:34:47Z</time>
      </trkpt>
      <trkpt lat="46.19678" lon="4.61084">
        <ele>660.6</ele>
        <time>2025-09-20T09:34:48Z</time>
      </trkpt>
      <trkpt lat="46.19676" lon="4.61084">
        <ele>661</ele>
        <time>2025-09-20T09:34:49Z</time>
      </trkpt>
      <trkpt lat="46.19673" lon="4.61085">
        <ele>661</ele>
        <time>2025-09-20T09:34:50Z</time>
      </trkpt>
      <trkpt lat="46.19671" lon="4.61086">
        <ele>661</ele>
        <time>2025-09-20T09:34:51Z</time>
      </trkpt>
      <trkpt lat="46.19667" lon="4.61087">
        <ele>661.2</ele>
        <time>2025-09-20T09:34:52Z</time>
      </trkpt>
      <trkpt lat="46.19664" lon="4.61087">
        <ele>661.2</ele>
        <time>2025-09-20T09:34:53Z</time>
      </trkpt>
      <trkpt lat="46.19663" lon="4.61087">
        <ele>661.4</ele>
        <time>2025-09-20T09:34:54Z</time>
      </trkpt>
      <trkpt lat="46.19661" lon="4.61087">
        <ele>661.4</ele>
        <time>2025-09-20T09:34:55Z</time>
      </trkpt>
      <trkpt lat="46.19659" lon="4.61087">
        <ele>661.6</ele>
        <time>2025-09-20T09:34:56Z</time>
      </trkpt>
      <trkpt lat="46.19656" lon="4.61087">
        <ele>661.6</ele>
        <time>2025-09-20T09:34:57Z</time>
      </trkpt>
      <trkpt lat="46.19654" lon="4.61087">
        <ele>662</ele>
        <time>2025-09-20T09:34:58Z</time>
      </trkpt>
      <trkpt lat="46.19652" lon="4.61087">
        <ele>662</ele>
        <time>2025-09-20T09:34:59Z</time>
      </trkpt>
      <trkpt lat="46.19649" lon="4.61087">
        <ele>662.2</ele>
        <time>2025-09-20T09:35:00Z</time>
      </trkpt>
      <trkpt lat="46.19647" lon="4.61087">
        <ele>662.2</ele>
        <time>2025-09-20T09:35:01Z</time>
      </trkpt>
      <trkpt lat="46.19645" lon="4.61088">
        <ele>662.6</ele>
        <time>2025-09-20T09:35:02Z</time>
      </trkpt>
      <trkpt lat="46.19642" lon="4.61088">
        <ele>662.6</ele>
        <time>2025-09-20T09:35:03Z</time>
      </trkpt>
      <trkpt lat="46.1964" lon="4.61088">
        <ele>662.6</ele>
        <time>2025-09-20T09:35:04Z</time>
      </trkpt>
      <trkpt lat="46.19638" lon="4.61089">
        <ele>663</ele>
        <time>2025-09-20T09:35:05Z</time>
      </trkpt>
      <trkpt lat="46.19636" lon="4.61088">
        <ele>663.2</ele>
        <time>2025-09-20T09:35:06Z</time>
      </trkpt>
      <trkpt lat="46.19633" lon="4.61088">
        <ele>663.4</ele>
        <time>2025-09-20T09:35:07Z</time>
      </trkpt>
      <trkpt lat="46.19631" lon="4.61087">
        <ele>663.6</ele>
        <time>2025-09-20T09:35:08Z</time>
      </trkpt>
      <trkpt lat="46.19629" lon="4.61087">
        <ele>664</ele>
        <time>2025-09-20T09:35:09Z</time>
      </trkpt>
      <trkpt lat="46.19627" lon="4.61086">
        <ele>664</ele>
        <time>2025-09-20T09:35:10Z</time>
      </trkpt>
      <trkpt lat="46.19625" lon="4.61086">
        <ele>664.4</ele>
        <time>2025-09-20T09:35:11Z</time>
      </trkpt>
      <trkpt lat="46.19623" lon="4.61086">
        <ele>664.4</ele>
        <time>2025-09-20T09:35:12Z</time>
      </trkpt>
      <trkpt lat="46.19621" lon="4.61085">
        <ele>664.6</ele>
        <time>2025-09-20T09:35:13Z</time>
      </trkpt>
      <trkpt lat="46.19619" lon="4.61084">
        <ele>664.6</ele>
        <time>2025-09-20T09:35:14Z</time>
      </trkpt>
      <trkpt lat="46.19617" lon="4.61083">
        <ele>664.6</ele>
        <time>2025-09-20T09:35:15Z</time>
      </trkpt>
      <trkpt lat="46.19615" lon="4.61082">
        <ele>665.2</ele>
        <time>2025-09-20T09:35:16Z</time>
      </trkpt>
      <trkpt lat="46.19613" lon="4.61081">
        <ele>665.2</ele>
        <time>2025-09-20T09:35:17Z</time>
      </trkpt>
      <trkpt lat="46.19611" lon="4.6108">
        <ele>665.4</ele>
        <time>2025-09-20T09:35:18Z</time>
      </trkpt>
      <trkpt lat="46.19609" lon="4.61079">
        <ele>665.6</ele>
        <time>2025-09-20T09:35:19Z</time>
      </trkpt>
      <trkpt lat="46.19607" lon="4.61078">
        <ele>665.6</ele>
        <time>2025-09-20T09:35:20Z</time>
      </trkpt>
      <trkpt lat="46.19605" lon="4.61077">
        <ele>665.6</ele>
        <time>2025-09-20T09:35:21Z</time>
      </trkpt>
      <trkpt lat="46.19603" lon="4.61076">
        <ele>666</ele>
        <time>2025-09-20T09:35:22Z</time>
      </trkpt>
      <trkpt lat="46.19601" lon="4.61075">
        <ele>666</ele>
        <time>2025-09-20T09:35:23Z</time>
      </trkpt>
      <trkpt lat="46.19599" lon="4.61073">
        <ele>666</ele>
        <time>2025-09-20T09:35:24Z</time>
      </trkpt>
      <trkpt lat="46.19598" lon="4.61072">
        <ele>666.4</ele>
        <time>2025-09-20T09:35:25Z</time>
      </trkpt>
      <trkpt lat="46.19596" lon="4.6107">
        <ele>666.4</ele>
        <time>2025-09-20T09:35:26Z</time>
      </trkpt>
      <trkpt lat="46.19594" lon="4.61069">
        <ele>666.8</ele>
        <time>2025-09-20T09:35:27Z</time>
      </trkpt>
      <trkpt lat="46.19592" lon="4.61067">
        <ele>667</ele>
        <time>2025-09-20T09:35:28Z</time>
      </trkpt>
      <trkpt lat="46.1959" lon="4.61065">
        <ele>666.6</ele>
        <time>2025-09-20T09:35:29Z</time>
      </trkpt>
      <trkpt lat="46.19589" lon="4.61063">
        <ele>667</ele>
        <time>2025-09-20T09:35:30Z</time>
      </trkpt>
      <trkpt lat="46.19587" lon="4.61061">
        <ele>667</ele>
        <time>2025-09-20T09:35:31Z</time>
      </trkpt>
      <trkpt lat="46.19586" lon="4.61059">
        <ele>667.2</ele>
        <time>2025-09-20T09:35:32Z</time>
      </trkpt>
      <trkpt lat="46.19584" lon="4.61057">
        <ele>667.4</ele>
        <time>2025-09-20T09:35:33Z</time>
      </trkpt>
      <trkpt lat="46.19583" lon="4.61055">
        <ele>667.4</ele>
        <time>2025-09-20T09:35:34Z</time>
      </trkpt>
      <trkpt lat="46.19582" lon="4.61053">
        <ele>667</ele>
        <time>2025-09-20T09:35:35Z</time>
      </trkpt>
      <trkpt lat="46.19582" lon="4.61053">
        <ele>667.4</ele>
        <time>2025-09-20T09:35:36Z</time>
      </trkpt>
      <trkpt lat="46.19581" lon="4.6105">
        <ele>667.8</ele>
        <time>2025-09-20T09:35:37Z</time>
      </trkpt>
      <trkpt lat="46.19579" lon="4.61048">
        <ele>667.8</ele>
        <time>2025-09-20T09:35:38Z</time>
      </trkpt>
      <trkpt lat="46.19578" lon="4.61046">
        <ele>668.2</ele>
        <time>2025-09-20T09:35:39Z</time>
      </trkpt>
      <trkpt lat="46.19577" lon="4.61043">
        <ele>668.2</ele>
        <time>2025-09-20T09:35:40Z</time>
      </trkpt>
      <trkpt lat="46.19576" lon="4.61041">
        <ele>668.4</ele>
        <time>2025-09-20T09:35:41Z</time>
      </trkpt>
      <trkpt lat="46.19575" lon="4.61039">
        <ele>668.6</ele>
        <time>2025-09-20T09:35:42Z</time>
      </trkpt>
      <trkpt lat="46.19574" lon="4.61037">
        <ele>668.6</ele>
        <time>2025-09-20T09:35:43Z</time>
      </trkpt>
      <trkpt lat="46.19573" lon="4.61034">
        <ele>668.6</ele>
        <time>2025-09-20T09:35:44Z</time>
      </trkpt>
      <trkpt lat="46.19572" lon="4.61032">
        <ele>669</ele>
        <time>2025-09-20T09:35:45Z</time>
      </trkpt>
      <trkpt lat="46.19571" lon="4.61029">
        <ele>669</ele>
        <time>2025-09-20T09:35:46Z</time>
      </trkpt>
      <trkpt lat="46.1957" lon="4.61027">
        <ele>669.2</ele>
        <time>2025-09-20T09:35:47Z</time>
      </trkpt>
      <trkpt lat="46.19569" lon="4.61025">
        <ele>669.2</ele>
        <time>2025-09-20T09:35:48Z</time>
      </trkpt>
      <trkpt lat="46.19568" lon="4.61022">
        <ele>669.2</ele>
        <time>2025-09-20T09:35:49Z</time>
      </trkpt>
      <trkpt lat="46.19567" lon="4.6102">
        <ele>669.6</ele>
        <time>2025-09-20T09:35:50Z</time>
      </trkpt>
      <trkpt lat="46.19566" lon="4.61017">
        <ele>669.6</ele>
        <time>2025-09-20T09:35:51Z</time>
      </trkpt>
      <trkpt lat="46.19566" lon="4.61014">
        <ele>670</ele>
        <time>2025-09-20T09:35:52Z</time>
      </trkpt>
      <trkpt lat="46.19565" lon="4.61012">
        <ele>670</ele>
        <time>2025-09-20T09:35:53Z</time>
      </trkpt>
      <trkpt lat="46.19565" lon="4.61009">
        <ele>670.4</ele>
        <time>2025-09-20T09:35:54Z</time>
      </trkpt>
      <trkpt lat="46.19564" lon="4.61006">
        <ele>670.4</ele>
        <time>2025-09-20T09:35:55Z</time>
      </trkpt>
      <trkpt lat="46.19564" lon="4.61004">
        <ele>670.6</ele>
        <time>2025-09-20T09:35:56Z</time>
      </trkpt>
      <trkpt lat="46.19563" lon="4.61001">
        <ele>670.6</ele>
        <time>2025-09-20T09:35:57Z</time>
      </trkpt>
      <trkpt lat="46.19562" lon="4.60999">
        <ele>671.2</ele>
        <time>2025-09-20T09:35:58Z</time>
      </trkpt>
      <trkpt lat="46.19562" lon="4.60996">
        <ele>671.4</ele>
        <time>2025-09-20T09:35:59Z</time>
      </trkpt>
      <trkpt lat="46.19562" lon="4.60994">
        <ele>671.4</ele>
        <time>2025-09-20T09:36:00Z</time>
      </trkpt>
      <trkpt lat="46.19561" lon="4.60991">
        <ele>671.8</ele>
        <time>2025-09-20T09:36:01Z</time>
      </trkpt>
      <trkpt lat="46.19561" lon="4.60988">
        <ele>671.8</ele>
        <time>2025-09-20T09:36:02Z</time>
      </trkpt>
      <trkpt lat="46.19561" lon="4.60985">
        <ele>672.2</ele>
        <time>2025-09-20T09:36:03Z</time>
      </trkpt>
      <trkpt lat="46.19561" lon="4.60983">
        <ele>672.2</ele>
        <time>2025-09-20T09:36:04Z</time>
      </trkpt>
      <trkpt lat="46.19561" lon="4.6098">
        <ele>672.2</ele>
        <time>2025-09-20T09:36:05Z</time>
      </trkpt>
      <trkpt lat="46.19561" lon="4.60977">
        <ele>672.4</ele>
        <time>2025-09-20T09:36:06Z</time>
      </trkpt>
      <trkpt lat="46.19561" lon="4.60974">
        <ele>672.4</ele>
        <time>2025-09-20T09:36:07Z</time>
      </trkpt>
      <trkpt lat="46.1956" lon="4.60971">
        <ele>672.8</ele>
        <time>2025-09-20T09:36:08Z</time>
      </trkpt>
      <trkpt lat="46.1956" lon="4.60968">
        <ele>673</ele>
        <time>2025-09-20T09:36:09Z</time>
      </trkpt>
      <trkpt lat="46.1956" lon="4.60965">
        <ele>673.2</ele>
        <time>2025-09-20T09:36:10Z</time>
      </trkpt>
      <trkpt lat="46.1956" lon="4.60962">
        <ele>673.2</ele>
        <time>2025-09-20T09:36:11Z</time>
      </trkpt>
      <trkpt lat="46.19559" lon="4.6096">
        <ele>673.6</ele>
        <time>2025-09-20T09:36:12Z</time>
      </trkpt>
      <trkpt lat="46.19559" lon="4.60957">
        <ele>673.8</ele>
        <time>2025-09-20T09:36:13Z</time>
      </trkpt>
      <trkpt lat="46.19559" lon="4.60954">
        <ele>674.2</ele>
        <time>2025-09-20T09:36:14Z</time>
      </trkpt>
      <trkpt lat="46.19559" lon="4.60951">
        <ele>674.2</ele>
        <time>2025-09-20T09:36:15Z</time>
      </trkpt>
      <trkpt lat="46.19559" lon="4.60948">
        <ele>674.4</ele>
        <time>2025-09-20T09:36:16Z</time>
      </trkpt>
      <trkpt lat="46.19558" lon="4.60946">
        <ele>674.4</ele>
        <time>2025-09-20T09:36:17Z</time>
      </trkpt>
      <trkpt lat="46.19557" lon="4.60943">
        <ele>674.6</ele>
        <time>2025-09-20T09:36:18Z</time>
      </trkpt>
      <trkpt lat="46.19556" lon="4.6094">
        <ele>674.6</ele>
        <time>2025-09-20T09:36:19Z</time>
      </trkpt>
      <trkpt lat="46.19556" lon="4.60938">
        <ele>674.8</ele>
        <time>2025-09-20T09:36:20Z</time>
      </trkpt>
      <trkpt lat="46.19555" lon="4.60935">
        <ele>674.8</ele>
        <time>2025-09-20T09:36:21Z</time>
      </trkpt>
      <trkpt lat="46.19555" lon="4.60932">
        <ele>675.2</ele>
        <time>2025-09-20T09:36:22Z</time>
      </trkpt>
      <trkpt lat="46.19554" lon="4.60929">
        <ele>675.2</ele>
        <time>2025-09-20T09:36:23Z</time>
      </trkpt>
      <trkpt lat="46.19554" lon="4.60926">
        <ele>675.2</ele>
        <time>2025-09-20T09:36:24Z</time>
      </trkpt>
      <trkpt lat="46.19554" lon="4.60924">
        <ele>675.6</ele>
        <time>2025-09-20T09:36:25Z</time>
      </trkpt>
      <trkpt lat="46.19553" lon="4.60921">
        <ele>675.6</ele>
        <time>2025-09-20T09:36:26Z</time>
      </trkpt>
      <trkpt lat="46.19552" lon="4.60918">
        <ele>675.8</ele>
        <time>2025-09-20T09:36:27Z</time>
      </trkpt>
      <trkpt lat="46.19552" lon="4.60915">
        <ele>675.8</ele>
        <time>2025-09-20T09:36:28Z</time>
      </trkpt>
      <trkpt lat="46.19552" lon="4.60913">
        <ele>675</ele>
        <time>2025-09-20T09:36:29Z</time>
      </trkpt>
      <trkpt lat="46.19551" lon="4.6091">
        <ele>675.4</ele>
        <time>2025-09-20T09:36:30Z</time>
      </trkpt>
      <trkpt lat="46.19551" lon="4.60908">
        <ele>675.4</ele>
        <time>2025-09-20T09:36:31Z</time>
      </trkpt>
      <trkpt lat="46.19551" lon="4.60905">
        <ele>675.6</ele>
        <time>2025-09-20T09:36:32Z</time>
      </trkpt>
      <trkpt lat="46.19551" lon="4.60902">
        <ele>676</ele>
        <time>2025-09-20T09:36:33Z</time>
      </trkpt>
      <trkpt lat="46.1955" lon="4.60899">
        <ele>676</ele>
        <time>2025-09-20T09:36:34Z</time>
      </trkpt>
      <trkpt lat="46.1955" lon="4.60896">
        <ele>676.2</ele>
        <time>2025-09-20T09:36:35Z</time>
      </trkpt>
      <trkpt lat="46.1955" lon="4.60893">
        <ele>676.2</ele>
        <time>2025-09-20T09:36:36Z</time>
      </trkpt>
      <trkpt lat="46.19549" lon="4.60891">
        <ele>676.6</ele>
        <time>2025-09-20T09:36:37Z</time>
      </trkpt>
      <trkpt lat="46.19549" lon="4.60888">
        <ele>676.8</ele>
        <time>2025-09-20T09:36:38Z</time>
      </trkpt>
      <trkpt lat="46.19549" lon="4.60885">
        <ele>676.8</ele>
        <time>2025-09-20T09:36:39Z</time>
      </trkpt>
      <trkpt lat="46.19548" lon="4.60883">
        <ele>677</ele>
        <time>2025-09-20T09:36:40Z</time>
      </trkpt>
      <trkpt lat="46.19548" lon="4.60881">
        <ele>677</ele>
        <time>2025-09-20T09:36:41Z</time>
      </trkpt>
      <trkpt lat="46.19547" lon="4.60878">
        <ele>677.6</ele>
        <time>2025-09-20T09:36:42Z</time>
      </trkpt>
      <trkpt lat="46.19546" lon="4.60876">
        <ele>677.8</ele>
        <time>2025-09-20T09:36:43Z</time>
      </trkpt>
      <trkpt lat="46.19546" lon="4.60873">
        <ele>677.8</ele>
        <time>2025-09-20T09:36:44Z</time>
      </trkpt>
      <trkpt lat="46.19545" lon="4.6087">
        <ele>678</ele>
        <time>2025-09-20T09:36:45Z</time>
      </trkpt>
      <trkpt lat="46.19545" lon="4.60867">
        <ele>678</ele>
        <time>2025-09-20T09:36:46Z</time>
      </trkpt>
      <trkpt lat="46.19544" lon="4.60864">
        <ele>678.4</ele>
        <time>2025-09-20T09:36:47Z</time>
      </trkpt>
      <trkpt lat="46.19544" lon="4.60862">
        <ele>678.4</ele>
        <time>2025-09-20T09:36:48Z</time>
      </trkpt>
      <trkpt lat="46.19543" lon="4.60859">
        <ele>678.8</ele>
        <time>2025-09-20T09:36:49Z</time>
      </trkpt>
      <trkpt lat="46.19543" lon="4.60856">
        <ele>678.8</ele>
        <time>2025-09-20T09:36:50Z</time>
      </trkpt>
      <trkpt lat="46.19542" lon="4.60853">
        <ele>678.8</ele>
        <time>2025-09-20T09:36:51Z</time>
      </trkpt>
      <trkpt lat="46.19541" lon="4.60849">
        <ele>678.8</ele>
        <time>2025-09-20T09:36:52Z</time>
      </trkpt>
      <trkpt lat="46.19541" lon="4.60847">
        <ele>678.8</ele>
        <time>2025-09-20T09:36:53Z</time>
      </trkpt>
      <trkpt lat="46.1954" lon="4.60843">
        <ele>679.2</ele>
        <time>2025-09-20T09:36:54Z</time>
      </trkpt>
      <trkpt lat="46.19539" lon="4.6084">
        <ele>679.2</ele>
        <time>2025-09-20T09:36:55Z</time>
      </trkpt>
      <trkpt lat="46.19539" lon="4.60837">
        <ele>679.4</ele>
        <time>2025-09-20T09:36:56Z</time>
      </trkpt>
      <trkpt lat="46.19538" lon="4.60834">
        <ele>679.4</ele>
        <time>2025-09-20T09:36:57Z</time>
      </trkpt>
      <trkpt lat="46.19537" lon="4.6083">
        <ele>679.4</ele>
        <time>2025-09-20T09:36:58Z</time>
      </trkpt>
      <trkpt lat="46.19537" lon="4.60827">
        <ele>679.4</ele>
        <time>2025-09-20T09:36:59Z</time>
      </trkpt>
      <trkpt lat="46.19536" lon="4.60823">
        <ele>679.4</ele>
        <time>2025-09-20T09:37:00Z</time>
      </trkpt>
      <trkpt lat="46.19535" lon="4.6082">
        <ele>679.6</ele>
        <time>2025-09-20T09:37:01Z</time>
      </trkpt>
      <trkpt lat="46.19535" lon="4.60816">
        <ele>679.6</ele>
        <time>2025-09-20T09:37:02Z</time>
      </trkpt>
      <trkpt lat="46.19534" lon="4.60813">
        <ele>679.6</ele>
        <time>2025-09-20T09:37:03Z</time>
      </trkpt>
      <trkpt lat="46.19533" lon="4.6081">
        <ele>680</ele>
        <time>2025-09-20T09:37:04Z</time>
      </trkpt>
      <trkpt lat="46.19532" lon="4.60806">
        <ele>680</ele>
        <time>2025-09-20T09:37:05Z</time>
      </trkpt>
      <trkpt lat="46.19532" lon="4.60802">
        <ele>680.4</ele>
        <time>2025-09-20T09:37:06Z</time>
      </trkpt>
      <trkpt lat="46.19531" lon="4.60799">
        <ele>680.4</ele>
        <time>2025-09-20T09:37:07Z</time>
      </trkpt>
      <trkpt lat="46.1953" lon="4.60795">
        <ele>680.4</ele>
        <time>2025-09-20T09:37:08Z</time>
      </trkpt>
      <trkpt lat="46.1953" lon="4.60792">
        <ele>680.8</ele>
        <time>2025-09-20T09:37:09Z</time>
      </trkpt>
      <trkpt lat="46.19529" lon="4.60788">
        <ele>680.8</ele>
        <time>2025-09-20T09:37:10Z</time>
      </trkpt>
      <trkpt lat="46.19528" lon="4.60785">
        <ele>680.8</ele>
        <time>2025-09-20T09:37:11Z</time>
      </trkpt>
      <trkpt lat="46.19527" lon="4.60782">
        <ele>681</ele>
        <time>2025-09-20T09:37:12Z</time>
      </trkpt>
      <trkpt lat="46.19526" lon="4.60778">
        <ele>681.2</ele>
        <time>2025-09-20T09:37:13Z</time>
      </trkpt>
      <trkpt lat="46.19525" lon="4.60775">
        <ele>681.2</ele>
        <time>2025-09-20T09:37:14Z</time>
      </trkpt>
      <trkpt lat="46.19524" lon="4.60771">
        <ele>681.2</ele>
        <time>2025-09-20T09:37:15Z</time>
      </trkpt>
      <trkpt lat="46.19524" lon="4.60767">
        <ele>681.2</ele>
        <time>2025-09-20T09:37:16Z</time>
      </trkpt>
      <trkpt lat="46.19523" lon="4.60764">
        <ele>681.6</ele>
        <time>2025-09-20T09:37:17Z</time>
      </trkpt>
      <trkpt lat="46.19522" lon="4.6076">
        <ele>681.6</ele>
        <time>2025-09-20T09:37:18Z</time>
      </trkpt>
      <trkpt lat="46.19522" lon="4.60757">
        <ele>681.6</ele>
        <time>2025-09-20T09:37:19Z</time>
      </trkpt>
      <trkpt lat="46.19521" lon="4.60753">
        <ele>681.6</ele>
        <time>2025-09-20T09:37:20Z</time>
      </trkpt>
      <trkpt lat="46.19521" lon="4.6075">
        <ele>681.8</ele>
        <time>2025-09-20T09:37:21Z</time>
      </trkpt>
      <trkpt lat="46.1952" lon="4.60747">
        <ele>681.8</ele>
        <time>2025-09-20T09:37:22Z</time>
      </trkpt>
      <trkpt lat="46.1952" lon="4.60744">
        <ele>681.8</ele>
        <time>2025-09-20T09:37:23Z</time>
      </trkpt>
      <trkpt lat="46.19519" lon="4.60741">
        <ele>681.8</ele>
        <time>2025-09-20T09:37:24Z</time>
      </trkpt>
      <trkpt lat="46.19518" lon="4.60738">
        <ele>682.2</ele>
        <time>2025-09-20T09:37:25Z</time>
      </trkpt>
      <trkpt lat="46.19518" lon="4.60734">
        <ele>682.4</ele>
        <time>2025-09-20T09:37:26Z</time>
      </trkpt>
      <trkpt lat="46.19517" lon="4.60731">
        <ele>682.8</ele>
        <time>2025-09-20T09:37:27Z</time>
      </trkpt>
      <trkpt lat="46.19517" lon="4.60727">
        <ele>683.2</ele>
        <time>2025-09-20T09:37:28Z</time>
      </trkpt>
      <trkpt lat="46.19516" lon="4.60724">
        <ele>683.2</ele>
        <time>2025-09-20T09:37:29Z</time>
      </trkpt>
      <trkpt lat="46.19516" lon="4.60724">
        <ele>683.2</ele>
        <time>2025-09-20T09:37:30Z</time>
      </trkpt>
      <trkpt lat="46.19516" lon="4.60724">
        <ele>683.6</ele>
        <time>2025-09-20T09:37:31Z</time>
      </trkpt>
      <trkpt lat="46.19513" lon="4.60711">
        <ele>684</ele>
        <time>2025-09-20T09:37:33Z</time>
      </trkpt>
      <trkpt lat="46.19512" lon="4.60707">
        <ele>684</ele>
        <time>2025-09-20T09:37:34Z</time>
      </trkpt>
      <trkpt lat="46.19512" lon="4.60705">
        <ele>684.2</ele>
        <time>2025-09-20T09:37:35Z</time>
      </trkpt>
      <trkpt lat="46.19511" lon="4.60702">
        <ele>684.2</ele>
        <time>2025-09-20T09:37:36Z</time>
      </trkpt>
      <trkpt lat="46.1951" lon="4.60699">
        <ele>684.8</ele>
        <time>2025-09-20T09:37:37Z</time>
      </trkpt>
      <trkpt lat="46.19509" lon="4.60695">
        <ele>684.8</ele>
        <time>2025-09-20T09:37:38Z</time>
      </trkpt>
      <trkpt lat="46.19509" lon="4.60692">
        <ele>684.8</ele>
        <time>2025-09-20T09:37:39Z</time>
      </trkpt>
      <trkpt lat="46.19508" lon="4.60689">
        <ele>684.4</ele>
        <time>2025-09-20T09:37:40Z</time>
      </trkpt>
      <trkpt lat="46.19508" lon="4.60686">
        <ele>683.8</ele>
        <time>2025-09-20T09:37:41Z</time>
      </trkpt>
      <trkpt lat="46.19507" lon="4.60683">
        <ele>683.8</ele>
        <time>2025-09-20T09:37:42Z</time>
      </trkpt>
      <trkpt lat="46.19507" lon="4.60679">
        <ele>684.6</ele>
        <time>2025-09-20T09:37:43Z</time>
      </trkpt>
      <trkpt lat="46.19507" lon="4.60677">
        <ele>684.8</ele>
        <time>2025-09-20T09:37:44Z</time>
      </trkpt>
      <trkpt lat="46.19507" lon="4.60673">
        <ele>685.2</ele>
        <time>2025-09-20T09:37:45Z</time>
      </trkpt>
      <trkpt lat="46.19507" lon="4.6067">
        <ele>685.2</ele>
        <time>2025-09-20T09:37:46Z</time>
      </trkpt>
      <trkpt lat="46.19507" lon="4.60668">
        <ele>685.6</ele>
        <time>2025-09-20T09:37:47Z</time>
      </trkpt>
      <trkpt lat="46.19507" lon="4.60665">
        <ele>685.6</ele>
        <time>2025-09-20T09:37:48Z</time>
      </trkpt>
      <trkpt lat="46.19507" lon="4.60662">
        <ele>685.6</ele>
        <time>2025-09-20T09:37:49Z</time>
      </trkpt>
      <trkpt lat="46.19508" lon="4.6066">
        <ele>685.8</ele>
        <time>2025-09-20T09:37:50Z</time>
      </trkpt>
      <trkpt lat="46.19508" lon="4.60657">
        <ele>685.8</ele>
        <time>2025-09-20T09:37:51Z</time>
      </trkpt>
      <trkpt lat="46.19509" lon="4.60653">
        <ele>685.8</ele>
        <time>2025-09-20T09:37:52Z</time>
      </trkpt>
      <trkpt lat="46.19509" lon="4.60649">
        <ele>685.8</ele>
        <time>2025-09-20T09:37:53Z</time>
      </trkpt>
      <trkpt lat="46.19509" lon="4.60649">
        <ele>685.8</ele>
        <time>2025-09-20T09:37:54Z</time>
      </trkpt>
      <trkpt lat="46.1951" lon="4.60638">
        <ele>685.8</ele>
        <time>2025-09-20T09:37:55Z</time>
      </trkpt>
      <trkpt lat="46.1951" lon="4.60633">
        <ele>685.4</ele>
        <time>2025-09-20T09:37:56Z</time>
      </trkpt>
      <trkpt lat="46.19511" lon="4.60627">
        <ele>685</ele>
        <time>2025-09-20T09:37:57Z</time>
      </trkpt>
      <trkpt lat="46.19511" lon="4.60619">
        <ele>684.6</ele>
        <time>2025-09-20T09:37:58Z</time>
      </trkpt>
      <trkpt lat="46.19512" lon="4.60611">
        <ele>684.2</ele>
        <time>2025-09-20T09:37:59Z</time>
      </trkpt>
      <trkpt lat="46.19513" lon="4.60603">
        <ele>684</ele>
        <time>2025-09-20T09:38:00Z</time>
      </trkpt>
      <trkpt lat="46.19514" lon="4.60595">
        <ele>683.6</ele>
        <time>2025-09-20T09:38:01Z</time>
      </trkpt>
      <trkpt lat="46.19515" lon="4.6059">
        <ele>683.6</ele>
        <time>2025-09-20T09:38:02Z</time>
      </trkpt>
      <trkpt lat="46.19515" lon="4.60587">
        <ele>683.4</ele>
        <time>2025-09-20T09:38:03Z</time>
      </trkpt>
      <trkpt lat="46.19515" lon="4.60585">
        <ele>683.4</ele>
        <time>2025-09-20T09:38:04Z</time>
      </trkpt>
      <trkpt lat="46.19515" lon="4.60583">
        <ele>683.4</ele>
        <time>2025-09-20T09:38:05Z</time>
      </trkpt>
      <trkpt lat="46.19515" lon="4.60581">
        <ele>683.4</ele>
        <time>2025-09-20T09:38:06Z</time>
      </trkpt>
      <trkpt lat="46.19515" lon="4.60579">
        <ele>683.2</ele>
        <time>2025-09-20T09:38:07Z</time>
      </trkpt>
      <trkpt lat="46.19515" lon="4.60576">
        <ele>683.2</ele>
        <time>2025-09-20T09:38:08Z</time>
      </trkpt>
      <trkpt lat="46.19516" lon="4.60574">
        <ele>683.2</ele>
        <time>2025-09-20T09:38:09Z</time>
      </trkpt>
      <trkpt lat="46.19516" lon="4.6057">
        <ele>683</ele>
        <time>2025-09-20T09:38:10Z</time>
      </trkpt>
      <trkpt lat="46.19516" lon="4.60568">
        <ele>683</ele>
        <time>2025-09-20T09:38:11Z</time>
      </trkpt>
      <trkpt lat="46.19516" lon="4.60565">
        <ele>683</ele>
        <time>2025-09-20T09:38:12Z</time>
      </trkpt>
      <trkpt lat="46.19516" lon="4.60562">
        <ele>683</ele>
        <time>2025-09-20T09:38:13Z</time>
      </trkpt>
      <trkpt lat="46.19516" lon="4.60559">
        <ele>683</ele>
        <time>2025-09-20T09:38:14Z</time>
      </trkpt>
      <trkpt lat="46.19517" lon="4.60555">
        <ele>683</ele>
        <time>2025-09-20T09:38:15Z</time>
      </trkpt>
      <trkpt lat="46.19517" lon="4.60552">
        <ele>682.6</ele>
        <time>2025-09-20T09:38:16Z</time>
      </trkpt>
      <trkpt lat="46.19517" lon="4.60548">
        <ele>682.6</ele>
        <time>2025-09-20T09:38:17Z</time>
      </trkpt>
      <trkpt lat="46.19517" lon="4.60544">
        <ele>682.4</ele>
        <time>2025-09-20T09:38:18Z</time>
      </trkpt>
      <trkpt lat="46.19517" lon="4.60538">
        <ele>682.4</ele>
        <time>2025-09-20T09:38:19Z</time>
      </trkpt>
      <trkpt lat="46.19518" lon="4.60532">
        <ele>682.2</ele>
        <time>2025-09-20T09:38:20Z</time>
      </trkpt>
      <trkpt lat="46.19518" lon="4.60526">
        <ele>682</ele>
        <time>2025-09-20T09:38:21Z</time>
      </trkpt>
      <trkpt lat="46.19519" lon="4.60519">
        <ele>681.8</ele>
        <time>2025-09-20T09:38:22Z</time>
      </trkpt>
      <trkpt lat="46.19519" lon="4.60514">
        <ele>681.8</ele>
        <time>2025-09-20T09:38:23Z</time>
      </trkpt>
      <trkpt lat="46.1952" lon="4.6051">
        <ele>681.8</ele>
        <time>2025-09-20T09:38:24Z</time>
      </trkpt>
      <trkpt lat="46.1952" lon="4.60507">
        <ele>681.4</ele>
        <time>2025-09-20T09:38:25Z</time>
      </trkpt>
      <trkpt lat="46.1952" lon="4.60503">
        <ele>681</ele>
        <time>2025-09-20T09:38:26Z</time>
      </trkpt>
      <trkpt lat="46.1952" lon="4.60499">
        <ele>680.8</ele>
        <time>2025-09-20T09:38:27Z</time>
      </trkpt>
      <trkpt lat="46.19521" lon="4.60496">
        <ele>680.4</ele>
        <time>2025-09-20T09:38:28Z</time>
      </trkpt>
      <trkpt lat="46.19522" lon="4.60494">
        <ele>680.4</ele>
        <time>2025-09-20T09:38:29Z</time>
      </trkpt>
      <trkpt lat="46.19522" lon="4.60494">
        <ele>680</ele>
        <time>2025-09-20T09:38:30Z</time>
      </trkpt>
      <trkpt lat="46.19522" lon="4.60493">
        <ele>680</ele>
        <time>2025-09-20T09:38:31Z</time>
      </trkpt>
      <trkpt lat="46.19521" lon="4.60493">
        <ele>680</ele>
        <time>2025-09-20T09:38:32Z</time>
      </trkpt>
      <trkpt lat="46.1952" lon="4.60492">
        <ele>680</ele>
        <time>2025-09-20T09:38:33Z</time>
      </trkpt>
      <trkpt lat="46.1952" lon="4.60493">
        <ele>680</ele>
        <time>2025-09-20T09:38:34Z</time>
      </trkpt>
      <trkpt lat="46.19518" lon="4.60489">
        <ele>679.6</ele>
        <time>2025-09-20T09:38:56Z</time>
      </trkpt>
      <trkpt lat="46.19517" lon="4.60488">
        <ele>679.8</ele>
        <time>2025-09-20T09:38:57Z</time>
      </trkpt>
      <trkpt lat="46.19516" lon="4.60488">
        <ele>679.8</ele>
        <time>2025-09-20T09:38:58Z</time>
      </trkpt>
      <trkpt lat="46.19516" lon="4.60486">
        <ele>680</ele>
        <time>2025-09-20T09:38:59Z</time>
      </trkpt>
      <trkpt lat="46.19515" lon="4.60485">
        <ele>680</ele>
        <time>2025-09-20T09:39:00Z</time>
      </trkpt>
      <trkpt lat="46.19515" lon="4.60485">
        <ele>680.4</ele>
        <time>2025-09-20T09:39:01Z</time>
      </trkpt>
      <trkpt lat="46.19522" lon="4.60479">
        <ele>681.2</ele>
        <time>2025-09-20T09:42:14Z</time>
      </trkpt>
      <trkpt lat="46.19521" lon="4.6048">
        <ele>681.2</ele>
        <time>2025-09-20T09:42:15Z</time>
      </trkpt>
      <trkpt lat="46.19521" lon="4.60481">
        <ele>681.2</ele>
        <time>2025-09-20T09:42:16Z</time>
      </trkpt>
      <trkpt lat="46.19521" lon="4.60481">
        <ele>681</ele>
        <time>2025-09-20T09:42:17Z</time>
      </trkpt>
      <trkpt lat="46.19522" lon="4.60481">
        <ele>681</ele>
        <time>2025-09-20T09:42:18Z</time>
      </trkpt>
      <trkpt lat="46.19523" lon="4.60481">
        <ele>680.8</ele>
        <time>2025-09-20T09:42:19Z</time>
      </trkpt>
      <trkpt lat="46.19524" lon="4.6048">
        <ele>680.4</ele>
        <time>2025-09-20T09:42:20Z</time>
      </trkpt>
      <trkpt lat="46.19526" lon="4.60476">
        <ele>680.4</ele>
        <time>2025-09-20T09:42:21Z</time>
      </trkpt>
      <trkpt lat="46.19527" lon="4.60473">
        <ele>680</ele>
        <time>2025-09-20T09:42:22Z</time>
      </trkpt>
      <trkpt lat="46.19527" lon="4.60467">
        <ele>679.6</ele>
        <time>2025-09-20T09:42:23Z</time>
      </trkpt>
      <trkpt lat="46.19525" lon="4.60458">
        <ele>679.2</ele>
        <time>2025-09-20T09:42:24Z</time>
      </trkpt>
      <trkpt lat="46.19525" lon="4.60452">
        <ele>678.8</ele>
        <time>2025-09-20T09:42:25Z</time>
      </trkpt>
      <trkpt lat="46.19527" lon="4.60442">
        <ele>678.4</ele>
        <time>2025-09-20T09:42:26Z</time>
      </trkpt>
      <trkpt lat="46.19529" lon="4.60435">
        <ele>678</ele>
        <time>2025-09-20T09:42:27Z</time>
      </trkpt>
      <trkpt lat="46.19528" lon="4.60428">
        <ele>677.4</ele>
        <time>2025-09-20T09:42:28Z</time>
      </trkpt>
      <trkpt lat="46.19527" lon="4.6042">
        <ele>677.2</ele>
        <time>2025-09-20T09:42:29Z</time>
      </trkpt>
      <trkpt lat="46.19528" lon="4.60412">
        <ele>677</ele>
        <time>2025-09-20T09:42:30Z</time>
      </trkpt>
      <trkpt lat="46.19529" lon="4.60405">
        <ele>677</ele>
        <time>2025-09-20T09:42:31Z</time>
      </trkpt>
      <trkpt lat="46.19529" lon="4.60396">
        <ele>677</ele>
        <time>2025-09-20T09:42:32Z</time>
      </trkpt>
      <trkpt lat="46.1953" lon="4.60389">
        <ele>676.6</ele>
        <time>2025-09-20T09:42:33Z</time>
      </trkpt>
      <trkpt lat="46.19532" lon="4.60381">
        <ele>676.6</ele>
        <time>2025-09-20T09:42:34Z</time>
      </trkpt>
      <trkpt lat="46.19535" lon="4.60375">
        <ele>676.6</ele>
        <time>2025-09-20T09:42:35Z</time>
      </trkpt>
      <trkpt lat="46.19538" lon="4.60371">
        <ele>677</ele>
        <time>2025-09-20T09:42:36Z</time>
      </trkpt>
      <trkpt lat="46.19541" lon="4.60366">
        <ele>677</ele>
        <time>2025-09-20T09:42:37Z</time>
      </trkpt>
      <trkpt lat="46.19543" lon="4.60364">
        <ele>677</ele>
        <time>2025-09-20T09:42:38Z</time>
      </trkpt>
      <trkpt lat="46.19544" lon="4.60361">
        <ele>677.4</ele>
        <time>2025-09-20T09:42:39Z</time>
      </trkpt>
      <trkpt lat="46.19547" lon="4.60359">
        <ele>677.4</ele>
        <time>2025-09-20T09:42:40Z</time>
      </trkpt>
      <trkpt lat="46.19549" lon="4.60357">
        <ele>678</ele>
        <time>2025-09-20T09:42:41Z</time>
      </trkpt>
      <trkpt lat="46.1955" lon="4.60355">
        <ele>678.4</ele>
        <time>2025-09-20T09:42:42Z</time>
      </trkpt>
      <trkpt lat="46.19553" lon="4.60353">
        <ele>678.8</ele>
        <time>2025-09-20T09:42:43Z</time>
      </trkpt>
      <trkpt lat="46.19556" lon="4.60351">
        <ele>679</ele>
        <time>2025-09-20T09:42:44Z</time>
      </trkpt>
      <trkpt lat="46.19558" lon="4.60349">
        <ele>679</ele>
        <time>2025-09-20T09:42:45Z</time>
      </trkpt>
      <trkpt lat="46.19559" lon="4.60347">
        <ele>679.6</ele>
        <time>2025-09-20T09:42:46Z</time>
      </trkpt>
      <trkpt lat="46.1956" lon="4.60346">
        <ele>680</ele>
        <time>2025-09-20T09:42:47Z</time>
      </trkpt>
      <trkpt lat="46.19562" lon="4.60345">
        <ele>680.2</ele>
        <time>2025-09-20T09:42:48Z</time>
      </trkpt>
      <trkpt lat="46.19563" lon="4.60343">
        <ele>680.4</ele>
        <time>2025-09-20T09:42:49Z</time>
      </trkpt>
      <trkpt lat="46.19564" lon="4.60342">
        <ele>681</ele>
        <time>2025-09-20T09:42:50Z</time>
      </trkpt>
      <trkpt lat="46.19565" lon="4.6034">
        <ele>681.4</ele>
        <time>2025-09-20T09:42:51Z</time>
      </trkpt>
      <trkpt lat="46.19566" lon="4.60339">
        <ele>681.6</ele>
        <time>2025-09-20T09:42:52Z</time>
      </trkpt>
      <trkpt lat="46.19568" lon="4.60336">
        <ele>681.6</ele>
        <time>2025-09-20T09:42:53Z</time>
      </trkpt>
      <trkpt lat="46.19569" lon="4.60332">
        <ele>682</ele>
        <time>2025-09-20T09:42:54Z</time>
      </trkpt>
      <trkpt lat="46.19571" lon="4.60329">
        <ele>682.2</ele>
        <time>2025-09-20T09:42:55Z</time>
      </trkpt>
      <trkpt lat="46.19573" lon="4.60325">
        <ele>682.2</ele>
        <time>2025-09-20T09:42:56Z</time>
      </trkpt>
      <trkpt lat="46.19575" lon="4.60323">
        <ele>682.2</ele>
        <time>2025-09-20T09:42:57Z</time>
      </trkpt>
      <trkpt lat="46.19576" lon="4.60322">
        <ele>682.2</ele>
        <time>2025-09-20T09:42:58Z</time>
      </trkpt>
      <trkpt lat="46.19578" lon="4.60322">
        <ele>682.2</ele>
        <time>2025-09-20T09:42:59Z</time>
      </trkpt>
      <trkpt lat="46.1958" lon="4.60321">
        <ele>682.4</ele>
        <time>2025-09-20T09:43:00Z</time>
      </trkpt>
      <trkpt lat="46.19582" lon="4.60321">
        <ele>682.4</ele>
        <time>2025-09-20T09:43:01Z</time>
      </trkpt>
      <trkpt lat="46.19583" lon="4.6032">
        <ele>682.6</ele>
        <time>2025-09-20T09:43:02Z</time>
      </trkpt>
      <trkpt lat="46.19585" lon="4.6032">
        <ele>682.6</ele>
        <time>2025-09-20T09:43:03Z</time>
      </trkpt>
      <trkpt lat="46.19587" lon="4.60319">
        <ele>683</ele>
        <time>2025-09-20T09:43:04Z</time>
      </trkpt>
      <trkpt lat="46.19588" lon="4.60319">
        <ele>683.2</ele>
        <time>2025-09-20T09:43:05Z</time>
      </trkpt>
      <trkpt lat="46.19589" lon="4.60319">
        <ele>683.6</ele>
        <time>2025-09-20T09:43:06Z</time>
      </trkpt>
      <trkpt lat="46.19591" lon="4.60318">
        <ele>683.8</ele>
        <time>2025-09-20T09:43:07Z</time>
      </trkpt>
      <trkpt lat="46.19593" lon="4.60317">
        <ele>684.2</ele>
        <time>2025-09-20T09:43:08Z</time>
      </trkpt>
      <trkpt lat="46.19593" lon="4.60317">
        <ele>684.4</ele>
        <time>2025-09-20T09:43:09Z</time>
      </trkpt>
      <trkpt lat="46.19594" lon="4.60316">
        <ele>684.4</ele>
        <time>2025-09-20T09:43:10Z</time>
      </trkpt>
      <trkpt lat="46.19596" lon="4.60315">
        <ele>684.4</ele>
        <time>2025-09-20T09:43:11Z</time>
      </trkpt>
      <trkpt lat="46.19597" lon="4.60314">
        <ele>684.4</ele>
        <time>2025-09-20T09:43:12Z</time>
      </trkpt>
      <trkpt lat="46.19598" lon="4.60313">
        <ele>684.8</ele>
        <time>2025-09-20T09:43:13Z</time>
      </trkpt>
      <trkpt lat="46.196" lon="4.60312">
        <ele>684.8</ele>
        <time>2025-09-20T09:43:14Z</time>
      </trkpt>
      <trkpt lat="46.19602" lon="4.6031">
        <ele>684.8</ele>
        <time>2025-09-20T09:43:15Z</time>
      </trkpt>
      <trkpt lat="46.19603" lon="4.60309">
        <ele>685.2</ele>
        <time>2025-09-20T09:43:16Z</time>
      </trkpt>
      <trkpt lat="46.19604" lon="4.60307">
        <ele>685.2</ele>
        <time>2025-09-20T09:43:17Z</time>
      </trkpt>
      <trkpt lat="46.19605" lon="4.60305">
        <ele>685.2</ele>
        <time>2025-09-20T09:43:18Z</time>
      </trkpt>
      <trkpt lat="46.19607" lon="4.60303">
        <ele>685.4</ele>
        <time>2025-09-20T09:43:19Z</time>
      </trkpt>
      <trkpt lat="46.19608" lon="4.60302">
        <ele>685.4</ele>
        <time>2025-09-20T09:43:20Z</time>
      </trkpt>
      <trkpt lat="46.19609" lon="4.60301">
        <ele>685.6</ele>
        <time>2025-09-20T09:43:21Z</time>
      </trkpt>
      <trkpt lat="46.1961" lon="4.60299">
        <ele>685.6</ele>
        <time>2025-09-20T09:43:22Z</time>
      </trkpt>
      <trkpt lat="46.19611" lon="4.60298">
        <ele>686</ele>
        <time>2025-09-20T09:43:23Z</time>
      </trkpt>
      <trkpt lat="46.19612" lon="4.60295">
        <ele>686</ele>
        <time>2025-09-20T09:43:24Z</time>
      </trkpt>
      <trkpt lat="46.19613" lon="4.60293">
        <ele>686</ele>
        <time>2025-09-20T09:43:25Z</time>
      </trkpt>
      <trkpt lat="46.19614" lon="4.60291">
        <ele>686</ele>
        <time>2025-09-20T09:43:26Z</time>
      </trkpt>
      <trkpt lat="46.19614" lon="4.60289">
        <ele>686</ele>
        <time>2025-09-20T09:43:27Z</time>
      </trkpt>
      <trkpt lat="46.19615" lon="4.60287">
        <ele>686.4</ele>
        <time>2025-09-20T09:43:28Z</time>
      </trkpt>
      <trkpt lat="46.19616" lon="4.60286">
        <ele>686.4</ele>
        <time>2025-09-20T09:43:29Z</time>
      </trkpt>
      <trkpt lat="46.19617" lon="4.60285">
        <ele>687</ele>
        <time>2025-09-20T09:43:30Z</time>
      </trkpt>
      <trkpt lat="46.19618" lon="4.60283">
        <ele>687.4</ele>
        <time>2025-09-20T09:43:31Z</time>
      </trkpt>
      <trkpt lat="46.19618" lon="4.60282">
        <ele>687.6</ele>
        <time>2025-09-20T09:43:32Z</time>
      </trkpt>
      <trkpt lat="46.19619" lon="4.6028">
        <ele>687.8</ele>
        <time>2025-09-20T09:43:33Z</time>
      </trkpt>
      <trkpt lat="46.19619" lon="4.60278">
        <ele>688.2</ele>
        <time>2025-09-20T09:43:34Z</time>
      </trkpt>
      <trkpt lat="46.1962" lon="4.60276">
        <ele>688.4</ele>
        <time>2025-09-20T09:43:35Z</time>
      </trkpt>
      <trkpt lat="46.1962" lon="4.60275">
        <ele>688.4</ele>
        <time>2025-09-20T09:43:36Z</time>
      </trkpt>
      <trkpt lat="46.19619" lon="4.60274">
        <ele>688.4</ele>
        <time>2025-09-20T09:43:37Z</time>
      </trkpt>
      <trkpt lat="46.19618" lon="4.60271">
        <ele>688.8</ele>
        <time>2025-09-20T09:43:38Z</time>
      </trkpt>
      <trkpt lat="46.19617" lon="4.60269">
        <ele>689.2</ele>
        <time>2025-09-20T09:43:39Z</time>
      </trkpt>
      <trkpt lat="46.19616" lon="4.60267">
        <ele>689.4</ele>
        <time>2025-09-20T09:43:40Z</time>
      </trkpt>
      <trkpt lat="46.19616" lon="4.60265">
        <ele>689.8</ele>
        <time>2025-09-20T09:43:41Z</time>
      </trkpt>
      <trkpt lat="46.19616" lon="4.60263">
        <ele>690</ele>
        <time>2025-09-20T09:43:42Z</time>
      </trkpt>
      <trkpt lat="46.19617" lon="4.60261">
        <ele>690.2</ele>
        <time>2025-09-20T09:43:43Z</time>
      </trkpt>
      <trkpt lat="46.19617" lon="4.6026">
        <ele>690.2</ele>
        <time>2025-09-20T09:43:44Z</time>
      </trkpt>
      <trkpt lat="46.19618" lon="4.60258">
        <ele>690.2</ele>
        <time>2025-09-20T09:43:45Z</time>
      </trkpt>
      <trkpt lat="46.19618" lon="4.60256">
        <ele>690.4</ele>
        <time>2025-09-20T09:43:46Z</time>
      </trkpt>
      <trkpt lat="46.19618" lon="4.60255">
        <ele>690.4</ele>
        <time>2025-09-20T09:43:47Z</time>
      </trkpt>
      <trkpt lat="46.19619" lon="4.60253">
        <ele>690.4</ele>
        <time>2025-09-20T09:43:48Z</time>
      </trkpt>
      <trkpt lat="46.19619" lon="4.60251">
        <ele>690.8</ele>
        <time>2025-09-20T09:43:49Z</time>
      </trkpt>
      <trkpt lat="46.19619" lon="4.60249">
        <ele>690.8</ele>
        <time>2025-09-20T09:43:50Z</time>
      </trkpt>
      <trkpt lat="46.1962" lon="4.60246">
        <ele>691.2</ele>
        <time>2025-09-20T09:43:51Z</time>
      </trkpt>
      <trkpt lat="46.1962" lon="4.60244">
        <ele>691.2</ele>
        <time>2025-09-20T09:43:52Z</time>
      </trkpt>
      <trkpt lat="46.19621" lon="4.60242">
        <ele>691.4</ele>
        <time>2025-09-20T09:43:53Z</time>
      </trkpt>
      <trkpt lat="46.19621" lon="4.60239">
        <ele>691.4</ele>
        <time>2025-09-20T09:43:54Z</time>
      </trkpt>
      <trkpt lat="46.1962" lon="4.60237">
        <ele>691.8</ele>
        <time>2025-09-20T09:43:55Z</time>
      </trkpt>
      <trkpt lat="46.1962" lon="4.60235">
        <ele>692</ele>
        <time>2025-09-20T09:43:56Z</time>
      </trkpt>
      <trkpt lat="46.1962" lon="4.60232">
        <ele>692</ele>
        <time>2025-09-20T09:43:57Z</time>
      </trkpt>
      <trkpt lat="46.1962" lon="4.6023">
        <ele>692.4</ele>
        <time>2025-09-20T09:43:58Z</time>
      </trkpt>
      <trkpt lat="46.19619" lon="4.60228">
        <ele>692.4</ele>
        <time>2025-09-20T09:43:59Z</time>
      </trkpt>
      <trkpt lat="46.19619" lon="4.60226">
        <ele>692.8</ele>
        <time>2025-09-20T09:44:00Z</time>
      </trkpt>
      <trkpt lat="46.19619" lon="4.60223">
        <ele>692.8</ele>
        <time>2025-09-20T09:44:01Z</time>
      </trkpt>
      <trkpt lat="46.19618" lon="4.60221">
        <ele>693</ele>
        <time>2025-09-20T09:44:02Z</time>
      </trkpt>
      <trkpt lat="46.19618" lon="4.60219">
        <ele>693</ele>
        <time>2025-09-20T09:44:03Z</time>
      </trkpt>
      <trkpt lat="46.19617" lon="4.60217">
        <ele>693.2</ele>
        <time>2025-09-20T09:44:04Z</time>
      </trkpt>
      <trkpt lat="46.19616" lon="4.60215">
        <ele>693.2</ele>
        <time>2025-09-20T09:44:05Z</time>
      </trkpt>
      <trkpt lat="46.19615" lon="4.60212">
        <ele>693.8</ele>
        <time>2025-09-20T09:44:06Z</time>
      </trkpt>
      <trkpt lat="46.19614" lon="4.6021">
        <ele>693.8</ele>
        <time>2025-09-20T09:44:07Z</time>
      </trkpt>
      <trkpt lat="46.19613" lon="4.60208">
        <ele>693.8</ele>
        <time>2025-09-20T09:44:08Z</time>
      </trkpt>
      <trkpt lat="46.19613" lon="4.60206">
        <ele>693.8</ele>
        <time>2025-09-20T09:44:09Z</time>
      </trkpt>
      <trkpt lat="46.19612" lon="4.60204">
        <ele>694.2</ele>
        <time>2025-09-20T09:44:10Z</time>
      </trkpt>
      <trkpt lat="46.19612" lon="4.60201">
        <ele>694.4</ele>
        <time>2025-09-20T09:44:11Z</time>
      </trkpt>
      <trkpt lat="46.19612" lon="4.602">
        <ele>694.8</ele>
        <time>2025-09-20T09:44:12Z</time>
      </trkpt>
      <trkpt lat="46.19612" lon="4.60198">
        <ele>695</ele>
        <time>2025-09-20T09:44:13Z</time>
      </trkpt>
      <trkpt lat="46.19611" lon="4.60196">
        <ele>695.4</ele>
        <time>2025-09-20T09:44:14Z</time>
      </trkpt>
      <trkpt lat="46.1961" lon="4.60193">
        <ele>695.4</ele>
        <time>2025-09-20T09:44:15Z</time>
      </trkpt>
      <trkpt lat="46.19609" lon="4.60191">
        <ele>695.6</ele>
        <time>2025-09-20T09:44:16Z</time>
      </trkpt>
      <trkpt lat="46.19608" lon="4.60188">
        <ele>695</ele>
        <time>2025-09-20T09:44:17Z</time>
      </trkpt>
      <trkpt lat="46.19608" lon="4.60185">
        <ele>695.4</ele>
        <time>2025-09-20T09:44:18Z</time>
      </trkpt>
      <trkpt lat="46.19607" lon="4.60182">
        <ele>695.4</ele>
        <time>2025-09-20T09:44:19Z</time>
      </trkpt>
      <trkpt lat="46.19606" lon="4.60179">
        <ele>695.4</ele>
        <time>2025-09-20T09:44:20Z</time>
      </trkpt>
      <trkpt lat="46.19605" lon="4.60178">
        <ele>695.8</ele>
        <time>2025-09-20T09:44:21Z</time>
      </trkpt>
      <trkpt lat="46.19605" lon="4.60177">
        <ele>695.8</ele>
        <time>2025-09-20T09:44:22Z</time>
      </trkpt>
      <trkpt lat="46.19604" lon="4.60175">
        <ele>695.8</ele>
        <time>2025-09-20T09:44:23Z</time>
      </trkpt>
      <trkpt lat="46.19603" lon="4.60173">
        <ele>695.8</ele>
        <time>2025-09-20T09:44:24Z</time>
      </trkpt>
      <trkpt lat="46.19603" lon="4.60171">
        <ele>696.2</ele>
        <time>2025-09-20T09:44:25Z</time>
      </trkpt>
      <trkpt lat="46.19602" lon="4.60169">
        <ele>696.4</ele>
        <time>2025-09-20T09:44:26Z</time>
      </trkpt>
      <trkpt lat="46.19601" lon="4.60167">
        <ele>696.4</ele>
        <time>2025-09-20T09:44:27Z</time>
      </trkpt>
      <trkpt lat="46.196" lon="4.60165">
        <ele>696.6</ele>
        <time>2025-09-20T09:44:28Z</time>
      </trkpt>
      <trkpt lat="46.19599" lon="4.60163">
        <ele>697</ele>
        <time>2025-09-20T09:44:29Z</time>
      </trkpt>
      <trkpt lat="46.19599" lon="4.60161">
        <ele>697.2</ele>
        <time>2025-09-20T09:44:30Z</time>
      </trkpt>
      <trkpt lat="46.19598" lon="4.60158">
        <ele>697.2</ele>
        <time>2025-09-20T09:44:31Z</time>
      </trkpt>
      <trkpt lat="46.19596" lon="4.60156">
        <ele>697.2</ele>
        <time>2025-09-20T09:44:32Z</time>
      </trkpt>
      <trkpt lat="46.19595" lon="4.60154">
        <ele>697.4</ele>
        <time>2025-09-20T09:44:33Z</time>
      </trkpt>
      <trkpt lat="46.19594" lon="4.60152">
        <ele>697.4</ele>
        <time>2025-09-20T09:44:34Z</time>
      </trkpt>
      <trkpt lat="46.19593" lon="4.6015">
        <ele>697.6</ele>
        <time>2025-09-20T09:44:35Z</time>
      </trkpt>
      <trkpt lat="46.19593" lon="4.60149">
        <ele>698</ele>
        <time>2025-09-20T09:44:36Z</time>
      </trkpt>
      <trkpt lat="46.19593" lon="4.60147">
        <ele>698</ele>
        <time>2025-09-20T09:44:37Z</time>
      </trkpt>
      <trkpt lat="46.19592" lon="4.60145">
        <ele>698</ele>
        <time>2025-09-20T09:44:38Z</time>
      </trkpt>
      <trkpt lat="46.19591" lon="4.60143">
        <ele>698</ele>
        <time>2025-09-20T09:44:39Z</time>
      </trkpt>
      <trkpt lat="46.19589" lon="4.6014">
        <ele>698.4</ele>
        <time>2025-09-20T09:44:40Z</time>
      </trkpt>
      <trkpt lat="46.19587" lon="4.60138">
        <ele>698.4</ele>
        <time>2025-09-20T09:44:41Z</time>
      </trkpt>
      <trkpt lat="46.19586" lon="4.60135">
        <ele>698.4</ele>
        <time>2025-09-20T09:44:42Z</time>
      </trkpt>
      <trkpt lat="46.19584" lon="4.60134">
        <ele>698.4</ele>
        <time>2025-09-20T09:44:43Z</time>
      </trkpt>
      <trkpt lat="46.19582" lon="4.60133">
        <ele>698.4</ele>
        <time>2025-09-20T09:44:44Z</time>
      </trkpt>
      <trkpt lat="46.1958" lon="4.60132">
        <ele>698.8</ele>
        <time>2025-09-20T09:44:45Z</time>
      </trkpt>
      <trkpt lat="46.19579" lon="4.6013">
        <ele>699</ele>
        <time>2025-09-20T09:44:46Z</time>
      </trkpt>
      <trkpt lat="46.19578" lon="4.60128">
        <ele>699</ele>
        <time>2025-09-20T09:44:47Z</time>
      </trkpt>
      <trkpt lat="46.19577" lon="4.60127">
        <ele>699</ele>
        <time>2025-09-20T09:44:48Z</time>
      </trkpt>
      <trkpt lat="46.19576" lon="4.60125">
        <ele>699</ele>
        <time>2025-09-20T09:44:49Z</time>
      </trkpt>
      <trkpt lat="46.19574" lon="4.60123">
        <ele>699</ele>
        <time>2025-09-20T09:44:50Z</time>
      </trkpt>
      <trkpt lat="46.19572" lon="4.60122">
        <ele>699.4</ele>
        <time>2025-09-20T09:44:51Z</time>
      </trkpt>
      <trkpt lat="46.19571" lon="4.60121">
        <ele>699.4</ele>
        <time>2025-09-20T09:44:52Z</time>
      </trkpt>
      <trkpt lat="46.19569" lon="4.6012">
        <ele>699.4</ele>
        <time>2025-09-20T09:44:53Z</time>
      </trkpt>
      <trkpt lat="46.19568" lon="4.60119">
        <ele>699.4</ele>
        <time>2025-09-20T09:44:54Z</time>
      </trkpt>
      <trkpt lat="46.19567" lon="4.60118">
        <ele>699.6</ele>
        <time>2025-09-20T09:44:55Z</time>
      </trkpt>
      <trkpt lat="46.19565" lon="4.60118">
        <ele>699.6</ele>
        <time>2025-09-20T09:44:56Z</time>
      </trkpt>
      <trkpt lat="46.19563" lon="4.60116">
        <ele>699.8</ele>
        <time>2025-09-20T09:44:57Z</time>
      </trkpt>
      <trkpt lat="46.19561" lon="4.60115">
        <ele>699.8</ele>
        <time>2025-09-20T09:44:58Z</time>
      </trkpt>
      <trkpt lat="46.1956" lon="4.60114">
        <ele>699.8</ele>
        <time>2025-09-20T09:44:59Z</time>
      </trkpt>
      <trkpt lat="46.19558" lon="4.60112">
        <ele>700</ele>
        <time>2025-09-20T09:45:00Z</time>
      </trkpt>
      <trkpt lat="46.19556" lon="4.6011">
        <ele>700</ele>
        <time>2025-09-20T09:45:01Z</time>
      </trkpt>
      <trkpt lat="46.19555" lon="4.60109">
        <ele>700.2</ele>
        <time>2025-09-20T09:45:02Z</time>
      </trkpt>
      <trkpt lat="46.19554" lon="4.60107">
        <ele>700.6</ele>
        <time>2025-09-20T09:45:03Z</time>
      </trkpt>
      <trkpt lat="46.19552" lon="4.60106">
        <ele>700.8</ele>
        <time>2025-09-20T09:45:04Z</time>
      </trkpt>
      <trkpt lat="46.19551" lon="4.60104">
        <ele>700.8</ele>
        <time>2025-09-20T09:45:05Z</time>
      </trkpt>
      <trkpt lat="46.1955" lon="4.60103">
        <ele>701</ele>
        <time>2025-09-20T09:45:06Z</time>
      </trkpt>
      <trkpt lat="46.19549" lon="4.60101">
        <ele>701</ele>
        <time>2025-09-20T09:45:07Z</time>
      </trkpt>
      <trkpt lat="46.19548" lon="4.60099">
        <ele>701</ele>
        <time>2025-09-20T09:45:08Z</time>
      </trkpt>
      <trkpt lat="46.19547" lon="4.60097">
        <ele>701.4</ele>
        <time>2025-09-20T09:45:09Z</time>
      </trkpt>
      <trkpt lat="46.19546" lon="4.60095">
        <ele>701.4</ele>
        <time>2025-09-20T09:45:10Z</time>
      </trkpt>
      <trkpt lat="46.19544" lon="4.60093">
        <ele>701.4</ele>
        <time>2025-09-20T09:45:11Z</time>
      </trkpt>
      <trkpt lat="46.19543" lon="4.60092">
        <ele>701.6</ele>
        <time>2025-09-20T09:45:12Z</time>
      </trkpt>
      <trkpt lat="46.19539" lon="4.60089">
        <ele>701.6</ele>
        <time>2025-09-20T09:45:13Z</time>
      </trkpt>
      <trkpt lat="46.19538" lon="4.60088">
        <ele>701.6</ele>
        <time>2025-09-20T09:45:14Z</time>
      </trkpt>
      <trkpt lat="46.19536" lon="4.60086">
        <ele>702.2</ele>
        <time>2025-09-20T09:45:15Z</time>
      </trkpt>
      <trkpt lat="46.19535" lon="4.60084">
        <ele>702.2</ele>
        <time>2025-09-20T09:45:16Z</time>
      </trkpt>
      <trkpt lat="46.19533" lon="4.60083">
        <ele>702.4</ele>
        <time>2025-09-20T09:45:17Z</time>
      </trkpt>
      <trkpt lat="46.19531" lon="4.60082">
        <ele>702.4</ele>
        <time>2025-09-20T09:45:18Z</time>
      </trkpt>
      <trkpt lat="46.19529" lon="4.6008">
        <ele>702.4</ele>
        <time>2025-09-20T09:45:19Z</time>
      </trkpt>
      <trkpt lat="46.19528" lon="4.60078">
        <ele>702.8</ele>
        <time>2025-09-20T09:45:20Z</time>
      </trkpt>
      <trkpt lat="46.19526" lon="4.60076">
        <ele>703.2</ele>
        <time>2025-09-20T09:45:21Z</time>
      </trkpt>
      <trkpt lat="46.19524" lon="4.60074">
        <ele>703.2</ele>
        <time>2025-09-20T09:45:22Z</time>
      </trkpt>
      <trkpt lat="46.19523" lon="4.60072">
        <ele>703.4</ele>
        <time>2025-09-20T09:45:23Z</time>
      </trkpt>
      <trkpt lat="46.19522" lon="4.6007">
        <ele>703.4</ele>
        <time>2025-09-20T09:45:24Z</time>
      </trkpt>
      <trkpt lat="46.1952" lon="4.60068">
        <ele>703.4</ele>
        <time>2025-09-20T09:45:25Z</time>
      </trkpt>
      <trkpt lat="46.19518" lon="4.60067">
        <ele>703.6</ele>
        <time>2025-09-20T09:45:26Z</time>
      </trkpt>
      <trkpt lat="46.19516" lon="4.60065">
        <ele>703.6</ele>
        <time>2025-09-20T09:45:27Z</time>
      </trkpt>
      <trkpt lat="46.19515" lon="4.60063">
        <ele>703.6</ele>
        <time>2025-09-20T09:45:28Z</time>
      </trkpt>
      <trkpt lat="46.19513" lon="4.60061">
        <ele>703.6</ele>
        <time>2025-09-20T09:45:29Z</time>
      </trkpt>
      <trkpt lat="46.19512" lon="4.60059">
        <ele>704</ele>
        <time>2025-09-20T09:45:30Z</time>
      </trkpt>
      <trkpt lat="46.1951" lon="4.60057">
        <ele>704.2</ele>
        <time>2025-09-20T09:45:31Z</time>
      </trkpt>
      <trkpt lat="46.19509" lon="4.60055">
        <ele>704.2</ele>
        <time>2025-09-20T09:45:32Z</time>
      </trkpt>
      <trkpt lat="46.19508" lon="4.60053">
        <ele>704.4</ele>
        <time>2025-09-20T09:45:33Z</time>
      </trkpt>
      <trkpt lat="46.19507" lon="4.6005">
        <ele>704.4</ele>
        <time>2025-09-20T09:45:34Z</time>
      </trkpt>
      <trkpt lat="46.19506" lon="4.60048">
        <ele>704.4</ele>
        <time>2025-09-20T09:45:35Z</time>
      </trkpt>
      <trkpt lat="46.19504" lon="4.60046">
        <ele>704.4</ele>
        <time>2025-09-20T09:45:36Z</time>
      </trkpt>
      <trkpt lat="46.19503" lon="4.60044">
        <ele>704.4</ele>
        <time>2025-09-20T09:45:37Z</time>
      </trkpt>
      <trkpt lat="46.19502" lon="4.60041">
        <ele>704.8</ele>
        <time>2025-09-20T09:45:38Z</time>
      </trkpt>
      <trkpt lat="46.19502" lon="4.60039">
        <ele>704.8</ele>
        <time>2025-09-20T09:45:39Z</time>
      </trkpt>
      <trkpt lat="46.19501" lon="4.60036">
        <ele>705</ele>
        <time>2025-09-20T09:45:40Z</time>
      </trkpt>
      <trkpt lat="46.195" lon="4.60034">
        <ele>705</ele>
        <time>2025-09-20T09:45:41Z</time>
      </trkpt>
      <trkpt lat="46.195" lon="4.60031">
        <ele>705</ele>
        <time>2025-09-20T09:45:42Z</time>
      </trkpt>
      <trkpt lat="46.195" lon="4.60029">
        <ele>705.6</ele>
        <time>2025-09-20T09:45:43Z</time>
      </trkpt>
      <trkpt lat="46.19499" lon="4.60026">
        <ele>705.6</ele>
        <time>2025-09-20T09:45:44Z</time>
      </trkpt>
      <trkpt lat="46.19498" lon="4.60023">
        <ele>705.6</ele>
        <time>2025-09-20T09:45:45Z</time>
      </trkpt>
      <trkpt lat="46.19497" lon="4.60021">
        <ele>705.8</ele>
        <time>2025-09-20T09:45:46Z</time>
      </trkpt>
      <trkpt lat="46.19496" lon="4.60019">
        <ele>705.8</ele>
        <time>2025-09-20T09:45:47Z</time>
      </trkpt>
      <trkpt lat="46.19496" lon="4.60016">
        <ele>705.8</ele>
        <time>2025-09-20T09:45:48Z</time>
      </trkpt>
      <trkpt lat="46.19495" lon="4.60014">
        <ele>705.8</ele>
        <time>2025-09-20T09:45:49Z</time>
      </trkpt>
      <trkpt lat="46.19494" lon="4.60011">
        <ele>705.8</ele>
        <time>2025-09-20T09:45:50Z</time>
      </trkpt>
      <trkpt lat="46.19493" lon="4.60009">
        <ele>705.8</ele>
        <time>2025-09-20T09:45:51Z</time>
      </trkpt>
      <trkpt lat="46.19492" lon="4.60007">
        <ele>706</ele>
        <time>2025-09-20T09:45:52Z</time>
      </trkpt>
      <trkpt lat="46.19491" lon="4.60005">
        <ele>706</ele>
        <time>2025-09-20T09:45:53Z</time>
      </trkpt>
      <trkpt lat="46.1949" lon="4.60003">
        <ele>706</ele>
        <time>2025-09-20T09:45:54Z</time>
      </trkpt>
      <trkpt lat="46.19489" lon="4.60001">
        <ele>706</ele>
        <time>2025-09-20T09:45:55Z</time>
      </trkpt>
      <trkpt lat="46.19489" lon="4.59999">
        <ele>706.6</ele>
        <time>2025-09-20T09:45:56Z</time>
      </trkpt>
      <trkpt lat="46.19488" lon="4.59996">
        <ele>706.8</ele>
        <time>2025-09-20T09:45:57Z</time>
      </trkpt>
      <trkpt lat="46.19487" lon="4.59994">
        <ele>706.8</ele>
        <time>2025-09-20T09:45:58Z</time>
      </trkpt>
      <trkpt lat="46.19486" lon="4.59991">
        <ele>707.2</ele>
        <time>2025-09-20T09:45:59Z</time>
      </trkpt>
      <trkpt lat="46.19486" lon="4.59991">
        <ele>707.4</ele>
        <time>2025-09-20T09:46:00Z</time>
      </trkpt>
      <trkpt lat="46.19486" lon="4.59988">
        <ele>707.4</ele>
        <time>2025-09-20T09:46:01Z</time>
      </trkpt>
      <trkpt lat="46.19485" lon="4.59986">
        <ele>707.8</ele>
        <time>2025-09-20T09:46:02Z</time>
      </trkpt>
      <trkpt lat="46.19484" lon="4.59983">
        <ele>707.8</ele>
        <time>2025-09-20T09:46:03Z</time>
      </trkpt>
      <trkpt lat="46.19483" lon="4.5998">
        <ele>707.8</ele>
        <time>2025-09-20T09:46:04Z</time>
      </trkpt>
      <trkpt lat="46.19482" lon="4.59977">
        <ele>708</ele>
        <time>2025-09-20T09:46:05Z</time>
      </trkpt>
      <trkpt lat="46.19481" lon="4.59974">
        <ele>708</ele>
        <time>2025-09-20T09:46:06Z</time>
      </trkpt>
      <trkpt lat="46.1948" lon="4.59972">
        <ele>708</ele>
        <time>2025-09-20T09:46:07Z</time>
      </trkpt>
      <trkpt lat="46.19479" lon="4.59969">
        <ele>708.4</ele>
        <time>2025-09-20T09:46:08Z</time>
      </trkpt>
      <trkpt lat="46.19477" lon="4.59967">
        <ele>708.4</ele>
        <time>2025-09-20T09:46:09Z</time>
      </trkpt>
      <trkpt lat="46.19476" lon="4.59964">
        <ele>708.4</ele>
        <time>2025-09-20T09:46:10Z</time>
      </trkpt>
      <trkpt lat="46.19474" lon="4.59962">
        <ele>708.4</ele>
        <time>2025-09-20T09:46:11Z</time>
      </trkpt>
      <trkpt lat="46.19473" lon="4.5996">
        <ele>708.4</ele>
        <time>2025-09-20T09:46:12Z</time>
      </trkpt>
      <trkpt lat="46.19471" lon="4.59957">
        <ele>708.8</ele>
        <time>2025-09-20T09:46:13Z</time>
      </trkpt>
      <trkpt lat="46.1947" lon="4.59954">
        <ele>708.8</ele>
        <time>2025-09-20T09:46:14Z</time>
      </trkpt>
      <trkpt lat="46.19469" lon="4.59952">
        <ele>708.8</ele>
        <time>2025-09-20T09:46:15Z</time>
      </trkpt>
      <trkpt lat="46.19468" lon="4.59949">
        <ele>708.8</ele>
        <time>2025-09-20T09:46:16Z</time>
      </trkpt>
      <trkpt lat="46.19468" lon="4.59947">
        <ele>708.8</ele>
        <time>2025-09-20T09:46:17Z</time>
      </trkpt>
      <trkpt lat="46.19467" lon="4.59943">
        <ele>709.2</ele>
        <time>2025-09-20T09:46:18Z</time>
      </trkpt>
      <trkpt lat="46.19466" lon="4.59941">
        <ele>709.2</ele>
        <time>2025-09-20T09:46:19Z</time>
      </trkpt>
      <trkpt lat="46.19465" lon="4.59938">
        <ele>709.2</ele>
        <time>2025-09-20T09:46:20Z</time>
      </trkpt>
      <trkpt lat="46.19464" lon="4.59936">
        <ele>709.2</ele>
        <time>2025-09-20T09:46:21Z</time>
      </trkpt>
      <trkpt lat="46.19462" lon="4.59933">
        <ele>709.2</ele>
        <time>2025-09-20T09:46:22Z</time>
      </trkpt>
      <trkpt lat="46.19461" lon="4.59931">
        <ele>709.6</ele>
        <time>2025-09-20T09:46:23Z</time>
      </trkpt>
      <trkpt lat="46.19459" lon="4.59928">
        <ele>709.6</ele>
        <time>2025-09-20T09:46:24Z</time>
      </trkpt>
      <trkpt lat="46.19458" lon="4.59925">
        <ele>709.8</ele>
        <time>2025-09-20T09:46:25Z</time>
      </trkpt>
      <trkpt lat="46.19457" lon="4.59922">
        <ele>709.8</ele>
        <time>2025-09-20T09:46:26Z</time>
      </trkpt>
      <trkpt lat="46.19455" lon="4.5992">
        <ele>710</ele>
        <time>2025-09-20T09:46:27Z</time>
      </trkpt>
      <trkpt lat="46.19454" lon="4.59918">
        <ele>710</ele>
        <time>2025-09-20T09:46:28Z</time>
      </trkpt>
      <trkpt lat="46.19452" lon="4.59916">
        <ele>710.2</ele>
        <time>2025-09-20T09:46:29Z</time>
      </trkpt>
      <trkpt lat="46.19451" lon="4.59914">
        <ele>710.2</ele>
        <time>2025-09-20T09:46:30Z</time>
      </trkpt>
      <trkpt lat="46.1945" lon="4.59911">
        <ele>710.2</ele>
        <time>2025-09-20T09:46:31Z</time>
      </trkpt>
      <trkpt lat="46.19448" lon="4.59908">
        <ele>710.6</ele>
        <time>2025-09-20T09:46:32Z</time>
      </trkpt>
      <trkpt lat="46.19447" lon="4.59906">
        <ele>710.6</ele>
        <time>2025-09-20T09:46:33Z</time>
      </trkpt>
      <trkpt lat="46.19446" lon="4.59904">
        <ele>710.6</ele>
        <time>2025-09-20T09:46:34Z</time>
      </trkpt>
      <trkpt lat="46.19445" lon="4.59901">
        <ele>710.8</ele>
        <time>2025-09-20T09:46:35Z</time>
      </trkpt>
      <trkpt lat="46.19445" lon="4.59898">
        <ele>711</ele>
        <time>2025-09-20T09:46:36Z</time>
      </trkpt>
      <trkpt lat="46.19444" lon="4.59895">
        <ele>711.2</ele>
        <time>2025-09-20T09:46:37Z</time>
      </trkpt>
      <trkpt lat="46.19443" lon="4.59893">
        <ele>711.2</ele>
        <time>2025-09-20T09:46:38Z</time>
      </trkpt>
      <trkpt lat="46.19441" lon="4.5989">
        <ele>711.2</ele>
        <time>2025-09-20T09:46:39Z</time>
      </trkpt>
      <trkpt lat="46.1944" lon="4.59888">
        <ele>711.6</ele>
        <time>2025-09-20T09:46:40Z</time>
      </trkpt>
      <trkpt lat="46.19439" lon="4.59886">
        <ele>711.6</ele>
        <time>2025-09-20T09:46:41Z</time>
      </trkpt>
      <trkpt lat="46.19437" lon="4.59885">
        <ele>712</ele>
        <time>2025-09-20T09:46:42Z</time>
      </trkpt>
      <trkpt lat="46.19435" lon="4.59884">
        <ele>712.4</ele>
        <time>2025-09-20T09:46:43Z</time>
      </trkpt>
      <trkpt lat="46.19434" lon="4.59883">
        <ele>712.4</ele>
        <time>2025-09-20T09:46:44Z</time>
      </trkpt>
      <trkpt lat="46.19432" lon="4.59881">
        <ele>712.4</ele>
        <time>2025-09-20T09:46:45Z</time>
      </trkpt>
      <trkpt lat="46.19431" lon="4.59879">
        <ele>712.4</ele>
        <time>2025-09-20T09:46:46Z</time>
      </trkpt>
      <trkpt lat="46.1943" lon="4.59876">
        <ele>712.4</ele>
        <time>2025-09-20T09:46:47Z</time>
      </trkpt>
      <trkpt lat="46.19428" lon="4.59874">
        <ele>712.6</ele>
        <time>2025-09-20T09:46:48Z</time>
      </trkpt>
      <trkpt lat="46.19427" lon="4.59872">
        <ele>712.6</ele>
        <time>2025-09-20T09:46:49Z</time>
      </trkpt>
      <trkpt lat="46.19426" lon="4.5987">
        <ele>712.6</ele>
        <time>2025-09-20T09:46:50Z</time>
      </trkpt>
      <trkpt lat="46.19426" lon="4.59868">
        <ele>712.6</ele>
        <time>2025-09-20T09:46:51Z</time>
      </trkpt>
      <trkpt lat="46.19425" lon="4.59865">
        <ele>712.6</ele>
        <time>2025-09-20T09:46:52Z</time>
      </trkpt>
      <trkpt lat="46.19424" lon="4.59864">
        <ele>712.8</ele>
        <time>2025-09-20T09:46:53Z</time>
      </trkpt>
      <trkpt lat="46.19423" lon="4.59862">
        <ele>712.8</ele>
        <time>2025-09-20T09:46:54Z</time>
      </trkpt>
      <trkpt lat="46.19421" lon="4.5986">
        <ele>712.8</ele>
        <time>2025-09-20T09:46:55Z</time>
      </trkpt>
      <trkpt lat="46.1942" lon="4.59857">
        <ele>713</ele>
        <time>2025-09-20T09:46:56Z</time>
      </trkpt>
      <trkpt lat="46.19419" lon="4.59855">
        <ele>713.2</ele>
        <time>2025-09-20T09:46:57Z</time>
      </trkpt>
      <trkpt lat="46.19417" lon="4.59854">
        <ele>713.2</ele>
        <time>2025-09-20T09:46:58Z</time>
      </trkpt>
      <trkpt lat="46.19416" lon="4.59852">
        <ele>713.2</ele>
        <time>2025-09-20T09:46:59Z</time>
      </trkpt>
      <trkpt lat="46.19414" lon="4.5985">
        <ele>713.6</ele>
        <time>2025-09-20T09:47:00Z</time>
      </trkpt>
      <trkpt lat="46.19413" lon="4.59848">
        <ele>713.6</ele>
        <time>2025-09-20T09:47:01Z</time>
      </trkpt>
      <trkpt lat="46.19411" lon="4.59845">
        <ele>714</ele>
        <time>2025-09-20T09:47:02Z</time>
      </trkpt>
      <trkpt lat="46.19409" lon="4.59842">
        <ele>714</ele>
        <time>2025-09-20T09:47:03Z</time>
      </trkpt>
      <trkpt lat="46.19408" lon="4.5984">
        <ele>714</ele>
        <time>2025-09-20T09:47:04Z</time>
      </trkpt>
      <trkpt lat="46.19406" lon="4.59838">
        <ele>714.2</ele>
        <time>2025-09-20T09:47:05Z</time>
      </trkpt>
      <trkpt lat="46.19405" lon="4.59836">
        <ele>714.2</ele>
        <time>2025-09-20T09:47:06Z</time>
      </trkpt>
      <trkpt lat="46.19403" lon="4.59833">
        <ele>714.2</ele>
        <time>2025-09-20T09:47:07Z</time>
      </trkpt>
      <trkpt lat="46.19401" lon="4.59831">
        <ele>714.2</ele>
        <time>2025-09-20T09:47:08Z</time>
      </trkpt>
      <trkpt lat="46.194" lon="4.59828">
        <ele>714.4</ele>
        <time>2025-09-20T09:47:09Z</time>
      </trkpt>
      <trkpt lat="46.19399" lon="4.59825">
        <ele>714.6</ele>
        <time>2025-09-20T09:47:10Z</time>
      </trkpt>
      <trkpt lat="46.19397" lon="4.59822">
        <ele>714.6</ele>
        <time>2025-09-20T09:47:11Z</time>
      </trkpt>
      <trkpt lat="46.19396" lon="4.5982">
        <ele>714.8</ele>
        <time>2025-09-20T09:47:12Z</time>
      </trkpt>
      <trkpt lat="46.19394" lon="4.59818">
        <ele>714.8</ele>
        <time>2025-09-20T09:47:13Z</time>
      </trkpt>
      <trkpt lat="46.19393" lon="4.59815">
        <ele>714.8</ele>
        <time>2025-09-20T09:47:14Z</time>
      </trkpt>
      <trkpt lat="46.19391" lon="4.59813">
        <ele>714.8</ele>
        <time>2025-09-20T09:47:15Z</time>
      </trkpt>
      <trkpt lat="46.1939" lon="4.59811">
        <ele>715.2</ele>
        <time>2025-09-20T09:47:16Z</time>
      </trkpt>
      <trkpt lat="46.19388" lon="4.59808">
        <ele>715.2</ele>
        <time>2025-09-20T09:47:17Z</time>
      </trkpt>
      <trkpt lat="46.19387" lon="4.59805">
        <ele>715.2</ele>
        <time>2025-09-20T09:47:18Z</time>
      </trkpt>
      <trkpt lat="46.19385" lon="4.59803">
        <ele>715.2</ele>
        <time>2025-09-20T09:47:19Z</time>
      </trkpt>
      <trkpt lat="46.19384" lon="4.598">
        <ele>715.2</ele>
        <time>2025-09-20T09:47:20Z</time>
      </trkpt>
      <trkpt lat="46.19383" lon="4.59797">
        <ele>715.4</ele>
        <time>2025-09-20T09:47:21Z</time>
      </trkpt>
      <trkpt lat="46.19381" lon="4.59793">
        <ele>715.4</ele>
        <time>2025-09-20T09:47:22Z</time>
      </trkpt>
      <trkpt lat="46.19379" lon="4.59789">
        <ele>715.4</ele>
        <time>2025-09-20T09:47:23Z</time>
      </trkpt>
      <trkpt lat="46.19378" lon="4.59785">
        <ele>715.4</ele>
        <time>2025-09-20T09:47:24Z</time>
      </trkpt>
      <trkpt lat="46.19376" lon="4.59781">
        <ele>715.4</ele>
        <time>2025-09-20T09:47:25Z</time>
      </trkpt>
      <trkpt lat="46.19375" lon="4.59778">
        <ele>715.4</ele>
        <time>2025-09-20T09:47:26Z</time>
      </trkpt>
      <trkpt lat="46.19373" lon="4.59774">
        <ele>715.6</ele>
        <time>2025-09-20T09:47:27Z</time>
      </trkpt>
      <trkpt lat="46.19371" lon="4.59771">
        <ele>715.8</ele>
        <time>2025-09-20T09:47:28Z</time>
      </trkpt>
      <trkpt lat="46.1937" lon="4.59766">
        <ele>715.8</ele>
        <time>2025-09-20T09:47:29Z</time>
      </trkpt>
      <trkpt lat="46.19368" lon="4.59761">
        <ele>715.8</ele>
        <time>2025-09-20T09:47:30Z</time>
      </trkpt>
      <trkpt lat="46.19366" lon="4.59757">
        <ele>716.2</ele>
        <time>2025-09-20T09:47:31Z</time>
      </trkpt>
      <trkpt lat="46.19364" lon="4.59753">
        <ele>716.2</ele>
        <time>2025-09-20T09:47:32Z</time>
      </trkpt>
      <trkpt lat="46.19362" lon="4.5975">
        <ele>716.4</ele>
        <time>2025-09-20T09:47:33Z</time>
      </trkpt>
      <trkpt lat="46.19361" lon="4.59747">
        <ele>716.4</ele>
        <time>2025-09-20T09:47:34Z</time>
      </trkpt>
      <trkpt lat="46.19358" lon="4.59744">
        <ele>716.8</ele>
        <time>2025-09-20T09:47:35Z</time>
      </trkpt>
      <trkpt lat="46.19356" lon="4.59741">
        <ele>716.8</ele>
        <time>2025-09-20T09:47:36Z</time>
      </trkpt>
      <trkpt lat="46.19354" lon="4.59737">
        <ele>716.8</ele>
        <time>2025-09-20T09:47:37Z</time>
      </trkpt>
      <trkpt lat="46.19353" lon="4.59733">
        <ele>717</ele>
        <time>2025-09-20T09:47:38Z</time>
      </trkpt>
      <trkpt lat="46.19351" lon="4.59729">
        <ele>717</ele>
        <time>2025-09-20T09:47:39Z</time>
      </trkpt>
      <trkpt lat="46.1935" lon="4.59725">
        <ele>717.2</ele>
        <time>2025-09-20T09:47:40Z</time>
      </trkpt>
      <trkpt lat="46.19348" lon="4.59722">
        <ele>717.2</ele>
        <time>2025-09-20T09:47:41Z</time>
      </trkpt>
      <trkpt lat="46.19346" lon="4.59718">
        <ele>717.4</ele>
        <time>2025-09-20T09:47:42Z</time>
      </trkpt>
      <trkpt lat="46.19344" lon="4.59715">
        <ele>717.4</ele>
        <time>2025-09-20T09:47:43Z</time>
      </trkpt>
      <trkpt lat="46.19342" lon="4.59711">
        <ele>717.4</ele>
        <time>2025-09-20T09:47:44Z</time>
      </trkpt>
      <trkpt lat="46.19339" lon="4.59708">
        <ele>717.6</ele>
        <time>2025-09-20T09:47:45Z</time>
      </trkpt>
      <trkpt lat="46.19337" lon="4.59704">
        <ele>717.6</ele>
        <time>2025-09-20T09:47:46Z</time>
      </trkpt>
      <trkpt lat="46.19335" lon="4.59701">
        <ele>717.6</ele>
        <time>2025-09-20T09:47:47Z</time>
      </trkpt>
      <trkpt lat="46.19333" lon="4.59698">
        <ele>717.6</ele>
        <time>2025-09-20T09:47:48Z</time>
      </trkpt>
      <trkpt lat="46.19331" lon="4.59695">
        <ele>717.6</ele>
        <time>2025-09-20T09:47:49Z</time>
      </trkpt>
      <trkpt lat="46.19328" lon="4.59691">
        <ele>717.6</ele>
        <time>2025-09-20T09:47:50Z</time>
      </trkpt>
      <trkpt lat="46.19326" lon="4.59686">
        <ele>717.6</ele>
        <time>2025-09-20T09:47:51Z</time>
      </trkpt>
      <trkpt lat="46.19323" lon="4.59682">
        <ele>717.6</ele>
        <time>2025-09-20T09:47:52Z</time>
      </trkpt>
      <trkpt lat="46.19321" lon="4.59679">
        <ele>717.8</ele>
        <time>2025-09-20T09:47:53Z</time>
      </trkpt>
      <trkpt lat="46.19318" lon="4.59675">
        <ele>717.8</ele>
        <time>2025-09-20T09:47:54Z</time>
      </trkpt>
      <trkpt lat="46.19315" lon="4.59669">
        <ele>717.8</ele>
        <time>2025-09-20T09:47:55Z</time>
      </trkpt>
      <trkpt lat="46.19308" lon="4.59657">
        <ele>717.6</ele>
        <time>2025-09-20T09:47:56Z</time>
      </trkpt>
      <trkpt lat="46.19308" lon="4.59657">
        <ele>717.6</ele>
        <time>2025-09-20T09:47:57Z</time>
      </trkpt>
      <trkpt lat="46.19308" lon="4.59657">
        <ele>717.4</ele>
        <time>2025-09-20T09:47:58Z</time>
      </trkpt>
      <trkpt lat="46.19308" lon="4.59657">
        <ele>717</ele>
        <time>2025-09-20T09:47:59Z</time>
      </trkpt>
      <trkpt lat="46.1929" lon="4.59635">
        <ele>716.2</ele>
        <time>2025-09-20T09:48:01Z</time>
      </trkpt>
      <trkpt lat="46.19286" lon="4.59631">
        <ele>716</ele>
        <time>2025-09-20T09:48:02Z</time>
      </trkpt>
      <trkpt lat="46.19283" lon="4.59626">
        <ele>715.6</ele>
        <time>2025-09-20T09:48:03Z</time>
      </trkpt>
      <trkpt lat="46.1928" lon="4.59623">
        <ele>715.4</ele>
        <time>2025-09-20T09:48:04Z</time>
      </trkpt>
      <trkpt lat="46.19275" lon="4.5962">
        <ele>715.4</ele>
        <time>2025-09-20T09:48:05Z</time>
      </trkpt>
      <trkpt lat="46.19269" lon="4.59612">
        <ele>715</ele>
        <time>2025-09-20T09:48:06Z</time>
      </trkpt>
      <trkpt lat="46.19264" lon="4.59607">
        <ele>714.6</ele>
        <time>2025-09-20T09:48:07Z</time>
      </trkpt>
      <trkpt lat="46.1926" lon="4.59603">
        <ele>714.6</ele>
        <time>2025-09-20T09:48:08Z</time>
      </trkpt>
      <trkpt lat="46.19256" lon="4.59597">
        <ele>714.2</ele>
        <time>2025-09-20T09:48:09Z</time>
      </trkpt>
      <trkpt lat="46.1925" lon="4.59592">
        <ele>713.8</ele>
        <time>2025-09-20T09:48:10Z</time>
      </trkpt>
      <trkpt lat="46.19242" lon="4.59591">
        <ele>713.8</ele>
        <time>2025-09-20T09:48:11Z</time>
      </trkpt>
      <trkpt lat="46.19237" lon="4.5959">
        <ele>713.8</ele>
        <time>2025-09-20T09:48:12Z</time>
      </trkpt>
      <trkpt lat="46.19232" lon="4.59589">
        <ele>713.4</ele>
        <time>2025-09-20T09:48:13Z</time>
      </trkpt>
      <trkpt lat="46.19231" lon="4.59593">
        <ele>713.2</ele>
        <time>2025-09-20T09:48:14Z</time>
      </trkpt>
      <trkpt lat="46.19229" lon="4.59595">
        <ele>713.2</ele>
        <time>2025-09-20T09:48:15Z</time>
      </trkpt>
      <trkpt lat="46.1923" lon="4.59593">
        <ele>713.2</ele>
        <time>2025-09-20T09:48:16Z</time>
      </trkpt>
      <trkpt lat="46.1923" lon="4.59593">
        <ele>712.8</ele>
        <time>2025-09-20T09:48:17Z</time>
      </trkpt>
      <trkpt lat="46.19226" lon="4.59596">
        <ele>712.4</ele>
        <time>2025-09-20T09:48:44Z</time>
      </trkpt>
      <trkpt lat="46.19226" lon="4.59595">
        <ele>712</ele>
        <time>2025-09-20T09:48:45Z</time>
      </trkpt>
      <trkpt lat="46.19223" lon="4.59596">
        <ele>712</ele>
        <time>2025-09-20T09:48:46Z</time>
      </trkpt>
      <trkpt lat="46.19223" lon="4.59595">
        <ele>711.8</ele>
        <time>2025-09-20T09:48:47Z</time>
      </trkpt>
      <trkpt lat="46.19222" lon="4.59596">
        <ele>711.8</ele>
        <time>2025-09-20T09:48:48Z</time>
      </trkpt>
      <trkpt lat="46.19223" lon="4.59596">
        <ele>711.8</ele>
        <time>2025-09-20T09:48:49Z</time>
      </trkpt>
      <trkpt lat="46.19221" lon="4.59591">
        <ele>712.2</ele>
        <time>2025-09-20T09:50:51Z</time>
      </trkpt>
      <trkpt lat="46.19217" lon="4.59591">
        <ele>711.8</ele>
        <time>2025-09-20T09:50:52Z</time>
      </trkpt>
      <trkpt lat="46.19214" lon="4.59592">
        <ele>711.6</ele>
        <time>2025-09-20T09:50:53Z</time>
      </trkpt>
      <trkpt lat="46.19208" lon="4.59593">
        <ele>711.4</ele>
        <time>2025-09-20T09:50:54Z</time>
      </trkpt>
      <trkpt lat="46.19202" lon="4.59594">
        <ele>711.4</ele>
        <time>2025-09-20T09:50:55Z</time>
      </trkpt>
      <trkpt lat="46.19197" lon="4.59595">
        <ele>711</ele>
        <time>2025-09-20T09:50:56Z</time>
      </trkpt>
      <trkpt lat="46.19191" lon="4.59597">
        <ele>710.8</ele>
        <time>2025-09-20T09:50:57Z</time>
      </trkpt>
      <trkpt lat="46.19188" lon="4.59598">
        <ele>710.8</ele>
        <time>2025-09-20T09:50:58Z</time>
      </trkpt>
      <trkpt lat="46.19179" lon="4.59598">
        <ele>710.2</ele>
        <time>2025-09-20T09:50:59Z</time>
      </trkpt>
      <trkpt lat="46.19173" lon="4.596">
        <ele>710</ele>
        <time>2025-09-20T09:51:00Z</time>
      </trkpt>
      <trkpt lat="46.19167" lon="4.59601">
        <ele>710</ele>
        <time>2025-09-20T09:51:01Z</time>
      </trkpt>
      <trkpt lat="46.19161" lon="4.59603">
        <ele>709.4</ele>
        <time>2025-09-20T09:51:02Z</time>
      </trkpt>
      <trkpt lat="46.19155" lon="4.59604">
        <ele>709.4</ele>
        <time>2025-09-20T09:51:03Z</time>
      </trkpt>
      <trkpt lat="46.19148" lon="4.59608">
        <ele>709.4</ele>
        <time>2025-09-20T09:51:04Z</time>
      </trkpt>
      <trkpt lat="46.1914" lon="4.59611">
        <ele>708.8</ele>
        <time>2025-09-20T09:51:05Z</time>
      </trkpt>
      <trkpt lat="46.19133" lon="4.59614">
        <ele>708</ele>
        <time>2025-09-20T09:51:06Z</time>
      </trkpt>
      <trkpt lat="46.19127" lon="4.59616">
        <ele>707.6</ele>
        <time>2025-09-20T09:51:07Z</time>
      </trkpt>
      <trkpt lat="46.19122" lon="4.59619">
        <ele>706.2</ele>
        <time>2025-09-20T09:51:08Z</time>
      </trkpt>
      <trkpt lat="46.19118" lon="4.59622">
        <ele>707</ele>
        <time>2025-09-20T09:51:09Z</time>
      </trkpt>
      <trkpt lat="46.19112" lon="4.59625">
        <ele>707</ele>
        <time>2025-09-20T09:51:10Z</time>
      </trkpt>
      <trkpt lat="46.19107" lon="4.59626">
        <ele>706.8</ele>
        <time>2025-09-20T09:51:11Z</time>
      </trkpt>
      <trkpt lat="46.19102" lon="4.59628">
        <ele>706.8</ele>
        <time>2025-09-20T09:51:12Z</time>
      </trkpt>
      <trkpt lat="46.19096" lon="4.59632">
        <ele>706.2</ele>
        <time>2025-09-20T09:51:13Z</time>
      </trkpt>
      <trkpt lat="46.1909" lon="4.59634">
        <ele>705.6</ele>
        <time>2025-09-20T09:51:14Z</time>
      </trkpt>
      <trkpt lat="46.19083" lon="4.59637">
        <ele>705.4</ele>
        <time>2025-09-20T09:51:15Z</time>
      </trkpt>
      <trkpt lat="46.19077" lon="4.59639">
        <ele>705.4</ele>
        <time>2025-09-20T09:51:16Z</time>
      </trkpt>
      <trkpt lat="46.19069" lon="4.59643">
        <ele>704.8</ele>
        <time>2025-09-20T09:51:17Z</time>
      </trkpt>
      <trkpt lat="46.19062" lon="4.59644">
        <ele>704.2</ele>
        <time>2025-09-20T09:51:18Z</time>
      </trkpt>
      <trkpt lat="46.19053" lon="4.59647">
        <ele>703.8</ele>
        <time>2025-09-20T09:51:19Z</time>
      </trkpt>
      <trkpt lat="46.19047" lon="4.59649">
        <ele>703.6</ele>
        <time>2025-09-20T09:51:20Z</time>
      </trkpt>
      <trkpt lat="46.19039" lon="4.59652">
        <ele>703.6</ele>
        <time>2025-09-20T09:51:21Z</time>
      </trkpt>
      <trkpt lat="46.19032" lon="4.59655">
        <ele>703</ele>
        <time>2025-09-20T09:51:22Z</time>
      </trkpt>
      <trkpt lat="46.19024" lon="4.59656">
        <ele>703</ele>
        <time>2025-09-20T09:51:23Z</time>
      </trkpt>
      <trkpt lat="46.19019" lon="4.59657">
        <ele>703</ele>
        <time>2025-09-20T09:51:24Z</time>
      </trkpt>
      <trkpt lat="46.19011" lon="4.59657">
        <ele>702.4</ele>
        <time>2025-09-20T09:51:25Z</time>
      </trkpt>
      <trkpt lat="46.19004" lon="4.59656">
        <ele>701.8</ele>
        <time>2025-09-20T09:51:26Z</time>
      </trkpt>
      <trkpt lat="46.18995" lon="4.59658">
        <ele>701.2</ele>
        <time>2025-09-20T09:51:27Z</time>
      </trkpt>
      <trkpt lat="46.18988" lon="4.59656">
        <ele>700.6</ele>
        <time>2025-09-20T09:51:28Z</time>
      </trkpt>
      <trkpt lat="46.18981" lon="4.59656">
        <ele>700.6</ele>
        <time>2025-09-20T09:51:29Z</time>
      </trkpt>
      <trkpt lat="46.18973" lon="4.59654">
        <ele>700.4</ele>
        <time>2025-09-20T09:51:30Z</time>
      </trkpt>
      <trkpt lat="46.18967" lon="4.59652">
        <ele>700.2</ele>
        <time>2025-09-20T09:51:31Z</time>
      </trkpt>
      <trkpt lat="46.18962" lon="4.5965">
        <ele>699.8</ele>
        <time>2025-09-20T09:51:32Z</time>
      </trkpt>
      <trkpt lat="46.18958" lon="4.59652">
        <ele>699.8</ele>
        <time>2025-09-20T09:51:33Z</time>
      </trkpt>
      <trkpt lat="46.18955" lon="4.59655">
        <ele>699.8</ele>
        <time>2025-09-20T09:51:34Z</time>
      </trkpt>
      <trkpt lat="46.18951" lon="4.59657">
        <ele>699.8</ele>
        <time>2025-09-20T09:51:35Z</time>
      </trkpt>
      <trkpt lat="46.18949" lon="4.59659">
        <ele>700.2</ele>
        <time>2025-09-20T09:51:36Z</time>
      </trkpt>
      <trkpt lat="46.18947" lon="4.59661">
        <ele>700.6</ele>
        <time>2025-09-20T09:51:37Z</time>
      </trkpt>
      <trkpt lat="46.18945" lon="4.59663">
        <ele>700.6</ele>
        <time>2025-09-20T09:51:38Z</time>
      </trkpt>
      <trkpt lat="46.18943" lon="4.59664">
        <ele>700.6</ele>
        <time>2025-09-20T09:51:39Z</time>
      </trkpt>
      <trkpt lat="46.18942" lon="4.59665">
        <ele>701</ele>
        <time>2025-09-20T09:51:40Z</time>
      </trkpt>
      <trkpt lat="46.18939" lon="4.59666">
        <ele>701.4</ele>
        <time>2025-09-20T09:51:41Z</time>
      </trkpt>
      <trkpt lat="46.18938" lon="4.59669">
        <ele>701.6</ele>
        <time>2025-09-20T09:51:42Z</time>
      </trkpt>
      <trkpt lat="46.18937" lon="4.5967">
        <ele>701.8</ele>
        <time>2025-09-20T09:51:43Z</time>
      </trkpt>
      <trkpt lat="46.18937" lon="4.59672">
        <ele>702</ele>
        <time>2025-09-20T09:51:44Z</time>
      </trkpt>
      <trkpt lat="46.18936" lon="4.59673">
        <ele>702</ele>
        <time>2025-09-20T09:51:45Z</time>
      </trkpt>
      <trkpt lat="46.18934" lon="4.59674">
        <ele>703</ele>
        <time>2025-09-20T09:51:46Z</time>
      </trkpt>
      <trkpt lat="46.18933" lon="4.59674">
        <ele>703.4</ele>
        <time>2025-09-20T09:51:47Z</time>
      </trkpt>
      <trkpt lat="46.18932" lon="4.59673">
        <ele>703.6</ele>
        <time>2025-09-20T09:51:48Z</time>
      </trkpt>
      <trkpt lat="46.1893" lon="4.59672">
        <ele>704.2</ele>
        <time>2025-09-20T09:51:49Z</time>
      </trkpt>
      <trkpt lat="46.18928" lon="4.59672">
        <ele>704.4</ele>
        <time>2025-09-20T09:51:50Z</time>
      </trkpt>
      <trkpt lat="46.18926" lon="4.59673">
        <ele>705.4</ele>
        <time>2025-09-20T09:51:51Z</time>
      </trkpt>
      <trkpt lat="46.18926" lon="4.59673">
        <ele>705.4</ele>
        <time>2025-09-20T09:51:52Z</time>
      </trkpt>
      <trkpt lat="46.18924" lon="4.59674">
        <ele>705.8</ele>
        <time>2025-09-20T09:51:53Z</time>
      </trkpt>
      <trkpt lat="46.18922" lon="4.59676">
        <ele>705.8</ele>
        <time>2025-09-20T09:51:54Z</time>
      </trkpt>
      <trkpt lat="46.18921" lon="4.59677">
        <ele>706.2</ele>
        <time>2025-09-20T09:51:55Z</time>
      </trkpt>
      <trkpt lat="46.18919" lon="4.59677">
        <ele>706.6</ele>
        <time>2025-09-20T09:51:56Z</time>
      </trkpt>
      <trkpt lat="46.18917" lon="4.59677">
        <ele>706.8</ele>
        <time>2025-09-20T09:51:57Z</time>
      </trkpt>
      <trkpt lat="46.18915" lon="4.59677">
        <ele>707.4</ele>
        <time>2025-09-20T09:51:58Z</time>
      </trkpt>
      <trkpt lat="46.18913" lon="4.59676">
        <ele>707.6</ele>
        <time>2025-09-20T09:51:59Z</time>
      </trkpt>
      <trkpt lat="46.18912" lon="4.59676">
        <ele>707.6</ele>
        <time>2025-09-20T09:52:00Z</time>
      </trkpt>
      <trkpt lat="46.1891" lon="4.59676">
        <ele>707.6</ele>
        <time>2025-09-20T09:52:01Z</time>
      </trkpt>
      <trkpt lat="46.18908" lon="4.59676">
        <ele>707.6</ele>
        <time>2025-09-20T09:52:02Z</time>
      </trkpt>
      <trkpt lat="46.18907" lon="4.59676">
        <ele>707.8</ele>
        <time>2025-09-20T09:52:03Z</time>
      </trkpt>
      <trkpt lat="46.18905" lon="4.59676">
        <ele>708</ele>
        <time>2025-09-20T09:52:04Z</time>
      </trkpt>
      <trkpt lat="46.18904" lon="4.59676">
        <ele>708</ele>
        <time>2025-09-20T09:52:05Z</time>
      </trkpt>
      <trkpt lat="46.18902" lon="4.59676">
        <ele>708.2</ele>
        <time>2025-09-20T09:52:06Z</time>
      </trkpt>
      <trkpt lat="46.18901" lon="4.59676">
        <ele>708.4</ele>
        <time>2025-09-20T09:52:07Z</time>
      </trkpt>
      <trkpt lat="46.189" lon="4.59677">
        <ele>708.4</ele>
        <time>2025-09-20T09:52:08Z</time>
      </trkpt>
      <trkpt lat="46.18898" lon="4.59677">
        <ele>708.4</ele>
        <time>2025-09-20T09:52:09Z</time>
      </trkpt>
      <trkpt lat="46.18896" lon="4.59678">
        <ele>708.4</ele>
        <time>2025-09-20T09:52:10Z</time>
      </trkpt>
      <trkpt lat="46.18895" lon="4.59678">
        <ele>708.4</ele>
        <time>2025-09-20T09:52:11Z</time>
      </trkpt>
      <trkpt lat="46.18894" lon="4.59678">
        <ele>708.8</ele>
        <time>2025-09-20T09:52:12Z</time>
      </trkpt>
      <trkpt lat="46.18893" lon="4.59679">
        <ele>709.2</ele>
        <time>2025-09-20T09:52:13Z</time>
      </trkpt>
      <trkpt lat="46.18891" lon="4.59679">
        <ele>709.4</ele>
        <time>2025-09-20T09:52:14Z</time>
      </trkpt>
      <trkpt lat="46.1889" lon="4.59679">
        <ele>709.8</ele>
        <time>2025-09-20T09:52:15Z</time>
      </trkpt>
      <trkpt lat="46.18888" lon="4.59678">
        <ele>709.8</ele>
        <time>2025-09-20T09:52:16Z</time>
      </trkpt>
      <trkpt lat="46.18886" lon="4.59677">
        <ele>710.2</ele>
        <time>2025-09-20T09:52:17Z</time>
      </trkpt>
      <trkpt lat="46.18885" lon="4.59677">
        <ele>709.2</ele>
        <time>2025-09-20T09:52:18Z</time>
      </trkpt>
      <trkpt lat="46.18883" lon="4.59677">
        <ele>709.6</ele>
        <time>2025-09-20T09:52:19Z</time>
      </trkpt>
      <trkpt lat="46.18881" lon="4.59677">
        <ele>710</ele>
        <time>2025-09-20T09:52:20Z</time>
      </trkpt>
      <trkpt lat="46.1888" lon="4.59676">
        <ele>710.4</ele>
        <time>2025-09-20T09:52:21Z</time>
      </trkpt>
      <trkpt lat="46.18879" lon="4.59675">
        <ele>710.4</ele>
        <time>2025-09-20T09:52:22Z</time>
      </trkpt>
      <trkpt lat="46.18877" lon="4.59674">
        <ele>710.4</ele>
        <time>2025-09-20T09:52:23Z</time>
      </trkpt>
      <trkpt lat="46.18875" lon="4.59673">
        <ele>710.6</ele>
        <time>2025-09-20T09:52:24Z</time>
      </trkpt>
      <trkpt lat="46.18874" lon="4.59672">
        <ele>710.6</ele>
        <time>2025-09-20T09:52:25Z</time>
      </trkpt>
      <trkpt lat="46.18872" lon="4.59671">
        <ele>710.6</ele>
        <time>2025-09-20T09:52:26Z</time>
      </trkpt>
      <trkpt lat="46.1887" lon="4.59672">
        <ele>710.8</ele>
        <time>2025-09-20T09:52:27Z</time>
      </trkpt>
      <trkpt lat="46.18868" lon="4.59672">
        <ele>711.2</ele>
        <time>2025-09-20T09:52:28Z</time>
      </trkpt>
      <trkpt lat="46.18867" lon="4.59672">
        <ele>711.2</ele>
        <time>2025-09-20T09:52:29Z</time>
      </trkpt>
      <trkpt lat="46.18866" lon="4.59671">
        <ele>711.2</ele>
        <time>2025-09-20T09:52:30Z</time>
      </trkpt>
      <trkpt lat="46.18865" lon="4.59671">
        <ele>711.4</ele>
        <time>2025-09-20T09:52:31Z</time>
      </trkpt>
      <trkpt lat="46.18864" lon="4.5967">
        <ele>711.8</ele>
        <time>2025-09-20T09:52:32Z</time>
      </trkpt>
      <trkpt lat="46.18863" lon="4.59669">
        <ele>712</ele>
        <time>2025-09-20T09:52:33Z</time>
      </trkpt>
      <trkpt lat="46.18861" lon="4.59669">
        <ele>712</ele>
        <time>2025-09-20T09:52:34Z</time>
      </trkpt>
      <trkpt lat="46.18859" lon="4.5967">
        <ele>712</ele>
        <time>2025-09-20T09:52:35Z</time>
      </trkpt>
      <trkpt lat="46.18858" lon="4.59669">
        <ele>712</ele>
        <time>2025-09-20T09:52:36Z</time>
      </trkpt>
      <trkpt lat="46.18856" lon="4.59669">
        <ele>712.4</ele>
        <time>2025-09-20T09:52:37Z</time>
      </trkpt>
      <trkpt lat="46.18854" lon="4.59668">
        <ele>712.4</ele>
        <time>2025-09-20T09:52:38Z</time>
      </trkpt>
      <trkpt lat="46.18852" lon="4.59668">
        <ele>712.8</ele>
        <time>2025-09-20T09:52:39Z</time>
      </trkpt>
      <trkpt lat="46.18851" lon="4.59667">
        <ele>713</ele>
        <time>2025-09-20T09:52:40Z</time>
      </trkpt>
      <trkpt lat="46.18849" lon="4.59666">
        <ele>713</ele>
        <time>2025-09-20T09:52:41Z</time>
      </trkpt>
      <trkpt lat="46.18848" lon="4.59665">
        <ele>713.6</ele>
        <time>2025-09-20T09:52:42Z</time>
      </trkpt>
      <trkpt lat="46.18846" lon="4.59664">
        <ele>713.6</ele>
        <time>2025-09-20T09:52:43Z</time>
      </trkpt>
      <trkpt lat="46.18845" lon="4.59663">
        <ele>713.6</ele>
        <time>2025-09-20T09:52:44Z</time>
      </trkpt>
      <trkpt lat="46.18843" lon="4.59663">
        <ele>713.6</ele>
        <time>2025-09-20T09:52:45Z</time>
      </trkpt>
      <trkpt lat="46.18841" lon="4.59662">
        <ele>713.8</ele>
        <time>2025-09-20T09:52:46Z</time>
      </trkpt>
      <trkpt lat="46.18839" lon="4.59661">
        <ele>713.8</ele>
        <time>2025-09-20T09:52:47Z</time>
      </trkpt>
      <trkpt lat="46.18838" lon="4.5966">
        <ele>713.8</ele>
        <time>2025-09-20T09:52:48Z</time>
      </trkpt>
      <trkpt lat="46.18836" lon="4.59659">
        <ele>713.8</ele>
        <time>2025-09-20T09:52:49Z</time>
      </trkpt>
      <trkpt lat="46.18835" lon="4.59657">
        <ele>713.8</ele>
        <time>2025-09-20T09:52:50Z</time>
      </trkpt>
      <trkpt lat="46.18833" lon="4.59655">
        <ele>713.8</ele>
        <time>2025-09-20T09:52:51Z</time>
      </trkpt>
      <trkpt lat="46.18832" lon="4.59653">
        <ele>713.8</ele>
        <time>2025-09-20T09:52:52Z</time>
      </trkpt>
      <trkpt lat="46.18831" lon="4.59651">
        <ele>713.8</ele>
        <time>2025-09-20T09:52:53Z</time>
      </trkpt>
      <trkpt lat="46.18831" lon="4.59648">
        <ele>713.8</ele>
        <time>2025-09-20T09:52:54Z</time>
      </trkpt>
      <trkpt lat="46.1883" lon="4.59645">
        <ele>713.8</ele>
        <time>2025-09-20T09:52:55Z</time>
      </trkpt>
      <trkpt lat="46.18829" lon="4.59642">
        <ele>713.8</ele>
        <time>2025-09-20T09:52:56Z</time>
      </trkpt>
      <trkpt lat="46.18828" lon="4.59639">
        <ele>713.6</ele>
        <time>2025-09-20T09:52:57Z</time>
      </trkpt>
      <trkpt lat="46.18827" lon="4.59636">
        <ele>713.6</ele>
        <time>2025-09-20T09:52:58Z</time>
      </trkpt>
      <trkpt lat="46.18826" lon="4.59633">
        <ele>713</ele>
        <time>2025-09-20T09:52:59Z</time>
      </trkpt>
      <trkpt lat="46.18825" lon="4.59629">
        <ele>713</ele>
        <time>2025-09-20T09:53:00Z</time>
      </trkpt>
      <trkpt lat="46.18824" lon="4.59626">
        <ele>713.4</ele>
        <time>2025-09-20T09:53:01Z</time>
      </trkpt>
      <trkpt lat="46.18822" lon="4.59622">
        <ele>713.6</ele>
        <time>2025-09-20T09:53:02Z</time>
      </trkpt>
      <trkpt lat="46.18821" lon="4.59619">
        <ele>713.6</ele>
        <time>2025-09-20T09:53:03Z</time>
      </trkpt>
      <trkpt lat="46.18819" lon="4.59616">
        <ele>714</ele>
        <time>2025-09-20T09:53:04Z</time>
      </trkpt>
      <trkpt lat="46.18817" lon="4.59613">
        <ele>714</ele>
        <time>2025-09-20T09:53:05Z</time>
      </trkpt>
      <trkpt lat="46.18815" lon="4.59609">
        <ele>714.4</ele>
        <time>2025-09-20T09:53:06Z</time>
      </trkpt>
      <trkpt lat="46.18814" lon="4.59607">
        <ele>714.4</ele>
        <time>2025-09-20T09:53:07Z</time>
      </trkpt>
      <trkpt lat="46.18812" lon="4.59606">
        <ele>714.4</ele>
        <time>2025-09-20T09:53:08Z</time>
      </trkpt>
      <trkpt lat="46.1881" lon="4.59605">
        <ele>714.6</ele>
        <time>2025-09-20T09:53:09Z</time>
      </trkpt>
      <trkpt lat="46.18808" lon="4.59602">
        <ele>714.6</ele>
        <time>2025-09-20T09:53:10Z</time>
      </trkpt>
      <trkpt lat="46.18806" lon="4.59601">
        <ele>714.8</ele>
        <time>2025-09-20T09:53:11Z</time>
      </trkpt>
      <trkpt lat="46.18804" lon="4.596">
        <ele>714.6</ele>
        <time>2025-09-20T09:53:12Z</time>
      </trkpt>
      <trkpt lat="46.18803" lon="4.59599">
        <ele>714.6</ele>
        <time>2025-09-20T09:53:13Z</time>
      </trkpt>
      <trkpt lat="46.18801" lon="4.59598">
        <ele>715</ele>
        <time>2025-09-20T09:53:14Z</time>
      </trkpt>
      <trkpt lat="46.188" lon="4.59597">
        <ele>715.4</ele>
        <time>2025-09-20T09:53:15Z</time>
      </trkpt>
      <trkpt lat="46.18799" lon="4.59594">
        <ele>715.6</ele>
        <time>2025-09-20T09:53:16Z</time>
      </trkpt>
      <trkpt lat="46.18797" lon="4.59592">
        <ele>715.6</ele>
        <time>2025-09-20T09:53:17Z</time>
      </trkpt>
      <trkpt lat="46.18795" lon="4.5959">
        <ele>715.6</ele>
        <time>2025-09-20T09:53:18Z</time>
      </trkpt>
      <trkpt lat="46.18792" lon="4.59589">
        <ele>715.8</ele>
        <time>2025-09-20T09:53:19Z</time>
      </trkpt>
      <trkpt lat="46.1879" lon="4.59588">
        <ele>716</ele>
        <time>2025-09-20T09:53:20Z</time>
      </trkpt>
      <trkpt lat="46.18789" lon="4.59586">
        <ele>716</ele>
        <time>2025-09-20T09:53:21Z</time>
      </trkpt>
      <trkpt lat="46.18788" lon="4.59583">
        <ele>716.4</ele>
        <time>2025-09-20T09:53:22Z</time>
      </trkpt>
      <trkpt lat="46.18786" lon="4.5958">
        <ele>716.4</ele>
        <time>2025-09-20T09:53:23Z</time>
      </trkpt>
      <trkpt lat="46.18785" lon="4.59577">
        <ele>716.6</ele>
        <time>2025-09-20T09:53:24Z</time>
      </trkpt>
      <trkpt lat="46.18784" lon="4.59573">
        <ele>716.6</ele>
        <time>2025-09-20T09:53:25Z</time>
      </trkpt>
      <trkpt lat="46.18782" lon="4.5957">
        <ele>716.6</ele>
        <time>2025-09-20T09:53:26Z</time>
      </trkpt>
      <trkpt lat="46.18782" lon="4.59568">
        <ele>716.2</ele>
        <time>2025-09-20T09:53:27Z</time>
      </trkpt>
      <trkpt lat="46.18781" lon="4.59565">
        <ele>716.6</ele>
        <time>2025-09-20T09:53:28Z</time>
      </trkpt>
      <trkpt lat="46.18781" lon="4.59562">
        <ele>717</ele>
        <time>2025-09-20T09:53:29Z</time>
      </trkpt>
      <trkpt lat="46.18779" lon="4.59559">
        <ele>717</ele>
        <time>2025-09-20T09:53:30Z</time>
      </trkpt>
      <trkpt lat="46.18776" lon="4.59556">
        <ele>717.2</ele>
        <time>2025-09-20T09:53:31Z</time>
      </trkpt>
      <trkpt lat="46.18774" lon="4.59555">
        <ele>717.6</ele>
        <time>2025-09-20T09:53:32Z</time>
      </trkpt>
      <trkpt lat="46.18772" lon="4.59553">
        <ele>717.6</ele>
        <time>2025-09-20T09:53:33Z</time>
      </trkpt>
      <trkpt lat="46.18769" lon="4.59551">
        <ele>717.8</ele>
        <time>2025-09-20T09:53:34Z</time>
      </trkpt>
      <trkpt lat="46.18767" lon="4.59548">
        <ele>717.8</ele>
        <time>2025-09-20T09:53:35Z</time>
      </trkpt>
      <trkpt lat="46.18765" lon="4.59547">
        <ele>718.2</ele>
        <time>2025-09-20T09:53:36Z</time>
      </trkpt>
      <trkpt lat="46.18764" lon="4.59546">
        <ele>718.2</ele>
        <time>2025-09-20T09:53:37Z</time>
      </trkpt>
      <trkpt lat="46.18763" lon="4.59545">
        <ele>718.2</ele>
        <time>2025-09-20T09:53:38Z</time>
      </trkpt>
      <trkpt lat="46.18762" lon="4.59542">
        <ele>718.4</ele>
        <time>2025-09-20T09:53:39Z</time>
      </trkpt>
      <trkpt lat="46.18762" lon="4.59539">
        <ele>718.4</ele>
        <time>2025-09-20T09:53:40Z</time>
      </trkpt>
      <trkpt lat="46.18761" lon="4.59535">
        <ele>718.2</ele>
        <time>2025-09-20T09:53:41Z</time>
      </trkpt>
      <trkpt lat="46.1876" lon="4.59533">
        <ele>718</ele>
        <time>2025-09-20T09:53:42Z</time>
      </trkpt>
      <trkpt lat="46.18758" lon="4.59531">
        <ele>718.8</ele>
        <time>2025-09-20T09:53:43Z</time>
      </trkpt>
      <trkpt lat="46.18757" lon="4.59529">
        <ele>719</ele>
        <time>2025-09-20T09:53:44Z</time>
      </trkpt>
      <trkpt lat="46.18756" lon="4.59529">
        <ele>719.2</ele>
        <time>2025-09-20T09:53:45Z</time>
      </trkpt>
      <trkpt lat="46.18755" lon="4.59528">
        <ele>719.2</ele>
        <time>2025-09-20T09:53:46Z</time>
      </trkpt>
      <trkpt lat="46.18754" lon="4.59527">
        <ele>719.6</ele>
        <time>2025-09-20T09:53:47Z</time>
      </trkpt>
      <trkpt lat="46.18752" lon="4.59527">
        <ele>719.6</ele>
        <time>2025-09-20T09:53:48Z</time>
      </trkpt>
      <trkpt lat="46.18751" lon="4.59527">
        <ele>720.2</ele>
        <time>2025-09-20T09:53:49Z</time>
      </trkpt>
      <trkpt lat="46.18749" lon="4.59528">
        <ele>720.4</ele>
        <time>2025-09-20T09:53:50Z</time>
      </trkpt>
      <trkpt lat="46.18748" lon="4.59529">
        <ele>720.4</ele>
        <time>2025-09-20T09:53:51Z</time>
      </trkpt>
      <trkpt lat="46.18747" lon="4.5953">
        <ele>720.4</ele>
        <time>2025-09-20T09:53:52Z</time>
      </trkpt>
      <trkpt lat="46.18747" lon="4.5953">
        <ele>720.6</ele>
        <time>2025-09-20T09:53:53Z</time>
      </trkpt>
      <trkpt lat="46.18747" lon="4.5953">
        <ele>720.6</ele>
        <time>2025-09-20T09:53:54Z</time>
      </trkpt>
      <trkpt lat="46.18747" lon="4.59529">
        <ele>720.6</ele>
        <time>2025-09-20T09:54:00Z</time>
      </trkpt>
      <trkpt lat="46.18747" lon="4.59528">
        <ele>720.6</ele>
        <time>2025-09-20T09:54:01Z</time>
      </trkpt>
      <trkpt lat="46.18747" lon="4.59528">
        <ele>720.6</ele>
        <time>2025-09-20T09:54:02Z</time>
      </trkpt>
      <trkpt lat="46.18747" lon="4.59528">
        <ele>720.6</ele>
        <time>2025-09-20T09:54:03Z</time>
      </trkpt>
      <trkpt lat="46.18747" lon="4.59528">
        <ele>720.6</ele>
        <time>2025-09-20T09:54:04Z</time>
      </trkpt>
      <trkpt lat="46.18748" lon="4.59528">
        <ele>720.6</ele>
        <time>2025-09-20T09:54:05Z</time>
      </trkpt>
      <trkpt lat="46.18748" lon="4.59528">
        <ele>720.4</ele>
        <time>2025-09-20T09:54:06Z</time>
      </trkpt>
      <trkpt lat="46.18749" lon="4.59528">
        <ele>720.4</ele>
        <time>2025-09-20T09:54:07Z</time>
      </trkpt>
      <trkpt lat="46.1875" lon="4.59527">
        <ele>720.4</ele>
        <time>2025-09-20T09:54:08Z</time>
      </trkpt>
      <trkpt lat="46.18752" lon="4.59526">
        <ele>720</ele>
        <time>2025-09-20T09:54:09Z</time>
      </trkpt>
      <trkpt lat="46.18753" lon="4.59525">
        <ele>720.2</ele>
        <time>2025-09-20T09:54:10Z</time>
      </trkpt>
      <trkpt lat="46.18755" lon="4.59525">
        <ele>720.2</ele>
        <time>2025-09-20T09:54:11Z</time>
      </trkpt>
      <trkpt lat="46.18755" lon="4.59524">
        <ele>720.2</ele>
        <time>2025-09-20T09:54:12Z</time>
      </trkpt>
      <trkpt lat="46.18756" lon="4.59522">
        <ele>720</ele>
        <time>2025-09-20T09:54:13Z</time>
      </trkpt>
      <trkpt lat="46.18756" lon="4.5952">
        <ele>720</ele>
        <time>2025-09-20T09:54:14Z</time>
      </trkpt>
      <trkpt lat="46.18756" lon="4.59517">
        <ele>720</ele>
        <time>2025-09-20T09:54:15Z</time>
      </trkpt>
      <trkpt lat="46.18755" lon="4.59511">
        <ele>720</ele>
        <time>2025-09-20T09:54:16Z</time>
      </trkpt>
      <trkpt lat="46.18754" lon="4.59509">
        <ele>720</ele>
        <time>2025-09-20T09:54:17Z</time>
      </trkpt>
      <trkpt lat="46.18754" lon="4.59505">
        <ele>720</ele>
        <time>2025-09-20T09:54:18Z</time>
      </trkpt>
      <trkpt lat="46.18753" lon="4.59502">
        <ele>720</ele>
        <time>2025-09-20T09:54:19Z</time>
      </trkpt>
      <trkpt lat="46.18753" lon="4.59499">
        <ele>720</ele>
        <time>2025-09-20T09:54:20Z</time>
      </trkpt>
      <trkpt lat="46.18753" lon="4.59497">
        <ele>720.4</ele>
        <time>2025-09-20T09:54:21Z</time>
      </trkpt>
      <trkpt lat="46.18752" lon="4.59496">
        <ele>720.8</ele>
        <time>2025-09-20T09:54:22Z</time>
      </trkpt>
      <trkpt lat="46.18752" lon="4.59494">
        <ele>720.8</ele>
        <time>2025-09-20T09:54:23Z</time>
      </trkpt>
      <trkpt lat="46.18752" lon="4.59492">
        <ele>720.8</ele>
        <time>2025-09-20T09:54:24Z</time>
      </trkpt>
      <trkpt lat="46.18751" lon="4.59489">
        <ele>720.8</ele>
        <time>2025-09-20T09:54:25Z</time>
      </trkpt>
      <trkpt lat="46.1875" lon="4.59487">
        <ele>720.8</ele>
        <time>2025-09-20T09:54:26Z</time>
      </trkpt>
      <trkpt lat="46.18749" lon="4.59484">
        <ele>721.2</ele>
        <time>2025-09-20T09:54:27Z</time>
      </trkpt>
      <trkpt lat="46.18749" lon="4.59481">
        <ele>721.2</ele>
        <time>2025-09-20T09:54:28Z</time>
      </trkpt>
      <trkpt lat="46.18748" lon="4.59479">
        <ele>721.4</ele>
        <time>2025-09-20T09:54:29Z</time>
      </trkpt>
      <trkpt lat="46.18748" lon="4.59476">
        <ele>721.6</ele>
        <time>2025-09-20T09:54:30Z</time>
      </trkpt>
      <trkpt lat="46.18747" lon="4.59474">
        <ele>721.6</ele>
        <time>2025-09-20T09:54:31Z</time>
      </trkpt>
      <trkpt lat="46.18746" lon="4.59471">
        <ele>721.6</ele>
        <time>2025-09-20T09:54:32Z</time>
      </trkpt>
      <trkpt lat="46.18745" lon="4.59469">
        <ele>722</ele>
        <time>2025-09-20T09:54:33Z</time>
      </trkpt>
      <trkpt lat="46.18744" lon="4.59467">
        <ele>722.2</ele>
        <time>2025-09-20T09:54:34Z</time>
      </trkpt>
      <trkpt lat="46.18743" lon="4.59465">
        <ele>722.6</ele>
        <time>2025-09-20T09:54:35Z</time>
      </trkpt>
      <trkpt lat="46.18742" lon="4.59464">
        <ele>722.6</ele>
        <time>2025-09-20T09:54:36Z</time>
      </trkpt>
      <trkpt lat="46.18741" lon="4.59462">
        <ele>722.8</ele>
        <time>2025-09-20T09:54:37Z</time>
      </trkpt>
      <trkpt lat="46.1874" lon="4.5946">
        <ele>722.8</ele>
        <time>2025-09-20T09:54:38Z</time>
      </trkpt>
      <trkpt lat="46.1874" lon="4.59459">
        <ele>723.2</ele>
        <time>2025-09-20T09:54:39Z</time>
      </trkpt>
      <trkpt lat="46.1874" lon="4.59457">
        <ele>723.4</ele>
        <time>2025-09-20T09:54:40Z</time>
      </trkpt>
      <trkpt lat="46.18739" lon="4.59455">
        <ele>723.8</ele>
        <time>2025-09-20T09:54:41Z</time>
      </trkpt>
      <trkpt lat="46.18738" lon="4.59452">
        <ele>724</ele>
        <time>2025-09-20T09:54:42Z</time>
      </trkpt>
      <trkpt lat="46.18737" lon="4.59451">
        <ele>724</ele>
        <time>2025-09-20T09:54:43Z</time>
      </trkpt>
      <trkpt lat="46.18736" lon="4.59449">
        <ele>724.4</ele>
        <time>2025-09-20T09:54:44Z</time>
      </trkpt>
      <trkpt lat="46.18736" lon="4.59447">
        <ele>724.4</ele>
        <time>2025-09-20T09:54:45Z</time>
      </trkpt>
      <trkpt lat="46.18736" lon="4.59447">
        <ele>724.8</ele>
        <time>2025-09-20T09:54:46Z</time>
      </trkpt>
      <trkpt lat="46.18736" lon="4.59447">
        <ele>724.8</ele>
        <time>2025-09-20T09:54:47Z</time>
      </trkpt>
      <trkpt lat="46.18736" lon="4.59445">
        <ele>725</ele>
        <time>2025-09-20T09:54:50Z</time>
      </trkpt>
      <trkpt lat="46.18735" lon="4.59444">
        <ele>725</ele>
        <time>2025-09-20T09:54:51Z</time>
      </trkpt>
      <trkpt lat="46.18735" lon="4.59444">
        <ele>725</ele>
        <time>2025-09-20T09:54:52Z</time>
      </trkpt>
      <trkpt lat="46.18735" lon="4.59443">
        <ele>725</ele>
        <time>2025-09-20T09:54:53Z</time>
      </trkpt>
      <trkpt lat="46.18734" lon="4.59442">
        <ele>725.2</ele>
        <time>2025-09-20T09:54:54Z</time>
      </trkpt>
      <trkpt lat="46.18734" lon="4.59442">
        <ele>725.2</ele>
        <time>2025-09-20T09:54:55Z</time>
      </trkpt>
      <trkpt lat="46.18733" lon="4.59441">
        <ele>725.6</ele>
        <time>2025-09-20T09:54:56Z</time>
      </trkpt>
      <trkpt lat="46.18733" lon="4.5944">
        <ele>725.6</ele>
        <time>2025-09-20T09:54:57Z</time>
      </trkpt>
      <trkpt lat="46.18732" lon="4.59438">
        <ele>725.6</ele>
        <time>2025-09-20T09:54:58Z</time>
      </trkpt>
      <trkpt lat="46.18732" lon="4.59437">
        <ele>725.6</ele>
        <time>2025-09-20T09:54:59Z</time>
      </trkpt>
      <trkpt lat="46.18732" lon="4.59435">
        <ele>726</ele>
        <time>2025-09-20T09:55:00Z</time>
      </trkpt>
      <trkpt lat="46.18731" lon="4.59434">
        <ele>726.4</ele>
        <time>2025-09-20T09:55:01Z</time>
      </trkpt>
      <trkpt lat="46.18731" lon="4.59434">
        <ele>726.6</ele>
        <time>2025-09-20T09:55:02Z</time>
      </trkpt>
      <trkpt lat="46.18731" lon="4.59434">
        <ele>726.6</ele>
        <time>2025-09-20T09:55:03Z</time>
      </trkpt>
      <trkpt lat="46.1873" lon="4.59433">
        <ele>727.2</ele>
        <time>2025-09-20T09:55:04Z</time>
      </trkpt>
      <trkpt lat="46.18729" lon="4.59432">
        <ele>727.6</ele>
        <time>2025-09-20T09:55:05Z</time>
      </trkpt>
      <trkpt lat="46.18729" lon="4.59431">
        <ele>727.8</ele>
        <time>2025-09-20T09:55:06Z</time>
      </trkpt>
      <trkpt lat="46.18728" lon="4.59429">
        <ele>727.8</ele>
        <time>2025-09-20T09:55:07Z</time>
      </trkpt>
      <trkpt lat="46.18728" lon="4.59429">
        <ele>728.2</ele>
        <time>2025-09-20T09:55:08Z</time>
      </trkpt>
      <trkpt lat="46.18728" lon="4.59428">
        <ele>728.4</ele>
        <time>2025-09-20T09:55:09Z</time>
      </trkpt>
      <trkpt lat="46.18728" lon="4.59426">
        <ele>728.4</ele>
        <time>2025-09-20T09:55:10Z</time>
      </trkpt>
      <trkpt lat="46.18728" lon="4.59425">
        <ele>728.8</ele>
        <time>2025-09-20T09:55:11Z</time>
      </trkpt>
      <trkpt lat="46.18727" lon="4.59424">
        <ele>728.8</ele>
        <time>2025-09-20T09:55:12Z</time>
      </trkpt>
      <trkpt lat="46.18727" lon="4.59422">
        <ele>728.8</ele>
        <time>2025-09-20T09:55:13Z</time>
      </trkpt>
      <trkpt lat="46.18727" lon="4.59421">
        <ele>729.2</ele>
        <time>2025-09-20T09:55:14Z</time>
      </trkpt>
      <trkpt lat="46.18726" lon="4.5942">
        <ele>729.2</ele>
        <time>2025-09-20T09:55:15Z</time>
      </trkpt>
      <trkpt lat="46.18726" lon="4.59419">
        <ele>729.2</ele>
        <time>2025-09-20T09:55:16Z</time>
      </trkpt>
      <trkpt lat="46.18725" lon="4.59418">
        <ele>729.4</ele>
        <time>2025-09-20T09:55:17Z</time>
      </trkpt>
      <trkpt lat="46.18725" lon="4.59417">
        <ele>729.4</ele>
        <time>2025-09-20T09:55:18Z</time>
      </trkpt>
      <trkpt lat="46.18725" lon="4.59416">
        <ele>729.8</ele>
        <time>2025-09-20T09:55:19Z</time>
      </trkpt>
      <trkpt lat="46.18724" lon="4.59416">
        <ele>730</ele>
        <time>2025-09-20T09:55:20Z</time>
      </trkpt>
      <trkpt lat="46.18723" lon="4.59414">
        <ele>730</ele>
        <time>2025-09-20T09:55:21Z</time>
      </trkpt>
      <trkpt lat="46.18722" lon="4.59412">
        <ele>730</ele>
        <time>2025-09-20T09:55:22Z</time>
      </trkpt>
      <trkpt lat="46.18722" lon="4.59411">
        <ele>730</ele>
        <time>2025-09-20T09:55:23Z</time>
      </trkpt>
      <trkpt lat="46.18722" lon="4.5941">
        <ele>730.2</ele>
        <time>2025-09-20T09:55:24Z</time>
      </trkpt>
      <trkpt lat="46.18721" lon="4.59409">
        <ele>730.2</ele>
        <time>2025-09-20T09:55:25Z</time>
      </trkpt>
      <trkpt lat="46.18721" lon="4.59407">
        <ele>730.2</ele>
        <time>2025-09-20T09:55:26Z</time>
      </trkpt>
      <trkpt lat="46.18721" lon="4.59407">
        <ele>730.2</ele>
        <time>2025-09-20T09:55:27Z</time>
      </trkpt>
      <trkpt lat="46.1872" lon="4.59406">
        <ele>730.2</ele>
        <time>2025-09-20T09:55:28Z</time>
      </trkpt>
      <trkpt lat="46.1872" lon="4.59405">
        <ele>730.2</ele>
        <time>2025-09-20T09:55:29Z</time>
      </trkpt>
      <trkpt lat="46.18719" lon="4.59405">
        <ele>730.2</ele>
        <time>2025-09-20T09:55:30Z</time>
      </trkpt>
      <trkpt lat="46.18718" lon="4.59404">
        <ele>730.6</ele>
        <time>2025-09-20T09:55:31Z</time>
      </trkpt>
      <trkpt lat="46.18718" lon="4.59404">
        <ele>730.6</ele>
        <time>2025-09-20T09:55:32Z</time>
      </trkpt>
      <trkpt lat="46.18717" lon="4.59403">
        <ele>731.2</ele>
        <time>2025-09-20T09:55:49Z</time>
      </trkpt>
      <trkpt lat="46.18717" lon="4.59401">
        <ele>731.2</ele>
        <time>2025-09-20T09:55:50Z</time>
      </trkpt>
      <trkpt lat="46.18716" lon="4.59398">
        <ele>731.4</ele>
        <time>2025-09-20T09:55:51Z</time>
      </trkpt>
      <trkpt lat="46.18715" lon="4.59396">
        <ele>731.4</ele>
        <time>2025-09-20T09:55:52Z</time>
      </trkpt>
      <trkpt lat="46.18715" lon="4.59394">
        <ele>731.8</ele>
        <time>2025-09-20T09:55:53Z</time>
      </trkpt>
      <trkpt lat="46.18714" lon="4.59392">
        <ele>732</ele>
        <time>2025-09-20T09:55:54Z</time>
      </trkpt>
      <trkpt lat="46.18713" lon="4.59389">
        <ele>732.2</ele>
        <time>2025-09-20T09:55:55Z</time>
      </trkpt>
      <trkpt lat="46.18712" lon="4.59388">
        <ele>732.2</ele>
        <time>2025-09-20T09:55:56Z</time>
      </trkpt>
      <trkpt lat="46.18712" lon="4.59386">
        <ele>732.6</ele>
        <time>2025-09-20T09:55:57Z</time>
      </trkpt>
      <trkpt lat="46.18712" lon="4.59385">
        <ele>732.6</ele>
        <time>2025-09-20T09:55:58Z</time>
      </trkpt>
      <trkpt lat="46.18712" lon="4.59382">
        <ele>732.8</ele>
        <time>2025-09-20T09:55:59Z</time>
      </trkpt>
      <trkpt lat="46.1871" lon="4.5938">
        <ele>733.2</ele>
        <time>2025-09-20T09:56:00Z</time>
      </trkpt>
      <trkpt lat="46.1871" lon="4.59379">
        <ele>733.4</ele>
        <time>2025-09-20T09:56:01Z</time>
      </trkpt>
      <trkpt lat="46.18709" lon="4.59377">
        <ele>733.8</ele>
        <time>2025-09-20T09:56:02Z</time>
      </trkpt>
      <trkpt lat="46.18708" lon="4.59374">
        <ele>734</ele>
        <time>2025-09-20T09:56:03Z</time>
      </trkpt>
      <trkpt lat="46.18707" lon="4.59372">
        <ele>734.6</ele>
        <time>2025-09-20T09:56:04Z</time>
      </trkpt>
      <trkpt lat="46.18706" lon="4.5937">
        <ele>734.8</ele>
        <time>2025-09-20T09:56:05Z</time>
      </trkpt>
      <trkpt lat="46.18706" lon="4.59368">
        <ele>735.4</ele>
        <time>2025-09-20T09:56:06Z</time>
      </trkpt>
      <trkpt lat="46.18706" lon="4.59366">
        <ele>735.6</ele>
        <time>2025-09-20T09:56:07Z</time>
      </trkpt>
      <trkpt lat="46.18706" lon="4.59365">
        <ele>735.6</ele>
        <time>2025-09-20T09:56:08Z</time>
      </trkpt>
      <trkpt lat="46.18706" lon="4.59361">
        <ele>735.6</ele>
        <time>2025-09-20T09:56:09Z</time>
      </trkpt>
      <trkpt lat="46.18705" lon="4.59358">
        <ele>736</ele>
        <time>2025-09-20T09:56:10Z</time>
      </trkpt>
      <trkpt lat="46.18705" lon="4.59356">
        <ele>736.4</ele>
        <time>2025-09-20T09:56:11Z</time>
      </trkpt>
      <trkpt lat="46.18704" lon="4.59355">
        <ele>736.8</ele>
        <time>2025-09-20T09:56:12Z</time>
      </trkpt>
      <trkpt lat="46.18704" lon="4.59354">
        <ele>737</ele>
        <time>2025-09-20T09:56:13Z</time>
      </trkpt>
      <trkpt lat="46.18703" lon="4.59353">
        <ele>737</ele>
        <time>2025-09-20T09:56:14Z</time>
      </trkpt>
      <trkpt lat="46.18702" lon="4.59351">
        <ele>737.2</ele>
        <time>2025-09-20T09:56:15Z</time>
      </trkpt>
      <trkpt lat="46.18702" lon="4.59349">
        <ele>737.2</ele>
        <time>2025-09-20T09:56:16Z</time>
      </trkpt>
      <trkpt lat="46.18701" lon="4.59346">
        <ele>737.8</ele>
        <time>2025-09-20T09:56:17Z</time>
      </trkpt>
      <trkpt lat="46.187" lon="4.59344">
        <ele>738.4</ele>
        <time>2025-09-20T09:56:18Z</time>
      </trkpt>
      <trkpt lat="46.18699" lon="4.59343">
        <ele>738.8</ele>
        <time>2025-09-20T09:56:19Z</time>
      </trkpt>
      <trkpt lat="46.18699" lon="4.59341">
        <ele>738.8</ele>
        <time>2025-09-20T09:56:20Z</time>
      </trkpt>
      <trkpt lat="46.18698" lon="4.59339">
        <ele>739.2</ele>
        <time>2025-09-20T09:56:21Z</time>
      </trkpt>
      <trkpt lat="46.18697" lon="4.59337">
        <ele>739.2</ele>
        <time>2025-09-20T09:56:22Z</time>
      </trkpt>
      <trkpt lat="46.18696" lon="4.59336">
        <ele>739.8</ele>
        <time>2025-09-20T09:56:23Z</time>
      </trkpt>
      <trkpt lat="46.18695" lon="4.59334">
        <ele>740</ele>
        <time>2025-09-20T09:56:24Z</time>
      </trkpt>
      <trkpt lat="46.18694" lon="4.59333">
        <ele>740.4</ele>
        <time>2025-09-20T09:56:25Z</time>
      </trkpt>
      <trkpt lat="46.18693" lon="4.59332">
        <ele>740.6</ele>
        <time>2025-09-20T09:56:26Z</time>
      </trkpt>
      <trkpt lat="46.18692" lon="4.5933">
        <ele>741</ele>
        <time>2025-09-20T09:56:27Z</time>
      </trkpt>
      <trkpt lat="46.18691" lon="4.59329">
        <ele>741.2</ele>
        <time>2025-09-20T09:56:28Z</time>
      </trkpt>
      <trkpt lat="46.1869" lon="4.59328">
        <ele>741.4</ele>
        <time>2025-09-20T09:56:29Z</time>
      </trkpt>
      <trkpt lat="46.1869" lon="4.59326">
        <ele>741.4</ele>
        <time>2025-09-20T09:56:30Z</time>
      </trkpt>
      <trkpt lat="46.18689" lon="4.59326">
        <ele>742</ele>
        <time>2025-09-20T09:56:31Z</time>
      </trkpt>
      <trkpt lat="46.18688" lon="4.59327">
        <ele>742</ele>
        <time>2025-09-20T09:56:41Z</time>
      </trkpt>
      <trkpt lat="46.18688" lon="4.59326">
        <ele>742.2</ele>
        <time>2025-09-20T09:56:42Z</time>
      </trkpt>
      <trkpt lat="46.18688" lon="4.59324">
        <ele>742.2</ele>
        <time>2025-09-20T09:56:43Z</time>
      </trkpt>
      <trkpt lat="46.18687" lon="4.59323">
        <ele>742.2</ele>
        <time>2025-09-20T09:56:44Z</time>
      </trkpt>
      <trkpt lat="46.18687" lon="4.59323">
        <ele>742.6</ele>
        <time>2025-09-20T09:56:45Z</time>
      </trkpt>
      <trkpt lat="46.18686" lon="4.59322">
        <ele>742.6</ele>
        <time>2025-09-20T09:56:46Z</time>
      </trkpt>
      <trkpt lat="46.18685" lon="4.59322">
        <ele>742.6</ele>
        <time>2025-09-20T09:56:47Z</time>
      </trkpt>
      <trkpt lat="46.18685" lon="4.59322">
        <ele>742.6</ele>
        <time>2025-09-20T09:56:48Z</time>
      </trkpt>
      <trkpt lat="46.18684" lon="4.59322">
        <ele>743</ele>
        <time>2025-09-20T09:56:49Z</time>
      </trkpt>
      <trkpt lat="46.18683" lon="4.59321">
        <ele>743</ele>
        <time>2025-09-20T09:56:50Z</time>
      </trkpt>
      <trkpt lat="46.18682" lon="4.59321">
        <ele>743</ele>
        <time>2025-09-20T09:56:51Z</time>
      </trkpt>
      <trkpt lat="46.18681" lon="4.5932">
        <ele>743.4</ele>
        <time>2025-09-20T09:56:52Z</time>
      </trkpt>
      <trkpt lat="46.18681" lon="4.5932">
        <ele>743.4</ele>
        <time>2025-09-20T09:56:53Z</time>
      </trkpt>
      <trkpt lat="46.1868" lon="4.59319">
        <ele>743.6</ele>
        <time>2025-09-20T09:56:54Z</time>
      </trkpt>
      <trkpt lat="46.1868" lon="4.59319">
        <ele>743.6</ele>
        <time>2025-09-20T09:56:55Z</time>
      </trkpt>
      <trkpt lat="46.1868" lon="4.59318">
        <ele>744</ele>
        <time>2025-09-20T09:56:56Z</time>
      </trkpt>
      <trkpt lat="46.1868" lon="4.59318">
        <ele>744</ele>
        <time>2025-09-20T09:56:57Z</time>
      </trkpt>
      <trkpt lat="46.18679" lon="4.59317">
        <ele>744.4</ele>
        <time>2025-09-20T09:56:58Z</time>
      </trkpt>
      <trkpt lat="46.18679" lon="4.59315">
        <ele>744.6</ele>
        <time>2025-09-20T09:56:59Z</time>
      </trkpt>
      <trkpt lat="46.18679" lon="4.59314">
        <ele>744.6</ele>
        <time>2025-09-20T09:57:00Z</time>
      </trkpt>
      <trkpt lat="46.18679" lon="4.59313">
        <ele>745</ele>
        <time>2025-09-20T09:57:01Z</time>
      </trkpt>
      <trkpt lat="46.18678" lon="4.59312">
        <ele>745.2</ele>
        <time>2025-09-20T09:57:02Z</time>
      </trkpt>
      <trkpt lat="46.18677" lon="4.59311">
        <ele>745.6</ele>
        <time>2025-09-20T09:57:03Z</time>
      </trkpt>
      <trkpt lat="46.18676" lon="4.59311">
        <ele>745.6</ele>
        <time>2025-09-20T09:57:04Z</time>
      </trkpt>
      <trkpt lat="46.18675" lon="4.59311">
        <ele>745.8</ele>
        <time>2025-09-20T09:57:05Z</time>
      </trkpt>
      <trkpt lat="46.18674" lon="4.59311">
        <ele>746</ele>
        <time>2025-09-20T09:57:06Z</time>
      </trkpt>
      <trkpt lat="46.18673" lon="4.59311">
        <ele>746.4</ele>
        <time>2025-09-20T09:57:07Z</time>
      </trkpt>
      <trkpt lat="46.18672" lon="4.59311">
        <ele>746.6</ele>
        <time>2025-09-20T09:57:08Z</time>
      </trkpt>
      <trkpt lat="46.18671" lon="4.59309">
        <ele>747</ele>
        <time>2025-09-20T09:57:09Z</time>
      </trkpt>
      <trkpt lat="46.18671" lon="4.59308">
        <ele>747</ele>
        <time>2025-09-20T09:57:10Z</time>
      </trkpt>
      <trkpt lat="46.18671" lon="4.59307">
        <ele>747.4</ele>
        <time>2025-09-20T09:57:11Z</time>
      </trkpt>
      <trkpt lat="46.18669" lon="4.59305">
        <ele>747.6</ele>
        <time>2025-09-20T09:57:12Z</time>
      </trkpt>
      <trkpt lat="46.18668" lon="4.59304">
        <ele>747.6</ele>
        <time>2025-09-20T09:57:13Z</time>
      </trkpt>
      <trkpt lat="46.18667" lon="4.59304">
        <ele>748</ele>
        <time>2025-09-20T09:57:14Z</time>
      </trkpt>
      <trkpt lat="46.18666" lon="4.59303">
        <ele>748</ele>
        <time>2025-09-20T09:57:15Z</time>
      </trkpt>
      <trkpt lat="46.18664" lon="4.59303">
        <ele>748</ele>
        <time>2025-09-20T09:57:16Z</time>
      </trkpt>
      <trkpt lat="46.18662" lon="4.59303">
        <ele>748.2</ele>
        <time>2025-09-20T09:57:17Z</time>
      </trkpt>
      <trkpt lat="46.18662" lon="4.59304">
        <ele>748.2</ele>
        <time>2025-09-20T09:57:18Z</time>
      </trkpt>
      <trkpt lat="46.1866" lon="4.59303">
        <ele>748.2</ele>
        <time>2025-09-20T09:57:19Z</time>
      </trkpt>
      <trkpt lat="46.18659" lon="4.59303">
        <ele>748.6</ele>
        <time>2025-09-20T09:57:20Z</time>
      </trkpt>
      <trkpt lat="46.18658" lon="4.59302">
        <ele>748.6</ele>
        <time>2025-09-20T09:57:21Z</time>
      </trkpt>
      <trkpt lat="46.18657" lon="4.59302">
        <ele>749</ele>
        <time>2025-09-20T09:57:22Z</time>
      </trkpt>
      <trkpt lat="46.18657" lon="4.59301">
        <ele>749</ele>
        <time>2025-09-20T09:57:23Z</time>
      </trkpt>
      <trkpt lat="46.18656" lon="4.593">
        <ele>749.2</ele>
        <time>2025-09-20T09:57:24Z</time>
      </trkpt>
      <trkpt lat="46.18656" lon="4.59299">
        <ele>749.4</ele>
        <time>2025-09-20T09:57:25Z</time>
      </trkpt>
      <trkpt lat="46.18656" lon="4.59298">
        <ele>749.8</ele>
        <time>2025-09-20T09:57:26Z</time>
      </trkpt>
      <trkpt lat="46.18656" lon="4.59298">
        <ele>750</ele>
        <time>2025-09-20T09:57:27Z</time>
      </trkpt>
      <trkpt lat="46.18656" lon="4.59297">
        <ele>750</ele>
        <time>2025-09-20T09:57:28Z</time>
      </trkpt>
      <trkpt lat="46.18655" lon="4.59296">
        <ele>750.4</ele>
        <time>2025-09-20T09:57:29Z</time>
      </trkpt>
      <trkpt lat="46.18654" lon="4.59295">
        <ele>750.4</ele>
        <time>2025-09-20T09:57:30Z</time>
      </trkpt>
      <trkpt lat="46.18654" lon="4.59294">
        <ele>750.6</ele>
        <time>2025-09-20T09:57:31Z</time>
      </trkpt>
      <trkpt lat="46.18653" lon="4.59293">
        <ele>750.6</ele>
        <time>2025-09-20T09:57:32Z</time>
      </trkpt>
      <trkpt lat="46.18653" lon="4.59292">
        <ele>751.2</ele>
        <time>2025-09-20T09:57:33Z</time>
      </trkpt>
      <trkpt lat="46.18652" lon="4.59292">
        <ele>751.2</ele>
        <time>2025-09-20T09:57:34Z</time>
      </trkpt>
      <trkpt lat="46.18651" lon="4.59291">
        <ele>751.4</ele>
        <time>2025-09-20T09:57:35Z</time>
      </trkpt>
      <trkpt lat="46.1865" lon="4.5929">
        <ele>751.4</ele>
        <time>2025-09-20T09:57:36Z</time>
      </trkpt>
      <trkpt lat="46.1865" lon="4.59291">
        <ele>751.4</ele>
        <time>2025-09-20T09:57:37Z</time>
      </trkpt>
      <trkpt lat="46.18649" lon="4.59292">
        <ele>751.8</ele>
        <time>2025-09-20T09:57:38Z</time>
      </trkpt>
      <trkpt lat="46.18649" lon="4.59293">
        <ele>751.8</ele>
        <time>2025-09-20T09:57:39Z</time>
      </trkpt>
      <trkpt lat="46.18649" lon="4.59294">
        <ele>752.2</ele>
        <time>2025-09-20T09:57:40Z</time>
      </trkpt>
      <trkpt lat="46.18648" lon="4.59293">
        <ele>752.2</ele>
        <time>2025-09-20T09:57:41Z</time>
      </trkpt>
      <trkpt lat="46.18648" lon="4.59292">
        <ele>752.4</ele>
        <time>2025-09-20T09:57:42Z</time>
      </trkpt>
      <trkpt lat="46.18647" lon="4.59291">
        <ele>752.6</ele>
        <time>2025-09-20T09:57:43Z</time>
      </trkpt>
      <trkpt lat="46.18646" lon="4.59289">
        <ele>752.8</ele>
        <time>2025-09-20T09:57:44Z</time>
      </trkpt>
      <trkpt lat="46.18645" lon="4.59289">
        <ele>752.8</ele>
        <time>2025-09-20T09:57:45Z</time>
      </trkpt>
      <trkpt lat="46.18643" lon="4.59288">
        <ele>753</ele>
        <time>2025-09-20T09:57:46Z</time>
      </trkpt>
      <trkpt lat="46.18642" lon="4.59288">
        <ele>753</ele>
        <time>2025-09-20T09:57:47Z</time>
      </trkpt>
      <trkpt lat="46.18641" lon="4.59288">
        <ele>753.4</ele>
        <time>2025-09-20T09:57:48Z</time>
      </trkpt>
      <trkpt lat="46.1864" lon="4.59288">
        <ele>753.4</ele>
        <time>2025-09-20T09:57:49Z</time>
      </trkpt>
      <trkpt lat="46.1864" lon="4.59287">
        <ele>753.4</ele>
        <time>2025-09-20T09:57:50Z</time>
      </trkpt>
      <trkpt lat="46.18639" lon="4.59286">
        <ele>753.4</ele>
        <time>2025-09-20T09:57:51Z</time>
      </trkpt>
      <trkpt lat="46.18639" lon="4.59286">
        <ele>753.6</ele>
        <time>2025-09-20T09:57:52Z</time>
      </trkpt>
      <trkpt lat="46.18638" lon="4.59286">
        <ele>753.8</ele>
        <time>2025-09-20T09:57:53Z</time>
      </trkpt>
      <trkpt lat="46.18637" lon="4.59285">
        <ele>754.2</ele>
        <time>2025-09-20T09:57:54Z</time>
      </trkpt>
      <trkpt lat="46.18637" lon="4.59285">
        <ele>754.2</ele>
        <time>2025-09-20T09:57:55Z</time>
      </trkpt>
      <trkpt lat="46.18637" lon="4.59284">
        <ele>754.4</ele>
        <time>2025-09-20T09:57:56Z</time>
      </trkpt>
      <trkpt lat="46.18637" lon="4.59283">
        <ele>754.4</ele>
        <time>2025-09-20T09:57:57Z</time>
      </trkpt>
      <trkpt lat="46.18636" lon="4.59282">
        <ele>754.8</ele>
        <time>2025-09-20T09:57:58Z</time>
      </trkpt>
      <trkpt lat="46.18636" lon="4.59282">
        <ele>755</ele>
        <time>2025-09-20T09:57:59Z</time>
      </trkpt>
      <trkpt lat="46.18636" lon="4.59281">
        <ele>755.4</ele>
        <time>2025-09-20T09:58:00Z</time>
      </trkpt>
      <trkpt lat="46.18635" lon="4.5928">
        <ele>755.6</ele>
        <time>2025-09-20T09:58:01Z</time>
      </trkpt>
      <trkpt lat="46.18634" lon="4.59279">
        <ele>756</ele>
        <time>2025-09-20T09:58:02Z</time>
      </trkpt>
      <trkpt lat="46.18633" lon="4.59278">
        <ele>756.2</ele>
        <time>2025-09-20T09:58:03Z</time>
      </trkpt>
      <trkpt lat="46.18631" lon="4.59278">
        <ele>756.6</ele>
        <time>2025-09-20T09:58:04Z</time>
      </trkpt>
      <trkpt lat="46.1863" lon="4.59277">
        <ele>757</ele>
        <time>2025-09-20T09:58:05Z</time>
      </trkpt>
      <trkpt lat="46.18628" lon="4.59277">
        <ele>757</ele>
        <time>2025-09-20T09:58:06Z</time>
      </trkpt>
      <trkpt lat="46.18627" lon="4.59276">
        <ele>757.4</ele>
        <time>2025-09-20T09:58:07Z</time>
      </trkpt>
      <trkpt lat="46.18626" lon="4.59275">
        <ele>757.6</ele>
        <time>2025-09-20T09:58:08Z</time>
      </trkpt>
      <trkpt lat="46.18626" lon="4.59274">
        <ele>757.6</ele>
        <time>2025-09-20T09:58:09Z</time>
      </trkpt>
      <trkpt lat="46.18625" lon="4.59272">
        <ele>758</ele>
        <time>2025-09-20T09:58:10Z</time>
      </trkpt>
      <trkpt lat="46.18624" lon="4.59271">
        <ele>758</ele>
        <time>2025-09-20T09:58:11Z</time>
      </trkpt>
      <trkpt lat="46.18623" lon="4.5927">
        <ele>758.2</ele>
        <time>2025-09-20T09:58:12Z</time>
      </trkpt>
      <trkpt lat="46.18623" lon="4.59269">
        <ele>758.2</ele>
        <time>2025-09-20T09:58:13Z</time>
      </trkpt>
      <trkpt lat="46.18623" lon="4.59268">
        <ele>758.8</ele>
        <time>2025-09-20T09:58:14Z</time>
      </trkpt>
      <trkpt lat="46.18623" lon="4.59268">
        <ele>758.8</ele>
        <time>2025-09-20T09:58:15Z</time>
      </trkpt>
      <trkpt lat="46.18622" lon="4.59266">
        <ele>759</ele>
        <time>2025-09-20T09:58:16Z</time>
      </trkpt>
      <trkpt lat="46.18622" lon="4.59265">
        <ele>759</ele>
        <time>2025-09-20T09:58:17Z</time>
      </trkpt>
      <trkpt lat="46.18623" lon="4.59264">
        <ele>759.4</ele>
        <time>2025-09-20T09:58:18Z</time>
      </trkpt>
      <trkpt lat="46.18623" lon="4.59262">
        <ele>759.4</ele>
        <time>2025-09-20T09:58:19Z</time>
      </trkpt>
      <trkpt lat="46.18623" lon="4.59261">
        <ele>759.6</ele>
        <time>2025-09-20T09:58:20Z</time>
      </trkpt>
      <trkpt lat="46.18623" lon="4.5926">
        <ele>760</ele>
        <time>2025-09-20T09:58:21Z</time>
      </trkpt>
      <trkpt lat="46.18623" lon="4.5926">
        <ele>760</ele>
        <time>2025-09-20T09:58:22Z</time>
      </trkpt>
      <trkpt lat="46.18624" lon="4.59259">
        <ele>760.2</ele>
        <time>2025-09-20T09:58:23Z</time>
      </trkpt>
      <trkpt lat="46.18624" lon="4.59258">
        <ele>760.4</ele>
        <time>2025-09-20T09:58:24Z</time>
      </trkpt>
      <trkpt lat="46.18625" lon="4.59257">
        <ele>760.4</ele>
        <time>2025-09-20T09:58:25Z</time>
      </trkpt>
      <trkpt lat="46.18625" lon="4.59256">
        <ele>760.6</ele>
        <time>2025-09-20T09:58:26Z</time>
      </trkpt>
      <trkpt lat="46.18625" lon="4.59256">
        <ele>760.8</ele>
        <time>2025-09-20T09:58:27Z</time>
      </trkpt>
      <trkpt lat="46.18625" lon="4.59256">
        <ele>760.8</ele>
        <time>2025-09-20T09:58:28Z</time>
      </trkpt>
      <trkpt lat="46.18621" lon="4.59253">
        <ele>761</ele>
        <time>2025-09-20T09:58:30Z</time>
      </trkpt>
      <trkpt lat="46.1862" lon="4.59252">
        <ele>761</ele>
        <time>2025-09-20T09:58:31Z</time>
      </trkpt>
      <trkpt lat="46.18619" lon="4.59252">
        <ele>761.4</ele>
        <time>2025-09-20T09:58:32Z</time>
      </trkpt>
      <trkpt lat="46.18619" lon="4.59252">
        <ele>761.6</ele>
        <time>2025-09-20T09:58:33Z</time>
      </trkpt>
      <trkpt lat="46.18619" lon="4.59251">
        <ele>761.6</ele>
        <time>2025-09-20T09:58:34Z</time>
      </trkpt>
      <trkpt lat="46.18618" lon="4.59251">
        <ele>761.8</ele>
        <time>2025-09-20T09:58:35Z</time>
      </trkpt>
      <trkpt lat="46.18618" lon="4.5925">
        <ele>761.8</ele>
        <time>2025-09-20T09:58:36Z</time>
      </trkpt>
      <trkpt lat="46.18617" lon="4.59249">
        <ele>762.2</ele>
        <time>2025-09-20T09:58:37Z</time>
      </trkpt>
      <trkpt lat="46.18617" lon="4.59248">
        <ele>762.4</ele>
        <time>2025-09-20T09:58:38Z</time>
      </trkpt>
      <trkpt lat="46.18617" lon="4.59247">
        <ele>762.6</ele>
        <time>2025-09-20T09:58:39Z</time>
      </trkpt>
      <trkpt lat="46.18616" lon="4.59246">
        <ele>762.6</ele>
        <time>2025-09-20T09:58:40Z</time>
      </trkpt>
      <trkpt lat="46.18615" lon="4.59245">
        <ele>763</ele>
        <time>2025-09-20T09:58:41Z</time>
      </trkpt>
      <trkpt lat="46.18614" lon="4.59245">
        <ele>763</ele>
        <time>2025-09-20T09:58:42Z</time>
      </trkpt>
      <trkpt lat="46.18613" lon="4.59244">
        <ele>763</ele>
        <time>2025-09-20T09:58:43Z</time>
      </trkpt>
      <trkpt lat="46.18612" lon="4.59243">
        <ele>763.2</ele>
        <time>2025-09-20T09:58:44Z</time>
      </trkpt>
      <trkpt lat="46.18611" lon="4.59242">
        <ele>763.6</ele>
        <time>2025-09-20T09:58:45Z</time>
      </trkpt>
      <trkpt lat="46.1861" lon="4.59242">
        <ele>763.8</ele>
        <time>2025-09-20T09:58:46Z</time>
      </trkpt>
      <trkpt lat="46.18609" lon="4.59241">
        <ele>763.8</ele>
        <time>2025-09-20T09:58:47Z</time>
      </trkpt>
      <trkpt lat="46.18609" lon="4.5924">
        <ele>764</ele>
        <time>2025-09-20T09:58:48Z</time>
      </trkpt>
      <trkpt lat="46.18608" lon="4.59238">
        <ele>764</ele>
        <time>2025-09-20T09:58:49Z</time>
      </trkpt>
      <trkpt lat="46.18609" lon="4.59237">
        <ele>764.4</ele>
        <time>2025-09-20T09:58:50Z</time>
      </trkpt>
      <trkpt lat="46.18609" lon="4.59236">
        <ele>764.4</ele>
        <time>2025-09-20T09:58:51Z</time>
      </trkpt>
      <trkpt lat="46.18607" lon="4.59234">
        <ele>764.6</ele>
        <time>2025-09-20T09:58:52Z</time>
      </trkpt>
      <trkpt lat="46.18606" lon="4.59234">
        <ele>764.6</ele>
        <time>2025-09-20T09:58:53Z</time>
      </trkpt>
      <trkpt lat="46.18605" lon="4.59233">
        <ele>764.6</ele>
        <time>2025-09-20T09:58:54Z</time>
      </trkpt>
      <trkpt lat="46.18605" lon="4.59232">
        <ele>765</ele>
        <time>2025-09-20T09:58:55Z</time>
      </trkpt>
      <trkpt lat="46.18605" lon="4.5923">
        <ele>765</ele>
        <time>2025-09-20T09:58:56Z</time>
      </trkpt>
      <trkpt lat="46.18605" lon="4.59229">
        <ele>765</ele>
        <time>2025-09-20T09:58:57Z</time>
      </trkpt>
      <trkpt lat="46.18605" lon="4.59228">
        <ele>765.4</ele>
        <time>2025-09-20T09:58:58Z</time>
      </trkpt>
      <trkpt lat="46.18605" lon="4.59226">
        <ele>765.6</ele>
        <time>2025-09-20T09:58:59Z</time>
      </trkpt>
      <trkpt lat="46.18605" lon="4.59225">
        <ele>765.6</ele>
        <time>2025-09-20T09:59:00Z</time>
      </trkpt>
      <trkpt lat="46.18605" lon="4.59225">
        <ele>765.8</ele>
        <time>2025-09-20T09:59:01Z</time>
      </trkpt>
      <trkpt lat="46.18605" lon="4.59223">
        <ele>765.8</ele>
        <time>2025-09-20T09:59:02Z</time>
      </trkpt>
      <trkpt lat="46.18605" lon="4.59222">
        <ele>766</ele>
        <time>2025-09-20T09:59:03Z</time>
      </trkpt>
      <trkpt lat="46.18605" lon="4.59221">
        <ele>766</ele>
        <time>2025-09-20T09:59:04Z</time>
      </trkpt>
      <trkpt lat="46.18604" lon="4.5922">
        <ele>766.2</ele>
        <time>2025-09-20T09:59:05Z</time>
      </trkpt>
      <trkpt lat="46.18602" lon="4.59219">
        <ele>766.6</ele>
        <time>2025-09-20T09:59:06Z</time>
      </trkpt>
      <trkpt lat="46.18602" lon="4.59218">
        <ele>766.6</ele>
        <time>2025-09-20T09:59:07Z</time>
      </trkpt>
      <trkpt lat="46.18601" lon="4.59217">
        <ele>767</ele>
        <time>2025-09-20T09:59:08Z</time>
      </trkpt>
      <trkpt lat="46.186" lon="4.59216">
        <ele>767.4</ele>
        <time>2025-09-20T09:59:09Z</time>
      </trkpt>
      <trkpt lat="46.18599" lon="4.59215">
        <ele>767.4</ele>
        <time>2025-09-20T09:59:10Z</time>
      </trkpt>
      <trkpt lat="46.18598" lon="4.59215">
        <ele>767.6</ele>
        <time>2025-09-20T09:59:11Z</time>
      </trkpt>
      <trkpt lat="46.18596" lon="4.59214">
        <ele>767.8</ele>
        <time>2025-09-20T09:59:12Z</time>
      </trkpt>
      <trkpt lat="46.18595" lon="4.59214">
        <ele>767.8</ele>
        <time>2025-09-20T09:59:13Z</time>
      </trkpt>
      <trkpt lat="46.18595" lon="4.59214">
        <ele>768.2</ele>
        <time>2025-09-20T09:59:14Z</time>
      </trkpt>
      <trkpt lat="46.18594" lon="4.59213">
        <ele>768.4</ele>
        <time>2025-09-20T09:59:15Z</time>
      </trkpt>
      <trkpt lat="46.18593" lon="4.59213">
        <ele>768.6</ele>
        <time>2025-09-20T09:59:16Z</time>
      </trkpt>
      <trkpt lat="46.18592" lon="4.59213">
        <ele>768.6</ele>
        <time>2025-09-20T09:59:17Z</time>
      </trkpt>
      <trkpt lat="46.18592" lon="4.59213">
        <ele>769</ele>
        <time>2025-09-20T09:59:18Z</time>
      </trkpt>
      <trkpt lat="46.18591" lon="4.59213">
        <ele>769</ele>
        <time>2025-09-20T09:59:19Z</time>
      </trkpt>
      <trkpt lat="46.1859" lon="4.59213">
        <ele>769.2</ele>
        <time>2025-09-20T09:59:20Z</time>
      </trkpt>
      <trkpt lat="46.18588" lon="4.59213">
        <ele>769.2</ele>
        <time>2025-09-20T09:59:21Z</time>
      </trkpt>
      <trkpt lat="46.18588" lon="4.59214">
        <ele>769.4</ele>
        <time>2025-09-20T09:59:22Z</time>
      </trkpt>
      <trkpt lat="46.18587" lon="4.59214">
        <ele>769.8</ele>
        <time>2025-09-20T09:59:23Z</time>
      </trkpt>
      <trkpt lat="46.18587" lon="4.59214">
        <ele>770</ele>
        <time>2025-09-20T09:59:24Z</time>
      </trkpt>
      <trkpt lat="46.18586" lon="4.59214">
        <ele>770.4</ele>
        <time>2025-09-20T09:59:25Z</time>
      </trkpt>
      <trkpt lat="46.18585" lon="4.59214">
        <ele>770.8</ele>
        <time>2025-09-20T09:59:26Z</time>
      </trkpt>
      <trkpt lat="46.18584" lon="4.59214">
        <ele>771</ele>
        <time>2025-09-20T09:59:27Z</time>
      </trkpt>
      <trkpt lat="46.18584" lon="4.59214">
        <ele>771.2</ele>
        <time>2025-09-20T09:59:28Z</time>
      </trkpt>
      <trkpt lat="46.18584" lon="4.59215">
        <ele>771.2</ele>
        <time>2025-09-20T09:59:29Z</time>
      </trkpt>
      <trkpt lat="46.18584" lon="4.59215">
        <ele>771.2</ele>
        <time>2025-09-20T09:59:30Z</time>
      </trkpt>
      <trkpt lat="46.18584" lon="4.59215">
        <ele>771.6</ele>
        <time>2025-09-20T09:59:31Z</time>
      </trkpt>
      <trkpt lat="46.18584" lon="4.59216">
        <ele>771.6</ele>
        <time>2025-09-20T09:59:32Z</time>
      </trkpt>
      <trkpt lat="46.18584" lon="4.59215">
        <ele>772</ele>
        <time>2025-09-20T09:59:33Z</time>
      </trkpt>
      <trkpt lat="46.18583" lon="4.59215">
        <ele>772</ele>
        <time>2025-09-20T09:59:34Z</time>
      </trkpt>
      <trkpt lat="46.1858" lon="4.59217">
        <ele>772.2</ele>
        <time>2025-09-20T10:00:30Z</time>
      </trkpt>
      <trkpt lat="46.18578" lon="4.59218">
        <ele>772.2</ele>
        <time>2025-09-20T10:00:31Z</time>
      </trkpt>
      <trkpt lat="46.18577" lon="4.59218">
        <ele>772.2</ele>
        <time>2025-09-20T10:00:32Z</time>
      </trkpt>
      <trkpt lat="46.18576" lon="4.59218">
        <ele>772.6</ele>
        <time>2025-09-20T10:00:33Z</time>
      </trkpt>
      <trkpt lat="46.18576" lon="4.59218">
        <ele>772.6</ele>
        <time>2025-09-20T10:00:34Z</time>
      </trkpt>
      <trkpt lat="46.18574" lon="4.59218">
        <ele>772.6</ele>
        <time>2025-09-20T10:00:35Z</time>
      </trkpt>
      <trkpt lat="46.18573" lon="4.59218">
        <ele>773</ele>
        <time>2025-09-20T10:00:36Z</time>
      </trkpt>
      <trkpt lat="46.18572" lon="4.59219">
        <ele>773</ele>
        <time>2025-09-20T10:00:37Z</time>
      </trkpt>
      <trkpt lat="46.18571" lon="4.59219">
        <ele>773.2</ele>
        <time>2025-09-20T10:00:38Z</time>
      </trkpt>
      <trkpt lat="46.1857" lon="4.5922">
        <ele>773.6</ele>
        <time>2025-09-20T10:00:39Z</time>
      </trkpt>
      <trkpt lat="46.18568" lon="4.5922">
        <ele>773.8</ele>
        <time>2025-09-20T10:00:40Z</time>
      </trkpt>
      <trkpt lat="46.18567" lon="4.5922">
        <ele>773.8</ele>
        <time>2025-09-20T10:00:41Z</time>
      </trkpt>
      <trkpt lat="46.18566" lon="4.59221">
        <ele>774.2</ele>
        <time>2025-09-20T10:00:42Z</time>
      </trkpt>
      <trkpt lat="46.18564" lon="4.59221">
        <ele>774.2</ele>
        <time>2025-09-20T10:00:43Z</time>
      </trkpt>
      <trkpt lat="46.18564" lon="4.59221">
        <ele>774.4</ele>
        <time>2025-09-20T10:00:44Z</time>
      </trkpt>
      <trkpt lat="46.18563" lon="4.59222">
        <ele>774.4</ele>
        <time>2025-09-20T10:00:45Z</time>
      </trkpt>
      <trkpt lat="46.18562" lon="4.59222">
        <ele>774.8</ele>
        <time>2025-09-20T10:00:46Z</time>
      </trkpt>
      <trkpt lat="46.18561" lon="4.59223">
        <ele>775.2</ele>
        <time>2025-09-20T10:00:47Z</time>
      </trkpt>
      <trkpt lat="46.1856" lon="4.59223">
        <ele>775.6</ele>
        <time>2025-09-20T10:00:48Z</time>
      </trkpt>
      <trkpt lat="46.18559" lon="4.59224">
        <ele>775.8</ele>
        <time>2025-09-20T10:00:49Z</time>
      </trkpt>
      <trkpt lat="46.18557" lon="4.59225">
        <ele>775.8</ele>
        <time>2025-09-20T10:00:50Z</time>
      </trkpt>
      <trkpt lat="46.18556" lon="4.59225">
        <ele>776</ele>
        <time>2025-09-20T10:00:51Z</time>
      </trkpt>
      <trkpt lat="46.18555" lon="4.59226">
        <ele>776.2</ele>
        <time>2025-09-20T10:00:52Z</time>
      </trkpt>
      <trkpt lat="46.18554" lon="4.59227">
        <ele>776.6</ele>
        <time>2025-09-20T10:00:53Z</time>
      </trkpt>
      <trkpt lat="46.18552" lon="4.59228">
        <ele>776.6</ele>
        <time>2025-09-20T10:00:54Z</time>
      </trkpt>
      <trkpt lat="46.18551" lon="4.59228">
        <ele>777</ele>
        <time>2025-09-20T10:00:55Z</time>
      </trkpt>
      <trkpt lat="46.18549" lon="4.59228">
        <ele>777</ele>
        <time>2025-09-20T10:00:56Z</time>
      </trkpt>
      <trkpt lat="46.18548" lon="4.59228">
        <ele>777</ele>
        <time>2025-09-20T10:00:57Z</time>
      </trkpt>
      <trkpt lat="46.18547" lon="4.59228">
        <ele>777.2</ele>
        <time>2025-09-20T10:00:58Z</time>
      </trkpt>
      <trkpt lat="46.18546" lon="4.59229">
        <ele>777.4</ele>
        <time>2025-09-20T10:00:59Z</time>
      </trkpt>
      <trkpt lat="46.18545" lon="4.5923">
        <ele>777.8</ele>
        <time>2025-09-20T10:01:00Z</time>
      </trkpt>
      <trkpt lat="46.18544" lon="4.5923">
        <ele>777.8</ele>
        <time>2025-09-20T10:01:01Z</time>
      </trkpt>
      <trkpt lat="46.18543" lon="4.59231">
        <ele>778.2</ele>
        <time>2025-09-20T10:01:02Z</time>
      </trkpt>
      <trkpt lat="46.18542" lon="4.59231">
        <ele>778.4</ele>
        <time>2025-09-20T10:01:03Z</time>
      </trkpt>
      <trkpt lat="46.18541" lon="4.59231">
        <ele>778.4</ele>
        <time>2025-09-20T10:01:04Z</time>
      </trkpt>
      <trkpt lat="46.1854" lon="4.59232">
        <ele>778.6</ele>
        <time>2025-09-20T10:01:05Z</time>
      </trkpt>
      <trkpt lat="46.18539" lon="4.59232">
        <ele>778.8</ele>
        <time>2025-09-20T10:01:06Z</time>
      </trkpt>
      <trkpt lat="46.18538" lon="4.59232">
        <ele>778.8</ele>
        <time>2025-09-20T10:01:07Z</time>
      </trkpt>
      <trkpt lat="46.18537" lon="4.59232">
        <ele>779.2</ele>
        <time>2025-09-20T10:01:08Z</time>
      </trkpt>
      <trkpt lat="46.18537" lon="4.59231">
        <ele>779.4</ele>
        <time>2025-09-20T10:01:09Z</time>
      </trkpt>
      <trkpt lat="46.18536" lon="4.59231">
        <ele>779.6</ele>
        <time>2025-09-20T10:01:10Z</time>
      </trkpt>
      <trkpt lat="46.18535" lon="4.59231">
        <ele>779.8</ele>
        <time>2025-09-20T10:01:11Z</time>
      </trkpt>
      <trkpt lat="46.18535" lon="4.59232">
        <ele>779.8</ele>
        <time>2025-09-20T10:01:12Z</time>
      </trkpt>
      <trkpt lat="46.18534" lon="4.59232">
        <ele>780.2</ele>
        <time>2025-09-20T10:01:13Z</time>
      </trkpt>
      <trkpt lat="46.18534" lon="4.59232">
        <ele>780.4</ele>
        <time>2025-09-20T10:01:14Z</time>
      </trkpt>
      <trkpt lat="46.18533" lon="4.59232">
        <ele>780.4</ele>
        <time>2025-09-20T10:01:15Z</time>
      </trkpt>
      <trkpt lat="46.18532" lon="4.59232">
        <ele>780.8</ele>
        <time>2025-09-20T10:01:16Z</time>
      </trkpt>
      <trkpt lat="46.18531" lon="4.59232">
        <ele>781</ele>
        <time>2025-09-20T10:01:17Z</time>
      </trkpt>
      <trkpt lat="46.1853" lon="4.59232">
        <ele>781</ele>
        <time>2025-09-20T10:01:18Z</time>
      </trkpt>
      <trkpt lat="46.18528" lon="4.59233">
        <ele>781.4</ele>
        <time>2025-09-20T10:01:19Z</time>
      </trkpt>
      <trkpt lat="46.18528" lon="4.59233">
        <ele>781.6</ele>
        <time>2025-09-20T10:01:20Z</time>
      </trkpt>
      <trkpt lat="46.18527" lon="4.59233">
        <ele>782</ele>
        <time>2025-09-20T10:01:21Z</time>
      </trkpt>
      <trkpt lat="46.18527" lon="4.59233">
        <ele>782.2</ele>
        <time>2025-09-20T10:01:22Z</time>
      </trkpt>
      <trkpt lat="46.18526" lon="4.59233">
        <ele>782.2</ele>
        <time>2025-09-20T10:01:23Z</time>
      </trkpt>
      <trkpt lat="46.18525" lon="4.59234">
        <ele>782.4</ele>
        <time>2025-09-20T10:01:24Z</time>
      </trkpt>
      <trkpt lat="46.18524" lon="4.59235">
        <ele>782.6</ele>
        <time>2025-09-20T10:01:25Z</time>
      </trkpt>
      <trkpt lat="46.18524" lon="4.59235">
        <ele>782.6</ele>
        <time>2025-09-20T10:01:26Z</time>
      </trkpt>
      <trkpt lat="46.18523" lon="4.59236">
        <ele>783</ele>
        <time>2025-09-20T10:01:27Z</time>
      </trkpt>
      <trkpt lat="46.18523" lon="4.59237">
        <ele>783.2</ele>
        <time>2025-09-20T10:01:28Z</time>
      </trkpt>
      <trkpt lat="46.18522" lon="4.59238">
        <ele>783.4</ele>
        <time>2025-09-20T10:01:29Z</time>
      </trkpt>
      <trkpt lat="46.18522" lon="4.59238">
        <ele>783.4</ele>
        <time>2025-09-20T10:01:30Z</time>
      </trkpt>
      <trkpt lat="46.18521" lon="4.59238">
        <ele>783.8</ele>
        <time>2025-09-20T10:01:31Z</time>
      </trkpt>
      <trkpt lat="46.1852" lon="4.59239">
        <ele>784.2</ele>
        <time>2025-09-20T10:01:32Z</time>
      </trkpt>
      <trkpt lat="46.1852" lon="4.59239">
        <ele>784.4</ele>
        <time>2025-09-20T10:01:33Z</time>
      </trkpt>
      <trkpt lat="46.18519" lon="4.59239">
        <ele>784.8</ele>
        <time>2025-09-20T10:01:34Z</time>
      </trkpt>
      <trkpt lat="46.18519" lon="4.59238">
        <ele>784.8</ele>
        <time>2025-09-20T10:01:35Z</time>
      </trkpt>
      <trkpt lat="46.18518" lon="4.59238">
        <ele>784.8</ele>
        <time>2025-09-20T10:01:36Z</time>
      </trkpt>
      <trkpt lat="46.18517" lon="4.59238">
        <ele>784.8</ele>
        <time>2025-09-20T10:01:37Z</time>
      </trkpt>
      <trkpt lat="46.18517" lon="4.59238">
        <ele>784.8</ele>
        <time>2025-09-20T10:01:38Z</time>
      </trkpt>
      <trkpt lat="46.18516" lon="4.59237">
        <ele>785</ele>
        <time>2025-09-20T10:01:39Z</time>
      </trkpt>
      <trkpt lat="46.18515" lon="4.59237">
        <ele>785</ele>
        <time>2025-09-20T10:01:40Z</time>
      </trkpt>
      <trkpt lat="46.18515" lon="4.59236">
        <ele>785.2</ele>
        <time>2025-09-20T10:01:41Z</time>
      </trkpt>
      <trkpt lat="46.18516" lon="4.59233">
        <ele>785.2</ele>
        <time>2025-09-20T10:03:18Z</time>
      </trkpt>
      <trkpt lat="46.18515" lon="4.59233">
        <ele>785.4</ele>
        <time>2025-09-20T10:03:19Z</time>
      </trkpt>
      <trkpt lat="46.18515" lon="4.59233">
        <ele>785.4</ele>
        <time>2025-09-20T10:03:20Z</time>
      </trkpt>
      <trkpt lat="46.18514" lon="4.59232">
        <ele>785.4</ele>
        <time>2025-09-20T10:03:21Z</time>
      </trkpt>
      <trkpt lat="46.18513" lon="4.59232">
        <ele>785.4</ele>
        <time>2025-09-20T10:03:22Z</time>
      </trkpt>
      <trkpt lat="46.18512" lon="4.59232">
        <ele>785.4</ele>
        <time>2025-09-20T10:03:23Z</time>
      </trkpt>
      <trkpt lat="46.18512" lon="4.59233">
        <ele>785.6</ele>
        <time>2025-09-20T10:03:24Z</time>
      </trkpt>
      <trkpt lat="46.18513" lon="4.59233">
        <ele>785.6</ele>
        <time>2025-09-20T10:03:25Z</time>
      </trkpt>
      <trkpt lat="46.18512" lon="4.59233">
        <ele>785.6</ele>
        <time>2025-09-20T10:03:26Z</time>
      </trkpt>
      <trkpt lat="46.18511" lon="4.59233">
        <ele>785.6</ele>
        <time>2025-09-20T10:03:27Z</time>
      </trkpt>
      <trkpt lat="46.18511" lon="4.59233">
        <ele>785.6</ele>
        <time>2025-09-20T10:03:28Z</time>
      </trkpt>
      <trkpt lat="46.1851" lon="4.59232">
        <ele>785.8</ele>
        <time>2025-09-20T10:03:29Z</time>
      </trkpt>
      <trkpt lat="46.1851" lon="4.59232">
        <ele>785.8</ele>
        <time>2025-09-20T10:03:30Z</time>
      </trkpt>
      <trkpt lat="46.1851" lon="4.59231">
        <ele>786.4</ele>
        <time>2025-09-20T10:03:31Z</time>
      </trkpt>
      <trkpt lat="46.18508" lon="4.59237">
        <ele>787.4</ele>
        <time>2025-09-20T10:03:35Z</time>
      </trkpt>
      <trkpt lat="46.18508" lon="4.5924">
        <ele>787.6</ele>
        <time>2025-09-20T10:03:36Z</time>
      </trkpt>
      <trkpt lat="46.18509" lon="4.59241">
        <ele>787.6</ele>
        <time>2025-09-20T10:03:37Z</time>
      </trkpt>
      <trkpt lat="46.18508" lon="4.59243">
        <ele>787.8</ele>
        <time>2025-09-20T10:03:38Z</time>
      </trkpt>
      <trkpt lat="46.18507" lon="4.59246">
        <ele>787.8</ele>
        <time>2025-09-20T10:03:39Z</time>
      </trkpt>
      <trkpt lat="46.18506" lon="4.59248">
        <ele>788</ele>
        <time>2025-09-20T10:03:40Z</time>
      </trkpt>
      <trkpt lat="46.18505" lon="4.59249">
        <ele>788</ele>
        <time>2025-09-20T10:03:41Z</time>
      </trkpt>
      <trkpt lat="46.18504" lon="4.59249">
        <ele>788</ele>
        <time>2025-09-20T10:03:42Z</time>
      </trkpt>
      <trkpt lat="46.18503" lon="4.59249">
        <ele>788.2</ele>
        <time>2025-09-20T10:03:43Z</time>
      </trkpt>
      <trkpt lat="46.18501" lon="4.5925">
        <ele>788.6</ele>
        <time>2025-09-20T10:03:44Z</time>
      </trkpt>
      <trkpt lat="46.18499" lon="4.5925">
        <ele>788.6</ele>
        <time>2025-09-20T10:03:45Z</time>
      </trkpt>
      <trkpt lat="46.18499" lon="4.5925">
        <ele>788.6</ele>
        <time>2025-09-20T10:03:46Z</time>
      </trkpt>
      <trkpt lat="46.18498" lon="4.59252">
        <ele>788.6</ele>
        <time>2025-09-20T10:03:47Z</time>
      </trkpt>
      <trkpt lat="46.18498" lon="4.59253">
        <ele>789</ele>
        <time>2025-09-20T10:03:48Z</time>
      </trkpt>
      <trkpt lat="46.18497" lon="4.59254">
        <ele>789</ele>
        <time>2025-09-20T10:03:49Z</time>
      </trkpt>
      <trkpt lat="46.18496" lon="4.59255">
        <ele>789</ele>
        <time>2025-09-20T10:03:50Z</time>
      </trkpt>
      <trkpt lat="46.18494" lon="4.59256">
        <ele>789.4</ele>
        <time>2025-09-20T10:03:51Z</time>
      </trkpt>
      <trkpt lat="46.18493" lon="4.59257">
        <ele>789.4</ele>
        <time>2025-09-20T10:03:52Z</time>
      </trkpt>
      <trkpt lat="46.18493" lon="4.59257">
        <ele>789.4</ele>
        <time>2025-09-20T10:03:53Z</time>
      </trkpt>
      <trkpt lat="46.18492" lon="4.59258">
        <ele>789.4</ele>
        <time>2025-09-20T10:03:54Z</time>
      </trkpt>
      <trkpt lat="46.18491" lon="4.59259">
        <ele>789.2</ele>
        <time>2025-09-20T10:03:55Z</time>
      </trkpt>
      <trkpt lat="46.18491" lon="4.5926">
        <ele>789.4</ele>
        <time>2025-09-20T10:03:56Z</time>
      </trkpt>
      <trkpt lat="46.1849" lon="4.59261">
        <ele>789.6</ele>
        <time>2025-09-20T10:03:57Z</time>
      </trkpt>
      <trkpt lat="46.1849" lon="4.59262">
        <ele>789.6</ele>
        <time>2025-09-20T10:03:58Z</time>
      </trkpt>
      <trkpt lat="46.1849" lon="4.59263">
        <ele>789.6</ele>
        <time>2025-09-20T10:03:59Z</time>
      </trkpt>
      <trkpt lat="46.18489" lon="4.59263">
        <ele>790</ele>
        <time>2025-09-20T10:04:00Z</time>
      </trkpt>
      <trkpt lat="46.18489" lon="4.59264">
        <ele>790</ele>
        <time>2025-09-20T10:04:01Z</time>
      </trkpt>
      <trkpt lat="46.18488" lon="4.59264">
        <ele>790</ele>
        <time>2025-09-20T10:04:02Z</time>
      </trkpt>
      <trkpt lat="46.18488" lon="4.59265">
        <ele>790</ele>
        <time>2025-09-20T10:04:03Z</time>
      </trkpt>
      <trkpt lat="46.18487" lon="4.59265">
        <ele>790</ele>
        <time>2025-09-20T10:04:04Z</time>
      </trkpt>
      <trkpt lat="46.18487" lon="4.59265">
        <ele>790</ele>
        <time>2025-09-20T10:04:05Z</time>
      </trkpt>
      <trkpt lat="46.18487" lon="4.59272">
        <ele>790.8</ele>
        <time>2025-09-20T10:04:34Z</time>
      </trkpt>
      <trkpt lat="46.18488" lon="4.59274">
        <ele>790.8</ele>
        <time>2025-09-20T10:04:35Z</time>
      </trkpt>
      <trkpt lat="46.18489" lon="4.59276">
        <ele>790.4</ele>
        <time>2025-09-20T10:04:36Z</time>
      </trkpt>
      <trkpt lat="46.18489" lon="4.59277">
        <ele>790.2</ele>
        <time>2025-09-20T10:04:37Z</time>
      </trkpt>
      <trkpt lat="46.1849" lon="4.59278">
        <ele>790.2</ele>
        <time>2025-09-20T10:04:38Z</time>
      </trkpt>
      <trkpt lat="46.1849" lon="4.5928">
        <ele>790.2</ele>
        <time>2025-09-20T10:04:39Z</time>
      </trkpt>
      <trkpt lat="46.18489" lon="4.59285">
        <ele>790.4</ele>
        <time>2025-09-20T10:04:40Z</time>
      </trkpt>
      <trkpt lat="46.18487" lon="4.59291">
        <ele>790.8</ele>
        <time>2025-09-20T10:04:41Z</time>
      </trkpt>
      <trkpt lat="46.18485" lon="4.59293">
        <ele>790.8</ele>
        <time>2025-09-20T10:04:42Z</time>
      </trkpt>
      <trkpt lat="46.18484" lon="4.59295">
        <ele>791.4</ele>
        <time>2025-09-20T10:04:43Z</time>
      </trkpt>
      <trkpt lat="46.18484" lon="4.59297">
        <ele>791.8</ele>
        <time>2025-09-20T10:04:44Z</time>
      </trkpt>
      <trkpt lat="46.18484" lon="4.59301">
        <ele>791.8</ele>
        <time>2025-09-20T10:04:45Z</time>
      </trkpt>
      <trkpt lat="46.18484" lon="4.59304">
        <ele>791.8</ele>
        <time>2025-09-20T10:04:46Z</time>
      </trkpt>
      <trkpt lat="46.18484" lon="4.59308">
        <ele>792</ele>
        <time>2025-09-20T10:04:47Z</time>
      </trkpt>
      <trkpt lat="46.18483" lon="4.59311">
        <ele>792</ele>
        <time>2025-09-20T10:04:48Z</time>
      </trkpt>
      <trkpt lat="46.18483" lon="4.59314">
        <ele>792</ele>
        <time>2025-09-20T10:04:49Z</time>
      </trkpt>
      <trkpt lat="46.18482" lon="4.59316">
        <ele>792</ele>
        <time>2025-09-20T10:04:50Z</time>
      </trkpt>
      <trkpt lat="46.18481" lon="4.5932">
        <ele>792.4</ele>
        <time>2025-09-20T10:04:51Z</time>
      </trkpt>
      <trkpt lat="46.1848" lon="4.59322">
        <ele>792.6</ele>
        <time>2025-09-20T10:04:52Z</time>
      </trkpt>
      <trkpt lat="46.18479" lon="4.59325">
        <ele>792.6</ele>
        <time>2025-09-20T10:04:53Z</time>
      </trkpt>
      <trkpt lat="46.18479" lon="4.59328">
        <ele>792.6</ele>
        <time>2025-09-20T10:04:54Z</time>
      </trkpt>
      <trkpt lat="46.18478" lon="4.5933">
        <ele>793</ele>
        <time>2025-09-20T10:04:55Z</time>
      </trkpt>
      <trkpt lat="46.18477" lon="4.59334">
        <ele>793</ele>
        <time>2025-09-20T10:04:56Z</time>
      </trkpt>
      <trkpt lat="46.18477" lon="4.59338">
        <ele>793.2</ele>
        <time>2025-09-20T10:04:57Z</time>
      </trkpt>
      <trkpt lat="46.18476" lon="4.59342">
        <ele>793.2</ele>
        <time>2025-09-20T10:04:58Z</time>
      </trkpt>
      <trkpt lat="46.18476" lon="4.59346">
        <ele>793.2</ele>
        <time>2025-09-20T10:04:59Z</time>
      </trkpt>
      <trkpt lat="46.18476" lon="4.5935">
        <ele>793.2</ele>
        <time>2025-09-20T10:05:00Z</time>
      </trkpt>
      <trkpt lat="46.18476" lon="4.59354">
        <ele>793.2</ele>
        <time>2025-09-20T10:05:01Z</time>
      </trkpt>
      <trkpt lat="46.18476" lon="4.59358">
        <ele>793.2</ele>
        <time>2025-09-20T10:05:02Z</time>
      </trkpt>
      <trkpt lat="46.18475" lon="4.59362">
        <ele>793.2</ele>
        <time>2025-09-20T10:05:03Z</time>
      </trkpt>
      <trkpt lat="46.18474" lon="4.59366">
        <ele>793</ele>
        <time>2025-09-20T10:05:04Z</time>
      </trkpt>
      <trkpt lat="46.18473" lon="4.5937">
        <ele>793</ele>
        <time>2025-09-20T10:05:05Z</time>
      </trkpt>
      <trkpt lat="46.18473" lon="4.59374">
        <ele>793.2</ele>
        <time>2025-09-20T10:05:06Z</time>
      </trkpt>
      <trkpt lat="46.18474" lon="4.59378">
        <ele>792.8</ele>
        <time>2025-09-20T10:05:07Z</time>
      </trkpt>
      <trkpt lat="46.18474" lon="4.59378">
        <ele>793.4</ele>
        <time>2025-09-20T10:05:08Z</time>
      </trkpt>
      <trkpt lat="46.18475" lon="4.59381">
        <ele>793</ele>
        <time>2025-09-20T10:05:09Z</time>
      </trkpt>
      <trkpt lat="46.18475" lon="4.59385">
        <ele>793.6</ele>
        <time>2025-09-20T10:05:10Z</time>
      </trkpt>
      <trkpt lat="46.18476" lon="4.59387">
        <ele>794</ele>
        <time>2025-09-20T10:05:11Z</time>
      </trkpt>
      <trkpt lat="46.18476" lon="4.59389">
        <ele>794.2</ele>
        <time>2025-09-20T10:05:12Z</time>
      </trkpt>
      <trkpt lat="46.18476" lon="4.59392">
        <ele>794.2</ele>
        <time>2025-09-20T10:05:13Z</time>
      </trkpt>
      <trkpt lat="46.18477" lon="4.59396">
        <ele>794.2</ele>
        <time>2025-09-20T10:05:14Z</time>
      </trkpt>
      <trkpt lat="46.18478" lon="4.59401">
        <ele>794.2</ele>
        <time>2025-09-20T10:05:15Z</time>
      </trkpt>
      <trkpt lat="46.18478" lon="4.59405">
        <ele>794</ele>
        <time>2025-09-20T10:05:16Z</time>
      </trkpt>
      <trkpt lat="46.18478" lon="4.59408">
        <ele>794</ele>
        <time>2025-09-20T10:05:17Z</time>
      </trkpt>
      <trkpt lat="46.18479" lon="4.59411">
        <ele>794.4</ele>
        <time>2025-09-20T10:05:18Z</time>
      </trkpt>
      <trkpt lat="46.1848" lon="4.59414">
        <ele>794.4</ele>
        <time>2025-09-20T10:05:19Z</time>
      </trkpt>
      <trkpt lat="46.18482" lon="4.59418">
        <ele>794</ele>
        <time>2025-09-20T10:05:20Z</time>
      </trkpt>
      <trkpt lat="46.18483" lon="4.59423">
        <ele>794</ele>
        <time>2025-09-20T10:05:21Z</time>
      </trkpt>
      <trkpt lat="46.18484" lon="4.59427">
        <ele>793.6</ele>
        <time>2025-09-20T10:05:22Z</time>
      </trkpt>
      <trkpt lat="46.18484" lon="4.5943">
        <ele>793.6</ele>
        <time>2025-09-20T10:05:23Z</time>
      </trkpt>
      <trkpt lat="46.18484" lon="4.59433">
        <ele>793.6</ele>
        <time>2025-09-20T10:05:24Z</time>
      </trkpt>
      <trkpt lat="46.18483" lon="4.59437">
        <ele>793.4</ele>
        <time>2025-09-20T10:05:25Z</time>
      </trkpt>
      <trkpt lat="46.18483" lon="4.59441">
        <ele>793.4</ele>
        <time>2025-09-20T10:05:26Z</time>
      </trkpt>
      <trkpt lat="46.18482" lon="4.59445">
        <ele>793.4</ele>
        <time>2025-09-20T10:05:27Z</time>
      </trkpt>
      <trkpt lat="46.18481" lon="4.5945">
        <ele>793.4</ele>
        <time>2025-09-20T10:05:28Z</time>
      </trkpt>
      <trkpt lat="46.1848" lon="4.59454">
        <ele>793.4</ele>
        <time>2025-09-20T10:05:29Z</time>
      </trkpt>
      <trkpt lat="46.1848" lon="4.59457">
        <ele>793.8</ele>
        <time>2025-09-20T10:05:30Z</time>
      </trkpt>
      <trkpt lat="46.18479" lon="4.5946">
        <ele>793.8</ele>
        <time>2025-09-20T10:05:31Z</time>
      </trkpt>
      <trkpt lat="46.18477" lon="4.59464">
        <ele>794.6</ele>
        <time>2025-09-20T10:05:32Z</time>
      </trkpt>
      <trkpt lat="46.18476" lon="4.59468">
        <ele>795</ele>
        <time>2025-09-20T10:05:33Z</time>
      </trkpt>
      <trkpt lat="46.18475" lon="4.59472">
        <ele>795.4</ele>
        <time>2025-09-20T10:05:34Z</time>
      </trkpt>
      <trkpt lat="46.18474" lon="4.59476">
        <ele>795.2</ele>
        <time>2025-09-20T10:05:35Z</time>
      </trkpt>
      <trkpt lat="46.18474" lon="4.59481">
        <ele>795.4</ele>
        <time>2025-09-20T10:05:36Z</time>
      </trkpt>
      <trkpt lat="46.18473" lon="4.59485">
        <ele>794.8</ele>
        <time>2025-09-20T10:05:37Z</time>
      </trkpt>
      <trkpt lat="46.18473" lon="4.5949">
        <ele>794.8</ele>
        <time>2025-09-20T10:05:38Z</time>
      </trkpt>
      <trkpt lat="46.18472" lon="4.59493">
        <ele>795.2</ele>
        <time>2025-09-20T10:05:39Z</time>
      </trkpt>
      <trkpt lat="46.18472" lon="4.59497">
        <ele>795.2</ele>
        <time>2025-09-20T10:05:40Z</time>
      </trkpt>
      <trkpt lat="46.18471" lon="4.595">
        <ele>795.2</ele>
        <time>2025-09-20T10:05:41Z</time>
      </trkpt>
      <trkpt lat="46.18471" lon="4.59504">
        <ele>795.2</ele>
        <time>2025-09-20T10:05:42Z</time>
      </trkpt>
      <trkpt lat="46.18471" lon="4.59506">
        <ele>795.2</ele>
        <time>2025-09-20T10:05:43Z</time>
      </trkpt>
      <trkpt lat="46.18471" lon="4.59508">
        <ele>795.2</ele>
        <time>2025-09-20T10:05:44Z</time>
      </trkpt>
      <trkpt lat="46.18471" lon="4.59512">
        <ele>795.4</ele>
        <time>2025-09-20T10:05:45Z</time>
      </trkpt>
      <trkpt lat="46.18472" lon="4.59515">
        <ele>795.4</ele>
        <time>2025-09-20T10:05:46Z</time>
      </trkpt>
      <trkpt lat="46.18472" lon="4.59519">
        <ele>796.2</ele>
        <time>2025-09-20T10:05:47Z</time>
      </trkpt>
      <trkpt lat="46.18473" lon="4.59522">
        <ele>796.2</ele>
        <time>2025-09-20T10:05:48Z</time>
      </trkpt>
      <trkpt lat="46.18473" lon="4.59525">
        <ele>796</ele>
        <time>2025-09-20T10:05:49Z</time>
      </trkpt>
      <trkpt lat="46.18472" lon="4.59527">
        <ele>796</ele>
        <time>2025-09-20T10:05:50Z</time>
      </trkpt>
      <trkpt lat="46.18471" lon="4.59529">
        <ele>796</ele>
        <time>2025-09-20T10:05:51Z</time>
      </trkpt>
      <trkpt lat="46.1847" lon="4.59531">
        <ele>796</ele>
        <time>2025-09-20T10:05:52Z</time>
      </trkpt>
      <trkpt lat="46.18469" lon="4.59533">
        <ele>796</ele>
        <time>2025-09-20T10:05:53Z</time>
      </trkpt>
      <trkpt lat="46.18468" lon="4.59536">
        <ele>796</ele>
        <time>2025-09-20T10:05:54Z</time>
      </trkpt>
      <trkpt lat="46.18467" lon="4.59541">
        <ele>796</ele>
        <time>2025-09-20T10:05:55Z</time>
      </trkpt>
      <trkpt lat="46.18466" lon="4.59546">
        <ele>796</ele>
        <time>2025-09-20T10:05:56Z</time>
      </trkpt>
      <trkpt lat="46.18465" lon="4.59551">
        <ele>796</ele>
        <time>2025-09-20T10:05:57Z</time>
      </trkpt>
      <trkpt lat="46.18464" lon="4.59555">
        <ele>796</ele>
        <time>2025-09-20T10:05:58Z</time>
      </trkpt>
      <trkpt lat="46.18464" lon="4.59559">
        <ele>796.2</ele>
        <time>2025-09-20T10:05:59Z</time>
      </trkpt>
      <trkpt lat="46.18463" lon="4.59563">
        <ele>796.2</ele>
        <time>2025-09-20T10:06:00Z</time>
      </trkpt>
      <trkpt lat="46.18462" lon="4.59567">
        <ele>796.2</ele>
        <time>2025-09-20T10:06:01Z</time>
      </trkpt>
      <trkpt lat="46.18461" lon="4.59572">
        <ele>796.2</ele>
        <time>2025-09-20T10:06:02Z</time>
      </trkpt>
      <trkpt lat="46.18459" lon="4.59577">
        <ele>796.2</ele>
        <time>2025-09-20T10:06:03Z</time>
      </trkpt>
      <trkpt lat="46.18458" lon="4.59582">
        <ele>796.2</ele>
        <time>2025-09-20T10:06:04Z</time>
      </trkpt>
      <trkpt lat="46.18457" lon="4.59586">
        <ele>796.2</ele>
        <time>2025-09-20T10:06:05Z</time>
      </trkpt>
      <trkpt lat="46.18457" lon="4.59591">
        <ele>796.2</ele>
        <time>2025-09-20T10:06:06Z</time>
      </trkpt>
      <trkpt lat="46.18456" lon="4.59595">
        <ele>796.4</ele>
        <time>2025-09-20T10:06:07Z</time>
      </trkpt>
      <trkpt lat="46.18456" lon="4.59599">
        <ele>796.4</ele>
        <time>2025-09-20T10:06:08Z</time>
      </trkpt>
      <trkpt lat="46.18455" lon="4.59603">
        <ele>796.2</ele>
        <time>2025-09-20T10:06:09Z</time>
      </trkpt>
      <trkpt lat="46.18454" lon="4.59608">
        <ele>796.2</ele>
        <time>2025-09-20T10:06:10Z</time>
      </trkpt>
      <trkpt lat="46.18453" lon="4.59612">
        <ele>796.2</ele>
        <time>2025-09-20T10:06:11Z</time>
      </trkpt>
      <trkpt lat="46.18452" lon="4.59616">
        <ele>796.2</ele>
        <time>2025-09-20T10:06:12Z</time>
      </trkpt>
      <trkpt lat="46.1845" lon="4.59621">
        <ele>796.2</ele>
        <time>2025-09-20T10:06:13Z</time>
      </trkpt>
      <trkpt lat="46.18449" lon="4.59626">
        <ele>796.2</ele>
        <time>2025-09-20T10:06:14Z</time>
      </trkpt>
      <trkpt lat="46.18449" lon="4.59631">
        <ele>796.2</ele>
        <time>2025-09-20T10:06:15Z</time>
      </trkpt>
      <trkpt lat="46.18448" lon="4.59636">
        <ele>796.4</ele>
        <time>2025-09-20T10:06:16Z</time>
      </trkpt>
      <trkpt lat="46.18447" lon="4.59641">
        <ele>796.4</ele>
        <time>2025-09-20T10:06:17Z</time>
      </trkpt>
      <trkpt lat="46.18445" lon="4.59646">
        <ele>796.4</ele>
        <time>2025-09-20T10:06:18Z</time>
      </trkpt>
      <trkpt lat="46.18443" lon="4.59651">
        <ele>796</ele>
        <time>2025-09-20T10:06:19Z</time>
      </trkpt>
      <trkpt lat="46.18442" lon="4.59656">
        <ele>796</ele>
        <time>2025-09-20T10:06:20Z</time>
      </trkpt>
      <trkpt lat="46.18441" lon="4.5966">
        <ele>796.6</ele>
        <time>2025-09-20T10:06:21Z</time>
      </trkpt>
      <trkpt lat="46.1844" lon="4.59663">
        <ele>796.6</ele>
        <time>2025-09-20T10:06:22Z</time>
      </trkpt>
      <trkpt lat="46.18439" lon="4.59668">
        <ele>796.6</ele>
        <time>2025-09-20T10:06:23Z</time>
      </trkpt>
      <trkpt lat="46.18437" lon="4.59672">
        <ele>796.6</ele>
        <time>2025-09-20T10:06:24Z</time>
      </trkpt>
      <trkpt lat="46.18435" lon="4.59675">
        <ele>796.4</ele>
        <time>2025-09-20T10:06:25Z</time>
      </trkpt>
      <trkpt lat="46.18432" lon="4.59678">
        <ele>796.4</ele>
        <time>2025-09-20T10:06:26Z</time>
      </trkpt>
      <trkpt lat="46.18429" lon="4.59681">
        <ele>796.4</ele>
        <time>2025-09-20T10:06:27Z</time>
      </trkpt>
      <trkpt lat="46.18426" lon="4.59685">
        <ele>796.4</ele>
        <time>2025-09-20T10:06:28Z</time>
      </trkpt>
      <trkpt lat="46.18425" lon="4.59689">
        <ele>796.6</ele>
        <time>2025-09-20T10:06:29Z</time>
      </trkpt>
      <trkpt lat="46.18423" lon="4.59693">
        <ele>796.6</ele>
        <time>2025-09-20T10:06:30Z</time>
      </trkpt>
      <trkpt lat="46.18421" lon="4.59696">
        <ele>796.4</ele>
        <time>2025-09-20T10:06:31Z</time>
      </trkpt>
      <trkpt lat="46.18419" lon="4.597">
        <ele>796.4</ele>
        <time>2025-09-20T10:06:32Z</time>
      </trkpt>
      <trkpt lat="46.18417" lon="4.59703">
        <ele>796.4</ele>
        <time>2025-09-20T10:06:33Z</time>
      </trkpt>
      <trkpt lat="46.18415" lon="4.59707">
        <ele>796.4</ele>
        <time>2025-09-20T10:06:34Z</time>
      </trkpt>
      <trkpt lat="46.18414" lon="4.59713">
        <ele>796.4</ele>
        <time>2025-09-20T10:06:35Z</time>
      </trkpt>
      <trkpt lat="46.18415" lon="4.59716">
        <ele>796.4</ele>
        <time>2025-09-20T10:06:36Z</time>
      </trkpt>
      <trkpt lat="46.18415" lon="4.59721">
        <ele>796.4</ele>
        <time>2025-09-20T10:06:37Z</time>
      </trkpt>
      <trkpt lat="46.18415" lon="4.59726">
        <ele>796.4</ele>
        <time>2025-09-20T10:06:38Z</time>
      </trkpt>
      <trkpt lat="46.18414" lon="4.59729">
        <ele>796.4</ele>
        <time>2025-09-20T10:06:39Z</time>
      </trkpt>
      <trkpt lat="46.18414" lon="4.59734">
        <ele>796.4</ele>
        <time>2025-09-20T10:06:40Z</time>
      </trkpt>
      <trkpt lat="46.18414" lon="4.59736">
        <ele>796.4</ele>
        <time>2025-09-20T10:06:41Z</time>
      </trkpt>
      <trkpt lat="46.18415" lon="4.5974">
        <ele>796.8</ele>
        <time>2025-09-20T10:06:42Z</time>
      </trkpt>
      <trkpt lat="46.18413" lon="4.59745">
        <ele>796.8</ele>
        <time>2025-09-20T10:06:43Z</time>
      </trkpt>
      <trkpt lat="46.18412" lon="4.59748">
        <ele>796.8</ele>
        <time>2025-09-20T10:06:44Z</time>
      </trkpt>
      <trkpt lat="46.18411" lon="4.59751">
        <ele>796.8</ele>
        <time>2025-09-20T10:06:45Z</time>
      </trkpt>
      <trkpt lat="46.1841" lon="4.59754">
        <ele>796.8</ele>
        <time>2025-09-20T10:06:46Z</time>
      </trkpt>
      <trkpt lat="46.18409" lon="4.59758">
        <ele>796.8</ele>
        <time>2025-09-20T10:06:47Z</time>
      </trkpt>
      <trkpt lat="46.18408" lon="4.59762">
        <ele>796.8</ele>
        <time>2025-09-20T10:06:48Z</time>
      </trkpt>
      <trkpt lat="46.18406" lon="4.59766">
        <ele>797</ele>
        <time>2025-09-20T10:06:49Z</time>
      </trkpt>
      <trkpt lat="46.18405" lon="4.5977">
        <ele>797</ele>
        <time>2025-09-20T10:06:50Z</time>
      </trkpt>
      <trkpt lat="46.18404" lon="4.59773">
        <ele>797.4</ele>
        <time>2025-09-20T10:06:51Z</time>
      </trkpt>
      <trkpt lat="46.18403" lon="4.59778">
        <ele>797.4</ele>
        <time>2025-09-20T10:06:52Z</time>
      </trkpt>
      <trkpt lat="46.18402" lon="4.59783">
        <ele>797.4</ele>
        <time>2025-09-20T10:06:53Z</time>
      </trkpt>
      <trkpt lat="46.18401" lon="4.59787">
        <ele>797.6</ele>
        <time>2025-09-20T10:06:54Z</time>
      </trkpt>
      <trkpt lat="46.18399" lon="4.59791">
        <ele>797.6</ele>
        <time>2025-09-20T10:06:55Z</time>
      </trkpt>
      <trkpt lat="46.18397" lon="4.59795">
        <ele>797.6</ele>
        <time>2025-09-20T10:06:56Z</time>
      </trkpt>
      <trkpt lat="46.18395" lon="4.59798">
        <ele>797.6</ele>
        <time>2025-09-20T10:06:57Z</time>
      </trkpt>
      <trkpt lat="46.18395" lon="4.59802">
        <ele>797.6</ele>
        <time>2025-09-20T10:06:58Z</time>
      </trkpt>
      <trkpt lat="46.18394" lon="4.59806">
        <ele>797.6</ele>
        <time>2025-09-20T10:06:59Z</time>
      </trkpt>
      <trkpt lat="46.18393" lon="4.5981">
        <ele>797.6</ele>
        <time>2025-09-20T10:07:00Z</time>
      </trkpt>
      <trkpt lat="46.18393" lon="4.59814">
        <ele>798</ele>
        <time>2025-09-20T10:07:01Z</time>
      </trkpt>
      <trkpt lat="46.18392" lon="4.59818">
        <ele>798.2</ele>
        <time>2025-09-20T10:07:02Z</time>
      </trkpt>
      <trkpt lat="46.18392" lon="4.59822">
        <ele>798.2</ele>
        <time>2025-09-20T10:07:03Z</time>
      </trkpt>
      <trkpt lat="46.18391" lon="4.59827">
        <ele>798.2</ele>
        <time>2025-09-20T10:07:04Z</time>
      </trkpt>
      <trkpt lat="46.1839" lon="4.59832">
        <ele>798.4</ele>
        <time>2025-09-20T10:07:05Z</time>
      </trkpt>
      <trkpt lat="46.1839" lon="4.59836">
        <ele>798.4</ele>
        <time>2025-09-20T10:07:06Z</time>
      </trkpt>
      <trkpt lat="46.1839" lon="4.59839">
        <ele>798.4</ele>
        <time>2025-09-20T10:07:07Z</time>
      </trkpt>
      <trkpt lat="46.1839" lon="4.59843">
        <ele>798.4</ele>
        <time>2025-09-20T10:07:08Z</time>
      </trkpt>
      <trkpt lat="46.1839" lon="4.59846">
        <ele>798.4</ele>
        <time>2025-09-20T10:07:09Z</time>
      </trkpt>
      <trkpt lat="46.1839" lon="4.59851">
        <ele>799</ele>
        <time>2025-09-20T10:07:10Z</time>
      </trkpt>
      <trkpt lat="46.1839" lon="4.59855">
        <ele>799</ele>
        <time>2025-09-20T10:07:11Z</time>
      </trkpt>
      <trkpt lat="46.1839" lon="4.5986">
        <ele>799</ele>
        <time>2025-09-20T10:07:12Z</time>
      </trkpt>
      <trkpt lat="46.18391" lon="4.59868">
        <ele>799.2</ele>
        <time>2025-09-20T10:07:13Z</time>
      </trkpt>
      <trkpt lat="46.18392" lon="4.59872">
        <ele>799</ele>
        <time>2025-09-20T10:07:14Z</time>
      </trkpt>
      <trkpt lat="46.18392" lon="4.59875">
        <ele>799</ele>
        <time>2025-09-20T10:07:15Z</time>
      </trkpt>
      <trkpt lat="46.18392" lon="4.59877">
        <ele>799.2</ele>
        <time>2025-09-20T10:07:16Z</time>
      </trkpt>
      <trkpt lat="46.18392" lon="4.5988">
        <ele>799.4</ele>
        <time>2025-09-20T10:07:17Z</time>
      </trkpt>
      <trkpt lat="46.18393" lon="4.59884">
        <ele>799.8</ele>
        <time>2025-09-20T10:07:18Z</time>
      </trkpt>
      <trkpt lat="46.18393" lon="4.59888">
        <ele>799.8</ele>
        <time>2025-09-20T10:07:19Z</time>
      </trkpt>
      <trkpt lat="46.18393" lon="4.59892">
        <ele>800.2</ele>
        <time>2025-09-20T10:07:20Z</time>
      </trkpt>
      <trkpt lat="46.18393" lon="4.59896">
        <ele>800.2</ele>
        <time>2025-09-20T10:07:21Z</time>
      </trkpt>
      <trkpt lat="46.18392" lon="4.59899">
        <ele>800.2</ele>
        <time>2025-09-20T10:07:22Z</time>
      </trkpt>
      <trkpt lat="46.18392" lon="4.59901">
        <ele>800.4</ele>
        <time>2025-09-20T10:07:23Z</time>
      </trkpt>
      <trkpt lat="46.18392" lon="4.59903">
        <ele>800.4</ele>
        <time>2025-09-20T10:07:24Z</time>
      </trkpt>
      <trkpt lat="46.18392" lon="4.59905">
        <ele>800.4</ele>
        <time>2025-09-20T10:07:25Z</time>
      </trkpt>
      <trkpt lat="46.18393" lon="4.59906">
        <ele>800.4</ele>
        <time>2025-09-20T10:07:26Z</time>
      </trkpt>
      <trkpt lat="46.18392" lon="4.59908">
        <ele>800.8</ele>
        <time>2025-09-20T10:07:27Z</time>
      </trkpt>
      <trkpt lat="46.18392" lon="4.59908">
        <ele>800.8</ele>
        <time>2025-09-20T10:07:28Z</time>
      </trkpt>
      <trkpt lat="46.18391" lon="4.59908">
        <ele>801</ele>
        <time>2025-09-20T10:07:29Z</time>
      </trkpt>
      <trkpt lat="46.18393" lon="4.5991">
        <ele>801</ele>
        <time>2025-09-20T10:07:35Z</time>
      </trkpt>
      <trkpt lat="46.18393" lon="4.59912">
        <ele>801</ele>
        <time>2025-09-20T10:07:36Z</time>
      </trkpt>
      <trkpt lat="46.18393" lon="4.59915">
        <ele>801</ele>
        <time>2025-09-20T10:07:37Z</time>
      </trkpt>
      <trkpt lat="46.18394" lon="4.59917">
        <ele>801</ele>
        <time>2025-09-20T10:07:38Z</time>
      </trkpt>
      <trkpt lat="46.18394" lon="4.59919">
        <ele>801.4</ele>
        <time>2025-09-20T10:07:39Z</time>
      </trkpt>
      <trkpt lat="46.18394" lon="4.59922">
        <ele>801.8</ele>
        <time>2025-09-20T10:07:40Z</time>
      </trkpt>
      <trkpt lat="46.18394" lon="4.59925">
        <ele>802</ele>
        <time>2025-09-20T10:07:41Z</time>
      </trkpt>
      <trkpt lat="46.18393" lon="4.59928">
        <ele>802.4</ele>
        <time>2025-09-20T10:07:42Z</time>
      </trkpt>
      <trkpt lat="46.18392" lon="4.59931">
        <ele>802.4</ele>
        <time>2025-09-20T10:07:43Z</time>
      </trkpt>
      <trkpt lat="46.18391" lon="4.59933">
        <ele>802.6</ele>
        <time>2025-09-20T10:07:44Z</time>
      </trkpt>
      <trkpt lat="46.1839" lon="4.59936">
        <ele>802.6</ele>
        <time>2025-09-20T10:07:45Z</time>
      </trkpt>
      <trkpt lat="46.18389" lon="4.59937">
        <ele>802.6</ele>
        <time>2025-09-20T10:07:46Z</time>
      </trkpt>
      <trkpt lat="46.18387" lon="4.5994">
        <ele>803</ele>
        <time>2025-09-20T10:07:47Z</time>
      </trkpt>
      <trkpt lat="46.18386" lon="4.59943">
        <ele>803</ele>
        <time>2025-09-20T10:07:48Z</time>
      </trkpt>
      <trkpt lat="46.18385" lon="4.59946">
        <ele>803.2</ele>
        <time>2025-09-20T10:07:49Z</time>
      </trkpt>
      <trkpt lat="46.18384" lon="4.59949">
        <ele>803.2</ele>
        <time>2025-09-20T10:07:50Z</time>
      </trkpt>
      <trkpt lat="46.18384" lon="4.59953">
        <ele>803.6</ele>
        <time>2025-09-20T10:07:51Z</time>
      </trkpt>
      <trkpt lat="46.18384" lon="4.59958">
        <ele>803.6</ele>
        <time>2025-09-20T10:07:52Z</time>
      </trkpt>
      <trkpt lat="46.18384" lon="4.59961">
        <ele>804</ele>
        <time>2025-09-20T10:07:53Z</time>
      </trkpt>
      <trkpt lat="46.18383" lon="4.59964">
        <ele>804</ele>
        <time>2025-09-20T10:07:54Z</time>
      </trkpt>
      <trkpt lat="46.18383" lon="4.59966">
        <ele>804</ele>
        <time>2025-09-20T10:07:55Z</time>
      </trkpt>
      <trkpt lat="46.18384" lon="4.59968">
        <ele>804</ele>
        <time>2025-09-20T10:07:56Z</time>
      </trkpt>
      <trkpt lat="46.18384" lon="4.5997">
        <ele>804.2</ele>
        <time>2025-09-20T10:07:57Z</time>
      </trkpt>
      <trkpt lat="46.18384" lon="4.59971">
        <ele>804.2</ele>
        <time>2025-09-20T10:07:58Z</time>
      </trkpt>
      <trkpt lat="46.18384" lon="4.59971">
        <ele>804.2</ele>
        <time>2025-09-20T10:07:59Z</time>
      </trkpt>
      <trkpt lat="46.18381" lon="4.59982">
        <ele>804.6</ele>
        <time>2025-09-20T10:08:23Z</time>
      </trkpt>
      <trkpt lat="46.18381" lon="4.59986">
        <ele>804.6</ele>
        <time>2025-09-20T10:08:24Z</time>
      </trkpt>
      <trkpt lat="46.1838" lon="4.5999">
        <ele>804.6</ele>
        <time>2025-09-20T10:08:25Z</time>
      </trkpt>
      <trkpt lat="46.18378" lon="4.59993">
        <ele>804.8</ele>
        <time>2025-09-20T10:08:26Z</time>
      </trkpt>
      <trkpt lat="46.18376" lon="4.59996">
        <ele>804.8</ele>
        <time>2025-09-20T10:08:27Z</time>
      </trkpt>
      <trkpt lat="46.18374" lon="4.6">
        <ele>805.2</ele>
        <time>2025-09-20T10:08:28Z</time>
      </trkpt>
      <trkpt lat="46.18373" lon="4.60003">
        <ele>804.4</ele>
        <time>2025-09-20T10:08:29Z</time>
      </trkpt>
      <trkpt lat="46.18374" lon="4.60005">
        <ele>804.8</ele>
        <time>2025-09-20T10:08:30Z</time>
      </trkpt>
      <trkpt lat="46.18374" lon="4.60008">
        <ele>804.8</ele>
        <time>2025-09-20T10:08:31Z</time>
      </trkpt>
      <trkpt lat="46.18375" lon="4.60011">
        <ele>805.2</ele>
        <time>2025-09-20T10:08:32Z</time>
      </trkpt>
      <trkpt lat="46.18375" lon="4.60015">
        <ele>805.6</ele>
        <time>2025-09-20T10:08:33Z</time>
      </trkpt>
      <trkpt lat="46.18375" lon="4.60018">
        <ele>806</ele>
        <time>2025-09-20T10:08:34Z</time>
      </trkpt>
      <trkpt lat="46.18375" lon="4.60021">
        <ele>806.4</ele>
        <time>2025-09-20T10:08:35Z</time>
      </trkpt>
      <trkpt lat="46.18375" lon="4.60024">
        <ele>806.8</ele>
        <time>2025-09-20T10:08:36Z</time>
      </trkpt>
      <trkpt lat="46.18375" lon="4.60028">
        <ele>807</ele>
        <time>2025-09-20T10:08:37Z</time>
      </trkpt>
      <trkpt lat="46.18374" lon="4.60032">
        <ele>807.4</ele>
        <time>2025-09-20T10:08:38Z</time>
      </trkpt>
      <trkpt lat="46.18373" lon="4.60036">
        <ele>807.6</ele>
        <time>2025-09-20T10:08:39Z</time>
      </trkpt>
      <trkpt lat="46.18373" lon="4.60039">
        <ele>807.6</ele>
        <time>2025-09-20T10:08:40Z</time>
      </trkpt>
      <trkpt lat="46.18372" lon="4.60042">
        <ele>807.6</ele>
        <time>2025-09-20T10:08:41Z</time>
      </trkpt>
      <trkpt lat="46.18372" lon="4.60045">
        <ele>807.8</ele>
        <time>2025-09-20T10:08:42Z</time>
      </trkpt>
      <trkpt lat="46.18372" lon="4.60048">
        <ele>808.2</ele>
        <time>2025-09-20T10:08:43Z</time>
      </trkpt>
      <trkpt lat="46.18373" lon="4.60051">
        <ele>808.4</ele>
        <time>2025-09-20T10:08:44Z</time>
      </trkpt>
      <trkpt lat="46.18374" lon="4.60054">
        <ele>808.8</ele>
        <time>2025-09-20T10:08:45Z</time>
      </trkpt>
      <trkpt lat="46.18376" lon="4.60056">
        <ele>808.8</ele>
        <time>2025-09-20T10:08:46Z</time>
      </trkpt>
      <trkpt lat="46.18377" lon="4.60058">
        <ele>808.8</ele>
        <time>2025-09-20T10:08:47Z</time>
      </trkpt>
      <trkpt lat="46.18378" lon="4.60059">
        <ele>809</ele>
        <time>2025-09-20T10:08:48Z</time>
      </trkpt>
      <trkpt lat="46.18379" lon="4.60061">
        <ele>809</ele>
        <time>2025-09-20T10:08:49Z</time>
      </trkpt>
      <trkpt lat="46.18379" lon="4.60064">
        <ele>809.8</ele>
        <time>2025-09-20T10:08:50Z</time>
      </trkpt>
      <trkpt lat="46.18379" lon="4.60068">
        <ele>809.8</ele>
        <time>2025-09-20T10:08:51Z</time>
      </trkpt>
      <trkpt lat="46.18378" lon="4.60072">
        <ele>810.2</ele>
        <time>2025-09-20T10:08:52Z</time>
      </trkpt>
      <trkpt lat="46.18378" lon="4.60074">
        <ele>810.6</ele>
        <time>2025-09-20T10:08:53Z</time>
      </trkpt>
      <trkpt lat="46.18378" lon="4.60078">
        <ele>810.6</ele>
        <time>2025-09-20T10:08:54Z</time>
      </trkpt>
      <trkpt lat="46.18378" lon="4.6008">
        <ele>810.8</ele>
        <time>2025-09-20T10:08:55Z</time>
      </trkpt>
      <trkpt lat="46.18378" lon="4.60082">
        <ele>811</ele>
        <time>2025-09-20T10:08:56Z</time>
      </trkpt>
      <trkpt lat="46.18378" lon="4.60085">
        <ele>811</ele>
        <time>2025-09-20T10:08:57Z</time>
      </trkpt>
      <trkpt lat="46.18378" lon="4.60089">
        <ele>811.6</ele>
        <time>2025-09-20T10:08:58Z</time>
      </trkpt>
      <trkpt lat="46.18377" lon="4.60092">
        <ele>811.6</ele>
        <time>2025-09-20T10:08:59Z</time>
      </trkpt>
      <trkpt lat="46.18377" lon="4.60092">
        <ele>811.6</ele>
        <time>2025-09-20T10:09:00Z</time>
      </trkpt>
      <trkpt lat="46.18377" lon="4.60092">
        <ele>811.6</ele>
        <time>2025-09-20T10:09:01Z</time>
      </trkpt>
      <trkpt lat="46.18375" lon="4.60104">
        <ele>812.2</ele>
        <time>2025-09-20T10:09:03Z</time>
      </trkpt>
      <trkpt lat="46.18376" lon="4.60107">
        <ele>812.6</ele>
        <time>2025-09-20T10:09:04Z</time>
      </trkpt>
      <trkpt lat="46.18376" lon="4.6011">
        <ele>813.2</ele>
        <time>2025-09-20T10:09:05Z</time>
      </trkpt>
      <trkpt lat="46.18376" lon="4.60114">
        <ele>813.2</ele>
        <time>2025-09-20T10:09:06Z</time>
      </trkpt>
      <trkpt lat="46.18375" lon="4.60117">
        <ele>813.6</ele>
        <time>2025-09-20T10:09:07Z</time>
      </trkpt>
      <trkpt lat="46.18375" lon="4.6012">
        <ele>813.8</ele>
        <time>2025-09-20T10:09:08Z</time>
      </trkpt>
      <trkpt lat="46.18374" lon="4.60124">
        <ele>814.2</ele>
        <time>2025-09-20T10:09:09Z</time>
      </trkpt>
      <trkpt lat="46.18374" lon="4.60127">
        <ele>813.6</ele>
        <time>2025-09-20T10:09:10Z</time>
      </trkpt>
      <trkpt lat="46.18374" lon="4.60131">
        <ele>814.2</ele>
        <time>2025-09-20T10:09:11Z</time>
      </trkpt>
      <trkpt lat="46.18375" lon="4.60134">
        <ele>814.4</ele>
        <time>2025-09-20T10:09:12Z</time>
      </trkpt>
      <trkpt lat="46.18375" lon="4.60137">
        <ele>814.8</ele>
        <time>2025-09-20T10:09:13Z</time>
      </trkpt>
      <trkpt lat="46.18375" lon="4.60139">
        <ele>815</ele>
        <time>2025-09-20T10:09:14Z</time>
      </trkpt>
      <trkpt lat="46.18374" lon="4.60141">
        <ele>815.4</ele>
        <time>2025-09-20T10:09:15Z</time>
      </trkpt>
      <trkpt lat="46.18374" lon="4.60143">
        <ele>815.6</ele>
        <time>2025-09-20T10:09:16Z</time>
      </trkpt>
      <trkpt lat="46.18375" lon="4.60144">
        <ele>815.6</ele>
        <time>2025-09-20T10:09:17Z</time>
      </trkpt>
      <trkpt lat="46.18375" lon="4.60146">
        <ele>816</ele>
        <time>2025-09-20T10:09:18Z</time>
      </trkpt>
      <trkpt lat="46.18375" lon="4.60148">
        <ele>816</ele>
        <time>2025-09-20T10:09:19Z</time>
      </trkpt>
      <trkpt lat="46.18375" lon="4.60149">
        <ele>816.6</ele>
        <time>2025-09-20T10:09:20Z</time>
      </trkpt>
      <trkpt lat="46.18376" lon="4.60149">
        <ele>816.6</ele>
        <time>2025-09-20T10:09:21Z</time>
      </trkpt>
      <trkpt lat="46.18376" lon="4.60151">
        <ele>816.6</ele>
        <time>2025-09-20T10:09:22Z</time>
      </trkpt>
      <trkpt lat="46.18377" lon="4.60153">
        <ele>816.6</ele>
        <time>2025-09-20T10:09:23Z</time>
      </trkpt>
      <trkpt lat="46.18377" lon="4.60157">
        <ele>816.6</ele>
        <time>2025-09-20T10:09:24Z</time>
      </trkpt>
      <trkpt lat="46.18377" lon="4.60159">
        <ele>816.2</ele>
        <time>2025-09-20T10:09:25Z</time>
      </trkpt>
      <trkpt lat="46.18377" lon="4.60161">
        <ele>816.2</ele>
        <time>2025-09-20T10:09:26Z</time>
      </trkpt>
      <trkpt lat="46.18377" lon="4.60164">
        <ele>816.6</ele>
        <time>2025-09-20T10:09:27Z</time>
      </trkpt>
      <trkpt lat="46.18376" lon="4.60167">
        <ele>816.8</ele>
        <time>2025-09-20T10:09:28Z</time>
      </trkpt>
      <trkpt lat="46.18375" lon="4.6017">
        <ele>817.2</ele>
        <time>2025-09-20T10:09:29Z</time>
      </trkpt>
      <trkpt lat="46.18374" lon="4.60172">
        <ele>817.2</ele>
        <time>2025-09-20T10:09:30Z</time>
      </trkpt>
      <trkpt lat="46.18374" lon="4.60175">
        <ele>817.4</ele>
        <time>2025-09-20T10:09:31Z</time>
      </trkpt>
      <trkpt lat="46.18374" lon="4.60178">
        <ele>817.8</ele>
        <time>2025-09-20T10:09:32Z</time>
      </trkpt>
      <trkpt lat="46.18374" lon="4.6018">
        <ele>818</ele>
        <time>2025-09-20T10:09:33Z</time>
      </trkpt>
      <trkpt lat="46.18374" lon="4.60182">
        <ele>818</ele>
        <time>2025-09-20T10:09:34Z</time>
      </trkpt>
      <trkpt lat="46.18374" lon="4.60185">
        <ele>818.4</ele>
        <time>2025-09-20T10:09:35Z</time>
      </trkpt>
      <trkpt lat="46.18374" lon="4.60187">
        <ele>818.8</ele>
        <time>2025-09-20T10:09:36Z</time>
      </trkpt>
      <trkpt lat="46.18374" lon="4.60189">
        <ele>818.8</ele>
        <time>2025-09-20T10:09:37Z</time>
      </trkpt>
      <trkpt lat="46.18375" lon="4.60191">
        <ele>819</ele>
        <time>2025-09-20T10:09:38Z</time>
      </trkpt>
      <trkpt lat="46.18374" lon="4.60193">
        <ele>819.4</ele>
        <time>2025-09-20T10:09:39Z</time>
      </trkpt>
      <trkpt lat="46.18374" lon="4.60195">
        <ele>819</ele>
        <time>2025-09-20T10:09:40Z</time>
      </trkpt>
      <trkpt lat="46.18375" lon="4.60197">
        <ele>819.2</ele>
        <time>2025-09-20T10:09:41Z</time>
      </trkpt>
      <trkpt lat="46.18375" lon="4.60198">
        <ele>819.4</ele>
        <time>2025-09-20T10:09:42Z</time>
      </trkpt>
      <trkpt lat="46.18375" lon="4.602">
        <ele>819.8</ele>
        <time>2025-09-20T10:09:43Z</time>
      </trkpt>
      <trkpt lat="46.18375" lon="4.60202">
        <ele>819.8</ele>
        <time>2025-09-20T10:09:44Z</time>
      </trkpt>
      <trkpt lat="46.18375" lon="4.60204">
        <ele>820</ele>
        <time>2025-09-20T10:09:45Z</time>
      </trkpt>
      <trkpt lat="46.18376" lon="4.60207">
        <ele>820.2</ele>
        <time>2025-09-20T10:09:46Z</time>
      </trkpt>
      <trkpt lat="46.18376" lon="4.60209">
        <ele>820.4</ele>
        <time>2025-09-20T10:09:47Z</time>
      </trkpt>
      <trkpt lat="46.18376" lon="4.60211">
        <ele>820.4</ele>
        <time>2025-09-20T10:09:48Z</time>
      </trkpt>
      <trkpt lat="46.18376" lon="4.60213">
        <ele>820.4</ele>
        <time>2025-09-20T10:09:49Z</time>
      </trkpt>
      <trkpt lat="46.18376" lon="4.60216">
        <ele>821</ele>
        <time>2025-09-20T10:09:50Z</time>
      </trkpt>
      <trkpt lat="46.18375" lon="4.60218">
        <ele>821</ele>
        <time>2025-09-20T10:09:51Z</time>
      </trkpt>
      <trkpt lat="46.18375" lon="4.60219">
        <ele>821.4</ele>
        <time>2025-09-20T10:09:52Z</time>
      </trkpt>
      <trkpt lat="46.18375" lon="4.60221">
        <ele>821.6</ele>
        <time>2025-09-20T10:09:53Z</time>
      </trkpt>
      <trkpt lat="46.18375" lon="4.60222">
        <ele>821.4</ele>
        <time>2025-09-20T10:09:54Z</time>
      </trkpt>
      <trkpt lat="46.18376" lon="4.60224">
        <ele>821.8</ele>
        <time>2025-09-20T10:09:55Z</time>
      </trkpt>
      <trkpt lat="46.18377" lon="4.60226">
        <ele>822</ele>
        <time>2025-09-20T10:09:56Z</time>
      </trkpt>
      <trkpt lat="46.18377" lon="4.60228">
        <ele>822.4</ele>
        <time>2025-09-20T10:09:57Z</time>
      </trkpt>
      <trkpt lat="46.18376" lon="4.60231">
        <ele>822.4</ele>
        <time>2025-09-20T10:09:58Z</time>
      </trkpt>
      <trkpt lat="46.18373" lon="4.60235">
        <ele>822.4</ele>
        <time>2025-09-20T10:09:59Z</time>
      </trkpt>
      <trkpt lat="46.18371" lon="4.60237">
        <ele>822.4</ele>
        <time>2025-09-20T10:10:00Z</time>
      </trkpt>
      <trkpt lat="46.18371" lon="4.60239">
        <ele>822.8</ele>
        <time>2025-09-20T10:10:01Z</time>
      </trkpt>
      <trkpt lat="46.1837" lon="4.60241">
        <ele>822.8</ele>
        <time>2025-09-20T10:10:02Z</time>
      </trkpt>
      <trkpt lat="46.1837" lon="4.60243">
        <ele>822.8</ele>
        <time>2025-09-20T10:10:03Z</time>
      </trkpt>
      <trkpt lat="46.1837" lon="4.60244">
        <ele>823</ele>
        <time>2025-09-20T10:10:04Z</time>
      </trkpt>
      <trkpt lat="46.1837" lon="4.60246">
        <ele>823.4</ele>
        <time>2025-09-20T10:10:05Z</time>
      </trkpt>
      <trkpt lat="46.1837" lon="4.60249">
        <ele>823.6</ele>
        <time>2025-09-20T10:10:06Z</time>
      </trkpt>
      <trkpt lat="46.1837" lon="4.60251">
        <ele>823.6</ele>
        <time>2025-09-20T10:10:07Z</time>
      </trkpt>
      <trkpt lat="46.18369" lon="4.60253">
        <ele>823.8</ele>
        <time>2025-09-20T10:10:08Z</time>
      </trkpt>
      <trkpt lat="46.18368" lon="4.60256">
        <ele>824.2</ele>
        <time>2025-09-20T10:10:09Z</time>
      </trkpt>
      <trkpt lat="46.18367" lon="4.6026">
        <ele>824.2</ele>
        <time>2025-09-20T10:10:10Z</time>
      </trkpt>
      <trkpt lat="46.18366" lon="4.60262">
        <ele>824.4</ele>
        <time>2025-09-20T10:10:11Z</time>
      </trkpt>
      <trkpt lat="46.18366" lon="4.60264">
        <ele>824.4</ele>
        <time>2025-09-20T10:10:12Z</time>
      </trkpt>
      <trkpt lat="46.18365" lon="4.60267">
        <ele>824.6</ele>
        <time>2025-09-20T10:10:13Z</time>
      </trkpt>
      <trkpt lat="46.18365" lon="4.60269">
        <ele>824.6</ele>
        <time>2025-09-20T10:10:14Z</time>
      </trkpt>
      <trkpt lat="46.18365" lon="4.60271">
        <ele>825.2</ele>
        <time>2025-09-20T10:10:15Z</time>
      </trkpt>
      <trkpt lat="46.18364" lon="4.60274">
        <ele>825.2</ele>
        <time>2025-09-20T10:10:16Z</time>
      </trkpt>
      <trkpt lat="46.18364" lon="4.60276">
        <ele>825.6</ele>
        <time>2025-09-20T10:10:17Z</time>
      </trkpt>
      <trkpt lat="46.18364" lon="4.60279">
        <ele>825.6</ele>
        <time>2025-09-20T10:10:18Z</time>
      </trkpt>
      <trkpt lat="46.18363" lon="4.60281">
        <ele>825.6</ele>
        <time>2025-09-20T10:10:19Z</time>
      </trkpt>
      <trkpt lat="46.18363" lon="4.60284">
        <ele>825.6</ele>
        <time>2025-09-20T10:10:20Z</time>
      </trkpt>
      <trkpt lat="46.18363" lon="4.60287">
        <ele>825.8</ele>
        <time>2025-09-20T10:10:21Z</time>
      </trkpt>
      <trkpt lat="46.18362" lon="4.60289">
        <ele>825.8</ele>
        <time>2025-09-20T10:10:22Z</time>
      </trkpt>
      <trkpt lat="46.18362" lon="4.60292">
        <ele>826</ele>
        <time>2025-09-20T10:10:23Z</time>
      </trkpt>
      <trkpt lat="46.18362" lon="4.60295">
        <ele>826.4</ele>
        <time>2025-09-20T10:10:24Z</time>
      </trkpt>
      <trkpt lat="46.18363" lon="4.60297">
        <ele>826.8</ele>
        <time>2025-09-20T10:10:25Z</time>
      </trkpt>
      <trkpt lat="46.18363" lon="4.603">
        <ele>826.8</ele>
        <time>2025-09-20T10:10:26Z</time>
      </trkpt>
      <trkpt lat="46.18363" lon="4.60304">
        <ele>827.2</ele>
        <time>2025-09-20T10:10:27Z</time>
      </trkpt>
      <trkpt lat="46.18362" lon="4.60307">
        <ele>827.2</ele>
        <time>2025-09-20T10:10:28Z</time>
      </trkpt>
      <trkpt lat="46.18362" lon="4.60308">
        <ele>827.6</ele>
        <time>2025-09-20T10:10:29Z</time>
      </trkpt>
      <trkpt lat="46.18362" lon="4.6031">
        <ele>827.8</ele>
        <time>2025-09-20T10:10:30Z</time>
      </trkpt>
      <trkpt lat="46.18363" lon="4.60313">
        <ele>828.2</ele>
        <time>2025-09-20T10:10:31Z</time>
      </trkpt>
      <trkpt lat="46.18364" lon="4.60314">
        <ele>828.2</ele>
        <time>2025-09-20T10:10:32Z</time>
      </trkpt>
      <trkpt lat="46.18366" lon="4.60316">
        <ele>828.2</ele>
        <time>2025-09-20T10:10:33Z</time>
      </trkpt>
      <trkpt lat="46.18366" lon="4.60317">
        <ele>828.6</ele>
        <time>2025-09-20T10:10:34Z</time>
      </trkpt>
      <trkpt lat="46.18367" lon="4.60319">
        <ele>829</ele>
        <time>2025-09-20T10:10:35Z</time>
      </trkpt>
      <trkpt lat="46.18367" lon="4.60321">
        <ele>829.2</ele>
        <time>2025-09-20T10:10:36Z</time>
      </trkpt>
      <trkpt lat="46.18366" lon="4.60323">
        <ele>829.8</ele>
        <time>2025-09-20T10:10:37Z</time>
      </trkpt>
      <trkpt lat="46.18366" lon="4.60325">
        <ele>830.4</ele>
        <time>2025-09-20T10:10:38Z</time>
      </trkpt>
      <trkpt lat="46.18365" lon="4.60327">
        <ele>830.4</ele>
        <time>2025-09-20T10:10:39Z</time>
      </trkpt>
      <trkpt lat="46.18365" lon="4.60329">
        <ele>830.6</ele>
        <time>2025-09-20T10:10:40Z</time>
      </trkpt>
      <trkpt lat="46.18365" lon="4.60329">
        <ele>830.6</ele>
        <time>2025-09-20T10:10:41Z</time>
      </trkpt>
      <trkpt lat="46.18364" lon="4.60331">
        <ele>830.8</ele>
        <time>2025-09-20T10:10:42Z</time>
      </trkpt>
      <trkpt lat="46.18364" lon="4.60333">
        <ele>831</ele>
        <time>2025-09-20T10:10:43Z</time>
      </trkpt>
      <trkpt lat="46.18364" lon="4.60335">
        <ele>831</ele>
        <time>2025-09-20T10:10:44Z</time>
      </trkpt>
      <trkpt lat="46.18363" lon="4.60337">
        <ele>831.4</ele>
        <time>2025-09-20T10:10:45Z</time>
      </trkpt>
      <trkpt lat="46.18361" lon="4.60339">
        <ele>831.4</ele>
        <time>2025-09-20T10:10:46Z</time>
      </trkpt>
      <trkpt lat="46.18361" lon="4.6034">
        <ele>831.8</ele>
        <time>2025-09-20T10:10:47Z</time>
      </trkpt>
      <trkpt lat="46.18361" lon="4.60342">
        <ele>831.8</ele>
        <time>2025-09-20T10:10:48Z</time>
      </trkpt>
      <trkpt lat="46.18362" lon="4.60343">
        <ele>831.8</ele>
        <time>2025-09-20T10:10:49Z</time>
      </trkpt>
      <trkpt lat="46.18362" lon="4.60344">
        <ele>831.8</ele>
        <time>2025-09-20T10:10:50Z</time>
      </trkpt>
      <trkpt lat="46.18363" lon="4.60344">
        <ele>831.8</ele>
        <time>2025-09-20T10:10:51Z</time>
      </trkpt>
      <trkpt lat="46.18362" lon="4.60347">
        <ele>832.8</ele>
        <time>2025-09-20T10:10:57Z</time>
      </trkpt>
      <trkpt lat="46.18362" lon="4.60349">
        <ele>832.8</ele>
        <time>2025-09-20T10:10:58Z</time>
      </trkpt>
      <trkpt lat="46.18361" lon="4.60352">
        <ele>832.8</ele>
        <time>2025-09-20T10:10:59Z</time>
      </trkpt>
      <trkpt lat="46.1836" lon="4.60356">
        <ele>832.8</ele>
        <time>2025-09-20T10:11:00Z</time>
      </trkpt>
      <trkpt lat="46.1836" lon="4.60358">
        <ele>832.8</ele>
        <time>2025-09-20T10:11:01Z</time>
      </trkpt>
      <trkpt lat="46.1836" lon="4.60361">
        <ele>832.8</ele>
        <time>2025-09-20T10:11:02Z</time>
      </trkpt>
      <trkpt lat="46.1836" lon="4.60362">
        <ele>833.2</ele>
        <time>2025-09-20T10:11:03Z</time>
      </trkpt>
      <trkpt lat="46.1836" lon="4.60364">
        <ele>833.2</ele>
        <time>2025-09-20T10:11:04Z</time>
      </trkpt>
      <trkpt lat="46.18359" lon="4.60366">
        <ele>833.6</ele>
        <time>2025-09-20T10:11:05Z</time>
      </trkpt>
      <trkpt lat="46.18359" lon="4.60367">
        <ele>833.6</ele>
        <time>2025-09-20T10:11:06Z</time>
      </trkpt>
      <trkpt lat="46.18358" lon="4.60369">
        <ele>833.8</ele>
        <time>2025-09-20T10:11:07Z</time>
      </trkpt>
      <trkpt lat="46.18358" lon="4.6037">
        <ele>833.8</ele>
        <time>2025-09-20T10:11:08Z</time>
      </trkpt>
      <trkpt lat="46.18357" lon="4.60372">
        <ele>833.8</ele>
        <time>2025-09-20T10:11:09Z</time>
      </trkpt>
      <trkpt lat="46.18356" lon="4.60373">
        <ele>834</ele>
        <time>2025-09-20T10:11:10Z</time>
      </trkpt>
      <trkpt lat="46.18356" lon="4.60374">
        <ele>834</ele>
        <time>2025-09-20T10:11:11Z</time>
      </trkpt>
      <trkpt lat="46.18356" lon="4.60374">
        <ele>834</ele>
        <time>2025-09-20T10:11:12Z</time>
      </trkpt>
      <trkpt lat="46.18356" lon="4.60373">
        <ele>834</ele>
        <time>2025-09-20T10:11:13Z</time>
      </trkpt>
      <trkpt lat="46.18356" lon="4.60373">
        <ele>834</ele>
        <time>2025-09-20T10:11:14Z</time>
      </trkpt>
      <trkpt lat="46.18356" lon="4.60373">
        <ele>834.4</ele>
        <time>2025-09-20T10:11:15Z</time>
      </trkpt>
      <trkpt lat="46.18355" lon="4.60375">
        <ele>834.4</ele>
        <time>2025-09-20T10:11:16Z</time>
      </trkpt>
      <trkpt lat="46.18355" lon="4.60377">
        <ele>834.4</ele>
        <time>2025-09-20T10:11:17Z</time>
      </trkpt>
      <trkpt lat="46.18354" lon="4.6038">
        <ele>834.4</ele>
        <time>2025-09-20T10:11:18Z</time>
      </trkpt>
      <trkpt lat="46.18354" lon="4.60383">
        <ele>834.4</ele>
        <time>2025-09-20T10:11:19Z</time>
      </trkpt>
      <trkpt lat="46.18354" lon="4.60385">
        <ele>834.4</ele>
        <time>2025-09-20T10:11:20Z</time>
      </trkpt>
      <trkpt lat="46.18354" lon="4.60387">
        <ele>834.6</ele>
        <time>2025-09-20T10:11:21Z</time>
      </trkpt>
      <trkpt lat="46.18354" lon="4.60389">
        <ele>834.6</ele>
        <time>2025-09-20T10:11:22Z</time>
      </trkpt>
    </trkseg>
  </trk>
</gpx>